<?xml version='1.0' encoding='UTF-8'?><gpx version="1.1" creator="JPX - https://github.com/jenetics/jpx" xmlns="http://www.topografix.com/GPX/1/1"><trk><trkseg><trkpt lat="44.92168" lon="9.6111"><ele>131.0</ele><time>2026-05-02T08:09:45.991Z</time></trkpt><trkpt lat="44.9217233" lon="9.6110283"><ele>131.0</ele><time>2026-05-02T08:09:47.99Z</time></trkpt><trkpt lat="44.9217483" lon="9.610945"><ele>131.0</ele><time>2026-05-02T08:09:49.991Z</time></trkpt><trkpt lat="44.921725" lon="9.610845"><ele>131.0</ele><time>2026-05-02T08:09:51.991Z</time></trkpt><trkpt lat="44.92166" lon="9.6107517"><ele>131.0</ele><time>2026-05-02T08:09:53.991Z</time></trkpt><trkpt lat="44.9215833" lon="9.6106717"><ele>131.0</ele><time>2026-05-02T08:09:55.991Z</time></trkpt><trkpt lat="44.9214817" lon="9.6105833"><ele>131.0</ele><time>2026-05-02T08:09:57.991Z</time></trkpt><trkpt lat="44.9214117" lon="9.6105367"><ele>131.0</ele><time>2026-05-02T08:09:58.992Z</time></trkpt><trkpt lat="44.9213217" lon="9.6104583"><ele>131.0</ele><time>2026-05-02T08:10:00.991Z</time></trkpt><trkpt lat="44.9212717" lon="9.610395"><ele>131.0</ele><time>2026-05-02T08:10:02.99Z</time></trkpt><trkpt lat="44.9212567" lon="9.6103067"><ele>131.0</ele><time>2026-05-02T08:10:05.991Z</time></trkpt><trkpt lat="44.9212683" lon="9.6102133"><ele>131.0</ele><time>2026-05-02T08:10:07.991Z</time></trkpt><trkpt lat="44.92132" lon="9.610115"><ele>131.2</ele><time>2026-05-02T08:10:09.991Z</time></trkpt><trkpt lat="44.9213833" lon="9.6100733"><ele>131.39999999999998</ele><time>2026-05-02T08:10:12.989Z</time></trkpt><trkpt lat="44.9213883" lon="9.6099383"><ele>131.6</ele><time>2026-05-02T08:10:26.99Z</time></trkpt><trkpt lat="44.92135" lon="9.6098533"><ele>131.79999999999998</ele><time>2026-05-02T08:10:27.99Z</time></trkpt><trkpt lat="44.9212833" lon="9.60974"><ele>132.0</ele><time>2026-05-02T08:10:28.989Z</time></trkpt><trkpt lat="44.921195" lon="9.6096167"><ele>132.0</ele><time>2026-05-02T08:10:29.989Z</time></trkpt><trkpt lat="44.9210933" lon="9.6095"><ele>132.0</ele><time>2026-05-02T08:10:30.989Z</time></trkpt><trkpt lat="44.92098" lon="9.6093833"><ele>132.0</ele><time>2026-05-02T08:10:31.99Z</time></trkpt><trkpt lat="44.92086" lon="9.609255"><ele>132.0</ele><time>2026-05-02T08:10:32.989Z</time></trkpt><trkpt lat="44.9207317" lon="9.6091233"><ele>132.66666666666666</ele><time>2026-05-02T08:10:33.989Z</time></trkpt><trkpt lat="44.9206" lon="9.6089867"><ele>133.33333333333331</ele><time>2026-05-02T08:10:34.99Z</time></trkpt><trkpt lat="44.920465" lon="9.6088467"><ele>134.0</ele><time>2026-05-02T08:10:35.989Z</time></trkpt><trkpt lat="44.9203333" lon="9.608715"><ele>133.75</ele><time>2026-05-02T08:10:36.99Z</time></trkpt><trkpt lat="44.9202083" lon="9.6085933"><ele>133.5</ele><time>2026-05-02T08:10:37.991Z</time></trkpt><trkpt lat="44.92009" lon="9.60848"><ele>133.25</ele><time>2026-05-02T08:10:38.99Z</time></trkpt><trkpt lat="44.9199783" lon="9.6083817"><ele>133.0</ele><time>2026-05-02T08:10:39.99Z</time></trkpt><trkpt lat="44.9198767" lon="9.6083"><ele>133.4</ele><time>2026-05-02T08:10:40.99Z</time></trkpt><trkpt lat="44.9197833" lon="9.608225"><ele>133.8</ele><time>2026-05-02T08:10:41.989Z</time></trkpt><trkpt lat="44.9196917" lon="9.6081517"><ele>134.2</ele><time>2026-05-02T08:10:42.99Z</time></trkpt><trkpt lat="44.919595" lon="9.6080817"><ele>134.6</ele><time>2026-05-02T08:10:43.991Z</time></trkpt><trkpt lat="44.9194933" lon="9.6080083"><ele>135.0</ele><time>2026-05-02T08:10:44.989Z</time></trkpt><trkpt lat="44.9193817" lon="9.6079283"><ele>135.0</ele><time>2026-05-02T08:10:45.99Z</time></trkpt><trkpt lat="44.91926" lon="9.607845"><ele>135.0</ele><time>2026-05-02T08:10:46.989Z</time></trkpt><trkpt lat="44.919135" lon="9.6077567"><ele>135.0</ele><time>2026-05-02T08:10:47.99Z</time></trkpt><trkpt lat="44.919015" lon="9.6076783"><ele>135.0</ele><time>2026-05-02T08:10:48.991Z</time></trkpt><trkpt lat="44.9189067" lon="9.6076067"><ele>135.2</ele><time>2026-05-02T08:10:49.99Z</time></trkpt><trkpt lat="44.9188033" lon="9.6075383"><ele>135.4</ele><time>2026-05-02T08:10:50.992Z</time></trkpt><trkpt lat="44.9187033" lon="9.6074767"><ele>135.6</ele><time>2026-05-02T08:10:51.991Z</time></trkpt><trkpt lat="44.91861" lon="9.60742"><ele>135.8</ele><time>2026-05-02T08:10:52.99Z</time></trkpt><trkpt lat="44.918525" lon="9.6073667"><ele>136.0</ele><time>2026-05-02T08:10:53.991Z</time></trkpt><trkpt lat="44.9184367" lon="9.60731"><ele>136.4</ele><time>2026-05-02T08:10:54.99Z</time></trkpt><trkpt lat="44.9183433" lon="9.60725"><ele>136.8</ele><time>2026-05-02T08:10:55.989Z</time></trkpt><trkpt lat="44.918245" lon="9.6071817"><ele>137.20000000000002</ele><time>2026-05-02T08:10:56.989Z</time></trkpt><trkpt lat="44.9181383" lon="9.60711"><ele>137.6</ele><time>2026-05-02T08:10:57.989Z</time></trkpt><trkpt lat="44.9180333" lon="9.60704"><ele>138.0</ele><time>2026-05-02T08:10:58.989Z</time></trkpt><trkpt lat="44.9179367" lon="9.6069733"><ele>138.0</ele><time>2026-05-02T08:10:59.989Z</time></trkpt><trkpt lat="44.9178467" lon="9.6069133"><ele>138.0</ele><time>2026-05-02T08:11:00.989Z</time></trkpt><trkpt lat="44.9177617" lon="9.6068467"><ele>138.0</ele><time>2026-05-02T08:11:01.989Z</time></trkpt><trkpt lat="44.9176667" lon="9.60677"><ele>138.0</ele><time>2026-05-02T08:11:02.989Z</time></trkpt><trkpt lat="44.9175683" lon="9.6066817"><ele>138.0</ele><time>2026-05-02T08:11:03.991Z</time></trkpt><trkpt lat="44.9174683" lon="9.6065833"><ele>138.0</ele><time>2026-05-02T08:11:04.99Z</time></trkpt><trkpt lat="44.9173667" lon="9.6064783"><ele>138.0</ele><time>2026-05-02T08:11:05.989Z</time></trkpt><trkpt lat="44.9172617" lon="9.60637"><ele>138.0</ele><time>2026-05-02T08:11:06.99Z</time></trkpt><trkpt lat="44.9171483" lon="9.6062483"><ele>138.0</ele><time>2026-05-02T08:11:07.99Z</time></trkpt><trkpt lat="44.9170217" lon="9.6061183"><ele>138.0</ele><time>2026-05-02T08:11:08.989Z</time></trkpt><trkpt lat="44.9168933" lon="9.6059883"><ele>138.0</ele><time>2026-05-02T08:11:09.989Z</time></trkpt><trkpt lat="44.91677" lon="9.605855"><ele>138.0</ele><time>2026-05-02T08:11:10.989Z</time></trkpt><trkpt lat="44.916645" lon="9.605725"><ele>138.75</ele><time>2026-05-02T08:11:11.989Z</time></trkpt><trkpt lat="44.916535" lon="9.605595"><ele>139.5</ele><time>2026-05-02T08:11:12.989Z</time></trkpt><trkpt lat="44.9164367" lon="9.6054683"><ele>140.25</ele><time>2026-05-02T08:11:13.99Z</time></trkpt><trkpt lat="44.91635" lon="9.6053467"><ele>141.0</ele><time>2026-05-02T08:11:14.99Z</time></trkpt><trkpt lat="44.91627" lon="9.605225"><ele>141.0</ele><time>2026-05-02T08:11:15.99Z</time></trkpt><trkpt lat="44.9161867" lon="9.6050933"><ele>141.0</ele><time>2026-05-02T08:11:16.989Z</time></trkpt><trkpt lat="44.9161067" lon="9.6049533"><ele>141.0</ele><time>2026-05-02T08:11:17.99Z</time></trkpt><trkpt lat="44.9160283" lon="9.6048217"><ele>141.0</ele><time>2026-05-02T08:11:18.99Z</time></trkpt><trkpt lat="44.9159567" lon="9.604695"><ele>141.5</ele><time>2026-05-02T08:11:19.99Z</time></trkpt><trkpt lat="44.9158933" lon="9.60456"><ele>142.0</ele><time>2026-05-02T08:11:20.991Z</time></trkpt><trkpt lat="44.91583" lon="9.604415"><ele>142.5</ele><time>2026-05-02T08:11:21.991Z</time></trkpt><trkpt lat="44.91577" lon="9.6042633"><ele>143.0</ele><time>2026-05-02T08:11:22.991Z</time></trkpt><trkpt lat="44.91571" lon="9.6041067"><ele>143.0</ele><time>2026-05-02T08:11:23.991Z</time></trkpt><trkpt lat="44.9156417" lon="9.603945"><ele>143.0</ele><time>2026-05-02T08:11:24.989Z</time></trkpt><trkpt lat="44.9155683" lon="9.603765"><ele>143.0</ele><time>2026-05-02T08:11:25.99Z</time></trkpt><trkpt lat="44.9154883" lon="9.6035617"><ele>143.0</ele><time>2026-05-02T08:11:26.991Z</time></trkpt><trkpt lat="44.9154017" lon="9.6033583"><ele>142.5</ele><time>2026-05-02T08:11:27.989Z</time></trkpt><trkpt lat="44.9153267" lon="9.60317"><ele>142.0</ele><time>2026-05-02T08:11:28.993Z</time></trkpt><trkpt lat="44.9152617" lon="9.603"><ele>141.5</ele><time>2026-05-02T08:11:29.989Z</time></trkpt><trkpt lat="44.9152017" lon="9.6028417"><ele>141.0</ele><time>2026-05-02T08:11:30.989Z</time></trkpt><trkpt lat="44.9151433" lon="9.6026883"><ele>140.0</ele><time>2026-05-02T08:11:31.99Z</time></trkpt><trkpt lat="44.9150833" lon="9.6025267"><ele>139.0</ele><time>2026-05-02T08:11:32.99Z</time></trkpt><trkpt lat="44.9150183" lon="9.6023667"><ele>138.0</ele><time>2026-05-02T08:11:33.991Z</time></trkpt><trkpt lat="44.9149567" lon="9.60221"><ele>137.0</ele><time>2026-05-02T08:11:34.992Z</time></trkpt><trkpt lat="44.914895" lon="9.602055"><ele>136.5</ele><time>2026-05-02T08:11:35.989Z</time></trkpt><trkpt lat="44.9148317" lon="9.6018967"><ele>136.0</ele><time>2026-05-02T08:11:36.99Z</time></trkpt><trkpt lat="44.9147633" lon="9.60173"><ele>135.5</ele><time>2026-05-02T08:11:37.99Z</time></trkpt><trkpt lat="44.9146967" lon="9.6015633"><ele>135.0</ele><time>2026-05-02T08:11:38.989Z</time></trkpt><trkpt lat="44.9146333" lon="9.6014083"><ele>135.0</ele><time>2026-05-02T08:11:39.99Z</time></trkpt><trkpt lat="44.9145733" lon="9.601255"><ele>135.0</ele><time>2026-05-02T08:11:40.99Z</time></trkpt><trkpt lat="44.9145117" lon="9.601105"><ele>135.0</ele><time>2026-05-02T08:11:41.99Z</time></trkpt><trkpt lat="44.91445" lon="9.6009517"><ele>135.0</ele><time>2026-05-02T08:11:42.99Z</time></trkpt><trkpt lat="44.9143933" lon="9.6008033"><ele>134.8</ele><time>2026-05-02T08:11:43.989Z</time></trkpt><trkpt lat="44.9143367" lon="9.6006667"><ele>134.6</ele><time>2026-05-02T08:11:44.99Z</time></trkpt><trkpt lat="44.9142817" lon="9.60053"><ele>134.4</ele><time>2026-05-02T08:11:45.99Z</time></trkpt><trkpt lat="44.91423" lon="9.600395"><ele>134.2</ele><time>2026-05-02T08:11:46.991Z</time></trkpt><trkpt lat="44.914175" lon="9.60026"><ele>134.0</ele><time>2026-05-02T08:11:47.991Z</time></trkpt><trkpt lat="44.9141167" lon="9.600125"><ele>134.4</ele><time>2026-05-02T08:11:48.99Z</time></trkpt><trkpt lat="44.9140617" lon="9.59999"><ele>134.8</ele><time>2026-05-02T08:11:49.99Z</time></trkpt><trkpt lat="44.9140083" lon="9.5998567"><ele>135.2</ele><time>2026-05-02T08:11:50.991Z</time></trkpt><trkpt lat="44.9139583" lon="9.59973"><ele>135.6</ele><time>2026-05-02T08:11:51.99Z</time></trkpt><trkpt lat="44.9139083" lon="9.5996083"><ele>136.0</ele><time>2026-05-02T08:11:52.991Z</time></trkpt><trkpt lat="44.9138583" lon="9.5994817"><ele>136.2</ele><time>2026-05-02T08:11:53.991Z</time></trkpt><trkpt lat="44.913805" lon="9.59935"><ele>136.39999999999998</ele><time>2026-05-02T08:11:54.99Z</time></trkpt><trkpt lat="44.91375" lon="9.5992117"><ele>136.6</ele><time>2026-05-02T08:11:55.99Z</time></trkpt><trkpt lat="44.913695" lon="9.5990717"><ele>136.79999999999998</ele><time>2026-05-02T08:11:56.99Z</time></trkpt><trkpt lat="44.9136383" lon="9.59893"><ele>137.0</ele><time>2026-05-02T08:11:57.991Z</time></trkpt><trkpt lat="44.9135817" lon="9.5987883"><ele>137.25</ele><time>2026-05-02T08:11:58.989Z</time></trkpt><trkpt lat="44.913525" lon="9.598645"><ele>137.5</ele><time>2026-05-02T08:11:59.991Z</time></trkpt><trkpt lat="44.9134667" lon="9.598495"><ele>137.75</ele><time>2026-05-02T08:12:00.99Z</time></trkpt><trkpt lat="44.9134083" lon="9.5983417"><ele>138.0</ele><time>2026-05-02T08:12:01.99Z</time></trkpt><trkpt lat="44.91335" lon="9.598195"><ele>138.0</ele><time>2026-05-02T08:12:02.99Z</time></trkpt><trkpt lat="44.913295" lon="9.59805"><ele>138.0</ele><time>2026-05-02T08:12:03.99Z</time></trkpt><trkpt lat="44.91324" lon="9.5979117"><ele>138.0</ele><time>2026-05-02T08:12:04.989Z</time></trkpt><trkpt lat="44.913185" lon="9.5977767"><ele>138.0</ele><time>2026-05-02T08:12:05.99Z</time></trkpt><trkpt lat="44.91313" lon="9.5976417"><ele>138.0</ele><time>2026-05-02T08:12:06.991Z</time></trkpt><trkpt lat="44.91307" lon="9.5975033"><ele>138.0</ele><time>2026-05-02T08:12:07.99Z</time></trkpt><trkpt lat="44.9130083" lon="9.5973633"><ele>138.0</ele><time>2026-05-02T08:12:08.991Z</time></trkpt><trkpt lat="44.91294" lon="9.5972267"><ele>138.0</ele><time>2026-05-02T08:12:09.989Z</time></trkpt><trkpt lat="44.912865" lon="9.5970967"><ele>138.0</ele><time>2026-05-02T08:12:10.99Z</time></trkpt><trkpt lat="44.9127817" lon="9.5969733"><ele>138.0</ele><time>2026-05-02T08:12:11.99Z</time></trkpt><trkpt lat="44.9126933" lon="9.5968567"><ele>138.0</ele><time>2026-05-02T08:12:12.99Z</time></trkpt><trkpt lat="44.9125983" lon="9.596745"><ele>138.0</ele><time>2026-05-02T08:12:13.989Z</time></trkpt><trkpt lat="44.912495" lon="9.5966417"><ele>138.0</ele><time>2026-05-02T08:12:14.99Z</time></trkpt><trkpt lat="44.91239" lon="9.5965483"><ele>138.20000000000002</ele><time>2026-05-02T08:12:15.991Z</time></trkpt><trkpt lat="44.91229" lon="9.5964717"><ele>138.4</ele><time>2026-05-02T08:12:16.99Z</time></trkpt><trkpt lat="44.912195" lon="9.59641"><ele>138.60000000000002</ele><time>2026-05-02T08:12:17.99Z</time></trkpt><trkpt lat="44.91211" lon="9.59636"><ele>138.8</ele><time>2026-05-02T08:12:18.99Z</time></trkpt><trkpt lat="44.9120333" lon="9.59632"><ele>139.0</ele><time>2026-05-02T08:12:19.99Z</time></trkpt><trkpt lat="44.9119617" lon="9.5962867"><ele>139.0</ele><time>2026-05-02T08:12:20.991Z</time></trkpt><trkpt lat="44.911895" lon="9.5962567"><ele>139.0</ele><time>2026-05-02T08:12:21.99Z</time></trkpt><trkpt lat="44.9118333" lon="9.5962267"><ele>139.0</ele><time>2026-05-02T08:12:22.99Z</time></trkpt><trkpt lat="44.9117717" lon="9.5961967"><ele>139.0</ele><time>2026-05-02T08:12:23.99Z</time></trkpt><trkpt lat="44.911705" lon="9.5961633"><ele>139.0</ele><time>2026-05-02T08:12:24.99Z</time></trkpt><trkpt lat="44.9116317" lon="9.5961267"><ele>139.0</ele><time>2026-05-02T08:12:25.99Z</time></trkpt><trkpt lat="44.9115483" lon="9.5960833"><ele>139.0</ele><time>2026-05-02T08:12:26.989Z</time></trkpt><trkpt lat="44.9114567" lon="9.5960333"><ele>137.6</ele><time>2026-05-02T08:12:27.989Z</time></trkpt><trkpt lat="44.9113633" lon="9.5959867"><ele>136.2</ele><time>2026-05-02T08:12:28.99Z</time></trkpt><trkpt lat="44.9112767" lon="9.5959383"><ele>134.79999999999998</ele><time>2026-05-02T08:12:29.991Z</time></trkpt><trkpt lat="44.9111917" lon="9.5958933"><ele>133.4</ele><time>2026-05-02T08:12:30.991Z</time></trkpt><trkpt lat="44.9111067" lon="9.5958483"><ele>132.0</ele><time>2026-05-02T08:12:31.989Z</time></trkpt><trkpt lat="44.9110183" lon="9.5958"><ele>132.0</ele><time>2026-05-02T08:12:32.99Z</time></trkpt><trkpt lat="44.9109233" lon="9.59575"><ele>132.0</ele><time>2026-05-02T08:12:33.99Z</time></trkpt><trkpt lat="44.91083" lon="9.5957"><ele>132.0</ele><time>2026-05-02T08:12:34.989Z</time></trkpt><trkpt lat="44.91074" lon="9.5956517"><ele>132.0</ele><time>2026-05-02T08:12:35.99Z</time></trkpt><trkpt lat="44.9106533" lon="9.595605"><ele>132.0</ele><time>2026-05-02T08:12:36.991Z</time></trkpt><trkpt lat="44.9105717" lon="9.5955567"><ele>131.79999999999998</ele><time>2026-05-02T08:12:37.991Z</time></trkpt><trkpt lat="44.9104867" lon="9.595505"><ele>131.6</ele><time>2026-05-02T08:12:38.991Z</time></trkpt><trkpt lat="44.910395" lon="9.595445"><ele>131.39999999999998</ele><time>2026-05-02T08:12:39.991Z</time></trkpt><trkpt lat="44.9103033" lon="9.5953767"><ele>131.2</ele><time>2026-05-02T08:12:40.99Z</time></trkpt><trkpt lat="44.9102183" lon="9.5953033"><ele>131.0</ele><time>2026-05-02T08:12:41.99Z</time></trkpt><trkpt lat="44.9101383" lon="9.5952233"><ele>131.2</ele><time>2026-05-02T08:12:42.989Z</time></trkpt><trkpt lat="44.91006" lon="9.5951433"><ele>131.39999999999998</ele><time>2026-05-02T08:12:43.989Z</time></trkpt><trkpt lat="44.9099867" lon="9.59506"><ele>131.6</ele><time>2026-05-02T08:12:44.99Z</time></trkpt><trkpt lat="44.90992" lon="9.594975"><ele>131.79999999999998</ele><time>2026-05-02T08:12:45.989Z</time></trkpt><trkpt lat="44.9098567" lon="9.59489"><ele>132.0</ele><time>2026-05-02T08:12:46.99Z</time></trkpt><trkpt lat="44.909795" lon="9.594805"><ele>132.0</ele><time>2026-05-02T08:12:47.99Z</time></trkpt><trkpt lat="44.909735" lon="9.5947217"><ele>132.0</ele><time>2026-05-02T08:12:48.994Z</time></trkpt><trkpt lat="44.9096783" lon="9.5946417"><ele>132.0</ele><time>2026-05-02T08:12:49.991Z</time></trkpt><trkpt lat="44.9096217" lon="9.59456"><ele>132.0</ele><time>2026-05-02T08:12:50.991Z</time></trkpt><trkpt lat="44.90956" lon="9.59447"><ele>132.0</ele><time>2026-05-02T08:12:51.991Z</time></trkpt><trkpt lat="44.90949" lon="9.5943667"><ele>132.0</ele><time>2026-05-02T08:12:52.991Z</time></trkpt><trkpt lat="44.9094167" lon="9.5942517"><ele>131.75</ele><time>2026-05-02T08:12:53.991Z</time></trkpt><trkpt lat="44.90934" lon="9.59413"><ele>131.5</ele><time>2026-05-02T08:12:54.992Z</time></trkpt><trkpt lat="44.9092633" lon="9.594005"><ele>131.25</ele><time>2026-05-02T08:12:55.99Z</time></trkpt><trkpt lat="44.9091883" lon="9.5938833"><ele>131.0</ele><time>2026-05-02T08:12:56.99Z</time></trkpt><trkpt lat="44.9091167" lon="9.593765"><ele>131.6</ele><time>2026-05-02T08:12:57.99Z</time></trkpt><trkpt lat="44.90905" lon="9.5936567"><ele>132.2</ele><time>2026-05-02T08:12:58.99Z</time></trkpt><trkpt lat="44.908985" lon="9.5935533"><ele>132.8</ele><time>2026-05-02T08:12:59.991Z</time></trkpt><trkpt lat="44.9089183" lon="9.5934483"><ele>133.4</ele><time>2026-05-02T08:13:00.99Z</time></trkpt><trkpt lat="44.90885" lon="9.59334"><ele>134.0</ele><time>2026-05-02T08:13:01.99Z</time></trkpt><trkpt lat="44.9087817" lon="9.593235"><ele>134.0</ele><time>2026-05-02T08:13:02.99Z</time></trkpt><trkpt lat="44.908715" lon="9.5931317"><ele>134.0</ele><time>2026-05-02T08:13:03.99Z</time></trkpt><trkpt lat="44.90865" lon="9.59303"><ele>134.0</ele><time>2026-05-02T08:13:04.99Z</time></trkpt><trkpt lat="44.90859" lon="9.5929333"><ele>134.0</ele><time>2026-05-02T08:13:05.989Z</time></trkpt><trkpt lat="44.9085283" lon="9.5928417"><ele>134.0</ele><time>2026-05-02T08:13:06.99Z</time></trkpt><trkpt lat="44.9084633" lon="9.5927517"><ele>134.0</ele><time>2026-05-02T08:13:07.992Z</time></trkpt><trkpt lat="44.9083967" lon="9.592665"><ele>134.0</ele><time>2026-05-02T08:13:08.991Z</time></trkpt><trkpt lat="44.9083317" lon="9.5925833"><ele>134.0</ele><time>2026-05-02T08:13:09.99Z</time></trkpt><trkpt lat="44.9082667" lon="9.592515"><ele>134.0</ele><time>2026-05-02T08:13:10.991Z</time></trkpt><trkpt lat="44.9082067" lon="9.5924517"><ele>134.0</ele><time>2026-05-02T08:13:11.992Z</time></trkpt><trkpt lat="44.9081533" lon="9.5923983"><ele>134.0</ele><time>2026-05-02T08:13:12.99Z</time></trkpt><trkpt lat="44.90808" lon="9.5922867"><ele>134.0</ele><time>2026-05-02T08:13:14.99Z</time></trkpt><trkpt lat="44.9080467" lon="9.5921667"><ele>134.0</ele><time>2026-05-02T08:13:16.99Z</time></trkpt><trkpt lat="44.90802" lon="9.5920583"><ele>134.0</ele><time>2026-05-02T08:13:18.991Z</time></trkpt><trkpt lat="44.9079783" lon="9.5919367"><ele>134.0</ele><time>2026-05-02T08:13:20.992Z</time></trkpt><trkpt lat="44.9079133" lon="9.59178"><ele>134.0</ele><time>2026-05-02T08:13:22.991Z</time></trkpt><trkpt lat="44.9078733" lon="9.5916833"><ele>134.0</ele><time>2026-05-02T08:13:23.991Z</time></trkpt><trkpt lat="44.90783" lon="9.591575"><ele>134.0</ele><time>2026-05-02T08:13:24.99Z</time></trkpt><trkpt lat="44.90779" lon="9.591465"><ele>134.0</ele><time>2026-05-02T08:13:25.989Z</time></trkpt><trkpt lat="44.907755" lon="9.591355"><ele>134.0</ele><time>2026-05-02T08:13:26.99Z</time></trkpt><trkpt lat="44.90772" lon="9.59125"><ele>134.0</ele><time>2026-05-02T08:13:27.991Z</time></trkpt><trkpt lat="44.9076833" lon="9.59115"><ele>134.0</ele><time>2026-05-02T08:13:28.992Z</time></trkpt><trkpt lat="44.9076433" lon="9.5910517"><ele>134.0</ele><time>2026-05-02T08:13:29.991Z</time></trkpt><trkpt lat="44.907605" lon="9.5909633"><ele>134.0</ele><time>2026-05-02T08:13:30.989Z</time></trkpt><trkpt lat="44.9075667" lon="9.5908817"><ele>134.0</ele><time>2026-05-02T08:13:31.989Z</time></trkpt><trkpt lat="44.9074767" lon="9.59081"><ele>134.0</ele><time>2026-05-02T08:13:33.989Z</time></trkpt><trkpt lat="44.90737" lon="9.5908917"><ele>134.0</ele><time>2026-05-02T08:13:35.989Z</time></trkpt><trkpt lat="44.907315" lon="9.59096"><ele>134.0</ele><time>2026-05-02T08:13:36.989Z</time></trkpt><trkpt lat="44.90726" lon="9.59103"><ele>134.16666666666666</ele><time>2026-05-02T08:13:37.989Z</time></trkpt><trkpt lat="44.907205" lon="9.591095"><ele>134.33333333333331</ele><time>2026-05-02T08:13:38.99Z</time></trkpt><trkpt lat="44.90715" lon="9.59114"><ele>134.5</ele><time>2026-05-02T08:13:39.99Z</time></trkpt><trkpt lat="44.9070383" lon="9.591115"><ele>134.66666666666666</ele><time>2026-05-02T08:13:41.991Z</time></trkpt><trkpt lat="44.90699" lon="9.59105"><ele>134.83333333333334</ele><time>2026-05-02T08:13:42.99Z</time></trkpt><trkpt lat="44.9069417" lon="9.5909633"><ele>135.0</ele><time>2026-05-02T08:13:43.995Z</time></trkpt><trkpt lat="44.9068783" lon="9.59085"><ele>135.0</ele><time>2026-05-02T08:13:44.991Z</time></trkpt><trkpt lat="44.9068067" lon="9.59072"><ele>135.0</ele><time>2026-05-02T08:13:45.991Z</time></trkpt><trkpt lat="44.9067333" lon="9.5905867"><ele>135.0</ele><time>2026-05-02T08:13:46.989Z</time></trkpt><trkpt lat="44.9066617" lon="9.59045"><ele>135.0</ele><time>2026-05-02T08:13:47.99Z</time></trkpt><trkpt lat="44.9065933" lon="9.5903183"><ele>135.4</ele><time>2026-05-02T08:13:48.99Z</time></trkpt><trkpt lat="44.9065283" lon="9.5901933"><ele>135.8</ele><time>2026-05-02T08:13:49.991Z</time></trkpt><trkpt lat="44.9064617" lon="9.5900783"><ele>136.2</ele><time>2026-05-02T08:13:50.989Z</time></trkpt><trkpt lat="44.9064" lon="9.5899733"><ele>136.6</ele><time>2026-05-02T08:13:51.99Z</time></trkpt><trkpt lat="44.9063367" lon="9.58987"><ele>137.0</ele><time>2026-05-02T08:13:52.991Z</time></trkpt><trkpt lat="44.9062817" lon="9.5897817"><ele>137.0</ele><time>2026-05-02T08:13:53.989Z</time></trkpt><trkpt lat="44.90623" lon="9.5896967"><ele>137.0</ele><time>2026-05-02T08:13:54.988Z</time></trkpt><trkpt lat="44.9061817" lon="9.5896233"><ele>137.0</ele><time>2026-05-02T08:13:55.989Z</time></trkpt><trkpt lat="44.9061333" lon="9.5895617"><ele>137.0</ele><time>2026-05-02T08:13:56.988Z</time></trkpt><trkpt lat="44.9060383" lon="9.5895133"><ele>137.0</ele><time>2026-05-02T08:13:58.988Z</time></trkpt><trkpt lat="44.905965" lon="9.58959"><ele>137.0</ele><time>2026-05-02T08:14:00.989Z</time></trkpt><trkpt lat="44.9059367" lon="9.58967"><ele>137.6</ele><time>2026-05-02T08:14:01.988Z</time></trkpt><trkpt lat="44.9059067" lon="9.58975"><ele>138.2</ele><time>2026-05-02T08:14:02.989Z</time></trkpt><trkpt lat="44.9058683" lon="9.5898217"><ele>138.8</ele><time>2026-05-02T08:14:03.989Z</time></trkpt><trkpt lat="44.9057517" lon="9.5899017"><ele>139.4</ele><time>2026-05-02T08:14:05.99Z</time></trkpt><trkpt lat="44.9056667" lon="9.5898983"><ele>140.0</ele><time>2026-05-02T08:14:06.989Z</time></trkpt><trkpt lat="44.90556" lon="9.5898733"><ele>140.0</ele><time>2026-05-02T08:14:07.989Z</time></trkpt><trkpt lat="44.9054617" lon="9.5898433"><ele>140.0</ele><time>2026-05-02T08:14:08.989Z</time></trkpt><trkpt lat="44.9053783" lon="9.5898133"><ele>140.0</ele><time>2026-05-02T08:14:09.989Z</time></trkpt><trkpt lat="44.9053017" lon="9.58979"><ele>140.0</ele><time>2026-05-02T08:14:10.99Z</time></trkpt><trkpt lat="44.905235" lon="9.589775"><ele>140.0</ele><time>2026-05-02T08:14:11.989Z</time></trkpt><trkpt lat="44.9051733" lon="9.589755"><ele>140.0</ele><time>2026-05-02T08:14:12.988Z</time></trkpt><trkpt lat="44.9050667" lon="9.5896467"><ele>140.16666666666666</ele><time>2026-05-02T08:14:14.989Z</time></trkpt><trkpt lat="44.9049983" lon="9.5895767"><ele>140.33333333333331</ele><time>2026-05-02T08:14:15.988Z</time></trkpt><trkpt lat="44.90492" lon="9.5895083"><ele>140.5</ele><time>2026-05-02T08:14:16.99Z</time></trkpt><trkpt lat="44.9048417" lon="9.5894367"><ele>140.66666666666666</ele><time>2026-05-02T08:14:17.99Z</time></trkpt><trkpt lat="44.9047683" lon="9.58938"><ele>140.83333333333334</ele><time>2026-05-02T08:14:18.988Z</time></trkpt><trkpt lat="44.9046867" lon="9.5893233"><ele>141.0</ele><time>2026-05-02T08:14:19.99Z</time></trkpt><trkpt lat="44.9046033" lon="9.5892617"><ele>141.0</ele><time>2026-05-02T08:14:20.989Z</time></trkpt><trkpt lat="44.90452" lon="9.5892033"><ele>141.0</ele><time>2026-05-02T08:14:21.989Z</time></trkpt><trkpt lat="44.90444" lon="9.5891467"><ele>141.0</ele><time>2026-05-02T08:14:22.989Z</time></trkpt><trkpt lat="44.9043667" lon="9.5890933"><ele>141.0</ele><time>2026-05-02T08:14:23.989Z</time></trkpt><trkpt lat="44.9043033" lon="9.58904"><ele>141.0</ele><time>2026-05-02T08:14:24.989Z</time></trkpt><trkpt lat="44.9042417" lon="9.5889883"><ele>141.0</ele><time>2026-05-02T08:14:25.989Z</time></trkpt><trkpt lat="44.90419" lon="9.5889317"><ele>142.4</ele><time>2026-05-02T08:14:26.99Z</time></trkpt><trkpt lat="44.9041417" lon="9.5887983"><ele>143.8</ele><time>2026-05-02T08:14:28.989Z</time></trkpt><trkpt lat="44.90408" lon="9.5886983"><ele>145.20000000000002</ele><time>2026-05-02T08:14:30.988Z</time></trkpt><trkpt lat="44.9039567" lon="9.5886967"><ele>146.6</ele><time>2026-05-02T08:14:32.99Z</time></trkpt><trkpt lat="44.9038817" lon="9.5886833"><ele>148.0</ele><time>2026-05-02T08:14:33.988Z</time></trkpt><trkpt lat="44.9038083" lon="9.588645"><ele>148.0</ele><time>2026-05-02T08:14:34.989Z</time></trkpt><trkpt lat="44.9037283" lon="9.5885817"><ele>148.0</ele><time>2026-05-02T08:14:35.988Z</time></trkpt><trkpt lat="44.9036417" lon="9.5884967"><ele>148.0</ele><time>2026-05-02T08:14:36.989Z</time></trkpt><trkpt lat="44.9035567" lon="9.5884083"><ele>148.0</ele><time>2026-05-02T08:14:37.988Z</time></trkpt><trkpt lat="44.90347" lon="9.5883233"><ele>148.0</ele><time>2026-05-02T08:14:38.989Z</time></trkpt><trkpt lat="44.9033883" lon="9.5882483"><ele>148.66666666666669</ele><time>2026-05-02T08:14:39.99Z</time></trkpt><trkpt lat="44.9033117" lon="9.58818"><ele>149.33333333333334</ele><time>2026-05-02T08:14:40.99Z</time></trkpt><trkpt lat="44.9032417" lon="9.5881217"><ele>150.0</ele><time>2026-05-02T08:14:41.988Z</time></trkpt><trkpt lat="44.9031717" lon="9.5880667"><ele>150.66666666666666</ele><time>2026-05-02T08:14:42.989Z</time></trkpt><trkpt lat="44.9031067" lon="9.5880117"><ele>151.33333333333331</ele><time>2026-05-02T08:14:43.989Z</time></trkpt><trkpt lat="44.9030467" lon="9.587955"><ele>152.0</ele><time>2026-05-02T08:14:44.989Z</time></trkpt><trkpt lat="44.9029867" lon="9.5879"><ele>150.4</ele><time>2026-05-02T08:14:45.989Z</time></trkpt><trkpt lat="44.9029367" lon="9.5878433"><ele>148.79999999999998</ele><time>2026-05-02T08:14:46.991Z</time></trkpt><trkpt lat="44.90289" lon="9.587705"><ele>147.2</ele><time>2026-05-02T08:14:48.988Z</time></trkpt><trkpt lat="44.9028633" lon="9.587565"><ele>145.6</ele><time>2026-05-02T08:14:50.989Z</time></trkpt><trkpt lat="44.9027867" lon="9.5874717"><ele>144.0</ele><time>2026-05-02T08:14:52.989Z</time></trkpt><trkpt lat="44.9027233" lon="9.5874"><ele>144.0</ele><time>2026-05-02T08:14:53.989Z</time></trkpt><trkpt lat="44.9026617" lon="9.587325"><ele>144.0</ele><time>2026-05-02T08:14:54.99Z</time></trkpt><trkpt lat="44.902595" lon="9.587265"><ele>144.0</ele><time>2026-05-02T08:14:55.99Z</time></trkpt><trkpt lat="44.9025217" lon="9.587205"><ele>144.0</ele><time>2026-05-02T08:14:56.989Z</time></trkpt><trkpt lat="44.9024467" lon="9.5871433"><ele>144.0</ele><time>2026-05-02T08:14:57.989Z</time></trkpt><trkpt lat="44.902385" lon="9.5870783"><ele>144.0</ele><time>2026-05-02T08:14:58.989Z</time></trkpt><trkpt lat="44.9023283" lon="9.5870167"><ele>145.0</ele><time>2026-05-02T08:14:59.989Z</time></trkpt><trkpt lat="44.9022383" lon="9.586915"><ele>146.0</ele><time>2026-05-02T08:15:01.989Z</time></trkpt><trkpt lat="44.9021583" lon="9.586895"><ele>147.0</ele><time>2026-05-02T08:15:03.99Z</time></trkpt><trkpt lat="44.902095" lon="9.5869317"><ele>148.0</ele><time>2026-05-02T08:15:05.989Z</time></trkpt><trkpt lat="44.9020117" lon="9.5869033"><ele>149.0</ele><time>2026-05-02T08:15:07.989Z</time></trkpt><trkpt lat="44.90195" lon="9.58686"><ele>150.0</ele><time>2026-05-02T08:15:08.989Z</time></trkpt><trkpt lat="44.9018683" lon="9.5867917"><ele>150.0</ele><time>2026-05-02T08:15:09.989Z</time></trkpt><trkpt lat="44.901775" lon="9.5867017"><ele>150.0</ele><time>2026-05-02T08:15:10.99Z</time></trkpt><trkpt lat="44.9016767" lon="9.586605"><ele>150.0</ele><time>2026-05-02T08:15:11.989Z</time></trkpt><trkpt lat="44.9015683" lon="9.586495"><ele>150.0</ele><time>2026-05-02T08:15:12.989Z</time></trkpt><trkpt lat="44.9014567" lon="9.586375"><ele>148.75</ele><time>2026-05-02T08:15:13.989Z</time></trkpt><trkpt lat="44.9013517" lon="9.5862483"><ele>147.5</ele><time>2026-05-02T08:15:14.989Z</time></trkpt><trkpt lat="44.9012533" lon="9.5861033"><ele>146.25</ele><time>2026-05-02T08:15:15.989Z</time></trkpt><trkpt lat="44.9011667" lon="9.5859417"><ele>145.0</ele><time>2026-05-02T08:15:16.989Z</time></trkpt><trkpt lat="44.9010867" lon="9.5857733"><ele>145.0</ele><time>2026-05-02T08:15:17.988Z</time></trkpt><trkpt lat="44.90101" lon="9.5856167"><ele>145.0</ele><time>2026-05-02T08:15:18.988Z</time></trkpt><trkpt lat="44.900935" lon="9.5854667"><ele>145.0</ele><time>2026-05-02T08:15:19.989Z</time></trkpt><trkpt lat="44.9008633" lon="9.5853283"><ele>145.0</ele><time>2026-05-02T08:15:20.99Z</time></trkpt><trkpt lat="44.900795" lon="9.5851933"><ele>145.75</ele><time>2026-05-02T08:15:21.99Z</time></trkpt><trkpt lat="44.900725" lon="9.5850533"><ele>146.5</ele><time>2026-05-02T08:15:22.99Z</time></trkpt><trkpt lat="44.9006483" lon="9.5849017"><ele>147.25</ele><time>2026-05-02T08:15:23.99Z</time></trkpt><trkpt lat="44.90057" lon="9.5847333"><ele>148.0</ele><time>2026-05-02T08:15:24.991Z</time></trkpt><trkpt lat="44.9004983" lon="9.5845533"><ele>147.5</ele><time>2026-05-02T08:15:25.99Z</time></trkpt><trkpt lat="44.9004383" lon="9.5843667"><ele>147.0</ele><time>2026-05-02T08:15:26.99Z</time></trkpt><trkpt lat="44.90039" lon="9.5841817"><ele>146.5</ele><time>2026-05-02T08:15:27.991Z</time></trkpt><trkpt lat="44.9003467" lon="9.5840017"><ele>146.0</ele><time>2026-05-02T08:15:28.99Z</time></trkpt><trkpt lat="44.900305" lon="9.5838333"><ele>145.0</ele><time>2026-05-02T08:15:29.989Z</time></trkpt><trkpt lat="44.9002633" lon="9.583675"><ele>144.0</ele><time>2026-05-02T08:15:30.989Z</time></trkpt><trkpt lat="44.9002333" lon="9.5835183"><ele>143.0</ele><time>2026-05-02T08:15:31.989Z</time></trkpt><trkpt lat="44.9002183" lon="9.583365"><ele>142.0</ele><time>2026-05-02T08:15:32.989Z</time></trkpt><trkpt lat="44.9002167" lon="9.5832117"><ele>142.0</ele><time>2026-05-02T08:15:33.991Z</time></trkpt><trkpt lat="44.9002233" lon="9.5830567"><ele>142.0</ele><time>2026-05-02T08:15:34.989Z</time></trkpt><trkpt lat="44.90024" lon="9.582885"><ele>142.0</ele><time>2026-05-02T08:15:35.989Z</time></trkpt><trkpt lat="44.900255" lon="9.5827083"><ele>142.0</ele><time>2026-05-02T08:15:36.989Z</time></trkpt><trkpt lat="44.9002733" lon="9.5825383"><ele>140.25</ele><time>2026-05-02T08:15:37.99Z</time></trkpt><trkpt lat="44.9002883" lon="9.5823783"><ele>138.5</ele><time>2026-05-02T08:15:38.989Z</time></trkpt><trkpt lat="44.900305" lon="9.58222"><ele>136.75</ele><time>2026-05-02T08:15:39.991Z</time></trkpt><trkpt lat="44.90032" lon="9.5820567"><ele>135.0</ele><time>2026-05-02T08:15:40.989Z</time></trkpt><trkpt lat="44.9003383" lon="9.58188"><ele>135.0</ele><time>2026-05-02T08:15:41.989Z</time></trkpt><trkpt lat="44.900355" lon="9.5816967"><ele>135.0</ele><time>2026-05-02T08:15:42.989Z</time></trkpt><trkpt lat="44.9003767" lon="9.5815133"><ele>135.0</ele><time>2026-05-02T08:15:43.99Z</time></trkpt><trkpt lat="44.9003967" lon="9.581335"><ele>135.0</ele><time>2026-05-02T08:15:44.989Z</time></trkpt><trkpt lat="44.9004133" lon="9.5811633"><ele>136.6</ele><time>2026-05-02T08:15:45.989Z</time></trkpt><trkpt lat="44.9004283" lon="9.5809983"><ele>138.2</ele><time>2026-05-02T08:15:46.989Z</time></trkpt><trkpt lat="44.9004433" lon="9.580845"><ele>139.8</ele><time>2026-05-02T08:15:47.988Z</time></trkpt><trkpt lat="44.9004533" lon="9.5807"><ele>141.4</ele><time>2026-05-02T08:15:48.99Z</time></trkpt><trkpt lat="44.90045" lon="9.580565"><ele>143.0</ele><time>2026-05-02T08:15:49.99Z</time></trkpt><trkpt lat="44.9004217" lon="9.5804567"><ele>143.0</ele><time>2026-05-02T08:15:50.99Z</time></trkpt><trkpt lat="44.9003717" lon="9.58037"><ele>143.0</ele><time>2026-05-02T08:15:51.989Z</time></trkpt><trkpt lat="44.9002867" lon="9.5803133"><ele>143.0</ele><time>2026-05-02T08:15:52.99Z</time></trkpt><trkpt lat="44.90017" lon="9.5802783"><ele>143.0</ele><time>2026-05-02T08:15:53.99Z</time></trkpt><trkpt lat="44.900055" lon="9.5802417"><ele>143.0</ele><time>2026-05-02T08:15:54.991Z</time></trkpt><trkpt lat="44.89994" lon="9.5801933"><ele>146.0</ele><time>2026-05-02T08:15:55.99Z</time></trkpt><trkpt lat="44.8998267" lon="9.58013"><ele>149.0</ele><time>2026-05-02T08:15:56.99Z</time></trkpt><trkpt lat="44.89971" lon="9.5800667"><ele>152.0</ele><time>2026-05-02T08:15:57.99Z</time></trkpt><trkpt lat="44.8996" lon="9.5800017"><ele>155.0</ele><time>2026-05-02T08:15:58.99Z</time></trkpt><trkpt lat="44.8994983" lon="9.5799333"><ele>155.0</ele><time>2026-05-02T08:15:59.99Z</time></trkpt><trkpt lat="44.8994" lon="9.5798667"><ele>155.0</ele><time>2026-05-02T08:16:00.991Z</time></trkpt><trkpt lat="44.8993033" lon="9.579795"><ele>155.0</ele><time>2026-05-02T08:16:01.989Z</time></trkpt><trkpt lat="44.8992067" lon="9.579725"><ele>155.0</ele><time>2026-05-02T08:16:02.989Z</time></trkpt><trkpt lat="44.8991067" lon="9.579655"><ele>155.0</ele><time>2026-05-02T08:16:03.989Z</time></trkpt><trkpt lat="44.8990133" lon="9.5795933"><ele>153.8</ele><time>2026-05-02T08:16:04.989Z</time></trkpt><trkpt lat="44.89892" lon="9.5795267"><ele>152.6</ele><time>2026-05-02T08:16:05.989Z</time></trkpt><trkpt lat="44.89882" lon="9.5794567"><ele>151.4</ele><time>2026-05-02T08:16:06.989Z</time></trkpt><trkpt lat="44.8987233" lon="9.57938"><ele>150.2</ele><time>2026-05-02T08:16:07.989Z</time></trkpt><trkpt lat="44.89863" lon="9.5793033"><ele>149.0</ele><time>2026-05-02T08:16:08.99Z</time></trkpt><trkpt lat="44.8985383" lon="9.5792167"><ele>151.25</ele><time>2026-05-02T08:16:09.989Z</time></trkpt><trkpt lat="44.8984517" lon="9.57912"><ele>153.5</ele><time>2026-05-02T08:16:10.99Z</time></trkpt><trkpt lat="44.89837" lon="9.579015"><ele>155.75</ele><time>2026-05-02T08:16:11.99Z</time></trkpt><trkpt lat="44.8982917" lon="9.5789017"><ele>158.0</ele><time>2026-05-02T08:16:12.989Z</time></trkpt><trkpt lat="44.89821" lon="9.5787833"><ele>159.25</ele><time>2026-05-02T08:16:13.988Z</time></trkpt><trkpt lat="44.8981217" lon="9.5786683"><ele>160.5</ele><time>2026-05-02T08:16:14.99Z</time></trkpt><trkpt lat="44.8980367" lon="9.5785517"><ele>161.75</ele><time>2026-05-02T08:16:15.989Z</time></trkpt><trkpt lat="44.8979533" lon="9.578435"><ele>163.0</ele><time>2026-05-02T08:16:16.99Z</time></trkpt><trkpt lat="44.8978717" lon="9.578315"><ele>163.0</ele><time>2026-05-02T08:16:17.989Z</time></trkpt><trkpt lat="44.8977867" lon="9.5781967"><ele>163.0</ele><time>2026-05-02T08:16:18.989Z</time></trkpt><trkpt lat="44.8977067" lon="9.5780833"><ele>163.0</ele><time>2026-05-02T08:16:19.99Z</time></trkpt><trkpt lat="44.8976283" lon="9.57797"><ele>163.0</ele><time>2026-05-02T08:16:20.99Z</time></trkpt><trkpt lat="44.8975517" lon="9.5778633"><ele>163.5</ele><time>2026-05-02T08:16:21.989Z</time></trkpt><trkpt lat="44.8974817" lon="9.5777617"><ele>164.0</ele><time>2026-05-02T08:16:22.99Z</time></trkpt><trkpt lat="44.8974183" lon="9.5776717"><ele>164.5</ele><time>2026-05-02T08:16:23.991Z</time></trkpt><trkpt lat="44.8973617" lon="9.5775867"><ele>165.0</ele><time>2026-05-02T08:16:24.989Z</time></trkpt><trkpt lat="44.8973133" lon="9.57751"><ele>165.5</ele><time>2026-05-02T08:16:25.99Z</time></trkpt><trkpt lat="44.89726" lon="9.5774383"><ele>166.0</ele><time>2026-05-02T08:16:26.99Z</time></trkpt><trkpt lat="44.8971983" lon="9.5773667"><ele>166.0</ele><time>2026-05-02T08:16:27.989Z</time></trkpt><trkpt lat="44.8971183" lon="9.5773"><ele>166.0</ele><time>2026-05-02T08:16:28.989Z</time></trkpt><trkpt lat="44.8970283" lon="9.57725"><ele>166.0</ele><time>2026-05-02T08:16:29.99Z</time></trkpt><trkpt lat="44.8969317" lon="9.577205"><ele>166.0</ele><time>2026-05-02T08:16:30.99Z</time></trkpt><trkpt lat="44.8968367" lon="9.5771633"><ele>166.0</ele><time>2026-05-02T08:16:31.99Z</time></trkpt><trkpt lat="44.89674" lon="9.577105"><ele>166.4</ele><time>2026-05-02T08:16:32.989Z</time></trkpt><trkpt lat="44.8966433" lon="9.5770333"><ele>166.8</ele><time>2026-05-02T08:16:33.991Z</time></trkpt><trkpt lat="44.89655" lon="9.5769517"><ele>167.20000000000002</ele><time>2026-05-02T08:16:34.989Z</time></trkpt><trkpt lat="44.89646" lon="9.5768633"><ele>167.60000000000002</ele><time>2026-05-02T08:16:35.989Z</time></trkpt><trkpt lat="44.8963667" lon="9.576775"><ele>168.0</ele><time>2026-05-02T08:16:36.989Z</time></trkpt><trkpt lat="44.896275" lon="9.5766867"><ele>168.0</ele><time>2026-05-02T08:16:37.99Z</time></trkpt><trkpt lat="44.8961833" lon="9.5766033"><ele>168.0</ele><time>2026-05-02T08:16:38.99Z</time></trkpt><trkpt lat="44.8960967" lon="9.5765233"><ele>168.0</ele><time>2026-05-02T08:16:39.989Z</time></trkpt><trkpt lat="44.89601" lon="9.576445"><ele>168.0</ele><time>2026-05-02T08:16:40.989Z</time></trkpt><trkpt lat="44.8959183" lon="9.57636"><ele>168.0</ele><time>2026-05-02T08:16:41.989Z</time></trkpt><trkpt lat="44.8958133" lon="9.5762583"><ele>167.5</ele><time>2026-05-02T08:16:42.99Z</time></trkpt><trkpt lat="44.895695" lon="9.5761433"><ele>167.0</ele><time>2026-05-02T08:16:43.99Z</time></trkpt><trkpt lat="44.8955733" lon="9.5760267"><ele>166.5</ele><time>2026-05-02T08:16:44.989Z</time></trkpt><trkpt lat="44.8954633" lon="9.5759217"><ele>166.0</ele><time>2026-05-02T08:16:45.989Z</time></trkpt><trkpt lat="44.8953633" lon="9.5758283"><ele>166.0</ele><time>2026-05-02T08:16:46.989Z</time></trkpt><trkpt lat="44.8952683" lon="9.5757417"><ele>166.0</ele><time>2026-05-02T08:16:47.99Z</time></trkpt><trkpt lat="44.8951683" lon="9.5756517"><ele>166.0</ele><time>2026-05-02T08:16:48.99Z</time></trkpt><trkpt lat="44.8950667" lon="9.5755567"><ele>166.0</ele><time>2026-05-02T08:16:49.989Z</time></trkpt><trkpt lat="44.89497" lon="9.575465"><ele>165.8</ele><time>2026-05-02T08:16:50.99Z</time></trkpt><trkpt lat="44.8948783" lon="9.5753817"><ele>165.60000000000002</ele><time>2026-05-02T08:16:51.99Z</time></trkpt><trkpt lat="44.8947933" lon="9.5753033"><ele>165.4</ele><time>2026-05-02T08:16:52.99Z</time></trkpt><trkpt lat="44.8947183" lon="9.57523"><ele>165.2</ele><time>2026-05-02T08:16:53.992Z</time></trkpt><trkpt lat="44.8946517" lon="9.575165"><ele>165.0</ele><time>2026-05-02T08:16:54.989Z</time></trkpt><trkpt lat="44.8946" lon="9.5751033"><ele>166.75</ele><time>2026-05-02T08:16:55.989Z</time></trkpt><trkpt lat="44.8945667" lon="9.5749733"><ele>168.5</ele><time>2026-05-02T08:16:57.991Z</time></trkpt><trkpt lat="44.8946717" lon="9.57482"><ele>170.25</ele><time>2026-05-02T08:16:59.99Z</time></trkpt><trkpt lat="44.8947483" lon="9.5747383"><ele>172.0</ele><time>2026-05-02T08:17:00.99Z</time></trkpt><trkpt lat="44.8948433" lon="9.574665"><ele>172.0</ele><time>2026-05-02T08:17:01.991Z</time></trkpt><trkpt lat="44.8949467" lon="9.5745967"><ele>172.0</ele><time>2026-05-02T08:17:02.991Z</time></trkpt><trkpt lat="44.895065" lon="9.5745483"><ele>172.0</ele><time>2026-05-02T08:17:03.991Z</time></trkpt><trkpt lat="44.89519" lon="9.574525"><ele>172.0</ele><time>2026-05-02T08:17:04.991Z</time></trkpt><trkpt lat="44.8953183" lon="9.5745067"><ele>176.25</ele><time>2026-05-02T08:17:05.991Z</time></trkpt><trkpt lat="44.8954417" lon="9.5744917"><ele>180.5</ele><time>2026-05-02T08:17:06.99Z</time></trkpt><trkpt lat="44.8955533" lon="9.5744717"><ele>184.75</ele><time>2026-05-02T08:17:07.991Z</time></trkpt><trkpt lat="44.8956567" lon="9.5744233"><ele>189.0</ele><time>2026-05-02T08:17:08.992Z</time></trkpt><trkpt lat="44.8957567" lon="9.5743433"><ele>189.0</ele><time>2026-05-02T08:17:09.991Z</time></trkpt><trkpt lat="44.895855" lon="9.5742233"><ele>189.0</ele><time>2026-05-02T08:17:10.991Z</time></trkpt><trkpt lat="44.895945" lon="9.57409"><ele>189.0</ele><time>2026-05-02T08:17:11.991Z</time></trkpt><trkpt lat="44.89602" lon="9.5739717"><ele>189.0</ele><time>2026-05-02T08:17:12.991Z</time></trkpt><trkpt lat="44.8961017" lon="9.5738783"><ele>191.33333333333334</ele><time>2026-05-02T08:17:13.991Z</time></trkpt><trkpt lat="44.896185" lon="9.5738167"><ele>193.66666666666669</ele><time>2026-05-02T08:17:14.991Z</time></trkpt><trkpt lat="44.89626" lon="9.5737817"><ele>196.0</ele><time>2026-05-02T08:17:15.99Z</time></trkpt><trkpt lat="44.8963317" lon="9.5737817"><ele>198.33333333333334</ele><time>2026-05-02T08:17:16.99Z</time></trkpt><trkpt lat="44.896405" lon="9.5738267"><ele>200.66666666666669</ele><time>2026-05-02T08:17:17.991Z</time></trkpt><trkpt lat="44.8964783" lon="9.573905"><ele>203.0</ele><time>2026-05-02T08:17:18.989Z</time></trkpt><trkpt lat="44.8965567" lon="9.5740083"><ele>203.0</ele><time>2026-05-02T08:17:19.989Z</time></trkpt><trkpt lat="44.8966383" lon="9.5741117"><ele>203.0</ele><time>2026-05-02T08:17:20.989Z</time></trkpt><trkpt lat="44.8967233" lon="9.5742117"><ele>203.0</ele><time>2026-05-02T08:17:21.989Z</time></trkpt><trkpt lat="44.896815" lon="9.5743017"><ele>203.0</ele><time>2026-05-02T08:17:22.989Z</time></trkpt><trkpt lat="44.8969083" lon="9.5743767"><ele>203.0</ele><time>2026-05-02T08:17:23.989Z</time></trkpt><trkpt lat="44.897" lon="9.5744367"><ele>203.0</ele><time>2026-05-02T08:17:24.989Z</time></trkpt><trkpt lat="44.8970933" lon="9.5744917"><ele>203.0</ele><time>2026-05-02T08:17:25.989Z</time></trkpt><trkpt lat="44.8971883" lon="9.5745283"><ele>203.0</ele><time>2026-05-02T08:17:26.989Z</time></trkpt><trkpt lat="44.8972817" lon="9.5745617"><ele>203.0</ele><time>2026-05-02T08:17:27.989Z</time></trkpt><trkpt lat="44.89737" lon="9.5745967"><ele>203.0</ele><time>2026-05-02T08:17:28.99Z</time></trkpt><trkpt lat="44.897455" lon="9.57462"><ele>203.00000000000003</ele><time>2026-05-02T08:17:29.989Z</time></trkpt><trkpt lat="44.8975183" lon="9.57462"><ele>203.0</ele><time>2026-05-02T08:17:30.989Z</time></trkpt><trkpt lat="44.8975867" lon="9.5745917"><ele>203.0</ele><time>2026-05-02T08:17:31.99Z</time></trkpt><trkpt lat="44.897645" lon="9.5745217"><ele>203.0</ele><time>2026-05-02T08:17:32.99Z</time></trkpt><trkpt lat="44.8976867" lon="9.5744167"><ele>203.00000000000003</ele><time>2026-05-02T08:17:33.99Z</time></trkpt><trkpt lat="44.8977267" lon="9.5743033"><ele>203.0</ele><time>2026-05-02T08:17:34.99Z</time></trkpt><trkpt lat="44.89777" lon="9.5741783"><ele>207.2</ele><time>2026-05-02T08:17:35.989Z</time></trkpt><trkpt lat="44.8978217" lon="9.5740567"><ele>211.4</ele><time>2026-05-02T08:17:36.989Z</time></trkpt><trkpt lat="44.897875" lon="9.5739367"><ele>215.59999999999997</ele><time>2026-05-02T08:17:37.989Z</time></trkpt><trkpt lat="44.8979267" lon="9.5738133"><ele>219.79999999999998</ele><time>2026-05-02T08:17:38.99Z</time></trkpt><trkpt lat="44.8979733" lon="9.573685"><ele>224.0</ele><time>2026-05-02T08:17:39.989Z</time></trkpt><trkpt lat="44.8980167" lon="9.5735483"><ele>226.33333333333334</ele><time>2026-05-02T08:17:40.989Z</time></trkpt><trkpt lat="44.8980567" lon="9.573405"><ele>228.66666666666669</ele><time>2026-05-02T08:17:41.989Z</time></trkpt><trkpt lat="44.8980917" lon="9.5732733"><ele>231.0</ele><time>2026-05-02T08:17:42.99Z</time></trkpt><trkpt lat="44.8981283" lon="9.573165"><ele>233.33333333333331</ele><time>2026-05-02T08:17:43.99Z</time></trkpt><trkpt lat="44.898175" lon="9.5730717"><ele>235.66666666666666</ele><time>2026-05-02T08:17:44.99Z</time></trkpt><trkpt lat="44.89823" lon="9.5730017"><ele>238.0</ele><time>2026-05-02T08:17:45.989Z</time></trkpt><trkpt lat="44.8982883" lon="9.57296"><ele>238.0</ele><time>2026-05-02T08:17:46.989Z</time></trkpt><trkpt lat="44.8983517" lon="9.5729533"><ele>238.0</ele><time>2026-05-02T08:17:47.99Z</time></trkpt><trkpt lat="44.8984583" lon="9.5729917"><ele>238.0</ele><time>2026-05-02T08:17:49.99Z</time></trkpt><trkpt lat="44.8985433" lon="9.57304"><ele>238.0</ele><time>2026-05-02T08:17:51.99Z</time></trkpt><trkpt lat="44.89863" lon="9.573025"><ele>238.0</ele><time>2026-05-02T08:17:53.99Z</time></trkpt><trkpt lat="44.8986783" lon="9.572895"><ele>238.85714285714286</ele><time>2026-05-02T08:17:55.989Z</time></trkpt><trkpt lat="44.898695" lon="9.5728067"><ele>239.71428571428572</ele><time>2026-05-02T08:17:56.991Z</time></trkpt><trkpt lat="44.8986967" lon="9.572715"><ele>240.57142857142856</ele><time>2026-05-02T08:17:57.989Z</time></trkpt><trkpt lat="44.8987117" lon="9.572615"><ele>241.42857142857142</ele><time>2026-05-02T08:17:58.989Z</time></trkpt><trkpt lat="44.8987417" lon="9.57251"><ele>242.28571428571428</ele><time>2026-05-02T08:17:59.99Z</time></trkpt><trkpt lat="44.8987717" lon="9.5724083"><ele>243.1428571428571</ele><time>2026-05-02T08:18:00.989Z</time></trkpt><trkpt lat="44.8988083" lon="9.5723267"><ele>243.99999999999997</ele><time>2026-05-02T08:18:01.99Z</time></trkpt><trkpt lat="44.8988433" lon="9.572245"><ele>243.99999999999997</ele><time>2026-05-02T08:18:02.989Z</time></trkpt><trkpt lat="44.8988767" lon="9.5721683"><ele>244.0</ele><time>2026-05-02T08:18:03.99Z</time></trkpt><trkpt lat="44.8989667" lon="9.5720317"><ele>244.0</ele><time>2026-05-02T08:18:05.989Z</time></trkpt><trkpt lat="44.89902" lon="9.5719667"><ele>244.0</ele><time>2026-05-02T08:18:06.989Z</time></trkpt><trkpt lat="44.8990717" lon="9.5718983"><ele>243.99999999999997</ele><time>2026-05-02T08:18:07.989Z</time></trkpt><trkpt lat="44.899105" lon="9.571815"><ele>244.0</ele><time>2026-05-02T08:18:08.989Z</time></trkpt><trkpt lat="44.89913" lon="9.57173"><ele>244.66666666666666</ele><time>2026-05-02T08:18:09.989Z</time></trkpt><trkpt lat="44.89913" lon="9.5716233"><ele>245.33333333333331</ele><time>2026-05-02T08:18:10.989Z</time></trkpt><trkpt lat="44.8991317" lon="9.5715033"><ele>246.0</ele><time>2026-05-02T08:18:11.99Z</time></trkpt><trkpt lat="44.8991317" lon="9.5713867"><ele>246.66666666666669</ele><time>2026-05-02T08:18:12.99Z</time></trkpt><trkpt lat="44.8991333" lon="9.5712767"><ele>247.33333333333334</ele><time>2026-05-02T08:18:13.99Z</time></trkpt><trkpt lat="44.899135" lon="9.5711617"><ele>248.0</ele><time>2026-05-02T08:18:14.99Z</time></trkpt><trkpt lat="44.899145" lon="9.5710633"><ele>248.42857142857144</ele><time>2026-05-02T08:18:15.99Z</time></trkpt><trkpt lat="44.899165" lon="9.570965"><ele>248.8571428571429</ele><time>2026-05-02T08:18:16.989Z</time></trkpt><trkpt lat="44.8991817" lon="9.5708733"><ele>249.28571428571428</ele><time>2026-05-02T08:18:17.989Z</time></trkpt><trkpt lat="44.8992" lon="9.57078"><ele>249.71428571428572</ele><time>2026-05-02T08:18:18.989Z</time></trkpt><trkpt lat="44.899225" lon="9.5706817"><ele>250.14285714285714</ele><time>2026-05-02T08:18:19.99Z</time></trkpt><trkpt lat="44.899265" lon="9.570585"><ele>250.57142857142856</ele><time>2026-05-02T08:18:20.99Z</time></trkpt><trkpt lat="44.899325" lon="9.5704983"><ele>250.99999999999997</ele><time>2026-05-02T08:18:21.99Z</time></trkpt><trkpt lat="44.89939" lon="9.57041"><ele>253.0</ele><time>2026-05-02T08:18:22.989Z</time></trkpt><trkpt lat="44.8994467" lon="9.570315"><ele>255.00000000000003</ele><time>2026-05-02T08:18:23.989Z</time></trkpt><trkpt lat="44.8994917" lon="9.5701967"><ele>257.0</ele><time>2026-05-02T08:18:24.992Z</time></trkpt><trkpt lat="44.8995317" lon="9.57007"><ele>259.0</ele><time>2026-05-02T08:18:25.989Z</time></trkpt><trkpt lat="44.899565" lon="9.56993"><ele>261.0</ele><time>2026-05-02T08:18:26.99Z</time></trkpt><trkpt lat="44.8995967" lon="9.5697917"><ele>261.0</ele><time>2026-05-02T08:18:27.989Z</time></trkpt><trkpt lat="44.89963" lon="9.569665"><ele>261.0</ele><time>2026-05-02T08:18:28.991Z</time></trkpt><trkpt lat="44.89967" lon="9.569555"><ele>261.0</ele><time>2026-05-02T08:18:29.99Z</time></trkpt><trkpt lat="44.8997267" lon="9.5694467"><ele>261.0</ele><time>2026-05-02T08:18:30.989Z</time></trkpt><trkpt lat="44.8997917" lon="9.56934"><ele>261.0</ele><time>2026-05-02T08:18:31.99Z</time></trkpt><trkpt lat="44.8998517" lon="9.5692417"><ele>262.6666666666667</ele><time>2026-05-02T08:18:32.989Z</time></trkpt><trkpt lat="44.8999033" lon="9.56915"><ele>264.3333333333333</ele><time>2026-05-02T08:18:33.989Z</time></trkpt><trkpt lat="44.8999383" lon="9.5690517"><ele>266.0</ele><time>2026-05-02T08:18:34.99Z</time></trkpt><trkpt lat="44.8999533" lon="9.568955"><ele>267.66666666666663</ele><time>2026-05-02T08:18:35.989Z</time></trkpt><trkpt lat="44.8999817" lon="9.56886"><ele>269.3333333333333</ele><time>2026-05-02T08:18:36.99Z</time></trkpt><trkpt lat="44.90002" lon="9.5687617"><ele>271.0</ele><time>2026-05-02T08:18:37.989Z</time></trkpt><trkpt lat="44.9000633" lon="9.5686783"><ele>273.3333333333333</ele><time>2026-05-02T08:18:38.991Z</time></trkpt><trkpt lat="44.9001067" lon="9.5685933"><ele>275.66666666666663</ele><time>2026-05-02T08:18:39.989Z</time></trkpt><trkpt lat="44.9001533" lon="9.5684983"><ele>278.0</ele><time>2026-05-02T08:18:40.991Z</time></trkpt><trkpt lat="44.90021" lon="9.5684233"><ele>280.3333333333333</ele><time>2026-05-02T08:18:41.993Z</time></trkpt><trkpt lat="44.9002833" lon="9.5683567"><ele>282.6666666666667</ele><time>2026-05-02T08:18:42.989Z</time></trkpt><trkpt lat="44.9003717" lon="9.5683133"><ele>285.0</ele><time>2026-05-02T08:18:43.989Z</time></trkpt><trkpt lat="44.900455" lon="9.56828"><ele>285.0</ele><time>2026-05-02T08:18:44.991Z</time></trkpt><trkpt lat="44.90053" lon="9.5682433"><ele>285.0</ele><time>2026-05-02T08:18:45.989Z</time></trkpt><trkpt lat="44.9005983" lon="9.5681983"><ele>285.0</ele><time>2026-05-02T08:18:46.99Z</time></trkpt><trkpt lat="44.9006633" lon="9.5681433"><ele>285.0</ele><time>2026-05-02T08:18:47.989Z</time></trkpt><trkpt lat="44.9007133" lon="9.5680717"><ele>285.0</ele><time>2026-05-02T08:18:48.989Z</time></trkpt><trkpt lat="44.9007667" lon="9.567975"><ele>285.0</ele><time>2026-05-02T08:18:49.989Z</time></trkpt><trkpt lat="44.9008183" lon="9.5678783"><ele>286.8</ele><time>2026-05-02T08:18:50.989Z</time></trkpt><trkpt lat="44.900875" lon="9.5677783"><ele>288.6</ele><time>2026-05-02T08:18:51.99Z</time></trkpt><trkpt lat="44.9009417" lon="9.5676767"><ele>290.4</ele><time>2026-05-02T08:18:52.989Z</time></trkpt><trkpt lat="44.90101" lon="9.5675783"><ele>292.2</ele><time>2026-05-02T08:18:53.989Z</time></trkpt><trkpt lat="44.9010833" lon="9.5674783"><ele>294.0</ele><time>2026-05-02T08:18:54.989Z</time></trkpt><trkpt lat="44.9011633" lon="9.5673717"><ele>296.0</ele><time>2026-05-02T08:18:55.989Z</time></trkpt><trkpt lat="44.90124" lon="9.567265"><ele>298.0</ele><time>2026-05-02T08:18:56.991Z</time></trkpt><trkpt lat="44.9013133" lon="9.5671583"><ele>300.0</ele><time>2026-05-02T08:18:57.989Z</time></trkpt><trkpt lat="44.9013783" lon="9.5670567"><ele>302.0</ele><time>2026-05-02T08:18:58.989Z</time></trkpt><trkpt lat="44.9014367" lon="9.566955"><ele>304.0</ele><time>2026-05-02T08:18:59.989Z</time></trkpt><trkpt lat="44.901495" lon="9.5668517"><ele>305.66666666666663</ele><time>2026-05-02T08:19:00.989Z</time></trkpt><trkpt lat="44.9015533" lon="9.5667433"><ele>307.3333333333333</ele><time>2026-05-02T08:19:01.989Z</time></trkpt><trkpt lat="44.9016117" lon="9.5666433"><ele>309.0</ele><time>2026-05-02T08:19:02.989Z</time></trkpt><trkpt lat="44.9016617" lon="9.5665433"><ele>310.6666666666667</ele><time>2026-05-02T08:19:03.989Z</time></trkpt><trkpt lat="44.9017033" lon="9.5664433"><ele>312.33333333333337</ele><time>2026-05-02T08:19:04.991Z</time></trkpt><trkpt lat="44.90174" lon="9.5663517"><ele>314.0</ele><time>2026-05-02T08:19:05.989Z</time></trkpt><trkpt lat="44.9018133" lon="9.566245"><ele>315.6</ele><time>2026-05-02T08:19:07.989Z</time></trkpt><trkpt lat="44.901905" lon="9.5662717"><ele>317.2</ele><time>2026-05-02T08:19:09.989Z</time></trkpt><trkpt lat="44.901995" lon="9.566355"><ele>318.8</ele><time>2026-05-02T08:19:11.989Z</time></trkpt><trkpt lat="44.9021033" lon="9.56643"><ele>320.40000000000003</ele><time>2026-05-02T08:19:13.989Z</time></trkpt><trkpt lat="44.902165" lon="9.5664633"><ele>322.0</ele><time>2026-05-02T08:19:15.99Z</time></trkpt><trkpt lat="44.9021183" lon="9.5663683"><ele>322.0</ele><time>2026-05-02T08:19:19.989Z</time></trkpt><trkpt lat="44.90206" lon="9.566315"><ele>322.0</ele><time>2026-05-02T08:19:34.989Z</time></trkpt><trkpt lat="44.902" lon="9.5661683"><ele>322.0</ele><time>2026-05-02T08:19:36.99Z</time></trkpt><trkpt lat="44.901965" lon="9.56608"><ele>322.0</ele><time>2026-05-02T08:19:37.99Z</time></trkpt><trkpt lat="44.90193" lon="9.5659833"><ele>322.0</ele><time>2026-05-02T08:19:38.989Z</time></trkpt><trkpt lat="44.9018883" lon="9.5658833"><ele>322.0</ele><time>2026-05-02T08:19:39.989Z</time></trkpt><trkpt lat="44.9018433" lon="9.5657667"><ele>322.20000000000005</ele><time>2026-05-02T08:19:40.989Z</time></trkpt><trkpt lat="44.9017983" lon="9.5656483"><ele>322.4</ele><time>2026-05-02T08:19:41.99Z</time></trkpt><trkpt lat="44.9017483" lon="9.5655233"><ele>322.6</ele><time>2026-05-02T08:19:42.99Z</time></trkpt><trkpt lat="44.901695" lon="9.565385"><ele>322.79999999999995</ele><time>2026-05-02T08:19:43.99Z</time></trkpt><trkpt lat="44.9016367" lon="9.5652417"><ele>323.0</ele><time>2026-05-02T08:19:44.99Z</time></trkpt><trkpt lat="44.9015717" lon="9.5651017"><ele>323.0</ele><time>2026-05-02T08:19:45.989Z</time></trkpt><trkpt lat="44.9015017" lon="9.5649667"><ele>323.0</ele><time>2026-05-02T08:19:46.99Z</time></trkpt><trkpt lat="44.9014383" lon="9.56485"><ele>323.0</ele><time>2026-05-02T08:19:47.989Z</time></trkpt><trkpt lat="44.9013833" lon="9.5647317"><ele>323.0</ele><time>2026-05-02T08:19:48.989Z</time></trkpt><trkpt lat="44.90134" lon="9.5646033"><ele>323.0</ele><time>2026-05-02T08:19:49.989Z</time></trkpt><trkpt lat="44.9012967" lon="9.5644633"><ele>324.79999999999995</ele><time>2026-05-02T08:19:50.99Z</time></trkpt><trkpt lat="44.901255" lon="9.56432"><ele>326.6</ele><time>2026-05-02T08:19:51.991Z</time></trkpt><trkpt lat="44.9012133" lon="9.5641717"><ele>328.4</ele><time>2026-05-02T08:19:52.989Z</time></trkpt><trkpt lat="44.9011717" lon="9.5640217"><ele>330.20000000000005</ele><time>2026-05-02T08:19:53.989Z</time></trkpt><trkpt lat="44.9011283" lon="9.5638817"><ele>332.0</ele><time>2026-05-02T08:19:54.99Z</time></trkpt><trkpt lat="44.9010733" lon="9.5637483"><ele>332.6</ele><time>2026-05-02T08:19:55.99Z</time></trkpt><trkpt lat="44.9010083" lon="9.5636233"><ele>333.20000000000005</ele><time>2026-05-02T08:19:56.989Z</time></trkpt><trkpt lat="44.9009433" lon="9.5635083"><ele>333.8</ele><time>2026-05-02T08:19:57.989Z</time></trkpt><trkpt lat="44.900885" lon="9.563405"><ele>334.4</ele><time>2026-05-02T08:19:58.989Z</time></trkpt><trkpt lat="44.900835" lon="9.56332"><ele>335.0</ele><time>2026-05-02T08:19:59.992Z</time></trkpt><trkpt lat="44.90079" lon="9.563255"><ele>335.0</ele><time>2026-05-02T08:20:00.99Z</time></trkpt><trkpt lat="44.9007067" lon="9.5632283"><ele>335.0</ele><time>2026-05-02T08:20:02.99Z</time></trkpt><trkpt lat="44.9006617" lon="9.5633317"><ele>335.0</ele><time>2026-05-02T08:20:04.989Z</time></trkpt><trkpt lat="44.9005967" lon="9.5635217"><ele>335.0</ele><time>2026-05-02T08:20:06.989Z</time></trkpt><trkpt lat="44.9005467" lon="9.5636667"><ele>335.0</ele><time>2026-05-02T08:20:07.99Z</time></trkpt><trkpt lat="44.9004917" lon="9.5638333"><ele>332.5</ele><time>2026-05-02T08:20:08.99Z</time></trkpt><trkpt lat="44.90044" lon="9.5639967"><ele>330.0</ele><time>2026-05-02T08:20:09.989Z</time></trkpt><trkpt lat="44.90039" lon="9.5641433"><ele>327.5</ele><time>2026-05-02T08:20:10.989Z</time></trkpt><trkpt lat="44.9003233" lon="9.5642933"><ele>325.0</ele><time>2026-05-02T08:20:11.99Z</time></trkpt><trkpt lat="44.9002483" lon="9.5644333"><ele>322.75</ele><time>2026-05-02T08:20:12.991Z</time></trkpt><trkpt lat="44.900165" lon="9.564565"><ele>320.5</ele><time>2026-05-02T08:20:13.991Z</time></trkpt><trkpt lat="44.90008" lon="9.5646917"><ele>318.25</ele><time>2026-05-02T08:20:14.989Z</time></trkpt><trkpt lat="44.9000017" lon="9.5648017"><ele>316.0</ele><time>2026-05-02T08:20:15.99Z</time></trkpt><trkpt lat="44.8999183" lon="9.56489"><ele>320.0</ele><time>2026-05-02T08:20:16.989Z</time></trkpt><trkpt lat="44.8998317" lon="9.5649783"><ele>324.0</ele><time>2026-05-02T08:20:17.989Z</time></trkpt><trkpt lat="44.899745" lon="9.565055"><ele>328.0</ele><time>2026-05-02T08:20:18.99Z</time></trkpt><trkpt lat="44.89966" lon="9.5651417"><ele>332.0</ele><time>2026-05-02T08:20:19.989Z</time></trkpt><trkpt lat="44.8995867" lon="9.565225"><ele>336.0</ele><time>2026-05-02T08:20:20.99Z</time></trkpt><trkpt lat="44.8995233" lon="9.5652933"><ele>336.0</ele><time>2026-05-02T08:20:21.991Z</time></trkpt><trkpt lat="44.8994717" lon="9.565345"><ele>336.0</ele><time>2026-05-02T08:20:22.99Z</time></trkpt><trkpt lat="44.899375" lon="9.5654183"><ele>336.0</ele><time>2026-05-02T08:20:24.989Z</time></trkpt><trkpt lat="44.8992767" lon="9.5654317"><ele>336.0</ele><time>2026-05-02T08:20:26.99Z</time></trkpt><trkpt lat="44.8991617" lon="9.5653733"><ele>336.0</ele><time>2026-05-02T08:20:28.989Z</time></trkpt><trkpt lat="44.899105" lon="9.5653267"><ele>338.2857142857143</ele><time>2026-05-02T08:20:29.989Z</time></trkpt><trkpt lat="44.8990383" lon="9.56528"><ele>340.57142857142856</ele><time>2026-05-02T08:20:30.989Z</time></trkpt><trkpt lat="44.898975" lon="9.5652283"><ele>342.8571428571429</ele><time>2026-05-02T08:20:31.989Z</time></trkpt><trkpt lat="44.8989067" lon="9.565175"><ele>345.1428571428571</ele><time>2026-05-02T08:20:32.99Z</time></trkpt><trkpt lat="44.898845" lon="9.5651283"><ele>347.42857142857144</ele><time>2026-05-02T08:20:33.989Z</time></trkpt><trkpt lat="44.8987883" lon="9.565075"><ele>349.7142857142857</ele><time>2026-05-02T08:20:34.99Z</time></trkpt><trkpt lat="44.898725" lon="9.56502"><ele>352.0</ele><time>2026-05-02T08:20:35.99Z</time></trkpt><trkpt lat="44.89866" lon="9.5649617"><ele>352.0</ele><time>2026-05-02T08:20:36.99Z</time></trkpt><trkpt lat="44.8986017" lon="9.5648967"><ele>352.0</ele><time>2026-05-02T08:20:37.99Z</time></trkpt><trkpt lat="44.8985483" lon="9.564825"><ele>352.0</ele><time>2026-05-02T08:20:38.99Z</time></trkpt><trkpt lat="44.898505" lon="9.56475"><ele>352.0</ele><time>2026-05-02T08:20:39.989Z</time></trkpt><trkpt lat="44.8984617" lon="9.56467"><ele>352.0</ele><time>2026-05-02T08:20:40.989Z</time></trkpt><trkpt lat="44.89842" lon="9.5645933"><ele>352.0</ele><time>2026-05-02T08:20:41.989Z</time></trkpt><trkpt lat="44.898375" lon="9.5645067"><ele>352.0</ele><time>2026-05-02T08:20:43.989Z</time></trkpt><trkpt lat="44.8983317" lon="9.564405"><ele>351.6</ele><time>2026-05-02T08:20:50.989Z</time></trkpt><trkpt lat="44.898295" lon="9.5642917"><ele>351.20000000000005</ele><time>2026-05-02T08:20:52.99Z</time></trkpt><trkpt lat="44.89826" lon="9.564165"><ele>350.8</ele><time>2026-05-02T08:20:54.989Z</time></trkpt><trkpt lat="44.8982167" lon="9.5640067"><ele>350.4</ele><time>2026-05-02T08:20:56.99Z</time></trkpt><trkpt lat="44.8981867" lon="9.5639283"><ele>350.0</ele><time>2026-05-02T08:20:57.99Z</time></trkpt><trkpt lat="44.8981183" lon="9.5638083"><ele>352.6</ele><time>2026-05-02T08:20:59.989Z</time></trkpt><trkpt lat="44.8980583" lon="9.56368"><ele>355.2</ele><time>2026-05-02T08:21:01.991Z</time></trkpt><trkpt lat="44.8980183" lon="9.5635617"><ele>357.79999999999995</ele><time>2026-05-02T08:21:03.989Z</time></trkpt><trkpt lat="44.89799" lon="9.5634817"><ele>360.4</ele><time>2026-05-02T08:21:04.989Z</time></trkpt><trkpt lat="44.8979567" lon="9.5633933"><ele>363.0</ele><time>2026-05-02T08:21:05.99Z</time></trkpt><trkpt lat="44.8979017" lon="9.5632083"><ele>363.0</ele><time>2026-05-02T08:21:07.99Z</time></trkpt><trkpt lat="44.8978717" lon="9.5631017"><ele>363.0</ele><time>2026-05-02T08:21:08.99Z</time></trkpt><trkpt lat="44.89786" lon="9.5630017"><ele>363.0</ele><time>2026-05-02T08:21:09.99Z</time></trkpt><trkpt lat="44.89785" lon="9.5628217"><ele>363.0</ele><time>2026-05-02T08:21:11.99Z</time></trkpt><trkpt lat="44.8978133" lon="9.5627033"><ele>363.0</ele><time>2026-05-02T08:21:13.989Z</time></trkpt><trkpt lat="44.89775" lon="9.5625617"><ele>363.0</ele><time>2026-05-02T08:21:15.989Z</time></trkpt><trkpt lat="44.8976817" lon="9.5624567"><ele>363.0</ele><time>2026-05-02T08:21:17.99Z</time></trkpt><trkpt lat="44.8976317" lon="9.5623717"><ele>363.0</ele><time>2026-05-02T08:21:20.99Z</time></trkpt><trkpt lat="44.8976017" lon="9.5622817"><ele>363.0</ele><time>2026-05-02T08:21:22.991Z</time></trkpt><trkpt lat="44.89757" lon="9.5621417"><ele>363.0</ele><time>2026-05-02T08:21:24.99Z</time></trkpt><trkpt lat="44.8975467" lon="9.56197"><ele>364.6666666666667</ele><time>2026-05-02T08:21:26.99Z</time></trkpt><trkpt lat="44.8975483" lon="9.5618733"><ele>366.3333333333333</ele><time>2026-05-02T08:21:27.991Z</time></trkpt><trkpt lat="44.89755" lon="9.561775"><ele>368.0</ele><time>2026-05-02T08:21:28.99Z</time></trkpt><trkpt lat="44.8975433" lon="9.5616017"><ele>369.66666666666663</ele><time>2026-05-02T08:21:30.99Z</time></trkpt><trkpt lat="44.8975433" lon="9.5614983"><ele>371.3333333333333</ele><time>2026-05-02T08:21:31.99Z</time></trkpt><trkpt lat="44.8975467" lon="9.561405"><ele>373.0</ele><time>2026-05-02T08:21:32.991Z</time></trkpt><trkpt lat="44.8975467" lon="9.561315"><ele>373.0</ele><time>2026-05-02T08:21:33.99Z</time></trkpt><trkpt lat="44.89755" lon="9.5612217"><ele>373.0</ele><time>2026-05-02T08:21:34.991Z</time></trkpt><trkpt lat="44.8975567" lon="9.5611233"><ele>373.0</ele><time>2026-05-02T08:21:35.99Z</time></trkpt><trkpt lat="44.8975567" lon="9.5610333"><ele>373.0</ele><time>2026-05-02T08:21:36.99Z</time></trkpt><trkpt lat="44.897555" lon="9.5609417"><ele>373.0</ele><time>2026-05-02T08:21:37.99Z</time></trkpt><trkpt lat="44.8975533" lon="9.5608433"><ele>373.0</ele><time>2026-05-02T08:21:38.99Z</time></trkpt><trkpt lat="44.8975383" lon="9.560745"><ele>373.0</ele><time>2026-05-02T08:21:39.99Z</time></trkpt><trkpt lat="44.8975167" lon="9.560635"><ele>374.79999999999995</ele><time>2026-05-02T08:21:40.99Z</time></trkpt><trkpt lat="44.8974817" lon="9.5605233"><ele>376.6</ele><time>2026-05-02T08:21:41.99Z</time></trkpt><trkpt lat="44.8974467" lon="9.5603967"><ele>378.4</ele><time>2026-05-02T08:21:42.99Z</time></trkpt><trkpt lat="44.8974183" lon="9.56026"><ele>380.20000000000005</ele><time>2026-05-02T08:21:43.99Z</time></trkpt><trkpt lat="44.8973883" lon="9.5601317"><ele>382.0</ele><time>2026-05-02T08:21:44.99Z</time></trkpt><trkpt lat="44.8973583" lon="9.5600017"><ele>383.66666666666663</ele><time>2026-05-02T08:21:45.989Z</time></trkpt><trkpt lat="44.89735" lon="9.5598733"><ele>385.3333333333333</ele><time>2026-05-02T08:21:46.991Z</time></trkpt><trkpt lat="44.89735" lon="9.559745"><ele>387.0</ele><time>2026-05-02T08:21:47.99Z</time></trkpt><trkpt lat="44.8973583" lon="9.5596283"><ele>388.66666666666663</ele><time>2026-05-02T08:21:48.989Z</time></trkpt><trkpt lat="44.8973433" lon="9.559525"><ele>390.3333333333333</ele><time>2026-05-02T08:21:49.991Z</time></trkpt><trkpt lat="44.8973417" lon="9.55942"><ele>392.0</ele><time>2026-05-02T08:21:50.99Z</time></trkpt><trkpt lat="44.8973233" lon="9.5593133"><ele>393.8</ele><time>2026-05-02T08:21:52.991Z</time></trkpt><trkpt lat="44.8974233" lon="9.559275"><ele>395.6</ele><time>2026-05-02T08:22:02.99Z</time></trkpt><trkpt lat="44.89752" lon="9.559255"><ele>397.40000000000003</ele><time>2026-05-02T08:22:04.99Z</time></trkpt><trkpt lat="44.8976283" lon="9.559285"><ele>399.20000000000005</ele><time>2026-05-02T08:22:06.99Z</time></trkpt><trkpt lat="44.89772" lon="9.55937"><ele>401.0</ele><time>2026-05-02T08:22:08.99Z</time></trkpt><trkpt lat="44.8978167" lon="9.55944"><ele>400.66666666666663</ele><time>2026-05-02T08:22:10.99Z</time></trkpt><trkpt lat="44.897945" lon="9.5594617"><ele>400.3333333333333</ele><time>2026-05-02T08:22:12.992Z</time></trkpt><trkpt lat="44.8980117" lon="9.559475"><ele>400.0</ele><time>2026-05-02T08:22:13.99Z</time></trkpt><trkpt lat="44.898085" lon="9.559515"><ele>399.66666666666663</ele><time>2026-05-02T08:22:14.99Z</time></trkpt><trkpt lat="44.8981533" lon="9.559555"><ele>399.3333333333333</ele><time>2026-05-02T08:22:15.991Z</time></trkpt><trkpt lat="44.8982267" lon="9.559555"><ele>399.0</ele><time>2026-05-02T08:22:16.99Z</time></trkpt><trkpt lat="44.8982967" lon="9.559535"><ele>401.5</ele><time>2026-05-02T08:22:17.991Z</time></trkpt><trkpt lat="44.898365" lon="9.559525"><ele>404.0</ele><time>2026-05-02T08:22:18.989Z</time></trkpt><trkpt lat="44.8984367" lon="9.559525"><ele>406.5</ele><time>2026-05-02T08:22:19.99Z</time></trkpt><trkpt lat="44.898515" lon="9.5595583"><ele>409.0</ele><time>2026-05-02T08:22:20.991Z</time></trkpt><trkpt lat="44.8985933" lon="9.5595983"><ele>411.5</ele><time>2026-05-02T08:22:21.99Z</time></trkpt><trkpt lat="44.89867" lon="9.5596167"><ele>414.0</ele><time>2026-05-02T08:22:22.991Z</time></trkpt><trkpt lat="44.89875" lon="9.5596467"><ele>414.3333333333333</ele><time>2026-05-02T08:22:23.991Z</time></trkpt><trkpt lat="44.8988283" lon="9.55967"><ele>414.66666666666663</ele><time>2026-05-02T08:22:24.989Z</time></trkpt><trkpt lat="44.8989117" lon="9.5596933"><ele>415.0</ele><time>2026-05-02T08:22:25.99Z</time></trkpt><trkpt lat="44.8989983" lon="9.5597"><ele>415.3333333333333</ele><time>2026-05-02T08:22:26.99Z</time></trkpt><trkpt lat="44.8990767" lon="9.5596933"><ele>415.66666666666663</ele><time>2026-05-02T08:22:27.991Z</time></trkpt><trkpt lat="44.8991717" lon="9.5596667"><ele>416.0</ele><time>2026-05-02T08:22:28.99Z</time></trkpt><trkpt lat="44.8992433" lon="9.559635"><ele>415.66666666666663</ele><time>2026-05-02T08:22:29.992Z</time></trkpt><trkpt lat="44.899315" lon="9.5596167"><ele>415.3333333333333</ele><time>2026-05-02T08:22:30.991Z</time></trkpt><trkpt lat="44.8994033" lon="9.5595683"><ele>415.0</ele><time>2026-05-02T08:22:32.99Z</time></trkpt><trkpt lat="44.8994767" lon="9.55951"><ele>414.66666666666663</ele><time>2026-05-02T08:22:55.989Z</time></trkpt><trkpt lat="44.8995533" lon="9.55948"><ele>414.3333333333333</ele><time>2026-05-02T08:22:57.99Z</time></trkpt><trkpt lat="44.89962" lon="9.5594467"><ele>414.0</ele><time>2026-05-02T08:22:59.99Z</time></trkpt><trkpt lat="44.8996983" lon="9.5593833"><ele>415.4</ele><time>2026-05-02T08:23:27.99Z</time></trkpt><trkpt lat="44.8997417" lon="9.5592067"><ele>416.79999999999995</ele><time>2026-05-02T08:23:29.989Z</time></trkpt><trkpt lat="44.8997817" lon="9.5590767"><ele>418.20000000000005</ele><time>2026-05-02T08:23:30.99Z</time></trkpt><trkpt lat="44.8998233" lon="9.558955"><ele>419.6</ele><time>2026-05-02T08:23:31.99Z</time></trkpt><trkpt lat="44.8998767" lon="9.5588383"><ele>421.0</ele><time>2026-05-02T08:23:32.99Z</time></trkpt><trkpt lat="44.8999383" lon="9.55872"><ele>419.50000000000006</ele><time>2026-05-02T08:23:33.991Z</time></trkpt><trkpt lat="44.8999967" lon="9.55861"><ele>418.0</ele><time>2026-05-02T08:23:34.99Z</time></trkpt><trkpt lat="44.9000583" lon="9.5585117"><ele>416.5</ele><time>2026-05-02T08:23:35.99Z</time></trkpt><trkpt lat="44.900125" lon="9.55843"><ele>415.0</ele><time>2026-05-02T08:23:36.99Z</time></trkpt><trkpt lat="44.9001833" lon="9.5583667"><ele>413.50000000000006</ele><time>2026-05-02T08:23:37.991Z</time></trkpt><trkpt lat="44.9002383" lon="9.5583017"><ele>412.0</ele><time>2026-05-02T08:23:38.991Z</time></trkpt><trkpt lat="44.900325" lon="9.5581783"><ele>412.00000000000006</ele><time>2026-05-02T08:23:40.991Z</time></trkpt><trkpt lat="44.90037" lon="9.5581117"><ele>412.0</ele><time>2026-05-02T08:23:41.99Z</time></trkpt><trkpt lat="44.90041" lon="9.5580417"><ele>412.0</ele><time>2026-05-02T08:23:42.992Z</time></trkpt><trkpt lat="44.9004883" lon="9.5579033"><ele>412.0</ele><time>2026-05-02T08:23:44.991Z</time></trkpt><trkpt lat="44.900535" lon="9.5578283"><ele>412.00000000000006</ele><time>2026-05-02T08:23:45.99Z</time></trkpt><trkpt lat="44.9005883" lon="9.5577433"><ele>412.0</ele><time>2026-05-02T08:23:46.991Z</time></trkpt><trkpt lat="44.9006467" lon="9.5576583"><ele>413.00000000000006</ele><time>2026-05-02T08:23:47.99Z</time></trkpt><trkpt lat="44.9007217" lon="9.55756"><ele>414.0</ele><time>2026-05-02T08:23:48.99Z</time></trkpt><trkpt lat="44.90079" lon="9.55747"><ele>415.0</ele><time>2026-05-02T08:23:49.991Z</time></trkpt><trkpt lat="44.9008483" lon="9.5573883"><ele>416.0</ele><time>2026-05-02T08:23:50.991Z</time></trkpt><trkpt lat="44.9008967" lon="9.55731"><ele>417.00000000000006</ele><time>2026-05-02T08:23:51.991Z</time></trkpt><trkpt lat="44.9009467" lon="9.5572267"><ele>418.0</ele><time>2026-05-02T08:23:52.99Z</time></trkpt><trkpt lat="44.9009967" lon="9.557135"><ele>420.0</ele><time>2026-05-02T08:23:53.991Z</time></trkpt><trkpt lat="44.9010783" lon="9.55698"><ele>422.0</ele><time>2026-05-02T08:23:55.99Z</time></trkpt><trkpt lat="44.9011633" lon="9.5568367"><ele>423.99999999999994</ele><time>2026-05-02T08:23:57.991Z</time></trkpt><trkpt lat="44.9012" lon="9.5567467"><ele>426.0</ele><time>2026-05-02T08:23:58.991Z</time></trkpt><trkpt lat="44.901215" lon="9.55666"><ele>428.0</ele><time>2026-05-02T08:23:59.99Z</time></trkpt><trkpt lat="44.90124" lon="9.5565667"><ele>427.99999999999994</ele><time>2026-05-02T08:24:00.989Z</time></trkpt><trkpt lat="44.9012933" lon="9.556415"><ele>428.0</ele><time>2026-05-02T08:24:02.99Z</time></trkpt><trkpt lat="44.9013517" lon="9.556335"><ele>428.0</ele><time>2026-05-02T08:24:04.989Z</time></trkpt><trkpt lat="44.901445" lon="9.556265"><ele>428.0</ele><time>2026-05-02T08:24:06.99Z</time></trkpt><trkpt lat="44.90151" lon="9.55624"><ele>427.99999999999994</ele><time>2026-05-02T08:24:07.989Z</time></trkpt><trkpt lat="44.9015783" lon="9.5562133"><ele>428.0</ele><time>2026-05-02T08:24:08.989Z</time></trkpt><trkpt lat="44.9016433" lon="9.5561883"><ele>428.66666666666663</ele><time>2026-05-02T08:24:09.989Z</time></trkpt><trkpt lat="44.9017067" lon="9.5561617"><ele>429.3333333333333</ele><time>2026-05-02T08:24:10.988Z</time></trkpt><trkpt lat="44.90177" lon="9.5561417"><ele>430.0</ele><time>2026-05-02T08:24:11.989Z</time></trkpt><trkpt lat="44.9018917" lon="9.55611"><ele>430.66666666666663</ele><time>2026-05-02T08:24:13.99Z</time></trkpt><trkpt lat="44.90196" lon="9.5560883"><ele>431.3333333333333</ele><time>2026-05-02T08:24:14.99Z</time></trkpt><trkpt lat="44.9020267" lon="9.5560717"><ele>432.0</ele><time>2026-05-02T08:24:15.989Z</time></trkpt><trkpt lat="44.9020933" lon="9.5560583"><ele>433.3333333333333</ele><time>2026-05-02T08:24:16.989Z</time></trkpt><trkpt lat="44.9022117" lon="9.5560333"><ele>434.66666666666663</ele><time>2026-05-02T08:24:18.989Z</time></trkpt><trkpt lat="44.9022783" lon="9.556015"><ele>436.0</ele><time>2026-05-02T08:24:19.989Z</time></trkpt><trkpt lat="44.9023433" lon="9.555995"><ele>437.3333333333333</ele><time>2026-05-02T08:24:20.99Z</time></trkpt><trkpt lat="44.90241" lon="9.5559817"><ele>438.66666666666663</ele><time>2026-05-02T08:24:21.989Z</time></trkpt><trkpt lat="44.9024817" lon="9.555965"><ele>440.0</ele><time>2026-05-02T08:24:22.99Z</time></trkpt><trkpt lat="44.9025517" lon="9.5559583"><ele>442.16666666666663</ele><time>2026-05-02T08:24:23.989Z</time></trkpt><trkpt lat="44.90262" lon="9.5559633"><ele>444.3333333333333</ele><time>2026-05-02T08:24:24.99Z</time></trkpt><trkpt lat="44.902725" lon="9.5560083"><ele>446.5</ele><time>2026-05-02T08:24:26.989Z</time></trkpt><trkpt lat="44.90278" lon="9.556055"><ele>448.66666666666663</ele><time>2026-05-02T08:24:27.989Z</time></trkpt><trkpt lat="44.9028433" lon="9.556125"><ele>450.8333333333333</ele><time>2026-05-02T08:24:28.988Z</time></trkpt><trkpt lat="44.9029133" lon="9.5562033"><ele>453.0</ele><time>2026-05-02T08:24:29.991Z</time></trkpt><trkpt lat="44.9029883" lon="9.55629"><ele>453.0</ele><time>2026-05-02T08:24:30.989Z</time></trkpt><trkpt lat="44.9030583" lon="9.5563817"><ele>453.0</ele><time>2026-05-02T08:24:31.989Z</time></trkpt><trkpt lat="44.90311" lon="9.55647"><ele>453.0</ele><time>2026-05-02T08:24:32.989Z</time></trkpt><trkpt lat="44.9031567" lon="9.55656"><ele>453.0</ele><time>2026-05-02T08:24:33.989Z</time></trkpt><trkpt lat="44.9031983" lon="9.5566517"><ele>453.0</ele><time>2026-05-02T08:24:34.989Z</time></trkpt><trkpt lat="44.9032383" lon="9.556735"><ele>453.0</ele><time>2026-05-02T08:24:35.988Z</time></trkpt><trkpt lat="44.90328" lon="9.5568067"><ele>453.0</ele><time>2026-05-02T08:24:36.989Z</time></trkpt><trkpt lat="44.9033467" lon="9.556925"><ele>453.0</ele><time>2026-05-02T08:24:38.989Z</time></trkpt><trkpt lat="44.9034167" lon="9.5569417"><ele>453.0</ele><time>2026-05-02T08:24:41.99Z</time></trkpt><trkpt lat="44.90344" lon="9.5567783"><ele>453.0</ele><time>2026-05-02T08:24:44.989Z</time></trkpt><trkpt lat="44.9034417" lon="9.556675"><ele>453.0</ele><time>2026-05-02T08:24:45.989Z</time></trkpt><trkpt lat="44.9034383" lon="9.55657"><ele>453.0</ele><time>2026-05-02T08:24:46.99Z</time></trkpt><trkpt lat="44.9034317" lon="9.556385"><ele>452.8571428571428</ele><time>2026-05-02T08:24:48.99Z</time></trkpt><trkpt lat="44.9034317" lon="9.5562867"><ele>452.71428571428567</ele><time>2026-05-02T08:24:49.989Z</time></trkpt><trkpt lat="44.9034383" lon="9.5561933"><ele>452.57142857142856</ele><time>2026-05-02T08:24:50.99Z</time></trkpt><trkpt lat="44.9034383" lon="9.5560933"><ele>452.4285714285714</ele><time>2026-05-02T08:24:51.989Z</time></trkpt><trkpt lat="44.9034267" lon="9.5559883"><ele>452.2857142857142</ele><time>2026-05-02T08:24:52.989Z</time></trkpt><trkpt lat="44.9034133" lon="9.5558733"><ele>452.14285714285717</ele><time>2026-05-02T08:24:53.989Z</time></trkpt><trkpt lat="44.9033983" lon="9.5557583"><ele>452.0</ele><time>2026-05-02T08:24:54.989Z</time></trkpt><trkpt lat="44.903385" lon="9.555645"><ele>453.16666666666663</ele><time>2026-05-02T08:24:55.989Z</time></trkpt><trkpt lat="44.90339" lon="9.5555317"><ele>454.3333333333333</ele><time>2026-05-02T08:24:56.989Z</time></trkpt><trkpt lat="44.9034083" lon="9.55541"><ele>455.5</ele><time>2026-05-02T08:24:57.989Z</time></trkpt><trkpt lat="44.9034333" lon="9.5553"><ele>456.66666666666663</ele><time>2026-05-02T08:24:58.989Z</time></trkpt><trkpt lat="44.9034633" lon="9.55521"><ele>457.8333333333333</ele><time>2026-05-02T08:24:59.989Z</time></trkpt><trkpt lat="44.9034933" lon="9.5551183"><ele>459.0</ele><time>2026-05-02T08:25:00.989Z</time></trkpt><trkpt lat="44.90352" lon="9.5550217"><ele>459.0</ele><time>2026-05-02T08:25:01.989Z</time></trkpt><trkpt lat="44.90355" lon="9.554925"><ele>459.0</ele><time>2026-05-02T08:25:02.99Z</time></trkpt><trkpt lat="44.9035633" lon="9.5548333"><ele>459.0</ele><time>2026-05-02T08:25:03.99Z</time></trkpt><trkpt lat="44.9035683" lon="9.5546767"><ele>459.0</ele><time>2026-05-02T08:25:05.988Z</time></trkpt><trkpt lat="44.9035567" lon="9.5545"><ele>459.0</ele><time>2026-05-02T08:25:07.988Z</time></trkpt><trkpt lat="44.903535" lon="9.554385"><ele>460.79999999999995</ele><time>2026-05-02T08:25:08.989Z</time></trkpt><trkpt lat="44.9034933" lon="9.5542717"><ele>462.59999999999997</ele><time>2026-05-02T08:25:09.988Z</time></trkpt><trkpt lat="44.9034283" lon="9.554165"><ele>464.4</ele><time>2026-05-02T08:25:10.99Z</time></trkpt><trkpt lat="44.9033417" lon="9.554075"><ele>466.2</ele><time>2026-05-02T08:25:11.989Z</time></trkpt><trkpt lat="44.903255" lon="9.554"><ele>468.0</ele><time>2026-05-02T08:25:12.989Z</time></trkpt><trkpt lat="44.9031767" lon="9.553925"><ele>468.0</ele><time>2026-05-02T08:25:13.99Z</time></trkpt><trkpt lat="44.9031017" lon="9.5538517"><ele>467.99999999999994</ele><time>2026-05-02T08:25:14.99Z</time></trkpt><trkpt lat="44.903035" lon="9.553765"><ele>467.99999999999994</ele><time>2026-05-02T08:25:15.989Z</time></trkpt><trkpt lat="44.902975" lon="9.5536617"><ele>468.0</ele><time>2026-05-02T08:25:16.989Z</time></trkpt><trkpt lat="44.90292" lon="9.5535333"><ele>468.0</ele><time>2026-05-02T08:25:17.989Z</time></trkpt><trkpt lat="44.9028717" lon="9.55339"><ele>470.4</ele><time>2026-05-02T08:25:18.989Z</time></trkpt><trkpt lat="44.9028217" lon="9.5532417"><ele>472.79999999999995</ele><time>2026-05-02T08:25:19.989Z</time></trkpt><trkpt lat="44.902775" lon="9.55309"><ele>475.2</ele><time>2026-05-02T08:25:20.99Z</time></trkpt><trkpt lat="44.9027333" lon="9.5529467"><ele>477.6</ele><time>2026-05-02T08:25:21.99Z</time></trkpt><trkpt lat="44.9026917" lon="9.5528133"><ele>480.0</ele><time>2026-05-02T08:25:22.991Z</time></trkpt><trkpt lat="44.9026483" lon="9.5526883"><ele>479.2</ele><time>2026-05-02T08:25:23.99Z</time></trkpt><trkpt lat="44.9026117" lon="9.5525683"><ele>478.4</ele><time>2026-05-02T08:25:24.989Z</time></trkpt><trkpt lat="44.9025767" lon="9.5524517"><ele>477.6</ele><time>2026-05-02T08:25:25.991Z</time></trkpt><trkpt lat="44.9025317" lon="9.5523433"><ele>476.8</ele><time>2026-05-02T08:25:26.989Z</time></trkpt><trkpt lat="44.9024783" lon="9.5522317"><ele>476.0</ele><time>2026-05-02T08:25:27.99Z</time></trkpt><trkpt lat="44.9024217" lon="9.552105"><ele>478.0</ele><time>2026-05-02T08:25:28.99Z</time></trkpt><trkpt lat="44.9023567" lon="9.55196"><ele>480.0</ele><time>2026-05-02T08:25:29.989Z</time></trkpt><trkpt lat="44.90228" lon="9.5518067"><ele>482.0</ele><time>2026-05-02T08:25:30.99Z</time></trkpt><trkpt lat="44.902205" lon="9.5516533"><ele>484.0</ele><time>2026-05-02T08:25:31.989Z</time></trkpt><trkpt lat="44.9021233" lon="9.5514983"><ele>484.0</ele><time>2026-05-02T08:25:32.99Z</time></trkpt><trkpt lat="44.90204" lon="9.551345"><ele>484.0</ele><time>2026-05-02T08:25:33.989Z</time></trkpt><trkpt lat="44.9019467" lon="9.551195"><ele>484.0</ele><time>2026-05-02T08:25:34.991Z</time></trkpt><trkpt lat="44.9018483" lon="9.551045"><ele>484.0</ele><time>2026-05-02T08:25:35.989Z</time></trkpt><trkpt lat="44.9017517" lon="9.5508967"><ele>483.5</ele><time>2026-05-02T08:25:36.99Z</time></trkpt><trkpt lat="44.9016583" lon="9.5507467"><ele>483.0</ele><time>2026-05-02T08:25:37.989Z</time></trkpt><trkpt lat="44.9015667" lon="9.550595"><ele>482.5</ele><time>2026-05-02T08:25:38.99Z</time></trkpt><trkpt lat="44.9014783" lon="9.550445"><ele>482.0</ele><time>2026-05-02T08:25:39.989Z</time></trkpt><trkpt lat="44.9013917" lon="9.5503"><ele>483.40000000000003</ele><time>2026-05-02T08:25:40.989Z</time></trkpt><trkpt lat="44.901315" lon="9.5501683"><ele>484.80000000000007</ele><time>2026-05-02T08:25:41.989Z</time></trkpt><trkpt lat="44.9012433" lon="9.5500517"><ele>486.2</ele><time>2026-05-02T08:25:42.989Z</time></trkpt><trkpt lat="44.9011783" lon="9.5499467"><ele>487.6</ele><time>2026-05-02T08:25:43.989Z</time></trkpt><trkpt lat="44.901115" lon="9.54984"><ele>489.0</ele><time>2026-05-02T08:25:44.989Z</time></trkpt><trkpt lat="44.9010567" lon="9.549735"><ele>489.0</ele><time>2026-05-02T08:25:45.989Z</time></trkpt><trkpt lat="44.901015" lon="9.5496417"><ele>489.0</ele><time>2026-05-02T08:25:46.989Z</time></trkpt><trkpt lat="44.9009917" lon="9.549545"><ele>489.0</ele><time>2026-05-02T08:25:47.989Z</time></trkpt><trkpt lat="44.900995" lon="9.5494533"><ele>489.0</ele><time>2026-05-02T08:25:48.988Z</time></trkpt><trkpt lat="44.9010517" lon="9.5493433"><ele>489.0</ele><time>2026-05-02T08:25:50.989Z</time></trkpt><trkpt lat="44.90118" lon="9.5493717"><ele>489.0</ele><time>2026-05-02T08:25:52.989Z</time></trkpt><trkpt lat="44.9012533" lon="9.549385"><ele>490.3333333333333</ele><time>2026-05-02T08:25:53.991Z</time></trkpt><trkpt lat="44.9013283" lon="9.549385"><ele>491.66666666666663</ele><time>2026-05-02T08:25:54.992Z</time></trkpt><trkpt lat="44.901395" lon="9.5493617"><ele>493.0</ele><time>2026-05-02T08:25:55.99Z</time></trkpt><trkpt lat="44.9014583" lon="9.54931"><ele>494.3333333333333</ele><time>2026-05-02T08:25:56.99Z</time></trkpt><trkpt lat="44.9015217" lon="9.54924"><ele>495.66666666666663</ele><time>2026-05-02T08:25:57.99Z</time></trkpt><trkpt lat="44.9015767" lon="9.5491567"><ele>497.0</ele><time>2026-05-02T08:25:58.99Z</time></trkpt><trkpt lat="44.9016267" lon="9.5490733"><ele>496.99999999999994</ele><time>2026-05-02T08:25:59.989Z</time></trkpt><trkpt lat="44.901675" lon="9.54899"><ele>497.0</ele><time>2026-05-02T08:26:00.99Z</time></trkpt><trkpt lat="44.9017317" lon="9.5489083"><ele>497.0</ele><time>2026-05-02T08:26:01.989Z</time></trkpt><trkpt lat="44.901795" lon="9.5488317"><ele>497.0</ele><time>2026-05-02T08:26:02.989Z</time></trkpt><trkpt lat="44.9018667" lon="9.5487633"><ele>496.99999999999994</ele><time>2026-05-02T08:26:03.989Z</time></trkpt><trkpt lat="44.901945" lon="9.5487033"><ele>497.0</ele><time>2026-05-02T08:26:04.988Z</time></trkpt><trkpt lat="44.902035" lon="9.5486517"><ele>499.25</ele><time>2026-05-02T08:26:05.989Z</time></trkpt><trkpt lat="44.9021317" lon="9.54861"><ele>501.5</ele><time>2026-05-02T08:26:06.99Z</time></trkpt><trkpt lat="44.9022417" lon="9.5485733"><ele>503.75</ele><time>2026-05-02T08:26:07.988Z</time></trkpt><trkpt lat="44.9023667" lon="9.54854"><ele>506.0</ele><time>2026-05-02T08:26:08.989Z</time></trkpt><trkpt lat="44.9024933" lon="9.5485183"><ele>507.6</ele><time>2026-05-02T08:26:09.989Z</time></trkpt><trkpt lat="44.902605" lon="9.5485217"><ele>509.20000000000005</ele><time>2026-05-02T08:26:10.989Z</time></trkpt><trkpt lat="44.90271" lon="9.5485533"><ele>510.79999999999995</ele><time>2026-05-02T08:26:11.989Z</time></trkpt><trkpt lat="44.9028167" lon="9.5486033"><ele>512.4</ele><time>2026-05-02T08:26:12.991Z</time></trkpt><trkpt lat="44.90292" lon="9.54865"><ele>514.0</ele><time>2026-05-02T08:26:13.992Z</time></trkpt><trkpt lat="44.90302" lon="9.5486633"><ele>514.0</ele><time>2026-05-02T08:26:14.993Z</time></trkpt><trkpt lat="44.9031233" lon="9.54864"><ele>514.0</ele><time>2026-05-02T08:26:15.991Z</time></trkpt><trkpt lat="44.9032233" lon="9.5486033"><ele>514.0</ele><time>2026-05-02T08:26:16.989Z</time></trkpt><trkpt lat="44.90332" lon="9.5485683"><ele>514.0</ele><time>2026-05-02T08:26:17.989Z</time></trkpt><trkpt lat="44.9034067" lon="9.5485517"><ele>514.0</ele><time>2026-05-02T08:26:18.989Z</time></trkpt><trkpt lat="44.90348" lon="9.54856"><ele>516.0</ele><time>2026-05-02T08:26:19.99Z</time></trkpt><trkpt lat="44.90352" lon="9.5487"><ele>518.0</ele><time>2026-05-02T08:26:21.99Z</time></trkpt><trkpt lat="44.9035133" lon="9.5488267"><ele>520.0</ele><time>2026-05-02T08:26:22.989Z</time></trkpt><trkpt lat="44.9035233" lon="9.5489633"><ele>522.0</ele><time>2026-05-02T08:26:23.989Z</time></trkpt><trkpt lat="44.9035733" lon="9.54908"><ele>524.0</ele><time>2026-05-02T08:26:24.989Z</time></trkpt><trkpt lat="44.90365" lon="9.5491783"><ele>525.4</ele><time>2026-05-02T08:26:25.989Z</time></trkpt><trkpt lat="44.9037367" lon="9.54928"><ele>526.8</ele><time>2026-05-02T08:26:26.991Z</time></trkpt><trkpt lat="44.9038183" lon="9.5493733"><ele>528.2</ele><time>2026-05-02T08:26:27.989Z</time></trkpt><trkpt lat="44.9039" lon="9.5494433"><ele>529.6</ele><time>2026-05-02T08:26:28.989Z</time></trkpt><trkpt lat="44.903995" lon="9.5494733"><ele>531.0</ele><time>2026-05-02T08:26:29.99Z</time></trkpt><trkpt lat="44.9040833" lon="9.5494983"><ele>530.5</ele><time>2026-05-02T08:26:30.99Z</time></trkpt><trkpt lat="44.9041733" lon="9.5495433"><ele>530.0</ele><time>2026-05-02T08:26:31.988Z</time></trkpt><trkpt lat="44.904245" lon="9.549605"><ele>529.5</ele><time>2026-05-02T08:26:32.991Z</time></trkpt><trkpt lat="44.90432" lon="9.5496717"><ele>529.0</ele><time>2026-05-02T08:26:33.989Z</time></trkpt><trkpt lat="44.9043967" lon="9.54973"><ele>528.5</ele><time>2026-05-02T08:26:34.99Z</time></trkpt><trkpt lat="44.9044717" lon="9.549765"><ele>528.0</ele><time>2026-05-02T08:26:35.99Z</time></trkpt><trkpt lat="44.9045383" lon="9.5497767"><ele>528.0</ele><time>2026-05-02T08:26:36.989Z</time></trkpt><trkpt lat="44.9046017" lon="9.5497567"><ele>528.0</ele><time>2026-05-02T08:26:37.989Z</time></trkpt><trkpt lat="44.9046683" lon="9.5497117"><ele>528.0</ele><time>2026-05-02T08:26:38.989Z</time></trkpt><trkpt lat="44.90473" lon="9.549635"><ele>528.0</ele><time>2026-05-02T08:26:39.99Z</time></trkpt><trkpt lat="44.904785" lon="9.5495383"><ele>528.0</ele><time>2026-05-02T08:26:40.99Z</time></trkpt><trkpt lat="44.90484" lon="9.5494233"><ele>528.0</ele><time>2026-05-02T08:26:41.989Z</time></trkpt><trkpt lat="44.9049017" lon="9.5493133"><ele>529.8</ele><time>2026-05-02T08:26:42.989Z</time></trkpt><trkpt lat="44.9049667" lon="9.549205"><ele>531.5999999999999</ele><time>2026-05-02T08:26:43.989Z</time></trkpt><trkpt lat="44.9050333" lon="9.5490967"><ele>533.4000000000001</ele><time>2026-05-02T08:26:44.99Z</time></trkpt><trkpt lat="44.9050983" lon="9.5489817"><ele>535.2</ele><time>2026-05-02T08:26:45.99Z</time></trkpt><trkpt lat="44.9051583" lon="9.5488567"><ele>537.0</ele><time>2026-05-02T08:26:46.989Z</time></trkpt><trkpt lat="44.9052133" lon="9.5487233"><ele>539.25</ele><time>2026-05-02T08:26:47.99Z</time></trkpt><trkpt lat="44.90526" lon="9.54858"><ele>541.5</ele><time>2026-05-02T08:26:48.99Z</time></trkpt><trkpt lat="44.9053133" lon="9.54843"><ele>543.75</ele><time>2026-05-02T08:26:49.989Z</time></trkpt><trkpt lat="44.9053717" lon="9.5482883"><ele>546.0</ele><time>2026-05-02T08:26:50.99Z</time></trkpt><trkpt lat="44.9054217" lon="9.54816"><ele>546.0</ele><time>2026-05-02T08:26:51.989Z</time></trkpt><trkpt lat="44.905455" lon="9.54804"><ele>546.0</ele><time>2026-05-02T08:26:52.989Z</time></trkpt><trkpt lat="44.90547" lon="9.5479233"><ele>546.0</ele><time>2026-05-02T08:26:53.989Z</time></trkpt><trkpt lat="44.90547" lon="9.5478"><ele>546.0</ele><time>2026-05-02T08:26:54.989Z</time></trkpt><trkpt lat="44.90547" lon="9.5476583"><ele>546.0</ele><time>2026-05-02T08:26:55.991Z</time></trkpt><trkpt lat="44.9054783" lon="9.5475167"><ele>545.8</ele><time>2026-05-02T08:26:56.989Z</time></trkpt><trkpt lat="44.905505" lon="9.5473767"><ele>545.6</ele><time>2026-05-02T08:26:57.988Z</time></trkpt><trkpt lat="44.9055483" lon="9.547245"><ele>545.4</ele><time>2026-05-02T08:26:58.989Z</time></trkpt><trkpt lat="44.9056117" lon="9.5471"><ele>545.2</ele><time>2026-05-02T08:26:59.989Z</time></trkpt><trkpt lat="44.9056733" lon="9.5469533"><ele>545.0</ele><time>2026-05-02T08:27:00.989Z</time></trkpt><trkpt lat="44.9057317" lon="9.5468033"><ele>544.25</ele><time>2026-05-02T08:27:01.989Z</time></trkpt><trkpt lat="44.90577" lon="9.5466517"><ele>543.5</ele><time>2026-05-02T08:27:02.99Z</time></trkpt><trkpt lat="44.9057817" lon="9.5464833"><ele>542.75</ele><time>2026-05-02T08:27:03.99Z</time></trkpt><trkpt lat="44.9057833" lon="9.5462967"><ele>542.0</ele><time>2026-05-02T08:27:04.99Z</time></trkpt><trkpt lat="44.905775" lon="9.54609"><ele>542.0</ele><time>2026-05-02T08:27:05.989Z</time></trkpt><trkpt lat="44.9057617" lon="9.5458917"><ele>542.0</ele><time>2026-05-02T08:27:06.989Z</time></trkpt><trkpt lat="44.905745" lon="9.5457083"><ele>542.0</ele><time>2026-05-02T08:27:07.989Z</time></trkpt><trkpt lat="44.9057317" lon="9.54554"><ele>542.0</ele><time>2026-05-02T08:27:08.989Z</time></trkpt><trkpt lat="44.9057367" lon="9.5453917"><ele>542.6666666666666</ele><time>2026-05-02T08:27:09.99Z</time></trkpt><trkpt lat="44.9057583" lon="9.5452583"><ele>543.3333333333333</ele><time>2026-05-02T08:27:10.99Z</time></trkpt><trkpt lat="44.9057767" lon="9.545135"><ele>544.0</ele><time>2026-05-02T08:27:11.989Z</time></trkpt><trkpt lat="44.9057867" lon="9.5450183"><ele>544.6666666666666</ele><time>2026-05-02T08:27:12.989Z</time></trkpt><trkpt lat="44.905785" lon="9.5449067"><ele>545.3333333333334</ele><time>2026-05-02T08:27:13.989Z</time></trkpt><trkpt lat="44.9057817" lon="9.5447933"><ele>546.0</ele><time>2026-05-02T08:27:14.99Z</time></trkpt><trkpt lat="44.9057767" lon="9.544685"><ele>546.0</ele><time>2026-05-02T08:27:15.989Z</time></trkpt><trkpt lat="44.9057767" lon="9.5445667"><ele>546.0</ele><time>2026-05-02T08:27:16.989Z</time></trkpt><trkpt lat="44.905785" lon="9.544445"><ele>546.0</ele><time>2026-05-02T08:27:17.989Z</time></trkpt><trkpt lat="44.9058" lon="9.5443333"><ele>546.0</ele><time>2026-05-02T08:27:18.989Z</time></trkpt><trkpt lat="44.905825" lon="9.5442267"><ele>546.0</ele><time>2026-05-02T08:27:19.99Z</time></trkpt><trkpt lat="44.905855" lon="9.5441233"><ele>546.0</ele><time>2026-05-02T08:27:20.99Z</time></trkpt><trkpt lat="44.9058967" lon="9.5440133"><ele>544.2</ele><time>2026-05-02T08:27:21.991Z</time></trkpt><trkpt lat="44.9059317" lon="9.543895"><ele>542.4000000000001</ele><time>2026-05-02T08:27:22.989Z</time></trkpt><trkpt lat="44.9059667" lon="9.5437667"><ele>540.6</ele><time>2026-05-02T08:27:23.991Z</time></trkpt><trkpt lat="44.9060033" lon="9.5436183"><ele>538.8000000000001</ele><time>2026-05-02T08:27:24.991Z</time></trkpt><trkpt lat="44.9060383" lon="9.5434517"><ele>537.0</ele><time>2026-05-02T08:27:25.99Z</time></trkpt><trkpt lat="44.9060833" lon="9.543275"><ele>537.0</ele><time>2026-05-02T08:27:26.99Z</time></trkpt><trkpt lat="44.90613" lon="9.543105"><ele>537.0</ele><time>2026-05-02T08:27:27.989Z</time></trkpt><trkpt lat="44.9061817" lon="9.5429467"><ele>537.0</ele><time>2026-05-02T08:27:28.989Z</time></trkpt><trkpt lat="44.906235" lon="9.542795"><ele>537.0</ele><time>2026-05-02T08:27:29.99Z</time></trkpt><trkpt lat="44.9062817" lon="9.54266"><ele>538.0</ele><time>2026-05-02T08:27:30.99Z</time></trkpt><trkpt lat="44.906325" lon="9.5425333"><ele>539.0</ele><time>2026-05-02T08:27:31.989Z</time></trkpt><trkpt lat="44.9063633" lon="9.54241"><ele>540.0</ele><time>2026-05-02T08:27:32.99Z</time></trkpt><trkpt lat="44.9063967" lon="9.5422867"><ele>541.0</ele><time>2026-05-02T08:27:33.99Z</time></trkpt><trkpt lat="44.9064317" lon="9.5421567"><ele>542.0</ele><time>2026-05-02T08:27:34.99Z</time></trkpt><trkpt lat="44.9064717" lon="9.542015"><ele>542.6</ele><time>2026-05-02T08:27:35.989Z</time></trkpt><trkpt lat="44.9065167" lon="9.541865"><ele>543.2</ele><time>2026-05-02T08:27:36.989Z</time></trkpt><trkpt lat="44.90656" lon="9.54172"><ele>543.8</ele><time>2026-05-02T08:27:37.989Z</time></trkpt><trkpt lat="44.906605" lon="9.5415867"><ele>544.4</ele><time>2026-05-02T08:27:38.991Z</time></trkpt><trkpt lat="44.906645" lon="9.5414617"><ele>545.0</ele><time>2026-05-02T08:27:39.989Z</time></trkpt><trkpt lat="44.90667" lon="9.5413383"><ele>546.2</ele><time>2026-05-02T08:27:40.989Z</time></trkpt><trkpt lat="44.9066733" lon="9.5412033"><ele>547.4</ele><time>2026-05-02T08:27:41.989Z</time></trkpt><trkpt lat="44.906665" lon="9.54106"><ele>548.6</ele><time>2026-05-02T08:27:42.989Z</time></trkpt><trkpt lat="44.9066433" lon="9.5409167"><ele>549.8</ele><time>2026-05-02T08:27:43.989Z</time></trkpt><trkpt lat="44.9066217" lon="9.5407783"><ele>551.0</ele><time>2026-05-02T08:27:44.991Z</time></trkpt><trkpt lat="44.9066" lon="9.5406567"><ele>551.0</ele><time>2026-05-02T08:27:45.99Z</time></trkpt><trkpt lat="44.9065817" lon="9.5405367"><ele>551.0</ele><time>2026-05-02T08:27:46.989Z</time></trkpt><trkpt lat="44.90656" lon="9.5404183"><ele>551.0</ele><time>2026-05-02T08:27:47.989Z</time></trkpt><trkpt lat="44.9065333" lon="9.5402983"><ele>551.0</ele><time>2026-05-02T08:27:48.989Z</time></trkpt><trkpt lat="44.9065" lon="9.5401767"><ele>551.0</ele><time>2026-05-02T08:27:49.991Z</time></trkpt><trkpt lat="44.90646" lon="9.5400517"><ele>552.4</ele><time>2026-05-02T08:27:50.99Z</time></trkpt><trkpt lat="44.906415" lon="9.53992"><ele>553.8</ele><time>2026-05-02T08:27:51.989Z</time></trkpt><trkpt lat="44.90637" lon="9.539785"><ele>555.1999999999999</ele><time>2026-05-02T08:27:52.99Z</time></trkpt><trkpt lat="44.9063217" lon="9.5396467"><ele>556.6</ele><time>2026-05-02T08:27:53.991Z</time></trkpt><trkpt lat="44.9062733" lon="9.5395067"><ele>558.0</ele><time>2026-05-02T08:27:54.989Z</time></trkpt><trkpt lat="44.9062217" lon="9.5393633"><ele>558.0</ele><time>2026-05-02T08:27:55.989Z</time></trkpt><trkpt lat="44.9061667" lon="9.5392133"><ele>558.0</ele><time>2026-05-02T08:27:56.991Z</time></trkpt><trkpt lat="44.9061083" lon="9.5390567"><ele>558.0</ele><time>2026-05-02T08:27:57.989Z</time></trkpt><trkpt lat="44.9060467" lon="9.5389017"><ele>558.0</ele><time>2026-05-02T08:27:58.99Z</time></trkpt><trkpt lat="44.90599" lon="9.5387467"><ele>557.25</ele><time>2026-05-02T08:27:59.989Z</time></trkpt><trkpt lat="44.90594" lon="9.5385867"><ele>556.5</ele><time>2026-05-02T08:28:00.989Z</time></trkpt><trkpt lat="44.9058817" lon="9.5384267"><ele>555.75</ele><time>2026-05-02T08:28:01.99Z</time></trkpt><trkpt lat="44.9058183" lon="9.5382633"><ele>555.0</ele><time>2026-05-02T08:28:02.99Z</time></trkpt><trkpt lat="44.9057567" lon="9.5380867"><ele>555.0</ele><time>2026-05-02T08:28:03.99Z</time></trkpt><trkpt lat="44.9056967" lon="9.5379033"><ele>555.0</ele><time>2026-05-02T08:28:04.99Z</time></trkpt><trkpt lat="44.9056367" lon="9.537715"><ele>555.0</ele><time>2026-05-02T08:28:05.989Z</time></trkpt><trkpt lat="44.9055833" lon="9.53753"><ele>555.0</ele><time>2026-05-02T08:28:06.989Z</time></trkpt><trkpt lat="44.9055367" lon="9.5373533"><ele>554.75</ele><time>2026-05-02T08:28:07.99Z</time></trkpt><trkpt lat="44.9054933" lon="9.5371917"><ele>554.5</ele><time>2026-05-02T08:28:08.991Z</time></trkpt><trkpt lat="44.90545" lon="9.53704"><ele>554.25</ele><time>2026-05-02T08:28:09.989Z</time></trkpt><trkpt lat="44.9054067" lon="9.5368867"><ele>554.0</ele><time>2026-05-02T08:28:10.99Z</time></trkpt><trkpt lat="44.9053583" lon="9.53674"><ele>552.25</ele><time>2026-05-02T08:28:11.989Z</time></trkpt><trkpt lat="44.9053067" lon="9.5366033"><ele>550.5</ele><time>2026-05-02T08:28:12.989Z</time></trkpt><trkpt lat="44.9052483" lon="9.5364667"><ele>548.75</ele><time>2026-05-02T08:28:13.989Z</time></trkpt><trkpt lat="44.9051883" lon="9.5363267"><ele>547.0</ele><time>2026-05-02T08:28:14.991Z</time></trkpt><trkpt lat="44.905125" lon="9.5361817"><ele>548.25</ele><time>2026-05-02T08:28:15.989Z</time></trkpt><trkpt lat="44.90506" lon="9.5360317"><ele>549.5</ele><time>2026-05-02T08:28:16.989Z</time></trkpt><trkpt lat="44.905" lon="9.53589"><ele>550.75</ele><time>2026-05-02T08:28:17.989Z</time></trkpt><trkpt lat="44.9049433" lon="9.5357467"><ele>552.0</ele><time>2026-05-02T08:28:18.99Z</time></trkpt><trkpt lat="44.9048967" lon="9.5356"><ele>552.0</ele><time>2026-05-02T08:28:19.99Z</time></trkpt><trkpt lat="44.9048567" lon="9.5354467"><ele>552.0</ele><time>2026-05-02T08:28:20.991Z</time></trkpt><trkpt lat="44.9048283" lon="9.53528"><ele>552.0</ele><time>2026-05-02T08:28:21.99Z</time></trkpt><trkpt lat="44.90481" lon="9.53511"><ele>552.0</ele><time>2026-05-02T08:28:22.991Z</time></trkpt><trkpt lat="44.9047933" lon="9.5349383"><ele>552.0</ele><time>2026-05-02T08:28:23.99Z</time></trkpt><trkpt lat="44.90477" lon="9.5347617"><ele>552.0</ele><time>2026-05-02T08:28:24.991Z</time></trkpt><trkpt lat="44.9047417" lon="9.534585"><ele>552.0</ele><time>2026-05-02T08:28:25.991Z</time></trkpt><trkpt lat="44.904705" lon="9.5344033"><ele>552.0</ele><time>2026-05-02T08:28:26.991Z</time></trkpt><trkpt lat="44.9046617" lon="9.5342217"><ele>552.0</ele><time>2026-05-02T08:28:27.991Z</time></trkpt><trkpt lat="44.904615" lon="9.5340417"><ele>552.0</ele><time>2026-05-02T08:28:28.99Z</time></trkpt><trkpt lat="44.9045617" lon="9.5338683"><ele>552.0</ele><time>2026-05-02T08:28:29.99Z</time></trkpt><trkpt lat="44.9045083" lon="9.5337017"><ele>552.0</ele><time>2026-05-02T08:28:30.989Z</time></trkpt><trkpt lat="44.9044533" lon="9.5335417"><ele>550.0</ele><time>2026-05-02T08:28:31.989Z</time></trkpt><trkpt lat="44.904405" lon="9.5333783"><ele>548.0</ele><time>2026-05-02T08:28:32.99Z</time></trkpt><trkpt lat="44.904365" lon="9.5332083"><ele>546.0</ele><time>2026-05-02T08:28:33.989Z</time></trkpt><trkpt lat="44.9043267" lon="9.5330333"><ele>544.0</ele><time>2026-05-02T08:28:34.989Z</time></trkpt><trkpt lat="44.9042817" lon="9.5328433"><ele>543.75</ele><time>2026-05-02T08:28:35.991Z</time></trkpt><trkpt lat="44.904225" lon="9.5326533"><ele>543.5</ele><time>2026-05-02T08:28:36.989Z</time></trkpt><trkpt lat="44.9041617" lon="9.5324683"><ele>543.25</ele><time>2026-05-02T08:28:37.99Z</time></trkpt><trkpt lat="44.9040967" lon="9.5322917"><ele>543.0</ele><time>2026-05-02T08:28:38.989Z</time></trkpt><trkpt lat="44.9040333" lon="9.5321183"><ele>541.0</ele><time>2026-05-02T08:28:39.989Z</time></trkpt><trkpt lat="44.9039817" lon="9.5319517"><ele>539.0</ele><time>2026-05-02T08:28:40.989Z</time></trkpt><trkpt lat="44.9039317" lon="9.5317883"><ele>537.0</ele><time>2026-05-02T08:28:41.99Z</time></trkpt><trkpt lat="44.903885" lon="9.5316333"><ele>535.0</ele><time>2026-05-02T08:28:42.989Z</time></trkpt><trkpt lat="44.9038467" lon="9.531485"><ele>535.0</ele><time>2026-05-02T08:28:43.989Z</time></trkpt><trkpt lat="44.9038017" lon="9.531335"><ele>535.0</ele><time>2026-05-02T08:28:44.99Z</time></trkpt><trkpt lat="44.9037567" lon="9.5311783"><ele>535.0</ele><time>2026-05-02T08:28:45.989Z</time></trkpt><trkpt lat="44.90372" lon="9.5310217"><ele>535.0</ele><time>2026-05-02T08:28:46.991Z</time></trkpt><trkpt lat="44.9036917" lon="9.5308667"><ele>533.8</ele><time>2026-05-02T08:28:47.99Z</time></trkpt><trkpt lat="44.9036733" lon="9.530715"><ele>532.6</ele><time>2026-05-02T08:28:48.99Z</time></trkpt><trkpt lat="44.903665" lon="9.5305583"><ele>531.4</ele><time>2026-05-02T08:28:49.991Z</time></trkpt><trkpt lat="44.903675" lon="9.5303983"><ele>530.2</ele><time>2026-05-02T08:28:50.99Z</time></trkpt><trkpt lat="44.903705" lon="9.53025"><ele>529.0</ele><time>2026-05-02T08:28:51.99Z</time></trkpt><trkpt lat="44.9037517" lon="9.5301083"><ele>529.0</ele><time>2026-05-02T08:28:52.99Z</time></trkpt><trkpt lat="44.90381" lon="9.5299617"><ele>529.0</ele><time>2026-05-02T08:28:53.991Z</time></trkpt><trkpt lat="44.9038717" lon="9.5298233"><ele>529.0</ele><time>2026-05-02T08:28:54.99Z</time></trkpt><trkpt lat="44.9039267" lon="9.5296833"><ele>529.0</ele><time>2026-05-02T08:28:55.991Z</time></trkpt><trkpt lat="44.903955" lon="9.5295283"><ele>529.6666666666667</ele><time>2026-05-02T08:28:56.991Z</time></trkpt><trkpt lat="44.903965" lon="9.5293633"><ele>530.3333333333334</ele><time>2026-05-02T08:28:57.99Z</time></trkpt><trkpt lat="44.9039633" lon="9.5292333"><ele>531.0</ele><time>2026-05-02T08:28:58.99Z</time></trkpt><trkpt lat="44.9039583" lon="9.52911"><ele>531.6666666666666</ele><time>2026-05-02T08:29:00.99Z</time></trkpt><trkpt lat="44.9039717" lon="9.5291983"><ele>532.3333333333333</ele><time>2026-05-02T08:29:18.99Z</time></trkpt><trkpt lat="44.90405" lon="9.5291767"><ele>533.0</ele><time>2026-05-02T08:29:21.989Z</time></trkpt><trkpt lat="44.90411" lon="9.529115"><ele>533.0</ele><time>2026-05-02T08:29:23.99Z</time></trkpt><trkpt lat="44.9041483" lon="9.5290433"><ele>533.0</ele><time>2026-05-02T08:29:25.989Z</time></trkpt><trkpt lat="44.904205" lon="9.5289867"><ele>533.0</ele><time>2026-05-02T08:29:28.99Z</time></trkpt><trkpt lat="44.904275" lon="9.5289483"><ele>533.0</ele><time>2026-05-02T08:29:31.99Z</time></trkpt><trkpt lat="44.9043467" lon="9.5288417"><ele>533.0</ele><time>2026-05-02T08:29:45.99Z</time></trkpt><trkpt lat="44.9043833" lon="9.5287633"><ele>533.0</ele><time>2026-05-02T08:29:46.989Z</time></trkpt><trkpt lat="44.9044217" lon="9.5286633"><ele>531.8333333333333</ele><time>2026-05-02T08:29:47.989Z</time></trkpt><trkpt lat="44.90446" lon="9.5285617"><ele>530.6666666666666</ele><time>2026-05-02T08:29:48.99Z</time></trkpt><trkpt lat="44.9044983" lon="9.5284617"><ele>529.5</ele><time>2026-05-02T08:29:49.99Z</time></trkpt><trkpt lat="44.9045433" lon="9.528345"><ele>528.3333333333334</ele><time>2026-05-02T08:29:50.991Z</time></trkpt><trkpt lat="44.9045883" lon="9.5282217"><ele>527.1666666666667</ele><time>2026-05-02T08:29:51.989Z</time></trkpt><trkpt lat="44.9046267" lon="9.5281"><ele>526.0</ele><time>2026-05-02T08:29:52.99Z</time></trkpt><trkpt lat="44.9046633" lon="9.5279783"><ele>525.3333333333334</ele><time>2026-05-02T08:29:53.99Z</time></trkpt><trkpt lat="44.904695" lon="9.5278683"><ele>524.6666666666667</ele><time>2026-05-02T08:29:54.991Z</time></trkpt><trkpt lat="44.9047283" lon="9.5277617"><ele>524.0</ele><time>2026-05-02T08:29:55.99Z</time></trkpt><trkpt lat="44.90477" lon="9.52764"><ele>523.3333333333334</ele><time>2026-05-02T08:29:56.992Z</time></trkpt><trkpt lat="44.90481" lon="9.527525"><ele>522.6666666666666</ele><time>2026-05-02T08:29:57.99Z</time></trkpt><trkpt lat="44.9048467" lon="9.5274183"><ele>522.0</ele><time>2026-05-02T08:29:58.99Z</time></trkpt><trkpt lat="44.9048967" lon="9.5273167"><ele>522.0</ele><time>2026-05-02T08:29:59.99Z</time></trkpt><trkpt lat="44.904955" lon="9.5272267"><ele>522.0</ele><time>2026-05-02T08:30:00.99Z</time></trkpt><trkpt lat="44.9050033" lon="9.52714"><ele>522.0</ele><time>2026-05-02T08:30:01.99Z</time></trkpt><trkpt lat="44.90504" lon="9.5270417"><ele>522.0</ele><time>2026-05-02T08:30:02.99Z</time></trkpt><trkpt lat="44.9050733" lon="9.526925"><ele>522.0</ele><time>2026-05-02T08:30:03.989Z</time></trkpt><trkpt lat="44.9051133" lon="9.5268217"><ele>522.0</ele><time>2026-05-02T08:30:04.99Z</time></trkpt><trkpt lat="44.9051617" lon="9.5267167"><ele>517.8333333333334</ele><time>2026-05-02T08:30:05.99Z</time></trkpt><trkpt lat="44.9052133" lon="9.5266333"><ele>513.6666666666666</ele><time>2026-05-02T08:30:06.99Z</time></trkpt><trkpt lat="44.9052683" lon="9.5265617"><ele>509.5</ele><time>2026-05-02T08:30:07.99Z</time></trkpt><trkpt lat="44.9053367" lon="9.5265017"><ele>505.3333333333333</ele><time>2026-05-02T08:30:08.99Z</time></trkpt><trkpt lat="44.9054133" lon="9.5264367"><ele>501.16666666666663</ele><time>2026-05-02T08:30:09.989Z</time></trkpt><trkpt lat="44.90549" lon="9.526375"><ele>497.0</ele><time>2026-05-02T08:30:10.989Z</time></trkpt><trkpt lat="44.905565" lon="9.5263117"><ele>496.99999999999994</ele><time>2026-05-02T08:30:11.989Z</time></trkpt><trkpt lat="44.9056367" lon="9.5262383"><ele>497.0</ele><time>2026-05-02T08:30:12.99Z</time></trkpt><trkpt lat="44.9056933" lon="9.5261483"><ele>497.0</ele><time>2026-05-02T08:30:13.99Z</time></trkpt><trkpt lat="44.9057367" lon="9.5260517"><ele>497.0</ele><time>2026-05-02T08:30:14.991Z</time></trkpt><trkpt lat="44.90577" lon="9.5259533"><ele>496.99999999999994</ele><time>2026-05-02T08:30:15.989Z</time></trkpt><trkpt lat="44.9058033" lon="9.5258617"><ele>497.0</ele><time>2026-05-02T08:30:16.989Z</time></trkpt><trkpt lat="44.9058433" lon="9.5257783"><ele>496.3333333333333</ele><time>2026-05-02T08:30:17.989Z</time></trkpt><trkpt lat="44.90589" lon="9.5256967"><ele>495.66666666666663</ele><time>2026-05-02T08:30:18.99Z</time></trkpt><trkpt lat="44.9059483" lon="9.52561"><ele>495.0</ele><time>2026-05-02T08:30:19.99Z</time></trkpt><trkpt lat="44.9059933" lon="9.52553"><ele>494.33333333333337</ele><time>2026-05-02T08:30:20.991Z</time></trkpt><trkpt lat="44.9060333" lon="9.5254483"><ele>493.6666666666667</ele><time>2026-05-02T08:30:21.99Z</time></trkpt><trkpt lat="44.9060783" lon="9.5253633"><ele>493.0</ele><time>2026-05-02T08:30:22.99Z</time></trkpt><trkpt lat="44.9061233" lon="9.5252767"><ele>489.50000000000006</ele><time>2026-05-02T08:30:23.99Z</time></trkpt><trkpt lat="44.9061683" lon="9.5251983"><ele>486.0</ele><time>2026-05-02T08:30:24.989Z</time></trkpt><trkpt lat="44.9062083" lon="9.525065"><ele>482.5</ele><time>2026-05-02T08:30:26.99Z</time></trkpt><trkpt lat="44.906225" lon="9.52496"><ele>479.0</ele><time>2026-05-02T08:30:28.989Z</time></trkpt><trkpt lat="44.9062717" lon="9.5248417"><ele>475.50000000000006</ele><time>2026-05-02T08:30:30.99Z</time></trkpt><trkpt lat="44.9063183" lon="9.5247733"><ele>472.0</ele><time>2026-05-02T08:30:31.99Z</time></trkpt><trkpt lat="44.9063733" lon="9.5247017"><ele>472.00000000000006</ele><time>2026-05-02T08:30:32.99Z</time></trkpt><trkpt lat="44.9064317" lon="9.524625"><ele>472.0</ele><time>2026-05-02T08:30:33.99Z</time></trkpt><trkpt lat="44.9064917" lon="9.5245433"><ele>472.0</ele><time>2026-05-02T08:30:34.99Z</time></trkpt><trkpt lat="44.9065517" lon="9.5244583"><ele>472.0</ele><time>2026-05-02T08:30:35.991Z</time></trkpt><trkpt lat="44.9066117" lon="9.5243717"><ele>472.00000000000006</ele><time>2026-05-02T08:30:36.99Z</time></trkpt><trkpt lat="44.9066783" lon="9.52429"><ele>472.0</ele><time>2026-05-02T08:30:37.99Z</time></trkpt><trkpt lat="44.9067467" lon="9.524205"><ele>471.6666666666667</ele><time>2026-05-02T08:30:38.991Z</time></trkpt><trkpt lat="44.9068117" lon="9.5241233"><ele>471.33333333333337</ele><time>2026-05-02T08:30:39.99Z</time></trkpt><trkpt lat="44.9068617" lon="9.5240583"><ele>471.0</ele><time>2026-05-02T08:30:40.99Z</time></trkpt><trkpt lat="44.9069283" lon="9.5239683"><ele>470.66666666666663</ele><time>2026-05-02T08:30:42.99Z</time></trkpt><trkpt lat="44.9068967" lon="9.5238833"><ele>470.3333333333333</ele><time>2026-05-02T08:30:46.989Z</time></trkpt><trkpt lat="44.9068117" lon="9.5238367"><ele>470.0</ele><time>2026-05-02T08:30:49.989Z</time></trkpt><trkpt lat="44.9067283" lon="9.5238267"><ele>470.0</ele><time>2026-05-02T08:30:51.989Z</time></trkpt><trkpt lat="44.906615" lon="9.5238083"><ele>470.0</ele><time>2026-05-02T08:30:53.989Z</time></trkpt><trkpt lat="44.9065333" lon="9.52378"><ele>470.0</ele><time>2026-05-02T08:30:54.989Z</time></trkpt><trkpt lat="44.9064567" lon="9.523725"><ele>470.0</ele><time>2026-05-02T08:30:55.989Z</time></trkpt><trkpt lat="44.90638" lon="9.5236333"><ele>470.0</ele><time>2026-05-02T08:30:56.99Z</time></trkpt><trkpt lat="44.9063167" lon="9.523505"><ele>468.25</ele><time>2026-05-02T08:30:57.989Z</time></trkpt><trkpt lat="44.9062483" lon="9.5233633"><ele>466.5</ele><time>2026-05-02T08:30:58.991Z</time></trkpt><trkpt lat="44.9061767" lon="9.5232117"><ele>464.75</ele><time>2026-05-02T08:30:59.99Z</time></trkpt><trkpt lat="44.9061083" lon="9.5230567"><ele>463.0</ele><time>2026-05-02T08:31:00.99Z</time></trkpt><trkpt lat="44.9060417" lon="9.522915"><ele>463.25</ele><time>2026-05-02T08:31:01.991Z</time></trkpt><trkpt lat="44.9059733" lon="9.5227767"><ele>463.5</ele><time>2026-05-02T08:31:02.99Z</time></trkpt><trkpt lat="44.9058983" lon="9.5226267"><ele>463.75</ele><time>2026-05-02T08:31:03.99Z</time></trkpt><trkpt lat="44.9058167" lon="9.5224733"><ele>464.0</ele><time>2026-05-02T08:31:04.989Z</time></trkpt><trkpt lat="44.9057383" lon="9.5223217"><ele>464.0</ele><time>2026-05-02T08:31:05.991Z</time></trkpt><trkpt lat="44.9056667" lon="9.522175"><ele>464.0</ele><time>2026-05-02T08:31:06.989Z</time></trkpt><trkpt lat="44.90561" lon="9.5220267"><ele>464.0</ele><time>2026-05-02T08:31:07.99Z</time></trkpt><trkpt lat="44.90556" lon="9.5218717"><ele>464.0</ele><time>2026-05-02T08:31:08.99Z</time></trkpt><trkpt lat="44.9055117" lon="9.5217017"><ele>463.5</ele><time>2026-05-02T08:31:09.99Z</time></trkpt><trkpt lat="44.90547" lon="9.52153"><ele>463.0</ele><time>2026-05-02T08:31:10.99Z</time></trkpt><trkpt lat="44.9054317" lon="9.5213583"><ele>462.5</ele><time>2026-05-02T08:31:11.99Z</time></trkpt><trkpt lat="44.9053933" lon="9.5211883"><ele>462.0</ele><time>2026-05-02T08:31:12.989Z</time></trkpt><trkpt lat="44.9053517" lon="9.5210167"><ele>461.6</ele><time>2026-05-02T08:31:13.989Z</time></trkpt><trkpt lat="44.9053183" lon="9.5208467"><ele>461.20000000000005</ele><time>2026-05-02T08:31:14.99Z</time></trkpt><trkpt lat="44.90529" lon="9.5206933"><ele>460.8</ele><time>2026-05-02T08:31:15.991Z</time></trkpt><trkpt lat="44.9052733" lon="9.520545"><ele>460.4</ele><time>2026-05-02T08:31:16.989Z</time></trkpt><trkpt lat="44.90526" lon="9.5204133"><ele>460.0</ele><time>2026-05-02T08:31:17.99Z</time></trkpt><trkpt lat="44.9052633" lon="9.52029"><ele>460.00000000000006</ele><time>2026-05-02T08:31:18.989Z</time></trkpt><trkpt lat="44.9052817" lon="9.5201767"><ele>460.0</ele><time>2026-05-02T08:31:19.99Z</time></trkpt><trkpt lat="44.9053167" lon="9.52007"><ele>460.0</ele><time>2026-05-02T08:31:20.989Z</time></trkpt><trkpt lat="44.9053633" lon="9.519965"><ele>460.0</ele><time>2026-05-02T08:31:21.989Z</time></trkpt><trkpt lat="44.905415" lon="9.5198767"><ele>460.00000000000006</ele><time>2026-05-02T08:31:22.989Z</time></trkpt><trkpt lat="44.9054817" lon="9.5197983"><ele>460.0</ele><time>2026-05-02T08:31:23.989Z</time></trkpt><trkpt lat="44.905555" lon="9.5197067"><ele>460.0</ele><time>2026-05-02T08:31:24.989Z</time></trkpt><trkpt lat="44.905635" lon="9.5196017"><ele>460.0</ele><time>2026-05-02T08:31:25.989Z</time></trkpt><trkpt lat="44.9057117" lon="9.5195033"><ele>460.0</ele><time>2026-05-02T08:31:26.99Z</time></trkpt><trkpt lat="44.9057817" lon="9.5194067"><ele>460.0</ele><time>2026-05-02T08:31:27.989Z</time></trkpt><trkpt lat="44.9058383" lon="9.5193"><ele>460.0</ele><time>2026-05-02T08:31:28.989Z</time></trkpt><trkpt lat="44.905875" lon="9.5191817"><ele>461.2</ele><time>2026-05-02T08:31:29.989Z</time></trkpt><trkpt lat="44.9058933" lon="9.51906"><ele>462.4</ele><time>2026-05-02T08:31:30.99Z</time></trkpt><trkpt lat="44.9058933" lon="9.518935"><ele>463.6</ele><time>2026-05-02T08:31:31.989Z</time></trkpt><trkpt lat="44.9058783" lon="9.5187933"><ele>464.8</ele><time>2026-05-02T08:31:32.991Z</time></trkpt><trkpt lat="44.9058533" lon="9.5186333"><ele>466.0</ele><time>2026-05-02T08:31:33.989Z</time></trkpt><trkpt lat="44.9058233" lon="9.51847"><ele>466.0</ele><time>2026-05-02T08:31:34.99Z</time></trkpt><trkpt lat="44.9057967" lon="9.51831"><ele>466.0</ele><time>2026-05-02T08:31:35.99Z</time></trkpt><trkpt lat="44.90577" lon="9.5181583"><ele>466.0</ele><time>2026-05-02T08:31:36.991Z</time></trkpt><trkpt lat="44.9057483" lon="9.518015"><ele>466.0</ele><time>2026-05-02T08:31:37.991Z</time></trkpt><trkpt lat="44.905725" lon="9.5178833"><ele>466.0</ele><time>2026-05-02T08:31:38.991Z</time></trkpt><trkpt lat="44.9057" lon="9.5177533"><ele>466.33333333333337</ele><time>2026-05-02T08:31:39.991Z</time></trkpt><trkpt lat="44.9056883" lon="9.51765"><ele>466.6666666666667</ele><time>2026-05-02T08:31:40.989Z</time></trkpt><trkpt lat="44.9056767" lon="9.51756"><ele>467.0</ele><time>2026-05-02T08:31:41.989Z</time></trkpt><trkpt lat="44.9056583" lon="9.5174683"><ele>467.33333333333337</ele><time>2026-05-02T08:31:42.99Z</time></trkpt><trkpt lat="44.9056283" lon="9.5173817"><ele>467.6666666666667</ele><time>2026-05-02T08:31:43.99Z</time></trkpt><trkpt lat="44.9056017" lon="9.5172917"><ele>468.0</ele><time>2026-05-02T08:31:44.991Z</time></trkpt><trkpt lat="44.9055883" lon="9.5171067"><ele>469.3333333333333</ele><time>2026-05-02T08:31:46.989Z</time></trkpt><trkpt lat="44.9056167" lon="9.51696"><ele>470.66666666666663</ele><time>2026-05-02T08:31:48.99Z</time></trkpt><trkpt lat="44.9056233" lon="9.5168667"><ele>472.0</ele><time>2026-05-02T08:31:50.99Z</time></trkpt><trkpt lat="44.9055283" lon="9.5168617"><ele>473.3333333333333</ele><time>2026-05-02T08:31:53.99Z</time></trkpt><trkpt lat="44.9054433" lon="9.5169"><ele>474.66666666666663</ele><time>2026-05-02T08:31:55.989Z</time></trkpt><trkpt lat="44.9053683" lon="9.5168517"><ele>476.0</ele><time>2026-05-02T08:31:57.99Z</time></trkpt><trkpt lat="44.9052783" lon="9.5167433"><ele>476.0</ele><time>2026-05-02T08:31:59.99Z</time></trkpt><trkpt lat="44.9052133" lon="9.5166383"><ele>476.0</ele><time>2026-05-02T08:32:01.989Z</time></trkpt><trkpt lat="44.9051417" lon="9.5164933"><ele>476.0</ele><time>2026-05-02T08:32:03.99Z</time></trkpt><trkpt lat="44.9050983" lon="9.5164033"><ele>476.0</ele><time>2026-05-02T08:32:04.991Z</time></trkpt><trkpt lat="44.9050483" lon="9.5163017"><ele>476.0</ele><time>2026-05-02T08:32:05.99Z</time></trkpt><trkpt lat="44.9049967" lon="9.5161967"><ele>477.99999999999994</ele><time>2026-05-02T08:32:06.991Z</time></trkpt><trkpt lat="44.9049533" lon="9.5161017"><ele>480.0</ele><time>2026-05-02T08:32:07.991Z</time></trkpt><trkpt lat="44.9049283" lon="9.5160083"><ele>482.0</ele><time>2026-05-02T08:32:08.991Z</time></trkpt><trkpt lat="44.904925" lon="9.51591"><ele>484.0</ele><time>2026-05-02T08:32:09.99Z</time></trkpt><trkpt lat="44.9049333" lon="9.5158083"><ele>485.99999999999994</ele><time>2026-05-02T08:32:10.99Z</time></trkpt><trkpt lat="44.9049467" lon="9.5157117"><ele>488.0</ele><time>2026-05-02T08:32:11.991Z</time></trkpt><trkpt lat="44.904955" lon="9.5155483"><ele>489.49999999999994</ele><time>2026-05-02T08:32:13.989Z</time></trkpt><trkpt lat="44.9049417" lon="9.5154017"><ele>491.0</ele><time>2026-05-02T08:32:15.989Z</time></trkpt><trkpt lat="44.9050067" lon="9.5153483"><ele>492.5</ele><time>2026-05-02T08:32:17.989Z</time></trkpt><trkpt lat="44.90507" lon="9.515345"><ele>494.0</ele><time>2026-05-02T08:32:18.989Z</time></trkpt><trkpt lat="44.905135" lon="9.5153433"><ele>495.49999999999994</ele><time>2026-05-02T08:32:19.99Z</time></trkpt><trkpt lat="44.90523" lon="9.5153433"><ele>497.0</ele><time>2026-05-02T08:32:21.99Z</time></trkpt><trkpt lat="44.905315" lon="9.5153667"><ele>498.40000000000003</ele><time>2026-05-02T08:32:23.989Z</time></trkpt><trkpt lat="44.9053767" lon="9.5153967"><ele>499.80000000000007</ele><time>2026-05-02T08:32:25.989Z</time></trkpt><trkpt lat="44.9054267" lon="9.51549"><ele>501.2</ele><time>2026-05-02T08:32:28.992Z</time></trkpt><trkpt lat="44.9055283" lon="9.5155283"><ele>502.6</ele><time>2026-05-02T08:32:38.99Z</time></trkpt><trkpt lat="44.9056333" lon="9.5155733"><ele>504.0</ele><time>2026-05-02T08:32:40.99Z</time></trkpt><trkpt lat="44.9057583" lon="9.5156167"><ele>501.3333333333333</ele><time>2026-05-02T08:32:42.99Z</time></trkpt><trkpt lat="44.9058283" lon="9.51565"><ele>498.66666666666663</ele><time>2026-05-02T08:32:43.99Z</time></trkpt><trkpt lat="44.9058983" lon="9.5156933"><ele>496.0</ele><time>2026-05-02T08:32:44.99Z</time></trkpt><trkpt lat="44.9059667" lon="9.51575"><ele>493.3333333333333</ele><time>2026-05-02T08:32:45.989Z</time></trkpt><trkpt lat="44.90603" lon="9.5158233"><ele>490.66666666666663</ele><time>2026-05-02T08:32:46.989Z</time></trkpt><trkpt lat="44.9060917" lon="9.5159067"><ele>488.0</ele><time>2026-05-02T08:32:47.99Z</time></trkpt><trkpt lat="44.9061517" lon="9.516005"><ele>485.79999999999995</ele><time>2026-05-02T08:32:48.989Z</time></trkpt><trkpt lat="44.906205" lon="9.51609"><ele>483.59999999999997</ele><time>2026-05-02T08:32:49.99Z</time></trkpt><trkpt lat="44.9062567" lon="9.51616"><ele>481.40000000000003</ele><time>2026-05-02T08:32:50.991Z</time></trkpt><trkpt lat="44.906355" lon="9.51623"><ele>479.20000000000005</ele><time>2026-05-02T08:32:52.99Z</time></trkpt><trkpt lat="44.906465" lon="9.51624"><ele>477.0</ele><time>2026-05-02T08:32:54.989Z</time></trkpt><trkpt lat="44.9065783" lon="9.5161817"><ele>477.0</ele><time>2026-05-02T08:32:56.99Z</time></trkpt><trkpt lat="44.9066483" lon="9.5161367"><ele>476.99999999999994</ele><time>2026-05-02T08:32:57.991Z</time></trkpt><trkpt lat="44.9067183" lon="9.5161017"><ele>477.0</ele><time>2026-05-02T08:32:58.99Z</time></trkpt><trkpt lat="44.9067883" lon="9.5160633"><ele>477.0</ele><time>2026-05-02T08:32:59.991Z</time></trkpt><trkpt lat="44.9068567" lon="9.516015"><ele>476.99999999999994</ele><time>2026-05-02T08:33:00.991Z</time></trkpt><trkpt lat="44.9069167" lon="9.515955"><ele>477.0</ele><time>2026-05-02T08:33:01.993Z</time></trkpt><trkpt lat="44.9069683" lon="9.5158967"><ele>477.0</ele><time>2026-05-02T08:33:02.99Z</time></trkpt><trkpt lat="44.9070267" lon="9.5158167"><ele>473.6</ele><time>2026-05-02T08:33:04.99Z</time></trkpt><trkpt lat="44.90712" lon="9.5157617"><ele>470.20000000000005</ele><time>2026-05-02T08:33:25.991Z</time></trkpt><trkpt lat="44.9072517" lon="9.5157633"><ele>466.8</ele><time>2026-05-02T08:33:27.991Z</time></trkpt><trkpt lat="44.907325" lon="9.5157717"><ele>463.4</ele><time>2026-05-02T08:33:28.99Z</time></trkpt><trkpt lat="44.9074083" lon="9.5157967"><ele>460.0</ele><time>2026-05-02T08:33:29.99Z</time></trkpt><trkpt lat="44.9074967" lon="9.5158333"><ele>457.6</ele><time>2026-05-02T08:33:30.99Z</time></trkpt><trkpt lat="44.9075867" lon="9.5158833"><ele>455.2</ele><time>2026-05-02T08:33:31.99Z</time></trkpt><trkpt lat="44.90767" lon="9.5159433"><ele>452.79999999999995</ele><time>2026-05-02T08:33:32.99Z</time></trkpt><trkpt lat="44.907745" lon="9.5160117"><ele>450.4</ele><time>2026-05-02T08:33:33.99Z</time></trkpt><trkpt lat="44.907805" lon="9.5160733"><ele>448.0</ele><time>2026-05-02T08:33:34.99Z</time></trkpt><trkpt lat="44.907895" lon="9.516165"><ele>448.00000000000006</ele><time>2026-05-02T08:33:36.99Z</time></trkpt><trkpt lat="44.9079633" lon="9.5162017"><ele>448.0</ele><time>2026-05-02T08:33:39.99Z</time></trkpt><trkpt lat="44.9080167" lon="9.51611"><ele>448.0</ele><time>2026-05-02T08:33:42.99Z</time></trkpt><trkpt lat="44.90807" lon="9.5160017"><ele>448.0</ele><time>2026-05-02T08:33:45.989Z</time></trkpt><trkpt lat="44.9081167" lon="9.51589"><ele>448.00000000000006</ele><time>2026-05-02T08:34:28.989Z</time></trkpt><trkpt lat="44.9081567" lon="9.515815"><ele>448.0</ele><time>2026-05-02T08:34:30.988Z</time></trkpt><trkpt lat="44.9082117" lon="9.5157183"><ele>448.0</ele><time>2026-05-02T08:34:33.989Z</time></trkpt><trkpt lat="44.90825" lon="9.5156433"><ele>447.99999999999994</ele><time>2026-05-02T08:34:36.988Z</time></trkpt><trkpt lat="44.9082983" lon="9.5155233"><ele>447.99999999999994</ele><time>2026-05-02T08:34:39.991Z</time></trkpt><trkpt lat="44.9083817" lon="9.5153767"><ele>448.0</ele><time>2026-05-02T08:34:41.991Z</time></trkpt><trkpt lat="44.9084333" lon="9.5152883"><ele>448.0</ele><time>2026-05-02T08:34:42.989Z</time></trkpt><trkpt lat="44.9084967" lon="9.515195"><ele>448.0</ele><time>2026-05-02T08:34:43.99Z</time></trkpt><trkpt lat="44.90857" lon="9.5150983"><ele>447.99999999999994</ele><time>2026-05-02T08:34:44.99Z</time></trkpt><trkpt lat="44.9086567" lon="9.5150033"><ele>447.99999999999994</ele><time>2026-05-02T08:34:45.989Z</time></trkpt><trkpt lat="44.9087467" lon="9.5149117"><ele>448.0</ele><time>2026-05-02T08:34:46.989Z</time></trkpt><trkpt lat="44.9088383" lon="9.5148233"><ele>448.0</ele><time>2026-05-02T08:34:47.989Z</time></trkpt><trkpt lat="44.9089383" lon="9.51473"><ele>448.0</ele><time>2026-05-02T08:34:48.99Z</time></trkpt><trkpt lat="44.9090383" lon="9.5146383"><ele>448.0</ele><time>2026-05-02T08:34:49.99Z</time></trkpt><trkpt lat="44.909135" lon="9.5145367"><ele>448.0</ele><time>2026-05-02T08:34:50.99Z</time></trkpt><trkpt lat="44.909225" lon="9.51443"><ele>448.0</ele><time>2026-05-02T08:34:51.989Z</time></trkpt><trkpt lat="44.9093017" lon="9.5143133"><ele>446.79999999999995</ele><time>2026-05-02T08:34:52.989Z</time></trkpt><trkpt lat="44.9093467" lon="9.514195"><ele>445.59999999999997</ele><time>2026-05-02T08:34:53.989Z</time></trkpt><trkpt lat="44.9093817" lon="9.5140617"><ele>444.40000000000003</ele><time>2026-05-02T08:34:54.989Z</time></trkpt><trkpt lat="44.9094133" lon="9.5139283"><ele>443.20000000000005</ele><time>2026-05-02T08:34:55.989Z</time></trkpt><trkpt lat="44.90944" lon="9.5137917"><ele>442.0</ele><time>2026-05-02T08:34:56.99Z</time></trkpt><trkpt lat="44.9094467" lon="9.5136633"><ele>442.00000000000006</ele><time>2026-05-02T08:34:57.989Z</time></trkpt><trkpt lat="44.9094183" lon="9.513565"><ele>442.0</ele><time>2026-05-02T08:34:58.989Z</time></trkpt><trkpt lat="44.909375" lon="9.5134567"><ele>442.0</ele><time>2026-05-02T08:34:59.988Z</time></trkpt><trkpt lat="44.909335" lon="9.5133367"><ele>442.0</ele><time>2026-05-02T08:35:00.989Z</time></trkpt><trkpt lat="44.9092933" lon="9.5132167"><ele>442.00000000000006</ele><time>2026-05-02T08:35:01.989Z</time></trkpt><trkpt lat="44.9092617" lon="9.51309"><ele>442.0</ele><time>2026-05-02T08:35:02.989Z</time></trkpt><trkpt lat="44.9092467" lon="9.512945"><ele>442.25</ele><time>2026-05-02T08:35:03.989Z</time></trkpt><trkpt lat="44.9092417" lon="9.51279"><ele>442.5</ele><time>2026-05-02T08:35:04.992Z</time></trkpt><trkpt lat="44.9092517" lon="9.5126267"><ele>442.75</ele><time>2026-05-02T08:35:05.989Z</time></trkpt><trkpt lat="44.90926" lon="9.512465"><ele>443.0</ele><time>2026-05-02T08:35:06.989Z</time></trkpt><trkpt lat="44.9092733" lon="9.5123033"><ele>443.0</ele><time>2026-05-02T08:35:07.99Z</time></trkpt><trkpt lat="44.909295" lon="9.5121383"><ele>442.99999999999994</ele><time>2026-05-02T08:35:08.989Z</time></trkpt><trkpt lat="44.9093083" lon="9.5119817"><ele>442.99999999999994</ele><time>2026-05-02T08:35:09.99Z</time></trkpt><trkpt lat="44.9093133" lon="9.51183"><ele>443.0</ele><time>2026-05-02T08:35:10.99Z</time></trkpt><trkpt lat="44.9092983" lon="9.511685"><ele>443.0</ele><time>2026-05-02T08:35:11.989Z</time></trkpt><trkpt lat="44.9092717" lon="9.5115333"><ele>451.75</ele><time>2026-05-02T08:35:12.989Z</time></trkpt><trkpt lat="44.9092117" lon="9.5113983"><ele>460.5</ele><time>2026-05-02T08:35:13.989Z</time></trkpt><trkpt lat="44.9091283" lon="9.5112767"><ele>469.25</ele><time>2026-05-02T08:35:14.99Z</time></trkpt><trkpt lat="44.9090333" lon="9.5111583"><ele>478.0</ele><time>2026-05-02T08:35:15.989Z</time></trkpt><trkpt lat="44.9089433" lon="9.5110383"><ele>478.0</ele><time>2026-05-02T08:35:16.989Z</time></trkpt><trkpt lat="44.9088567" lon="9.5109"><ele>478.0</ele><time>2026-05-02T08:35:17.989Z</time></trkpt><trkpt lat="44.908775" lon="9.5107617"><ele>478.0</ele><time>2026-05-02T08:35:18.991Z</time></trkpt><trkpt lat="44.908705" lon="9.51062"><ele>478.0</ele><time>2026-05-02T08:35:19.989Z</time></trkpt><trkpt lat="44.9086483" lon="9.510485"><ele>476.0</ele><time>2026-05-02T08:35:20.989Z</time></trkpt><trkpt lat="44.9085983" lon="9.5103567"><ele>473.99999999999994</ele><time>2026-05-02T08:35:21.989Z</time></trkpt><trkpt lat="44.9085467" lon="9.5102267"><ele>471.99999999999994</ele><time>2026-05-02T08:35:22.989Z</time></trkpt><trkpt lat="44.9084833" lon="9.5100883"><ele>470.0</ele><time>2026-05-02T08:35:23.989Z</time></trkpt><trkpt lat="44.9084183" lon="9.5099583"><ele>468.0</ele><time>2026-05-02T08:35:24.99Z</time></trkpt><trkpt lat="44.9083433" lon="9.5098333"><ele>472.0</ele><time>2026-05-02T08:35:25.989Z</time></trkpt><trkpt lat="44.9082667" lon="9.5097083"><ele>476.0</ele><time>2026-05-02T08:35:26.989Z</time></trkpt><trkpt lat="44.908185" lon="9.5095867"><ele>480.0</ele><time>2026-05-02T08:35:27.989Z</time></trkpt><trkpt lat="44.9081017" lon="9.509465"><ele>484.0</ele><time>2026-05-02T08:35:28.989Z</time></trkpt><trkpt lat="44.90802" lon="9.509345"><ele>484.0</ele><time>2026-05-02T08:35:29.989Z</time></trkpt><trkpt lat="44.90794" lon="9.5092233"><ele>484.0</ele><time>2026-05-02T08:35:30.988Z</time></trkpt><trkpt lat="44.907855" lon="9.5090883"><ele>484.0</ele><time>2026-05-02T08:35:31.988Z</time></trkpt><trkpt lat="44.9077667" lon="9.5089417"><ele>484.0</ele><time>2026-05-02T08:35:32.989Z</time></trkpt><trkpt lat="44.9076767" lon="9.5088017"><ele>483.0</ele><time>2026-05-02T08:35:33.989Z</time></trkpt><trkpt lat="44.9075983" lon="9.508675"><ele>482.0</ele><time>2026-05-02T08:35:34.99Z</time></trkpt><trkpt lat="44.9075267" lon="9.5085633"><ele>481.0</ele><time>2026-05-02T08:35:35.988Z</time></trkpt><trkpt lat="44.9074567" lon="9.5084683"><ele>480.0</ele><time>2026-05-02T08:35:36.988Z</time></trkpt><trkpt lat="44.9073917" lon="9.5083933"><ele>479.0</ele><time>2026-05-02T08:35:37.989Z</time></trkpt><trkpt lat="44.907325" lon="9.5083367"><ele>481.4</ele><time>2026-05-02T08:35:38.989Z</time></trkpt><trkpt lat="44.90727" lon="9.5082933"><ele>483.79999999999995</ele><time>2026-05-02T08:35:39.988Z</time></trkpt><trkpt lat="44.907225" lon="9.5081917"><ele>486.20000000000005</ele><time>2026-05-02T08:35:41.989Z</time></trkpt><trkpt lat="44.9073133" lon="9.50807"><ele>488.6</ele><time>2026-05-02T08:35:43.99Z</time></trkpt><trkpt lat="44.9073867" lon="9.50801"><ele>491.0</ele><time>2026-05-02T08:35:44.99Z</time></trkpt><trkpt lat="44.90747" lon="9.507945"><ele>489.0</ele><time>2026-05-02T08:35:45.989Z</time></trkpt><trkpt lat="44.9075583" lon="9.5078717"><ele>487.0</ele><time>2026-05-02T08:35:46.988Z</time></trkpt><trkpt lat="44.9076483" lon="9.507795"><ele>485.0</ele><time>2026-05-02T08:35:47.99Z</time></trkpt><trkpt lat="44.9077333" lon="9.507715"><ele>483.0</ele><time>2026-05-02T08:35:48.989Z</time></trkpt><trkpt lat="44.9078183" lon="9.5076383"><ele>481.0</ele><time>2026-05-02T08:35:49.989Z</time></trkpt><trkpt lat="44.9079067" lon="9.5075633"><ele>480.4</ele><time>2026-05-02T08:35:50.99Z</time></trkpt><trkpt lat="44.907995" lon="9.5074933"><ele>479.8</ele><time>2026-05-02T08:35:51.99Z</time></trkpt><trkpt lat="44.9080867" lon="9.5074383"><ele>479.19999999999993</ele><time>2026-05-02T08:35:52.989Z</time></trkpt><trkpt lat="44.9081817" lon="9.5074017"><ele>478.59999999999997</ele><time>2026-05-02T08:35:53.989Z</time></trkpt><trkpt lat="44.9082817" lon="9.507385"><ele>478.0</ele><time>2026-05-02T08:35:54.99Z</time></trkpt><trkpt lat="44.9083817" lon="9.5073833"><ele>476.79999999999995</ele><time>2026-05-02T08:35:55.989Z</time></trkpt><trkpt lat="44.9084783" lon="9.5073783"><ele>475.59999999999997</ele><time>2026-05-02T08:35:56.989Z</time></trkpt><trkpt lat="44.9085683" lon="9.5073517"><ele>474.40000000000003</ele><time>2026-05-02T08:35:57.99Z</time></trkpt><trkpt lat="44.90866" lon="9.5072967"><ele>473.20000000000005</ele><time>2026-05-02T08:35:58.989Z</time></trkpt><trkpt lat="44.90876" lon="9.50722"><ele>472.0</ele><time>2026-05-02T08:35:59.991Z</time></trkpt><trkpt lat="44.90886" lon="9.50713"><ele>472.5</ele><time>2026-05-02T08:36:00.99Z</time></trkpt><trkpt lat="44.90896" lon="9.5070333"><ele>473.0</ele><time>2026-05-02T08:36:01.991Z</time></trkpt><trkpt lat="44.9090567" lon="9.50694"><ele>473.5</ele><time>2026-05-02T08:36:02.99Z</time></trkpt><trkpt lat="44.9091483" lon="9.506845"><ele>474.0</ele><time>2026-05-02T08:36:03.989Z</time></trkpt><trkpt lat="44.90923" lon="9.5067483"><ele>472.3333333333333</ele><time>2026-05-02T08:36:04.989Z</time></trkpt><trkpt lat="44.9092967" lon="9.5066617"><ele>470.66666666666663</ele><time>2026-05-02T08:36:05.989Z</time></trkpt><trkpt lat="44.9093533" lon="9.506585"><ele>469.0</ele><time>2026-05-02T08:36:06.99Z</time></trkpt><trkpt lat="44.909395" lon="9.5065117"><ele>467.3333333333333</ele><time>2026-05-02T08:36:07.989Z</time></trkpt><trkpt lat="44.90941" lon="9.506365"><ele>465.66666666666663</ele><time>2026-05-02T08:36:10.071Z</time></trkpt><trkpt lat="44.9093433" lon="9.5062583"><ele>464.0</ele><time>2026-05-02T08:36:11.99Z</time></trkpt><trkpt lat="44.9092617" lon="9.506225"><ele>463.5</ele><time>2026-05-02T08:36:12.989Z</time></trkpt><trkpt lat="44.9091567" lon="9.5061817"><ele>463.0</ele><time>2026-05-02T08:36:13.989Z</time></trkpt><trkpt lat="44.9090483" lon="9.506125"><ele>462.5</ele><time>2026-05-02T08:36:14.99Z</time></trkpt><trkpt lat="44.9089417" lon="9.5060567"><ele>462.0</ele><time>2026-05-02T08:36:15.991Z</time></trkpt><trkpt lat="44.9088467" lon="9.505985"><ele>462.0</ele><time>2026-05-02T08:36:16.991Z</time></trkpt><trkpt lat="44.9087533" lon="9.505915"><ele>462.00000000000006</ele><time>2026-05-02T08:36:17.99Z</time></trkpt><trkpt lat="44.9086667" lon="9.50585"><ele>462.00000000000006</ele><time>2026-05-02T08:36:18.99Z</time></trkpt><trkpt lat="44.9085817" lon="9.5057867"><ele>462.0</ele><time>2026-05-02T08:36:19.989Z</time></trkpt><trkpt lat="44.9084917" lon="9.5057433"><ele>462.0</ele><time>2026-05-02T08:36:20.989Z</time></trkpt><trkpt lat="44.9083967" lon="9.5057133"><ele>461.0</ele><time>2026-05-02T08:36:21.989Z</time></trkpt><trkpt lat="44.9082983" lon="9.5056967"><ele>460.00000000000006</ele><time>2026-05-02T08:36:22.99Z</time></trkpt><trkpt lat="44.908195" lon="9.50568"><ele>459.00000000000006</ele><time>2026-05-02T08:36:23.989Z</time></trkpt><trkpt lat="44.9080883" lon="9.5056567"><ele>458.0</ele><time>2026-05-02T08:36:24.989Z</time></trkpt><trkpt lat="44.9079867" lon="9.50563"><ele>457.0</ele><time>2026-05-02T08:36:25.989Z</time></trkpt><trkpt lat="44.90789" lon="9.5055933"><ele>457.00000000000006</ele><time>2026-05-02T08:36:26.99Z</time></trkpt><trkpt lat="44.907805" lon="9.5055433"><ele>457.0</ele><time>2026-05-02T08:36:27.989Z</time></trkpt><trkpt lat="44.9077367" lon="9.5054767"><ele>457.0</ele><time>2026-05-02T08:36:28.99Z</time></trkpt><trkpt lat="44.9076783" lon="9.50539"><ele>457.0</ele><time>2026-05-02T08:36:29.989Z</time></trkpt><trkpt lat="44.9076233" lon="9.5052917"><ele>457.00000000000006</ele><time>2026-05-02T08:36:30.989Z</time></trkpt><trkpt lat="44.9075783" lon="9.50519"><ele>457.0</ele><time>2026-05-02T08:36:31.99Z</time></trkpt><trkpt lat="44.9075467" lon="9.5050867"><ele>453.8</ele><time>2026-05-02T08:36:32.989Z</time></trkpt><trkpt lat="44.9075283" lon="9.5049733"><ele>450.6</ele><time>2026-05-02T08:36:33.989Z</time></trkpt><trkpt lat="44.9075217" lon="9.504845"><ele>447.40000000000003</ele><time>2026-05-02T08:36:34.989Z</time></trkpt><trkpt lat="44.907525" lon="9.5047033"><ele>444.20000000000005</ele><time>2026-05-02T08:36:35.99Z</time></trkpt><trkpt lat="44.9075317" lon="9.50456"><ele>441.0</ele><time>2026-05-02T08:36:36.989Z</time></trkpt><trkpt lat="44.90755" lon="9.5044167"><ele>440.20000000000005</ele><time>2026-05-02T08:36:37.989Z</time></trkpt><trkpt lat="44.90757" lon="9.5042767"><ele>439.40000000000003</ele><time>2026-05-02T08:36:38.989Z</time></trkpt><trkpt lat="44.9075967" lon="9.5041467"><ele>438.6</ele><time>2026-05-02T08:36:39.989Z</time></trkpt><trkpt lat="44.9076217" lon="9.504025"><ele>437.8</ele><time>2026-05-02T08:36:40.989Z</time></trkpt><trkpt lat="44.90764" lon="9.5039"><ele>437.0</ele><time>2026-05-02T08:36:41.99Z</time></trkpt><trkpt lat="44.907655" lon="9.50378"><ele>436.40000000000003</ele><time>2026-05-02T08:36:42.989Z</time></trkpt><trkpt lat="44.9076633" lon="9.503655"><ele>435.80000000000007</ele><time>2026-05-02T08:36:43.989Z</time></trkpt><trkpt lat="44.90766" lon="9.5035267"><ele>435.2</ele><time>2026-05-02T08:36:44.99Z</time></trkpt><trkpt lat="44.907645" lon="9.5034033"><ele>434.6</ele><time>2026-05-02T08:36:45.989Z</time></trkpt><trkpt lat="44.9076183" lon="9.5032783"><ele>434.0</ele><time>2026-05-02T08:36:46.989Z</time></trkpt><trkpt lat="44.907575" lon="9.5031567"><ele>434.0</ele><time>2026-05-02T08:36:47.991Z</time></trkpt><trkpt lat="44.9075217" lon="9.50304"><ele>434.0</ele><time>2026-05-02T08:36:48.989Z</time></trkpt><trkpt lat="44.9074633" lon="9.5029233"><ele>434.0</ele><time>2026-05-02T08:36:49.99Z</time></trkpt><trkpt lat="44.9074017" lon="9.5028083"><ele>434.0</ele><time>2026-05-02T08:36:50.991Z</time></trkpt><trkpt lat="44.9073317" lon="9.5026883"><ele>434.0</ele><time>2026-05-02T08:36:51.989Z</time></trkpt><trkpt lat="44.9072467" lon="9.50257"><ele>433.5</ele><time>2026-05-02T08:36:52.989Z</time></trkpt><trkpt lat="44.9071467" lon="9.5024617"><ele>433.0</ele><time>2026-05-02T08:36:53.99Z</time></trkpt><trkpt lat="44.9070383" lon="9.50237"><ele>432.5</ele><time>2026-05-02T08:36:54.99Z</time></trkpt><trkpt lat="44.90693" lon="9.5022883"><ele>432.0</ele><time>2026-05-02T08:36:55.989Z</time></trkpt><trkpt lat="44.906825" lon="9.5022117"><ele>431.6</ele><time>2026-05-02T08:36:56.99Z</time></trkpt><trkpt lat="44.9067233" lon="9.502135"><ele>431.20000000000005</ele><time>2026-05-02T08:36:57.989Z</time></trkpt><trkpt lat="44.906625" lon="9.50207"><ele>430.8</ele><time>2026-05-02T08:36:58.99Z</time></trkpt><trkpt lat="44.9065267" lon="9.50202"><ele>430.4</ele><time>2026-05-02T08:36:59.989Z</time></trkpt><trkpt lat="44.9064267" lon="9.501965"><ele>430.0</ele><time>2026-05-02T08:37:00.989Z</time></trkpt><trkpt lat="44.90633" lon="9.5019067"><ele>429.4</ele><time>2026-05-02T08:37:01.989Z</time></trkpt><trkpt lat="44.9062417" lon="9.5018283"><ele>428.8</ele><time>2026-05-02T08:37:02.989Z</time></trkpt><trkpt lat="44.9061767" lon="9.501725"><ele>428.20000000000005</ele><time>2026-05-02T08:37:03.989Z</time></trkpt><trkpt lat="44.9061333" lon="9.5016017"><ele>427.6</ele><time>2026-05-02T08:37:04.99Z</time></trkpt><trkpt lat="44.90611" lon="9.50147"><ele>427.0</ele><time>2026-05-02T08:37:05.989Z</time></trkpt><trkpt lat="44.906095" lon="9.5013533"><ele>425.0</ele><time>2026-05-02T08:37:06.989Z</time></trkpt><trkpt lat="44.9060867" lon="9.5012483"><ele>423.00000000000006</ele><time>2026-05-02T08:37:07.99Z</time></trkpt><trkpt lat="44.9061033" lon="9.501105"><ele>421.0</ele><time>2026-05-02T08:37:09.99Z</time></trkpt><trkpt lat="44.9061183" lon="9.5009817"><ele>419.0</ele><time>2026-05-02T08:37:12.005Z</time></trkpt><trkpt lat="44.9061267" lon="9.5008133"><ele>417.0</ele><time>2026-05-02T08:37:13.99Z</time></trkpt><trkpt lat="44.9061233" lon="9.5006967"><ele>417.0</ele><time>2026-05-02T08:37:14.99Z</time></trkpt><trkpt lat="44.9061217" lon="9.5005683"><ele>417.0</ele><time>2026-05-02T08:37:15.99Z</time></trkpt><trkpt lat="44.90612" lon="9.5004267"><ele>417.0</ele><time>2026-05-02T08:37:16.99Z</time></trkpt><trkpt lat="44.9061233" lon="9.50028"><ele>417.0</ele><time>2026-05-02T08:37:17.99Z</time></trkpt><trkpt lat="44.9061267" lon="9.5001267"><ele>417.0</ele><time>2026-05-02T08:37:18.989Z</time></trkpt><trkpt lat="44.9061333" lon="9.499965"><ele>413.75</ele><time>2026-05-02T08:37:19.99Z</time></trkpt><trkpt lat="44.9061433" lon="9.4997967"><ele>410.5</ele><time>2026-05-02T08:37:20.99Z</time></trkpt><trkpt lat="44.9061567" lon="9.4996233"><ele>407.25</ele><time>2026-05-02T08:37:21.989Z</time></trkpt><trkpt lat="44.9061683" lon="9.4994583"><ele>404.0</ele><time>2026-05-02T08:37:22.989Z</time></trkpt><trkpt lat="44.9061817" lon="9.49931"><ele>402.2</ele><time>2026-05-02T08:37:23.991Z</time></trkpt><trkpt lat="44.9061933" lon="9.499165"><ele>400.4</ele><time>2026-05-02T08:37:24.989Z</time></trkpt><trkpt lat="44.9062067" lon="9.499025"><ele>398.6</ele><time>2026-05-02T08:37:25.989Z</time></trkpt><trkpt lat="44.9062133" lon="9.4988917"><ele>396.8</ele><time>2026-05-02T08:37:26.989Z</time></trkpt><trkpt lat="44.906215" lon="9.4987683"><ele>395.0</ele><time>2026-05-02T08:37:27.989Z</time></trkpt><trkpt lat="44.90622" lon="9.4986617"><ele>392.99999999999994</ele><time>2026-05-02T08:37:28.989Z</time></trkpt><trkpt lat="44.9062333" lon="9.4985633"><ele>391.0</ele><time>2026-05-02T08:37:29.99Z</time></trkpt><trkpt lat="44.9062583" lon="9.4984683"><ele>389.0</ele><time>2026-05-02T08:37:30.99Z</time></trkpt><trkpt lat="44.9062983" lon="9.4983767"><ele>387.0</ele><time>2026-05-02T08:37:31.99Z</time></trkpt><trkpt lat="44.906355" lon="9.4982817"><ele>385.0</ele><time>2026-05-02T08:37:32.989Z</time></trkpt><trkpt lat="44.9064183" lon="9.498175"><ele>383.0</ele><time>2026-05-02T08:37:33.989Z</time></trkpt><trkpt lat="44.90649" lon="9.4980533"><ele>383.0</ele><time>2026-05-02T08:37:34.989Z</time></trkpt><trkpt lat="44.9065667" lon="9.4979217"><ele>383.0</ele><time>2026-05-02T08:37:35.989Z</time></trkpt><trkpt lat="44.906645" lon="9.4977817"><ele>383.0</ele><time>2026-05-02T08:37:36.989Z</time></trkpt><trkpt lat="44.9067233" lon="9.4976483"><ele>383.0</ele><time>2026-05-02T08:37:37.989Z</time></trkpt><trkpt lat="44.9068" lon="9.4975233"><ele>382.75</ele><time>2026-05-02T08:37:38.989Z</time></trkpt><trkpt lat="44.90688" lon="9.4974183"><ele>382.5</ele><time>2026-05-02T08:37:39.989Z</time></trkpt><trkpt lat="44.90697" lon="9.49732"><ele>382.25</ele><time>2026-05-02T08:37:40.991Z</time></trkpt><trkpt lat="44.9070633" lon="9.4972283"><ele>382.0</ele><time>2026-05-02T08:37:41.989Z</time></trkpt><trkpt lat="44.907165" lon="9.4971383"><ele>380.5</ele><time>2026-05-02T08:37:42.991Z</time></trkpt><trkpt lat="44.9072667" lon="9.4970617"><ele>379.0</ele><time>2026-05-02T08:37:43.99Z</time></trkpt><trkpt lat="44.907375" lon="9.497"><ele>377.5</ele><time>2026-05-02T08:37:44.99Z</time></trkpt><trkpt lat="44.9074833" lon="9.4969483"><ele>376.0</ele><time>2026-05-02T08:37:45.99Z</time></trkpt><trkpt lat="44.9075983" lon="9.4968917"><ele>376.0</ele><time>2026-05-02T08:37:46.989Z</time></trkpt><trkpt lat="44.9077083" lon="9.4968267"><ele>376.0</ele><time>2026-05-02T08:37:47.99Z</time></trkpt><trkpt lat="44.9078083" lon="9.4967517"><ele>376.0</ele><time>2026-05-02T08:37:48.989Z</time></trkpt><trkpt lat="44.907905" lon="9.4966817"><ele>376.0</ele><time>2026-05-02T08:37:49.989Z</time></trkpt><trkpt lat="44.908" lon="9.4966217"><ele>376.0</ele><time>2026-05-02T08:37:50.991Z</time></trkpt><trkpt lat="44.9081017" lon="9.4965883"><ele>376.0</ele><time>2026-05-02T08:37:51.989Z</time></trkpt><trkpt lat="44.90821" lon="9.4965767"><ele>376.0</ele><time>2026-05-02T08:37:52.99Z</time></trkpt><trkpt lat="44.90833" lon="9.496575"><ele>376.0</ele><time>2026-05-02T08:37:53.989Z</time></trkpt><trkpt lat="44.9084483" lon="9.4965767"><ele>376.0</ele><time>2026-05-02T08:37:54.989Z</time></trkpt><trkpt lat="44.9085683" lon="9.4965783"><ele>376.0</ele><time>2026-05-02T08:37:55.989Z</time></trkpt><trkpt lat="44.9086783" lon="9.4965767"><ele>376.0</ele><time>2026-05-02T08:37:56.99Z</time></trkpt><trkpt lat="44.9087833" lon="9.496575"><ele>376.0</ele><time>2026-05-02T08:37:57.988Z</time></trkpt><trkpt lat="44.9088867" lon="9.49658"><ele>376.0</ele><time>2026-05-02T08:37:58.989Z</time></trkpt><trkpt lat="44.9089867" lon="9.4965883"><ele>376.0</ele><time>2026-05-02T08:37:59.989Z</time></trkpt><trkpt lat="44.9090783" lon="9.4966"><ele>376.0</ele><time>2026-05-02T08:38:00.989Z</time></trkpt><trkpt lat="44.9091667" lon="9.4966117"><ele>376.0</ele><time>2026-05-02T08:38:01.989Z</time></trkpt><trkpt lat="44.9092483" lon="9.49662"><ele>376.0</ele><time>2026-05-02T08:38:02.99Z</time></trkpt><trkpt lat="44.909325" lon="9.4966233"><ele>376.0</ele><time>2026-05-02T08:38:03.989Z</time></trkpt><trkpt lat="44.909405" lon="9.49662"><ele>376.0</ele><time>2026-05-02T08:38:04.99Z</time></trkpt><trkpt lat="44.9094867" lon="9.4966083"><ele>376.0</ele><time>2026-05-02T08:38:05.988Z</time></trkpt><trkpt lat="44.9095633" lon="9.496595"><ele>374.85714285714283</ele><time>2026-05-02T08:38:06.989Z</time></trkpt><trkpt lat="44.9096283" lon="9.4965817"><ele>373.71428571428567</ele><time>2026-05-02T08:38:07.99Z</time></trkpt><trkpt lat="44.9097217" lon="9.4965533"><ele>372.57142857142856</ele><time>2026-05-02T08:38:09.99Z</time></trkpt><trkpt lat="44.9097917" lon="9.4965367"><ele>371.42857142857144</ele><time>2026-05-02T08:38:12.992Z</time></trkpt><trkpt lat="44.9098617" lon="9.496575"><ele>370.2857142857143</ele><time>2026-05-02T08:38:15.989Z</time></trkpt><trkpt lat="44.9099233" lon="9.4965383"><ele>369.14285714285717</ele><time>2026-05-02T08:38:18.989Z</time></trkpt><trkpt lat="44.9099233" lon="9.4964367"><ele>368.0</ele><time>2026-05-02T08:38:20.989Z</time></trkpt><trkpt lat="44.90992" lon="9.4963133"><ele>366.79999999999995</ele><time>2026-05-02T08:38:22.989Z</time></trkpt><trkpt lat="44.9099217" lon="9.4961733"><ele>365.6</ele><time>2026-05-02T08:38:24.99Z</time></trkpt><trkpt lat="44.9099533" lon="9.4960183"><ele>364.4</ele><time>2026-05-02T08:38:26.989Z</time></trkpt><trkpt lat="44.91" lon="9.49584"><ele>363.20000000000005</ele><time>2026-05-02T08:38:28.99Z</time></trkpt><trkpt lat="44.9100167" lon="9.4957417"><ele>362.0</ele><time>2026-05-02T08:38:29.989Z</time></trkpt><trkpt lat="44.91003" lon="9.4956367"><ele>362.0</ele><time>2026-05-02T08:38:30.989Z</time></trkpt><trkpt lat="44.910035" lon="9.4955367"><ele>362.0</ele><time>2026-05-02T08:38:31.989Z</time></trkpt><trkpt lat="44.9100367" lon="9.4954383"><ele>362.0</ele><time>2026-05-02T08:38:32.989Z</time></trkpt><trkpt lat="44.9100317" lon="9.4952717"><ele>362.0</ele><time>2026-05-02T08:38:34.989Z</time></trkpt><trkpt lat="44.91008" lon="9.4951667"><ele>362.0</ele><time>2026-05-02T08:38:36.989Z</time></trkpt><trkpt lat="44.9101467" lon="9.495085"><ele>362.0</ele><time>2026-05-02T08:38:38.99Z</time></trkpt><trkpt lat="44.9102083" lon="9.4950067"><ele>357.0</ele><time>2026-05-02T08:38:40.989Z</time></trkpt><trkpt lat="44.910285" lon="9.4948883"><ele>352.0</ele><time>2026-05-02T08:38:42.992Z</time></trkpt><trkpt lat="44.9103533" lon="9.494755"><ele>347.0</ele><time>2026-05-02T08:38:44.99Z</time></trkpt><trkpt lat="44.910435" lon="9.4946267"><ele>342.0</ele><time>2026-05-02T08:38:46.989Z</time></trkpt><trkpt lat="44.9105217" lon="9.494515"><ele>342.0</ele><time>2026-05-02T08:38:48.989Z</time></trkpt><trkpt lat="44.9106067" lon="9.4944433"><ele>342.0</ele><time>2026-05-02T08:38:50.989Z</time></trkpt><trkpt lat="44.9106983" lon="9.4943767"><ele>342.0</ele><time>2026-05-02T08:38:52.989Z</time></trkpt><trkpt lat="44.9107833" lon="9.4942917"><ele>342.0</ele><time>2026-05-02T08:38:54.99Z</time></trkpt><trkpt lat="44.9108683" lon="9.4941883"><ele>342.0</ele><time>2026-05-02T08:38:56.99Z</time></trkpt><trkpt lat="44.9109217" lon="9.4941367"><ele>338.40000000000003</ele><time>2026-05-02T08:38:57.989Z</time></trkpt><trkpt lat="44.91102" lon="9.4940383"><ele>334.8</ele><time>2026-05-02T08:38:59.99Z</time></trkpt><trkpt lat="44.911115" lon="9.4939417"><ele>331.2</ele><time>2026-05-02T08:39:01.99Z</time></trkpt><trkpt lat="44.9112067" lon="9.4938233"><ele>327.6</ele><time>2026-05-02T08:39:03.989Z</time></trkpt><trkpt lat="44.91125" lon="9.4937583"><ele>324.0</ele><time>2026-05-02T08:39:04.994Z</time></trkpt><trkpt lat="44.9113367" lon="9.4936467"><ele>323.79999999999995</ele><time>2026-05-02T08:39:06.99Z</time></trkpt><trkpt lat="44.9114067" lon="9.4935067"><ele>323.59999999999997</ele><time>2026-05-02T08:39:08.99Z</time></trkpt><trkpt lat="44.9114233" lon="9.4934183"><ele>323.4</ele><time>2026-05-02T08:39:09.989Z</time></trkpt><trkpt lat="44.9114117" lon="9.493255"><ele>323.2</ele><time>2026-05-02T08:39:11.989Z</time></trkpt><trkpt lat="44.9113667" lon="9.49311"><ele>323.0</ele><time>2026-05-02T08:39:13.989Z</time></trkpt><trkpt lat="44.9113433" lon="9.49302"><ele>323.0</ele><time>2026-05-02T08:39:14.991Z</time></trkpt><trkpt lat="44.9113183" lon="9.4929267"><ele>323.0</ele><time>2026-05-02T08:39:15.988Z</time></trkpt><trkpt lat="44.91129" lon="9.492835"><ele>323.0</ele><time>2026-05-02T08:39:16.989Z</time></trkpt><trkpt lat="44.9112717" lon="9.4926883"><ele>323.0</ele><time>2026-05-02T08:39:18.989Z</time></trkpt><trkpt lat="44.9112933" lon="9.492545"><ele>323.0</ele><time>2026-05-02T08:39:20.989Z</time></trkpt><trkpt lat="44.9113283" lon="9.4924"><ele>319.5</ele><time>2026-05-02T08:39:22.99Z</time></trkpt><trkpt lat="44.9113617" lon="9.4922417"><ele>316.0</ele><time>2026-05-02T08:39:24.989Z</time></trkpt><trkpt lat="44.91139" lon="9.4920917"><ele>312.5</ele><time>2026-05-02T08:39:26.99Z</time></trkpt><trkpt lat="44.911395" lon="9.4919267"><ele>309.0</ele><time>2026-05-02T08:39:28.989Z</time></trkpt><trkpt lat="44.9114" lon="9.4917617"><ele>307.4</ele><time>2026-05-02T08:39:30.989Z</time></trkpt><trkpt lat="44.9114283" lon="9.4915933"><ele>305.79999999999995</ele><time>2026-05-02T08:39:32.991Z</time></trkpt><trkpt lat="44.9114433" lon="9.49149"><ele>304.20000000000005</ele><time>2026-05-02T08:39:33.989Z</time></trkpt><trkpt lat="44.91146" lon="9.4913733"><ele>302.6</ele><time>2026-05-02T08:39:34.99Z</time></trkpt><trkpt lat="44.9114767" lon="9.4912483"><ele>301.0</ele><time>2026-05-02T08:39:35.99Z</time></trkpt><trkpt lat="44.9114933" lon="9.4911167"><ele>299.5</ele><time>2026-05-02T08:39:36.989Z</time></trkpt><trkpt lat="44.911515" lon="9.4909917"><ele>298.0</ele><time>2026-05-02T08:39:37.989Z</time></trkpt><trkpt lat="44.9115417" lon="9.4908733"><ele>296.5</ele><time>2026-05-02T08:39:38.989Z</time></trkpt><trkpt lat="44.9115717" lon="9.490765"><ele>295.0</ele><time>2026-05-02T08:39:39.989Z</time></trkpt><trkpt lat="44.9116083" lon="9.4906633"><ele>293.5</ele><time>2026-05-02T08:39:40.992Z</time></trkpt><trkpt lat="44.9116533" lon="9.4905667"><ele>292.0</ele><time>2026-05-02T08:39:41.989Z</time></trkpt><trkpt lat="44.9117067" lon="9.4904833"><ele>289.0</ele><time>2026-05-02T08:39:42.989Z</time></trkpt><trkpt lat="44.9117583" lon="9.4904067"><ele>286.0</ele><time>2026-05-02T08:39:43.989Z</time></trkpt><trkpt lat="44.911805" lon="9.4903217"><ele>283.0</ele><time>2026-05-02T08:39:44.99Z</time></trkpt><trkpt lat="44.9118317" lon="9.49023"><ele>280.0</ele><time>2026-05-02T08:39:45.99Z</time></trkpt><trkpt lat="44.91184" lon="9.4901283"><ele>277.0</ele><time>2026-05-02T08:39:46.99Z</time></trkpt><trkpt lat="44.91182" lon="9.4900283"><ele>274.0</ele><time>2026-05-02T08:39:47.989Z</time></trkpt><trkpt lat="44.9117867" lon="9.4899167"><ele>274.0</ele><time>2026-05-02T08:39:48.988Z</time></trkpt><trkpt lat="44.9117617" lon="9.4898033"><ele>274.0</ele><time>2026-05-02T08:39:49.989Z</time></trkpt><trkpt lat="44.9117583" lon="9.489695"><ele>274.0</ele><time>2026-05-02T08:39:50.989Z</time></trkpt><trkpt lat="44.9117733" lon="9.48959"><ele>274.0</ele><time>2026-05-02T08:39:51.99Z</time></trkpt><trkpt lat="44.9118033" lon="9.4894917"><ele>274.0</ele><time>2026-05-02T08:39:52.99Z</time></trkpt><trkpt lat="44.9118383" lon="9.489395"><ele>274.0</ele><time>2026-05-02T08:39:53.99Z</time></trkpt><trkpt lat="44.9118733" lon="9.4892933"><ele>272.66666666666663</ele><time>2026-05-02T08:39:54.989Z</time></trkpt><trkpt lat="44.9119017" lon="9.489185"><ele>271.3333333333333</ele><time>2026-05-02T08:39:55.993Z</time></trkpt><trkpt lat="44.9119133" lon="9.4890733"><ele>270.0</ele><time>2026-05-02T08:39:56.99Z</time></trkpt><trkpt lat="44.9119133" lon="9.4889567"><ele>268.6666666666667</ele><time>2026-05-02T08:39:57.989Z</time></trkpt><trkpt lat="44.9119033" lon="9.4888383"><ele>267.33333333333337</ele><time>2026-05-02T08:39:58.99Z</time></trkpt><trkpt lat="44.911885" lon="9.4887217"><ele>266.0</ele><time>2026-05-02T08:39:59.99Z</time></trkpt><trkpt lat="44.911865" lon="9.4886"><ele>264.40000000000003</ele><time>2026-05-02T08:40:00.989Z</time></trkpt><trkpt lat="44.91185" lon="9.4884767"><ele>262.8</ele><time>2026-05-02T08:40:01.99Z</time></trkpt><trkpt lat="44.9118333" lon="9.4883483"><ele>261.20000000000005</ele><time>2026-05-02T08:40:02.989Z</time></trkpt><trkpt lat="44.9118267" lon="9.4882117"><ele>259.6</ele><time>2026-05-02T08:40:03.989Z</time></trkpt><trkpt lat="44.9118217" lon="9.4880733"><ele>258.0</ele><time>2026-05-02T08:40:04.989Z</time></trkpt><trkpt lat="44.9118133" lon="9.48793"><ele>256.0</ele><time>2026-05-02T08:40:05.99Z</time></trkpt><trkpt lat="44.9118067" lon="9.4877883"><ele>254.0</ele><time>2026-05-02T08:40:06.989Z</time></trkpt><trkpt lat="44.9118" lon="9.4876533"><ele>252.0</ele><time>2026-05-02T08:40:07.989Z</time></trkpt><trkpt lat="44.9117967" lon="9.4875217"><ele>250.0</ele><time>2026-05-02T08:40:08.989Z</time></trkpt><trkpt lat="44.9117933" lon="9.4873917"><ele>248.0</ele><time>2026-05-02T08:40:09.989Z</time></trkpt><trkpt lat="44.9117917" lon="9.4872667"><ele>248.00000000000003</ele><time>2026-05-02T08:40:10.991Z</time></trkpt><trkpt lat="44.9117983" lon="9.4871483"><ele>248.0</ele><time>2026-05-02T08:40:11.989Z</time></trkpt><trkpt lat="44.91182" lon="9.4870383"><ele>248.0</ele><time>2026-05-02T08:40:12.989Z</time></trkpt><trkpt lat="44.9118633" lon="9.4869417"><ele>248.0</ele><time>2026-05-02T08:40:13.989Z</time></trkpt><trkpt lat="44.9119183" lon="9.4868567"><ele>248.00000000000003</ele><time>2026-05-02T08:40:14.989Z</time></trkpt><trkpt lat="44.911985" lon="9.4867817"><ele>248.0</ele><time>2026-05-02T08:40:15.989Z</time></trkpt><trkpt lat="44.9120617" lon="9.4867033"><ele>247.0</ele><time>2026-05-02T08:40:16.989Z</time></trkpt><trkpt lat="44.9121383" lon="9.4866217"><ele>246.0</ele><time>2026-05-02T08:40:17.989Z</time></trkpt><trkpt lat="44.9122133" lon="9.4865383"><ele>245.0</ele><time>2026-05-02T08:40:18.99Z</time></trkpt><trkpt lat="44.9122867" lon="9.4864517"><ele>244.0</ele><time>2026-05-02T08:40:19.99Z</time></trkpt><trkpt lat="44.9123533" lon="9.4863733"><ele>243.0</ele><time>2026-05-02T08:40:20.99Z</time></trkpt><trkpt lat="44.9124117" lon="9.4862983"><ele>243.0</ele><time>2026-05-02T08:40:21.99Z</time></trkpt><trkpt lat="44.912465" lon="9.486215"><ele>243.0</ele><time>2026-05-02T08:40:22.99Z</time></trkpt><trkpt lat="44.91249" lon="9.4861333"><ele>243.0</ele><time>2026-05-02T08:40:23.99Z</time></trkpt><trkpt lat="44.912485" lon="9.4859633"><ele>243.0</ele><time>2026-05-02T08:40:25.99Z</time></trkpt><trkpt lat="44.9124617" lon="9.4858767"><ele>243.0</ele><time>2026-05-02T08:40:26.99Z</time></trkpt><trkpt lat="44.912435" lon="9.4857883"><ele>243.0</ele><time>2026-05-02T08:40:27.991Z</time></trkpt><trkpt lat="44.9123883" lon="9.4856283"><ele>243.0</ele><time>2026-05-02T08:40:29.989Z</time></trkpt><trkpt lat="44.9123533" lon="9.48555"><ele>243.0</ele><time>2026-05-02T08:40:30.989Z</time></trkpt><trkpt lat="44.9123033" lon="9.4854733"><ele>243.0</ele><time>2026-05-02T08:40:31.99Z</time></trkpt><trkpt lat="44.9122467" lon="9.485405"><ele>243.0</ele><time>2026-05-02T08:40:32.99Z</time></trkpt><trkpt lat="44.912195" lon="9.4853533"><ele>243.0</ele><time>2026-05-02T08:40:33.989Z</time></trkpt><trkpt lat="44.91213" lon="9.4852767"><ele>243.0</ele><time>2026-05-02T08:40:35.99Z</time></trkpt><trkpt lat="44.9122267" lon="9.4851833"><ele>243.5</ele><time>2026-05-02T08:40:38.99Z</time></trkpt><trkpt lat="44.91231" lon="9.48515"><ele>244.0</ele><time>2026-05-02T08:40:39.99Z</time></trkpt><trkpt lat="44.912395" lon="9.4851233"><ele>244.5</ele><time>2026-05-02T08:40:40.99Z</time></trkpt><trkpt lat="44.912485" lon="9.48511"><ele>245.0</ele><time>2026-05-02T08:40:41.989Z</time></trkpt><trkpt lat="44.9125733" lon="9.485115"><ele>245.5</ele><time>2026-05-02T08:40:42.99Z</time></trkpt><trkpt lat="44.9126617" lon="9.485135"><ele>246.0</ele><time>2026-05-02T08:40:43.99Z</time></trkpt><trkpt lat="44.912745" lon="9.4851567"><ele>246.66666666666666</ele><time>2026-05-02T08:40:44.99Z</time></trkpt><trkpt lat="44.912825" lon="9.4851683"><ele>247.33333333333331</ele><time>2026-05-02T08:40:45.989Z</time></trkpt><trkpt lat="44.9129117" lon="9.4851733"><ele>248.0</ele><time>2026-05-02T08:40:46.99Z</time></trkpt><trkpt lat="44.9129983" lon="9.48517"><ele>248.66666666666666</ele><time>2026-05-02T08:40:47.989Z</time></trkpt><trkpt lat="44.9130833" lon="9.485165"><ele>249.33333333333331</ele><time>2026-05-02T08:40:48.991Z</time></trkpt><trkpt lat="44.913165" lon="9.4851583"><ele>250.0</ele><time>2026-05-02T08:40:49.99Z</time></trkpt><trkpt lat="44.913245" lon="9.485155"><ele>249.99999999999997</ele><time>2026-05-02T08:40:50.99Z</time></trkpt><trkpt lat="44.9133167" lon="9.48515"><ele>250.0</ele><time>2026-05-02T08:40:51.99Z</time></trkpt><trkpt lat="44.9133867" lon="9.4851483"><ele>250.0</ele><time>2026-05-02T08:40:52.989Z</time></trkpt><trkpt lat="44.9134517" lon="9.4851533"><ele>250.0</ele><time>2026-05-02T08:40:53.99Z</time></trkpt><trkpt lat="44.9135517" lon="9.485125"><ele>249.99999999999997</ele><time>2026-05-02T08:40:55.99Z</time></trkpt><trkpt lat="44.9135383" lon="9.4850167"><ele>250.0</ele><time>2026-05-02T08:40:58.99Z</time></trkpt><trkpt lat="44.9134367" lon="9.48499"><ele>249.99999999999997</ele><time>2026-05-02T08:41:00.989Z</time></trkpt><trkpt lat="44.9133683" lon="9.4849783"><ele>250.0</ele><time>2026-05-02T08:41:01.989Z</time></trkpt><trkpt lat="44.9132817" lon="9.4849617"><ele>250.0</ele><time>2026-05-02T08:41:02.99Z</time></trkpt><trkpt lat="44.9132" lon="9.48494"><ele>250.0</ele><time>2026-05-02T08:41:03.989Z</time></trkpt><trkpt lat="44.9131167" lon="9.4848983"><ele>249.99999999999997</ele><time>2026-05-02T08:41:04.989Z</time></trkpt><trkpt lat="44.91304" lon="9.48484"><ele>250.0</ele><time>2026-05-02T08:41:05.989Z</time></trkpt><trkpt lat="44.9129667" lon="9.48477"><ele>250.0</ele><time>2026-05-02T08:41:06.989Z</time></trkpt><trkpt lat="44.9128883" lon="9.4846917"><ele>250.0</ele><time>2026-05-02T08:41:07.989Z</time></trkpt><trkpt lat="44.9128017" lon="9.4846167"><ele>250.0</ele><time>2026-05-02T08:41:08.992Z</time></trkpt><trkpt lat="44.9127117" lon="9.4845417"><ele>250.0</ele><time>2026-05-02T08:41:09.989Z</time></trkpt><trkpt lat="44.91262" lon="9.4844567"><ele>250.0</ele><time>2026-05-02T08:41:10.99Z</time></trkpt><trkpt lat="44.9125283" lon="9.4843567"><ele>251.5</ele><time>2026-05-02T08:41:11.989Z</time></trkpt><trkpt lat="44.912445" lon="9.48424"><ele>253.0</ele><time>2026-05-02T08:41:12.989Z</time></trkpt><trkpt lat="44.9123767" lon="9.484105"><ele>254.5</ele><time>2026-05-02T08:41:13.989Z</time></trkpt><trkpt lat="44.91231" lon="9.483955"><ele>256.0</ele><time>2026-05-02T08:41:14.989Z</time></trkpt><trkpt lat="44.9122467" lon="9.4838033"><ele>259.75</ele><time>2026-05-02T08:41:15.989Z</time></trkpt><trkpt lat="44.9121933" lon="9.4836617"><ele>263.5</ele><time>2026-05-02T08:41:16.989Z</time></trkpt><trkpt lat="44.912155" lon="9.4835183"><ele>267.25</ele><time>2026-05-02T08:41:17.989Z</time></trkpt><trkpt lat="44.912125" lon="9.4833583"><ele>271.0</ele><time>2026-05-02T08:41:18.991Z</time></trkpt><trkpt lat="44.912105" lon="9.4831867"><ele>271.0</ele><time>2026-05-02T08:41:19.99Z</time></trkpt><trkpt lat="44.9120883" lon="9.4830183"><ele>271.0</ele><time>2026-05-02T08:41:20.991Z</time></trkpt><trkpt lat="44.9120683" lon="9.4828583"><ele>271.0</ele><time>2026-05-02T08:41:21.99Z</time></trkpt><trkpt lat="44.9120333" lon="9.482705"><ele>271.0</ele><time>2026-05-02T08:41:22.991Z</time></trkpt><trkpt lat="44.91199" lon="9.4825433"><ele>273.75</ele><time>2026-05-02T08:41:23.991Z</time></trkpt><trkpt lat="44.9119467" lon="9.4823817"><ele>276.5</ele><time>2026-05-02T08:41:24.99Z</time></trkpt><trkpt lat="44.9119133" lon="9.482215"><ele>279.25</ele><time>2026-05-02T08:41:25.989Z</time></trkpt><trkpt lat="44.9118917" lon="9.48204"><ele>282.0</ele><time>2026-05-02T08:41:26.991Z</time></trkpt><trkpt lat="44.9118817" lon="9.4818583"><ele>282.75</ele><time>2026-05-02T08:41:27.989Z</time></trkpt><trkpt lat="44.9118767" lon="9.4816783"><ele>283.5</ele><time>2026-05-02T08:41:28.989Z</time></trkpt><trkpt lat="44.911875" lon="9.4815083"><ele>284.25</ele><time>2026-05-02T08:41:29.99Z</time></trkpt><trkpt lat="44.91187" lon="9.4813417"><ele>285.0</ele><time>2026-05-02T08:41:30.989Z</time></trkpt><trkpt lat="44.911855" lon="9.4811817"><ele>285.6</ele><time>2026-05-02T08:41:31.99Z</time></trkpt><trkpt lat="44.9118417" lon="9.4810383"><ele>286.2</ele><time>2026-05-02T08:41:32.99Z</time></trkpt><trkpt lat="44.9118367" lon="9.4809033"><ele>286.8</ele><time>2026-05-02T08:41:33.99Z</time></trkpt><trkpt lat="44.911855" lon="9.480775"><ele>287.4</ele><time>2026-05-02T08:41:34.991Z</time></trkpt><trkpt lat="44.9118883" lon="9.480645"><ele>288.0</ele><time>2026-05-02T08:41:35.99Z</time></trkpt><trkpt lat="44.9119317" lon="9.4805083"><ele>288.0</ele><time>2026-05-02T08:41:36.99Z</time></trkpt><trkpt lat="44.9119733" lon="9.4803633"><ele>288.0</ele><time>2026-05-02T08:41:37.99Z</time></trkpt><trkpt lat="44.912005" lon="9.48021"><ele>288.0</ele><time>2026-05-02T08:41:38.99Z</time></trkpt><trkpt lat="44.9120167" lon="9.480055"><ele>288.0</ele><time>2026-05-02T08:41:39.989Z</time></trkpt><trkpt lat="44.9120117" lon="9.4798967"><ele>288.0</ele><time>2026-05-02T08:41:40.989Z</time></trkpt><trkpt lat="44.9119983" lon="9.47974"><ele>288.0</ele><time>2026-05-02T08:41:41.989Z</time></trkpt><trkpt lat="44.9119883" lon="9.4795717"><ele>288.0</ele><time>2026-05-02T08:41:42.989Z</time></trkpt><trkpt lat="44.911995" lon="9.479405"><ele>288.0</ele><time>2026-05-02T08:41:43.99Z</time></trkpt><trkpt lat="44.9120033" lon="9.4792433"><ele>288.0</ele><time>2026-05-02T08:41:44.99Z</time></trkpt><trkpt lat="44.9120033" lon="9.4790817"><ele>288.0</ele><time>2026-05-02T08:41:45.99Z</time></trkpt><trkpt lat="44.9119867" lon="9.47892"><ele>288.0</ele><time>2026-05-02T08:41:46.99Z</time></trkpt><trkpt lat="44.91197" lon="9.478755"><ele>288.0</ele><time>2026-05-02T08:41:47.99Z</time></trkpt><trkpt lat="44.9119583" lon="9.4785833"><ele>288.0</ele><time>2026-05-02T08:41:48.989Z</time></trkpt><trkpt lat="44.91195" lon="9.4784017"><ele>288.75</ele><time>2026-05-02T08:41:49.99Z</time></trkpt><trkpt lat="44.91194" lon="9.4782167"><ele>289.5</ele><time>2026-05-02T08:41:50.992Z</time></trkpt><trkpt lat="44.911915" lon="9.478045"><ele>290.25</ele><time>2026-05-02T08:41:51.989Z</time></trkpt><trkpt lat="44.9118783" lon="9.477885"><ele>291.0</ele><time>2026-05-02T08:41:52.989Z</time></trkpt><trkpt lat="44.91184" lon="9.4777217"><ele>291.5</ele><time>2026-05-02T08:41:53.99Z</time></trkpt><trkpt lat="44.9118033" lon="9.47756"><ele>292.0</ele><time>2026-05-02T08:41:54.99Z</time></trkpt><trkpt lat="44.911765" lon="9.4774017"><ele>292.5</ele><time>2026-05-02T08:41:55.989Z</time></trkpt><trkpt lat="44.9117267" lon="9.4772533"><ele>293.0</ele><time>2026-05-02T08:41:56.99Z</time></trkpt><trkpt lat="44.911685" lon="9.4771033"><ele>289.5</ele><time>2026-05-02T08:41:57.989Z</time></trkpt><trkpt lat="44.911645" lon="9.476945"><ele>286.0</ele><time>2026-05-02T08:41:58.99Z</time></trkpt><trkpt lat="44.91161" lon="9.476775"><ele>282.5</ele><time>2026-05-02T08:41:59.991Z</time></trkpt><trkpt lat="44.9115783" lon="9.476605"><ele>279.0</ele><time>2026-05-02T08:42:00.99Z</time></trkpt><trkpt lat="44.9115417" lon="9.4764417"><ele>279.0</ele><time>2026-05-02T08:42:01.99Z</time></trkpt><trkpt lat="44.9114983" lon="9.4762883"><ele>279.0</ele><time>2026-05-02T08:42:02.99Z</time></trkpt><trkpt lat="44.9114583" lon="9.476135"><ele>279.0</ele><time>2026-05-02T08:42:03.99Z</time></trkpt><trkpt lat="44.9114317" lon="9.4759817"><ele>279.0</ele><time>2026-05-02T08:42:04.989Z</time></trkpt><trkpt lat="44.9114217" lon="9.4758267"><ele>279.8</ele><time>2026-05-02T08:42:05.991Z</time></trkpt><trkpt lat="44.9114167" lon="9.475665"><ele>280.59999999999997</ele><time>2026-05-02T08:42:06.99Z</time></trkpt><trkpt lat="44.9114033" lon="9.475505"><ele>281.4</ele><time>2026-05-02T08:42:07.99Z</time></trkpt><trkpt lat="44.91138" lon="9.4753517"><ele>282.2</ele><time>2026-05-02T08:42:08.991Z</time></trkpt><trkpt lat="44.9113417" lon="9.4752083"><ele>283.0</ele><time>2026-05-02T08:42:09.989Z</time></trkpt><trkpt lat="44.9112967" lon="9.475075"><ele>284.0</ele><time>2026-05-02T08:42:10.99Z</time></trkpt><trkpt lat="44.911245" lon="9.4749417"><ele>285.0</ele><time>2026-05-02T08:42:11.99Z</time></trkpt><trkpt lat="44.911195" lon="9.4747983"><ele>286.0</ele><time>2026-05-02T08:42:12.989Z</time></trkpt><trkpt lat="44.911145" lon="9.4746383"><ele>287.0</ele><time>2026-05-02T08:42:13.989Z</time></trkpt><trkpt lat="44.9111033" lon="9.47446"><ele>288.5</ele><time>2026-05-02T08:42:14.99Z</time></trkpt><trkpt lat="44.91107" lon="9.4742717"><ele>290.0</ele><time>2026-05-02T08:42:15.99Z</time></trkpt><trkpt lat="44.9110467" lon="9.4740867"><ele>291.5</ele><time>2026-05-02T08:42:16.99Z</time></trkpt><trkpt lat="44.9110333" lon="9.473915"><ele>293.0</ele><time>2026-05-02T08:42:17.989Z</time></trkpt><trkpt lat="44.911025" lon="9.473755"><ele>293.0</ele><time>2026-05-02T08:42:18.989Z</time></trkpt><trkpt lat="44.9110283" lon="9.4735933"><ele>293.0</ele><time>2026-05-02T08:42:19.989Z</time></trkpt><trkpt lat="44.9110367" lon="9.473435"><ele>293.0</ele><time>2026-05-02T08:42:20.989Z</time></trkpt><trkpt lat="44.9110483" lon="9.4732817"><ele>293.0</ele><time>2026-05-02T08:42:21.989Z</time></trkpt><trkpt lat="44.9110683" lon="9.4731317"><ele>293.0</ele><time>2026-05-02T08:42:22.99Z</time></trkpt><trkpt lat="44.9110933" lon="9.4729867"><ele>291.0</ele><time>2026-05-02T08:42:23.99Z</time></trkpt><trkpt lat="44.91112" lon="9.472845"><ele>289.0</ele><time>2026-05-02T08:42:24.99Z</time></trkpt><trkpt lat="44.9111467" lon="9.472705"><ele>287.0</ele><time>2026-05-02T08:42:25.994Z</time></trkpt><trkpt lat="44.9111733" lon="9.472565"><ele>285.0</ele><time>2026-05-02T08:42:26.99Z</time></trkpt><trkpt lat="44.9111933" lon="9.47242"><ele>283.0</ele><time>2026-05-02T08:42:27.989Z</time></trkpt><trkpt lat="44.9111967" lon="9.472265"><ele>283.0</ele><time>2026-05-02T08:42:28.99Z</time></trkpt><trkpt lat="44.9111717" lon="9.4721117"><ele>283.0</ele><time>2026-05-02T08:42:29.99Z</time></trkpt><trkpt lat="44.9111233" lon="9.471975"><ele>283.0</ele><time>2026-05-02T08:42:30.989Z</time></trkpt><trkpt lat="44.9110633" lon="9.4718567"><ele>283.0</ele><time>2026-05-02T08:42:31.989Z</time></trkpt><trkpt lat="44.9109967" lon="9.4717533"><ele>283.0</ele><time>2026-05-02T08:42:32.99Z</time></trkpt><trkpt lat="44.9109217" lon="9.4716617"><ele>282.2</ele><time>2026-05-02T08:42:33.989Z</time></trkpt><trkpt lat="44.9108383" lon="9.4715883"><ele>281.4</ele><time>2026-05-02T08:42:34.989Z</time></trkpt><trkpt lat="44.9107567" lon="9.47152"><ele>280.59999999999997</ele><time>2026-05-02T08:42:35.989Z</time></trkpt><trkpt lat="44.9106733" lon="9.47146"><ele>279.8</ele><time>2026-05-02T08:42:36.99Z</time></trkpt><trkpt lat="44.91059" lon="9.4713917"><ele>279.0</ele><time>2026-05-02T08:42:37.989Z</time></trkpt><trkpt lat="44.9105033" lon="9.4713233"><ele>279.8</ele><time>2026-05-02T08:42:38.99Z</time></trkpt><trkpt lat="44.91042" lon="9.471245"><ele>280.59999999999997</ele><time>2026-05-02T08:42:39.989Z</time></trkpt><trkpt lat="44.9103333" lon="9.4711567"><ele>281.4</ele><time>2026-05-02T08:42:40.99Z</time></trkpt><trkpt lat="44.9102617" lon="9.471045"><ele>282.2</ele><time>2026-05-02T08:42:41.99Z</time></trkpt><trkpt lat="44.9101917" lon="9.47091"><ele>283.0</ele><time>2026-05-02T08:42:42.989Z</time></trkpt><trkpt lat="44.910125" lon="9.470775"><ele>282.75</ele><time>2026-05-02T08:42:43.989Z</time></trkpt><trkpt lat="44.910065" lon="9.4706383"><ele>282.5</ele><time>2026-05-02T08:42:44.99Z</time></trkpt><trkpt lat="44.9100067" lon="9.470495"><ele>282.25</ele><time>2026-05-02T08:42:45.989Z</time></trkpt><trkpt lat="44.9099467" lon="9.47036"><ele>282.0</ele><time>2026-05-02T08:42:46.989Z</time></trkpt><trkpt lat="44.9098883" lon="9.4702233"><ele>283.6</ele><time>2026-05-02T08:42:47.989Z</time></trkpt><trkpt lat="44.90983" lon="9.4700867"><ele>285.2</ele><time>2026-05-02T08:42:48.99Z</time></trkpt><trkpt lat="44.9097717" lon="9.4699567"><ele>286.8</ele><time>2026-05-02T08:42:49.989Z</time></trkpt><trkpt lat="44.909715" lon="9.469825"><ele>288.4</ele><time>2026-05-02T08:42:50.991Z</time></trkpt><trkpt lat="44.9096567" lon="9.469695"><ele>290.0</ele><time>2026-05-02T08:42:51.991Z</time></trkpt><trkpt lat="44.9095967" lon="9.469565"><ele>290.8</ele><time>2026-05-02T08:42:52.991Z</time></trkpt><trkpt lat="44.9095417" lon="9.4694383"><ele>291.6</ele><time>2026-05-02T08:42:53.989Z</time></trkpt><trkpt lat="44.90949" lon="9.46931"><ele>292.4</ele><time>2026-05-02T08:42:54.989Z</time></trkpt><trkpt lat="44.909435" lon="9.46918"><ele>293.2</ele><time>2026-05-02T08:42:55.99Z</time></trkpt><trkpt lat="44.9093833" lon="9.4690567"><ele>294.0</ele><time>2026-05-02T08:42:56.991Z</time></trkpt><trkpt lat="44.9093317" lon="9.4689433"><ele>294.0</ele><time>2026-05-02T08:42:57.99Z</time></trkpt><trkpt lat="44.909275" lon="9.4688433"><ele>294.0</ele><time>2026-05-02T08:42:58.989Z</time></trkpt><trkpt lat="44.9092067" lon="9.46876"><ele>294.0</ele><time>2026-05-02T08:42:59.99Z</time></trkpt><trkpt lat="44.9091267" lon="9.4686933"><ele>294.0</ele><time>2026-05-02T08:43:00.99Z</time></trkpt><trkpt lat="44.909035" lon="9.4686483"><ele>294.0</ele><time>2026-05-02T08:43:01.989Z</time></trkpt><trkpt lat="44.9089333" lon="9.4686017"><ele>294.25</ele><time>2026-05-02T08:43:02.989Z</time></trkpt><trkpt lat="44.9088283" lon="9.46855"><ele>294.5</ele><time>2026-05-02T08:43:03.989Z</time></trkpt><trkpt lat="44.90872" lon="9.46848"><ele>294.75</ele><time>2026-05-02T08:43:04.99Z</time></trkpt><trkpt lat="44.9086117" lon="9.4683933"><ele>295.0</ele><time>2026-05-02T08:43:05.99Z</time></trkpt><trkpt lat="44.9085017" lon="9.46829"><ele>294.0</ele><time>2026-05-02T08:43:06.989Z</time></trkpt><trkpt lat="44.908395" lon="9.4681817"><ele>293.0</ele><time>2026-05-02T08:43:07.99Z</time></trkpt><trkpt lat="44.9082933" lon="9.4680767"><ele>292.0</ele><time>2026-05-02T08:43:08.99Z</time></trkpt><trkpt lat="44.9082033" lon="9.467975"><ele>291.0</ele><time>2026-05-02T08:43:09.99Z</time></trkpt><trkpt lat="44.90813" lon="9.4678717"><ele>293.2</ele><time>2026-05-02T08:43:10.99Z</time></trkpt><trkpt lat="44.9080633" lon="9.467755"><ele>295.40000000000003</ele><time>2026-05-02T08:43:11.99Z</time></trkpt><trkpt lat="44.9080033" lon="9.4676267"><ele>297.6</ele><time>2026-05-02T08:43:12.99Z</time></trkpt><trkpt lat="44.907955" lon="9.467485"><ele>299.8</ele><time>2026-05-02T08:43:13.989Z</time></trkpt><trkpt lat="44.9079183" lon="9.4673283"><ele>302.0</ele><time>2026-05-02T08:43:14.99Z</time></trkpt><trkpt lat="44.9078933" lon="9.467165"><ele>302.6</ele><time>2026-05-02T08:43:15.989Z</time></trkpt><trkpt lat="44.9078817" lon="9.4670017"><ele>303.2</ele><time>2026-05-02T08:43:16.99Z</time></trkpt><trkpt lat="44.9078767" lon="9.466845"><ele>303.8</ele><time>2026-05-02T08:43:17.99Z</time></trkpt><trkpt lat="44.9078733" lon="9.46671"><ele>304.4</ele><time>2026-05-02T08:43:18.991Z</time></trkpt><trkpt lat="44.9078617" lon="9.4666033"><ele>305.0</ele><time>2026-05-02T08:43:19.989Z</time></trkpt><trkpt lat="44.907845" lon="9.4665"><ele>305.0</ele><time>2026-05-02T08:43:20.991Z</time></trkpt><trkpt lat="44.9078117" lon="9.4664"><ele>305.0</ele><time>2026-05-02T08:43:21.989Z</time></trkpt><trkpt lat="44.9077733" lon="9.4663067"><ele>305.0</ele><time>2026-05-02T08:43:22.989Z</time></trkpt><trkpt lat="44.90766" lon="9.4662283"><ele>305.0</ele><time>2026-05-02T08:43:24.989Z</time></trkpt><trkpt lat="44.9075683" lon="9.4662583"><ele>305.0</ele><time>2026-05-02T08:43:25.99Z</time></trkpt><trkpt lat="44.9074683" lon="9.46628"><ele>304.8</ele><time>2026-05-02T08:43:26.99Z</time></trkpt><trkpt lat="44.9073717" lon="9.4662733"><ele>304.6</ele><time>2026-05-02T08:43:27.989Z</time></trkpt><trkpt lat="44.9072867" lon="9.4662483"><ele>304.4</ele><time>2026-05-02T08:43:28.991Z</time></trkpt><trkpt lat="44.9071983" lon="9.4662083"><ele>304.2</ele><time>2026-05-02T08:43:29.989Z</time></trkpt><trkpt lat="44.9071117" lon="9.4661683"><ele>304.0</ele><time>2026-05-02T08:43:30.989Z</time></trkpt><trkpt lat="44.9070217" lon="9.4661317"><ele>304.0</ele><time>2026-05-02T08:43:31.989Z</time></trkpt><trkpt lat="44.9069283" lon="9.4660883"><ele>304.0</ele><time>2026-05-02T08:43:32.99Z</time></trkpt><trkpt lat="44.9068417" lon="9.4660417"><ele>304.0</ele><time>2026-05-02T08:43:33.989Z</time></trkpt><trkpt lat="44.9067583" lon="9.4659967"><ele>304.0</ele><time>2026-05-02T08:43:34.989Z</time></trkpt><trkpt lat="44.906675" lon="9.4659383"><ele>304.0</ele><time>2026-05-02T08:43:35.989Z</time></trkpt><trkpt lat="44.9066017" lon="9.4658617"><ele>303.66666666666663</ele><time>2026-05-02T08:43:36.989Z</time></trkpt><trkpt lat="44.9065417" lon="9.4657683"><ele>303.3333333333333</ele><time>2026-05-02T08:43:37.991Z</time></trkpt><trkpt lat="44.9064883" lon="9.4656717"><ele>303.0</ele><time>2026-05-02T08:43:38.989Z</time></trkpt><trkpt lat="44.90644" lon="9.46558"><ele>302.6666666666667</ele><time>2026-05-02T08:43:39.989Z</time></trkpt><trkpt lat="44.906395" lon="9.4654983"><ele>302.33333333333337</ele><time>2026-05-02T08:43:40.99Z</time></trkpt><trkpt lat="44.90634" lon="9.4654283"><ele>302.0</ele><time>2026-05-02T08:43:41.989Z</time></trkpt><trkpt lat="44.9062783" lon="9.4653867"><ele>302.0</ele><time>2026-05-02T08:43:42.99Z</time></trkpt><trkpt lat="44.906205" lon="9.4653683"><ele>302.0</ele><time>2026-05-02T08:43:43.992Z</time></trkpt><trkpt lat="44.90613" lon="9.465365"><ele>302.0</ele><time>2026-05-02T08:43:44.992Z</time></trkpt><trkpt lat="44.906055" lon="9.4653717"><ele>302.0</ele><time>2026-05-02T08:43:45.991Z</time></trkpt><trkpt lat="44.9059417" lon="9.465375"><ele>302.0</ele><time>2026-05-02T08:43:47.991Z</time></trkpt><trkpt lat="44.9058383" lon="9.4654067"><ele>302.0</ele><time>2026-05-02T08:43:49.991Z</time></trkpt><trkpt lat="44.9057783" lon="9.4654367"><ele>301.6</ele><time>2026-05-02T08:43:50.991Z</time></trkpt><trkpt lat="44.90567" lon="9.4654917"><ele>301.2</ele><time>2026-05-02T08:43:52.991Z</time></trkpt><trkpt lat="44.90555" lon="9.465475"><ele>300.8</ele><time>2026-05-02T08:43:54.99Z</time></trkpt><trkpt lat="44.90548" lon="9.4654417"><ele>300.4</ele><time>2026-05-02T08:43:55.989Z</time></trkpt><trkpt lat="44.90541" lon="9.4654033"><ele>300.0</ele><time>2026-05-02T08:43:56.991Z</time></trkpt><trkpt lat="44.9053483" lon="9.465355"><ele>300.0</ele><time>2026-05-02T08:43:57.989Z</time></trkpt><trkpt lat="44.905265" lon="9.46524"><ele>300.0</ele><time>2026-05-02T08:43:59.989Z</time></trkpt><trkpt lat="44.9052367" lon="9.4651"><ele>300.0</ele><time>2026-05-02T08:44:01.99Z</time></trkpt><trkpt lat="44.9052033" lon="9.4649383"><ele>300.0</ele><time>2026-05-02T08:44:03.99Z</time></trkpt><trkpt lat="44.905135" lon="9.4647733"><ele>300.4</ele><time>2026-05-02T08:44:05.989Z</time></trkpt><trkpt lat="44.905075" lon="9.4646783"><ele>300.8</ele><time>2026-05-02T08:44:06.99Z</time></trkpt><trkpt lat="44.90501" lon="9.4645833"><ele>301.2</ele><time>2026-05-02T08:44:07.989Z</time></trkpt><trkpt lat="44.9049417" lon="9.4644967"><ele>301.6</ele><time>2026-05-02T08:44:08.989Z</time></trkpt><trkpt lat="44.904885" lon="9.4644217"><ele>302.0</ele><time>2026-05-02T08:44:09.991Z</time></trkpt><trkpt lat="44.9047917" lon="9.4643033"><ele>302.2</ele><time>2026-05-02T08:44:11.99Z</time></trkpt><trkpt lat="44.90472" lon="9.464155"><ele>302.4</ele><time>2026-05-02T08:44:13.989Z</time></trkpt><trkpt lat="44.9046967" lon="9.4640683"><ele>302.6</ele><time>2026-05-02T08:44:14.991Z</time></trkpt><trkpt lat="44.904665" lon="9.463925"><ele>302.8</ele><time>2026-05-02T08:44:16.99Z</time></trkpt><trkpt lat="44.9046517" lon="9.4637967"><ele>303.0</ele><time>2026-05-02T08:44:18.989Z</time></trkpt><trkpt lat="44.9046517" lon="9.4636567"><ele>304.1666666666667</ele><time>2026-05-02T08:44:20.991Z</time></trkpt><trkpt lat="44.90465" lon="9.4635617"><ele>305.3333333333333</ele><time>2026-05-02T08:44:21.99Z</time></trkpt><trkpt lat="44.9046533" lon="9.4634617"><ele>306.5</ele><time>2026-05-02T08:44:22.99Z</time></trkpt><trkpt lat="44.90466" lon="9.4633333"><ele>307.66666666666663</ele><time>2026-05-02T08:44:23.989Z</time></trkpt><trkpt lat="44.9046517" lon="9.463195"><ele>308.8333333333333</ele><time>2026-05-02T08:44:24.989Z</time></trkpt><trkpt lat="44.9046383" lon="9.4630267"><ele>310.0</ele><time>2026-05-02T08:44:25.99Z</time></trkpt><trkpt lat="44.90462" lon="9.4628633"><ele>311.6</ele><time>2026-05-02T08:44:26.991Z</time></trkpt><trkpt lat="44.9046033" lon="9.462705"><ele>313.2</ele><time>2026-05-02T08:44:27.989Z</time></trkpt><trkpt lat="44.9045967" lon="9.4625533"><ele>314.8</ele><time>2026-05-02T08:44:28.991Z</time></trkpt><trkpt lat="44.9045883" lon="9.4624067"><ele>316.4</ele><time>2026-05-02T08:44:29.992Z</time></trkpt><trkpt lat="44.9045683" lon="9.4622683"><ele>318.0</ele><time>2026-05-02T08:44:30.99Z</time></trkpt><trkpt lat="44.90453" lon="9.46212"><ele>322.8</ele><time>2026-05-02T08:44:31.99Z</time></trkpt><trkpt lat="44.9044883" lon="9.46199"><ele>327.6</ele><time>2026-05-02T08:44:32.99Z</time></trkpt><trkpt lat="44.9044367" lon="9.4618667"><ele>332.40000000000003</ele><time>2026-05-02T08:44:33.989Z</time></trkpt><trkpt lat="44.90439" lon="9.46174"><ele>337.20000000000005</ele><time>2026-05-02T08:44:34.99Z</time></trkpt><trkpt lat="44.90436" lon="9.46162"><ele>342.0</ele><time>2026-05-02T08:44:35.989Z</time></trkpt><trkpt lat="44.90435" lon="9.4614933"><ele>342.0</ele><time>2026-05-02T08:44:36.992Z</time></trkpt><trkpt lat="44.9043467" lon="9.4613667"><ele>342.0</ele><time>2026-05-02T08:44:37.989Z</time></trkpt><trkpt lat="44.9043383" lon="9.4612633"><ele>342.0</ele><time>2026-05-02T08:44:38.99Z</time></trkpt><trkpt lat="44.904315" lon="9.4611317"><ele>342.0</ele><time>2026-05-02T08:44:40.99Z</time></trkpt><trkpt lat="44.9042833" lon="9.4610117"><ele>342.0</ele><time>2026-05-02T08:44:42.99Z</time></trkpt><trkpt lat="44.9042567" lon="9.460905"><ele>342.0</ele><time>2026-05-02T08:44:44.99Z</time></trkpt><trkpt lat="44.9042317" lon="9.4607733"><ele>339.8333333333333</ele><time>2026-05-02T08:44:46.991Z</time></trkpt><trkpt lat="44.9042183" lon="9.46068"><ele>337.6666666666667</ele><time>2026-05-02T08:44:47.989Z</time></trkpt><trkpt lat="44.904205" lon="9.4605783"><ele>335.5</ele><time>2026-05-02T08:44:48.989Z</time></trkpt><trkpt lat="44.9041817" lon="9.46048"><ele>333.33333333333337</ele><time>2026-05-02T08:44:49.989Z</time></trkpt><trkpt lat="44.9041433" lon="9.460395"><ele>331.1666666666667</ele><time>2026-05-02T08:44:50.99Z</time></trkpt><trkpt lat="44.9040817" lon="9.4602967"><ele>329.0</ele><time>2026-05-02T08:44:51.99Z</time></trkpt><trkpt lat="44.9039917" lon="9.4601817"><ele>329.0</ele><time>2026-05-02T08:44:52.989Z</time></trkpt><trkpt lat="44.9039083" lon="9.46008"><ele>329.0</ele><time>2026-05-02T08:44:53.989Z</time></trkpt><trkpt lat="44.9038333" lon="9.45998"><ele>329.0</ele><time>2026-05-02T08:44:54.99Z</time></trkpt><trkpt lat="44.9037667" lon="9.4598933"><ele>329.0</ele><time>2026-05-02T08:44:55.99Z</time></trkpt><trkpt lat="44.9036967" lon="9.4598133"><ele>329.0</ele><time>2026-05-02T08:44:56.99Z</time></trkpt><trkpt lat="44.9036133" lon="9.4597517"><ele>329.0</ele><time>2026-05-02T08:44:57.99Z</time></trkpt><trkpt lat="44.9035183" lon="9.459715"><ele>329.0</ele><time>2026-05-02T08:44:58.99Z</time></trkpt><trkpt lat="44.90344" lon="9.4596767"><ele>329.0</ele><time>2026-05-02T08:44:59.99Z</time></trkpt><trkpt lat="44.9033717" lon="9.4596433"><ele>329.0</ele><time>2026-05-02T08:45:00.989Z</time></trkpt><trkpt lat="44.90331" lon="9.4596067"><ele>329.0</ele><time>2026-05-02T08:45:01.99Z</time></trkpt><trkpt lat="44.9031967" lon="9.4595367"><ele>329.0</ele><time>2026-05-02T08:45:03.989Z</time></trkpt><trkpt lat="44.9031367" lon="9.4595033"><ele>330.33333333333337</ele><time>2026-05-02T08:45:04.989Z</time></trkpt><trkpt lat="44.90306" lon="9.4594367"><ele>331.6666666666667</ele><time>2026-05-02T08:45:05.991Z</time></trkpt><trkpt lat="44.9029867" lon="9.4593783"><ele>333.0</ele><time>2026-05-02T08:45:06.99Z</time></trkpt><trkpt lat="44.9029133" lon="9.4593333"><ele>334.3333333333333</ele><time>2026-05-02T08:45:07.99Z</time></trkpt><trkpt lat="44.9028517" lon="9.4592883"><ele>335.66666666666663</ele><time>2026-05-02T08:45:08.99Z</time></trkpt><trkpt lat="44.90274" lon="9.4592533"><ele>337.0</ele><time>2026-05-02T08:45:10.991Z</time></trkpt><trkpt lat="44.9026717" lon="9.4592367"><ele>337.0</ele><time>2026-05-02T08:45:11.99Z</time></trkpt><trkpt lat="44.9026067" lon="9.459215"><ele>337.0</ele><time>2026-05-02T08:45:12.99Z</time></trkpt><trkpt lat="44.9024817" lon="9.4591517"><ele>337.0</ele><time>2026-05-02T08:45:14.991Z</time></trkpt><trkpt lat="44.9024233" lon="9.459105"><ele>337.0</ele><time>2026-05-02T08:45:15.99Z</time></trkpt><trkpt lat="44.90236" lon="9.45906"><ele>337.0</ele><time>2026-05-02T08:45:16.99Z</time></trkpt><trkpt lat="44.902305" lon="9.4590167"><ele>337.0</ele><time>2026-05-02T08:45:17.99Z</time></trkpt><trkpt lat="44.9022433" lon="9.4589767"><ele>336.66666666666663</ele><time>2026-05-02T08:45:18.991Z</time></trkpt><trkpt lat="44.9021583" lon="9.4589133"><ele>336.3333333333333</ele><time>2026-05-02T08:45:19.99Z</time></trkpt><trkpt lat="44.9020833" lon="9.45885"><ele>336.0</ele><time>2026-05-02T08:45:20.99Z</time></trkpt><trkpt lat="44.9020183" lon="9.458805"><ele>335.6666666666667</ele><time>2026-05-02T08:45:21.99Z</time></trkpt><trkpt lat="44.9019533" lon="9.4587367"><ele>335.33333333333337</ele><time>2026-05-02T08:45:23.99Z</time></trkpt><trkpt lat="44.9019117" lon="9.45866"><ele>335.0</ele><time>2026-05-02T08:47:41.99Z</time></trkpt><trkpt lat="44.901825" lon="9.4586083"><ele>334.8</ele><time>2026-05-02T08:47:43.99Z</time></trkpt><trkpt lat="44.9017167" lon="9.4585383"><ele>334.6</ele><time>2026-05-02T08:47:45.99Z</time></trkpt><trkpt lat="44.90163" lon="9.4585033"><ele>334.4</ele><time>2026-05-02T08:47:47.99Z</time></trkpt><trkpt lat="44.9015083" lon="9.4584467"><ele>334.2</ele><time>2026-05-02T08:47:56.989Z</time></trkpt><trkpt lat="44.9014317" lon="9.4583867"><ele>334.0</ele><time>2026-05-02T08:47:58.99Z</time></trkpt><trkpt lat="44.901375" lon="9.4582983"><ele>334.0</ele><time>2026-05-02T08:48:00.991Z</time></trkpt><trkpt lat="44.901315" lon="9.4582217"><ele>334.0</ele><time>2026-05-02T08:48:02.99Z</time></trkpt><trkpt lat="44.90125" lon="9.4581633"><ele>334.0</ele><time>2026-05-02T08:48:04.99Z</time></trkpt><trkpt lat="44.9013267" lon="9.458155"><ele>334.0</ele><time>2026-05-02T08:48:19.99Z</time></trkpt><trkpt lat="44.9013883" lon="9.458245"><ele>334.0</ele><time>2026-05-02T08:48:22.989Z</time></trkpt><trkpt lat="44.901455" lon="9.4583033"><ele>334.0</ele><time>2026-05-02T08:48:25.99Z</time></trkpt><trkpt lat="44.9016" lon="9.4583583"><ele>334.0</ele><time>2026-05-02T08:48:44.989Z</time></trkpt><trkpt lat="44.9017433" lon="9.4584417"><ele>334.0</ele><time>2026-05-02T08:50:22.989Z</time></trkpt><trkpt lat="44.9018767" lon="9.45856"><ele>334.0</ele><time>2026-05-02T08:50:24.989Z</time></trkpt><trkpt lat="44.9019583" lon="9.45863"><ele>334.0</ele><time>2026-05-02T08:50:25.99Z</time></trkpt><trkpt lat="44.902025" lon="9.4586883"><ele>334.2</ele><time>2026-05-02T08:50:26.991Z</time></trkpt><trkpt lat="44.9020867" lon="9.4587367"><ele>334.4</ele><time>2026-05-02T08:50:27.989Z</time></trkpt><trkpt lat="44.902205" lon="9.4588433"><ele>334.6</ele><time>2026-05-02T08:50:29.989Z</time></trkpt><trkpt lat="44.9022683" lon="9.45889"><ele>334.8</ele><time>2026-05-02T08:50:30.989Z</time></trkpt><trkpt lat="44.90235" lon="9.45896"><ele>335.0</ele><time>2026-05-02T08:50:32.99Z</time></trkpt><trkpt lat="44.9024017" lon="9.45903"><ele>335.0</ele><time>2026-05-02T08:50:34.989Z</time></trkpt><trkpt lat="44.9024767" lon="9.4590817"><ele>335.0</ele><time>2026-05-02T08:50:37.989Z</time></trkpt><trkpt lat="44.9023783" lon="9.4590167"><ele>335.0</ele><time>2026-05-02T08:51:24.99Z</time></trkpt><trkpt lat="44.9022733" lon="9.4589567"><ele>335.0</ele><time>2026-05-02T08:51:26.99Z</time></trkpt><trkpt lat="44.902205" lon="9.45891"><ele>335.0</ele><time>2026-05-02T08:51:27.99Z</time></trkpt><trkpt lat="44.9021433" lon="9.4588683"><ele>335.0</ele><time>2026-05-02T08:51:28.989Z</time></trkpt><trkpt lat="44.9020767" lon="9.4588217"><ele>335.0</ele><time>2026-05-02T08:51:29.99Z</time></trkpt><trkpt lat="44.9020133" lon="9.4587733"><ele>335.0</ele><time>2026-05-02T08:51:30.99Z</time></trkpt><trkpt lat="44.9019417" lon="9.4587033"><ele>335.0</ele><time>2026-05-02T08:51:31.99Z</time></trkpt><trkpt lat="44.9018717" lon="9.4586183"><ele>335.0</ele><time>2026-05-02T08:51:32.99Z</time></trkpt><trkpt lat="44.9018" lon="9.45854"><ele>335.0</ele><time>2026-05-02T08:51:33.989Z</time></trkpt><trkpt lat="44.901735" lon="9.4584883"><ele>334.8</ele><time>2026-05-02T08:51:34.989Z</time></trkpt><trkpt lat="44.9016467" lon="9.4584217"><ele>334.6</ele><time>2026-05-02T08:51:36.99Z</time></trkpt><trkpt lat="44.9015817" lon="9.4584"><ele>334.4</ele><time>2026-05-02T08:51:46.991Z</time></trkpt><trkpt lat="44.9014767" lon="9.458335"><ele>334.2</ele><time>2026-05-02T08:53:34.988Z</time></trkpt><trkpt lat="44.9014083" lon="9.45825"><ele>334.0</ele><time>2026-05-02T08:53:36.989Z</time></trkpt><trkpt lat="44.9013033" lon="9.458145"><ele>334.0</ele><time>2026-05-02T08:53:38.989Z</time></trkpt><trkpt lat="44.90124" lon="9.45809"><ele>334.0</ele><time>2026-05-02T08:53:39.989Z</time></trkpt><trkpt lat="44.9011633" lon="9.4579917"><ele>334.0</ele><time>2026-05-02T08:53:41.988Z</time></trkpt><trkpt lat="44.9011183" lon="9.4579133"><ele>334.0</ele><time>2026-05-02T08:53:43.99Z</time></trkpt><trkpt lat="44.90109" lon="9.4577833"><ele>334.0</ele><time>2026-05-02T08:53:45.989Z</time></trkpt><trkpt lat="44.90105" lon="9.4576583"><ele>334.0</ele><time>2026-05-02T08:53:47.99Z</time></trkpt><trkpt lat="44.9009817" lon="9.45755"><ele>335.5</ele><time>2026-05-02T08:53:49.989Z</time></trkpt><trkpt lat="44.900885" lon="9.45743"><ele>337.0</ele><time>2026-05-02T08:53:51.99Z</time></trkpt><trkpt lat="44.9008233" lon="9.457365"><ele>338.5</ele><time>2026-05-02T08:53:52.99Z</time></trkpt><trkpt lat="44.900765" lon="9.4572967"><ele>340.0</ele><time>2026-05-02T08:53:53.99Z</time></trkpt><trkpt lat="44.90071" lon="9.457215"><ele>341.5</ele><time>2026-05-02T08:53:54.99Z</time></trkpt><trkpt lat="44.9006583" lon="9.45713"><ele>343.0</ele><time>2026-05-02T08:53:55.989Z</time></trkpt><trkpt lat="44.90062" lon="9.457055"><ele>343.8333333333333</ele><time>2026-05-02T08:53:56.991Z</time></trkpt><trkpt lat="44.900575" lon="9.456965"><ele>344.66666666666663</ele><time>2026-05-02T08:53:57.99Z</time></trkpt><trkpt lat="44.90053" lon="9.4568817"><ele>345.5</ele><time>2026-05-02T08:53:58.99Z</time></trkpt><trkpt lat="44.900475" lon="9.4567783"><ele>346.3333333333333</ele><time>2026-05-02T08:54:00.989Z</time></trkpt><trkpt lat="44.900505" lon="9.456665"><ele>347.1666666666667</ele><time>2026-05-02T08:54:14.989Z</time></trkpt><trkpt lat="44.9005583" lon="9.4566017"><ele>348.0</ele><time>2026-05-02T08:54:15.989Z</time></trkpt><trkpt lat="44.900615" lon="9.4565517"><ele>348.0</ele><time>2026-05-02T08:54:16.99Z</time></trkpt><trkpt lat="44.9006767" lon="9.4565"><ele>348.0</ele><time>2026-05-02T08:54:17.989Z</time></trkpt><trkpt lat="44.90074" lon="9.4564567"><ele>348.0</ele><time>2026-05-02T08:54:18.989Z</time></trkpt><trkpt lat="44.9008217" lon="9.456395"><ele>348.0</ele><time>2026-05-02T08:54:19.992Z</time></trkpt><trkpt lat="44.900905" lon="9.4563233"><ele>348.0</ele><time>2026-05-02T08:54:20.989Z</time></trkpt><trkpt lat="44.9009883" lon="9.456245"><ele>348.0</ele><time>2026-05-02T08:54:21.989Z</time></trkpt><trkpt lat="44.90107" lon="9.456165"><ele>353.0</ele><time>2026-05-02T08:54:22.988Z</time></trkpt><trkpt lat="44.901145" lon="9.4560883"><ele>358.0</ele><time>2026-05-02T08:54:23.991Z</time></trkpt><trkpt lat="44.9012183" lon="9.4559917"><ele>363.0</ele><time>2026-05-02T08:54:24.989Z</time></trkpt><trkpt lat="44.9012817" lon="9.455885"><ele>368.0</ele><time>2026-05-02T08:54:25.99Z</time></trkpt><trkpt lat="44.90132" lon="9.455775"><ele>373.0</ele><time>2026-05-02T08:54:26.99Z</time></trkpt><trkpt lat="44.9013617" lon="9.4556717"><ele>373.0</ele><time>2026-05-02T08:54:27.989Z</time></trkpt><trkpt lat="44.9013917" lon="9.455535"><ele>373.0</ele><time>2026-05-02T08:54:28.989Z</time></trkpt><trkpt lat="44.9014117" lon="9.4553633"><ele>373.0</ele><time>2026-05-02T08:54:29.989Z</time></trkpt><trkpt lat="44.9014217" lon="9.4552117"><ele>373.0</ele><time>2026-05-02T08:54:30.992Z</time></trkpt><trkpt lat="44.901455" lon="9.4550833"><ele>373.0</ele><time>2026-05-02T08:54:31.988Z</time></trkpt><trkpt lat="44.90149" lon="9.45497"><ele>376.2</ele><time>2026-05-02T08:54:32.99Z</time></trkpt><trkpt lat="44.90152" lon="9.454865"><ele>379.4</ele><time>2026-05-02T08:54:33.989Z</time></trkpt><trkpt lat="44.901555" lon="9.4547433"><ele>382.59999999999997</ele><time>2026-05-02T08:54:34.99Z</time></trkpt><trkpt lat="44.9015767" lon="9.4546083"><ele>385.79999999999995</ele><time>2026-05-02T08:54:35.989Z</time></trkpt><trkpt lat="44.9016017" lon="9.4544767"><ele>389.0</ele><time>2026-05-02T08:54:36.989Z</time></trkpt><trkpt lat="44.9016217" lon="9.4543483"><ele>391.16666666666663</ele><time>2026-05-02T08:54:37.989Z</time></trkpt><trkpt lat="44.9016317" lon="9.45424"><ele>393.3333333333333</ele><time>2026-05-02T08:54:38.99Z</time></trkpt><trkpt lat="44.90162" lon="9.4541233"><ele>395.5</ele><time>2026-05-02T08:54:39.988Z</time></trkpt><trkpt lat="44.9015983" lon="9.4539983"><ele>397.66666666666663</ele><time>2026-05-02T08:54:40.989Z</time></trkpt><trkpt lat="44.9015683" lon="9.4538817"><ele>399.8333333333333</ele><time>2026-05-02T08:54:41.989Z</time></trkpt><trkpt lat="44.9015317" lon="9.4537833"><ele>402.0</ele><time>2026-05-02T08:54:42.989Z</time></trkpt><trkpt lat="44.9014767" lon="9.4536917"><ele>405.8</ele><time>2026-05-02T08:54:43.989Z</time></trkpt><trkpt lat="44.9014333" lon="9.453605"><ele>409.6</ele><time>2026-05-02T08:54:44.989Z</time></trkpt><trkpt lat="44.901395" lon="9.4535267"><ele>413.40000000000003</ele><time>2026-05-02T08:54:45.989Z</time></trkpt><trkpt lat="44.9013203" lon="9.4533749"><ele>417.20000000000005</ele><time>2026-05-02T08:54:47.989Z</time></trkpt><trkpt lat="44.9012924" lon="9.4532936"><ele>421.0</ele><time>2026-05-02T08:54:48.989Z</time></trkpt><trkpt lat="44.9012433" lon="9.4531435"><ele>421.00000000000006</ele><time>2026-05-02T08:54:50.989Z</time></trkpt><trkpt lat="44.9012089" lon="9.4530591"><ele>421.0</ele><time>2026-05-02T08:54:51.989Z</time></trkpt><trkpt lat="44.9011726" lon="9.4529589"><ele>421.0</ele><time>2026-05-02T08:54:52.988Z</time></trkpt><trkpt lat="44.9011447" lon="9.4528476"><ele>421.0</ele><time>2026-05-02T08:54:53.988Z</time></trkpt><trkpt lat="44.9011154" lon="9.4527317"><ele>421.00000000000006</ele><time>2026-05-02T08:54:54.99Z</time></trkpt><trkpt lat="44.9010958" lon="9.4526249"><ele>421.0</ele><time>2026-05-02T08:54:55.991Z</time></trkpt><trkpt lat="44.901072" lon="9.4524777"><ele>423.83333333333337</ele><time>2026-05-02T08:54:57.99Z</time></trkpt><trkpt lat="44.9010564" lon="9.4523593"><ele>426.6666666666667</ele><time>2026-05-02T08:54:59.988Z</time></trkpt><trkpt lat="44.901035" lon="9.4522576"><ele>429.5</ele><time>2026-05-02T08:55:01.99Z</time></trkpt><trkpt lat="44.9009626" lon="9.4521969"><ele>432.33333333333337</ele><time>2026-05-02T08:55:04.988Z</time></trkpt><trkpt lat="44.9008696" lon="9.4521823"><ele>435.1666666666667</ele><time>2026-05-02T08:55:14.989Z</time></trkpt><trkpt lat="44.9008058" lon="9.4521528"><ele>438.0</ele><time>2026-05-02T08:55:17.989Z</time></trkpt><trkpt lat="44.9007575" lon="9.4520184"><ele>441.4</ele><time>2026-05-02T08:55:32.989Z</time></trkpt><trkpt lat="44.9007702" lon="9.451839"><ele>444.79999999999995</ele><time>2026-05-02T08:55:34.989Z</time></trkpt><trkpt lat="44.9007804" lon="9.451734"><ele>448.2</ele><time>2026-05-02T08:55:35.989Z</time></trkpt><trkpt lat="44.9007962" lon="9.4516357"><ele>451.6</ele><time>2026-05-02T08:55:36.989Z</time></trkpt><trkpt lat="44.9008375" lon="9.4515063"><ele>455.0</ele><time>2026-05-02T08:55:38.991Z</time></trkpt><trkpt lat="44.9009113" lon="9.4514388"><ele>454.4</ele><time>2026-05-02T08:55:40.989Z</time></trkpt><trkpt lat="44.9009748" lon="9.4514092"><ele>453.8</ele><time>2026-05-02T08:55:41.989Z</time></trkpt><trkpt lat="44.9010377" lon="9.4513795"><ele>453.20000000000005</ele><time>2026-05-02T08:55:42.99Z</time></trkpt><trkpt lat="44.9011367" lon="9.4513067"><ele>452.6</ele><time>2026-05-02T08:55:44.99Z</time></trkpt><trkpt lat="44.9012083" lon="9.4511933"><ele>452.0</ele><time>2026-05-02T08:55:46.99Z</time></trkpt><trkpt lat="44.9012717" lon="9.4510617"><ele>454.6</ele><time>2026-05-02T08:55:48.989Z</time></trkpt><trkpt lat="44.90132" lon="9.45089"><ele>457.20000000000005</ele><time>2026-05-02T08:55:50.989Z</time></trkpt><trkpt lat="44.9013467" lon="9.4507883"><ele>459.8</ele><time>2026-05-02T08:55:51.989Z</time></trkpt><trkpt lat="44.9013583" lon="9.450675"><ele>462.4</ele><time>2026-05-02T08:55:52.99Z</time></trkpt><trkpt lat="44.9013633" lon="9.4505617"><ele>465.0</ele><time>2026-05-02T08:55:53.989Z</time></trkpt><trkpt lat="44.9013567" lon="9.45044"><ele>466.8</ele><time>2026-05-02T08:55:54.989Z</time></trkpt><trkpt lat="44.901345" lon="9.4503133"><ele>468.6</ele><time>2026-05-02T08:55:55.989Z</time></trkpt><trkpt lat="44.901325" lon="9.4501583"><ele>470.4</ele><time>2026-05-02T08:55:56.99Z</time></trkpt><trkpt lat="44.9013167" lon="9.449995"><ele>472.2</ele><time>2026-05-02T08:55:57.989Z</time></trkpt><trkpt lat="44.9013017" lon="9.44983"><ele>474.0</ele><time>2026-05-02T08:55:58.989Z</time></trkpt><trkpt lat="44.90129" lon="9.4496733"><ele>475.6666666666667</ele><time>2026-05-02T08:55:59.988Z</time></trkpt><trkpt lat="44.901285" lon="9.4495533"><ele>477.33333333333337</ele><time>2026-05-02T08:56:00.989Z</time></trkpt><trkpt lat="44.9012767" lon="9.4494517"><ele>479.0</ele><time>2026-05-02T08:56:02.989Z</time></trkpt><trkpt lat="44.9012133" lon="9.449445"><ele>480.6666666666667</ele><time>2026-05-02T08:56:05.992Z</time></trkpt><trkpt lat="44.901125" lon="9.4494283"><ele>482.33333333333337</ele><time>2026-05-02T08:56:28.99Z</time></trkpt><trkpt lat="44.9010333" lon="9.44943"><ele>484.0</ele><time>2026-05-02T08:56:29.99Z</time></trkpt><trkpt lat="44.9009383" lon="9.4494317"><ele>483.79999999999995</ele><time>2026-05-02T08:56:30.989Z</time></trkpt><trkpt lat="44.9008333" lon="9.4494367"><ele>483.59999999999997</ele><time>2026-05-02T08:56:31.988Z</time></trkpt><trkpt lat="44.9007267" lon="9.44944"><ele>483.4</ele><time>2026-05-02T08:56:32.989Z</time></trkpt><trkpt lat="44.90062" lon="9.4494467"><ele>483.2</ele><time>2026-05-02T08:56:33.989Z</time></trkpt><trkpt lat="44.900515" lon="9.44946"><ele>483.0</ele><time>2026-05-02T08:56:34.991Z</time></trkpt><trkpt lat="44.9004083" lon="9.44949"><ele>483.0</ele><time>2026-05-02T08:56:35.988Z</time></trkpt><trkpt lat="44.9002983" lon="9.44953"><ele>483.0</ele><time>2026-05-02T08:56:36.989Z</time></trkpt><trkpt lat="44.9001867" lon="9.449575"><ele>483.0</ele><time>2026-05-02T08:56:37.989Z</time></trkpt><trkpt lat="44.9000783" lon="9.449615"><ele>483.0</ele><time>2026-05-02T08:56:38.989Z</time></trkpt><trkpt lat="44.8999717" lon="9.449655"><ele>478.0</ele><time>2026-05-02T08:56:39.989Z</time></trkpt><trkpt lat="44.899865" lon="9.4496883"><ele>472.99999999999994</ele><time>2026-05-02T08:56:40.99Z</time></trkpt><trkpt lat="44.89976" lon="9.4497067"><ele>467.99999999999994</ele><time>2026-05-02T08:56:41.989Z</time></trkpt><trkpt lat="44.8996617" lon="9.4497067"><ele>463.0</ele><time>2026-05-02T08:56:42.989Z</time></trkpt><trkpt lat="44.8995833" lon="9.44969"><ele>458.0</ele><time>2026-05-02T08:56:43.99Z</time></trkpt><trkpt lat="44.8995133" lon="9.4496483"><ele>460.0</ele><time>2026-05-02T08:56:44.992Z</time></trkpt><trkpt lat="44.899455" lon="9.4495917"><ele>461.99999999999994</ele><time>2026-05-02T08:56:45.989Z</time></trkpt><trkpt lat="44.8994183" lon="9.4495"><ele>463.99999999999994</ele><time>2026-05-02T08:56:46.989Z</time></trkpt><trkpt lat="44.8994217" lon="9.449335"><ele>466.0</ele><time>2026-05-02T08:56:47.989Z</time></trkpt><trkpt lat="44.8994333" lon="9.449165"><ele>468.0</ele><time>2026-05-02T08:56:48.989Z</time></trkpt><trkpt lat="44.8994483" lon="9.4489983"><ele>468.0</ele><time>2026-05-02T08:56:49.989Z</time></trkpt><trkpt lat="44.8994567" lon="9.448845"><ele>467.99999999999994</ele><time>2026-05-02T08:56:50.989Z</time></trkpt><trkpt lat="44.8994417" lon="9.448705"><ele>467.99999999999994</ele><time>2026-05-02T08:56:51.989Z</time></trkpt><trkpt lat="44.899405" lon="9.4485767"><ele>468.0</ele><time>2026-05-02T08:56:52.989Z</time></trkpt><trkpt lat="44.89936" lon="9.44846"><ele>468.0</ele><time>2026-05-02T08:56:53.989Z</time></trkpt><trkpt lat="44.8993117" lon="9.448355"><ele>468.5</ele><time>2026-05-02T08:56:54.989Z</time></trkpt><trkpt lat="44.8992733" lon="9.4482483"><ele>469.0</ele><time>2026-05-02T08:56:55.991Z</time></trkpt><trkpt lat="44.899245" lon="9.4481383"><ele>469.5</ele><time>2026-05-02T08:56:56.992Z</time></trkpt><trkpt lat="44.899225" lon="9.4480283"><ele>470.0</ele><time>2026-05-02T08:56:57.99Z</time></trkpt><trkpt lat="44.899215" lon="9.4479183"><ele>470.5</ele><time>2026-05-02T08:56:58.991Z</time></trkpt><trkpt lat="44.8992067" lon="9.4478083"><ele>471.0</ele><time>2026-05-02T08:56:59.989Z</time></trkpt><trkpt lat="44.8992017" lon="9.447705"><ele>467.8333333333333</ele><time>2026-05-02T08:57:00.989Z</time></trkpt><trkpt lat="44.89919" lon="9.44761"><ele>464.66666666666663</ele><time>2026-05-02T08:57:01.989Z</time></trkpt><trkpt lat="44.8991717" lon="9.4475217"><ele>461.5</ele><time>2026-05-02T08:57:02.99Z</time></trkpt><trkpt lat="44.8991017" lon="9.4473917"><ele>458.3333333333333</ele><time>2026-05-02T08:57:04.989Z</time></trkpt><trkpt lat="44.8990483" lon="9.4473317"><ele>455.16666666666663</ele><time>2026-05-02T08:57:06.989Z</time></trkpt><trkpt lat="44.8989783" lon="9.4472483"><ele>452.0</ele><time>2026-05-02T08:57:33.989Z</time></trkpt><trkpt lat="44.8988917" lon="9.447155"><ele>452.0</ele><time>2026-05-02T08:57:35.99Z</time></trkpt><trkpt lat="44.8988117" lon="9.4471033"><ele>452.0</ele><time>2026-05-02T08:57:37.989Z</time></trkpt><trkpt lat="44.8987483" lon="9.447085"><ele>452.0</ele><time>2026-05-02T08:57:39.989Z</time></trkpt><trkpt lat="44.898675" lon="9.447075"><ele>452.0</ele><time>2026-05-02T08:57:53.988Z</time></trkpt><trkpt lat="44.8986067" lon="9.4470983"><ele>452.0</ele><time>2026-05-02T08:57:55.989Z</time></trkpt><trkpt lat="44.8985583" lon="9.44716"><ele>452.0</ele><time>2026-05-02T08:57:57.988Z</time></trkpt><trkpt lat="44.8985033" lon="9.4472217"><ele>452.0</ele><time>2026-05-02T08:57:59.989Z</time></trkpt><trkpt lat="44.8984467" lon="9.44728"><ele>449.66666666666663</ele><time>2026-05-02T08:58:01.99Z</time></trkpt><trkpt lat="44.8983867" lon="9.447335"><ele>447.3333333333333</ele><time>2026-05-02T08:58:03.989Z</time></trkpt><trkpt lat="44.8983233" lon="9.4473867"><ele>445.0</ele><time>2026-05-02T08:58:05.989Z</time></trkpt><trkpt lat="44.89824" lon="9.4474633"><ele>442.66666666666663</ele><time>2026-05-02T08:58:08.99Z</time></trkpt><trkpt lat="44.8981617" lon="9.447515"><ele>440.3333333333333</ele><time>2026-05-02T08:58:10.99Z</time></trkpt><trkpt lat="44.8980767" lon="9.4475767"><ele>438.0</ele><time>2026-05-02T08:58:12.989Z</time></trkpt><trkpt lat="44.8979917" lon="9.4476467"><ele>438.0</ele><time>2026-05-02T08:58:14.99Z</time></trkpt><trkpt lat="44.897925" lon="9.4477233"><ele>437.99999999999994</ele><time>2026-05-02T08:58:16.989Z</time></trkpt><trkpt lat="44.8978617" lon="9.4478017"><ele>437.99999999999994</ele><time>2026-05-02T08:58:18.99Z</time></trkpt><trkpt lat="44.8977833" lon="9.44791"><ele>438.0</ele><time>2026-05-02T08:58:20.992Z</time></trkpt><trkpt lat="44.897695" lon="9.44802"><ele>438.0</ele><time>2026-05-02T08:58:22.989Z</time></trkpt><trkpt lat="44.8976167" lon="9.44809"><ele>433.6666666666667</ele><time>2026-05-02T08:58:24.989Z</time></trkpt><trkpt lat="44.897555" lon="9.4481583"><ele>429.33333333333337</ele><time>2026-05-02T08:58:26.989Z</time></trkpt><trkpt lat="44.8974983" lon="9.4482283"><ele>425.0</ele><time>2026-05-02T08:58:28.989Z</time></trkpt><trkpt lat="44.8974317" lon="9.448305"><ele>420.6666666666667</ele><time>2026-05-02T08:58:31.99Z</time></trkpt><trkpt lat="44.8973517" lon="9.4483667"><ele>416.33333333333337</ele><time>2026-05-02T08:58:33.99Z</time></trkpt><trkpt lat="44.8972517" lon="9.4484233"><ele>412.0</ele><time>2026-05-02T08:58:35.989Z</time></trkpt><trkpt lat="44.8971467" lon="9.44846"><ele>412.00000000000006</ele><time>2026-05-02T08:58:37.989Z</time></trkpt><trkpt lat="44.8970483" lon="9.448525"><ele>412.0</ele><time>2026-05-02T08:58:39.99Z</time></trkpt><trkpt lat="44.8969667" lon="9.4486167"><ele>412.0</ele><time>2026-05-02T08:58:41.989Z</time></trkpt><trkpt lat="44.8969233" lon="9.4487017"><ele>412.0</ele><time>2026-05-02T08:58:43.99Z</time></trkpt><trkpt lat="44.8968883" lon="9.44878"><ele>412.00000000000006</ele><time>2026-05-02T08:58:46.989Z</time></trkpt><trkpt lat="44.8968483" lon="9.448875"><ele>412.0</ele><time>2026-05-02T08:58:58.989Z</time></trkpt><trkpt lat="44.8967783" lon="9.4489483"><ele>408.33333333333337</ele><time>2026-05-02T08:59:01.989Z</time></trkpt><trkpt lat="44.8967217" lon="9.4490583"><ele>404.6666666666667</ele><time>2026-05-02T08:59:04.989Z</time></trkpt><trkpt lat="44.8966617" lon="9.449155"><ele>401.0</ele><time>2026-05-02T08:59:06.989Z</time></trkpt><trkpt lat="44.89663" lon="9.4492383"><ele>397.33333333333337</ele><time>2026-05-02T08:59:08.989Z</time></trkpt><trkpt lat="44.8965867" lon="9.4493167"><ele>393.6666666666667</ele><time>2026-05-02T08:59:10.989Z</time></trkpt><trkpt lat="44.8965333" lon="9.4493733"><ele>390.0</ele><time>2026-05-02T08:59:12.989Z</time></trkpt><trkpt lat="44.8964433" lon="9.4493717"><ele>390.0</ele><time>2026-05-02T08:59:15.989Z</time></trkpt><trkpt lat="44.8963633" lon="9.4493233"><ele>390.0</ele><time>2026-05-02T08:59:17.99Z</time></trkpt><trkpt lat="44.8962467" lon="9.449315"><ele>390.0</ele><time>2026-05-02T08:59:19.989Z</time></trkpt><trkpt lat="44.8961283" lon="9.449355"><ele>390.0</ele><time>2026-05-02T08:59:21.989Z</time></trkpt><trkpt lat="44.89607" lon="9.4493967"><ele>390.0</ele><time>2026-05-02T08:59:22.99Z</time></trkpt><trkpt lat="44.8960133" lon="9.4494433"><ele>392.6</ele><time>2026-05-02T08:59:23.99Z</time></trkpt><trkpt lat="44.8959" lon="9.44949"><ele>395.2</ele><time>2026-05-02T08:59:25.99Z</time></trkpt><trkpt lat="44.8958117" lon="9.4494633"><ele>397.79999999999995</ele><time>2026-05-02T08:59:27.989Z</time></trkpt><trkpt lat="44.8957267" lon="9.4493433"><ele>400.4</ele><time>2026-05-02T08:59:29.989Z</time></trkpt><trkpt lat="44.89568" lon="9.4492517"><ele>403.0</ele><time>2026-05-02T08:59:30.99Z</time></trkpt><trkpt lat="44.895635" lon="9.4491683"><ele>403.00000000000006</ele><time>2026-05-02T08:59:31.989Z</time></trkpt><trkpt lat="44.8955933" lon="9.4490983"><ele>403.0</ele><time>2026-05-02T08:59:32.99Z</time></trkpt><trkpt lat="44.8955417" lon="9.4490383"><ele>403.0</ele><time>2026-05-02T08:59:33.989Z</time></trkpt><trkpt lat="44.8954833" lon="9.4489867"><ele>403.0</ele><time>2026-05-02T08:59:34.989Z</time></trkpt><trkpt lat="44.89542" lon="9.44893"><ele>403.00000000000006</ele><time>2026-05-02T08:59:35.989Z</time></trkpt><trkpt lat="44.8953583" lon="9.4488817"><ele>403.0</ele><time>2026-05-02T08:59:36.991Z</time></trkpt><trkpt lat="44.8952833" lon="9.4487783"><ele>403.79999999999995</ele><time>2026-05-02T08:59:38.995Z</time></trkpt><trkpt lat="44.8952633" lon="9.4486617"><ele>404.6</ele><time>2026-05-02T08:59:40.989Z</time></trkpt><trkpt lat="44.8952633" lon="9.44855"><ele>405.4</ele><time>2026-05-02T08:59:42.989Z</time></trkpt><trkpt lat="44.8951967" lon="9.4484667"><ele>406.20000000000005</ele><time>2026-05-02T09:00:03.989Z</time></trkpt><trkpt lat="44.89507" lon="9.448455"><ele>407.0</ele><time>2026-05-02T09:00:05.991Z</time></trkpt><trkpt lat="44.894975" lon="9.4484783"><ele>410.3333333333333</ele><time>2026-05-02T09:00:06.99Z</time></trkpt><trkpt lat="44.8948867" lon="9.4485"><ele>413.66666666666663</ele><time>2026-05-02T09:00:07.99Z</time></trkpt><trkpt lat="44.89481" lon="9.4485167"><ele>417.0</ele><time>2026-05-02T09:00:08.991Z</time></trkpt><trkpt lat="44.89473" lon="9.44853"><ele>420.33333333333337</ele><time>2026-05-02T09:00:09.99Z</time></trkpt><trkpt lat="44.89466" lon="9.4485417"><ele>423.6666666666667</ele><time>2026-05-02T09:00:10.989Z</time></trkpt><trkpt lat="44.8945533" lon="9.448545"><ele>427.0</ele><time>2026-05-02T09:00:12.989Z</time></trkpt><trkpt lat="44.8944867" lon="9.4485283"><ele>427.00000000000006</ele><time>2026-05-02T09:00:13.989Z</time></trkpt><trkpt lat="44.8944217" lon="9.4484933"><ele>427.0</ele><time>2026-05-02T09:00:14.989Z</time></trkpt><trkpt lat="44.8943533" lon="9.4484633"><ele>427.0</ele><time>2026-05-02T09:00:15.99Z</time></trkpt><trkpt lat="44.89428" lon="9.44845"><ele>427.0</ele><time>2026-05-02T09:00:16.989Z</time></trkpt><trkpt lat="44.8941967" lon="9.4484567"><ele>427.00000000000006</ele><time>2026-05-02T09:00:17.99Z</time></trkpt><trkpt lat="44.8940967" lon="9.4484767"><ele>427.0</ele><time>2026-05-02T09:00:18.99Z</time></trkpt><trkpt lat="44.893995" lon="9.4484867"><ele>428.8</ele><time>2026-05-02T09:00:19.99Z</time></trkpt><trkpt lat="44.8938867" lon="9.4484883"><ele>430.6</ele><time>2026-05-02T09:00:20.992Z</time></trkpt><trkpt lat="44.893775" lon="9.44848"><ele>432.40000000000003</ele><time>2026-05-02T09:00:21.991Z</time></trkpt><trkpt lat="44.8936617" lon="9.448465"><ele>434.20000000000005</ele><time>2026-05-02T09:00:22.989Z</time></trkpt><trkpt lat="44.8935483" lon="9.4484567"><ele>436.0</ele><time>2026-05-02T09:00:23.991Z</time></trkpt><trkpt lat="44.8934367" lon="9.4484533"><ele>439.25</ele><time>2026-05-02T09:00:24.989Z</time></trkpt><trkpt lat="44.8933233" lon="9.4484483"><ele>442.5</ele><time>2026-05-02T09:00:25.989Z</time></trkpt><trkpt lat="44.8932067" lon="9.448435"><ele>445.75</ele><time>2026-05-02T09:00:26.991Z</time></trkpt><trkpt lat="44.89308" lon="9.4483967"><ele>449.0</ele><time>2026-05-02T09:00:27.99Z</time></trkpt><trkpt lat="44.8929483" lon="9.4483467"><ele>449.0</ele><time>2026-05-02T09:00:28.991Z</time></trkpt><trkpt lat="44.8928133" lon="9.4482967"><ele>449.0</ele><time>2026-05-02T09:00:29.991Z</time></trkpt><trkpt lat="44.89268" lon="9.4482583"><ele>449.0</ele><time>2026-05-02T09:00:30.991Z</time></trkpt><trkpt lat="44.89255" lon="9.4482467"><ele>449.0</ele><time>2026-05-02T09:00:31.992Z</time></trkpt><trkpt lat="44.8924217" lon="9.4482483"><ele>452.5</ele><time>2026-05-02T09:00:32.992Z</time></trkpt><trkpt lat="44.892295" lon="9.4482683"><ele>456.0</ele><time>2026-05-02T09:00:33.99Z</time></trkpt><trkpt lat="44.8921767" lon="9.44831"><ele>459.5</ele><time>2026-05-02T09:00:34.991Z</time></trkpt><trkpt lat="44.8920617" lon="9.4483583"><ele>463.0</ele><time>2026-05-02T09:00:35.99Z</time></trkpt><trkpt lat="44.8919417" lon="9.448415"><ele>463.0</ele><time>2026-05-02T09:00:36.992Z</time></trkpt><trkpt lat="44.89181" lon="9.44848"><ele>463.0</ele><time>2026-05-02T09:00:37.991Z</time></trkpt><trkpt lat="44.8916767" lon="9.4485433"><ele>463.0</ele><time>2026-05-02T09:00:38.992Z</time></trkpt><trkpt lat="44.89155" lon="9.4486"><ele>463.0</ele><time>2026-05-02T09:00:39.99Z</time></trkpt><trkpt lat="44.8914333" lon="9.4486467"><ele>466.0</ele><time>2026-05-02T09:00:40.991Z</time></trkpt><trkpt lat="44.891315" lon="9.4487"><ele>469.0</ele><time>2026-05-02T09:00:41.99Z</time></trkpt><trkpt lat="44.8912017" lon="9.4487683"><ele>472.0</ele><time>2026-05-02T09:00:42.989Z</time></trkpt><trkpt lat="44.8910983" lon="9.4488433"><ele>475.0</ele><time>2026-05-02T09:00:43.989Z</time></trkpt><trkpt lat="44.8910167" lon="9.4489017"><ele>475.00000000000006</ele><time>2026-05-02T09:00:44.99Z</time></trkpt><trkpt lat="44.8909383" lon="9.4489367"><ele>475.0</ele><time>2026-05-02T09:00:45.99Z</time></trkpt><trkpt lat="44.8908533" lon="9.4489533"><ele>475.0</ele><time>2026-05-02T09:00:46.99Z</time></trkpt><trkpt lat="44.890765" lon="9.448945"><ele>475.0</ele><time>2026-05-02T09:00:47.99Z</time></trkpt><trkpt lat="44.8906767" lon="9.44891"><ele>475.00000000000006</ele><time>2026-05-02T09:00:48.99Z</time></trkpt><trkpt lat="44.8905833" lon="9.4488783"><ele>475.0</ele><time>2026-05-02T09:00:49.99Z</time></trkpt><trkpt lat="44.8904817" lon="9.4488667"><ele>478.8</ele><time>2026-05-02T09:00:50.99Z</time></trkpt><trkpt lat="44.8903817" lon="9.4488733"><ele>482.6</ele><time>2026-05-02T09:00:51.989Z</time></trkpt><trkpt lat="44.8902817" lon="9.4488817"><ele>486.4</ele><time>2026-05-02T09:00:52.989Z</time></trkpt><trkpt lat="44.8901883" lon="9.4488833"><ele>490.2</ele><time>2026-05-02T09:00:53.99Z</time></trkpt><trkpt lat="44.890095" lon="9.4488717"><ele>494.0</ele><time>2026-05-02T09:00:54.989Z</time></trkpt><trkpt lat="44.89001" lon="9.4488683"><ele>497.6</ele><time>2026-05-02T09:00:55.989Z</time></trkpt><trkpt lat="44.8899267" lon="9.4488883"><ele>501.2</ele><time>2026-05-02T09:00:56.992Z</time></trkpt><trkpt lat="44.88984" lon="9.448935"><ele>504.80000000000007</ele><time>2026-05-02T09:00:57.99Z</time></trkpt><trkpt lat="44.8897533" lon="9.4489917"><ele>508.40000000000003</ele><time>2026-05-02T09:00:58.99Z</time></trkpt><trkpt lat="44.889665" lon="9.4490617"><ele>512.0</ele><time>2026-05-02T09:00:59.99Z</time></trkpt><trkpt lat="44.8895733" lon="9.44914"><ele>512.0</ele><time>2026-05-02T09:01:00.99Z</time></trkpt><trkpt lat="44.8894817" lon="9.4492333"><ele>512.0</ele><time>2026-05-02T09:01:01.99Z</time></trkpt><trkpt lat="44.8893983" lon="9.4493233"><ele>512.0</ele><time>2026-05-02T09:01:02.991Z</time></trkpt><trkpt lat="44.8893217" lon="9.4494033"><ele>512.0</ele><time>2026-05-02T09:01:03.995Z</time></trkpt><trkpt lat="44.88925" lon="9.449475"><ele>512.0</ele><time>2026-05-02T09:01:04.99Z</time></trkpt><trkpt lat="44.8891817" lon="9.449545"><ele>514.2</ele><time>2026-05-02T09:01:05.99Z</time></trkpt><trkpt lat="44.8891133" lon="9.449615"><ele>516.4000000000001</ele><time>2026-05-02T09:01:06.99Z</time></trkpt><trkpt lat="44.8890433" lon="9.4496783"><ele>518.5999999999999</ele><time>2026-05-02T09:01:07.991Z</time></trkpt><trkpt lat="44.8889617" lon="9.449725"><ele>520.8</ele><time>2026-05-02T09:01:08.99Z</time></trkpt><trkpt lat="44.8888633" lon="9.4497533"><ele>523.0</ele><time>2026-05-02T09:01:09.989Z</time></trkpt><trkpt lat="44.8887517" lon="9.4497667"><ele>523.0</ele><time>2026-05-02T09:01:10.991Z</time></trkpt><trkpt lat="44.8886367" lon="9.4497783"><ele>523.0</ele><time>2026-05-02T09:01:11.991Z</time></trkpt><trkpt lat="44.8885283" lon="9.4497983"><ele>523.0</ele><time>2026-05-02T09:01:12.991Z</time></trkpt><trkpt lat="44.888435" lon="9.4498167"><ele>523.0</ele><time>2026-05-02T09:01:13.989Z</time></trkpt><trkpt lat="44.888355" lon="9.4498117"><ele>523.0</ele><time>2026-05-02T09:01:14.99Z</time></trkpt><trkpt lat="44.888275" lon="9.4497733"><ele>525.1999999999999</ele><time>2026-05-02T09:01:15.989Z</time></trkpt><trkpt lat="44.8881817" lon="9.4497017"><ele>527.4</ele><time>2026-05-02T09:01:16.989Z</time></trkpt><trkpt lat="44.8880867" lon="9.44962"><ele>529.5999999999999</ele><time>2026-05-02T09:01:17.99Z</time></trkpt><trkpt lat="44.8879833" lon="9.449545"><ele>531.8</ele><time>2026-05-02T09:01:18.99Z</time></trkpt><trkpt lat="44.8878833" lon="9.4494717"><ele>534.0</ele><time>2026-05-02T09:01:19.99Z</time></trkpt><trkpt lat="44.8877867" lon="9.44941"><ele>534.0</ele><time>2026-05-02T09:01:20.99Z</time></trkpt><trkpt lat="44.8876917" lon="9.4493833"><ele>534.0</ele><time>2026-05-02T09:01:21.989Z</time></trkpt><trkpt lat="44.8875917" lon="9.4493817"><ele>534.0</ele><time>2026-05-02T09:01:22.99Z</time></trkpt><trkpt lat="44.8874917" lon="9.4494"><ele>534.0</ele><time>2026-05-02T09:01:23.99Z</time></trkpt><trkpt lat="44.8874083" lon="9.44941"><ele>534.0</ele><time>2026-05-02T09:01:24.99Z</time></trkpt><trkpt lat="44.8873183" lon="9.4494267"><ele>537.1666666666666</ele><time>2026-05-02T09:01:26.991Z</time></trkpt><trkpt lat="44.88724" lon="9.4493933"><ele>540.3333333333334</ele><time>2026-05-02T09:01:41.99Z</time></trkpt><trkpt lat="44.8871967" lon="9.449305"><ele>543.5</ele><time>2026-05-02T09:01:43.989Z</time></trkpt><trkpt lat="44.8871717" lon="9.4492033"><ele>546.6666666666667</ele><time>2026-05-02T09:01:45.989Z</time></trkpt><trkpt lat="44.88712" lon="9.449125"><ele>549.8333333333334</ele><time>2026-05-02T09:01:47.989Z</time></trkpt><trkpt lat="44.8870367" lon="9.449055"><ele>553.0</ele><time>2026-05-02T09:01:49.99Z</time></trkpt><trkpt lat="44.886925" lon="9.448985"><ele>553.0</ele><time>2026-05-02T09:01:51.989Z</time></trkpt><trkpt lat="44.88686" lon="9.4489583"><ele>553.0</ele><time>2026-05-02T09:01:52.99Z</time></trkpt><trkpt lat="44.8867917" lon="9.4489383"><ele>553.0</ele><time>2026-05-02T09:01:53.989Z</time></trkpt><trkpt lat="44.8867283" lon="9.4489167"><ele>553.0</ele><time>2026-05-02T09:01:54.989Z</time></trkpt><trkpt lat="44.8866283" lon="9.4488783"><ele>553.0</ele><time>2026-05-02T09:01:56.99Z</time></trkpt><trkpt lat="44.8865483" lon="9.4488483"><ele>553.0</ele><time>2026-05-02T09:01:58.99Z</time></trkpt><trkpt lat="44.886485" lon="9.4489183"><ele>555.6</ele><time>2026-05-02T09:02:01.991Z</time></trkpt><trkpt lat="44.8864417" lon="9.4490533"><ele>558.1999999999999</ele><time>2026-05-02T09:02:03.99Z</time></trkpt><trkpt lat="44.8863717" lon="9.44917"><ele>560.8</ele><time>2026-05-02T09:02:05.99Z</time></trkpt><trkpt lat="44.8862583" lon="9.4492533"><ele>563.4</ele><time>2026-05-02T09:02:07.99Z</time></trkpt><trkpt lat="44.88619" lon="9.44929"><ele>566.0</ele><time>2026-05-02T09:02:08.99Z</time></trkpt><trkpt lat="44.8861183" lon="9.4493267"><ele>566.0</ele><time>2026-05-02T09:02:09.99Z</time></trkpt><trkpt lat="44.8860367" lon="9.44937"><ele>566.0</ele><time>2026-05-02T09:02:10.989Z</time></trkpt><trkpt lat="44.8859467" lon="9.4494233"><ele>566.0</ele><time>2026-05-02T09:02:11.991Z</time></trkpt><trkpt lat="44.8858567" lon="9.4494817"><ele>566.0</ele><time>2026-05-02T09:02:12.99Z</time></trkpt><trkpt lat="44.885765" lon="9.4495467"><ele>566.0</ele><time>2026-05-02T09:02:13.989Z</time></trkpt><trkpt lat="44.885665" lon="9.449615"><ele>567.8</ele><time>2026-05-02T09:02:14.989Z</time></trkpt><trkpt lat="44.8855633" lon="9.44969"><ele>569.6</ele><time>2026-05-02T09:02:15.99Z</time></trkpt><trkpt lat="44.885465" lon="9.449765"><ele>571.4</ele><time>2026-05-02T09:02:16.99Z</time></trkpt><trkpt lat="44.885375" lon="9.44983"><ele>573.2</ele><time>2026-05-02T09:02:17.99Z</time></trkpt><trkpt lat="44.88529" lon="9.449885"><ele>575.0</ele><time>2026-05-02T09:02:18.99Z</time></trkpt><trkpt lat="44.8851983" lon="9.44993"><ele>575.0</ele><time>2026-05-02T09:02:19.99Z</time></trkpt><trkpt lat="44.8850983" lon="9.4499733"><ele>575.0</ele><time>2026-05-02T09:02:20.991Z</time></trkpt><trkpt lat="44.8849867" lon="9.45002"><ele>575.0</ele><time>2026-05-02T09:02:21.99Z</time></trkpt><trkpt lat="44.88487" lon="9.4500683"><ele>575.0</ele><time>2026-05-02T09:02:22.989Z</time></trkpt><trkpt lat="44.8847517" lon="9.4501167"><ele>577.0</ele><time>2026-05-02T09:02:23.989Z</time></trkpt><trkpt lat="44.8846333" lon="9.45017"><ele>579.0</ele><time>2026-05-02T09:02:24.99Z</time></trkpt><trkpt lat="44.884525" lon="9.450235"><ele>581.0</ele><time>2026-05-02T09:02:25.99Z</time></trkpt><trkpt lat="44.884435" lon="9.4503067"><ele>583.0</ele><time>2026-05-02T09:02:26.99Z</time></trkpt><trkpt lat="44.88436" lon="9.4503717"><ele>585.0</ele><time>2026-05-02T09:02:27.989Z</time></trkpt><trkpt lat="44.8843017" lon="9.4504217"><ele>587.3333333333334</ele><time>2026-05-02T09:02:28.99Z</time></trkpt><trkpt lat="44.8842267" lon="9.4504383"><ele>589.6666666666666</ele><time>2026-05-02T09:02:30.989Z</time></trkpt><trkpt lat="44.8841917" lon="9.4503533"><ele>592.0</ele><time>2026-05-02T09:02:32.991Z</time></trkpt><trkpt lat="44.8841733" lon="9.450205"><ele>594.3333333333333</ele><time>2026-05-02T09:02:34.989Z</time></trkpt><trkpt lat="44.8841567" lon="9.4500333"><ele>596.6666666666666</ele><time>2026-05-02T09:02:36.99Z</time></trkpt><trkpt lat="44.8841567" lon="9.4499333"><ele>599.0</ele><time>2026-05-02T09:02:37.991Z</time></trkpt><trkpt lat="44.8841567" lon="9.449815"><ele>599.0</ele><time>2026-05-02T09:02:38.99Z</time></trkpt><trkpt lat="44.88415" lon="9.4496917"><ele>599.0</ele><time>2026-05-02T09:02:39.989Z</time></trkpt><trkpt lat="44.8841333" lon="9.4495683"><ele>599.0</ele><time>2026-05-02T09:02:40.99Z</time></trkpt><trkpt lat="44.88411" lon="9.4494417"><ele>599.0</ele><time>2026-05-02T09:02:41.99Z</time></trkpt><trkpt lat="44.8840817" lon="9.4493233"><ele>599.0</ele><time>2026-05-02T09:02:42.99Z</time></trkpt><trkpt lat="44.8840467" lon="9.449195"><ele>600.4</ele><time>2026-05-02T09:02:43.989Z</time></trkpt><trkpt lat="44.8840133" lon="9.4490583"><ele>601.8</ele><time>2026-05-02T09:02:44.991Z</time></trkpt><trkpt lat="44.8839917" lon="9.4489083"><ele>603.2</ele><time>2026-05-02T09:02:45.989Z</time></trkpt><trkpt lat="44.88398" lon="9.4487567"><ele>604.6</ele><time>2026-05-02T09:02:46.989Z</time></trkpt><trkpt lat="44.883985" lon="9.4486017"><ele>606.0</ele><time>2026-05-02T09:02:47.989Z</time></trkpt><trkpt lat="44.8839833" lon="9.448445"><ele>608.6</ele><time>2026-05-02T09:02:48.99Z</time></trkpt><trkpt lat="44.883975" lon="9.4482983"><ele>611.2</ele><time>2026-05-02T09:02:49.99Z</time></trkpt><trkpt lat="44.8839633" lon="9.448165"><ele>613.8</ele><time>2026-05-02T09:02:50.99Z</time></trkpt><trkpt lat="44.88394" lon="9.4480435"><ele>616.4</ele><time>2026-05-02T09:02:51.99Z</time></trkpt><trkpt lat="44.8839093" lon="9.4479314"><ele>619.0</ele><time>2026-05-02T09:02:52.989Z</time></trkpt><trkpt lat="44.8838699" lon="9.4478206"><ele>620.6666666666667</ele><time>2026-05-02T09:02:53.991Z</time></trkpt><trkpt lat="44.883826" lon="9.4477174"><ele>622.3333333333334</ele><time>2026-05-02T09:02:54.991Z</time></trkpt><trkpt lat="44.8837849" lon="9.4476212"><ele>624.0</ele><time>2026-05-02T09:02:55.99Z</time></trkpt><trkpt lat="44.8837534" lon="9.4475175"><ele>625.6666666666666</ele><time>2026-05-02T09:02:56.99Z</time></trkpt><trkpt lat="44.8837261" lon="9.4473974"><ele>627.3333333333333</ele><time>2026-05-02T09:02:57.991Z</time></trkpt><trkpt lat="44.8837016" lon="9.4472657"><ele>629.0</ele><time>2026-05-02T09:02:58.99Z</time></trkpt><trkpt lat="44.8836747" lon="9.4471337"><ele>630.0</ele><time>2026-05-02T09:02:59.989Z</time></trkpt><trkpt lat="44.8836263" lon="9.4470093"><ele>631.0</ele><time>2026-05-02T09:03:00.99Z</time></trkpt><trkpt lat="44.8835663" lon="9.4468885"><ele>632.0</ele><time>2026-05-02T09:03:01.992Z</time></trkpt><trkpt lat="44.8835086" lon="9.4467789"><ele>633.0</ele><time>2026-05-02T09:03:02.99Z</time></trkpt><trkpt lat="44.8834564" lon="9.4466796"><ele>634.0</ele><time>2026-05-02T09:03:03.99Z</time></trkpt><trkpt lat="44.8834125" lon="9.4465892"><ele>632.5</ele><time>2026-05-02T09:03:04.99Z</time></trkpt><trkpt lat="44.883379" lon="9.4464979"><ele>631.0</ele><time>2026-05-02T09:03:05.99Z</time></trkpt><trkpt lat="44.8833507" lon="9.4463897"><ele>629.5</ele><time>2026-05-02T09:03:06.99Z</time></trkpt><trkpt lat="44.8833154" lon="9.446279"><ele>628.0</ele><time>2026-05-02T09:03:07.99Z</time></trkpt><trkpt lat="44.8832724" lon="9.4461737"><ele>626.5</ele><time>2026-05-02T09:03:08.99Z</time></trkpt><trkpt lat="44.8832293" lon="9.446069"><ele>625.0</ele><time>2026-05-02T09:03:09.99Z</time></trkpt><trkpt lat="44.883188" lon="9.4459524"><ele>625.0</ele><time>2026-05-02T09:03:10.991Z</time></trkpt><trkpt lat="44.8831489" lon="9.4458249"><ele>625.0</ele><time>2026-05-02T09:03:11.991Z</time></trkpt><trkpt lat="44.8831081" lon="9.4456931"><ele>625.0</ele><time>2026-05-02T09:03:12.99Z</time></trkpt><trkpt lat="44.8830672" lon="9.4455588"><ele>625.0</ele><time>2026-05-02T09:03:13.991Z</time></trkpt><trkpt lat="44.8830417" lon="9.4454317"><ele>625.0</ele><time>2026-05-02T09:03:14.991Z</time></trkpt><trkpt lat="44.8830167" lon="9.445315"><ele>625.6666666666667</ele><time>2026-05-02T09:03:15.99Z</time></trkpt><trkpt lat="44.88299" lon="9.44519"><ele>626.3333333333334</ele><time>2026-05-02T09:03:16.989Z</time></trkpt><trkpt lat="44.8829767" lon="9.44507"><ele>627.0</ele><time>2026-05-02T09:03:17.99Z</time></trkpt><trkpt lat="44.8829667" lon="9.4449533"><ele>627.6666666666666</ele><time>2026-05-02T09:03:18.99Z</time></trkpt><trkpt lat="44.8829567" lon="9.4448433"><ele>628.3333333333333</ele><time>2026-05-02T09:03:19.991Z</time></trkpt><trkpt lat="44.8829333" lon="9.44473"><ele>629.0</ele><time>2026-05-02T09:03:20.991Z</time></trkpt><trkpt lat="44.8828917" lon="9.4446383"><ele>629.8</ele><time>2026-05-02T09:03:21.991Z</time></trkpt><trkpt lat="44.88282" lon="9.44457"><ele>630.5999999999999</ele><time>2026-05-02T09:03:22.99Z</time></trkpt><trkpt lat="44.8827233" lon="9.4445183"><ele>631.4</ele><time>2026-05-02T09:03:23.99Z</time></trkpt><trkpt lat="44.8825983" lon="9.4444867"><ele>632.1999999999999</ele><time>2026-05-02T09:03:24.99Z</time></trkpt><trkpt lat="44.8824833" lon="9.4444483"><ele>633.0</ele><time>2026-05-02T09:03:25.991Z</time></trkpt><trkpt lat="44.8823783" lon="9.4444217"><ele>633.6</ele><time>2026-05-02T09:03:26.99Z</time></trkpt><trkpt lat="44.8822817" lon="9.4444033"><ele>634.1999999999999</ele><time>2026-05-02T09:03:27.99Z</time></trkpt><trkpt lat="44.8821817" lon="9.4444017"><ele>634.8</ele><time>2026-05-02T09:03:28.99Z</time></trkpt><trkpt lat="44.8820767" lon="9.444415"><ele>635.4</ele><time>2026-05-02T09:03:29.992Z</time></trkpt><trkpt lat="44.8819733" lon="9.4444483"><ele>636.0</ele><time>2026-05-02T09:03:30.991Z</time></trkpt><trkpt lat="44.8818667" lon="9.4444833"><ele>633.75</ele><time>2026-05-02T09:03:31.991Z</time></trkpt><trkpt lat="44.881755" lon="9.44452"><ele>631.5</ele><time>2026-05-02T09:03:32.992Z</time></trkpt><trkpt lat="44.8816383" lon="9.4445583"><ele>629.25</ele><time>2026-05-02T09:03:33.992Z</time></trkpt><trkpt lat="44.8815217" lon="9.4445983"><ele>627.0</ele><time>2026-05-02T09:03:34.991Z</time></trkpt><trkpt lat="44.881415" lon="9.4446333"><ele>627.0</ele><time>2026-05-02T09:03:35.99Z</time></trkpt><trkpt lat="44.881325" lon="9.4446483"><ele>627.0</ele><time>2026-05-02T09:03:36.989Z</time></trkpt><trkpt lat="44.8812383" lon="9.44463"><ele>627.0</ele><time>2026-05-02T09:03:37.989Z</time></trkpt><trkpt lat="44.881145" lon="9.4445867"><ele>627.0</ele><time>2026-05-02T09:03:38.989Z</time></trkpt><trkpt lat="44.8810533" lon="9.4445467"><ele>627.0</ele><time>2026-05-02T09:03:39.989Z</time></trkpt><trkpt lat="44.88097" lon="9.4444883"><ele>631.4000000000001</ele><time>2026-05-02T09:03:40.989Z</time></trkpt><trkpt lat="44.880885" lon="9.4444117"><ele>635.8000000000001</ele><time>2026-05-02T09:03:41.99Z</time></trkpt><trkpt lat="44.880795" lon="9.4443183"><ele>640.2</ele><time>2026-05-02T09:03:42.99Z</time></trkpt><trkpt lat="44.8807067" lon="9.44422"><ele>644.6</ele><time>2026-05-02T09:03:43.991Z</time></trkpt><trkpt lat="44.8806267" lon="9.4441483"><ele>649.0</ele><time>2026-05-02T09:03:44.991Z</time></trkpt><trkpt lat="44.8805517" lon="9.4440817"><ele>649.0</ele><time>2026-05-02T09:03:45.99Z</time></trkpt><trkpt lat="44.8804733" lon="9.44403"><ele>649.0</ele><time>2026-05-02T09:03:46.99Z</time></trkpt><trkpt lat="44.880385" lon="9.4439867"><ele>649.0</ele><time>2026-05-02T09:03:47.99Z</time></trkpt><trkpt lat="44.8803033" lon="9.4439433"><ele>649.0</ele><time>2026-05-02T09:03:48.989Z</time></trkpt><trkpt lat="44.8802267" lon="9.4439067"><ele>649.0</ele><time>2026-05-02T09:03:49.991Z</time></trkpt><trkpt lat="44.8801567" lon="9.4438583"><ele>649.0</ele><time>2026-05-02T09:03:50.99Z</time></trkpt><trkpt lat="44.8801" lon="9.44379"><ele>650.0</ele><time>2026-05-02T09:03:51.99Z</time></trkpt><trkpt lat="44.8800517" lon="9.4436967"><ele>651.0</ele><time>2026-05-02T09:03:52.991Z</time></trkpt><trkpt lat="44.8800083" lon="9.443575"><ele>652.0</ele><time>2026-05-02T09:03:53.99Z</time></trkpt><trkpt lat="44.8799567" lon="9.4434383"><ele>653.0</ele><time>2026-05-02T09:03:54.99Z</time></trkpt><trkpt lat="44.879905" lon="9.4433017"><ele>654.0</ele><time>2026-05-02T09:03:55.992Z</time></trkpt><trkpt lat="44.879865" lon="9.443175"><ele>654.0</ele><time>2026-05-02T09:03:56.991Z</time></trkpt><trkpt lat="44.879845" lon="9.4430467"><ele>654.0</ele><time>2026-05-02T09:03:57.99Z</time></trkpt><trkpt lat="44.879835" lon="9.4429133"><ele>654.0</ele><time>2026-05-02T09:03:58.99Z</time></trkpt><trkpt lat="44.8798383" lon="9.4427783"><ele>654.0</ele><time>2026-05-02T09:03:59.99Z</time></trkpt><trkpt lat="44.8798517" lon="9.4426467"><ele>654.0</ele><time>2026-05-02T09:04:00.99Z</time></trkpt><trkpt lat="44.8798683" lon="9.44252"><ele>654.6</ele><time>2026-05-02T09:04:01.99Z</time></trkpt><trkpt lat="44.8798733" lon="9.4423833"><ele>655.2</ele><time>2026-05-02T09:04:02.991Z</time></trkpt><trkpt lat="44.879875" lon="9.4422383"><ele>655.8000000000001</ele><time>2026-05-02T09:04:03.991Z</time></trkpt><trkpt lat="44.87988" lon="9.4420833"><ele>656.4000000000001</ele><time>2026-05-02T09:04:04.99Z</time></trkpt><trkpt lat="44.879905" lon="9.441935"><ele>657.0</ele><time>2026-05-02T09:04:05.99Z</time></trkpt><trkpt lat="44.8799417" lon="9.4417933"><ele>655.4000000000001</ele><time>2026-05-02T09:04:06.99Z</time></trkpt><trkpt lat="44.8799933" lon="9.4416617"><ele>653.8000000000001</ele><time>2026-05-02T09:04:07.991Z</time></trkpt><trkpt lat="44.880045" lon="9.4415333"><ele>652.2</ele><time>2026-05-02T09:04:08.991Z</time></trkpt><trkpt lat="44.8800867" lon="9.4414033"><ele>650.6</ele><time>2026-05-02T09:04:09.99Z</time></trkpt><trkpt lat="44.8801117" lon="9.4412867"><ele>649.0</ele><time>2026-05-02T09:04:10.989Z</time></trkpt><trkpt lat="44.8801317" lon="9.4411983"><ele>653.1666666666667</ele><time>2026-05-02T09:04:11.989Z</time></trkpt><trkpt lat="44.8801667" lon="9.441065"><ele>657.3333333333334</ele><time>2026-05-02T09:04:13.994Z</time></trkpt><trkpt lat="44.8801917" lon="9.4409633"><ele>661.5</ele><time>2026-05-02T09:04:15.989Z</time></trkpt><trkpt lat="44.8802083" lon="9.4408533"><ele>665.6666666666666</ele><time>2026-05-02T09:04:17.989Z</time></trkpt><trkpt lat="44.88023" lon="9.4407567"><ele>669.8333333333333</ele><time>2026-05-02T09:04:19.989Z</time></trkpt><trkpt lat="44.88026" lon="9.4406433"><ele>674.0</ele><time>2026-05-02T09:04:21.99Z</time></trkpt><trkpt lat="44.8803233" lon="9.4405517"><ele>672.8000000000001</ele><time>2026-05-02T09:04:23.99Z</time></trkpt><trkpt lat="44.8804067" lon="9.44046"><ele>671.6</ele><time>2026-05-02T09:04:25.99Z</time></trkpt><trkpt lat="44.8804917" lon="9.4403483"><ele>670.4</ele><time>2026-05-02T09:04:27.989Z</time></trkpt><trkpt lat="44.8805333" lon="9.4402783"><ele>669.2</ele><time>2026-05-02T09:04:28.991Z</time></trkpt><trkpt lat="44.880585" lon="9.4401217"><ele>668.0</ele><time>2026-05-02T09:04:30.991Z</time></trkpt><trkpt lat="44.8806" lon="9.440035"><ele>668.0</ele><time>2026-05-02T09:04:31.991Z</time></trkpt><trkpt lat="44.8806067" lon="9.4399433"><ele>668.0</ele><time>2026-05-02T09:04:32.991Z</time></trkpt><trkpt lat="44.8806117" lon="9.4398533"><ele>668.0</ele><time>2026-05-02T09:04:33.99Z</time></trkpt><trkpt lat="44.8806183" lon="9.4397617"><ele>668.0</ele><time>2026-05-02T09:04:34.99Z</time></trkpt><trkpt lat="44.880625" lon="9.4396667"><ele>668.0</ele><time>2026-05-02T09:04:35.991Z</time></trkpt><trkpt lat="44.8806317" lon="9.439575"><ele>668.0</ele><time>2026-05-02T09:04:36.989Z</time></trkpt><trkpt lat="44.8806317" lon="9.4394817"><ele>668.0</ele><time>2026-05-02T09:04:37.99Z</time></trkpt><trkpt lat="44.8806267" lon="9.439385"><ele>667.6666666666666</ele><time>2026-05-02T09:04:38.99Z</time></trkpt><trkpt lat="44.880615" lon="9.439285"><ele>667.3333333333333</ele><time>2026-05-02T09:04:39.989Z</time></trkpt><trkpt lat="44.8806" lon="9.4391817"><ele>667.0</ele><time>2026-05-02T09:04:40.991Z</time></trkpt><trkpt lat="44.88058" lon="9.4390783"><ele>666.6666666666666</ele><time>2026-05-02T09:04:41.991Z</time></trkpt><trkpt lat="44.88055" lon="9.43898"><ele>666.3333333333334</ele><time>2026-05-02T09:04:42.989Z</time></trkpt><trkpt lat="44.8805133" lon="9.438875"><ele>666.0</ele><time>2026-05-02T09:04:43.992Z</time></trkpt><trkpt lat="44.88047" lon="9.4387717"><ele>666.8333333333334</ele><time>2026-05-02T09:04:44.992Z</time></trkpt><trkpt lat="44.8804217" lon="9.4386767"><ele>667.6666666666666</ele><time>2026-05-02T09:04:45.989Z</time></trkpt><trkpt lat="44.8803767" lon="9.43858"><ele>668.5</ele><time>2026-05-02T09:04:46.989Z</time></trkpt><trkpt lat="44.88034" lon="9.438485"><ele>669.3333333333333</ele><time>2026-05-02T09:04:47.99Z</time></trkpt><trkpt lat="44.8803083" lon="9.4383783"><ele>670.1666666666666</ele><time>2026-05-02T09:04:48.991Z</time></trkpt><trkpt lat="44.8802867" lon="9.438265"><ele>671.0</ele><time>2026-05-02T09:04:49.99Z</time></trkpt><trkpt lat="44.8802733" lon="9.4381483"><ele>671.0</ele><time>2026-05-02T09:04:50.99Z</time></trkpt><trkpt lat="44.8802667" lon="9.4380367"><ele>671.0</ele><time>2026-05-02T09:04:51.99Z</time></trkpt><trkpt lat="44.8802533" lon="9.4379233"><ele>671.0</ele><time>2026-05-02T09:04:52.99Z</time></trkpt><trkpt lat="44.8802383" lon="9.43781"><ele>671.0</ele><time>2026-05-02T09:04:53.99Z</time></trkpt><trkpt lat="44.8802083" lon="9.4377067"><ele>671.0</ele><time>2026-05-02T09:04:54.99Z</time></trkpt><trkpt lat="44.8801733" lon="9.437615"><ele>671.0</ele><time>2026-05-02T09:04:55.992Z</time></trkpt><trkpt lat="44.8801367" lon="9.4375317"><ele>671.0</ele><time>2026-05-02T09:04:56.991Z</time></trkpt><trkpt lat="44.8800833" lon="9.4373933"><ele>671.0</ele><time>2026-05-02T09:04:58.99Z</time></trkpt><trkpt lat="44.8800533" lon="9.437315"><ele>671.0</ele><time>2026-05-02T09:05:00.99Z</time></trkpt><trkpt lat="44.8801367" lon="9.43722"><ele>671.0</ele><time>2026-05-02T09:09:32.989Z</time></trkpt><trkpt lat="44.8800683" lon="9.43715"><ele>671.0</ele><time>2026-05-02T09:10:42.99Z</time></trkpt><trkpt lat="44.8799483" lon="9.43719"><ele>670.6666666666666</ele><time>2026-05-02T09:10:44.989Z</time></trkpt><trkpt lat="44.8798783" lon="9.43721"><ele>670.3333333333333</ele><time>2026-05-02T09:10:45.989Z</time></trkpt><trkpt lat="44.8798017" lon="9.43722"><ele>670.0</ele><time>2026-05-02T09:10:46.989Z</time></trkpt><trkpt lat="44.8797283" lon="9.4372017"><ele>669.6666666666666</ele><time>2026-05-02T09:10:47.99Z</time></trkpt><trkpt lat="44.87966" lon="9.43716"><ele>669.3333333333334</ele><time>2026-05-02T09:10:48.989Z</time></trkpt><trkpt lat="44.8796067" lon="9.4371117"><ele>669.0</ele><time>2026-05-02T09:10:49.989Z</time></trkpt><trkpt lat="44.87952" lon="9.4369933"><ele>669.0</ele><time>2026-05-02T09:10:51.989Z</time></trkpt><trkpt lat="44.8794333" lon="9.4368533"><ele>669.0</ele><time>2026-05-02T09:10:53.992Z</time></trkpt><trkpt lat="44.8793733" lon="9.4367817"><ele>669.0</ele><time>2026-05-02T09:10:54.989Z</time></trkpt><trkpt lat="44.879305" lon="9.436725"><ele>669.0</ele><time>2026-05-02T09:10:55.989Z</time></trkpt><trkpt lat="44.87924" lon="9.4366933"><ele>669.0</ele><time>2026-05-02T09:10:56.989Z</time></trkpt><trkpt lat="44.87913" lon="9.4366767"><ele>670.0</ele><time>2026-05-02T09:10:58.99Z</time></trkpt><trkpt lat="44.8790083" lon="9.4366217"><ele>671.0</ele><time>2026-05-02T09:11:00.989Z</time></trkpt><trkpt lat="44.87893" lon="9.43651"><ele>672.0</ele><time>2026-05-02T09:11:02.989Z</time></trkpt><trkpt lat="44.8788833" lon="9.4364117"><ele>673.0</ele><time>2026-05-02T09:11:04.989Z</time></trkpt><trkpt lat="44.8789167" lon="9.436525"><ele>674.0</ele><time>2026-05-02T09:11:11.99Z</time></trkpt><trkpt lat="44.878985" lon="9.4365517"><ele>674.0000000000001</ele><time>2026-05-02T09:11:14.989Z</time></trkpt><trkpt lat="44.8789583" lon="9.4364133"><ele>674.0</ele><time>2026-05-02T09:11:17.989Z</time></trkpt><trkpt lat="44.8789283" lon="9.436335"><ele>674.0</ele><time>2026-05-02T09:11:18.989Z</time></trkpt><trkpt lat="44.8788883" lon="9.436255"><ele>674.0</ele><time>2026-05-02T09:11:19.99Z</time></trkpt><trkpt lat="44.8788433" lon="9.4361817"><ele>674.0</ele><time>2026-05-02T09:11:20.99Z</time></trkpt><trkpt lat="44.8787933" lon="9.4361083"><ele>674.0000000000001</ele><time>2026-05-02T09:11:21.989Z</time></trkpt><trkpt lat="44.87874" lon="9.4360383"><ele>674.0</ele><time>2026-05-02T09:11:22.99Z</time></trkpt><trkpt lat="44.8786817" lon="9.4359717"><ele>673.1666666666666</ele><time>2026-05-02T09:11:23.99Z</time></trkpt><trkpt lat="44.8786167" lon="9.4359133"><ele>672.3333333333333</ele><time>2026-05-02T09:11:24.989Z</time></trkpt><trkpt lat="44.8785417" lon="9.4358733"><ele>671.5</ele><time>2026-05-02T09:11:25.99Z</time></trkpt><trkpt lat="44.8784517" lon="9.4358517"><ele>670.6666666666666</ele><time>2026-05-02T09:11:26.99Z</time></trkpt><trkpt lat="44.878355" lon="9.4358233"><ele>669.8333333333334</ele><time>2026-05-02T09:11:27.99Z</time></trkpt><trkpt lat="44.878255" lon="9.4358"><ele>669.0</ele><time>2026-05-02T09:11:28.99Z</time></trkpt><trkpt lat="44.878155" lon="9.4357933"><ele>669.0</ele><time>2026-05-02T09:11:29.989Z</time></trkpt><trkpt lat="44.8780567" lon="9.4357917"><ele>669.0</ele><time>2026-05-02T09:11:30.989Z</time></trkpt><trkpt lat="44.8779517" lon="9.4357817"><ele>669.0</ele><time>2026-05-02T09:11:31.99Z</time></trkpt><trkpt lat="44.8778533" lon="9.4357817"><ele>669.0</ele><time>2026-05-02T09:11:32.991Z</time></trkpt><trkpt lat="44.8777617" lon="9.4357883"><ele>669.0</ele><time>2026-05-02T09:11:33.989Z</time></trkpt><trkpt lat="44.877685" lon="9.43578"><ele>669.0</ele><time>2026-05-02T09:11:34.99Z</time></trkpt><trkpt lat="44.8776217" lon="9.43576"><ele>669.0</ele><time>2026-05-02T09:11:35.989Z</time></trkpt><trkpt lat="44.8775867" lon="9.43563"><ele>669.0</ele><time>2026-05-02T09:11:37.989Z</time></trkpt><trkpt lat="44.8776217" lon="9.435485"><ele>669.0</ele><time>2026-05-02T09:11:39.991Z</time></trkpt><trkpt lat="44.8776667" lon="9.4354033"><ele>669.0</ele><time>2026-05-02T09:11:40.991Z</time></trkpt><trkpt lat="44.8777" lon="9.4353233"><ele>669.0</ele><time>2026-05-02T09:11:41.989Z</time></trkpt><trkpt lat="44.8777217" lon="9.435225"><ele>665.6666666666666</ele><time>2026-05-02T09:11:42.989Z</time></trkpt><trkpt lat="44.877735" lon="9.4351167"><ele>662.3333333333334</ele><time>2026-05-02T09:11:43.989Z</time></trkpt><trkpt lat="44.87773" lon="9.4350067"><ele>659.0</ele><time>2026-05-02T09:11:44.989Z</time></trkpt><trkpt lat="44.8777183" lon="9.43489"><ele>655.6666666666667</ele><time>2026-05-02T09:11:45.989Z</time></trkpt><trkpt lat="44.8777" lon="9.4347633"><ele>652.3333333333334</ele><time>2026-05-02T09:11:46.989Z</time></trkpt><trkpt lat="44.87768" lon="9.434645"><ele>649.0</ele><time>2026-05-02T09:11:47.99Z</time></trkpt><trkpt lat="44.87766" lon="9.4345267"><ele>646.8333333333334</ele><time>2026-05-02T09:11:48.99Z</time></trkpt><trkpt lat="44.877645" lon="9.4343983"><ele>644.6666666666667</ele><time>2026-05-02T09:11:49.991Z</time></trkpt><trkpt lat="44.8776317" lon="9.43426"><ele>642.5</ele><time>2026-05-02T09:11:50.99Z</time></trkpt><trkpt lat="44.8776217" lon="9.4341317"><ele>640.3333333333334</ele><time>2026-05-02T09:11:51.99Z</time></trkpt><trkpt lat="44.8776217" lon="9.4340167"><ele>638.1666666666666</ele><time>2026-05-02T09:11:52.989Z</time></trkpt><trkpt lat="44.8776217" lon="9.433915"><ele>636.0</ele><time>2026-05-02T09:11:53.99Z</time></trkpt><trkpt lat="44.8776467" lon="9.43383"><ele>634.6666666666666</ele><time>2026-05-02T09:11:55.989Z</time></trkpt><trkpt lat="44.87769" lon="9.4337233"><ele>633.3333333333334</ele><time>2026-05-02T09:11:59.99Z</time></trkpt><trkpt lat="44.8777083" lon="9.43363"><ele>632.0</ele><time>2026-05-02T09:12:00.99Z</time></trkpt><trkpt lat="44.8777317" lon="9.4335217"><ele>630.6666666666667</ele><time>2026-05-02T09:12:01.989Z</time></trkpt><trkpt lat="44.8777583" lon="9.433395"><ele>629.3333333333334</ele><time>2026-05-02T09:12:02.991Z</time></trkpt><trkpt lat="44.8777817" lon="9.4332683"><ele>628.0</ele><time>2026-05-02T09:12:03.989Z</time></trkpt><trkpt lat="44.8778" lon="9.4331417"><ele>628.0</ele><time>2026-05-02T09:12:04.99Z</time></trkpt><trkpt lat="44.877805" lon="9.433005"><ele>628.0</ele><time>2026-05-02T09:12:05.989Z</time></trkpt><trkpt lat="44.8778" lon="9.4328617"><ele>628.0</ele><time>2026-05-02T09:12:06.989Z</time></trkpt><trkpt lat="44.8777733" lon="9.4327183"><ele>628.0</ele><time>2026-05-02T09:12:07.99Z</time></trkpt><trkpt lat="44.8777417" lon="9.4325683"><ele>628.0</ele><time>2026-05-02T09:12:08.99Z</time></trkpt><trkpt lat="44.8777183" lon="9.432415"><ele>626.5</ele><time>2026-05-02T09:12:09.99Z</time></trkpt><trkpt lat="44.8777" lon="9.43227"><ele>625.0</ele><time>2026-05-02T09:12:10.989Z</time></trkpt><trkpt lat="44.8776917" lon="9.432135"><ele>623.5</ele><time>2026-05-02T09:12:11.989Z</time></trkpt><trkpt lat="44.8776667" lon="9.432015"><ele>622.0</ele><time>2026-05-02T09:12:12.99Z</time></trkpt><trkpt lat="44.877665" lon="9.4319067"><ele>620.5</ele><time>2026-05-02T09:12:13.989Z</time></trkpt><trkpt lat="44.8776667" lon="9.4318133"><ele>619.0</ele><time>2026-05-02T09:12:14.99Z</time></trkpt><trkpt lat="44.8777" lon="9.4316867"><ele>617.1666666666667</ele><time>2026-05-02T09:12:16.989Z</time></trkpt><trkpt lat="44.8777417" lon="9.4315917"><ele>615.3333333333334</ele><time>2026-05-02T09:12:18.991Z</time></trkpt><trkpt lat="44.8778133" lon="9.4314867"><ele>613.5</ele><time>2026-05-02T09:12:20.99Z</time></trkpt><trkpt lat="44.87786" lon="9.4314167"><ele>611.6666666666666</ele><time>2026-05-02T09:12:21.989Z</time></trkpt><trkpt lat="44.8779017" lon="9.43133"><ele>609.8333333333333</ele><time>2026-05-02T09:12:22.99Z</time></trkpt><trkpt lat="44.877935" lon="9.4312433"><ele>608.0</ele><time>2026-05-02T09:12:23.99Z</time></trkpt><trkpt lat="44.8779817" lon="9.4311183"><ele>607.7142857142857</ele><time>2026-05-02T09:12:25.99Z</time></trkpt><trkpt lat="44.8779283" lon="9.4310433"><ele>607.4285714285714</ele><time>2026-05-02T09:12:28.99Z</time></trkpt><trkpt lat="44.8778383" lon="9.4309767"><ele>607.1428571428571</ele><time>2026-05-02T09:12:30.989Z</time></trkpt><trkpt lat="44.8777867" lon="9.4309217"><ele>606.8571428571429</ele><time>2026-05-02T09:12:31.989Z</time></trkpt><trkpt lat="44.877735" lon="9.4308667"><ele>606.5714285714286</ele><time>2026-05-02T09:12:32.991Z</time></trkpt><trkpt lat="44.8776767" lon="9.430825"><ele>606.2857142857143</ele><time>2026-05-02T09:12:33.99Z</time></trkpt><trkpt lat="44.8776133" lon="9.4307917"><ele>606.0</ele><time>2026-05-02T09:12:34.99Z</time></trkpt><trkpt lat="44.8775267" lon="9.4307617"><ele>606.0</ele><time>2026-05-02T09:12:35.989Z</time></trkpt><trkpt lat="44.8774233" lon="9.4307333"><ele>606.0</ele><time>2026-05-02T09:12:36.989Z</time></trkpt><trkpt lat="44.8773217" lon="9.43068"><ele>606.0</ele><time>2026-05-02T09:12:37.99Z</time></trkpt><trkpt lat="44.8772283" lon="9.4306233"><ele>606.0</ele><time>2026-05-02T09:12:38.992Z</time></trkpt><trkpt lat="44.87716" lon="9.4305517"><ele>606.0</ele><time>2026-05-02T09:12:39.989Z</time></trkpt><trkpt lat="44.877115" lon="9.4304633"><ele>603.2</ele><time>2026-05-02T09:12:40.99Z</time></trkpt><trkpt lat="44.8770767" lon="9.4303567"><ele>600.4000000000001</ele><time>2026-05-02T09:12:41.989Z</time></trkpt><trkpt lat="44.87704" lon="9.4302383"><ele>597.6</ele><time>2026-05-02T09:12:42.992Z</time></trkpt><trkpt lat="44.8770133" lon="9.4301017"><ele>594.8000000000001</ele><time>2026-05-02T09:12:43.989Z</time></trkpt><trkpt lat="44.8769983" lon="9.42995"><ele>592.0</ele><time>2026-05-02T09:12:44.99Z</time></trkpt><trkpt lat="44.877005" lon="9.4297867"><ele>589.75</ele><time>2026-05-02T09:12:45.989Z</time></trkpt><trkpt lat="44.8770283" lon="9.42961"><ele>587.5</ele><time>2026-05-02T09:12:46.989Z</time></trkpt><trkpt lat="44.8770633" lon="9.4294467"><ele>585.25</ele><time>2026-05-02T09:12:47.989Z</time></trkpt><trkpt lat="44.8771033" lon="9.4292917"><ele>583.0</ele><time>2026-05-02T09:12:48.991Z</time></trkpt><trkpt lat="44.8771267" lon="9.4291517"><ele>583.0</ele><time>2026-05-02T09:12:49.989Z</time></trkpt><trkpt lat="44.877135" lon="9.429025"><ele>583.0</ele><time>2026-05-02T09:12:50.99Z</time></trkpt><trkpt lat="44.87713" lon="9.4289133"><ele>583.0</ele><time>2026-05-02T09:12:51.99Z</time></trkpt><trkpt lat="44.8771117" lon="9.428805"><ele>583.0</ele><time>2026-05-02T09:12:52.989Z</time></trkpt><trkpt lat="44.877055" lon="9.4286883"><ele>583.0</ele><time>2026-05-02T09:12:53.99Z</time></trkpt><trkpt lat="44.8769683" lon="9.42855"><ele>580.75</ele><time>2026-05-02T09:12:54.989Z</time></trkpt><trkpt lat="44.876885" lon="9.4284183"><ele>578.5</ele><time>2026-05-02T09:12:55.991Z</time></trkpt><trkpt lat="44.876805" lon="9.42829"><ele>576.25</ele><time>2026-05-02T09:12:56.989Z</time></trkpt><trkpt lat="44.876745" lon="9.4281633"><ele>574.0</ele><time>2026-05-02T09:12:57.99Z</time></trkpt><trkpt lat="44.8767117" lon="9.4280267"><ele>577.0</ele><time>2026-05-02T09:12:58.99Z</time></trkpt><trkpt lat="44.87668" lon="9.427875"><ele>580.0</ele><time>2026-05-02T09:12:59.99Z</time></trkpt><trkpt lat="44.8766417" lon="9.427735"><ele>583.0</ele><time>2026-05-02T09:13:00.989Z</time></trkpt><trkpt lat="44.8766" lon="9.4276083"><ele>586.0</ele><time>2026-05-02T09:13:01.99Z</time></trkpt><trkpt lat="44.8765583" lon="9.4274767"><ele>589.0</ele><time>2026-05-02T09:13:02.992Z</time></trkpt><trkpt lat="44.8765267" lon="9.4273417"><ele>589.0</ele><time>2026-05-02T09:13:03.991Z</time></trkpt><trkpt lat="44.876515" lon="9.4271967"><ele>589.0</ele><time>2026-05-02T09:13:04.99Z</time></trkpt><trkpt lat="44.8765217" lon="9.4270467"><ele>589.0</ele><time>2026-05-02T09:13:05.989Z</time></trkpt><trkpt lat="44.8765517" lon="9.4269"><ele>589.0</ele><time>2026-05-02T09:13:06.99Z</time></trkpt><trkpt lat="44.8765933" lon="9.4267667"><ele>589.0</ele><time>2026-05-02T09:13:07.989Z</time></trkpt><trkpt lat="44.8766317" lon="9.4266467"><ele>588.8</ele><time>2026-05-02T09:13:08.99Z</time></trkpt><trkpt lat="44.87665" lon="9.4265067"><ele>588.5999999999999</ele><time>2026-05-02T09:13:09.989Z</time></trkpt><trkpt lat="44.8766467" lon="9.4263567"><ele>588.4</ele><time>2026-05-02T09:13:10.989Z</time></trkpt><trkpt lat="44.8766267" lon="9.4261983"><ele>588.1999999999999</ele><time>2026-05-02T09:13:11.989Z</time></trkpt><trkpt lat="44.8765917" lon="9.42605"><ele>588.0</ele><time>2026-05-02T09:13:12.99Z</time></trkpt><trkpt lat="44.8765383" lon="9.4259367"><ele>586.8</ele><time>2026-05-02T09:13:13.99Z</time></trkpt><trkpt lat="44.8764717" lon="9.4258417"><ele>585.5999999999999</ele><time>2026-05-02T09:13:14.991Z</time></trkpt><trkpt lat="44.876385" lon="9.4257917"><ele>584.4000000000001</ele><time>2026-05-02T09:13:15.99Z</time></trkpt><trkpt lat="44.8762933" lon="9.4257467"><ele>583.2</ele><time>2026-05-02T09:13:16.99Z</time></trkpt><trkpt lat="44.8762083" lon="9.4256917"><ele>582.0</ele><time>2026-05-02T09:13:17.99Z</time></trkpt><trkpt lat="44.87614" lon="9.425605"><ele>582.0</ele><time>2026-05-02T09:13:18.993Z</time></trkpt><trkpt lat="44.8760883" lon="9.425495"><ele>582.0</ele><time>2026-05-02T09:13:19.99Z</time></trkpt><trkpt lat="44.8760517" lon="9.425365"><ele>582.0</ele><time>2026-05-02T09:13:20.991Z</time></trkpt><trkpt lat="44.8760217" lon="9.42524"><ele>582.0</ele><time>2026-05-02T09:13:21.99Z</time></trkpt><trkpt lat="44.8759933" lon="9.4251233"><ele>582.0</ele><time>2026-05-02T09:13:22.99Z</time></trkpt><trkpt lat="44.8759583" lon="9.4250233"><ele>583.3333333333334</ele><time>2026-05-02T09:13:23.991Z</time></trkpt><trkpt lat="44.8759183" lon="9.4249367"><ele>584.6666666666666</ele><time>2026-05-02T09:13:24.99Z</time></trkpt><trkpt lat="44.875875" lon="9.4248517"><ele>586.0</ele><time>2026-05-02T09:13:25.989Z</time></trkpt><trkpt lat="44.8758367" lon="9.424755"><ele>587.3333333333333</ele><time>2026-05-02T09:13:26.99Z</time></trkpt><trkpt lat="44.875815" lon="9.424645"><ele>588.6666666666666</ele><time>2026-05-02T09:13:27.991Z</time></trkpt><trkpt lat="44.8758167" lon="9.4245317"><ele>590.0</ele><time>2026-05-02T09:13:28.989Z</time></trkpt><trkpt lat="44.8758267" lon="9.424415"><ele>590.0</ele><time>2026-05-02T09:13:29.989Z</time></trkpt><trkpt lat="44.8758317" lon="9.424305"><ele>590.0</ele><time>2026-05-02T09:13:30.989Z</time></trkpt><trkpt lat="44.8758233" lon="9.424195"><ele>590.0</ele><time>2026-05-02T09:13:31.991Z</time></trkpt><trkpt lat="44.8758033" lon="9.42407"><ele>590.0</ele><time>2026-05-02T09:13:32.99Z</time></trkpt><trkpt lat="44.87578" lon="9.423935"><ele>590.0</ele><time>2026-05-02T09:13:33.99Z</time></trkpt><trkpt lat="44.8757517" lon="9.4238083"><ele>590.0</ele><time>2026-05-02T09:13:34.99Z</time></trkpt><trkpt lat="44.8757267" lon="9.423675"><ele>590.4</ele><time>2026-05-02T09:13:35.989Z</time></trkpt><trkpt lat="44.875715" lon="9.42353"><ele>590.8</ele><time>2026-05-02T09:13:36.99Z</time></trkpt><trkpt lat="44.8757167" lon="9.4233767"><ele>591.2</ele><time>2026-05-02T09:13:37.99Z</time></trkpt><trkpt lat="44.8757083" lon="9.4232367"><ele>591.6</ele><time>2026-05-02T09:13:38.99Z</time></trkpt><trkpt lat="44.8756783" lon="9.42311"><ele>592.0</ele><time>2026-05-02T09:13:39.99Z</time></trkpt><trkpt lat="44.8756267" lon="9.4229833"><ele>591.0</ele><time>2026-05-02T09:13:40.99Z</time></trkpt><trkpt lat="44.8755633" lon="9.42285"><ele>590.0</ele><time>2026-05-02T09:13:41.989Z</time></trkpt><trkpt lat="44.8754883" lon="9.4227133"><ele>589.0</ele><time>2026-05-02T09:13:42.99Z</time></trkpt><trkpt lat="44.875415" lon="9.4225817"><ele>588.0</ele><time>2026-05-02T09:13:43.99Z</time></trkpt><trkpt lat="44.8753483" lon="9.4224567"><ele>588.0</ele><time>2026-05-02T09:13:44.991Z</time></trkpt><trkpt lat="44.8752833" lon="9.42234"><ele>588.0</ele><time>2026-05-02T09:13:45.989Z</time></trkpt><trkpt lat="44.8752133" lon="9.4222233"><ele>588.0</ele><time>2026-05-02T09:13:46.991Z</time></trkpt><trkpt lat="44.8751333" lon="9.4221133"><ele>588.0</ele><time>2026-05-02T09:13:47.989Z</time></trkpt><trkpt lat="44.8750583" lon="9.4220167"><ele>588.0</ele><time>2026-05-02T09:13:48.99Z</time></trkpt><trkpt lat="44.8750033" lon="9.4219183"><ele>588.1666666666666</ele><time>2026-05-02T09:13:49.989Z</time></trkpt><trkpt lat="44.8749733" lon="9.4218083"><ele>588.3333333333334</ele><time>2026-05-02T09:13:50.99Z</time></trkpt><trkpt lat="44.8749633" lon="9.42169"><ele>588.5</ele><time>2026-05-02T09:13:51.989Z</time></trkpt><trkpt lat="44.8749483" lon="9.4215733"><ele>588.6666666666667</ele><time>2026-05-02T09:13:52.991Z</time></trkpt><trkpt lat="44.8749267" lon="9.4214667"><ele>588.8333333333334</ele><time>2026-05-02T09:13:53.99Z</time></trkpt><trkpt lat="44.8748983" lon="9.42138"><ele>589.0</ele><time>2026-05-02T09:13:54.99Z</time></trkpt><trkpt lat="44.874845" lon="9.4212417"><ele>589.0</ele><time>2026-05-02T09:13:56.991Z</time></trkpt><trkpt lat="44.8747617" lon="9.4211233"><ele>589.0</ele><time>2026-05-02T09:13:58.99Z</time></trkpt><trkpt lat="44.8747167" lon="9.4210383"><ele>589.0</ele><time>2026-05-02T09:13:59.99Z</time></trkpt><trkpt lat="44.874675" lon="9.4209217"><ele>589.0</ele><time>2026-05-02T09:14:00.99Z</time></trkpt><trkpt lat="44.874635" lon="9.4207983"><ele>589.0</ele><time>2026-05-02T09:14:01.991Z</time></trkpt><trkpt lat="44.8745917" lon="9.4206617"><ele>589.0</ele><time>2026-05-02T09:14:02.991Z</time></trkpt><trkpt lat="44.87455" lon="9.4205267"><ele>589.0</ele><time>2026-05-02T09:14:03.99Z</time></trkpt><trkpt lat="44.8745233" lon="9.4203867"><ele>589.0</ele><time>2026-05-02T09:14:04.991Z</time></trkpt><trkpt lat="44.87451" lon="9.4202483"><ele>589.0</ele><time>2026-05-02T09:14:05.99Z</time></trkpt><trkpt lat="44.8745" lon="9.42012"><ele>589.0</ele><time>2026-05-02T09:14:06.99Z</time></trkpt><trkpt lat="44.8744767" lon="9.4199883"><ele>589.2</ele><time>2026-05-02T09:14:07.99Z</time></trkpt><trkpt lat="44.8744483" lon="9.4198517"><ele>589.4</ele><time>2026-05-02T09:14:08.991Z</time></trkpt><trkpt lat="44.87441" lon="9.4197017"><ele>589.6</ele><time>2026-05-02T09:14:09.99Z</time></trkpt><trkpt lat="44.87438" lon="9.4195417"><ele>589.8</ele><time>2026-05-02T09:14:10.989Z</time></trkpt><trkpt lat="44.8743517" lon="9.4193817"><ele>590.0</ele><time>2026-05-02T09:14:11.99Z</time></trkpt><trkpt lat="44.8743233" lon="9.41923"><ele>590.0</ele><time>2026-05-02T09:14:12.99Z</time></trkpt><trkpt lat="44.8742933" lon="9.419085"><ele>590.0</ele><time>2026-05-02T09:14:13.99Z</time></trkpt><trkpt lat="44.874265" lon="9.4189517"><ele>590.0</ele><time>2026-05-02T09:14:14.991Z</time></trkpt><trkpt lat="44.874235" lon="9.4188167"><ele>590.0</ele><time>2026-05-02T09:14:15.99Z</time></trkpt><trkpt lat="44.8742067" lon="9.41868"><ele>590.0</ele><time>2026-05-02T09:14:16.99Z</time></trkpt><trkpt lat="44.8741767" lon="9.418555"><ele>594.4</ele><time>2026-05-02T09:14:17.99Z</time></trkpt><trkpt lat="44.87415" lon="9.4184367"><ele>598.8</ele><time>2026-05-02T09:14:18.989Z</time></trkpt><trkpt lat="44.8741233" lon="9.4183017"><ele>603.2</ele><time>2026-05-02T09:14:19.99Z</time></trkpt><trkpt lat="44.8740967" lon="9.4181633"><ele>607.6</ele><time>2026-05-02T09:14:20.992Z</time></trkpt><trkpt lat="44.8740717" lon="9.4180267"><ele>612.0</ele><time>2026-05-02T09:14:21.99Z</time></trkpt><trkpt lat="44.8740433" lon="9.4178933"><ele>612.0</ele><time>2026-05-02T09:14:22.989Z</time></trkpt><trkpt lat="44.87402" lon="9.41776"><ele>612.0</ele><time>2026-05-02T09:14:23.99Z</time></trkpt><trkpt lat="44.873995" lon="9.41762"><ele>612.0</ele><time>2026-05-02T09:14:24.991Z</time></trkpt><trkpt lat="44.8739667" lon="9.4174817"><ele>612.0</ele><time>2026-05-02T09:14:25.99Z</time></trkpt><trkpt lat="44.8739367" lon="9.4173533"><ele>612.0</ele><time>2026-05-02T09:14:26.991Z</time></trkpt><trkpt lat="44.8739017" lon="9.4172333"><ele>612.4</ele><time>2026-05-02T09:14:27.99Z</time></trkpt><trkpt lat="44.873845" lon="9.417135"><ele>612.8000000000001</ele><time>2026-05-02T09:14:28.99Z</time></trkpt><trkpt lat="44.8737833" lon="9.4170283"><ele>613.2</ele><time>2026-05-02T09:14:29.989Z</time></trkpt><trkpt lat="44.8737317" lon="9.416905"><ele>613.6</ele><time>2026-05-02T09:14:30.989Z</time></trkpt><trkpt lat="44.8736883" lon="9.41679"><ele>614.0</ele><time>2026-05-02T09:14:31.99Z</time></trkpt><trkpt lat="44.8736617" lon="9.4166683"><ele>614.0</ele><time>2026-05-02T09:14:32.992Z</time></trkpt><trkpt lat="44.873655" lon="9.4165533"><ele>614.0</ele><time>2026-05-02T09:14:33.991Z</time></trkpt><trkpt lat="44.8736567" lon="9.41644"><ele>614.0</ele><time>2026-05-02T09:14:34.991Z</time></trkpt><trkpt lat="44.8736667" lon="9.4163383"><ele>614.0</ele><time>2026-05-02T09:14:35.99Z</time></trkpt><trkpt lat="44.8737133" lon="9.416195"><ele>614.0</ele><time>2026-05-02T09:14:37.989Z</time></trkpt><trkpt lat="44.873755" lon="9.4161267"><ele>614.0</ele><time>2026-05-02T09:14:38.99Z</time></trkpt><trkpt lat="44.8737983" lon="9.416055"><ele>615.3333333333333</ele><time>2026-05-02T09:14:39.991Z</time></trkpt><trkpt lat="44.8738483" lon="9.415985"><ele>616.6666666666666</ele><time>2026-05-02T09:14:40.989Z</time></trkpt><trkpt lat="44.8739033" lon="9.4159267"><ele>618.0</ele><time>2026-05-02T09:14:41.99Z</time></trkpt><trkpt lat="44.87396" lon="9.415875"><ele>619.3333333333334</ele><time>2026-05-02T09:14:42.989Z</time></trkpt><trkpt lat="44.8740267" lon="9.415825"><ele>620.6666666666667</ele><time>2026-05-02T09:14:43.989Z</time></trkpt><trkpt lat="44.8741017" lon="9.4157767"><ele>622.0</ele><time>2026-05-02T09:14:44.991Z</time></trkpt><trkpt lat="44.8741783" lon="9.4157233"><ele>622.0</ele><time>2026-05-02T09:14:45.988Z</time></trkpt><trkpt lat="44.8742533" lon="9.4156517"><ele>622.0</ele><time>2026-05-02T09:14:46.988Z</time></trkpt><trkpt lat="44.87432" lon="9.4155533"><ele>622.0</ele><time>2026-05-02T09:14:47.989Z</time></trkpt><trkpt lat="44.874375" lon="9.415435"><ele>622.0</ele><time>2026-05-02T09:14:48.989Z</time></trkpt><trkpt lat="44.8744217" lon="9.4153033"><ele>622.0</ele><time>2026-05-02T09:14:49.989Z</time></trkpt><trkpt lat="44.8744583" lon="9.4151767"><ele>622.3333333333334</ele><time>2026-05-02T09:14:50.989Z</time></trkpt><trkpt lat="44.874465" lon="9.415055"><ele>622.6666666666667</ele><time>2026-05-02T09:14:51.988Z</time></trkpt><trkpt lat="44.874455" lon="9.41494"><ele>623.0</ele><time>2026-05-02T09:14:52.989Z</time></trkpt><trkpt lat="44.87444" lon="9.4148333"><ele>623.3333333333334</ele><time>2026-05-02T09:14:53.989Z</time></trkpt><trkpt lat="44.87442" lon="9.4147383"><ele>623.6666666666666</ele><time>2026-05-02T09:14:54.988Z</time></trkpt><trkpt lat="44.874385" lon="9.4145783"><ele>624.0</ele><time>2026-05-02T09:14:56.989Z</time></trkpt><trkpt lat="44.8743567" lon="9.41443"><ele>625.2</ele><time>2026-05-02T09:14:58.99Z</time></trkpt><trkpt lat="44.8743433" lon="9.4143383"><ele>626.4</ele><time>2026-05-02T09:14:59.991Z</time></trkpt><trkpt lat="44.8743283" lon="9.4142217"><ele>627.6</ele><time>2026-05-02T09:15:00.991Z</time></trkpt><trkpt lat="44.8743117" lon="9.414085"><ele>628.8</ele><time>2026-05-02T09:15:01.991Z</time></trkpt><trkpt lat="44.8742967" lon="9.4139433"><ele>630.0</ele><time>2026-05-02T09:15:02.991Z</time></trkpt><trkpt lat="44.87429" lon="9.4138017"><ele>630.0</ele><time>2026-05-02T09:15:03.991Z</time></trkpt><trkpt lat="44.8742983" lon="9.4136617"><ele>630.0</ele><time>2026-05-02T09:15:04.99Z</time></trkpt><trkpt lat="44.8743117" lon="9.4135183"><ele>630.0</ele><time>2026-05-02T09:15:05.991Z</time></trkpt><trkpt lat="44.8743317" lon="9.413375"><ele>630.0</ele><time>2026-05-02T09:15:06.989Z</time></trkpt><trkpt lat="44.8743567" lon="9.4132283"><ele>630.0</ele><time>2026-05-02T09:15:07.99Z</time></trkpt><trkpt lat="44.8743783" lon="9.413075"><ele>629.0</ele><time>2026-05-02T09:15:08.99Z</time></trkpt><trkpt lat="44.8744083" lon="9.4129283"><ele>628.0</ele><time>2026-05-02T09:15:09.989Z</time></trkpt><trkpt lat="44.8744533" lon="9.412795"><ele>627.0</ele><time>2026-05-02T09:15:10.989Z</time></trkpt><trkpt lat="44.87451" lon="9.41268"><ele>626.0</ele><time>2026-05-02T09:15:11.99Z</time></trkpt><trkpt lat="44.87456" lon="9.4125833"><ele>625.0</ele><time>2026-05-02T09:15:12.99Z</time></trkpt><trkpt lat="44.8745917" lon="9.412495"><ele>625.0</ele><time>2026-05-02T09:15:13.989Z</time></trkpt><trkpt lat="44.874605" lon="9.4123617"><ele>625.0</ele><time>2026-05-02T09:15:15.989Z</time></trkpt><trkpt lat="44.8745583" lon="9.41222"><ele>625.0</ele><time>2026-05-02T09:15:31.99Z</time></trkpt><trkpt lat="44.8745317" lon="9.4121367"><ele>625.0</ele><time>2026-05-02T09:15:32.991Z</time></trkpt><trkpt lat="44.8745067" lon="9.41205"><ele>625.0</ele><time>2026-05-02T09:15:33.989Z</time></trkpt><trkpt lat="44.8744967" lon="9.4119567"><ele>625.0</ele><time>2026-05-02T09:15:34.989Z</time></trkpt><trkpt lat="44.8745133" lon="9.41178"><ele>625.0</ele><time>2026-05-02T09:15:36.988Z</time></trkpt><trkpt lat="44.8745367" lon="9.4116833"><ele>625.0</ele><time>2026-05-02T09:15:37.989Z</time></trkpt><trkpt lat="44.8745433" lon="9.41158"><ele>625.0</ele><time>2026-05-02T09:15:38.989Z</time></trkpt><trkpt lat="44.8745383" lon="9.411475"><ele>625.0</ele><time>2026-05-02T09:15:39.989Z</time></trkpt><trkpt lat="44.8745133" lon="9.4113667"><ele>625.0</ele><time>2026-05-02T09:15:40.99Z</time></trkpt><trkpt lat="44.8744717" lon="9.4112733"><ele>625.0</ele><time>2026-05-02T09:15:41.989Z</time></trkpt><trkpt lat="44.8744183" lon="9.411195"><ele>625.5</ele><time>2026-05-02T09:15:42.99Z</time></trkpt><trkpt lat="44.8743483" lon="9.4111133"><ele>626.0</ele><time>2026-05-02T09:15:43.99Z</time></trkpt><trkpt lat="44.8742817" lon="9.4110283"><ele>626.5</ele><time>2026-05-02T09:15:44.989Z</time></trkpt><trkpt lat="44.8742267" lon="9.4109233"><ele>627.0</ele><time>2026-05-02T09:15:45.989Z</time></trkpt><trkpt lat="44.87419" lon="9.41081"><ele>627.5</ele><time>2026-05-02T09:15:46.989Z</time></trkpt><trkpt lat="44.8741683" lon="9.4106967"><ele>628.0</ele><time>2026-05-02T09:15:47.99Z</time></trkpt><trkpt lat="44.87415" lon="9.4105917"><ele>624.5</ele><time>2026-05-02T09:15:48.989Z</time></trkpt><trkpt lat="44.8741333" lon="9.4104733"><ele>621.0</ele><time>2026-05-02T09:15:49.99Z</time></trkpt><trkpt lat="44.8741233" lon="9.41035"><ele>617.5</ele><time>2026-05-02T09:15:50.99Z</time></trkpt><trkpt lat="44.87411" lon="9.41024"><ele>614.0</ele><time>2026-05-02T09:15:51.989Z</time></trkpt><trkpt lat="44.87409" lon="9.41015"><ele>610.5</ele><time>2026-05-02T09:15:52.989Z</time></trkpt><trkpt lat="44.8740667" lon="9.4100667"><ele>607.0</ele><time>2026-05-02T09:15:53.989Z</time></trkpt><trkpt lat="44.8740217" lon="9.4099517"><ele>607.0</ele><time>2026-05-02T09:15:55.99Z</time></trkpt><trkpt lat="44.87397" lon="9.4098983"><ele>607.0</ele><time>2026-05-02T09:15:57.99Z</time></trkpt><trkpt lat="44.8738783" lon="9.4098217"><ele>607.0</ele><time>2026-05-02T09:15:59.989Z</time></trkpt><trkpt lat="44.8738167" lon="9.4097617"><ele>607.0</ele><time>2026-05-02T09:16:00.989Z</time></trkpt><trkpt lat="44.8737417" lon="9.4097"><ele>607.0</ele><time>2026-05-02T09:16:01.989Z</time></trkpt><trkpt lat="44.8736583" lon="9.40965"><ele>607.0</ele><time>2026-05-02T09:16:02.99Z</time></trkpt><trkpt lat="44.8735717" lon="9.4096167"><ele>605.2</ele><time>2026-05-02T09:16:03.989Z</time></trkpt><trkpt lat="44.8734733" lon="9.4096"><ele>603.4000000000001</ele><time>2026-05-02T09:16:04.989Z</time></trkpt><trkpt lat="44.8733783" lon="9.4095883"><ele>601.5999999999999</ele><time>2026-05-02T09:16:05.989Z</time></trkpt><trkpt lat="44.87329" lon="9.409585"><ele>599.8</ele><time>2026-05-02T09:16:06.99Z</time></trkpt><trkpt lat="44.8732033" lon="9.4095967"><ele>598.0</ele><time>2026-05-02T09:16:07.989Z</time></trkpt><trkpt lat="44.873105" lon="9.409615"><ele>596.25</ele><time>2026-05-02T09:16:08.99Z</time></trkpt><trkpt lat="44.8729933" lon="9.4096317"><ele>594.5</ele><time>2026-05-02T09:16:09.991Z</time></trkpt><trkpt lat="44.8728783" lon="9.4096367"><ele>592.75</ele><time>2026-05-02T09:16:10.989Z</time></trkpt><trkpt lat="44.8727617" lon="9.4096383"><ele>591.0</ele><time>2026-05-02T09:16:11.989Z</time></trkpt><trkpt lat="44.872645" lon="9.4096417"><ele>589.6666666666666</ele><time>2026-05-02T09:16:12.989Z</time></trkpt><trkpt lat="44.8725367" lon="9.4096383"><ele>588.3333333333334</ele><time>2026-05-02T09:16:13.989Z</time></trkpt><trkpt lat="44.8724433" lon="9.409625"><ele>587.0</ele><time>2026-05-02T09:16:14.989Z</time></trkpt><trkpt lat="44.8723583" lon="9.4096183"><ele>585.6666666666667</ele><time>2026-05-02T09:16:15.99Z</time></trkpt><trkpt lat="44.8722833" lon="9.4096333"><ele>584.3333333333334</ele><time>2026-05-02T09:16:16.989Z</time></trkpt><trkpt lat="44.8722117" lon="9.409675"><ele>583.0</ele><time>2026-05-02T09:16:17.989Z</time></trkpt><trkpt lat="44.872135" lon="9.409735"><ele>583.0</ele><time>2026-05-02T09:16:18.989Z</time></trkpt><trkpt lat="44.8720533" lon="9.409825"><ele>583.0</ele><time>2026-05-02T09:16:19.989Z</time></trkpt><trkpt lat="44.8719683" lon="9.409915"><ele>583.0</ele><time>2026-05-02T09:16:20.99Z</time></trkpt><trkpt lat="44.8718767" lon="9.4100117"><ele>583.0</ele><time>2026-05-02T09:16:21.989Z</time></trkpt><trkpt lat="44.8717967" lon="9.410105"><ele>583.0</ele><time>2026-05-02T09:16:22.993Z</time></trkpt><trkpt lat="44.871715" lon="9.4102033"><ele>581.1666666666667</ele><time>2026-05-02T09:16:23.989Z</time></trkpt><trkpt lat="44.8716283" lon="9.410295"><ele>579.3333333333334</ele><time>2026-05-02T09:16:24.994Z</time></trkpt><trkpt lat="44.871555" lon="9.4103617"><ele>577.5</ele><time>2026-05-02T09:16:25.989Z</time></trkpt><trkpt lat="44.87149" lon="9.410425"><ele>575.6666666666666</ele><time>2026-05-02T09:16:26.99Z</time></trkpt><trkpt lat="44.871435" lon="9.41048"><ele>573.8333333333333</ele><time>2026-05-02T09:16:27.989Z</time></trkpt><trkpt lat="44.8713783" lon="9.4105317"><ele>572.0</ele><time>2026-05-02T09:16:28.989Z</time></trkpt><trkpt lat="44.8713233" lon="9.4105767"><ele>571.1666666666666</ele><time>2026-05-02T09:16:29.989Z</time></trkpt><trkpt lat="44.8712333" lon="9.4106517"><ele>570.3333333333333</ele><time>2026-05-02T09:16:31.989Z</time></trkpt><trkpt lat="44.871155" lon="9.410675"><ele>569.5</ele><time>2026-05-02T09:16:33.989Z</time></trkpt><trkpt lat="44.87109" lon="9.4106683"><ele>568.6666666666666</ele><time>2026-05-02T09:16:35.99Z</time></trkpt><trkpt lat="44.8710333" lon="9.41074"><ele>567.8333333333334</ele><time>2026-05-02T09:16:38.99Z</time></trkpt><trkpt lat="44.8709583" lon="9.4107317"><ele>567.0</ele><time>2026-05-02T09:16:40.989Z</time></trkpt><trkpt lat="44.870895" lon="9.4107017"><ele>567.0</ele><time>2026-05-02T09:16:42.988Z</time></trkpt><trkpt lat="44.8708567" lon="9.4108217"><ele>567.0</ele><time>2026-05-02T09:16:45.989Z</time></trkpt><trkpt lat="44.87087" lon="9.4109283"><ele>567.0</ele><time>2026-05-02T09:16:47.99Z</time></trkpt><trkpt lat="44.87093" lon="9.41106"><ele>567.0</ele><time>2026-05-02T09:16:49.989Z</time></trkpt><trkpt lat="44.870985" lon="9.4111317"><ele>567.0</ele><time>2026-05-02T09:16:50.99Z</time></trkpt><trkpt lat="44.87105" lon="9.4112033"><ele>567.0</ele><time>2026-05-02T09:16:51.989Z</time></trkpt><trkpt lat="44.871125" lon="9.41127"><ele>565.3333333333334</ele><time>2026-05-02T09:16:52.989Z</time></trkpt><trkpt lat="44.8711933" lon="9.4113417"><ele>563.6666666666666</ele><time>2026-05-02T09:16:53.989Z</time></trkpt><trkpt lat="44.8712617" lon="9.4114167"><ele>562.0</ele><time>2026-05-02T09:16:54.989Z</time></trkpt><trkpt lat="44.871315" lon="9.41151"><ele>560.3333333333333</ele><time>2026-05-02T09:16:55.989Z</time></trkpt><trkpt lat="44.8713533" lon="9.4116117"><ele>558.6666666666666</ele><time>2026-05-02T09:16:56.989Z</time></trkpt><trkpt lat="44.8713917" lon="9.4117167"><ele>557.0</ele><time>2026-05-02T09:16:57.989Z</time></trkpt><trkpt lat="44.8714383" lon="9.411825"><ele>557.0</ele><time>2026-05-02T09:16:58.993Z</time></trkpt><trkpt lat="44.8714933" lon="9.4119233"><ele>557.0</ele><time>2026-05-02T09:16:59.989Z</time></trkpt><trkpt lat="44.87154" lon="9.41202"><ele>557.0</ele><time>2026-05-02T09:17:00.989Z</time></trkpt><trkpt lat="44.8715733" lon="9.412115"><ele>557.0</ele><time>2026-05-02T09:17:01.989Z</time></trkpt><trkpt lat="44.8715817" lon="9.4122183"><ele>557.0</ele><time>2026-05-02T09:17:02.99Z</time></trkpt><trkpt lat="44.8715733" lon="9.41232"><ele>557.0</ele><time>2026-05-02T09:17:03.989Z</time></trkpt><trkpt lat="44.8715383" lon="9.4124167"><ele>556.5</ele><time>2026-05-02T09:17:04.989Z</time></trkpt><trkpt lat="44.8714967" lon="9.412505"><ele>556.0</ele><time>2026-05-02T09:17:05.989Z</time></trkpt><trkpt lat="44.8714467" lon="9.412585"><ele>555.5</ele><time>2026-05-02T09:17:06.989Z</time></trkpt><trkpt lat="44.8713833" lon="9.4126367"><ele>555.0</ele><time>2026-05-02T09:17:07.989Z</time></trkpt><trkpt lat="44.8713183" lon="9.412665"><ele>554.5</ele><time>2026-05-02T09:17:08.989Z</time></trkpt><trkpt lat="44.87124" lon="9.4126933"><ele>554.0</ele><time>2026-05-02T09:17:09.989Z</time></trkpt><trkpt lat="44.8711583" lon="9.4127367"><ele>554.0</ele><time>2026-05-02T09:17:10.989Z</time></trkpt><trkpt lat="44.87107" lon="9.4127933"><ele>554.0</ele><time>2026-05-02T09:17:11.989Z</time></trkpt><trkpt lat="44.8709933" lon="9.4128617"><ele>554.0</ele><time>2026-05-02T09:17:12.991Z</time></trkpt><trkpt lat="44.87092" lon="9.4129517"><ele>554.0</ele><time>2026-05-02T09:17:13.989Z</time></trkpt><trkpt lat="44.870855" lon="9.413035"><ele>554.0</ele><time>2026-05-02T09:17:14.99Z</time></trkpt><trkpt lat="44.870785" lon="9.4131067"><ele>552.0</ele><time>2026-05-02T09:17:15.989Z</time></trkpt><trkpt lat="44.8707" lon="9.4131517"><ele>550.0</ele><time>2026-05-02T09:17:16.989Z</time></trkpt><trkpt lat="44.8706067" lon="9.4131667"><ele>548.0</ele><time>2026-05-02T09:17:17.989Z</time></trkpt><trkpt lat="44.8705067" lon="9.4131733"><ele>546.0</ele><time>2026-05-02T09:17:18.989Z</time></trkpt><trkpt lat="44.8704083" lon="9.413185"><ele>544.0</ele><time>2026-05-02T09:17:19.989Z</time></trkpt><trkpt lat="44.8703083" lon="9.413195"><ele>544.0</ele><time>2026-05-02T09:17:20.989Z</time></trkpt><trkpt lat="44.87021" lon="9.4132067"><ele>544.0</ele><time>2026-05-02T09:17:21.989Z</time></trkpt><trkpt lat="44.8701117" lon="9.4132117"><ele>544.0</ele><time>2026-05-02T09:17:22.989Z</time></trkpt><trkpt lat="44.870025" lon="9.413215"><ele>544.0</ele><time>2026-05-02T09:17:23.99Z</time></trkpt><trkpt lat="44.8699483" lon="9.4132167"><ele>544.0</ele><time>2026-05-02T09:17:24.99Z</time></trkpt><trkpt lat="44.869885" lon="9.413205"><ele>544.0</ele><time>2026-05-02T09:17:25.989Z</time></trkpt><trkpt lat="44.869805" lon="9.4131217"><ele>541.8</ele><time>2026-05-02T09:17:27.991Z</time></trkpt><trkpt lat="44.869785" lon="9.41303"><ele>539.5999999999999</ele><time>2026-05-02T09:17:28.99Z</time></trkpt><trkpt lat="44.8697717" lon="9.412905"><ele>537.4</ele><time>2026-05-02T09:17:29.99Z</time></trkpt><trkpt lat="44.869765" lon="9.412745"><ele>535.1999999999999</ele><time>2026-05-02T09:17:30.989Z</time></trkpt><trkpt lat="44.8697567" lon="9.4125817"><ele>533.0</ele><time>2026-05-02T09:17:31.989Z</time></trkpt><trkpt lat="44.86974" lon="9.4124317"><ele>532.6</ele><time>2026-05-02T09:17:32.99Z</time></trkpt><trkpt lat="44.8697217" lon="9.4122883"><ele>532.1999999999999</ele><time>2026-05-02T09:17:33.99Z</time></trkpt><trkpt lat="44.8697" lon="9.41215"><ele>531.8</ele><time>2026-05-02T09:17:34.989Z</time></trkpt><trkpt lat="44.8696817" lon="9.4120117"><ele>531.4</ele><time>2026-05-02T09:17:35.989Z</time></trkpt><trkpt lat="44.8696633" lon="9.4118733"><ele>531.0</ele><time>2026-05-02T09:17:36.989Z</time></trkpt><trkpt lat="44.8696467" lon="9.41173"><ele>531.8</ele><time>2026-05-02T09:17:37.989Z</time></trkpt><trkpt lat="44.8696283" lon="9.411585"><ele>532.6</ele><time>2026-05-02T09:17:38.989Z</time></trkpt><trkpt lat="44.8696067" lon="9.4114383"><ele>533.4</ele><time>2026-05-02T09:17:39.989Z</time></trkpt><trkpt lat="44.8695783" lon="9.4112933"><ele>534.2</ele><time>2026-05-02T09:17:40.989Z</time></trkpt><trkpt lat="44.86955" lon="9.41115"><ele>535.0</ele><time>2026-05-02T09:17:41.99Z</time></trkpt><trkpt lat="44.86952" lon="9.4110083"><ele>535.8</ele><time>2026-05-02T09:17:42.989Z</time></trkpt><trkpt lat="44.8694933" lon="9.4108667"><ele>536.6</ele><time>2026-05-02T09:17:43.989Z</time></trkpt><trkpt lat="44.869475" lon="9.4107217"><ele>537.4</ele><time>2026-05-02T09:17:44.99Z</time></trkpt><trkpt lat="44.86947" lon="9.41057"><ele>538.2</ele><time>2026-05-02T09:17:45.989Z</time></trkpt><trkpt lat="44.8694667" lon="9.4104217"><ele>539.0</ele><time>2026-05-02T09:17:46.991Z</time></trkpt><trkpt lat="44.8694517" lon="9.4102833"><ele>539.0</ele><time>2026-05-02T09:17:47.989Z</time></trkpt><trkpt lat="44.8694217" lon="9.4101383"><ele>539.0</ele><time>2026-05-02T09:17:48.989Z</time></trkpt><trkpt lat="44.869375" lon="9.4100083"><ele>539.0</ele><time>2026-05-02T09:17:49.99Z</time></trkpt><trkpt lat="44.8693283" lon="9.4098733"><ele>539.0</ele><time>2026-05-02T09:17:50.99Z</time></trkpt><trkpt lat="44.8693067" lon="9.4097283"><ele>539.0</ele><time>2026-05-02T09:17:51.989Z</time></trkpt><trkpt lat="44.8693067" lon="9.4095783"><ele>536.2</ele><time>2026-05-02T09:17:52.989Z</time></trkpt><trkpt lat="44.8693183" lon="9.4094267"><ele>533.4</ele><time>2026-05-02T09:17:53.99Z</time></trkpt><trkpt lat="44.869335" lon="9.40928"><ele>530.6</ele><time>2026-05-02T09:17:54.989Z</time></trkpt><trkpt lat="44.86936" lon="9.4091367"><ele>527.8</ele><time>2026-05-02T09:17:55.99Z</time></trkpt><trkpt lat="44.8693967" lon="9.4090017"><ele>525.0</ele><time>2026-05-02T09:17:56.99Z</time></trkpt><trkpt lat="44.8694467" lon="9.408885"><ele>523.1666666666666</ele><time>2026-05-02T09:17:57.99Z</time></trkpt><trkpt lat="44.8695133" lon="9.4087883"><ele>521.3333333333334</ele><time>2026-05-02T09:17:58.989Z</time></trkpt><trkpt lat="44.8695917" lon="9.40872"><ele>519.5</ele><time>2026-05-02T09:17:59.989Z</time></trkpt><trkpt lat="44.869675" lon="9.4086733"><ele>517.6666666666667</ele><time>2026-05-02T09:18:00.989Z</time></trkpt><trkpt lat="44.8697517" lon="9.4086383"><ele>515.8333333333334</ele><time>2026-05-02T09:18:01.989Z</time></trkpt><trkpt lat="44.8698217" lon="9.4086033"><ele>514.0</ele><time>2026-05-02T09:18:02.99Z</time></trkpt><trkpt lat="44.86988" lon="9.4085583"><ele>514.0</ele><time>2026-05-02T09:18:03.989Z</time></trkpt><trkpt lat="44.86991" lon="9.4084283"><ele>514.0</ele><time>2026-05-02T09:18:05.989Z</time></trkpt><trkpt lat="44.8698717" lon="9.4083533"><ele>514.0</ele><time>2026-05-02T09:18:06.989Z</time></trkpt><trkpt lat="44.8697933" lon="9.4083033"><ele>514.0</ele><time>2026-05-02T09:18:07.989Z</time></trkpt><trkpt lat="44.869695" lon="9.4082783"><ele>514.0</ele><time>2026-05-02T09:18:08.99Z</time></trkpt><trkpt lat="44.8696" lon="9.4082783"><ele>514.0</ele><time>2026-05-02T09:18:09.989Z</time></trkpt><trkpt lat="44.86951" lon="9.4082817"><ele>514.0</ele><time>2026-05-02T09:18:10.989Z</time></trkpt><trkpt lat="44.8694233" lon="9.40828"><ele>514.0</ele><time>2026-05-02T09:18:11.991Z</time></trkpt><trkpt lat="44.8693383" lon="9.4082617"><ele>514.0</ele><time>2026-05-02T09:18:12.989Z</time></trkpt><trkpt lat="44.8692583" lon="9.4082267"><ele>514.0</ele><time>2026-05-02T09:18:13.99Z</time></trkpt><trkpt lat="44.869185" lon="9.4081733"><ele>514.0</ele><time>2026-05-02T09:18:14.99Z</time></trkpt><trkpt lat="44.869125" lon="9.408115"><ele>514.0</ele><time>2026-05-02T09:18:15.989Z</time></trkpt><trkpt lat="44.8690467" lon="9.4080217"><ele>511.6</ele><time>2026-05-02T09:18:17.99Z</time></trkpt><trkpt lat="44.868965" lon="9.4079033"><ele>509.2</ele><time>2026-05-02T09:18:19.989Z</time></trkpt><trkpt lat="44.8689117" lon="9.4078317"><ele>506.80000000000007</ele><time>2026-05-02T09:18:20.99Z</time></trkpt><trkpt lat="44.8688517" lon="9.4077517"><ele>504.40000000000003</ele><time>2026-05-02T09:18:21.99Z</time></trkpt><trkpt lat="44.8687833" lon="9.407665"><ele>502.0</ele><time>2026-05-02T09:18:22.989Z</time></trkpt><trkpt lat="44.8687167" lon="9.40757"><ele>502.0</ele><time>2026-05-02T09:18:23.991Z</time></trkpt><trkpt lat="44.8686567" lon="9.4074583"><ele>502.00000000000006</ele><time>2026-05-02T09:18:24.992Z</time></trkpt><trkpt lat="44.8686067" lon="9.4073367"><ele>502.00000000000006</ele><time>2026-05-02T09:18:25.991Z</time></trkpt><trkpt lat="44.8685683" lon="9.4071983"><ele>502.0</ele><time>2026-05-02T09:18:26.991Z</time></trkpt><trkpt lat="44.868535" lon="9.407045"><ele>502.0</ele><time>2026-05-02T09:18:27.991Z</time></trkpt><trkpt lat="44.8685033" lon="9.406885"><ele>503.20000000000005</ele><time>2026-05-02T09:18:28.991Z</time></trkpt><trkpt lat="44.8684733" lon="9.4067283"><ele>504.40000000000003</ele><time>2026-05-02T09:18:29.991Z</time></trkpt><trkpt lat="44.8684433" lon="9.40659"><ele>505.59999999999997</ele><time>2026-05-02T09:18:30.992Z</time></trkpt><trkpt lat="44.868415" lon="9.4064683"><ele>506.79999999999995</ele><time>2026-05-02T09:18:31.991Z</time></trkpt><trkpt lat="44.8683867" lon="9.40636"><ele>508.0</ele><time>2026-05-02T09:18:32.992Z</time></trkpt><trkpt lat="44.8683617" lon="9.4062667"><ele>504.59999999999997</ele><time>2026-05-02T09:18:33.992Z</time></trkpt><trkpt lat="44.8683167" lon="9.4061433"><ele>501.19999999999993</ele><time>2026-05-02T09:18:35.992Z</time></trkpt><trkpt lat="44.868255" lon="9.406125"><ele>497.8</ele><time>2026-05-02T09:18:37.993Z</time></trkpt><trkpt lat="44.8681517" lon="9.406155"><ele>494.4</ele><time>2026-05-02T09:18:39.991Z</time></trkpt><trkpt lat="44.8680567" lon="9.4062167"><ele>491.0</ele><time>2026-05-02T09:18:41.992Z</time></trkpt><trkpt lat="44.8679633" lon="9.4063183"><ele>491.0</ele><time>2026-05-02T09:18:43.992Z</time></trkpt><trkpt lat="44.8678817" lon="9.40642"><ele>491.0</ele><time>2026-05-02T09:18:45.991Z</time></trkpt><trkpt lat="44.86779" lon="9.40645"><ele>491.0</ele><time>2026-05-02T09:18:47.991Z</time></trkpt><trkpt lat="44.8676933" lon="9.4064683"><ele>491.0</ele><time>2026-05-02T09:18:49.989Z</time></trkpt><trkpt lat="44.8676217" lon="9.4064317"><ele>491.0</ele><time>2026-05-02T09:18:51.989Z</time></trkpt><trkpt lat="44.867625" lon="9.40631"><ele>491.0</ele><time>2026-05-02T09:18:53.989Z</time></trkpt><trkpt lat="44.867665" lon="9.4061733"><ele>491.0</ele><time>2026-05-02T09:18:55.989Z</time></trkpt><trkpt lat="44.8676967" lon="9.40601"><ele>491.0</ele><time>2026-05-02T09:18:57.989Z</time></trkpt><trkpt lat="44.8677117" lon="9.4058383"><ele>491.0</ele><time>2026-05-02T09:18:59.989Z</time></trkpt><trkpt lat="44.8677" lon="9.405685"><ele>489.99999999999994</ele><time>2026-05-02T09:19:01.989Z</time></trkpt><trkpt lat="44.8676617" lon="9.4054933"><ele>489.0</ele><time>2026-05-02T09:19:03.989Z</time></trkpt><trkpt lat="44.8676383" lon="9.40539"><ele>488.0</ele><time>2026-05-02T09:19:04.99Z</time></trkpt><trkpt lat="44.8676033" lon="9.4052833"><ele>487.0</ele><time>2026-05-02T09:19:05.99Z</time></trkpt><trkpt lat="44.8675683" lon="9.4052"><ele>485.99999999999994</ele><time>2026-05-02T09:19:06.99Z</time></trkpt><trkpt lat="44.8675267" lon="9.4051217"><ele>485.0</ele><time>2026-05-02T09:19:07.991Z</time></trkpt><trkpt lat="44.8674033" lon="9.4051083"><ele>485.0</ele><time>2026-05-02T09:19:09.99Z</time></trkpt><trkpt lat="44.867285" lon="9.4051267"><ele>485.0</ele><time>2026-05-02T09:19:11.989Z</time></trkpt><trkpt lat="44.8672183" lon="9.4051217"><ele>485.0</ele><time>2026-05-02T09:19:12.989Z</time></trkpt><trkpt lat="44.8671067" lon="9.4050967"><ele>485.0</ele><time>2026-05-02T09:19:14.989Z</time></trkpt><trkpt lat="44.8669967" lon="9.4050417"><ele>485.0</ele><time>2026-05-02T09:19:16.989Z</time></trkpt><trkpt lat="44.8669083" lon="9.404935"><ele>484.99999999999994</ele><time>2026-05-02T09:19:18.99Z</time></trkpt><trkpt lat="44.8668583" lon="9.4048583"><ele>485.0</ele><time>2026-05-02T09:19:21.99Z</time></trkpt><trkpt lat="44.86678" lon="9.404845"><ele>485.0</ele><time>2026-05-02T09:19:29.996Z</time></trkpt><trkpt lat="44.86671" lon="9.4047867"><ele>485.0</ele><time>2026-05-02T09:19:31.991Z</time></trkpt><trkpt lat="44.8667" lon="9.404675"><ele>484.99999999999994</ele><time>2026-05-02T09:19:34.99Z</time></trkpt><trkpt lat="44.8667617" lon="9.4046033"><ele>485.0</ele><time>2026-05-02T09:19:36.991Z</time></trkpt><trkpt lat="44.866825" lon="9.4045583"><ele>485.16666666666663</ele><time>2026-05-02T09:19:37.991Z</time></trkpt><trkpt lat="44.866895" lon="9.4045017"><ele>485.3333333333333</ele><time>2026-05-02T09:19:38.992Z</time></trkpt><trkpt lat="44.8669617" lon="9.404435"><ele>485.5</ele><time>2026-05-02T09:19:39.991Z</time></trkpt><trkpt lat="44.8670217" lon="9.4043683"><ele>485.66666666666663</ele><time>2026-05-02T09:19:40.991Z</time></trkpt><trkpt lat="44.8670433" lon="9.4042833"><ele>485.8333333333333</ele><time>2026-05-02T09:19:41.991Z</time></trkpt><trkpt lat="44.86703" lon="9.4041283"><ele>486.0</ele><time>2026-05-02T09:19:43.991Z</time></trkpt><trkpt lat="44.866985" lon="9.40406"><ele>486.0</ele><time>2026-05-02T09:19:44.992Z</time></trkpt><trkpt lat="44.866935" lon="9.4039917"><ele>486.0</ele><time>2026-05-02T09:19:45.99Z</time></trkpt><trkpt lat="44.86689" lon="9.40391"><ele>486.0</ele><time>2026-05-02T09:19:46.989Z</time></trkpt><trkpt lat="44.8668582" lon="9.4038261"><ele>486.0</ele><time>2026-05-02T09:19:47.99Z</time></trkpt><trkpt lat="44.8668379" lon="9.4036858"><ele>486.0</ele><time>2026-05-02T09:19:49.989Z</time></trkpt><trkpt lat="44.86684" lon="9.4035767"><ele>486.0</ele><time>2026-05-02T09:19:51.989Z</time></trkpt><trkpt lat="44.8668312" lon="9.4034558"><ele>486.8</ele><time>2026-05-02T09:19:54.99Z</time></trkpt><trkpt lat="44.8667967" lon="9.4033394"><ele>487.6</ele><time>2026-05-02T09:19:56.991Z</time></trkpt><trkpt lat="44.8667474" lon="9.4031822"><ele>488.4</ele><time>2026-05-02T09:19:58.989Z</time></trkpt><trkpt lat="44.8667231" lon="9.4030749"><ele>489.2</ele><time>2026-05-02T09:19:59.991Z</time></trkpt><trkpt lat="44.8666991" lon="9.4029586"><ele>490.0</ele><time>2026-05-02T09:20:00.989Z</time></trkpt><trkpt lat="44.8666807" lon="9.4028331"><ele>495.50000000000006</ele><time>2026-05-02T09:20:01.99Z</time></trkpt><trkpt lat="44.8666658" lon="9.4027096"><ele>501.0</ele><time>2026-05-02T09:20:02.99Z</time></trkpt><trkpt lat="44.8666603" lon="9.4025939"><ele>506.5</ele><time>2026-05-02T09:20:03.989Z</time></trkpt><trkpt lat="44.8666743" lon="9.4024752"><ele>512.0</ele><time>2026-05-02T09:20:04.989Z</time></trkpt><trkpt lat="44.8666995" lon="9.4023644"><ele>517.5</ele><time>2026-05-02T09:20:05.989Z</time></trkpt><trkpt lat="44.8667307" lon="9.4022582"><ele>523.0</ele><time>2026-05-02T09:20:06.989Z</time></trkpt><trkpt lat="44.8667588" lon="9.402158"><ele>525.6</ele><time>2026-05-02T09:20:07.989Z</time></trkpt><trkpt lat="44.866787" lon="9.4020122"><ele>528.1999999999999</ele><time>2026-05-02T09:20:09.989Z</time></trkpt><trkpt lat="44.8667865" lon="9.401849"><ele>530.8</ele><time>2026-05-02T09:20:11.989Z</time></trkpt><trkpt lat="44.866786" lon="9.4017552"><ele>533.4</ele><time>2026-05-02T09:20:12.99Z</time></trkpt><trkpt lat="44.8667804" lon="9.4016421"><ele>536.0</ele><time>2026-05-02T09:20:13.989Z</time></trkpt><trkpt lat="44.8667512" lon="9.4015158"><ele>536.0</ele><time>2026-05-02T09:20:14.99Z</time></trkpt><trkpt lat="44.8667337" lon="9.4013892"><ele>536.0</ele><time>2026-05-02T09:20:15.989Z</time></trkpt><trkpt lat="44.8667252" lon="9.4012618"><ele>536.0</ele><time>2026-05-02T09:20:16.99Z</time></trkpt><trkpt lat="44.866728" lon="9.4011281"><ele>536.0</ele><time>2026-05-02T09:20:17.989Z</time></trkpt><trkpt lat="44.8667486" lon="9.4010059"><ele>536.0</ele><time>2026-05-02T09:20:18.989Z</time></trkpt><trkpt lat="44.8667717" lon="9.4008929"><ele>536.0</ele><time>2026-05-02T09:20:19.991Z</time></trkpt><trkpt lat="44.8667964" lon="9.4007702"><ele>533.1666666666666</ele><time>2026-05-02T09:20:20.991Z</time></trkpt><trkpt lat="44.8668185" lon="9.400646"><ele>530.3333333333333</ele><time>2026-05-02T09:20:21.989Z</time></trkpt><trkpt lat="44.8668371" lon="9.4005271"><ele>527.5</ele><time>2026-05-02T09:20:22.99Z</time></trkpt><trkpt lat="44.8668463" lon="9.4004064"><ele>524.6666666666666</ele><time>2026-05-02T09:20:23.991Z</time></trkpt><trkpt lat="44.8668541" lon="9.4002844"><ele>521.8333333333334</ele><time>2026-05-02T09:20:24.989Z</time></trkpt><trkpt lat="44.8668607" lon="9.4001691"><ele>519.0</ele><time>2026-05-02T09:20:25.989Z</time></trkpt><trkpt lat="44.8668627" lon="9.4000568"><ele>519.0</ele><time>2026-05-02T09:20:26.99Z</time></trkpt><trkpt lat="44.8668651" lon="9.3999473"><ele>519.0</ele><time>2026-05-02T09:20:27.989Z</time></trkpt><trkpt lat="44.8668672" lon="9.3998294"><ele>519.0</ele><time>2026-05-02T09:20:28.989Z</time></trkpt><trkpt lat="44.8668672" lon="9.3997033"><ele>519.0</ele><time>2026-05-02T09:20:29.989Z</time></trkpt><trkpt lat="44.8668678" lon="9.3995589"><ele>519.0</ele><time>2026-05-02T09:20:30.991Z</time></trkpt><trkpt lat="44.8668625" lon="9.3994077"><ele>520.6</ele><time>2026-05-02T09:20:31.991Z</time></trkpt><trkpt lat="44.8668509" lon="9.3992542"><ele>522.2</ele><time>2026-05-02T09:20:32.99Z</time></trkpt><trkpt lat="44.8668465" lon="9.3990951"><ele>523.8000000000001</ele><time>2026-05-02T09:20:33.99Z</time></trkpt><trkpt lat="44.8668417" lon="9.3989412"><ele>525.4</ele><time>2026-05-02T09:20:34.99Z</time></trkpt><trkpt lat="44.8668461" lon="9.3988124"><ele>527.0</ele><time>2026-05-02T09:20:35.989Z</time></trkpt><trkpt lat="44.8668572" lon="9.3987045"><ele>528.1666666666666</ele><time>2026-05-02T09:20:36.989Z</time></trkpt><trkpt lat="44.8668726" lon="9.3985903"><ele>529.3333333333333</ele><time>2026-05-02T09:20:37.99Z</time></trkpt><trkpt lat="44.8668821" lon="9.398465"><ele>530.5</ele><time>2026-05-02T09:20:38.99Z</time></trkpt><trkpt lat="44.8668971" lon="9.3983452"><ele>531.6666666666666</ele><time>2026-05-02T09:20:39.99Z</time></trkpt><trkpt lat="44.8669137" lon="9.3982239"><ele>532.8333333333334</ele><time>2026-05-02T09:20:40.989Z</time></trkpt><trkpt lat="44.8669245" lon="9.3981016"><ele>534.0</ele><time>2026-05-02T09:20:41.991Z</time></trkpt><trkpt lat="44.8669338" lon="9.3979732"><ele>537.0</ele><time>2026-05-02T09:20:42.989Z</time></trkpt><trkpt lat="44.8669431" lon="9.3978401"><ele>540.0</ele><time>2026-05-02T09:20:43.99Z</time></trkpt><trkpt lat="44.8669479" lon="9.3977005"><ele>543.0</ele><time>2026-05-02T09:20:44.99Z</time></trkpt><trkpt lat="44.8669463" lon="9.3975589"><ele>546.0</ele><time>2026-05-02T09:20:45.99Z</time></trkpt><trkpt lat="44.8669292" lon="9.3974164"><ele>549.0</ele><time>2026-05-02T09:20:46.99Z</time></trkpt><trkpt lat="44.866935" lon="9.3972789"><ele>549.5</ele><time>2026-05-02T09:20:47.99Z</time></trkpt><trkpt lat="44.8669531" lon="9.3971499"><ele>550.0</ele><time>2026-05-02T09:20:48.99Z</time></trkpt><trkpt lat="44.8669715" lon="9.3970381"><ele>550.5</ele><time>2026-05-02T09:20:49.991Z</time></trkpt><trkpt lat="44.8669867" lon="9.3969311"><ele>551.0</ele><time>2026-05-02T09:20:50.992Z</time></trkpt><trkpt lat="44.8669899" lon="9.3968332"><ele>551.5</ele><time>2026-05-02T09:20:51.99Z</time></trkpt><trkpt lat="44.8669891" lon="9.3967347"><ele>552.0</ele><time>2026-05-02T09:20:52.99Z</time></trkpt><trkpt lat="44.8669104" lon="9.3966662"><ele>552.0</ele><time>2026-05-02T09:20:54.989Z</time></trkpt><trkpt lat="44.8668316" lon="9.3966647"><ele>552.0</ele><time>2026-05-02T09:20:56.99Z</time></trkpt><trkpt lat="44.866695" lon="9.3966733"><ele>552.0</ele><time>2026-05-02T09:21:25.99Z</time></trkpt><trkpt lat="44.86659" lon="9.3966217"><ele>552.0</ele><time>2026-05-02T09:21:27.989Z</time></trkpt><trkpt lat="44.86648" lon="9.3965333"><ele>555.0</ele><time>2026-05-02T09:21:29.99Z</time></trkpt><trkpt lat="44.8663967" lon="9.3964733"><ele>558.0</ele><time>2026-05-02T09:21:30.99Z</time></trkpt><trkpt lat="44.8663167" lon="9.3964167"><ele>561.0</ele><time>2026-05-02T09:21:31.99Z</time></trkpt><trkpt lat="44.866235" lon="9.3963617"><ele>564.0</ele><time>2026-05-02T09:21:32.989Z</time></trkpt><trkpt lat="44.8661717" lon="9.396315"><ele>567.0</ele><time>2026-05-02T09:21:33.989Z</time></trkpt><trkpt lat="44.8660767" lon="9.39627"><ele>570.0</ele><time>2026-05-02T09:21:35.989Z</time></trkpt><trkpt lat="44.8659733" lon="9.39627"><ele>572.1666666666666</ele><time>2026-05-02T09:21:38.989Z</time></trkpt><trkpt lat="44.8658717" lon="9.3962967"><ele>574.3333333333334</ele><time>2026-05-02T09:21:40.989Z</time></trkpt><trkpt lat="44.8657517" lon="9.39634"><ele>576.5</ele><time>2026-05-02T09:21:42.99Z</time></trkpt><trkpt lat="44.8656833" lon="9.3963517"><ele>578.6666666666667</ele><time>2026-05-02T09:21:43.99Z</time></trkpt><trkpt lat="44.8656117" lon="9.3963433"><ele>580.8333333333334</ele><time>2026-05-02T09:21:44.989Z</time></trkpt><trkpt lat="44.8655383" lon="9.39632"><ele>583.0</ele><time>2026-05-02T09:21:45.989Z</time></trkpt><trkpt lat="44.865465" lon="9.3962833"><ele>583.0</ele><time>2026-05-02T09:21:46.99Z</time></trkpt><trkpt lat="44.8653783" lon="9.3962333"><ele>583.0</ele><time>2026-05-02T09:21:47.99Z</time></trkpt><trkpt lat="44.8652933" lon="9.3961917"><ele>583.0</ele><time>2026-05-02T09:21:48.989Z</time></trkpt><trkpt lat="44.8651967" lon="9.3961667"><ele>583.0</ele><time>2026-05-02T09:21:49.991Z</time></trkpt><trkpt lat="44.8651017" lon="9.39613"><ele>583.0</ele><time>2026-05-02T09:21:50.99Z</time></trkpt><trkpt lat="44.8650217" lon="9.3960967"><ele>583.8</ele><time>2026-05-02T09:21:51.99Z</time></trkpt><trkpt lat="44.864935" lon="9.3960583"><ele>584.5999999999999</ele><time>2026-05-02T09:21:52.99Z</time></trkpt><trkpt lat="44.8648417" lon="9.3960117"><ele>585.4000000000001</ele><time>2026-05-02T09:21:53.991Z</time></trkpt><trkpt lat="44.8647533" lon="9.3959733"><ele>586.2</ele><time>2026-05-02T09:21:54.99Z</time></trkpt><trkpt lat="44.86467" lon="9.395945"><ele>587.0</ele><time>2026-05-02T09:21:55.99Z</time></trkpt><trkpt lat="44.864585" lon="9.3959067"><ele>587.0</ele><time>2026-05-02T09:21:56.99Z</time></trkpt><trkpt lat="44.8645" lon="9.3958567"><ele>587.0</ele><time>2026-05-02T09:21:57.989Z</time></trkpt><trkpt lat="44.86441" lon="9.39579"><ele>587.0</ele><time>2026-05-02T09:21:58.99Z</time></trkpt><trkpt lat="44.8643117" lon="9.3957117"><ele>587.0</ele><time>2026-05-02T09:21:59.99Z</time></trkpt><trkpt lat="44.8642217" lon="9.3956167"><ele>587.0</ele><time>2026-05-02T09:22:00.989Z</time></trkpt><trkpt lat="44.86414" lon="9.395525"><ele>586.6666666666666</ele><time>2026-05-02T09:22:01.99Z</time></trkpt><trkpt lat="44.8640183" lon="9.3954817"><ele>586.3333333333333</ele><time>2026-05-02T09:22:03.99Z</time></trkpt><trkpt lat="44.86395" lon="9.3954967"><ele>586.0</ele><time>2026-05-02T09:22:04.989Z</time></trkpt><trkpt lat="44.8638917" lon="9.3955433"><ele>585.6666666666666</ele><time>2026-05-02T09:22:05.991Z</time></trkpt><trkpt lat="44.8638133" lon="9.3956117"><ele>585.3333333333334</ele><time>2026-05-02T09:22:06.99Z</time></trkpt><trkpt lat="44.8637283" lon="9.3956733"><ele>585.0</ele><time>2026-05-02T09:22:07.99Z</time></trkpt><trkpt lat="44.863645" lon="9.3957417"><ele>588.6666666666666</ele><time>2026-05-02T09:22:08.99Z</time></trkpt><trkpt lat="44.86357" lon="9.3958233"><ele>592.3333333333334</ele><time>2026-05-02T09:22:09.989Z</time></trkpt><trkpt lat="44.8635167" lon="9.3959133"><ele>596.0</ele><time>2026-05-02T09:22:10.99Z</time></trkpt><trkpt lat="44.8634667" lon="9.3960083"><ele>599.6666666666667</ele><time>2026-05-02T09:22:11.99Z</time></trkpt><trkpt lat="44.8634333" lon="9.3961067"><ele>603.3333333333334</ele><time>2026-05-02T09:22:12.989Z</time></trkpt><trkpt lat="44.8633933" lon="9.39619"><ele>607.0</ele><time>2026-05-02T09:22:13.989Z</time></trkpt><trkpt lat="44.8633433" lon="9.3962483"><ele>607.0</ele><time>2026-05-02T09:22:14.99Z</time></trkpt><trkpt lat="44.863205" lon="9.3962833"><ele>607.0</ele><time>2026-05-02T09:22:16.989Z</time></trkpt><trkpt lat="44.8630783" lon="9.3962617"><ele>607.0</ele><time>2026-05-02T09:22:17.989Z</time></trkpt><trkpt lat="44.8629467" lon="9.3962333"><ele>607.0</ele><time>2026-05-02T09:22:18.989Z</time></trkpt><trkpt lat="44.8628367" lon="9.39622"><ele>607.0</ele><time>2026-05-02T09:22:19.989Z</time></trkpt><trkpt lat="44.8627583" lon="9.3962033"><ele>607.0</ele><time>2026-05-02T09:22:20.99Z</time></trkpt><trkpt lat="44.86269" lon="9.3961667"><ele>607.0</ele><time>2026-05-02T09:22:21.989Z</time></trkpt><trkpt lat="44.8626317" lon="9.3961183"><ele>607.0</ele><time>2026-05-02T09:22:22.989Z</time></trkpt><trkpt lat="44.8625783" lon="9.396035"><ele>607.0</ele><time>2026-05-02T09:22:23.989Z</time></trkpt><trkpt lat="44.8625233" lon="9.3959167"><ele>607.0</ele><time>2026-05-02T09:22:24.99Z</time></trkpt><trkpt lat="44.8624533" lon="9.3958233"><ele>605.8333333333334</ele><time>2026-05-02T09:22:25.989Z</time></trkpt><trkpt lat="44.8623883" lon="9.39574"><ele>604.6666666666667</ele><time>2026-05-02T09:22:26.991Z</time></trkpt><trkpt lat="44.8623117" lon="9.395685"><ele>603.5</ele><time>2026-05-02T09:22:27.991Z</time></trkpt><trkpt lat="44.86223" lon="9.3956267"><ele>602.3333333333334</ele><time>2026-05-02T09:22:28.99Z</time></trkpt><trkpt lat="44.862165" lon="9.395555"><ele>601.1666666666666</ele><time>2026-05-02T09:22:29.989Z</time></trkpt><trkpt lat="44.862105" lon="9.3954683"><ele>600.0</ele><time>2026-05-02T09:22:30.99Z</time></trkpt><trkpt lat="44.8620483" lon="9.39536"><ele>600.0</ele><time>2026-05-02T09:22:31.991Z</time></trkpt><trkpt lat="44.862005" lon="9.3952583"><ele>600.0</ele><time>2026-05-02T09:22:32.99Z</time></trkpt><trkpt lat="44.8619483" lon="9.395185"><ele>600.0</ele><time>2026-05-02T09:22:33.989Z</time></trkpt><trkpt lat="44.86186" lon="9.3950483"><ele>600.0</ele><time>2026-05-02T09:22:35.989Z</time></trkpt><trkpt lat="44.8618133" lon="9.394975"><ele>600.0</ele><time>2026-05-02T09:22:36.989Z</time></trkpt><trkpt lat="44.86176" lon="9.3949167"><ele>600.0</ele><time>2026-05-02T09:22:37.989Z</time></trkpt><trkpt lat="44.8616983" lon="9.394845"><ele>601.1666666666666</ele><time>2026-05-02T09:22:38.991Z</time></trkpt><trkpt lat="44.861615" lon="9.3948083"><ele>602.3333333333334</ele><time>2026-05-02T09:22:39.99Z</time></trkpt><trkpt lat="44.861525" lon="9.3947683"><ele>603.5</ele><time>2026-05-02T09:22:40.99Z</time></trkpt><trkpt lat="44.861445" lon="9.394735"><ele>604.6666666666667</ele><time>2026-05-02T09:22:41.991Z</time></trkpt><trkpt lat="44.8613683" lon="9.394705"><ele>605.8333333333334</ele><time>2026-05-02T09:22:42.989Z</time></trkpt><trkpt lat="44.861305" lon="9.3946783"><ele>607.0</ele><time>2026-05-02T09:22:43.99Z</time></trkpt><trkpt lat="44.8612333" lon="9.39465"><ele>607.0</ele><time>2026-05-02T09:22:44.992Z</time></trkpt><trkpt lat="44.8611617" lon="9.3946333"><ele>607.0</ele><time>2026-05-02T09:22:45.989Z</time></trkpt><trkpt lat="44.8610983" lon="9.3946217"><ele>607.0</ele><time>2026-05-02T09:22:46.991Z</time></trkpt><trkpt lat="44.8610033" lon="9.39462"><ele>607.0</ele><time>2026-05-02T09:22:48.99Z</time></trkpt><trkpt lat="44.8609167" lon="9.3946467"><ele>607.0</ele><time>2026-05-02T09:22:50.99Z</time></trkpt><trkpt lat="44.860835" lon="9.394685"><ele>607.0</ele><time>2026-05-02T09:22:52.989Z</time></trkpt><trkpt lat="44.8607517" lon="9.394725"><ele>611.3333333333334</ele><time>2026-05-02T09:22:54.989Z</time></trkpt><trkpt lat="44.86064" lon="9.3947483"><ele>615.6666666666667</ele><time>2026-05-02T09:22:56.99Z</time></trkpt><trkpt lat="44.8605567" lon="9.3947783"><ele>620.0</ele><time>2026-05-02T09:22:58.99Z</time></trkpt><trkpt lat="44.8604833" lon="9.3948467"><ele>624.3333333333334</ele><time>2026-05-02T09:23:01.989Z</time></trkpt><trkpt lat="44.8604317" lon="9.39491"><ele>628.6666666666666</ele><time>2026-05-02T09:23:03.99Z</time></trkpt><trkpt lat="44.8603733" lon="9.3949667"><ele>633.0</ele><time>2026-05-02T09:23:05.99Z</time></trkpt><trkpt lat="44.8603033" lon="9.3949733"><ele>633.0</ele><time>2026-05-02T09:23:07.99Z</time></trkpt><trkpt lat="44.8602233" lon="9.3949617"><ele>633.0</ele><time>2026-05-02T09:23:09.989Z</time></trkpt><trkpt lat="44.860125" lon="9.394955"><ele>633.0</ele><time>2026-05-02T09:23:11.99Z</time></trkpt><trkpt lat="44.86004" lon="9.394965"><ele>633.0</ele><time>2026-05-02T09:23:13.989Z</time></trkpt><trkpt lat="44.8599167" lon="9.3950117"><ele>633.0</ele><time>2026-05-02T09:24:05.989Z</time></trkpt><trkpt lat="44.85981" lon="9.3950633"><ele>633.3333333333334</ele><time>2026-05-02T09:24:07.99Z</time></trkpt><trkpt lat="44.8597083" lon="9.3951267"><ele>633.6666666666666</ele><time>2026-05-02T09:24:09.99Z</time></trkpt><trkpt lat="44.8596467" lon="9.3951917"><ele>634.0</ele><time>2026-05-02T09:24:11.989Z</time></trkpt><trkpt lat="44.8595983" lon="9.3952667"><ele>634.3333333333333</ele><time>2026-05-02T09:24:14.991Z</time></trkpt><trkpt lat="44.859565" lon="9.395345"><ele>634.6666666666666</ele><time>2026-05-02T09:24:31.99Z</time></trkpt><trkpt lat="44.859535" lon="9.3954483"><ele>635.0</ele><time>2026-05-02T09:24:33.989Z</time></trkpt><trkpt lat="44.8594967" lon="9.3955717"><ele>635.0</ele><time>2026-05-02T09:24:35.99Z</time></trkpt><trkpt lat="44.8594633" lon="9.3957083"><ele>635.0</ele><time>2026-05-02T09:24:37.99Z</time></trkpt><trkpt lat="44.8594417" lon="9.3958833"><ele>635.0</ele><time>2026-05-02T09:24:39.989Z</time></trkpt><trkpt lat="44.859435" lon="9.3959733"><ele>635.0</ele><time>2026-05-02T09:24:40.989Z</time></trkpt><trkpt lat="44.85942" lon="9.3961317"><ele>635.0</ele><time>2026-05-02T09:24:42.99Z</time></trkpt><trkpt lat="44.859415" lon="9.3962967"><ele>637.0</ele><time>2026-05-02T09:24:44.99Z</time></trkpt><trkpt lat="44.85943" lon="9.3963917"><ele>639.0</ele><time>2026-05-02T09:24:45.989Z</time></trkpt><trkpt lat="44.859445" lon="9.3964983"><ele>641.0</ele><time>2026-05-02T09:24:46.989Z</time></trkpt><trkpt lat="44.8594533" lon="9.3966083"><ele>643.0</ele><time>2026-05-02T09:24:47.99Z</time></trkpt><trkpt lat="44.8594533" lon="9.3967167"><ele>645.0</ele><time>2026-05-02T09:24:48.99Z</time></trkpt><trkpt lat="44.85945" lon="9.39682"><ele>647.0</ele><time>2026-05-02T09:24:49.99Z</time></trkpt><trkpt lat="44.85944" lon="9.3969333"><ele>647.0</ele><time>2026-05-02T09:24:50.99Z</time></trkpt><trkpt lat="44.8594283" lon="9.3970333"><ele>647.0</ele><time>2026-05-02T09:24:51.991Z</time></trkpt><trkpt lat="44.8594083" lon="9.3971317"><ele>647.0</ele><time>2026-05-02T09:24:52.989Z</time></trkpt><trkpt lat="44.859385" lon="9.39723"><ele>647.0</ele><time>2026-05-02T09:24:53.99Z</time></trkpt><trkpt lat="44.85935" lon="9.3973183"><ele>647.0</ele><time>2026-05-02T09:24:54.99Z</time></trkpt><trkpt lat="44.8593" lon="9.3973833"><ele>647.0</ele><time>2026-05-02T09:24:55.99Z</time></trkpt><trkpt lat="44.85925" lon="9.3974417"><ele>647.0</ele><time>2026-05-02T09:24:56.992Z</time></trkpt><trkpt lat="44.859195" lon="9.397495"><ele>645.8</ele><time>2026-05-02T09:24:57.991Z</time></trkpt><trkpt lat="44.8590783" lon="9.39757"><ele>644.6</ele><time>2026-05-02T09:24:59.991Z</time></trkpt><trkpt lat="44.8589717" lon="9.3976617"><ele>643.4</ele><time>2026-05-02T09:25:01.99Z</time></trkpt><trkpt lat="44.8589233" lon="9.3977367"><ele>642.1999999999999</ele><time>2026-05-02T09:25:02.99Z</time></trkpt><trkpt lat="44.858875" lon="9.39783"><ele>641.0</ele><time>2026-05-02T09:25:03.99Z</time></trkpt><trkpt lat="44.8588267" lon="9.3979183"><ele>641.0</ele><time>2026-05-02T09:25:04.99Z</time></trkpt><trkpt lat="44.8587783" lon="9.3979933"><ele>641.0</ele><time>2026-05-02T09:25:05.99Z</time></trkpt><trkpt lat="44.85872" lon="9.3980517"><ele>641.0</ele><time>2026-05-02T09:25:06.99Z</time></trkpt><trkpt lat="44.858655" lon="9.3980867"><ele>641.0</ele><time>2026-05-02T09:25:07.99Z</time></trkpt><trkpt lat="44.8585867" lon="9.3981033"><ele>641.0</ele><time>2026-05-02T09:25:08.992Z</time></trkpt><trkpt lat="44.8585167" lon="9.398105"><ele>641.0</ele><time>2026-05-02T09:25:09.99Z</time></trkpt><trkpt lat="44.8584467" lon="9.39809"><ele>641.0</ele><time>2026-05-02T09:25:10.99Z</time></trkpt><trkpt lat="44.85838" lon="9.3980767"><ele>640.8333333333333</ele><time>2026-05-02T09:25:11.991Z</time></trkpt><trkpt lat="44.8583167" lon="9.3980783"><ele>640.6666666666666</ele><time>2026-05-02T09:25:12.99Z</time></trkpt><trkpt lat="44.8582483" lon="9.3981"><ele>640.5</ele><time>2026-05-02T09:25:13.989Z</time></trkpt><trkpt lat="44.85817" lon="9.3981467"><ele>640.3333333333334</ele><time>2026-05-02T09:25:14.99Z</time></trkpt><trkpt lat="44.8580717" lon="9.3982083"><ele>640.1666666666667</ele><time>2026-05-02T09:25:15.989Z</time></trkpt><trkpt lat="44.8579683" lon="9.3982617"><ele>640.0</ele><time>2026-05-02T09:25:16.99Z</time></trkpt><trkpt lat="44.8578617" lon="9.3983033"><ele>640.0</ele><time>2026-05-02T09:25:17.99Z</time></trkpt><trkpt lat="44.8577567" lon="9.39833"><ele>640.0</ele><time>2026-05-02T09:25:18.99Z</time></trkpt><trkpt lat="44.857665" lon="9.3983467"><ele>640.0</ele><time>2026-05-02T09:25:19.99Z</time></trkpt><trkpt lat="44.8575983" lon="9.3983617"><ele>640.0</ele><time>2026-05-02T09:25:20.991Z</time></trkpt><trkpt lat="44.8575067" lon="9.3983867"><ele>640.0</ele><time>2026-05-02T09:25:22.991Z</time></trkpt><trkpt lat="44.8574183" lon="9.3983483"><ele>639.8</ele><time>2026-05-02T09:25:24.99Z</time></trkpt><trkpt lat="44.8573167" lon="9.3982983"><ele>639.6</ele><time>2026-05-02T09:25:26.991Z</time></trkpt><trkpt lat="44.8571933" lon="9.3982433"><ele>639.4</ele><time>2026-05-02T09:25:28.99Z</time></trkpt><trkpt lat="44.8571267" lon="9.3982017"><ele>639.2</ele><time>2026-05-02T09:25:29.99Z</time></trkpt><trkpt lat="44.85706" lon="9.398145"><ele>639.0</ele><time>2026-05-02T09:25:30.99Z</time></trkpt><trkpt lat="44.8569917" lon="9.3980833"><ele>639.0</ele><time>2026-05-02T09:25:31.99Z</time></trkpt><trkpt lat="44.8569183" lon="9.398015"><ele>639.0</ele><time>2026-05-02T09:25:32.99Z</time></trkpt><trkpt lat="44.85684" lon="9.39794"><ele>639.0</ele><time>2026-05-02T09:25:33.989Z</time></trkpt><trkpt lat="44.8567617" lon="9.397865"><ele>639.0</ele><time>2026-05-02T09:25:34.989Z</time></trkpt><trkpt lat="44.8566817" lon="9.3977917"><ele>639.0</ele><time>2026-05-02T09:25:35.991Z</time></trkpt><trkpt lat="44.8566033" lon="9.3977217"><ele>638.1666666666666</ele><time>2026-05-02T09:25:36.991Z</time></trkpt><trkpt lat="44.8565217" lon="9.3976717"><ele>637.3333333333334</ele><time>2026-05-02T09:25:37.989Z</time></trkpt><trkpt lat="44.85644" lon="9.397645"><ele>636.5</ele><time>2026-05-02T09:25:38.99Z</time></trkpt><trkpt lat="44.8563567" lon="9.397655"><ele>635.6666666666667</ele><time>2026-05-02T09:25:39.99Z</time></trkpt><trkpt lat="44.856275" lon="9.3976883"><ele>634.8333333333334</ele><time>2026-05-02T09:25:40.99Z</time></trkpt><trkpt lat="44.856195" lon="9.39772"><ele>634.0</ele><time>2026-05-02T09:25:41.99Z</time></trkpt><trkpt lat="44.8561117" lon="9.3977417"><ele>634.0</ele><time>2026-05-02T09:25:42.99Z</time></trkpt><trkpt lat="44.8560283" lon="9.3977283"><ele>634.0</ele><time>2026-05-02T09:25:43.99Z</time></trkpt><trkpt lat="44.8559583" lon="9.397675"><ele>634.0</ele><time>2026-05-02T09:25:44.99Z</time></trkpt><trkpt lat="44.8559283" lon="9.3975767"><ele>634.0</ele><time>2026-05-02T09:25:45.989Z</time></trkpt><trkpt lat="44.8559217" lon="9.3974567"><ele>634.0</ele><time>2026-05-02T09:25:46.99Z</time></trkpt><trkpt lat="44.85592" lon="9.3973367"><ele>634.0</ele><time>2026-05-02T09:25:47.99Z</time></trkpt><trkpt lat="44.8559233" lon="9.3972217"><ele>633.6666666666667</ele><time>2026-05-02T09:25:48.99Z</time></trkpt><trkpt lat="44.8559267" lon="9.397105"><ele>633.3333333333334</ele><time>2026-05-02T09:25:49.989Z</time></trkpt><trkpt lat="44.8559233" lon="9.3969933"><ele>633.0</ele><time>2026-05-02T09:25:50.989Z</time></trkpt><trkpt lat="44.85591" lon="9.3968833"><ele>632.6666666666666</ele><time>2026-05-02T09:25:51.989Z</time></trkpt><trkpt lat="44.8558833" lon="9.3967783"><ele>632.3333333333333</ele><time>2026-05-02T09:25:52.99Z</time></trkpt><trkpt lat="44.8558467" lon="9.3966833"><ele>632.0</ele><time>2026-05-02T09:25:53.989Z</time></trkpt><trkpt lat="44.8558033" lon="9.3965967"><ele>632.0</ele><time>2026-05-02T09:25:54.99Z</time></trkpt><trkpt lat="44.855755" lon="9.3965133"><ele>632.0</ele><time>2026-05-02T09:25:55.989Z</time></trkpt><trkpt lat="44.8557083" lon="9.3964183"><ele>632.0</ele><time>2026-05-02T09:25:56.989Z</time></trkpt><trkpt lat="44.855665" lon="9.396315"><ele>632.0</ele><time>2026-05-02T09:25:57.989Z</time></trkpt><trkpt lat="44.8556283" lon="9.3962083"><ele>632.0</ele><time>2026-05-02T09:25:58.99Z</time></trkpt><trkpt lat="44.8555917" lon="9.3961017"><ele>632.0</ele><time>2026-05-02T09:25:59.989Z</time></trkpt><trkpt lat="44.8555633" lon="9.3959967"><ele>631.5</ele><time>2026-05-02T09:26:00.989Z</time></trkpt><trkpt lat="44.85555" lon="9.3958967"><ele>631.0</ele><time>2026-05-02T09:26:01.99Z</time></trkpt><trkpt lat="44.855555" lon="9.3957933"><ele>630.5</ele><time>2026-05-02T09:26:02.989Z</time></trkpt><trkpt lat="44.85557" lon="9.3956917"><ele>630.0</ele><time>2026-05-02T09:26:03.989Z</time></trkpt><trkpt lat="44.8555967" lon="9.3955833"><ele>629.5</ele><time>2026-05-02T09:26:04.989Z</time></trkpt><trkpt lat="44.8556217" lon="9.3954767"><ele>629.0</ele><time>2026-05-02T09:26:05.989Z</time></trkpt><trkpt lat="44.8556433" lon="9.3953633"><ele>629.0</ele><time>2026-05-02T09:26:06.989Z</time></trkpt><trkpt lat="44.8556633" lon="9.3952483"><ele>629.0</ele><time>2026-05-02T09:26:07.989Z</time></trkpt><trkpt lat="44.8556733" lon="9.395135"><ele>629.0</ele><time>2026-05-02T09:26:08.99Z</time></trkpt><trkpt lat="44.855685" lon="9.3950217"><ele>629.0</ele><time>2026-05-02T09:26:09.991Z</time></trkpt><trkpt lat="44.8557" lon="9.394905"><ele>629.0</ele><time>2026-05-02T09:26:10.989Z</time></trkpt><trkpt lat="44.85572" lon="9.3947883"><ele>629.0</ele><time>2026-05-02T09:26:11.989Z</time></trkpt><trkpt lat="44.8557433" lon="9.394665"><ele>629.2</ele><time>2026-05-02T09:26:12.99Z</time></trkpt><trkpt lat="44.8557717" lon="9.39454"><ele>629.4</ele><time>2026-05-02T09:26:13.989Z</time></trkpt><trkpt lat="44.855805" lon="9.394415"><ele>629.6</ele><time>2026-05-02T09:26:14.99Z</time></trkpt><trkpt lat="44.8558417" lon="9.3942983"><ele>629.8</ele><time>2026-05-02T09:26:15.988Z</time></trkpt><trkpt lat="44.8558883" lon="9.3941867"><ele>630.0</ele><time>2026-05-02T09:26:16.989Z</time></trkpt><trkpt lat="44.8559333" lon="9.3940817"><ele>628.6</ele><time>2026-05-02T09:26:17.989Z</time></trkpt><trkpt lat="44.8559767" lon="9.39397"><ele>627.2</ele><time>2026-05-02T09:26:18.989Z</time></trkpt><trkpt lat="44.8560033" lon="9.3938483"><ele>625.8</ele><time>2026-05-02T09:26:19.989Z</time></trkpt><trkpt lat="44.85602" lon="9.3937117"><ele>624.4</ele><time>2026-05-02T09:26:20.989Z</time></trkpt><trkpt lat="44.8560333" lon="9.3935683"><ele>623.0</ele><time>2026-05-02T09:26:21.988Z</time></trkpt><trkpt lat="44.8560333" lon="9.3934317"><ele>623.0</ele><time>2026-05-02T09:26:22.989Z</time></trkpt><trkpt lat="44.8560233" lon="9.3933067"><ele>623.0</ele><time>2026-05-02T09:26:23.988Z</time></trkpt><trkpt lat="44.8560067" lon="9.393185"><ele>623.0</ele><time>2026-05-02T09:26:24.988Z</time></trkpt><trkpt lat="44.8559917" lon="9.393075"><ele>623.0</ele><time>2026-05-02T09:26:25.99Z</time></trkpt><trkpt lat="44.85598" lon="9.3929733"><ele>623.0</ele><time>2026-05-02T09:26:26.991Z</time></trkpt><trkpt lat="44.8559717" lon="9.3928767"><ele>623.0</ele><time>2026-05-02T09:26:27.99Z</time></trkpt><trkpt lat="44.8559733" lon="9.39278"><ele>622.3333333333333</ele><time>2026-05-02T09:26:28.989Z</time></trkpt><trkpt lat="44.8560017" lon="9.3926183"><ele>621.6666666666666</ele><time>2026-05-02T09:26:30.989Z</time></trkpt><trkpt lat="44.85598" lon="9.3924983"><ele>621.0</ele><time>2026-05-02T09:26:32.989Z</time></trkpt><trkpt lat="44.8559033" lon="9.3924517"><ele>620.3333333333334</ele><time>2026-05-02T09:26:34.989Z</time></trkpt><trkpt lat="44.85584" lon="9.3924617"><ele>619.6666666666667</ele><time>2026-05-02T09:26:35.988Z</time></trkpt><trkpt lat="44.8557633" lon="9.39247"><ele>619.0</ele><time>2026-05-02T09:26:36.988Z</time></trkpt><trkpt lat="44.855685" lon="9.3924533"><ele>620.8</ele><time>2026-05-02T09:26:37.99Z</time></trkpt><trkpt lat="44.8556067" lon="9.3924167"><ele>622.5999999999999</ele><time>2026-05-02T09:26:38.989Z</time></trkpt><trkpt lat="44.85553" lon="9.392375"><ele>624.4</ele><time>2026-05-02T09:26:39.989Z</time></trkpt><trkpt lat="44.8554467" lon="9.3923317"><ele>626.1999999999999</ele><time>2026-05-02T09:26:40.988Z</time></trkpt><trkpt lat="44.855355" lon="9.3922883"><ele>628.0</ele><time>2026-05-02T09:26:41.989Z</time></trkpt><trkpt lat="44.8552583" lon="9.3922383"><ele>628.0</ele><time>2026-05-02T09:26:42.988Z</time></trkpt><trkpt lat="44.855165" lon="9.39219"><ele>628.0</ele><time>2026-05-02T09:26:43.989Z</time></trkpt><trkpt lat="44.8550733" lon="9.3921433"><ele>628.0</ele><time>2026-05-02T09:26:44.99Z</time></trkpt><trkpt lat="44.8549817" lon="9.3920967"><ele>628.0</ele><time>2026-05-02T09:26:45.988Z</time></trkpt><trkpt lat="44.8548833" lon="9.39205"><ele>628.0</ele><time>2026-05-02T09:26:46.989Z</time></trkpt><trkpt lat="44.8547767" lon="9.3920083"><ele>626.8</ele><time>2026-05-02T09:26:47.989Z</time></trkpt><trkpt lat="44.854675" lon="9.3919617"><ele>625.5999999999999</ele><time>2026-05-02T09:26:48.989Z</time></trkpt><trkpt lat="44.854575" lon="9.3919183"><ele>624.4000000000001</ele><time>2026-05-02T09:26:49.989Z</time></trkpt><trkpt lat="44.85448" lon="9.3918783"><ele>623.2</ele><time>2026-05-02T09:26:50.989Z</time></trkpt><trkpt lat="44.8543867" lon="9.391845"><ele>622.0</ele><time>2026-05-02T09:26:51.989Z</time></trkpt><trkpt lat="44.8542983" lon="9.39181"><ele>623.6666666666667</ele><time>2026-05-02T09:26:52.989Z</time></trkpt><trkpt lat="44.8542067" lon="9.3917767"><ele>625.3333333333334</ele><time>2026-05-02T09:26:53.989Z</time></trkpt><trkpt lat="44.8541183" lon="9.3917467"><ele>627.0</ele><time>2026-05-02T09:26:54.989Z</time></trkpt><trkpt lat="44.854035" lon="9.391725"><ele>628.6666666666666</ele><time>2026-05-02T09:26:55.99Z</time></trkpt><trkpt lat="44.85396" lon="9.3917017"><ele>630.3333333333333</ele><time>2026-05-02T09:26:56.99Z</time></trkpt><trkpt lat="44.85389" lon="9.3916667"><ele>632.0</ele><time>2026-05-02T09:26:57.99Z</time></trkpt><trkpt lat="44.8538233" lon="9.3916133"><ele>632.0</ele><time>2026-05-02T09:26:58.99Z</time></trkpt><trkpt lat="44.85376" lon="9.3915367"><ele>632.0</ele><time>2026-05-02T09:26:59.99Z</time></trkpt><trkpt lat="44.853695" lon="9.3914467"><ele>632.0</ele><time>2026-05-02T09:27:00.99Z</time></trkpt><trkpt lat="44.85363" lon="9.391345"><ele>632.0</ele><time>2026-05-02T09:27:01.989Z</time></trkpt><trkpt lat="44.8535783" lon="9.391235"><ele>632.0</ele><time>2026-05-02T09:27:02.99Z</time></trkpt><trkpt lat="44.8535433" lon="9.39111"><ele>632.0</ele><time>2026-05-02T09:27:03.989Z</time></trkpt><trkpt lat="44.8535183" lon="9.3909783"><ele>632.0</ele><time>2026-05-02T09:27:04.989Z</time></trkpt><trkpt lat="44.8534983" lon="9.390845"><ele>632.0</ele><time>2026-05-02T09:27:05.99Z</time></trkpt><trkpt lat="44.85348" lon="9.3907133"><ele>632.0</ele><time>2026-05-02T09:27:06.99Z</time></trkpt><trkpt lat="44.8534683" lon="9.390585"><ele>632.0</ele><time>2026-05-02T09:27:07.989Z</time></trkpt><trkpt lat="44.85347" lon="9.390465"><ele>632.0</ele><time>2026-05-02T09:27:08.99Z</time></trkpt><trkpt lat="44.8534933" lon="9.39036"><ele>632.0</ele><time>2026-05-02T09:27:09.989Z</time></trkpt><trkpt lat="44.8535417" lon="9.390285"><ele>632.0</ele><time>2026-05-02T09:27:10.989Z</time></trkpt><trkpt lat="44.85364" lon="9.3902433"><ele>632.0</ele><time>2026-05-02T09:27:12.989Z</time></trkpt><trkpt lat="44.8537683" lon="9.3902433"><ele>632.0</ele><time>2026-05-02T09:27:14.989Z</time></trkpt><trkpt lat="44.8538433" lon="9.3902383"><ele>632.0000000000001</ele><time>2026-05-02T09:27:15.989Z</time></trkpt><trkpt lat="44.853925" lon="9.3902317"><ele>632.0</ele><time>2026-05-02T09:27:16.989Z</time></trkpt><trkpt lat="44.8540083" lon="9.3902317"><ele>632.0</ele><time>2026-05-02T09:27:17.989Z</time></trkpt><trkpt lat="44.8540883" lon="9.3902333"><ele>632.0</ele><time>2026-05-02T09:27:18.989Z</time></trkpt><trkpt lat="44.85416" lon="9.3902317"><ele>632.0</ele><time>2026-05-02T09:27:19.989Z</time></trkpt><trkpt lat="44.8542267" lon="9.390225"><ele>632.0000000000001</ele><time>2026-05-02T09:27:20.99Z</time></trkpt><trkpt lat="44.85429" lon="9.39021"><ele>632.0</ele><time>2026-05-02T09:27:21.989Z</time></trkpt><trkpt lat="44.854355" lon="9.39018"><ele>630.6666666666666</ele><time>2026-05-02T09:27:22.99Z</time></trkpt><trkpt lat="44.8544167" lon="9.3901333"><ele>629.3333333333333</ele><time>2026-05-02T09:27:23.989Z</time></trkpt><trkpt lat="44.854475" lon="9.3900667"><ele>628.0</ele><time>2026-05-02T09:27:24.989Z</time></trkpt><trkpt lat="44.8545183" lon="9.3899833"><ele>626.6666666666666</ele><time>2026-05-02T09:27:25.989Z</time></trkpt><trkpt lat="44.854535" lon="9.3898783"><ele>625.3333333333334</ele><time>2026-05-02T09:27:26.99Z</time></trkpt><trkpt lat="44.8545467" lon="9.38978"><ele>624.0</ele><time>2026-05-02T09:27:27.989Z</time></trkpt><trkpt lat="44.8545633" lon="9.3896233"><ele>624.0</ele><time>2026-05-02T09:27:29.99Z</time></trkpt><trkpt lat="44.8545767" lon="9.3895233"><ele>624.0</ele><time>2026-05-02T09:27:31.989Z</time></trkpt><trkpt lat="44.8545783" lon="9.3894333"><ele>624.0</ele><time>2026-05-02T09:27:33.989Z</time></trkpt><trkpt lat="44.85457" lon="9.3892717"><ele>624.0</ele><time>2026-05-02T09:27:35.989Z</time></trkpt><trkpt lat="44.854585" lon="9.3891833"><ele>624.0</ele><time>2026-05-02T09:27:36.99Z</time></trkpt><trkpt lat="44.8545917" lon="9.3890383"><ele>624.0</ele><time>2026-05-02T09:27:38.991Z</time></trkpt><trkpt lat="44.85455" lon="9.388925"><ele>627.6666666666666</ele><time>2026-05-02T09:27:40.989Z</time></trkpt><trkpt lat="44.8544717" lon="9.3888367"><ele>631.3333333333334</ele><time>2026-05-02T09:27:42.992Z</time></trkpt><trkpt lat="44.8543983" lon="9.3887867"><ele>635.0</ele><time>2026-05-02T09:27:44.989Z</time></trkpt><trkpt lat="44.8543633" lon="9.388685"><ele>638.6666666666667</ele><time>2026-05-02T09:27:48.989Z</time></trkpt><trkpt lat="44.8543817" lon="9.38857"><ele>642.3333333333334</ele><time>2026-05-02T09:27:51.989Z</time></trkpt><trkpt lat="44.8543767" lon="9.38845"><ele>646.0</ele><time>2026-05-02T09:27:54.99Z</time></trkpt><trkpt lat="44.85434" lon="9.3883683"><ele>646.0</ele><time>2026-05-02T09:27:57.989Z</time></trkpt><trkpt lat="44.8542917" lon="9.3882733"><ele>646.0</ele><time>2026-05-02T09:28:00.99Z</time></trkpt><trkpt lat="44.8541833" lon="9.3882917"><ele>646.0</ele><time>2026-05-02T09:28:07.989Z</time></trkpt><trkpt lat="44.8540783" lon="9.3883483"><ele>646.0</ele><time>2026-05-02T09:28:09.99Z</time></trkpt><trkpt lat="44.8539767" lon="9.3884183"><ele>646.0</ele><time>2026-05-02T09:28:11.989Z</time></trkpt><trkpt lat="44.8538883" lon="9.38849"><ele>646.3333333333334</ele><time>2026-05-02T09:28:13.989Z</time></trkpt><trkpt lat="44.8538283" lon="9.3885733"><ele>646.6666666666667</ele><time>2026-05-02T09:28:15.989Z</time></trkpt><trkpt lat="44.85382" lon="9.3886733"><ele>647.0</ele><time>2026-05-02T09:28:17.988Z</time></trkpt><trkpt lat="44.8538467" lon="9.3887583"><ele>647.3333333333334</ele><time>2026-05-02T09:28:19.99Z</time></trkpt><trkpt lat="44.85389" lon="9.3888417"><ele>647.6666666666666</ele><time>2026-05-02T09:28:22.989Z</time></trkpt><trkpt lat="44.85387" lon="9.3889667"><ele>648.0</ele><time>2026-05-02T09:32:34.989Z</time></trkpt><trkpt lat="44.8538117" lon="9.3888567"><ele>648.0</ele><time>2026-05-02T09:34:01.99Z</time></trkpt><trkpt lat="44.8537683" lon="9.3887883"><ele>648.0</ele><time>2026-05-02T09:34:03.989Z</time></trkpt><trkpt lat="44.8536983" lon="9.388735"><ele>648.0</ele><time>2026-05-02T09:34:05.989Z</time></trkpt><trkpt lat="44.8536267" lon="9.3886583"><ele>648.0</ele><time>2026-05-02T09:34:07.99Z</time></trkpt><trkpt lat="44.8535817" lon="9.38858"><ele>648.0</ele><time>2026-05-02T09:34:09.989Z</time></trkpt><trkpt lat="44.85355" lon="9.3884717"><ele>648.0</ele><time>2026-05-02T09:34:12.99Z</time></trkpt><trkpt lat="44.8535033" lon="9.3883383"><ele>648.0</ele><time>2026-05-02T09:34:25.989Z</time></trkpt><trkpt lat="44.85346" lon="9.3882283"><ele>648.0</ele><time>2026-05-02T09:34:29.99Z</time></trkpt><trkpt lat="44.8534417" lon="9.3881367"><ele>648.0</ele><time>2026-05-02T09:34:31.989Z</time></trkpt><trkpt lat="44.8534317" lon="9.3880467"><ele>648.0</ele><time>2026-05-02T09:34:33.989Z</time></trkpt><trkpt lat="44.8534133" lon="9.3879533"><ele>648.0</ele><time>2026-05-02T09:34:36.989Z</time></trkpt><trkpt lat="44.8533583" lon="9.3878633"><ele>648.0</ele><time>2026-05-02T09:35:09.989Z</time></trkpt><trkpt lat="44.8533133" lon="9.3877917"><ele>648.0</ele><time>2026-05-02T09:35:12.99Z</time></trkpt><trkpt lat="44.8532517" lon="9.3877433"><ele>651.1666666666666</ele><time>2026-05-02T09:35:15.988Z</time></trkpt><trkpt lat="44.8531767" lon="9.3877017"><ele>654.3333333333334</ele><time>2026-05-02T09:35:24.989Z</time></trkpt><trkpt lat="44.8530983" lon="9.3876633"><ele>657.5</ele><time>2026-05-02T09:35:26.989Z</time></trkpt><trkpt lat="44.853035" lon="9.3876167"><ele>660.6666666666667</ele><time>2026-05-02T09:35:28.989Z</time></trkpt><trkpt lat="44.8529683" lon="9.3875367"><ele>663.8333333333334</ele><time>2026-05-02T09:35:30.989Z</time></trkpt><trkpt lat="44.8529133" lon="9.3874317"><ele>667.0</ele><time>2026-05-02T09:35:32.989Z</time></trkpt><trkpt lat="44.8528583" lon="9.3873833"><ele>667.0</ele><time>2026-05-02T09:35:45.989Z</time></trkpt><trkpt lat="44.8527867" lon="9.3872717"><ele>667.0</ele><time>2026-05-02T09:35:47.989Z</time></trkpt><trkpt lat="44.85274" lon="9.3871967"><ele>667.0</ele><time>2026-05-02T09:35:48.989Z</time></trkpt><trkpt lat="44.8526933" lon="9.3871183"><ele>667.0</ele><time>2026-05-02T09:35:49.99Z</time></trkpt><trkpt lat="44.85264" lon="9.3870483"><ele>667.0</ele><time>2026-05-02T09:35:50.989Z</time></trkpt><trkpt lat="44.85259" lon="9.38699"><ele>667.0</ele><time>2026-05-02T09:35:51.989Z</time></trkpt><trkpt lat="44.8524883" lon="9.3869367"><ele>670.2857142857143</ele><time>2026-05-02T09:35:53.989Z</time></trkpt><trkpt lat="44.8524183" lon="9.3869183"><ele>673.5714285714286</ele><time>2026-05-02T09:35:55.989Z</time></trkpt><trkpt lat="44.8523783" lon="9.3868333"><ele>676.8571428571429</ele><time>2026-05-02T09:35:58.989Z</time></trkpt><trkpt lat="44.8524033" lon="9.3867467"><ele>680.1428571428571</ele><time>2026-05-02T09:36:01.989Z</time></trkpt><trkpt lat="44.852465" lon="9.386715"><ele>683.4285714285714</ele><time>2026-05-02T09:36:03.989Z</time></trkpt><trkpt lat="44.85255" lon="9.3866717"><ele>686.7142857142858</ele><time>2026-05-02T09:36:05.989Z</time></trkpt><trkpt lat="44.8526217" lon="9.386625"><ele>690.0</ele><time>2026-05-02T09:36:07.989Z</time></trkpt><trkpt lat="44.8526783" lon="9.386575"><ele>690.0</ele><time>2026-05-02T09:36:23.99Z</time></trkpt><trkpt lat="44.8527083" lon="9.3864617"><ele>690.0</ele><time>2026-05-02T09:36:26.99Z</time></trkpt><trkpt lat="44.8527117" lon="9.38636"><ele>690.0</ele><time>2026-05-02T09:36:28.989Z</time></trkpt><trkpt lat="44.8526833" lon="9.3862667"><ele>690.0</ele><time>2026-05-02T09:36:31.989Z</time></trkpt><trkpt lat="44.8526367" lon="9.3861883"><ele>690.0</ele><time>2026-05-02T09:38:10.988Z</time></trkpt><trkpt lat="44.8525467" lon="9.3860433"><ele>690.0</ele><time>2026-05-02T09:39:01.989Z</time></trkpt><trkpt lat="44.85252" lon="9.3859467"><ele>695.0</ele><time>2026-05-02T09:39:45.989Z</time></trkpt><trkpt lat="44.8525017" lon="9.3858517"><ele>700.0</ele><time>2026-05-02T09:39:49.989Z</time></trkpt><trkpt lat="44.8525017" lon="9.3857517"><ele>705.0</ele><time>2026-05-02T09:39:52.99Z</time></trkpt><trkpt lat="44.8525217" lon="9.3856467"><ele>710.0</ele><time>2026-05-02T09:39:57.99Z</time></trkpt><trkpt lat="44.8525467" lon="9.38547"><ele>715.0</ele><time>2026-05-02T09:40:13.989Z</time></trkpt><trkpt lat="44.8524817" lon="9.3854717"><ele>720.0</ele><time>2026-05-02T09:42:28.988Z</time></trkpt><trkpt lat="44.852445" lon="9.3853983"><ele>722.8333333333334</ele><time>2026-05-02T09:48:13.991Z</time></trkpt><trkpt lat="44.85245" lon="9.3852933"><ele>725.6666666666666</ele><time>2026-05-02T09:48:15.99Z</time></trkpt><trkpt lat="44.8524617" lon="9.3851767"><ele>728.5</ele><time>2026-05-02T09:48:17.99Z</time></trkpt><trkpt lat="44.852465" lon="9.3850583"><ele>731.3333333333333</ele><time>2026-05-02T09:48:19.99Z</time></trkpt><trkpt lat="44.8524833" lon="9.3849017"><ele>734.1666666666666</ele><time>2026-05-02T09:48:27.99Z</time></trkpt><trkpt lat="44.8525217" lon="9.3847983"><ele>737.0</ele><time>2026-05-02T09:48:30.989Z</time></trkpt><trkpt lat="44.852545" lon="9.38469"><ele>739.6666666666666</ele><time>2026-05-02T09:48:33.989Z</time></trkpt><trkpt lat="44.8525467" lon="9.384595"><ele>742.3333333333333</ele><time>2026-05-02T09:48:35.99Z</time></trkpt><trkpt lat="44.8525433" lon="9.3844767"><ele>745.0</ele><time>2026-05-02T09:48:37.989Z</time></trkpt><trkpt lat="44.8525617" lon="9.3843333"><ele>747.6666666666666</ele><time>2026-05-02T09:48:39.991Z</time></trkpt><trkpt lat="44.85256" lon="9.3842067"><ele>750.3333333333334</ele><time>2026-05-02T09:48:41.992Z</time></trkpt><trkpt lat="44.8525283" lon="9.3840883"><ele>753.0</ele><time>2026-05-02T09:48:43.989Z</time></trkpt><trkpt lat="44.8524783" lon="9.3839933"><ele>753.0</ele><time>2026-05-02T09:48:46.988Z</time></trkpt><trkpt lat="44.8524067" lon="9.383955"><ele>753.0</ele><time>2026-05-02T09:48:50.989Z</time></trkpt><trkpt lat="44.8523333" lon="9.383965"><ele>753.0</ele><time>2026-05-02T09:48:54.99Z</time></trkpt><trkpt lat="44.8522317" lon="9.3840033"><ele>753.0</ele><time>2026-05-02T09:49:04.988Z</time></trkpt><trkpt lat="44.85212" lon="9.38403"><ele>753.0</ele><time>2026-05-02T09:49:06.989Z</time></trkpt><trkpt lat="44.852045" lon="9.3840417"><ele>753.0</ele><time>2026-05-02T09:49:07.99Z</time></trkpt><trkpt lat="44.8519667" lon="9.3840517"><ele>753.0</ele><time>2026-05-02T09:49:08.99Z</time></trkpt><trkpt lat="44.8518833" lon="9.38405"><ele>753.0</ele><time>2026-05-02T09:49:09.988Z</time></trkpt><trkpt lat="44.85181" lon="9.384032"><ele>753.0</ele><time>2026-05-02T09:49:10.989Z</time></trkpt><trkpt lat="44.851751" lon="9.3839855"><ele>753.0</ele><time>2026-05-02T09:49:11.989Z</time></trkpt><trkpt lat="44.8517093" lon="9.3839139"><ele>753.0</ele><time>2026-05-02T09:49:12.989Z</time></trkpt><trkpt lat="44.8516302" lon="9.3838122"><ele>753.0</ele><time>2026-05-02T09:49:14.991Z</time></trkpt><trkpt lat="44.8515603" lon="9.3838194"><ele>755.8333333333334</ele><time>2026-05-02T09:49:16.989Z</time></trkpt><trkpt lat="44.8514546" lon="9.3838631"><ele>758.6666666666667</ele><time>2026-05-02T09:49:18.989Z</time></trkpt><trkpt lat="44.8513868" lon="9.3838678"><ele>761.5</ele><time>2026-05-02T09:49:19.989Z</time></trkpt><trkpt lat="44.8513162" lon="9.3838794"><ele>764.3333333333334</ele><time>2026-05-02T09:49:20.99Z</time></trkpt><trkpt lat="44.8512336" lon="9.3839023"><ele>767.1666666666667</ele><time>2026-05-02T09:49:21.989Z</time></trkpt><trkpt lat="44.8511444" lon="9.3839251"><ele>770.0</ele><time>2026-05-02T09:49:22.99Z</time></trkpt><trkpt lat="44.8510581" lon="9.3839459"><ele>770.0000000000001</ele><time>2026-05-02T09:49:23.989Z</time></trkpt><trkpt lat="44.8509702" lon="9.3839785"><ele>770.0</ele><time>2026-05-02T09:49:24.989Z</time></trkpt><trkpt lat="44.8509004" lon="9.3840239"><ele>770.0</ele><time>2026-05-02T09:49:25.989Z</time></trkpt><trkpt lat="44.8508306" lon="9.3840609"><ele>770.0</ele><time>2026-05-02T09:49:26.99Z</time></trkpt><trkpt lat="44.8507559" lon="9.3840748"><ele>770.0000000000001</ele><time>2026-05-02T09:49:27.989Z</time></trkpt><trkpt lat="44.8506843" lon="9.3840578"><ele>770.0</ele><time>2026-05-02T09:49:28.99Z</time></trkpt><trkpt lat="44.8506063" lon="9.3840179"><ele>772.1666666666667</ele><time>2026-05-02T09:49:29.989Z</time></trkpt><trkpt lat="44.8505209" lon="9.3839647"><ele>774.3333333333334</ele><time>2026-05-02T09:49:30.989Z</time></trkpt><trkpt lat="44.8504428" lon="9.3839113"><ele>776.5</ele><time>2026-05-02T09:49:31.989Z</time></trkpt><trkpt lat="44.8503753" lon="9.3838527"><ele>778.6666666666667</ele><time>2026-05-02T09:49:32.99Z</time></trkpt><trkpt lat="44.8503201" lon="9.3837733"><ele>780.8333333333334</ele><time>2026-05-02T09:49:33.99Z</time></trkpt><trkpt lat="44.8502682" lon="9.3836868"><ele>783.0</ele><time>2026-05-02T09:49:34.99Z</time></trkpt><trkpt lat="44.850216" lon="9.3836041"><ele>783.6666666666666</ele><time>2026-05-02T09:49:35.991Z</time></trkpt><trkpt lat="44.8501585" lon="9.3835298"><ele>784.3333333333333</ele><time>2026-05-02T09:49:36.989Z</time></trkpt><trkpt lat="44.8500947" lon="9.3834642"><ele>785.0</ele><time>2026-05-02T09:49:37.992Z</time></trkpt><trkpt lat="44.8500254" lon="9.3834037"><ele>785.6666666666666</ele><time>2026-05-02T09:49:38.991Z</time></trkpt><trkpt lat="44.8499484" lon="9.383345"><ele>786.3333333333333</ele><time>2026-05-02T09:49:39.991Z</time></trkpt><trkpt lat="44.8498796" lon="9.383282"><ele>787.0</ele><time>2026-05-02T09:49:40.989Z</time></trkpt><trkpt lat="44.8498232" lon="9.3832129"><ele>788.8333333333333</ele><time>2026-05-02T09:49:41.989Z</time></trkpt><trkpt lat="44.8497761" lon="9.3831453"><ele>790.6666666666666</ele><time>2026-05-02T09:49:42.989Z</time></trkpt><trkpt lat="44.8496965" lon="9.3830678"><ele>792.5</ele><time>2026-05-02T09:49:44.991Z</time></trkpt><trkpt lat="44.8496042" lon="9.3830432"><ele>794.3333333333333</ele><time>2026-05-02T09:49:46.99Z</time></trkpt><trkpt lat="44.849492" lon="9.3830842"><ele>796.1666666666666</ele><time>2026-05-02T09:49:48.991Z</time></trkpt><trkpt lat="44.8494274" lon="9.3831322"><ele>798.0</ele><time>2026-05-02T09:49:49.991Z</time></trkpt><trkpt lat="44.8493451" lon="9.3831861"><ele>800.3333333333334</ele><time>2026-05-02T09:49:50.99Z</time></trkpt><trkpt lat="44.8492685" lon="9.3832292"><ele>802.6666666666667</ele><time>2026-05-02T09:49:51.989Z</time></trkpt><trkpt lat="44.8491962" lon="9.3832544"><ele>805.0</ele><time>2026-05-02T09:49:52.989Z</time></trkpt><trkpt lat="44.8491228" lon="9.3832522"><ele>807.3333333333334</ele><time>2026-05-02T09:49:53.989Z</time></trkpt><trkpt lat="44.8490478" lon="9.3832341"><ele>809.6666666666667</ele><time>2026-05-02T09:49:54.989Z</time></trkpt><trkpt lat="44.8489701" lon="9.3832115"><ele>812.0</ele><time>2026-05-02T09:49:55.99Z</time></trkpt><trkpt lat="44.8488925" lon="9.3832007"><ele>812.0000000000001</ele><time>2026-05-02T09:49:56.991Z</time></trkpt><trkpt lat="44.8488103" lon="9.3831949"><ele>812.0</ele><time>2026-05-02T09:49:57.991Z</time></trkpt><trkpt lat="44.8487307" lon="9.3831922"><ele>812.0</ele><time>2026-05-02T09:49:58.991Z</time></trkpt><trkpt lat="44.8486623" lon="9.3831772"><ele>812.0</ele><time>2026-05-02T09:49:59.989Z</time></trkpt><trkpt lat="44.8486024" lon="9.3831479"><ele>812.0000000000001</ele><time>2026-05-02T09:50:00.99Z</time></trkpt><trkpt lat="44.8485283" lon="9.3830157"><ele>812.0</ele><time>2026-05-02T09:50:02.99Z</time></trkpt><trkpt lat="44.8484984" lon="9.3828748"><ele>813.8333333333334</ele><time>2026-05-02T09:50:04.989Z</time></trkpt><trkpt lat="44.8484905" lon="9.3827805"><ele>815.6666666666667</ele><time>2026-05-02T09:50:09.989Z</time></trkpt><trkpt lat="44.848434" lon="9.3827087"><ele>817.5</ele><time>2026-05-02T09:50:28.989Z</time></trkpt><trkpt lat="44.8483744" lon="9.3826373"><ele>819.3333333333333</ele><time>2026-05-02T09:50:29.993Z</time></trkpt><trkpt lat="44.8483001" lon="9.382555"><ele>821.1666666666666</ele><time>2026-05-02T09:50:30.99Z</time></trkpt><trkpt lat="44.8482062" lon="9.3824529"><ele>823.0</ele><time>2026-05-02T09:50:31.99Z</time></trkpt><trkpt lat="44.8481009" lon="9.3823437"><ele>826.25</ele><time>2026-05-02T09:50:32.99Z</time></trkpt><trkpt lat="44.8479959" lon="9.382228"><ele>829.5</ele><time>2026-05-02T09:50:33.991Z</time></trkpt><trkpt lat="44.8478996" lon="9.3821133"><ele>832.75</ele><time>2026-05-02T09:50:34.989Z</time></trkpt><trkpt lat="44.8478149" lon="9.3820181"><ele>836.0</ele><time>2026-05-02T09:50:35.991Z</time></trkpt><trkpt lat="44.8477223" lon="9.3819368"><ele>836.3333333333334</ele><time>2026-05-02T09:50:36.989Z</time></trkpt><trkpt lat="44.8476316" lon="9.3818805"><ele>836.6666666666667</ele><time>2026-05-02T09:50:37.989Z</time></trkpt><trkpt lat="44.8475515" lon="9.3818465"><ele>837.0</ele><time>2026-05-02T09:50:38.99Z</time></trkpt><trkpt lat="44.8474756" lon="9.3818287"><ele>837.3333333333333</ele><time>2026-05-02T09:50:39.99Z</time></trkpt><trkpt lat="44.8474116" lon="9.381831"><ele>837.6666666666666</ele><time>2026-05-02T09:50:40.989Z</time></trkpt><trkpt lat="44.8473415" lon="9.3818182"><ele>838.0</ele><time>2026-05-02T09:50:42.989Z</time></trkpt><trkpt lat="44.8473237" lon="9.3817128"><ele>838.5999999999999</ele><time>2026-05-02T09:50:45.989Z</time></trkpt><trkpt lat="44.8472736" lon="9.3816302"><ele>839.1999999999999</ele><time>2026-05-02T09:50:47.989Z</time></trkpt><trkpt lat="44.8471917" lon="9.3815367"><ele>839.8</ele><time>2026-05-02T09:50:49.989Z</time></trkpt><trkpt lat="44.8471233" lon="9.3814"><ele>840.4</ele><time>2026-05-02T09:50:51.989Z</time></trkpt><trkpt lat="44.847045" lon="9.3812617"><ele>841.0</ele><time>2026-05-02T09:50:53.989Z</time></trkpt><trkpt lat="44.846995" lon="9.3811017"><ele>839.5999999999999</ele><time>2026-05-02T09:50:55.991Z</time></trkpt><trkpt lat="44.8469833" lon="9.380945"><ele>838.2</ele><time>2026-05-02T09:50:57.99Z</time></trkpt><trkpt lat="44.8469533" lon="9.3807917"><ele>836.8</ele><time>2026-05-02T09:50:59.99Z</time></trkpt><trkpt lat="44.8469067" lon="9.3806883"><ele>835.4000000000001</ele><time>2026-05-02T09:51:01.989Z</time></trkpt><trkpt lat="44.8468533" lon="9.3806333"><ele>834.0</ele><time>2026-05-02T09:51:02.989Z</time></trkpt><trkpt lat="44.8468083" lon="9.3805"><ele>832.0</ele><time>2026-05-02T09:51:04.989Z</time></trkpt><trkpt lat="44.8468233" lon="9.3803333"><ele>830.0</ele><time>2026-05-02T09:51:06.989Z</time></trkpt><trkpt lat="44.84681" lon="9.380245"><ele>828.0</ele><time>2026-05-02T09:51:07.989Z</time></trkpt><trkpt lat="44.84677" lon="9.380155"><ele>826.0</ele><time>2026-05-02T09:51:09.989Z</time></trkpt><trkpt lat="44.8466767" lon="9.3801583"><ele>824.0</ele><time>2026-05-02T09:51:11.991Z</time></trkpt><trkpt lat="44.8465917" lon="9.3801867"><ele>822.0</ele><time>2026-05-02T09:51:12.989Z</time></trkpt><trkpt lat="44.846505" lon="9.3802067"><ele>820.3333333333334</ele><time>2026-05-02T09:51:13.991Z</time></trkpt><trkpt lat="44.84644" lon="9.3801983"><ele>818.6666666666667</ele><time>2026-05-02T09:51:14.989Z</time></trkpt><trkpt lat="44.84634" lon="9.3801"><ele>817.0</ele><time>2026-05-02T09:51:16.989Z</time></trkpt><trkpt lat="44.8463217" lon="9.3800133"><ele>815.3333333333334</ele><time>2026-05-02T09:51:17.99Z</time></trkpt><trkpt lat="44.8463583" lon="9.3798417"><ele>813.6666666666667</ele><time>2026-05-02T09:51:19.989Z</time></trkpt><trkpt lat="44.8463817" lon="9.3797567"><ele>812.0</ele><time>2026-05-02T09:51:20.99Z</time></trkpt><trkpt lat="44.8464067" lon="9.3796667"><ele>809.3333333333334</ele><time>2026-05-02T09:51:21.989Z</time></trkpt><trkpt lat="44.8464283" lon="9.379575"><ele>806.6666666666667</ele><time>2026-05-02T09:51:22.99Z</time></trkpt><trkpt lat="44.8464433" lon="9.379475"><ele>804.0</ele><time>2026-05-02T09:51:23.989Z</time></trkpt><trkpt lat="44.8464483" lon="9.3793717"><ele>801.3333333333333</ele><time>2026-05-02T09:51:24.989Z</time></trkpt><trkpt lat="44.8464467" lon="9.37926"><ele>798.6666666666666</ele><time>2026-05-02T09:51:25.989Z</time></trkpt><trkpt lat="44.8464467" lon="9.3791367"><ele>796.0</ele><time>2026-05-02T09:51:26.991Z</time></trkpt><trkpt lat="44.84645" lon="9.3790233"><ele>795.9999999999999</ele><time>2026-05-02T09:51:27.989Z</time></trkpt><trkpt lat="44.8464517" lon="9.37892"><ele>796.0</ele><time>2026-05-02T09:51:28.99Z</time></trkpt><trkpt lat="44.8464483" lon="9.37882"><ele>796.0</ele><time>2026-05-02T09:51:29.989Z</time></trkpt><trkpt lat="44.846455" lon="9.3787317"><ele>796.0</ele><time>2026-05-02T09:51:30.989Z</time></trkpt><trkpt lat="44.84645" lon="9.3785733"><ele>795.9999999999999</ele><time>2026-05-02T09:51:32.99Z</time></trkpt><trkpt lat="44.8463667" lon="9.378585"><ele>796.0</ele><time>2026-05-02T09:51:35.99Z</time></trkpt><trkpt lat="44.8463283" lon="9.37868"><ele>796.0</ele><time>2026-05-02T09:51:36.989Z</time></trkpt><trkpt lat="44.8462883" lon="9.3787717"><ele>796.0</ele><time>2026-05-02T09:51:37.991Z</time></trkpt><trkpt lat="44.846225" lon="9.3788883"><ele>796.0</ele><time>2026-05-02T09:51:38.99Z</time></trkpt><trkpt lat="44.846155" lon="9.3790067"><ele>796.0</ele><time>2026-05-02T09:51:39.99Z</time></trkpt><trkpt lat="44.84607" lon="9.3791133"><ele>796.0</ele><time>2026-05-02T09:51:40.99Z</time></trkpt><trkpt lat="44.8459933" lon="9.3791983"><ele>791.9999999999999</ele><time>2026-05-02T09:51:41.99Z</time></trkpt><trkpt lat="44.845915" lon="9.37928"><ele>788.0</ele><time>2026-05-02T09:51:42.989Z</time></trkpt><trkpt lat="44.8458417" lon="9.379355"><ele>784.0</ele><time>2026-05-02T09:51:43.989Z</time></trkpt><trkpt lat="44.8457733" lon="9.37941"><ele>780.0</ele><time>2026-05-02T09:51:44.989Z</time></trkpt><trkpt lat="44.8456783" lon="9.379375"><ele>775.9999999999999</ele><time>2026-05-02T09:51:46.989Z</time></trkpt><trkpt lat="44.8456783" lon="9.3792633"><ele>772.0</ele><time>2026-05-02T09:51:48.989Z</time></trkpt><trkpt lat="44.8457583" lon="9.3791433"><ele>772.0000000000001</ele><time>2026-05-02T09:51:50.99Z</time></trkpt><trkpt lat="44.8458" lon="9.3790583"><ele>772.0</ele><time>2026-05-02T09:51:51.99Z</time></trkpt><trkpt lat="44.8458267" lon="9.3789717"><ele>772.0</ele><time>2026-05-02T09:51:52.989Z</time></trkpt><trkpt lat="44.8458483" lon="9.378885"><ele>772.0</ele><time>2026-05-02T09:51:53.99Z</time></trkpt><trkpt lat="44.8458583" lon="9.3787833"><ele>772.0</ele><time>2026-05-02T09:51:54.991Z</time></trkpt><trkpt lat="44.8458417" lon="9.3786667"><ele>772.0000000000001</ele><time>2026-05-02T09:51:55.989Z</time></trkpt><trkpt lat="44.845825" lon="9.3785517"><ele>772.0</ele><time>2026-05-02T09:51:56.991Z</time></trkpt><trkpt lat="44.8458083" lon="9.378445"><ele>769.3333333333333</ele><time>2026-05-02T09:51:57.989Z</time></trkpt><trkpt lat="44.8458033" lon="9.3783417"><ele>766.6666666666666</ele><time>2026-05-02T09:51:58.989Z</time></trkpt><trkpt lat="44.84581" lon="9.3782383"><ele>764.0</ele><time>2026-05-02T09:51:59.989Z</time></trkpt><trkpt lat="44.8458283" lon="9.3781483"><ele>761.3333333333333</ele><time>2026-05-02T09:52:00.99Z</time></trkpt><trkpt lat="44.8458483" lon="9.3779983"><ele>758.6666666666666</ele><time>2026-05-02T09:52:02.989Z</time></trkpt><trkpt lat="44.84578" lon="9.3780517"><ele>756.0</ele><time>2026-05-02T09:52:05.99Z</time></trkpt><trkpt lat="44.8457017" lon="9.3782367"><ele>756.0</ele><time>2026-05-02T09:52:07.99Z</time></trkpt><trkpt lat="44.8456533" lon="9.3783283"><ele>756.0</ele><time>2026-05-02T09:52:08.991Z</time></trkpt><trkpt lat="44.8456" lon="9.378405"><ele>756.0</ele><time>2026-05-02T09:52:09.989Z</time></trkpt><trkpt lat="44.8455017" lon="9.3784383"><ele>756.0</ele><time>2026-05-02T09:52:11.989Z</time></trkpt><trkpt lat="44.845455" lon="9.3783783"><ele>756.0</ele><time>2026-05-02T09:52:12.99Z</time></trkpt><trkpt lat="44.8454233" lon="9.3782983"><ele>756.0</ele><time>2026-05-02T09:52:13.989Z</time></trkpt><trkpt lat="44.8453567" lon="9.3781683"><ele>756.0</ele><time>2026-05-02T09:52:15.989Z</time></trkpt><trkpt lat="44.8452733" lon="9.37807"><ele>756.0</ele><time>2026-05-02T09:52:17.99Z</time></trkpt><trkpt lat="44.8452083" lon="9.37801"><ele>756.0</ele><time>2026-05-02T09:52:19.99Z</time></trkpt><trkpt lat="44.8451633" lon="9.377945"><ele>756.0</ele><time>2026-05-02T09:52:31.99Z</time></trkpt><trkpt lat="44.8450883" lon="9.3778117"><ele>756.0</ele><time>2026-05-02T09:52:33.989Z</time></trkpt><trkpt lat="44.8450433" lon="9.3777"><ele>751.5</ele><time>2026-05-02T09:52:34.989Z</time></trkpt><trkpt lat="44.8450067" lon="9.3775733"><ele>747.0</ele><time>2026-05-02T09:52:35.99Z</time></trkpt><trkpt lat="44.84498" lon="9.377465"><ele>742.5</ele><time>2026-05-02T09:52:36.99Z</time></trkpt><trkpt lat="44.8449467" lon="9.377365"><ele>738.0</ele><time>2026-05-02T09:52:37.991Z</time></trkpt><trkpt lat="44.8449067" lon="9.3772667"><ele>733.5</ele><time>2026-05-02T09:52:38.991Z</time></trkpt><trkpt lat="44.8448617" lon="9.3771733"><ele>729.0</ele><time>2026-05-02T09:52:39.989Z</time></trkpt><trkpt lat="44.844825" lon="9.3770833"><ele>725.6666666666666</ele><time>2026-05-02T09:52:40.991Z</time></trkpt><trkpt lat="44.8447833" lon="9.37701"><ele>722.3333333333334</ele><time>2026-05-02T09:52:41.989Z</time></trkpt><trkpt lat="44.8447333" lon="9.3769117"><ele>719.0</ele><time>2026-05-02T09:52:43.99Z</time></trkpt><trkpt lat="44.844695" lon="9.376835"><ele>715.6666666666667</ele><time>2026-05-02T09:52:45.99Z</time></trkpt><trkpt lat="44.8446333" lon="9.3767283"><ele>712.3333333333334</ele><time>2026-05-02T09:52:48.989Z</time></trkpt><trkpt lat="44.8445783" lon="9.376665"><ele>709.0</ele><time>2026-05-02T09:52:50.99Z</time></trkpt><trkpt lat="44.8445233" lon="9.3766167"><ele>709.0</ele><time>2026-05-02T09:52:52.989Z</time></trkpt><trkpt lat="44.8444383" lon="9.3765717"><ele>709.0</ele><time>2026-05-02T09:52:55.992Z</time></trkpt><trkpt lat="44.84437" lon="9.3765533"><ele>709.0</ele><time>2026-05-02T09:52:57.989Z</time></trkpt><trkpt lat="44.844285" lon="9.3765117"><ele>709.0</ele><time>2026-05-02T09:53:00.989Z</time></trkpt><trkpt lat="44.84422" lon="9.3764833"><ele>709.0</ele><time>2026-05-02T09:53:02.99Z</time></trkpt><trkpt lat="44.8441333" lon="9.376455"><ele>709.0</ele><time>2026-05-02T09:53:04.99Z</time></trkpt><trkpt lat="44.8440433" lon="9.3764583"><ele>709.3333333333334</ele><time>2026-05-02T09:53:06.99Z</time></trkpt><trkpt lat="44.8439567" lon="9.37644"><ele>709.6666666666667</ele><time>2026-05-02T09:53:08.99Z</time></trkpt><trkpt lat="44.8438667" lon="9.37637"><ele>710.0</ele><time>2026-05-02T09:53:10.989Z</time></trkpt><trkpt lat="44.8438133" lon="9.37632"><ele>710.3333333333334</ele><time>2026-05-02T09:53:11.99Z</time></trkpt><trkpt lat="44.8437567" lon="9.3762717"><ele>710.6666666666666</ele><time>2026-05-02T09:53:12.989Z</time></trkpt><trkpt lat="44.8436683" lon="9.3761867"><ele>711.0</ele><time>2026-05-02T09:53:14.991Z</time></trkpt><trkpt lat="44.8435933" lon="9.3761683"><ele>707.8333333333334</ele><time>2026-05-02T09:53:16.989Z</time></trkpt><trkpt lat="44.8435267" lon="9.3761467"><ele>704.6666666666666</ele><time>2026-05-02T09:53:18.99Z</time></trkpt><trkpt lat="44.8434717" lon="9.37619"><ele>701.5</ele><time>2026-05-02T09:53:21.991Z</time></trkpt><trkpt lat="44.84338" lon="9.3762383"><ele>698.3333333333333</ele><time>2026-05-02T09:53:34.99Z</time></trkpt><trkpt lat="44.8433167" lon="9.3762633"><ele>695.1666666666666</ele><time>2026-05-02T09:53:36.989Z</time></trkpt><trkpt lat="44.84323" lon="9.376285"><ele>692.0</ele><time>2026-05-02T09:53:39.989Z</time></trkpt><trkpt lat="44.8431617" lon="9.3762967"><ele>692.0</ele><time>2026-05-02T09:53:41.99Z</time></trkpt><trkpt lat="44.8430833" lon="9.376315"><ele>692.0</ele><time>2026-05-02T09:53:43.989Z</time></trkpt><trkpt lat="44.8429583" lon="9.3763567"><ele>692.0</ele><time>2026-05-02T09:53:45.989Z</time></trkpt><trkpt lat="44.84288" lon="9.3763733"><ele>692.0</ele><time>2026-05-02T09:53:46.99Z</time></trkpt><trkpt lat="44.8428083" lon="9.3763833"><ele>692.0</ele><time>2026-05-02T09:53:47.99Z</time></trkpt><trkpt lat="44.8427033" lon="9.3764067"><ele>692.0</ele><time>2026-05-02T09:53:49.99Z</time></trkpt><trkpt lat="44.8426533" lon="9.3763467"><ele>692.0</ele><time>2026-05-02T09:53:51.99Z</time></trkpt><trkpt lat="44.8426617" lon="9.376195"><ele>692.0</ele><time>2026-05-02T09:53:53.989Z</time></trkpt><trkpt lat="44.84268" lon="9.3760933"><ele>692.0</ele><time>2026-05-02T09:53:54.99Z</time></trkpt><trkpt lat="44.8426967" lon="9.375995"><ele>692.0</ele><time>2026-05-02T09:53:55.99Z</time></trkpt><trkpt lat="44.8427083" lon="9.375905"><ele>692.0</ele><time>2026-05-02T09:53:56.99Z</time></trkpt><trkpt lat="44.8427133" lon="9.3757483"><ele>692.0</ele><time>2026-05-02T09:53:58.989Z</time></trkpt><trkpt lat="44.84267" lon="9.375605"><ele>692.0</ele><time>2026-05-02T09:54:00.989Z</time></trkpt><trkpt lat="44.8426183" lon="9.3755"><ele>692.0</ele><time>2026-05-02T09:54:02.991Z</time></trkpt><trkpt lat="44.8425867" lon="9.3753867"><ele>692.0</ele><time>2026-05-02T09:54:04.99Z</time></trkpt><trkpt lat="44.8425667" lon="9.3752817"><ele>692.0</ele><time>2026-05-02T09:54:06.989Z</time></trkpt><trkpt lat="44.8425367" lon="9.37519"><ele>692.0</ele><time>2026-05-02T09:54:08.99Z</time></trkpt><trkpt lat="44.8424917" lon="9.3750667"><ele>691.1666666666666</ele><time>2026-05-02T09:54:19.989Z</time></trkpt><trkpt lat="44.8424883" lon="9.374965"><ele>690.3333333333333</ele><time>2026-05-02T09:54:22.99Z</time></trkpt><trkpt lat="44.8424933" lon="9.3748517"><ele>689.5</ele><time>2026-05-02T09:54:25.989Z</time></trkpt><trkpt lat="44.842465" lon="9.37475"><ele>688.6666666666666</ele><time>2026-05-02T09:54:28.99Z</time></trkpt><trkpt lat="44.8424983" lon="9.374665"><ele>687.8333333333334</ele><time>2026-05-02T09:54:32.991Z</time></trkpt><trkpt lat="44.8425617" lon="9.3746367"><ele>687.0</ele><time>2026-05-02T09:54:35.989Z</time></trkpt><trkpt lat="44.8426483" lon="9.37463"><ele>685.5</ele><time>2026-05-02T09:54:39.99Z</time></trkpt><trkpt lat="44.842725" lon="9.3746783"><ele>684.0</ele><time>2026-05-02T09:54:42.989Z</time></trkpt><trkpt lat="44.8428" lon="9.3747183"><ele>682.5</ele><time>2026-05-02T09:54:45.991Z</time></trkpt><trkpt lat="44.8428917" lon="9.374775"><ele>681.0</ele><time>2026-05-02T09:54:48.99Z</time></trkpt><trkpt lat="44.8429483" lon="9.3748283"><ele>679.5</ele><time>2026-05-02T09:54:50.991Z</time></trkpt><trkpt lat="44.843025" lon="9.37487"><ele>678.0</ele><time>2026-05-02T09:54:53.99Z</time></trkpt><trkpt lat="44.8431133" lon="9.37485"><ele>678.0</ele><time>2026-05-02T09:54:56.99Z</time></trkpt><trkpt lat="44.8431433" lon="9.3747667"><ele>678.0</ele><time>2026-05-02T09:55:07.989Z</time></trkpt><trkpt lat="44.843155" lon="9.3746667"><ele>678.0</ele><time>2026-05-02T09:55:09.992Z</time></trkpt><trkpt lat="44.8431633" lon="9.3745283"><ele>678.0</ele><time>2026-05-02T09:55:11.99Z</time></trkpt><trkpt lat="44.8431483" lon="9.3743767"><ele>678.0</ele><time>2026-05-02T09:55:13.992Z</time></trkpt><trkpt lat="44.8431317" lon="9.3742883"><ele>678.0</ele><time>2026-05-02T09:55:14.992Z</time></trkpt><trkpt lat="44.843105" lon="9.374195"><ele>675.5999999999999</ele><time>2026-05-02T09:55:15.99Z</time></trkpt><trkpt lat="44.8430767" lon="9.374095"><ele>673.1999999999999</ele><time>2026-05-02T09:55:16.991Z</time></trkpt><trkpt lat="44.8430383" lon="9.3739367"><ele>670.8</ele><time>2026-05-02T09:55:18.99Z</time></trkpt><trkpt lat="44.8430467" lon="9.373755"><ele>668.4</ele><time>2026-05-02T09:55:20.99Z</time></trkpt><trkpt lat="44.84305" lon="9.3736533"><ele>666.0</ele><time>2026-05-02T09:55:21.991Z</time></trkpt><trkpt lat="44.8430483" lon="9.3735467"><ele>663.1666666666666</ele><time>2026-05-02T09:55:22.991Z</time></trkpt><trkpt lat="44.8430417" lon="9.3734383"><ele>660.3333333333334</ele><time>2026-05-02T09:55:23.991Z</time></trkpt><trkpt lat="44.8430433" lon="9.3733383"><ele>657.5</ele><time>2026-05-02T09:55:24.99Z</time></trkpt><trkpt lat="44.8430467" lon="9.3732467"><ele>654.6666666666667</ele><time>2026-05-02T09:55:25.99Z</time></trkpt><trkpt lat="44.84304" lon="9.3731083"><ele>651.8333333333334</ele><time>2026-05-02T09:55:27.99Z</time></trkpt><trkpt lat="44.842975" lon="9.3730183"><ele>649.0</ele><time>2026-05-02T09:55:29.99Z</time></trkpt><trkpt lat="44.842865" lon="9.37294"><ele>645.8000000000001</ele><time>2026-05-02T09:55:31.99Z</time></trkpt><trkpt lat="44.842805" lon="9.372895"><ele>642.6</ele><time>2026-05-02T09:55:32.991Z</time></trkpt><trkpt lat="44.8427467" lon="9.37286"><ele>639.4</ele><time>2026-05-02T09:55:33.989Z</time></trkpt><trkpt lat="44.8426367" lon="9.3728217"><ele>636.2</ele><time>2026-05-02T09:55:35.99Z</time></trkpt><trkpt lat="44.8425117" lon="9.3728283"><ele>633.0</ele><time>2026-05-02T09:55:37.989Z</time></trkpt><trkpt lat="44.8424033" lon="9.372875"><ele>633.0</ele><time>2026-05-02T09:55:39.99Z</time></trkpt><trkpt lat="44.8422933" lon="9.3728733"><ele>633.0</ele><time>2026-05-02T09:55:41.99Z</time></trkpt><trkpt lat="44.842175" lon="9.372835"><ele>633.0</ele><time>2026-05-02T09:55:43.989Z</time></trkpt><trkpt lat="44.8420683" lon="9.372755"><ele>633.0</ele><time>2026-05-02T09:55:45.99Z</time></trkpt><trkpt lat="44.8420167" lon="9.3726967"><ele>633.0</ele><time>2026-05-02T09:55:46.991Z</time></trkpt><trkpt lat="44.84197" lon="9.3726217"><ele>633.0</ele><time>2026-05-02T09:55:47.99Z</time></trkpt><trkpt lat="44.8419333" lon="9.3725383"><ele>633.0</ele><time>2026-05-02T09:55:48.99Z</time></trkpt><trkpt lat="44.841895" lon="9.3724633"><ele>633.0</ele><time>2026-05-02T09:55:49.991Z</time></trkpt><trkpt lat="44.8418467" lon="9.3724017"><ele>633.0</ele><time>2026-05-02T09:55:50.99Z</time></trkpt><trkpt lat="44.8417867" lon="9.3723517"><ele>633.0</ele><time>2026-05-02T09:55:51.989Z</time></trkpt><trkpt lat="44.8417167" lon="9.3723033"><ele>633.0</ele><time>2026-05-02T09:55:52.989Z</time></trkpt><trkpt lat="44.8416433" lon="9.37225"><ele>633.0</ele><time>2026-05-02T09:55:53.991Z</time></trkpt><trkpt lat="44.8415733" lon="9.3722"><ele>629.1666666666666</ele><time>2026-05-02T09:55:54.99Z</time></trkpt><trkpt lat="44.8415033" lon="9.372155"><ele>625.3333333333334</ele><time>2026-05-02T09:55:55.99Z</time></trkpt><trkpt lat="44.8414417" lon="9.37212"><ele>621.5</ele><time>2026-05-02T09:55:56.99Z</time></trkpt><trkpt lat="44.8413267" lon="9.372095"><ele>617.6666666666667</ele><time>2026-05-02T09:55:58.991Z</time></trkpt><trkpt lat="44.841255" lon="9.372085"><ele>613.8333333333334</ele><time>2026-05-02T09:55:59.99Z</time></trkpt><trkpt lat="44.8411783" lon="9.372065"><ele>610.0</ele><time>2026-05-02T09:56:00.99Z</time></trkpt><trkpt lat="44.8410967" lon="9.37204"><ele>610.0</ele><time>2026-05-02T09:56:01.991Z</time></trkpt><trkpt lat="44.84102" lon="9.372005"><ele>610.0</ele><time>2026-05-02T09:56:02.99Z</time></trkpt><trkpt lat="44.8409417" lon="9.371965"><ele>610.0</ele><time>2026-05-02T09:56:03.99Z</time></trkpt><trkpt lat="44.84086" lon="9.3719267"><ele>610.0</ele><time>2026-05-02T09:56:04.99Z</time></trkpt><trkpt lat="44.840775" lon="9.3719"><ele>610.0</ele><time>2026-05-02T09:56:05.991Z</time></trkpt><trkpt lat="44.8406983" lon="9.371865"><ele>610.0</ele><time>2026-05-02T09:56:06.99Z</time></trkpt><trkpt lat="44.8406283" lon="9.37182"><ele>610.5</ele><time>2026-05-02T09:56:07.991Z</time></trkpt><trkpt lat="44.8405767" lon="9.3717667"><ele>611.0</ele><time>2026-05-02T09:56:08.991Z</time></trkpt><trkpt lat="44.840515" lon="9.3716517"><ele>611.5</ele><time>2026-05-02T09:56:10.99Z</time></trkpt><trkpt lat="44.8405067" lon="9.371525"><ele>612.0</ele><time>2026-05-02T09:56:13.992Z</time></trkpt><trkpt lat="44.8405067" lon="9.3714283"><ele>612.5</ele><time>2026-05-02T09:56:15.99Z</time></trkpt><trkpt lat="44.8404933" lon="9.37134"><ele>613.0</ele><time>2026-05-02T09:56:17.99Z</time></trkpt><trkpt lat="44.8404533" lon="9.371255"><ele>611.1999999999999</ele><time>2026-05-02T09:56:19.991Z</time></trkpt><trkpt lat="44.84039" lon="9.3711167"><ele>609.4</ele><time>2026-05-02T09:56:21.989Z</time></trkpt><trkpt lat="44.84034" lon="9.37105"><ele>607.5999999999999</ele><time>2026-05-02T09:56:22.989Z</time></trkpt><trkpt lat="44.8402817" lon="9.37101"><ele>605.8</ele><time>2026-05-02T09:56:23.991Z</time></trkpt><trkpt lat="44.8401817" lon="9.3709267"><ele>604.0</ele><time>2026-05-02T09:56:25.99Z</time></trkpt><trkpt lat="44.8401483" lon="9.3707933"><ele>604.0000000000001</ele><time>2026-05-02T09:56:27.989Z</time></trkpt><trkpt lat="44.8401883" lon="9.3707067"><ele>604.0</ele><time>2026-05-02T09:56:29.989Z</time></trkpt><trkpt lat="44.84023" lon="9.3706067"><ele>604.0</ele><time>2026-05-02T09:56:48.989Z</time></trkpt><trkpt lat="44.8402533" lon="9.3705217"><ele>604.0</ele><time>2026-05-02T09:56:49.988Z</time></trkpt><trkpt lat="44.8402683" lon="9.3704133"><ele>604.0</ele><time>2026-05-02T09:56:50.989Z</time></trkpt><trkpt lat="44.840265" lon="9.3703167"><ele>604.0000000000001</ele><time>2026-05-02T09:56:51.989Z</time></trkpt><trkpt lat="44.8402467" lon="9.3702283"><ele>604.0</ele><time>2026-05-02T09:56:52.99Z</time></trkpt><trkpt lat="44.8401667" lon="9.3701033"><ele>606.8333333333334</ele><time>2026-05-02T09:56:54.989Z</time></trkpt><trkpt lat="44.8401033" lon="9.370065"><ele>609.6666666666667</ele><time>2026-05-02T09:56:55.99Z</time></trkpt><trkpt lat="44.8400017" lon="9.369955"><ele>612.5</ele><time>2026-05-02T09:56:57.988Z</time></trkpt><trkpt lat="44.839955" lon="9.369885"><ele>615.3333333333334</ele><time>2026-05-02T09:56:58.989Z</time></trkpt><trkpt lat="44.8399133" lon="9.3697967"><ele>618.1666666666666</ele><time>2026-05-02T09:56:59.989Z</time></trkpt><trkpt lat="44.8398717" lon="9.3697033"><ele>621.0</ele><time>2026-05-02T09:57:00.99Z</time></trkpt><trkpt lat="44.8398283" lon="9.36962"><ele>623.0</ele><time>2026-05-02T09:57:01.99Z</time></trkpt><trkpt lat="44.8397717" lon="9.36956"><ele>625.0</ele><time>2026-05-02T09:57:02.989Z</time></trkpt><trkpt lat="44.8396983" lon="9.369495"><ele>627.0</ele><time>2026-05-02T09:57:03.989Z</time></trkpt><trkpt lat="44.8396383" lon="9.369425"><ele>629.0</ele><time>2026-05-02T09:57:04.989Z</time></trkpt><trkpt lat="44.83959" lon="9.3693533"><ele>631.0</ele><time>2026-05-02T09:57:05.99Z</time></trkpt><trkpt lat="44.83949" lon="9.36925"><ele>633.0</ele><time>2026-05-02T09:57:07.99Z</time></trkpt><trkpt lat="44.8394183" lon="9.3692283"><ele>633.0</ele><time>2026-05-02T09:57:08.99Z</time></trkpt><trkpt lat="44.839345" lon="9.3692183"><ele>633.0</ele><time>2026-05-02T09:57:09.989Z</time></trkpt><trkpt lat="44.8392383" lon="9.3691567"><ele>633.0</ele><time>2026-05-02T09:57:11.989Z</time></trkpt><trkpt lat="44.839155" lon="9.3690017"><ele>633.0</ele><time>2026-05-02T09:57:13.989Z</time></trkpt><trkpt lat="44.839115" lon="9.3688917"><ele>633.0</ele><time>2026-05-02T09:57:14.991Z</time></trkpt><trkpt lat="44.8390667" lon="9.3687667"><ele>637.8</ele><time>2026-05-02T09:57:15.989Z</time></trkpt><trkpt lat="44.8390133" lon="9.3686417"><ele>642.5999999999999</ele><time>2026-05-02T09:57:16.99Z</time></trkpt><trkpt lat="44.8389633" lon="9.3685383"><ele>647.4000000000001</ele><time>2026-05-02T09:57:17.989Z</time></trkpt><trkpt lat="44.8389259" lon="9.3684408"><ele>652.2</ele><time>2026-05-02T09:57:18.989Z</time></trkpt><trkpt lat="44.8389031" lon="9.3683257"><ele>657.0</ele><time>2026-05-02T09:57:19.989Z</time></trkpt><trkpt lat="44.8388776" lon="9.3681896"><ele>657.0</ele><time>2026-05-02T09:57:20.989Z</time></trkpt><trkpt lat="44.838838" lon="9.3680509"><ele>657.0</ele><time>2026-05-02T09:57:21.99Z</time></trkpt><trkpt lat="44.8387875" lon="9.3679283"><ele>657.0</ele><time>2026-05-02T09:57:22.989Z</time></trkpt><trkpt lat="44.8387384" lon="9.3678381"><ele>657.0</ele><time>2026-05-02T09:57:23.989Z</time></trkpt><trkpt lat="44.8386886" lon="9.3677706"><ele>657.0</ele><time>2026-05-02T09:57:24.99Z</time></trkpt><trkpt lat="44.8386403" lon="9.3677123"><ele>657.0</ele><time>2026-05-02T09:57:25.989Z</time></trkpt><trkpt lat="44.8385578" lon="9.3676073"><ele>657.8</ele><time>2026-05-02T09:57:27.989Z</time></trkpt><trkpt lat="44.8385111" lon="9.367545"><ele>658.6</ele><time>2026-05-02T09:57:28.989Z</time></trkpt><trkpt lat="44.8384522" lon="9.3674658"><ele>659.4</ele><time>2026-05-02T09:57:29.99Z</time></trkpt><trkpt lat="44.8383845" lon="9.3673629"><ele>660.1999999999999</ele><time>2026-05-02T09:57:30.99Z</time></trkpt><trkpt lat="44.8383178" lon="9.3672376"><ele>661.0</ele><time>2026-05-02T09:57:31.989Z</time></trkpt><trkpt lat="44.8382552" lon="9.3670996"><ele>663.8333333333334</ele><time>2026-05-02T09:57:32.99Z</time></trkpt><trkpt lat="44.8381989" lon="9.3669633"><ele>666.6666666666667</ele><time>2026-05-02T09:57:33.991Z</time></trkpt><trkpt lat="44.8381462" lon="9.3668359"><ele>669.5</ele><time>2026-05-02T09:57:34.99Z</time></trkpt><trkpt lat="44.8381003" lon="9.3667334"><ele>672.3333333333334</ele><time>2026-05-02T09:57:35.988Z</time></trkpt><trkpt lat="44.8380575" lon="9.3666534"><ele>675.1666666666666</ele><time>2026-05-02T09:57:36.99Z</time></trkpt><trkpt lat="44.8380136" lon="9.3665731"><ele>678.0</ele><time>2026-05-02T09:57:37.989Z</time></trkpt><trkpt lat="44.8379713" lon="9.3664774"><ele>677.5999999999999</ele><time>2026-05-02T09:57:38.99Z</time></trkpt><trkpt lat="44.8379289" lon="9.3663601"><ele>677.1999999999999</ele><time>2026-05-02T09:57:39.989Z</time></trkpt><trkpt lat="44.8378821" lon="9.3662321"><ele>676.8</ele><time>2026-05-02T09:57:40.989Z</time></trkpt><trkpt lat="44.8378332" lon="9.3661072"><ele>676.4</ele><time>2026-05-02T09:57:41.99Z</time></trkpt><trkpt lat="44.8377831" lon="9.3659855"><ele>676.0</ele><time>2026-05-02T09:57:42.989Z</time></trkpt><trkpt lat="44.8377286" lon="9.3658739"><ele>676.0</ele><time>2026-05-02T09:57:43.99Z</time></trkpt><trkpt lat="44.8376768" lon="9.3657782"><ele>676.0</ele><time>2026-05-02T09:57:44.99Z</time></trkpt><trkpt lat="44.8376275" lon="9.3656969"><ele>676.0</ele><time>2026-05-02T09:57:45.989Z</time></trkpt><trkpt lat="44.837573" lon="9.365622"><ele>676.0</ele><time>2026-05-02T09:57:46.989Z</time></trkpt><trkpt lat="44.8375098" lon="9.3655404"><ele>676.0</ele><time>2026-05-02T09:57:47.989Z</time></trkpt><trkpt lat="44.8374438" lon="9.3654549"><ele>676.0</ele><time>2026-05-02T09:57:48.989Z</time></trkpt><trkpt lat="44.8373732" lon="9.3653601"><ele>680.0</ele><time>2026-05-02T09:57:49.989Z</time></trkpt><trkpt lat="44.8373107" lon="9.3652596"><ele>684.0</ele><time>2026-05-02T09:57:50.99Z</time></trkpt><trkpt lat="44.8372541" lon="9.3651595"><ele>688.0</ele><time>2026-05-02T09:57:51.989Z</time></trkpt><trkpt lat="44.8372023" lon="9.3650528"><ele>692.0</ele><time>2026-05-02T09:57:52.989Z</time></trkpt><trkpt lat="44.8371588" lon="9.3649474"><ele>696.0</ele><time>2026-05-02T09:57:53.99Z</time></trkpt><trkpt lat="44.8371201" lon="9.3648364"><ele>696.0</ele><time>2026-05-02T09:57:54.99Z</time></trkpt><trkpt lat="44.8370858" lon="9.3647006"><ele>696.0</ele><time>2026-05-02T09:57:55.989Z</time></trkpt><trkpt lat="44.8370492" lon="9.3645617"><ele>696.0</ele><time>2026-05-02T09:57:56.989Z</time></trkpt><trkpt lat="44.8370183" lon="9.3644373"><ele>696.0</ele><time>2026-05-02T09:57:57.989Z</time></trkpt><trkpt lat="44.8369961" lon="9.364315"><ele>696.0</ele><time>2026-05-02T09:57:58.989Z</time></trkpt><trkpt lat="44.8369738" lon="9.3641981"><ele>697.6666666666666</ele><time>2026-05-02T09:57:59.99Z</time></trkpt><trkpt lat="44.8369538" lon="9.3640886"><ele>699.3333333333334</ele><time>2026-05-02T09:58:00.989Z</time></trkpt><trkpt lat="44.8369396" lon="9.3639795"><ele>701.0</ele><time>2026-05-02T09:58:01.99Z</time></trkpt><trkpt lat="44.8369487" lon="9.3638627"><ele>702.6666666666667</ele><time>2026-05-02T09:58:02.99Z</time></trkpt><trkpt lat="44.836974" lon="9.3637405"><ele>704.3333333333334</ele><time>2026-05-02T09:58:03.989Z</time></trkpt><trkpt lat="44.8369988" lon="9.3636197"><ele>706.0</ele><time>2026-05-02T09:58:04.989Z</time></trkpt><trkpt lat="44.8370166" lon="9.3635053"><ele>706.6666666666667</ele><time>2026-05-02T09:58:05.988Z</time></trkpt><trkpt lat="44.8370322" lon="9.3633955"><ele>707.3333333333334</ele><time>2026-05-02T09:58:06.989Z</time></trkpt><trkpt lat="44.8370434" lon="9.3632852"><ele>708.0</ele><time>2026-05-02T09:58:07.99Z</time></trkpt><trkpt lat="44.8370484" lon="9.3631771"><ele>708.6666666666666</ele><time>2026-05-02T09:58:08.99Z</time></trkpt><trkpt lat="44.8370442" lon="9.3630571"><ele>709.3333333333333</ele><time>2026-05-02T09:58:09.989Z</time></trkpt><trkpt lat="44.8370444" lon="9.3629318"><ele>710.0</ele><time>2026-05-02T09:58:10.989Z</time></trkpt><trkpt lat="44.837051" lon="9.3628133"><ele>711.1666666666666</ele><time>2026-05-02T09:58:11.99Z</time></trkpt><trkpt lat="44.8370539" lon="9.3627159"><ele>712.3333333333333</ele><time>2026-05-02T09:58:12.993Z</time></trkpt><trkpt lat="44.8370328" lon="9.3625875"><ele>713.5</ele><time>2026-05-02T09:58:14.989Z</time></trkpt><trkpt lat="44.8369558" lon="9.3624886"><ele>714.6666666666666</ele><time>2026-05-02T09:58:29.989Z</time></trkpt><trkpt lat="44.83691" lon="9.3624217"><ele>715.8333333333334</ele><time>2026-05-02T09:58:30.988Z</time></trkpt><trkpt lat="44.8368567" lon="9.3623583"><ele>717.0</ele><time>2026-05-02T09:58:31.989Z</time></trkpt><trkpt lat="44.836795" lon="9.362285"><ele>718.0</ele><time>2026-05-02T09:58:32.99Z</time></trkpt><trkpt lat="44.836735" lon="9.362215"><ele>719.0</ele><time>2026-05-02T09:58:33.99Z</time></trkpt><trkpt lat="44.8366883" lon="9.3621417"><ele>720.0</ele><time>2026-05-02T09:58:34.99Z</time></trkpt><trkpt lat="44.836655" lon="9.3620083"><ele>721.0</ele><time>2026-05-02T09:58:36.991Z</time></trkpt><trkpt lat="44.8366517" lon="9.36189"><ele>722.0</ele><time>2026-05-02T09:58:38.989Z</time></trkpt><trkpt lat="44.8365783" lon="9.3617517"><ele>724.0</ele><time>2026-05-02T09:58:40.99Z</time></trkpt><trkpt lat="44.8365217" lon="9.361665"><ele>726.0</ele><time>2026-05-02T09:58:41.989Z</time></trkpt><trkpt lat="44.8364583" lon="9.361575"><ele>728.0</ele><time>2026-05-02T09:58:42.99Z</time></trkpt><trkpt lat="44.836385" lon="9.36149"><ele>730.0</ele><time>2026-05-02T09:58:43.989Z</time></trkpt><trkpt lat="44.8363033" lon="9.3614167"><ele>732.0</ele><time>2026-05-02T09:58:44.991Z</time></trkpt><trkpt lat="44.8362133" lon="9.3613367"><ele>733.8333333333334</ele><time>2026-05-02T09:58:45.991Z</time></trkpt><trkpt lat="44.8361283" lon="9.36127"><ele>735.6666666666666</ele><time>2026-05-02T09:58:46.992Z</time></trkpt><trkpt lat="44.836045" lon="9.3612083"><ele>737.5</ele><time>2026-05-02T09:58:47.99Z</time></trkpt><trkpt lat="44.8359733" lon="9.361145"><ele>739.3333333333333</ele><time>2026-05-02T09:58:48.989Z</time></trkpt><trkpt lat="44.8359017" lon="9.36108"><ele>741.1666666666666</ele><time>2026-05-02T09:58:49.99Z</time></trkpt><trkpt lat="44.8358317" lon="9.3610133"><ele>743.0</ele><time>2026-05-02T09:58:50.99Z</time></trkpt><trkpt lat="44.8357517" lon="9.3609533"><ele>745.0</ele><time>2026-05-02T09:58:51.989Z</time></trkpt><trkpt lat="44.8356667" lon="9.3608833"><ele>747.0</ele><time>2026-05-02T09:58:52.989Z</time></trkpt><trkpt lat="44.8355783" lon="9.36081"><ele>749.0</ele><time>2026-05-02T09:58:53.989Z</time></trkpt><trkpt lat="44.8354833" lon="9.3607417"><ele>751.0</ele><time>2026-05-02T09:58:54.989Z</time></trkpt><trkpt lat="44.8353883" lon="9.3606783"><ele>753.0</ele><time>2026-05-02T09:58:55.989Z</time></trkpt><trkpt lat="44.8352967" lon="9.3606217"><ele>753.0</ele><time>2026-05-02T09:58:56.99Z</time></trkpt><trkpt lat="44.8352183" lon="9.360555"><ele>753.0</ele><time>2026-05-02T09:58:57.989Z</time></trkpt><trkpt lat="44.8351517" lon="9.36048"><ele>753.0</ele><time>2026-05-02T09:58:58.99Z</time></trkpt><trkpt lat="44.8350946" lon="9.3603857"><ele>753.0</ele><time>2026-05-02T09:58:59.991Z</time></trkpt><trkpt lat="44.8350453" lon="9.360277"><ele>753.0</ele><time>2026-05-02T09:59:00.989Z</time></trkpt><trkpt lat="44.8349966" lon="9.3601716"><ele>753.0</ele><time>2026-05-02T09:59:01.989Z</time></trkpt><trkpt lat="44.8349485" lon="9.360076"><ele>756.8333333333334</ele><time>2026-05-02T09:59:02.991Z</time></trkpt><trkpt lat="44.8348913" lon="9.3600045"><ele>760.6666666666667</ele><time>2026-05-02T09:59:03.99Z</time></trkpt><trkpt lat="44.8348294" lon="9.3599433"><ele>764.5</ele><time>2026-05-02T09:59:04.99Z</time></trkpt><trkpt lat="44.8347632" lon="9.3598732"><ele>768.3333333333334</ele><time>2026-05-02T09:59:05.989Z</time></trkpt><trkpt lat="44.8346985" lon="9.3597886"><ele>772.1666666666667</ele><time>2026-05-02T09:59:06.989Z</time></trkpt><trkpt lat="44.8346367" lon="9.3597044"><ele>776.0</ele><time>2026-05-02T09:59:07.989Z</time></trkpt><trkpt lat="44.834576" lon="9.3596232"><ele>777.5999999999999</ele><time>2026-05-02T09:59:08.99Z</time></trkpt><trkpt lat="44.834505" lon="9.3595572"><ele>779.2</ele><time>2026-05-02T09:59:09.989Z</time></trkpt><trkpt lat="44.8344317" lon="9.359501"><ele>780.8</ele><time>2026-05-02T09:59:10.99Z</time></trkpt><trkpt lat="44.8343607" lon="9.3594288"><ele>782.4000000000001</ele><time>2026-05-02T09:59:11.989Z</time></trkpt><trkpt lat="44.834288" lon="9.3593382"><ele>784.0</ele><time>2026-05-02T09:59:12.99Z</time></trkpt><trkpt lat="44.8342129" lon="9.359226"><ele>788.0</ele><time>2026-05-02T09:59:13.993Z</time></trkpt><trkpt lat="44.8341335" lon="9.3591138"><ele>792.0</ele><time>2026-05-02T09:59:14.991Z</time></trkpt><trkpt lat="44.8340433" lon="9.3589963"><ele>796.0</ele><time>2026-05-02T09:59:15.99Z</time></trkpt><trkpt lat="44.833939" lon="9.3588794"><ele>800.0</ele><time>2026-05-02T09:59:16.989Z</time></trkpt><trkpt lat="44.8338347" lon="9.3587741"><ele>801.2</ele><time>2026-05-02T09:59:17.99Z</time></trkpt><trkpt lat="44.8337492" lon="9.3586835"><ele>802.4</ele><time>2026-05-02T09:59:18.989Z</time></trkpt><trkpt lat="44.8336831" lon="9.3585945"><ele>803.5999999999999</ele><time>2026-05-02T09:59:19.989Z</time></trkpt><trkpt lat="44.8336267" lon="9.3584948"><ele>804.8</ele><time>2026-05-02T09:59:20.989Z</time></trkpt><trkpt lat="44.8335771" lon="9.3583836"><ele>806.0</ele><time>2026-05-02T09:59:21.989Z</time></trkpt><trkpt lat="44.8335363" lon="9.3582629"><ele>806.0000000000001</ele><time>2026-05-02T09:59:22.99Z</time></trkpt><trkpt lat="44.8334949" lon="9.3581558"><ele>806.0</ele><time>2026-05-02T09:59:23.99Z</time></trkpt><trkpt lat="44.8334458" lon="9.3580682"><ele>806.0</ele><time>2026-05-02T09:59:24.99Z</time></trkpt><trkpt lat="44.8333917" lon="9.3579959"><ele>806.0</ele><time>2026-05-02T09:59:25.99Z</time></trkpt><trkpt lat="44.8333299" lon="9.357952"><ele>806.0000000000001</ele><time>2026-05-02T09:59:26.99Z</time></trkpt><trkpt lat="44.8332244" lon="9.3578772"><ele>806.0</ele><time>2026-05-02T09:59:28.989Z</time></trkpt><trkpt lat="44.8331562" lon="9.3577883"><ele>809.1666666666667</ele><time>2026-05-02T09:59:30.989Z</time></trkpt><trkpt lat="44.8330963" lon="9.3576953"><ele>812.3333333333334</ele><time>2026-05-02T09:59:33.991Z</time></trkpt><trkpt lat="44.8330755" lon="9.3575951"><ele>815.5</ele><time>2026-05-02T09:59:36.989Z</time></trkpt><trkpt lat="44.8330426" lon="9.3574593"><ele>818.6666666666667</ele><time>2026-05-02T09:59:49.991Z</time></trkpt><trkpt lat="44.8329751" lon="9.3573891"><ele>821.8333333333334</ele><time>2026-05-02T09:59:51.99Z</time></trkpt><trkpt lat="44.8329093" lon="9.3573742"><ele>825.0</ele><time>2026-05-02T09:59:53.99Z</time></trkpt><trkpt lat="44.8328506" lon="9.3574639"><ele>825.0</ele><time>2026-05-02T09:59:56.989Z</time></trkpt><trkpt lat="44.8328271" lon="9.3575909"><ele>825.0</ele><time>2026-05-02T09:59:58.989Z</time></trkpt><trkpt lat="44.8327969" lon="9.3577167"><ele>825.0</ele><time>2026-05-02T10:00:00.989Z</time></trkpt><trkpt lat="44.8327456" lon="9.357859"><ele>825.0</ele><time>2026-05-02T10:00:02.99Z</time></trkpt><trkpt lat="44.8326567" lon="9.3579858"><ele>825.0</ele><time>2026-05-02T10:00:04.99Z</time></trkpt><trkpt lat="44.8326016" lon="9.358038"><ele>825.0</ele><time>2026-05-02T10:00:05.99Z</time></trkpt><trkpt lat="44.8325453" lon="9.3580788"><ele>825.0</ele><time>2026-05-02T10:00:06.99Z</time></trkpt><trkpt lat="44.8324561" lon="9.3581188"><ele>825.0</ele><time>2026-05-02T10:00:08.989Z</time></trkpt><trkpt lat="44.8323898" lon="9.3581527"><ele>825.0</ele><time>2026-05-02T10:00:22.989Z</time></trkpt><trkpt lat="44.8324754" lon="9.3581274"><ele>825.0</ele><time>2026-05-02T10:00:29.99Z</time></trkpt><trkpt lat="44.8325686" lon="9.3580681"><ele>825.0</ele><time>2026-05-02T10:00:31.99Z</time></trkpt><trkpt lat="44.8326615" lon="9.3579868"><ele>825.0</ele><time>2026-05-02T10:00:33.989Z</time></trkpt><trkpt lat="44.8327397" lon="9.3578752"><ele>825.0</ele><time>2026-05-02T10:00:35.99Z</time></trkpt><trkpt lat="44.8327821" lon="9.3577807"><ele>825.0</ele><time>2026-05-02T10:00:37.99Z</time></trkpt><trkpt lat="44.8327732" lon="9.3576701"><ele>825.0</ele><time>2026-05-02T10:00:42.989Z</time></trkpt><trkpt lat="44.8326954" lon="9.3576235"><ele>825.0</ele><time>2026-05-02T10:00:44.99Z</time></trkpt><trkpt lat="44.8325896" lon="9.357584"><ele>827.6666666666666</ele><time>2026-05-02T10:00:46.989Z</time></trkpt><trkpt lat="44.8324827" lon="9.3575269"><ele>830.3333333333333</ele><time>2026-05-02T10:00:48.99Z</time></trkpt><trkpt lat="44.8323942" lon="9.3574976"><ele>833.0</ele><time>2026-05-02T10:00:50.991Z</time></trkpt><trkpt lat="44.8323282" lon="9.3574513"><ele>835.6666666666666</ele><time>2026-05-02T10:00:52.99Z</time></trkpt><trkpt lat="44.8322776" lon="9.3573874"><ele>838.3333333333333</ele><time>2026-05-02T10:00:54.99Z</time></trkpt><trkpt lat="44.8322242" lon="9.3573058"><ele>841.0</ele><time>2026-05-02T10:00:57.989Z</time></trkpt><trkpt lat="44.8322594" lon="9.3572102"><ele>841.9999999999999</ele><time>2026-05-02T10:01:00.989Z</time></trkpt><trkpt lat="44.8323105" lon="9.3571545"><ele>843.0</ele><time>2026-05-02T10:01:02.99Z</time></trkpt><trkpt lat="44.8323578" lon="9.3570684"><ele>844.0</ele><time>2026-05-02T10:01:05.99Z</time></trkpt><trkpt lat="44.8323893" lon="9.3569475"><ele>845.0</ele><time>2026-05-02T10:01:08.989Z</time></trkpt><trkpt lat="44.8323893" lon="9.3568309"><ele>845.9999999999999</ele><time>2026-05-02T10:01:10.991Z</time></trkpt><trkpt lat="44.8323803" lon="9.3567076"><ele>847.0</ele><time>2026-05-02T10:01:12.989Z</time></trkpt><trkpt lat="44.8323641" lon="9.3565967"><ele>846.9999999999999</ele><time>2026-05-02T10:01:14.99Z</time></trkpt><trkpt lat="44.8323317" lon="9.3564899"><ele>847.0</ele><time>2026-05-02T10:01:16.99Z</time></trkpt><trkpt lat="44.8323282" lon="9.3563911"><ele>847.0</ele><time>2026-05-02T10:01:18.991Z</time></trkpt><trkpt lat="44.8323642" lon="9.3562953"><ele>847.0</ele><time>2026-05-02T10:01:21.989Z</time></trkpt><trkpt lat="44.8324191" lon="9.3562062"><ele>846.9999999999999</ele><time>2026-05-02T10:01:23.99Z</time></trkpt><trkpt lat="44.8324826" lon="9.356091"><ele>847.0</ele><time>2026-05-02T10:01:25.991Z</time></trkpt><trkpt lat="44.8325148" lon="9.3560032"><ele>849.3333333333333</ele><time>2026-05-02T10:01:27.99Z</time></trkpt><trkpt lat="44.8324671" lon="9.3559259"><ele>851.6666666666666</ele><time>2026-05-02T10:01:30.989Z</time></trkpt><trkpt lat="44.8324001" lon="9.3558637"><ele>854.0</ele><time>2026-05-02T10:01:32.99Z</time></trkpt><trkpt lat="44.8323386" lon="9.3557717"><ele>856.3333333333333</ele><time>2026-05-02T10:01:34.99Z</time></trkpt><trkpt lat="44.8322796" lon="9.3556719"><ele>858.6666666666666</ele><time>2026-05-02T10:01:36.989Z</time></trkpt><trkpt lat="44.8322234" lon="9.3555699"><ele>861.0</ele><time>2026-05-02T10:01:38.991Z</time></trkpt><trkpt lat="44.8321502" lon="9.3554832"><ele>862.6666666666666</ele><time>2026-05-02T10:01:40.989Z</time></trkpt><trkpt lat="44.8320533" lon="9.3554159"><ele>864.3333333333333</ele><time>2026-05-02T10:01:42.989Z</time></trkpt><trkpt lat="44.831969" lon="9.355362"><ele>866.0</ele><time>2026-05-02T10:01:44.99Z</time></trkpt><trkpt lat="44.8319092" lon="9.3553253"><ele>867.6666666666666</ele><time>2026-05-02T10:01:46.989Z</time></trkpt><trkpt lat="44.83184" lon="9.3553025"><ele>869.3333333333333</ele><time>2026-05-02T10:01:48.99Z</time></trkpt><trkpt lat="44.8317701" lon="9.3552702"><ele>871.0</ele><time>2026-05-02T10:01:50.99Z</time></trkpt><trkpt lat="44.831689" lon="9.3552307"><ele>871.6666666666666</ele><time>2026-05-02T10:01:52.989Z</time></trkpt><trkpt lat="44.8315767" lon="9.35517"><ele>872.3333333333333</ele><time>2026-05-02T10:01:54.99Z</time></trkpt><trkpt lat="44.8315183" lon="9.3551233"><ele>873.0</ele><time>2026-05-02T10:01:55.989Z</time></trkpt><trkpt lat="44.831435" lon="9.3550483"><ele>873.6666666666667</ele><time>2026-05-02T10:01:57.989Z</time></trkpt><trkpt lat="44.8313767" lon="9.3549867"><ele>874.3333333333334</ele><time>2026-05-02T10:01:59.99Z</time></trkpt><trkpt lat="44.8313367" lon="9.3548967"><ele>875.0</ele><time>2026-05-02T10:02:02.992Z</time></trkpt><trkpt lat="44.831385" lon="9.3549917"><ele>875.0</ele><time>2026-05-02T10:02:06.991Z</time></trkpt><trkpt lat="44.8314617" lon="9.3550317"><ele>875.0</ele><time>2026-05-02T10:02:08.991Z</time></trkpt><trkpt lat="44.831535" lon="9.3550833"><ele>875.0</ele><time>2026-05-02T10:02:10.99Z</time></trkpt><trkpt lat="44.83161" lon="9.35514"><ele>875.0</ele><time>2026-05-02T10:02:12.99Z</time></trkpt><trkpt lat="44.831725" lon="9.3552233"><ele>875.0</ele><time>2026-05-02T10:02:14.991Z</time></trkpt><trkpt lat="44.831805" lon="9.3552817"><ele>875.0000000000001</ele><time>2026-05-02T10:02:16.989Z</time></trkpt><trkpt lat="44.831785" lon="9.3553917"><ele>875.0</ele><time>2026-05-02T10:02:19.99Z</time></trkpt><trkpt lat="44.8317317" lon="9.3554417"><ele>875.0</ele><time>2026-05-02T10:02:20.99Z</time></trkpt><trkpt lat="44.8316783" lon="9.3555033"><ele>875.0</ele><time>2026-05-02T10:02:21.989Z</time></trkpt><trkpt lat="44.831615" lon="9.3555767"><ele>875.0000000000001</ele><time>2026-05-02T10:02:22.989Z</time></trkpt><trkpt lat="44.831545" lon="9.3556633"><ele>875.0</ele><time>2026-05-02T10:02:23.99Z</time></trkpt><trkpt lat="44.8314817" lon="9.3557433"><ele>874.8333333333334</ele><time>2026-05-02T10:02:24.989Z</time></trkpt><trkpt lat="44.8314183" lon="9.3558033"><ele>874.6666666666667</ele><time>2026-05-02T10:02:25.991Z</time></trkpt><trkpt lat="44.831355" lon="9.35584"><ele>874.5</ele><time>2026-05-02T10:02:26.991Z</time></trkpt><trkpt lat="44.83129" lon="9.3558567"><ele>874.3333333333333</ele><time>2026-05-02T10:02:27.989Z</time></trkpt><trkpt lat="44.831175" lon="9.3559083"><ele>874.1666666666666</ele><time>2026-05-02T10:02:29.99Z</time></trkpt><trkpt lat="44.8310833" lon="9.35589"><ele>874.0</ele><time>2026-05-02T10:02:31.989Z</time></trkpt><trkpt lat="44.8309867" lon="9.3558033"><ele>876.6</ele><time>2026-05-02T10:02:33.99Z</time></trkpt><trkpt lat="44.83088" lon="9.3557517"><ele>879.2</ele><time>2026-05-02T10:02:35.99Z</time></trkpt><trkpt lat="44.8307717" lon="9.3557317"><ele>881.8000000000001</ele><time>2026-05-02T10:02:37.991Z</time></trkpt><trkpt lat="44.8306667" lon="9.3557633"><ele>884.4000000000001</ele><time>2026-05-02T10:02:39.991Z</time></trkpt><trkpt lat="44.8305733" lon="9.355795"><ele>887.0</ele><time>2026-05-02T10:02:41.989Z</time></trkpt><trkpt lat="44.8304917" lon="9.3557967"><ele>886.9999999999999</ele><time>2026-05-02T10:02:43.989Z</time></trkpt><trkpt lat="44.8304167" lon="9.355765"><ele>887.0</ele><time>2026-05-02T10:02:45.99Z</time></trkpt><trkpt lat="44.8303433" lon="9.3557267"><ele>887.0</ele><time>2026-05-02T10:02:47.99Z</time></trkpt><trkpt lat="44.8302817" lon="9.35567"><ele>887.0</ele><time>2026-05-02T10:02:49.99Z</time></trkpt><trkpt lat="44.8302179" lon="9.3555994"><ele>887.0</ele><time>2026-05-02T10:02:53.009Z</time></trkpt><trkpt lat="44.8301713" lon="9.3555269"><ele>886.9999999999999</ele><time>2026-05-02T10:02:56.025Z</time></trkpt><trkpt lat="44.8301046" lon="9.3555289"><ele>887.0</ele><time>2026-05-02T10:03:05.048Z</time></trkpt><trkpt lat="44.8300519" lon="9.3554681"><ele>889.8</ele><time>2026-05-02T10:03:07.045Z</time></trkpt><trkpt lat="44.829985" lon="9.3553765"><ele>892.6</ele><time>2026-05-02T10:03:09.068Z</time></trkpt><trkpt lat="44.8298469" lon="9.3553563"><ele>895.3999999999999</ele><time>2026-05-02T10:03:10.997Z</time></trkpt><trkpt lat="44.8297832" lon="9.3553219"><ele>898.1999999999999</ele><time>2026-05-02T10:03:11.987Z</time></trkpt><trkpt lat="44.8296955" lon="9.355298"><ele>901.0</ele><time>2026-05-02T10:03:12.991Z</time></trkpt><trkpt lat="44.8296264" lon="9.3553117"><ele>901.0</ele><time>2026-05-02T10:03:13.991Z</time></trkpt><trkpt lat="44.8295164" lon="9.3553823"><ele>900.9999999999999</ele><time>2026-05-02T10:03:15.989Z</time></trkpt><trkpt lat="44.8294406" lon="9.355494"><ele>900.9999999999999</ele><time>2026-05-02T10:03:17.989Z</time></trkpt><trkpt lat="44.829397" lon="9.3556242"><ele>901.0</ele><time>2026-05-02T10:03:19.991Z</time></trkpt><trkpt lat="44.829353" lon="9.3557159"><ele>901.0</ele><time>2026-05-02T10:03:21.989Z</time></trkpt><trkpt lat="44.8293089" lon="9.3557801"><ele>902.4999999999999</ele><time>2026-05-02T10:03:23.989Z</time></trkpt><trkpt lat="44.8292315" lon="9.3558505"><ele>904.0</ele><time>2026-05-02T10:03:25.991Z</time></trkpt><trkpt lat="44.8291248" lon="9.3559217"><ele>905.5</ele><time>2026-05-02T10:03:27.99Z</time></trkpt><trkpt lat="44.8290666" lon="9.3559572"><ele>907.0</ele><time>2026-05-02T10:03:28.989Z</time></trkpt><trkpt lat="44.8289944" lon="9.3559829"><ele>908.4999999999999</ele><time>2026-05-02T10:03:29.99Z</time></trkpt><trkpt lat="44.8289182" lon="9.3560005"><ele>910.0</ele><time>2026-05-02T10:03:30.99Z</time></trkpt><trkpt lat="44.8288383" lon="9.3560051"><ele>910.0</ele><time>2026-05-02T10:03:31.99Z</time></trkpt><trkpt lat="44.8287534" lon="9.3560102"><ele>910.0</ele><time>2026-05-02T10:03:32.99Z</time></trkpt><trkpt lat="44.8286673" lon="9.3560229"><ele>910.0</ele><time>2026-05-02T10:03:33.993Z</time></trkpt><trkpt lat="44.828595" lon="9.3560489"><ele>910.0</ele><time>2026-05-02T10:03:34.991Z</time></trkpt><trkpt lat="44.8285276" lon="9.3560742"><ele>910.0</ele><time>2026-05-02T10:03:35.99Z</time></trkpt><trkpt lat="44.8284642" lon="9.3560969"><ele>910.0</ele><time>2026-05-02T10:03:36.99Z</time></trkpt><trkpt lat="44.8284" lon="9.3561203"><ele>910.0</ele><time>2026-05-02T10:03:37.991Z</time></trkpt><trkpt lat="44.8283377" lon="9.3561568"><ele>909.8</ele><time>2026-05-02T10:03:38.99Z</time></trkpt><trkpt lat="44.8282339" lon="9.3562702"><ele>909.6</ele><time>2026-05-02T10:03:40.991Z</time></trkpt><trkpt lat="44.8281798" lon="9.3563388"><ele>909.4000000000001</ele><time>2026-05-02T10:03:41.99Z</time></trkpt><trkpt lat="44.8281161" lon="9.3564152"><ele>909.2</ele><time>2026-05-02T10:03:42.99Z</time></trkpt><trkpt lat="44.8280368" lon="9.3564946"><ele>909.0</ele><time>2026-05-02T10:03:43.99Z</time></trkpt><trkpt lat="44.8279587" lon="9.3565571"><ele>911.2</ele><time>2026-05-02T10:03:44.99Z</time></trkpt><trkpt lat="44.8278757" lon="9.356604"><ele>913.4000000000001</ele><time>2026-05-02T10:03:45.99Z</time></trkpt><trkpt lat="44.8277968" lon="9.3566494"><ele>915.6</ele><time>2026-05-02T10:03:46.989Z</time></trkpt><trkpt lat="44.8277336" lon="9.3566936"><ele>917.8</ele><time>2026-05-02T10:03:47.99Z</time></trkpt><trkpt lat="44.8276284" lon="9.3567718"><ele>920.0</ele><time>2026-05-02T10:03:49.99Z</time></trkpt><trkpt lat="44.8275339" lon="9.3568158"><ele>920.6666666666667</ele><time>2026-05-02T10:03:51.99Z</time></trkpt><trkpt lat="44.8273968" lon="9.3568288"><ele>921.3333333333334</ele><time>2026-05-02T10:03:53.99Z</time></trkpt><trkpt lat="44.8273176" lon="9.3568221"><ele>922.0</ele><time>2026-05-02T10:03:54.991Z</time></trkpt><trkpt lat="44.8272455" lon="9.356801"><ele>922.6666666666667</ele><time>2026-05-02T10:03:55.991Z</time></trkpt><trkpt lat="44.8271787" lon="9.3567651"><ele>923.3333333333334</ele><time>2026-05-02T10:03:56.991Z</time></trkpt><trkpt lat="44.8271263" lon="9.3567149"><ele>924.0</ele><time>2026-05-02T10:03:57.99Z</time></trkpt><trkpt lat="44.8270575" lon="9.3566102"><ele>924.0</ele><time>2026-05-02T10:03:59.991Z</time></trkpt><trkpt lat="44.826983" lon="9.3565402"><ele>924.0</ele><time>2026-05-02T10:04:01.99Z</time></trkpt><trkpt lat="44.8268632" lon="9.3565428"><ele>924.0</ele><time>2026-05-02T10:04:03.99Z</time></trkpt><trkpt lat="44.8267932" lon="9.3565737"><ele>924.0</ele><time>2026-05-02T10:04:04.99Z</time></trkpt><trkpt lat="44.82673" lon="9.3566023"><ele>924.0</ele><time>2026-05-02T10:04:05.99Z</time></trkpt><trkpt lat="44.8266664" lon="9.3566227"><ele>924.0</ele><time>2026-05-02T10:04:06.99Z</time></trkpt><trkpt lat="44.8266028" lon="9.3566288"><ele>925.3333333333334</ele><time>2026-05-02T10:04:07.99Z</time></trkpt><trkpt lat="44.8265372" lon="9.356639"><ele>926.6666666666667</ele><time>2026-05-02T10:04:08.99Z</time></trkpt><trkpt lat="44.8264705" lon="9.3566537"><ele>928.0</ele><time>2026-05-02T10:04:09.99Z</time></trkpt><trkpt lat="44.8264057" lon="9.3566633"><ele>929.3333333333334</ele><time>2026-05-02T10:04:10.99Z</time></trkpt><trkpt lat="44.8263012" lon="9.3566661"><ele>930.6666666666667</ele><time>2026-05-02T10:04:12.99Z</time></trkpt><trkpt lat="44.826196" lon="9.3566936"><ele>932.0</ele><time>2026-05-02T10:04:14.991Z</time></trkpt><trkpt lat="44.8261006" lon="9.3567672"><ele>932.0000000000001</ele><time>2026-05-02T10:04:16.99Z</time></trkpt><trkpt lat="44.8260401" lon="9.3568101"><ele>932.0</ele><time>2026-05-02T10:04:18.99Z</time></trkpt><trkpt lat="44.825981" lon="9.3567584"><ele>932.0</ele><time>2026-05-02T10:04:35.991Z</time></trkpt><trkpt lat="44.8259228" lon="9.3567242"><ele>932.0</ele><time>2026-05-02T10:04:38.991Z</time></trkpt><trkpt lat="44.8258883" lon="9.35664"><ele>932.0000000000001</ele><time>2026-05-02T10:05:13.989Z</time></trkpt><trkpt lat="44.825895" lon="9.35653"><ele>932.0</ele><time>2026-05-02T10:05:15.989Z</time></trkpt><trkpt lat="44.82594" lon="9.3563983"><ele>929.3333333333334</ele><time>2026-05-02T10:05:17.989Z</time></trkpt><trkpt lat="44.8259817" lon="9.3563167"><ele>926.6666666666667</ele><time>2026-05-02T10:05:18.989Z</time></trkpt><trkpt lat="44.8260167" lon="9.3562317"><ele>924.0</ele><time>2026-05-02T10:05:19.99Z</time></trkpt><trkpt lat="44.8260517" lon="9.3560683"><ele>921.3333333333333</ele><time>2026-05-02T10:05:21.989Z</time></trkpt><trkpt lat="44.8260483" lon="9.355975"><ele>918.6666666666666</ele><time>2026-05-02T10:05:22.989Z</time></trkpt><trkpt lat="44.82604" lon="9.3558667"><ele>916.0</ele><time>2026-05-02T10:05:23.99Z</time></trkpt><trkpt lat="44.82603" lon="9.3557517"><ele>915.9999999999999</ele><time>2026-05-02T10:05:24.989Z</time></trkpt><trkpt lat="44.8260233" lon="9.355645"><ele>916.0</ele><time>2026-05-02T10:05:25.989Z</time></trkpt><trkpt lat="44.8260233" lon="9.3555417"><ele>916.0</ele><time>2026-05-02T10:05:26.991Z</time></trkpt><trkpt lat="44.8260217" lon="9.355375"><ele>916.0</ele><time>2026-05-02T10:05:28.99Z</time></trkpt><trkpt lat="44.82601" lon="9.355255"><ele>915.9999999999999</ele><time>2026-05-02T10:05:30.989Z</time></trkpt><trkpt lat="44.8260367" lon="9.3551733"><ele>916.0</ele><time>2026-05-02T10:05:32.989Z</time></trkpt><trkpt lat="44.8260767" lon="9.3550283"><ele>913.4999999999999</ele><time>2026-05-02T10:06:24.99Z</time></trkpt><trkpt lat="44.8261317" lon="9.354945"><ele>911.0</ele><time>2026-05-02T10:06:27.989Z</time></trkpt><trkpt lat="44.8261767" lon="9.3548333"><ele>908.5</ele><time>2026-05-02T10:06:29.99Z</time></trkpt><trkpt lat="44.8261867" lon="9.35473"><ele>906.0</ele><time>2026-05-02T10:06:30.989Z</time></trkpt><trkpt lat="44.8262" lon="9.3546233"><ele>903.4999999999999</ele><time>2026-05-02T10:06:31.988Z</time></trkpt><trkpt lat="44.8262017" lon="9.35449"><ele>901.0</ele><time>2026-05-02T10:06:32.989Z</time></trkpt><trkpt lat="44.826205" lon="9.3543467"><ele>899.5714285714287</ele><time>2026-05-02T10:06:33.991Z</time></trkpt><trkpt lat="44.826205" lon="9.3542333"><ele>898.1428571428572</ele><time>2026-05-02T10:06:34.989Z</time></trkpt><trkpt lat="44.826195" lon="9.3541283"><ele>896.7142857142858</ele><time>2026-05-02T10:06:35.988Z</time></trkpt><trkpt lat="44.8261767" lon="9.3540267"><ele>895.2857142857143</ele><time>2026-05-02T10:06:36.989Z</time></trkpt><trkpt lat="44.826155" lon="9.3539417"><ele>893.8571428571429</ele><time>2026-05-02T10:06:37.989Z</time></trkpt><trkpt lat="44.8261217" lon="9.3538583"><ele>892.4285714285716</ele><time>2026-05-02T10:06:38.989Z</time></trkpt><trkpt lat="44.8260983" lon="9.3537733"><ele>891.0</ele><time>2026-05-02T10:06:39.99Z</time></trkpt><trkpt lat="44.8260917" lon="9.3536717"><ele>892.3333333333334</ele><time>2026-05-02T10:06:40.989Z</time></trkpt><trkpt lat="44.82608" lon="9.3535833"><ele>893.6666666666667</ele><time>2026-05-02T10:06:41.989Z</time></trkpt><trkpt lat="44.8260217" lon="9.3534433"><ele>895.0</ele><time>2026-05-02T10:06:43.989Z</time></trkpt><trkpt lat="44.8259617" lon="9.3533767"><ele>896.3333333333334</ele><time>2026-05-02T10:06:44.99Z</time></trkpt><trkpt lat="44.8258933" lon="9.3533"><ele>897.6666666666667</ele><time>2026-05-02T10:06:45.989Z</time></trkpt><trkpt lat="44.8258317" lon="9.35323"><ele>899.0</ele><time>2026-05-02T10:06:46.99Z</time></trkpt><trkpt lat="44.825775" lon="9.35315"><ele>899.0</ele><time>2026-05-02T10:06:47.989Z</time></trkpt><trkpt lat="44.8257233" lon="9.3530633"><ele>899.0000000000001</ele><time>2026-05-02T10:06:48.991Z</time></trkpt><trkpt lat="44.825675" lon="9.3529833"><ele>899.0000000000001</ele><time>2026-05-02T10:06:49.989Z</time></trkpt><trkpt lat="44.825625" lon="9.3529233"><ele>899.0</ele><time>2026-05-02T10:06:50.99Z</time></trkpt><trkpt lat="44.8255267" lon="9.352825"><ele>899.0</ele><time>2026-05-02T10:06:52.989Z</time></trkpt><trkpt lat="44.825455" lon="9.3526883"><ele>896.9999999999999</ele><time>2026-05-02T10:06:54.99Z</time></trkpt><trkpt lat="44.8253683" lon="9.3525783"><ele>895.0</ele><time>2026-05-02T10:06:56.989Z</time></trkpt><trkpt lat="44.8253117" lon="9.3525367"><ele>893.0</ele><time>2026-05-02T10:06:57.989Z</time></trkpt><trkpt lat="44.8252533" lon="9.3525"><ele>891.0</ele><time>2026-05-02T10:06:58.989Z</time></trkpt><trkpt lat="44.8251933" lon="9.3524717"><ele>889.0</ele><time>2026-05-02T10:06:59.989Z</time></trkpt><trkpt lat="44.8251317" lon="9.35245"><ele>887.0</ele><time>2026-05-02T10:07:00.989Z</time></trkpt><trkpt lat="44.8250683" lon="9.3524333"><ele>885.0</ele><time>2026-05-02T10:07:01.989Z</time></trkpt><trkpt lat="44.825" lon="9.3524233"><ele>885.0</ele><time>2026-05-02T10:07:02.99Z</time></trkpt><trkpt lat="44.8249317" lon="9.35242"><ele>885.0</ele><time>2026-05-02T10:07:03.989Z</time></trkpt><trkpt lat="44.8248167" lon="9.35242"><ele>885.0</ele><time>2026-05-02T10:07:05.989Z</time></trkpt><trkpt lat="44.8247183" lon="9.3524267"><ele>885.0</ele><time>2026-05-02T10:07:07.989Z</time></trkpt><trkpt lat="44.82463" lon="9.3524533"><ele>885.0</ele><time>2026-05-02T10:07:09.989Z</time></trkpt><trkpt lat="44.8245633" lon="9.3525033"><ele>885.0</ele><time>2026-05-02T10:07:11.99Z</time></trkpt><trkpt lat="44.824485" lon="9.3525733"><ele>885.0</ele><time>2026-05-02T10:07:13.99Z</time></trkpt><trkpt lat="44.8244033" lon="9.3526633"><ele>885.0</ele><time>2026-05-02T10:07:15.989Z</time></trkpt><trkpt lat="44.8243367" lon="9.3526967"><ele>885.0</ele><time>2026-05-02T10:07:17.99Z</time></trkpt><trkpt lat="44.8242733" lon="9.3526783"><ele>885.0</ele><time>2026-05-02T10:07:19.99Z</time></trkpt><trkpt lat="44.824215" lon="9.35258"><ele>885.0</ele><time>2026-05-02T10:07:31.989Z</time></trkpt><trkpt lat="44.8242067" lon="9.3524383"><ele>885.0</ele><time>2026-05-02T10:07:34.99Z</time></trkpt><trkpt lat="44.824165" lon="9.3523617"><ele>884.4</ele><time>2026-05-02T10:07:36.99Z</time></trkpt><trkpt lat="44.8240917" lon="9.352305"><ele>883.8</ele><time>2026-05-02T10:07:38.99Z</time></trkpt><trkpt lat="44.8240383" lon="9.352215"><ele>883.2</ele><time>2026-05-02T10:07:41.99Z</time></trkpt><trkpt lat="44.8240033" lon="9.3521083"><ele>882.6</ele><time>2026-05-02T10:07:43.99Z</time></trkpt><trkpt lat="44.8239517" lon="9.3519733"><ele>882.0</ele><time>2026-05-02T10:07:45.99Z</time></trkpt><trkpt lat="44.8238833" lon="9.3518583"><ele>882.0</ele><time>2026-05-02T10:07:47.989Z</time></trkpt><trkpt lat="44.8238333" lon="9.3517533"><ele>882.0</ele><time>2026-05-02T10:07:49.989Z</time></trkpt><trkpt lat="44.82383" lon="9.3516633"><ele>882.0</ele><time>2026-05-02T10:07:51.989Z</time></trkpt><trkpt lat="44.82389" lon="9.3515667"><ele>882.0</ele><time>2026-05-02T10:07:53.99Z</time></trkpt><trkpt lat="44.8239583" lon="9.3514733"><ele>882.0</ele><time>2026-05-02T10:07:55.989Z</time></trkpt><trkpt lat="44.8239883" lon="9.3513467"><ele>882.0</ele><time>2026-05-02T10:07:57.989Z</time></trkpt><trkpt lat="44.8239583" lon="9.351215"><ele>880.4000000000001</ele><time>2026-05-02T10:07:59.99Z</time></trkpt><trkpt lat="44.823895" lon="9.3511267"><ele>878.8000000000001</ele><time>2026-05-02T10:08:01.991Z</time></trkpt><trkpt lat="44.82383" lon="9.3510117"><ele>877.2</ele><time>2026-05-02T10:08:03.99Z</time></trkpt><trkpt lat="44.82377" lon="9.3509"><ele>875.6</ele><time>2026-05-02T10:08:05.989Z</time></trkpt><trkpt lat="44.8237017" lon="9.35079"><ele>874.0</ele><time>2026-05-02T10:08:07.989Z</time></trkpt><trkpt lat="44.82366" lon="9.3506433"><ele>874.0</ele><time>2026-05-02T10:08:09.99Z</time></trkpt><trkpt lat="44.8236383" lon="9.3505067"><ele>874.0000000000001</ele><time>2026-05-02T10:08:11.989Z</time></trkpt><trkpt lat="44.8236533" lon="9.3503383"><ele>874.0000000000001</ele><time>2026-05-02T10:08:13.989Z</time></trkpt><trkpt lat="44.823675" lon="9.35019"><ele>874.0</ele><time>2026-05-02T10:08:15.99Z</time></trkpt><trkpt lat="44.82366" lon="9.3500333"><ele>874.0</ele><time>2026-05-02T10:08:17.991Z</time></trkpt><trkpt lat="44.8236467" lon="9.3498733"><ele>874.0</ele><time>2026-05-02T10:08:19.99Z</time></trkpt><trkpt lat="44.823665" lon="9.3497667"><ele>874.0000000000001</ele><time>2026-05-02T10:08:21.989Z</time></trkpt><trkpt lat="44.8237333" lon="9.3496633"><ele>874.0000000000001</ele><time>2026-05-02T10:08:23.99Z</time></trkpt><trkpt lat="44.8237767" lon="9.3495067"><ele>874.0</ele><time>2026-05-02T10:08:25.99Z</time></trkpt><trkpt lat="44.8237717" lon="9.3493483"><ele>874.0</ele><time>2026-05-02T10:08:27.989Z</time></trkpt><trkpt lat="44.82377" lon="9.3491983"><ele>875.1666666666666</ele><time>2026-05-02T10:08:29.989Z</time></trkpt><trkpt lat="44.8237917" lon="9.349035"><ele>876.3333333333333</ele><time>2026-05-02T10:08:31.99Z</time></trkpt><trkpt lat="44.8238417" lon="9.348925"><ele>877.5</ele><time>2026-05-02T10:08:33.989Z</time></trkpt><trkpt lat="44.8238967" lon="9.3488733"><ele>878.6666666666667</ele><time>2026-05-02T10:08:34.989Z</time></trkpt><trkpt lat="44.8239567" lon="9.3488233"><ele>879.8333333333334</ele><time>2026-05-02T10:08:35.99Z</time></trkpt><trkpt lat="44.8240267" lon="9.3487767"><ele>881.0</ele><time>2026-05-02T10:08:36.99Z</time></trkpt><trkpt lat="44.8241017" lon="9.3487333"><ele>881.0000000000001</ele><time>2026-05-02T10:08:37.99Z</time></trkpt><trkpt lat="44.8241833" lon="9.3486867"><ele>881.0</ele><time>2026-05-02T10:08:38.99Z</time></trkpt><trkpt lat="44.82426" lon="9.34865"><ele>881.0</ele><time>2026-05-02T10:08:39.99Z</time></trkpt><trkpt lat="44.8243333" lon="9.3485917"><ele>881.0</ele><time>2026-05-02T10:08:40.989Z</time></trkpt><trkpt lat="44.824425" lon="9.3485217"><ele>881.0000000000001</ele><time>2026-05-02T10:08:41.991Z</time></trkpt><trkpt lat="44.8244933" lon="9.3484617"><ele>881.0</ele><time>2026-05-02T10:08:42.99Z</time></trkpt><trkpt lat="44.8245667" lon="9.34838"><ele>881.0</ele><time>2026-05-02T10:08:43.99Z</time></trkpt><trkpt lat="44.8246517" lon="9.3482783"><ele>880.9999999999999</ele><time>2026-05-02T10:08:44.99Z</time></trkpt><trkpt lat="44.824715" lon="9.3481817"><ele>880.9999999999999</ele><time>2026-05-02T10:08:45.989Z</time></trkpt><trkpt lat="44.8247733" lon="9.3480917"><ele>881.0</ele><time>2026-05-02T10:08:46.989Z</time></trkpt><trkpt lat="44.8248267" lon="9.3480167"><ele>881.0</ele><time>2026-05-02T10:08:47.99Z</time></trkpt><trkpt lat="44.8248933" lon="9.347935"><ele>884.4</ele><time>2026-05-02T10:08:48.99Z</time></trkpt><trkpt lat="44.8249633" lon="9.347835"><ele>887.8</ele><time>2026-05-02T10:08:49.989Z</time></trkpt><trkpt lat="44.825025" lon="9.3477317"><ele>891.1999999999999</ele><time>2026-05-02T10:08:50.991Z</time></trkpt><trkpt lat="44.8250883" lon="9.3476183"><ele>894.5999999999999</ele><time>2026-05-02T10:08:51.989Z</time></trkpt><trkpt lat="44.8251517" lon="9.3474983"><ele>898.0</ele><time>2026-05-02T10:08:52.992Z</time></trkpt><trkpt lat="44.8252233" lon="9.3473783"><ele>892.4</ele><time>2026-05-02T10:08:53.99Z</time></trkpt><trkpt lat="44.8252783" lon="9.3472783"><ele>886.8</ele><time>2026-05-02T10:08:54.989Z</time></trkpt><trkpt lat="44.82533" lon="9.3471917"><ele>881.2</ele><time>2026-05-02T10:08:55.989Z</time></trkpt><trkpt lat="44.825385" lon="9.3470617"><ele>875.6</ele><time>2026-05-02T10:08:57.989Z</time></trkpt><trkpt lat="44.825435" lon="9.3469233"><ele>870.0</ele><time>2026-05-02T10:08:59.99Z</time></trkpt><trkpt lat="44.825475" lon="9.3467833"><ele>870.0</ele><time>2026-05-02T10:09:01.99Z</time></trkpt><trkpt lat="44.825495" lon="9.34661"><ele>870.0</ele><time>2026-05-02T10:09:03.99Z</time></trkpt><trkpt lat="44.8255183" lon="9.3465017"><ele>870.0</ele><time>2026-05-02T10:09:04.989Z</time></trkpt><trkpt lat="44.825545" lon="9.3464083"><ele>870.0</ele><time>2026-05-02T10:09:05.989Z</time></trkpt><trkpt lat="44.8255667" lon="9.34631"><ele>870.0</ele><time>2026-05-02T10:09:06.99Z</time></trkpt><trkpt lat="44.8255817" lon="9.346215"><ele>870.0</ele><time>2026-05-02T10:09:07.99Z</time></trkpt><trkpt lat="44.825595" lon="9.3461217"><ele>870.4</ele><time>2026-05-02T10:09:08.992Z</time></trkpt><trkpt lat="44.8256117" lon="9.3459667"><ele>870.8</ele><time>2026-05-02T10:09:10.991Z</time></trkpt><trkpt lat="44.8256167" lon="9.3458233"><ele>871.2</ele><time>2026-05-02T10:09:12.99Z</time></trkpt><trkpt lat="44.8256033" lon="9.34572"><ele>871.6</ele><time>2026-05-02T10:09:14.99Z</time></trkpt><trkpt lat="44.8255983" lon="9.3455633"><ele>872.0</ele><time>2026-05-02T10:09:16.99Z</time></trkpt><trkpt lat="44.8256267" lon="9.3453933"><ele>873.4000000000001</ele><time>2026-05-02T10:09:18.989Z</time></trkpt><trkpt lat="44.8256567" lon="9.3452767"><ele>874.8000000000001</ele><time>2026-05-02T10:09:19.99Z</time></trkpt><trkpt lat="44.8256867" lon="9.34517"><ele>876.2</ele><time>2026-05-02T10:09:20.99Z</time></trkpt><trkpt lat="44.8257283" lon="9.3450667"><ele>877.6</ele><time>2026-05-02T10:09:21.989Z</time></trkpt><trkpt lat="44.8257617" lon="9.34497"><ele>879.0</ele><time>2026-05-02T10:09:22.991Z</time></trkpt><trkpt lat="44.825805" lon="9.344795"><ele>880.1666666666666</ele><time>2026-05-02T10:09:24.99Z</time></trkpt><trkpt lat="44.825815" lon="9.3446933"><ele>881.3333333333333</ele><time>2026-05-02T10:09:25.99Z</time></trkpt><trkpt lat="44.8258167" lon="9.34456"><ele>882.5</ele><time>2026-05-02T10:09:26.991Z</time></trkpt><trkpt lat="44.8258217" lon="9.3444467"><ele>883.6666666666666</ele><time>2026-05-02T10:09:27.99Z</time></trkpt><trkpt lat="44.825825" lon="9.3443417"><ele>884.8333333333333</ele><time>2026-05-02T10:09:28.989Z</time></trkpt><trkpt lat="44.8258183" lon="9.3442283"><ele>886.0</ele><time>2026-05-02T10:09:29.99Z</time></trkpt><trkpt lat="44.8257283" lon="9.344115"><ele>885.9999999999999</ele><time>2026-05-02T10:09:31.99Z</time></trkpt><trkpt lat="44.8256233" lon="9.34407"><ele>886.0</ele><time>2026-05-02T10:09:33.991Z</time></trkpt><trkpt lat="44.82556" lon="9.344075"><ele>886.0</ele><time>2026-05-02T10:09:34.991Z</time></trkpt><trkpt lat="44.8254883" lon="9.3441067"><ele>886.0</ele><time>2026-05-02T10:09:35.99Z</time></trkpt><trkpt lat="44.825415" lon="9.3441417"><ele>885.9999999999999</ele><time>2026-05-02T10:09:36.99Z</time></trkpt><trkpt lat="44.8253433" lon="9.3441783"><ele>886.0</ele><time>2026-05-02T10:09:37.99Z</time></trkpt><trkpt lat="44.8252767" lon="9.3442"><ele>886.0</ele><time>2026-05-02T10:09:38.991Z</time></trkpt><trkpt lat="44.8252083" lon="9.3442083"><ele>885.9999999999999</ele><time>2026-05-02T10:09:39.99Z</time></trkpt><trkpt lat="44.825145" lon="9.3442083"><ele>885.9999999999999</ele><time>2026-05-02T10:09:40.989Z</time></trkpt><trkpt lat="44.825015" lon="9.3441633"><ele>886.0</ele><time>2026-05-02T10:09:42.99Z</time></trkpt><trkpt lat="44.824935" lon="9.3441117"><ele>886.0</ele><time>2026-05-02T10:09:43.991Z</time></trkpt><trkpt lat="44.8248433" lon="9.344065"><ele>887.6666666666666</ele><time>2026-05-02T10:09:44.991Z</time></trkpt><trkpt lat="44.82477" lon="9.3440333"><ele>889.3333333333333</ele><time>2026-05-02T10:09:45.989Z</time></trkpt><trkpt lat="44.8246963" lon="9.343998"><ele>891.0</ele><time>2026-05-02T10:09:46.99Z</time></trkpt><trkpt lat="44.8246229" lon="9.3439454"><ele>892.6666666666667</ele><time>2026-05-02T10:09:47.989Z</time></trkpt><trkpt lat="44.8245531" lon="9.3438773"><ele>894.3333333333334</ele><time>2026-05-02T10:09:48.989Z</time></trkpt><trkpt lat="44.824489" lon="9.3438142"><ele>896.0</ele><time>2026-05-02T10:09:49.99Z</time></trkpt><trkpt lat="44.8244196" lon="9.3436844"><ele>896.0</ele><time>2026-05-02T10:09:51.99Z</time></trkpt><trkpt lat="44.8243434" lon="9.3435425"><ele>895.9999999999999</ele><time>2026-05-02T10:09:53.99Z</time></trkpt><trkpt lat="44.8242835" lon="9.3434866"><ele>895.9999999999999</ele><time>2026-05-02T10:09:54.991Z</time></trkpt><trkpt lat="44.8242249" lon="9.3434427"><ele>896.0</ele><time>2026-05-02T10:09:55.99Z</time></trkpt><trkpt lat="44.8241262" lon="9.3433651"><ele>896.0</ele><time>2026-05-02T10:09:57.99Z</time></trkpt><trkpt lat="44.824065" lon="9.3432347"><ele>900.0</ele><time>2026-05-02T10:09:59.99Z</time></trkpt><trkpt lat="44.8240255" lon="9.3430817"><ele>903.9999999999999</ele><time>2026-05-02T10:10:01.99Z</time></trkpt><trkpt lat="44.823963" lon="9.3429607"><ele>907.9999999999999</ele><time>2026-05-02T10:10:03.989Z</time></trkpt><trkpt lat="44.823871" lon="9.3428561"><ele>912.0</ele><time>2026-05-02T10:10:05.99Z</time></trkpt><trkpt lat="44.8237778" lon="9.3427998"><ele>916.0</ele><time>2026-05-02T10:10:07.99Z</time></trkpt><trkpt lat="44.8236763" lon="9.3427271"><ele>916.0</ele><time>2026-05-02T10:10:09.989Z</time></trkpt><trkpt lat="44.8236264" lon="9.3426677"><ele>916.0</ele><time>2026-05-02T10:10:10.989Z</time></trkpt><trkpt lat="44.8235826" lon="9.3425928"><ele>916.0</ele><time>2026-05-02T10:10:11.99Z</time></trkpt><trkpt lat="44.8235548" lon="9.3424998"><ele>916.0</ele><time>2026-05-02T10:10:12.989Z</time></trkpt><trkpt lat="44.8235294" lon="9.3424037"><ele>916.0</ele><time>2026-05-02T10:10:13.989Z</time></trkpt><trkpt lat="44.8235048" lon="9.3423107"><ele>916.0</ele><time>2026-05-02T10:10:14.99Z</time></trkpt><trkpt lat="44.8234652" lon="9.3422344"><ele>916.0</ele><time>2026-05-02T10:10:15.99Z</time></trkpt><trkpt lat="44.823412" lon="9.3421728"><ele>920.1666666666666</ele><time>2026-05-02T10:10:16.989Z</time></trkpt><trkpt lat="44.8233347" lon="9.3421205"><ele>924.3333333333333</ele><time>2026-05-02T10:10:17.989Z</time></trkpt><trkpt lat="44.8232708" lon="9.3420693"><ele>928.5</ele><time>2026-05-02T10:10:18.989Z</time></trkpt><trkpt lat="44.8232104" lon="9.3420202"><ele>932.6666666666667</ele><time>2026-05-02T10:10:19.989Z</time></trkpt><trkpt lat="44.8231312" lon="9.341921"><ele>936.8333333333334</ele><time>2026-05-02T10:10:21.991Z</time></trkpt><trkpt lat="44.8230687" lon="9.3417923"><ele>941.0</ele><time>2026-05-02T10:10:23.989Z</time></trkpt><trkpt lat="44.823026" lon="9.3416987"><ele>941.0</ele><time>2026-05-02T10:10:25.989Z</time></trkpt><trkpt lat="44.8230236" lon="9.3415377"><ele>940.9999999999999</ele><time>2026-05-02T10:10:53.991Z</time></trkpt><trkpt lat="44.8230838" lon="9.3414276"><ele>940.9999999999999</ele><time>2026-05-02T10:10:55.99Z</time></trkpt><trkpt lat="44.8231757" lon="9.3412951"><ele>941.0</ele><time>2026-05-02T10:10:57.991Z</time></trkpt><trkpt lat="44.8232304" lon="9.3412158"><ele>941.0</ele><time>2026-05-02T10:10:58.99Z</time></trkpt><trkpt lat="44.8232834" lon="9.3411274"><ele>941.4285714285713</ele><time>2026-05-02T10:10:59.99Z</time></trkpt><trkpt lat="44.8233288" lon="9.3410339"><ele>941.8571428571429</ele><time>2026-05-02T10:11:00.989Z</time></trkpt><trkpt lat="44.8233656" lon="9.3409372"><ele>942.2857142857142</ele><time>2026-05-02T10:11:01.99Z</time></trkpt><trkpt lat="44.8234" lon="9.3408479"><ele>942.7142857142857</ele><time>2026-05-02T10:11:02.991Z</time></trkpt><trkpt lat="44.8234316" lon="9.3407642"><ele>943.1428571428571</ele><time>2026-05-02T10:11:03.99Z</time></trkpt><trkpt lat="44.8234744" lon="9.3406853"><ele>943.5714285714286</ele><time>2026-05-02T10:11:04.99Z</time></trkpt><trkpt lat="44.8235094" lon="9.3406098"><ele>944.0</ele><time>2026-05-02T10:11:05.989Z</time></trkpt><trkpt lat="44.823594" lon="9.3404879"><ele>944.6666666666667</ele><time>2026-05-02T10:11:07.991Z</time></trkpt><trkpt lat="44.8236619" lon="9.3404012"><ele>945.3333333333334</ele><time>2026-05-02T10:11:08.991Z</time></trkpt><trkpt lat="44.8237249" lon="9.3403174"><ele>946.0</ele><time>2026-05-02T10:11:09.99Z</time></trkpt><trkpt lat="44.8237763" lon="9.3402277"><ele>946.6666666666667</ele><time>2026-05-02T10:11:10.99Z</time></trkpt><trkpt lat="44.8238266" lon="9.340129"><ele>947.3333333333334</ele><time>2026-05-02T10:11:11.989Z</time></trkpt><trkpt lat="44.8238811" lon="9.3400181"><ele>948.0</ele><time>2026-05-02T10:11:12.989Z</time></trkpt><trkpt lat="44.82393" lon="9.3399"><ele>948.0</ele><time>2026-05-02T10:11:13.989Z</time></trkpt><trkpt lat="44.82398" lon="9.33978"><ele>948.0</ele><time>2026-05-02T10:11:14.99Z</time></trkpt><trkpt lat="44.82404" lon="9.3396683"><ele>948.0</ele><time>2026-05-02T10:11:15.989Z</time></trkpt><trkpt lat="44.824095" lon="9.3395583"><ele>948.0</ele><time>2026-05-02T10:11:16.99Z</time></trkpt><trkpt lat="44.824145" lon="9.3394533"><ele>948.0</ele><time>2026-05-02T10:11:17.99Z</time></trkpt><trkpt lat="44.8241867" lon="9.3393567"><ele>947.6666666666666</ele><time>2026-05-02T10:11:18.989Z</time></trkpt><trkpt lat="44.8242233" lon="9.3392583"><ele>947.3333333333333</ele><time>2026-05-02T10:11:19.99Z</time></trkpt><trkpt lat="44.8242667" lon="9.3391533"><ele>947.0</ele><time>2026-05-02T10:11:20.991Z</time></trkpt><trkpt lat="44.8243067" lon="9.3390533"><ele>946.6666666666666</ele><time>2026-05-02T10:11:21.991Z</time></trkpt><trkpt lat="44.824345" lon="9.33896"><ele>946.3333333333333</ele><time>2026-05-02T10:11:22.99Z</time></trkpt><trkpt lat="44.8244383" lon="9.3388983"><ele>946.0</ele><time>2026-05-02T10:11:24.994Z</time></trkpt><trkpt lat="44.8245417" lon="9.3389517"><ele>944.0</ele><time>2026-05-02T10:11:26.989Z</time></trkpt><trkpt lat="44.8245983" lon="9.3390083"><ele>942.0</ele><time>2026-05-02T10:11:27.989Z</time></trkpt><trkpt lat="44.8246567" lon="9.33908"><ele>940.0</ele><time>2026-05-02T10:11:28.991Z</time></trkpt><trkpt lat="44.8247083" lon="9.3391633"><ele>938.0</ele><time>2026-05-02T10:11:29.99Z</time></trkpt><trkpt lat="44.8247533" lon="9.339255"><ele>936.0</ele><time>2026-05-02T10:11:30.99Z</time></trkpt><trkpt lat="44.8247817" lon="9.3393483"><ele>934.0</ele><time>2026-05-02T10:11:31.99Z</time></trkpt><trkpt lat="44.82481" lon="9.3394317"><ele>932.0</ele><time>2026-05-02T10:11:32.99Z</time></trkpt><trkpt lat="44.8248383" lon="9.33953"><ele>932.0</ele><time>2026-05-02T10:11:34.99Z</time></trkpt><trkpt lat="44.8249067" lon="9.339425"><ele>932.0</ele><time>2026-05-02T10:11:37.991Z</time></trkpt><trkpt lat="44.82494" lon="9.3392767"><ele>932.0</ele><time>2026-05-02T10:11:39.99Z</time></trkpt><trkpt lat="44.8249633" lon="9.3391433"><ele>932.0</ele><time>2026-05-02T10:11:40.99Z</time></trkpt><trkpt lat="44.824985" lon="9.3390183"><ele>932.0</ele><time>2026-05-02T10:11:41.99Z</time></trkpt><trkpt lat="44.8249967" lon="9.3388983"><ele>930.8333333333334</ele><time>2026-05-02T10:11:42.99Z</time></trkpt><trkpt lat="44.8250017" lon="9.3387867"><ele>929.6666666666667</ele><time>2026-05-02T10:11:43.989Z</time></trkpt><trkpt lat="44.8249967" lon="9.3386717"><ele>928.5</ele><time>2026-05-02T10:11:44.992Z</time></trkpt><trkpt lat="44.824985" lon="9.3385583"><ele>927.3333333333333</ele><time>2026-05-02T10:11:45.99Z</time></trkpt><trkpt lat="44.8249717" lon="9.3384583"><ele>926.1666666666666</ele><time>2026-05-02T10:11:46.99Z</time></trkpt><trkpt lat="44.82494" lon="9.3383633"><ele>925.0</ele><time>2026-05-02T10:11:47.989Z</time></trkpt><trkpt lat="44.82491" lon="9.3382667"><ele>924.9999999999999</ele><time>2026-05-02T10:11:48.99Z</time></trkpt><trkpt lat="44.8248833" lon="9.3381817"><ele>925.0</ele><time>2026-05-02T10:11:49.99Z</time></trkpt><trkpt lat="44.8248217" lon="9.3380217"><ele>925.0</ele><time>2026-05-02T10:11:51.989Z</time></trkpt><trkpt lat="44.824795" lon="9.3379383"><ele>925.0</ele><time>2026-05-02T10:11:52.989Z</time></trkpt><trkpt lat="44.8247683" lon="9.3377783"><ele>924.9999999999999</ele><time>2026-05-02T10:11:54.991Z</time></trkpt><trkpt lat="44.82477" lon="9.337685"><ele>925.0</ele><time>2026-05-02T10:11:55.989Z</time></trkpt><trkpt lat="44.8247783" lon="9.3375933"><ele>922.4</ele><time>2026-05-02T10:11:56.99Z</time></trkpt><trkpt lat="44.8247883" lon="9.3374983"><ele>919.8</ele><time>2026-05-02T10:11:57.989Z</time></trkpt><trkpt lat="44.8247967" lon="9.33734"><ele>917.2</ele><time>2026-05-02T10:11:59.99Z</time></trkpt><trkpt lat="44.824865" lon="9.337195"><ele>914.6</ele><time>2026-05-02T10:12:01.99Z</time></trkpt><trkpt lat="44.8249033" lon="9.3371233"><ele>912.0</ele><time>2026-05-02T10:12:02.99Z</time></trkpt><trkpt lat="44.8249517" lon="9.3369617"><ele>909.0</ele><time>2026-05-02T10:12:04.989Z</time></trkpt><trkpt lat="44.8249767" lon="9.3368183"><ele>906.0</ele><time>2026-05-02T10:12:06.989Z</time></trkpt><trkpt lat="44.8250617" lon="9.3367033"><ele>903.0</ele><time>2026-05-02T10:12:08.992Z</time></trkpt><trkpt lat="44.8251067" lon="9.3366383"><ele>900.0</ele><time>2026-05-02T10:12:09.989Z</time></trkpt><trkpt lat="44.825195" lon="9.3365033"><ele>897.0</ele><time>2026-05-02T10:12:11.99Z</time></trkpt><trkpt lat="44.8252467" lon="9.3364433"><ele>894.0</ele><time>2026-05-02T10:12:12.99Z</time></trkpt><trkpt lat="44.825355" lon="9.33636"><ele>891.0</ele><time>2026-05-02T10:12:14.991Z</time></trkpt><trkpt lat="44.8254217" lon="9.3363217"><ele>888.0</ele><time>2026-05-02T10:12:15.99Z</time></trkpt><trkpt lat="44.8255" lon="9.3362717"><ele>885.0</ele><time>2026-05-02T10:12:16.989Z</time></trkpt><trkpt lat="44.8255833" lon="9.336215"><ele>882.0</ele><time>2026-05-02T10:12:17.991Z</time></trkpt><trkpt lat="44.8256683" lon="9.3361467"><ele>882.0</ele><time>2026-05-02T10:12:18.99Z</time></trkpt><trkpt lat="44.8257383" lon="9.3360767"><ele>882.0</ele><time>2026-05-02T10:12:19.989Z</time></trkpt><trkpt lat="44.8258017" lon="9.3360133"><ele>882.0</ele><time>2026-05-02T10:12:20.99Z</time></trkpt><trkpt lat="44.8258583" lon="9.3359617"><ele>882.0</ele><time>2026-05-02T10:12:21.989Z</time></trkpt><trkpt lat="44.825965" lon="9.33591"><ele>882.0</ele><time>2026-05-02T10:12:23.991Z</time></trkpt><trkpt lat="44.8260883" lon="9.33589"><ele>881.1428571428571</ele><time>2026-05-02T10:12:25.991Z</time></trkpt><trkpt lat="44.8261533" lon="9.335865"><ele>880.2857142857142</ele><time>2026-05-02T10:12:26.99Z</time></trkpt><trkpt lat="44.82622" lon="9.3358367"><ele>879.4285714285714</ele><time>2026-05-02T10:12:27.99Z</time></trkpt><trkpt lat="44.8262933" lon="9.33583"><ele>878.5714285714286</ele><time>2026-05-02T10:12:28.989Z</time></trkpt><trkpt lat="44.8263583" lon="9.3358367"><ele>877.7142857142857</ele><time>2026-05-02T10:12:29.99Z</time></trkpt><trkpt lat="44.8264333" lon="9.3358383"><ele>876.8571428571429</ele><time>2026-05-02T10:12:30.991Z</time></trkpt><trkpt lat="44.826505" lon="9.33585"><ele>876.0</ele><time>2026-05-02T10:12:31.989Z</time></trkpt><trkpt lat="44.8265717" lon="9.335865"><ele>876.0</ele><time>2026-05-02T10:12:32.991Z</time></trkpt><trkpt lat="44.8266467" lon="9.3358717"><ele>876.0</ele><time>2026-05-02T10:12:33.99Z</time></trkpt><trkpt lat="44.8267267" lon="9.3358733"><ele>876.0</ele><time>2026-05-02T10:12:34.99Z</time></trkpt><trkpt lat="44.8268517" lon="9.33589"><ele>876.0</ele><time>2026-05-02T10:12:36.989Z</time></trkpt><trkpt lat="44.8269183" lon="9.3358817"><ele>876.0</ele><time>2026-05-02T10:12:37.99Z</time></trkpt><trkpt lat="44.8269967" lon="9.3358467"><ele>876.0</ele><time>2026-05-02T10:12:38.991Z</time></trkpt><trkpt lat="44.827075" lon="9.3358167"><ele>874.6666666666666</ele><time>2026-05-02T10:12:39.99Z</time></trkpt><trkpt lat="44.82716" lon="9.3357967"><ele>873.3333333333333</ele><time>2026-05-02T10:12:40.99Z</time></trkpt><trkpt lat="44.8272467" lon="9.3357717"><ele>872.0</ele><time>2026-05-02T10:12:41.989Z</time></trkpt><trkpt lat="44.8273233" lon="9.335755"><ele>870.6666666666666</ele><time>2026-05-02T10:12:42.989Z</time></trkpt><trkpt lat="44.8273867" lon="9.3357383"><ele>869.3333333333333</ele><time>2026-05-02T10:12:43.99Z</time></trkpt><trkpt lat="44.8274883" lon="9.3357183"><ele>868.0</ele><time>2026-05-02T10:12:45.99Z</time></trkpt><trkpt lat="44.8275517" lon="9.3356967"><ele>865.2</ele><time>2026-05-02T10:12:47.99Z</time></trkpt><trkpt lat="44.827645" lon="9.3356133"><ele>862.4</ele><time>2026-05-02T10:12:50.99Z</time></trkpt><trkpt lat="44.8277233" lon="9.3355433"><ele>859.6000000000001</ele><time>2026-05-02T10:12:52.99Z</time></trkpt><trkpt lat="44.8277667" lon="9.33541"><ele>856.8000000000001</ele><time>2026-05-02T10:12:54.992Z</time></trkpt><trkpt lat="44.82778" lon="9.3353083"><ele>854.0</ele><time>2026-05-02T10:12:55.99Z</time></trkpt><trkpt lat="44.8277967" lon="9.3352033"><ele>853.5000000000001</ele><time>2026-05-02T10:12:56.991Z</time></trkpt><trkpt lat="44.8278233" lon="9.3351033"><ele>853.0</ele><time>2026-05-02T10:12:57.991Z</time></trkpt><trkpt lat="44.82785" lon="9.33501"><ele>852.5</ele><time>2026-05-02T10:12:58.99Z</time></trkpt><trkpt lat="44.8278833" lon="9.3349233"><ele>852.0</ele><time>2026-05-02T10:12:59.99Z</time></trkpt><trkpt lat="44.8279167" lon="9.3348433"><ele>851.5000000000001</ele><time>2026-05-02T10:13:00.989Z</time></trkpt><trkpt lat="44.8279783" lon="9.334735"><ele>851.0</ele><time>2026-05-02T10:13:02.991Z</time></trkpt><trkpt lat="44.8280383" lon="9.3346733"><ele>851.0000000000001</ele><time>2026-05-02T10:13:04.99Z</time></trkpt><trkpt lat="44.8281067" lon="9.3346483"><ele>851.0</ele><time>2026-05-02T10:13:06.99Z</time></trkpt><trkpt lat="44.8281783" lon="9.3346867"><ele>851.0</ele><time>2026-05-02T10:13:08.992Z</time></trkpt><trkpt lat="44.8282533" lon="9.334715"><ele>851.0</ele><time>2026-05-02T10:13:10.99Z</time></trkpt><trkpt lat="44.82834" lon="9.33473"><ele>851.0000000000001</ele><time>2026-05-02T10:13:12.992Z</time></trkpt><trkpt lat="44.828425" lon="9.3347233"><ele>851.0</ele><time>2026-05-02T10:13:14.99Z</time></trkpt><trkpt lat="44.8284667" lon="9.3346383"><ele>847.1999999999999</ele><time>2026-05-02T10:13:16.989Z</time></trkpt><trkpt lat="44.8284933" lon="9.3344767"><ele>843.4</ele><time>2026-05-02T10:13:18.99Z</time></trkpt><trkpt lat="44.8284833" lon="9.3343233"><ele>839.6</ele><time>2026-05-02T10:13:20.991Z</time></trkpt><trkpt lat="44.8284283" lon="9.3342517"><ele>835.8</ele><time>2026-05-02T10:13:22.99Z</time></trkpt><trkpt lat="44.82837" lon="9.33418"><ele>832.0</ele><time>2026-05-02T10:13:24.99Z</time></trkpt><trkpt lat="44.8284167" lon="9.3340783"><ele>831.9999999999999</ele><time>2026-05-02T10:13:27.99Z</time></trkpt><trkpt lat="44.8284683" lon="9.3340083"><ele>832.0</ele><time>2026-05-02T10:13:29.991Z</time></trkpt><trkpt lat="44.8285167" lon="9.3339333"><ele>832.0</ele><time>2026-05-02T10:13:31.99Z</time></trkpt><trkpt lat="44.8285883" lon="9.3339083"><ele>832.0</ele><time>2026-05-02T10:13:33.99Z</time></trkpt><trkpt lat="44.828675" lon="9.33389"><ele>831.9999999999999</ele><time>2026-05-02T10:13:35.99Z</time></trkpt><trkpt lat="44.828775" lon="9.33386"><ele>832.0</ele><time>2026-05-02T10:13:37.99Z</time></trkpt><trkpt lat="44.8288733" lon="9.3338417"><ele>826.2</ele><time>2026-05-02T10:13:39.991Z</time></trkpt><trkpt lat="44.828965" lon="9.3337617"><ele>820.4000000000001</ele><time>2026-05-02T10:13:41.991Z</time></trkpt><trkpt lat="44.8290417" lon="9.3336833"><ele>814.5999999999999</ele><time>2026-05-02T10:13:43.99Z</time></trkpt><trkpt lat="44.8291183" lon="9.3336133"><ele>808.8</ele><time>2026-05-02T10:13:45.99Z</time></trkpt><trkpt lat="44.82922" lon="9.333575"><ele>803.0</ele><time>2026-05-02T10:13:47.99Z</time></trkpt><trkpt lat="44.8293433" lon="9.3335417"><ele>798.5999999999999</ele><time>2026-05-02T10:13:49.989Z</time></trkpt><trkpt lat="44.8294067" lon="9.333515"><ele>794.1999999999999</ele><time>2026-05-02T10:13:50.99Z</time></trkpt><trkpt lat="44.8294683" lon="9.33348"><ele>789.8</ele><time>2026-05-02T10:13:51.99Z</time></trkpt><trkpt lat="44.8295833" lon="9.3334383"><ele>785.4</ele><time>2026-05-02T10:13:53.989Z</time></trkpt><trkpt lat="44.829675" lon="9.3334917"><ele>781.0</ele><time>2026-05-02T10:13:55.99Z</time></trkpt><trkpt lat="44.829745" lon="9.3336133"><ele>781.0</ele><time>2026-05-02T10:13:57.99Z</time></trkpt><trkpt lat="44.8298067" lon="9.3337617"><ele>781.0</ele><time>2026-05-02T10:13:59.991Z</time></trkpt><trkpt lat="44.8298733" lon="9.3338817"><ele>781.0</ele><time>2026-05-02T10:14:01.99Z</time></trkpt><trkpt lat="44.8299733" lon="9.3339633"><ele>781.0</ele><time>2026-05-02T10:14:03.99Z</time></trkpt><trkpt lat="44.830065" lon="9.3340283"><ele>781.0</ele><time>2026-05-02T10:14:05.99Z</time></trkpt><trkpt lat="44.8301583" lon="9.3341067"><ele>777.4</ele><time>2026-05-02T10:14:07.99Z</time></trkpt><trkpt lat="44.8302467" lon="9.3342183"><ele>773.8</ele><time>2026-05-02T10:14:09.989Z</time></trkpt><trkpt lat="44.83032" lon="9.3342917"><ele>770.1999999999999</ele><time>2026-05-02T10:14:11.99Z</time></trkpt><trkpt lat="44.8303933" lon="9.33426"><ele>766.5999999999999</ele><time>2026-05-02T10:14:14.99Z</time></trkpt><trkpt lat="44.8304367" lon="9.3341117"><ele>763.0</ele><time>2026-05-02T10:16:30.99Z</time></trkpt><trkpt lat="44.8304383" lon="9.3339517"><ele>760.2</ele><time>2026-05-02T10:16:32.99Z</time></trkpt><trkpt lat="44.8304383" lon="9.33378"><ele>757.4</ele><time>2026-05-02T10:16:34.992Z</time></trkpt><trkpt lat="44.83046" lon="9.3336367"><ele>754.6</ele><time>2026-05-02T10:16:36.989Z</time></trkpt><trkpt lat="44.8304883" lon="9.333525"><ele>751.8000000000001</ele><time>2026-05-02T10:16:38.991Z</time></trkpt><trkpt lat="44.8304983" lon="9.3333783"><ele>749.0</ele><time>2026-05-02T10:16:40.992Z</time></trkpt><trkpt lat="44.8304733" lon="9.3332083"><ele>749.0</ele><time>2026-05-02T10:16:42.99Z</time></trkpt><trkpt lat="44.8304517" lon="9.33311"><ele>749.0</ele><time>2026-05-02T10:16:43.99Z</time></trkpt><trkpt lat="44.8304283" lon="9.3329817"><ele>749.0</ele><time>2026-05-02T10:16:44.991Z</time></trkpt><trkpt lat="44.8303967" lon="9.3328567"><ele>749.0</ele><time>2026-05-02T10:16:45.989Z</time></trkpt><trkpt lat="44.8303517" lon="9.33273"><ele>749.0</ele><time>2026-05-02T10:16:46.99Z</time></trkpt><trkpt lat="44.830295" lon="9.3326"><ele>751.1666666666666</ele><time>2026-05-02T10:16:47.99Z</time></trkpt><trkpt lat="44.8302417" lon="9.33249"><ele>753.3333333333333</ele><time>2026-05-02T10:16:48.99Z</time></trkpt><trkpt lat="44.8301917" lon="9.3323867"><ele>755.5</ele><time>2026-05-02T10:16:49.99Z</time></trkpt><trkpt lat="44.8301467" lon="9.3322983"><ele>757.6666666666666</ele><time>2026-05-02T10:16:50.991Z</time></trkpt><trkpt lat="44.8301017" lon="9.332225"><ele>759.8333333333334</ele><time>2026-05-02T10:16:51.991Z</time></trkpt><trkpt lat="44.8300533" lon="9.3321583"><ele>762.0</ele><time>2026-05-02T10:16:52.99Z</time></trkpt><trkpt lat="44.8299833" lon="9.3321"><ele>756.3333333333334</ele><time>2026-05-02T10:16:53.99Z</time></trkpt><trkpt lat="44.8299067" lon="9.3320367"><ele>750.6666666666666</ele><time>2026-05-02T10:16:54.99Z</time></trkpt><trkpt lat="44.8298267" lon="9.3319867"><ele>745.0</ele><time>2026-05-02T10:16:55.99Z</time></trkpt><trkpt lat="44.82976" lon="9.331935"><ele>739.3333333333333</ele><time>2026-05-02T10:16:56.991Z</time></trkpt><trkpt lat="44.8296917" lon="9.331885"><ele>733.6666666666666</ele><time>2026-05-02T10:16:57.991Z</time></trkpt><trkpt lat="44.8296317" lon="9.3318433"><ele>728.0</ele><time>2026-05-02T10:16:58.99Z</time></trkpt><trkpt lat="44.8295717" lon="9.33179"><ele>728.0</ele><time>2026-05-02T10:16:59.99Z</time></trkpt><trkpt lat="44.8295083" lon="9.3317517"><ele>728.0</ele><time>2026-05-02T10:17:00.99Z</time></trkpt><trkpt lat="44.8294367" lon="9.3317317"><ele>728.0</ele><time>2026-05-02T10:17:01.99Z</time></trkpt><trkpt lat="44.8293667" lon="9.3317117"><ele>728.0</ele><time>2026-05-02T10:17:02.991Z</time></trkpt><trkpt lat="44.8293" lon="9.3316917"><ele>728.0</ele><time>2026-05-02T10:17:03.99Z</time></trkpt><trkpt lat="44.8292267" lon="9.3316817"><ele>728.0</ele><time>2026-05-02T10:17:04.989Z</time></trkpt><trkpt lat="44.829155" lon="9.3316717"><ele>728.0</ele><time>2026-05-02T10:17:05.989Z</time></trkpt><trkpt lat="44.8290767" lon="9.3316467"><ele>730.4</ele><time>2026-05-02T10:17:06.989Z</time></trkpt><trkpt lat="44.8290133" lon="9.3316133"><ele>732.8</ele><time>2026-05-02T10:17:07.991Z</time></trkpt><trkpt lat="44.828915" lon="9.331505"><ele>735.2</ele><time>2026-05-02T10:17:09.989Z</time></trkpt><trkpt lat="44.8288817" lon="9.3314267"><ele>737.6</ele><time>2026-05-02T10:17:10.989Z</time></trkpt><trkpt lat="44.8288233" lon="9.3312767"><ele>740.0</ele><time>2026-05-02T10:17:12.989Z</time></trkpt><trkpt lat="44.8287817" lon="9.33119"><ele>733.8</ele><time>2026-05-02T10:17:13.992Z</time></trkpt><trkpt lat="44.82874" lon="9.33112"><ele>727.6</ele><time>2026-05-02T10:17:14.991Z</time></trkpt><trkpt lat="44.8286567" lon="9.3310033"><ele>721.4000000000001</ele><time>2026-05-02T10:17:16.989Z</time></trkpt><trkpt lat="44.8286033" lon="9.3308633"><ele>715.2</ele><time>2026-05-02T10:17:18.99Z</time></trkpt><trkpt lat="44.8285483" lon="9.3307467"><ele>709.0</ele><time>2026-05-02T10:17:20.991Z</time></trkpt><trkpt lat="44.828475" lon="9.3306517"><ele>702.0</ele><time>2026-05-02T10:17:22.99Z</time></trkpt><trkpt lat="44.8284417" lon="9.3305517"><ele>695.0</ele><time>2026-05-02T10:17:24.99Z</time></trkpt><trkpt lat="44.828485" lon="9.3304533"><ele>688.0</ele><time>2026-05-02T10:17:26.992Z</time></trkpt><trkpt lat="44.8285783" lon="9.33041"><ele>681.0</ele><time>2026-05-02T10:17:28.991Z</time></trkpt><trkpt lat="44.82868" lon="9.3303867"><ele>674.0</ele><time>2026-05-02T10:17:30.992Z</time></trkpt><trkpt lat="44.82878" lon="9.3304133"><ele>672.4000000000001</ele><time>2026-05-02T10:17:32.992Z</time></trkpt><trkpt lat="44.8288933" lon="9.3303933"><ele>670.8</ele><time>2026-05-02T10:17:34.991Z</time></trkpt><trkpt lat="44.828955" lon="9.33037"><ele>669.2</ele><time>2026-05-02T10:17:35.992Z</time></trkpt><trkpt lat="44.8290517" lon="9.330315"><ele>667.5999999999999</ele><time>2026-05-02T10:17:37.99Z</time></trkpt><trkpt lat="44.8291283" lon="9.3303017"><ele>666.0</ele><time>2026-05-02T10:17:39.99Z</time></trkpt><trkpt lat="44.829275" lon="9.3302467"><ele>663.8333333333334</ele><time>2026-05-02T10:18:21.989Z</time></trkpt><trkpt lat="44.82939" lon="9.330325"><ele>661.6666666666666</ele><time>2026-05-02T10:18:23.989Z</time></trkpt><trkpt lat="44.8294517" lon="9.3303683"><ele>659.5</ele><time>2026-05-02T10:18:24.989Z</time></trkpt><trkpt lat="44.82952" lon="9.3304"><ele>657.3333333333333</ele><time>2026-05-02T10:18:25.989Z</time></trkpt><trkpt lat="44.8295917" lon="9.3304117"><ele>655.1666666666666</ele><time>2026-05-02T10:18:26.988Z</time></trkpt><trkpt lat="44.8296633" lon="9.3303983"><ele>653.0</ele><time>2026-05-02T10:18:27.993Z</time></trkpt><trkpt lat="44.82975" lon="9.3303717"><ele>653.0</ele><time>2026-05-02T10:18:28.988Z</time></trkpt><trkpt lat="44.8298317" lon="9.3303317"><ele>653.0</ele><time>2026-05-02T10:18:29.989Z</time></trkpt><trkpt lat="44.8299167" lon="9.3303067"><ele>653.0</ele><time>2026-05-02T10:18:30.989Z</time></trkpt><trkpt lat="44.8300033" lon="9.3302933"><ele>653.0</ele><time>2026-05-02T10:18:31.989Z</time></trkpt><trkpt lat="44.83007" lon="9.33029"><ele>653.0</ele><time>2026-05-02T10:18:32.989Z</time></trkpt><trkpt lat="44.8301333" lon="9.3302783"><ele>653.0</ele><time>2026-05-02T10:18:33.99Z</time></trkpt><trkpt lat="44.8302033" lon="9.330255"><ele>653.6666666666666</ele><time>2026-05-02T10:18:34.99Z</time></trkpt><trkpt lat="44.8302633" lon="9.3301933"><ele>654.3333333333333</ele><time>2026-05-02T10:18:35.99Z</time></trkpt><trkpt lat="44.8303217" lon="9.3301067"><ele>655.0</ele><time>2026-05-02T10:18:36.989Z</time></trkpt><trkpt lat="44.8303833" lon="9.3300333"><ele>655.6666666666666</ele><time>2026-05-02T10:18:37.99Z</time></trkpt><trkpt lat="44.8304467" lon="9.3299833"><ele>656.3333333333334</ele><time>2026-05-02T10:18:38.989Z</time></trkpt><trkpt lat="44.8305267" lon="9.32995"><ele>657.0</ele><time>2026-05-02T10:18:39.99Z</time></trkpt><trkpt lat="44.83061" lon="9.329925"><ele>657.0</ele><time>2026-05-02T10:18:40.989Z</time></trkpt><trkpt lat="44.830695" lon="9.329895"><ele>657.0</ele><time>2026-05-02T10:18:41.989Z</time></trkpt><trkpt lat="44.8307767" lon="9.3298483"><ele>657.0</ele><time>2026-05-02T10:18:42.99Z</time></trkpt><trkpt lat="44.8308517" lon="9.3298"><ele>657.0</ele><time>2026-05-02T10:18:43.989Z</time></trkpt><trkpt lat="44.830915" lon="9.32976"><ele>657.0</ele><time>2026-05-02T10:18:44.99Z</time></trkpt><trkpt lat="44.8310167" lon="9.3297"><ele>657.0</ele><time>2026-05-02T10:18:46.988Z</time></trkpt><trkpt lat="44.8310983" lon="9.3296683"><ele>653.6666666666666</ele><time>2026-05-02T10:18:48.99Z</time></trkpt><trkpt lat="44.83118" lon="9.3296567"><ele>650.3333333333334</ele><time>2026-05-02T10:18:50.989Z</time></trkpt><trkpt lat="44.8312533" lon="9.32965"><ele>647.0</ele><time>2026-05-02T10:18:52.991Z</time></trkpt><trkpt lat="44.831335" lon="9.3296467"><ele>643.6666666666667</ele><time>2026-05-02T10:18:54.989Z</time></trkpt><trkpt lat="44.8313983" lon="9.3296383"><ele>640.3333333333334</ele><time>2026-05-02T10:18:56.99Z</time></trkpt><trkpt lat="44.8314617" lon="9.3296017"><ele>637.0</ele><time>2026-05-02T10:18:59.989Z</time></trkpt><trkpt lat="44.83154" lon="9.329565"><ele>637.0</ele><time>2026-05-02T10:19:01.989Z</time></trkpt><trkpt lat="44.831625" lon="9.3295383"><ele>637.0</ele><time>2026-05-02T10:19:03.989Z</time></trkpt><trkpt lat="44.831705" lon="9.329535"><ele>637.0</ele><time>2026-05-02T10:19:05.988Z</time></trkpt><trkpt lat="44.8317883" lon="9.3295467"><ele>637.0</ele><time>2026-05-02T10:19:07.989Z</time></trkpt><trkpt lat="44.8318633" lon="9.3295567"><ele>637.0</ele><time>2026-05-02T10:19:09.99Z</time></trkpt><trkpt lat="44.8319483" lon="9.3296017"><ele>637.0</ele><time>2026-05-02T10:19:11.989Z</time></trkpt><trkpt lat="44.8320267" lon="9.3296767"><ele>637.3333333333334</ele><time>2026-05-02T10:19:13.991Z</time></trkpt><trkpt lat="44.8320783" lon="9.3297533"><ele>637.6666666666667</ele><time>2026-05-02T10:19:15.989Z</time></trkpt><trkpt lat="44.8321417" lon="9.3298033"><ele>638.0</ele><time>2026-05-02T10:19:18.991Z</time></trkpt><trkpt lat="44.8321717" lon="9.3297"><ele>638.3333333333334</ele><time>2026-05-02T10:19:23.99Z</time></trkpt><trkpt lat="44.8321533" lon="9.3295933"><ele>638.6666666666666</ele><time>2026-05-02T10:19:26.99Z</time></trkpt><trkpt lat="44.832135" lon="9.3295067"><ele>639.0</ele><time>2026-05-02T10:19:28.989Z</time></trkpt><trkpt lat="44.83208" lon="9.3293967"><ele>638.6</ele><time>2026-05-02T10:19:31.989Z</time></trkpt><trkpt lat="44.8320017" lon="9.329345"><ele>638.2</ele><time>2026-05-02T10:19:33.989Z</time></trkpt><trkpt lat="44.8318917" lon="9.329285"><ele>637.8000000000001</ele><time>2026-05-02T10:19:35.989Z</time></trkpt><trkpt lat="44.8317883" lon="9.32924"><ele>637.4</ele><time>2026-05-02T10:19:37.99Z</time></trkpt><trkpt lat="44.831705" lon="9.3291717"><ele>637.0</ele><time>2026-05-02T10:19:40.989Z</time></trkpt><trkpt lat="44.83164" lon="9.3291183"><ele>637.0</ele><time>2026-05-02T10:19:42.989Z</time></trkpt><trkpt lat="44.8315583" lon="9.3290233"><ele>637.0</ele><time>2026-05-02T10:19:44.99Z</time></trkpt><trkpt lat="44.831465" lon="9.328945"><ele>637.0</ele><time>2026-05-02T10:19:46.989Z</time></trkpt><trkpt lat="44.8314" lon="9.328895"><ele>637.0</ele><time>2026-05-02T10:19:47.99Z</time></trkpt><trkpt lat="44.8313417" lon="9.3288433"><ele>637.0</ele><time>2026-05-02T10:19:48.989Z</time></trkpt><trkpt lat="44.8312783" lon="9.3287933"><ele>637.0</ele><time>2026-05-02T10:19:49.992Z</time></trkpt><trkpt lat="44.8312117" lon="9.3287433"><ele>634.1666666666667</ele><time>2026-05-02T10:19:50.989Z</time></trkpt><trkpt lat="44.83115" lon="9.3286867"><ele>631.3333333333334</ele><time>2026-05-02T10:19:51.989Z</time></trkpt><trkpt lat="44.831085" lon="9.32863"><ele>628.5</ele><time>2026-05-02T10:19:52.989Z</time></trkpt><trkpt lat="44.8309883" lon="9.32857"><ele>625.6666666666666</ele><time>2026-05-02T10:19:54.989Z</time></trkpt><trkpt lat="44.8309533" lon="9.32848"><ele>622.8333333333333</ele><time>2026-05-02T10:20:32.989Z</time></trkpt><trkpt lat="44.83099" lon="9.3284"><ele>620.0</ele><time>2026-05-02T10:20:34.99Z</time></trkpt><trkpt lat="44.831045" lon="9.3282933"><ele>619.4</ele><time>2026-05-02T10:20:36.989Z</time></trkpt><trkpt lat="44.8311117" lon="9.3281833"><ele>618.8</ele><time>2026-05-02T10:20:38.989Z</time></trkpt><trkpt lat="44.8312133" lon="9.3280983"><ele>618.2</ele><time>2026-05-02T10:20:40.989Z</time></trkpt><trkpt lat="44.8312917" lon="9.3280633"><ele>617.6</ele><time>2026-05-02T10:20:41.989Z</time></trkpt><trkpt lat="44.831375" lon="9.328045"><ele>617.0</ele><time>2026-05-02T10:20:42.989Z</time></trkpt><trkpt lat="44.831475" lon="9.3280433"><ele>619.4</ele><time>2026-05-02T10:20:43.989Z</time></trkpt><trkpt lat="44.8315717" lon="9.3280383"><ele>621.8000000000001</ele><time>2026-05-02T10:20:44.989Z</time></trkpt><trkpt lat="44.831665" lon="9.3280233"><ele>624.2</ele><time>2026-05-02T10:20:45.989Z</time></trkpt><trkpt lat="44.8317533" lon="9.3279967"><ele>626.6</ele><time>2026-05-02T10:20:46.989Z</time></trkpt><trkpt lat="44.8318483" lon="9.3279767"><ele>629.0</ele><time>2026-05-02T10:20:47.989Z</time></trkpt><trkpt lat="44.831935" lon="9.32796"><ele>629.2</ele><time>2026-05-02T10:20:48.989Z</time></trkpt><trkpt lat="44.8320333" lon="9.3279383"><ele>629.4</ele><time>2026-05-02T10:20:49.989Z</time></trkpt><trkpt lat="44.8321367" lon="9.32792"><ele>629.6</ele><time>2026-05-02T10:20:50.989Z</time></trkpt><trkpt lat="44.8322367" lon="9.3279067"><ele>629.8</ele><time>2026-05-02T10:20:51.989Z</time></trkpt><trkpt lat="44.8323367" lon="9.3278983"><ele>630.0</ele><time>2026-05-02T10:20:52.989Z</time></trkpt><trkpt lat="44.83243" lon="9.3278817"><ele>630.0</ele><time>2026-05-02T10:20:53.99Z</time></trkpt><trkpt lat="44.832525" lon="9.327875"><ele>630.0</ele><time>2026-05-02T10:20:54.989Z</time></trkpt><trkpt lat="44.83265" lon="9.3279167"><ele>630.0</ele><time>2026-05-02T10:20:56.989Z</time></trkpt><trkpt lat="44.83271" lon="9.3279717"><ele>630.0</ele><time>2026-05-02T10:20:57.989Z</time></trkpt><trkpt lat="44.832755" lon="9.3280533"><ele>630.0</ele><time>2026-05-02T10:20:58.99Z</time></trkpt><trkpt lat="44.8328067" lon="9.3281117"><ele>630.0</ele><time>2026-05-02T10:20:59.989Z</time></trkpt><trkpt lat="44.832865" lon="9.3281733"><ele>626.8333333333334</ele><time>2026-05-02T10:21:00.989Z</time></trkpt><trkpt lat="44.8329167" lon="9.3282333"><ele>623.6666666666666</ele><time>2026-05-02T10:21:01.989Z</time></trkpt><trkpt lat="44.8329783" lon="9.3282967"><ele>620.5</ele><time>2026-05-02T10:21:02.989Z</time></trkpt><trkpt lat="44.83306" lon="9.32835"><ele>617.3333333333333</ele><time>2026-05-02T10:21:03.989Z</time></trkpt><trkpt lat="44.8331417" lon="9.3284067"><ele>614.1666666666666</ele><time>2026-05-02T10:21:04.988Z</time></trkpt><trkpt lat="44.83322" lon="9.32845"><ele>611.0</ele><time>2026-05-02T10:21:05.989Z</time></trkpt><trkpt lat="44.8332967" lon="9.328485"><ele>611.0</ele><time>2026-05-02T10:21:06.989Z</time></trkpt><trkpt lat="44.83337" lon="9.3285083"><ele>611.0</ele><time>2026-05-02T10:21:07.989Z</time></trkpt><trkpt lat="44.8334467" lon="9.3285283"><ele>611.0</ele><time>2026-05-02T10:21:08.99Z</time></trkpt><trkpt lat="44.8335267" lon="9.3285683"><ele>611.0</ele><time>2026-05-02T10:21:09.989Z</time></trkpt><trkpt lat="44.83361" lon="9.3286233"><ele>611.0</ele><time>2026-05-02T10:21:10.989Z</time></trkpt><trkpt lat="44.833685" lon="9.3286833"><ele>611.0</ele><time>2026-05-02T10:21:11.989Z</time></trkpt><trkpt lat="44.8337633" lon="9.328725"><ele>612.0</ele><time>2026-05-02T10:21:12.988Z</time></trkpt><trkpt lat="44.8338483" lon="9.328755"><ele>613.0</ele><time>2026-05-02T10:21:13.99Z</time></trkpt><trkpt lat="44.8339217" lon="9.3287967"><ele>614.0</ele><time>2026-05-02T10:21:14.989Z</time></trkpt><trkpt lat="44.8339933" lon="9.3288433"><ele>615.0</ele><time>2026-05-02T10:21:15.989Z</time></trkpt><trkpt lat="44.8340667" lon="9.3289217"><ele>616.0</ele><time>2026-05-02T10:21:16.989Z</time></trkpt><trkpt lat="44.83414" lon="9.3289933"><ele>617.0</ele><time>2026-05-02T10:21:17.989Z</time></trkpt><trkpt lat="44.8342233" lon="9.329065"><ele>614.2</ele><time>2026-05-02T10:21:18.989Z</time></trkpt><trkpt lat="44.8343083" lon="9.329135"><ele>611.4000000000001</ele><time>2026-05-02T10:21:19.99Z</time></trkpt><trkpt lat="44.8343883" lon="9.3291967"><ele>608.5999999999999</ele><time>2026-05-02T10:21:20.991Z</time></trkpt><trkpt lat="44.8344633" lon="9.3292567"><ele>605.8</ele><time>2026-05-02T10:21:21.99Z</time></trkpt><trkpt lat="44.834545" lon="9.3293233"><ele>603.0</ele><time>2026-05-02T10:21:22.99Z</time></trkpt><trkpt lat="44.834625" lon="9.32938"><ele>603.0</ele><time>2026-05-02T10:21:23.99Z</time></trkpt><trkpt lat="44.8347017" lon="9.329425"><ele>603.0</ele><time>2026-05-02T10:21:24.991Z</time></trkpt><trkpt lat="44.8347667" lon="9.32946"><ele>603.0</ele><time>2026-05-02T10:21:25.99Z</time></trkpt><trkpt lat="44.83483" lon="9.3295133"><ele>603.0</ele><time>2026-05-02T10:21:26.99Z</time></trkpt><trkpt lat="44.8348917" lon="9.3295683"><ele>603.0</ele><time>2026-05-02T10:21:27.989Z</time></trkpt><trkpt lat="44.834955" lon="9.3296267"><ele>603.0</ele><time>2026-05-02T10:21:28.989Z</time></trkpt><trkpt lat="44.835015" lon="9.3296717"><ele>603.0</ele><time>2026-05-02T10:21:29.989Z</time></trkpt><trkpt lat="44.8350733" lon="9.3297317"><ele>601.5</ele><time>2026-05-02T10:21:30.989Z</time></trkpt><trkpt lat="44.835135" lon="9.3297967"><ele>600.0</ele><time>2026-05-02T10:21:31.989Z</time></trkpt><trkpt lat="44.8352117" lon="9.3298467"><ele>598.5</ele><time>2026-05-02T10:21:32.989Z</time></trkpt><trkpt lat="44.8353" lon="9.3298833"><ele>597.0</ele><time>2026-05-02T10:21:33.989Z</time></trkpt><trkpt lat="44.8353833" lon="9.3299133"><ele>595.5</ele><time>2026-05-02T10:21:34.989Z</time></trkpt><trkpt lat="44.8354683" lon="9.3299433"><ele>594.0</ele><time>2026-05-02T10:21:35.991Z</time></trkpt><trkpt lat="44.8355417" lon="9.3299683"><ele>593.2</ele><time>2026-05-02T10:21:36.989Z</time></trkpt><trkpt lat="44.8356067" lon="9.329995"><ele>592.4</ele><time>2026-05-02T10:21:37.99Z</time></trkpt><trkpt lat="44.8357067" lon="9.32999"><ele>591.6</ele><time>2026-05-02T10:21:39.989Z</time></trkpt><trkpt lat="44.8357683" lon="9.32989"><ele>590.8</ele><time>2026-05-02T10:21:41.991Z</time></trkpt><trkpt lat="44.83583" lon="9.3297717"><ele>590.0</ele><time>2026-05-02T10:21:43.989Z</time></trkpt><trkpt lat="44.8359067" lon="9.3296767"><ele>591.6</ele><time>2026-05-02T10:21:45.989Z</time></trkpt><trkpt lat="44.8359917" lon="9.329625"><ele>593.2</ele><time>2026-05-02T10:21:47.989Z</time></trkpt><trkpt lat="44.83609" lon="9.32965"><ele>594.8</ele><time>2026-05-02T10:21:49.99Z</time></trkpt><trkpt lat="44.83619" lon="9.3297083"><ele>596.4</ele><time>2026-05-02T10:21:51.989Z</time></trkpt><trkpt lat="44.83626" lon="9.3296917"><ele>598.0</ele><time>2026-05-02T10:21:53.989Z</time></trkpt><trkpt lat="44.8363183" lon="9.32961"><ele>598.0</ele><time>2026-05-02T10:21:55.988Z</time></trkpt><trkpt lat="44.8363567" lon="9.3294567"><ele>598.0</ele><time>2026-05-02T10:21:57.99Z</time></trkpt><trkpt lat="44.83638" lon="9.32935"><ele>598.0</ele><time>2026-05-02T10:21:58.989Z</time></trkpt><trkpt lat="44.8364017" lon="9.3292283"><ele>598.0</ele><time>2026-05-02T10:21:59.989Z</time></trkpt><trkpt lat="44.8364233" lon="9.3290983"><ele>598.0</ele><time>2026-05-02T10:22:00.989Z</time></trkpt><trkpt lat="44.8364367" lon="9.32896"><ele>599.0</ele><time>2026-05-02T10:22:01.989Z</time></trkpt><trkpt lat="44.83644" lon="9.3288233"><ele>600.0</ele><time>2026-05-02T10:22:02.989Z</time></trkpt><trkpt lat="44.8364383" lon="9.3286917"><ele>601.0</ele><time>2026-05-02T10:22:03.989Z</time></trkpt><trkpt lat="44.8364317" lon="9.32857"><ele>602.0</ele><time>2026-05-02T10:22:04.989Z</time></trkpt><trkpt lat="44.8364283" lon="9.3284683"><ele>603.0</ele><time>2026-05-02T10:22:05.991Z</time></trkpt><trkpt lat="44.8364783" lon="9.3283317"><ele>603.0</ele><time>2026-05-02T10:22:07.99Z</time></trkpt><trkpt lat="44.8365717" lon="9.3282633"><ele>603.0</ele><time>2026-05-02T10:22:09.989Z</time></trkpt><trkpt lat="44.8366417" lon="9.3281367"><ele>603.0</ele><time>2026-05-02T10:22:11.99Z</time></trkpt><trkpt lat="44.8366517" lon="9.3280317"><ele>603.0</ele><time>2026-05-02T10:22:12.989Z</time></trkpt><trkpt lat="44.8366533" lon="9.32791"><ele>603.0</ele><time>2026-05-02T10:22:13.989Z</time></trkpt><trkpt lat="44.836655" lon="9.3278"><ele>604.0</ele><time>2026-05-02T10:22:14.99Z</time></trkpt><trkpt lat="44.8366617" lon="9.3276933"><ele>605.0</ele><time>2026-05-02T10:22:15.989Z</time></trkpt><trkpt lat="44.83667" lon="9.3275967"><ele>606.0</ele><time>2026-05-02T10:22:16.989Z</time></trkpt><trkpt lat="44.8366983" lon="9.3274717"><ele>607.0</ele><time>2026-05-02T10:22:18.989Z</time></trkpt><trkpt lat="44.8367233" lon="9.32738"><ele>608.0</ele><time>2026-05-02T10:22:20.99Z</time></trkpt><trkpt lat="44.836715" lon="9.3271967"><ele>609.0</ele><time>2026-05-02T10:22:22.989Z</time></trkpt><trkpt lat="44.8366867" lon="9.3270733"><ele>611.25</ele><time>2026-05-02T10:22:23.99Z</time></trkpt><trkpt lat="44.8366417" lon="9.32693"><ele>613.5</ele><time>2026-05-02T10:22:24.989Z</time></trkpt><trkpt lat="44.83659" lon="9.3267667"><ele>615.75</ele><time>2026-05-02T10:22:25.989Z</time></trkpt><trkpt lat="44.8365417" lon="9.3266017"><ele>618.0</ele><time>2026-05-02T10:22:26.989Z</time></trkpt><trkpt lat="44.8364933" lon="9.3264433"><ele>620.5</ele><time>2026-05-02T10:22:27.989Z</time></trkpt><trkpt lat="44.836445" lon="9.3262833"><ele>623.0</ele><time>2026-05-02T10:22:28.989Z</time></trkpt><trkpt lat="44.836395" lon="9.3261217"><ele>625.5</ele><time>2026-05-02T10:22:29.989Z</time></trkpt><trkpt lat="44.8363383" lon="9.3259583"><ele>628.0</ele><time>2026-05-02T10:22:30.99Z</time></trkpt><trkpt lat="44.8362733" lon="9.3257917"><ele>628.0</ele><time>2026-05-02T10:22:31.99Z</time></trkpt><trkpt lat="44.836195" lon="9.3256233"><ele>628.0</ele><time>2026-05-02T10:22:32.99Z</time></trkpt><trkpt lat="44.8361017" lon="9.3254567"><ele>628.0</ele><time>2026-05-02T10:22:33.989Z</time></trkpt><trkpt lat="44.8359883" lon="9.3252817"><ele>626.6666666666667</ele><time>2026-05-02T10:22:34.99Z</time></trkpt><trkpt lat="44.8358683" lon="9.3251017"><ele>625.3333333333334</ele><time>2026-05-02T10:22:35.989Z</time></trkpt><trkpt lat="44.8357483" lon="9.32493"><ele>624.0</ele><time>2026-05-02T10:22:36.989Z</time></trkpt><trkpt lat="44.8356317" lon="9.3247733"><ele>628.0</ele><time>2026-05-02T10:22:37.989Z</time></trkpt><trkpt lat="44.8355283" lon="9.32463"><ele>632.0</ele><time>2026-05-02T10:22:38.989Z</time></trkpt><trkpt lat="44.8354283" lon="9.324495"><ele>636.0</ele><time>2026-05-02T10:22:39.989Z</time></trkpt><trkpt lat="44.8353317" lon="9.32436"><ele>640.0</ele><time>2026-05-02T10:22:40.989Z</time></trkpt><trkpt lat="44.835235" lon="9.3242317"><ele>640.0</ele><time>2026-05-02T10:22:41.989Z</time></trkpt><trkpt lat="44.835145" lon="9.3241217"><ele>640.0</ele><time>2026-05-02T10:22:42.991Z</time></trkpt><trkpt lat="44.8350633" lon="9.3240267"><ele>640.0</ele><time>2026-05-02T10:22:43.99Z</time></trkpt><trkpt lat="44.8349867" lon="9.323935"><ele>640.0</ele><time>2026-05-02T10:22:44.989Z</time></trkpt><trkpt lat="44.8349183" lon="9.32385"><ele>640.0</ele><time>2026-05-02T10:22:45.989Z</time></trkpt><trkpt lat="44.834855" lon="9.3237717"><ele>640.6666666666667</ele><time>2026-05-02T10:22:46.988Z</time></trkpt><trkpt lat="44.8347967" lon="9.3237083"><ele>641.3333333333334</ele><time>2026-05-02T10:22:47.989Z</time></trkpt><trkpt lat="44.8347383" lon="9.3236567"><ele>642.0</ele><time>2026-05-02T10:22:48.99Z</time></trkpt><trkpt lat="44.8346383" lon="9.3236333"><ele>642.6666666666666</ele><time>2026-05-02T10:22:50.99Z</time></trkpt><trkpt lat="44.83456" lon="9.323705"><ele>643.3333333333333</ele><time>2026-05-02T10:22:52.989Z</time></trkpt><trkpt lat="44.8345333" lon="9.3238033"><ele>644.0</ele><time>2026-05-02T10:22:54.989Z</time></trkpt><trkpt lat="44.8346983" lon="9.3237783"><ele>644.0</ele><time>2026-05-02T10:33:00.99Z</time></trkpt><trkpt lat="44.8347917" lon="9.3237833"><ele>644.0</ele><time>2026-05-02T10:33:03.99Z</time></trkpt><trkpt lat="44.8348967" lon="9.32386"><ele>644.0</ele><time>2026-05-02T10:33:05.991Z</time></trkpt><trkpt lat="44.8349567" lon="9.3239233"><ele>644.0</ele><time>2026-05-02T10:33:06.99Z</time></trkpt><trkpt lat="44.8350167" lon="9.3239933"><ele>644.0</ele><time>2026-05-02T10:33:07.991Z</time></trkpt><trkpt lat="44.8350733" lon="9.3240583"><ele>644.0</ele><time>2026-05-02T10:33:08.99Z</time></trkpt><trkpt lat="44.8351333" lon="9.3241183"><ele>643.3333333333333</ele><time>2026-05-02T10:33:09.991Z</time></trkpt><trkpt lat="44.8352" lon="9.324175"><ele>642.6666666666666</ele><time>2026-05-02T10:33:10.99Z</time></trkpt><trkpt lat="44.8352617" lon="9.32423"><ele>642.0</ele><time>2026-05-02T10:33:11.989Z</time></trkpt><trkpt lat="44.8353217" lon="9.324285"><ele>641.3333333333334</ele><time>2026-05-02T10:33:12.992Z</time></trkpt><trkpt lat="44.8353867" lon="9.3243417"><ele>640.6666666666667</ele><time>2026-05-02T10:33:13.991Z</time></trkpt><trkpt lat="44.835455" lon="9.3243933"><ele>640.0</ele><time>2026-05-02T10:33:14.991Z</time></trkpt><trkpt lat="44.83553" lon="9.3244517"><ele>640.0</ele><time>2026-05-02T10:33:15.99Z</time></trkpt><trkpt lat="44.83562" lon="9.32452"><ele>640.0</ele><time>2026-05-02T10:33:16.989Z</time></trkpt><trkpt lat="44.8357183" lon="9.3245917"><ele>640.0</ele><time>2026-05-02T10:33:17.991Z</time></trkpt><trkpt lat="44.8358067" lon="9.3246633"><ele>640.0</ele><time>2026-05-02T10:33:18.99Z</time></trkpt><trkpt lat="44.8358883" lon="9.3247333"><ele>640.0</ele><time>2026-05-02T10:33:19.991Z</time></trkpt><trkpt lat="44.8359583" lon="9.324795"><ele>639.2857142857142</ele><time>2026-05-02T10:33:20.991Z</time></trkpt><trkpt lat="44.8360233" lon="9.3248517"><ele>638.5714285714286</ele><time>2026-05-02T10:33:21.991Z</time></trkpt><trkpt lat="44.836085" lon="9.3249067"><ele>637.8571428571429</ele><time>2026-05-02T10:33:22.99Z</time></trkpt><trkpt lat="44.836145" lon="9.3249617"><ele>637.1428571428571</ele><time>2026-05-02T10:33:23.991Z</time></trkpt><trkpt lat="44.836205" lon="9.3250233"><ele>636.4285714285714</ele><time>2026-05-02T10:33:24.989Z</time></trkpt><trkpt lat="44.8362583" lon="9.325095"><ele>635.7142857142857</ele><time>2026-05-02T10:33:25.991Z</time></trkpt><trkpt lat="44.83631" lon="9.32518"><ele>635.0</ele><time>2026-05-02T10:33:26.99Z</time></trkpt><trkpt lat="44.8363583" lon="9.3252717"><ele>635.0</ele><time>2026-05-02T10:33:27.991Z</time></trkpt><trkpt lat="44.8364067" lon="9.3253667"><ele>635.0</ele><time>2026-05-02T10:33:28.99Z</time></trkpt><trkpt lat="44.8364533" lon="9.3254633"><ele>635.0</ele><time>2026-05-02T10:33:29.99Z</time></trkpt><trkpt lat="44.8365" lon="9.3255617"><ele>635.0</ele><time>2026-05-02T10:33:30.99Z</time></trkpt><trkpt lat="44.83655" lon="9.3256567"><ele>635.0</ele><time>2026-05-02T10:33:31.99Z</time></trkpt><trkpt lat="44.8366" lon="9.3257467"><ele>635.0</ele><time>2026-05-02T10:33:32.991Z</time></trkpt><trkpt lat="44.8366517" lon="9.3258383"><ele>633.8333333333333</ele><time>2026-05-02T10:33:33.991Z</time></trkpt><trkpt lat="44.836705" lon="9.3259267"><ele>632.6666666666666</ele><time>2026-05-02T10:33:34.989Z</time></trkpt><trkpt lat="44.83676" lon="9.32602"><ele>631.5</ele><time>2026-05-02T10:33:35.989Z</time></trkpt><trkpt lat="44.8368167" lon="9.32611"><ele>630.3333333333334</ele><time>2026-05-02T10:33:36.989Z</time></trkpt><trkpt lat="44.8368717" lon="9.3262"><ele>629.1666666666667</ele><time>2026-05-02T10:33:37.99Z</time></trkpt><trkpt lat="44.8369333" lon="9.32629"><ele>628.0</ele><time>2026-05-02T10:33:38.991Z</time></trkpt><trkpt lat="44.836995" lon="9.3263783"><ele>627.8333333333334</ele><time>2026-05-02T10:33:39.989Z</time></trkpt><trkpt lat="44.8370467" lon="9.326465"><ele>627.6666666666667</ele><time>2026-05-02T10:33:40.99Z</time></trkpt><trkpt lat="44.8370967" lon="9.3265583"><ele>627.5</ele><time>2026-05-02T10:33:41.989Z</time></trkpt><trkpt lat="44.8371383" lon="9.3266517"><ele>627.3333333333334</ele><time>2026-05-02T10:33:42.99Z</time></trkpt><trkpt lat="44.8371783" lon="9.32675"><ele>627.1666666666666</ele><time>2026-05-02T10:33:43.989Z</time></trkpt><trkpt lat="44.8372183" lon="9.3268533"><ele>627.0</ele><time>2026-05-02T10:33:44.992Z</time></trkpt><trkpt lat="44.83726" lon="9.3269583"><ele>627.0</ele><time>2026-05-02T10:33:45.99Z</time></trkpt><trkpt lat="44.83729" lon="9.3270567"><ele>627.0</ele><time>2026-05-02T10:33:46.991Z</time></trkpt><trkpt lat="44.8373133" lon="9.3271467"><ele>627.0</ele><time>2026-05-02T10:33:47.99Z</time></trkpt><trkpt lat="44.8373717" lon="9.32726"><ele>627.0</ele><time>2026-05-02T10:33:49.989Z</time></trkpt><trkpt lat="44.8373533" lon="9.327155"><ele>627.0</ele><time>2026-05-02T10:33:53.991Z</time></trkpt><trkpt lat="44.8373283" lon="9.3270483"><ele>627.0</ele><time>2026-05-02T10:33:54.989Z</time></trkpt><trkpt lat="44.8372967" lon="9.3269217"><ele>627.0</ele><time>2026-05-02T10:33:55.991Z</time></trkpt><trkpt lat="44.8372633" lon="9.3267867"><ele>627.0</ele><time>2026-05-02T10:33:56.99Z</time></trkpt><trkpt lat="44.837225" lon="9.326645"><ele>627.0</ele><time>2026-05-02T10:33:57.989Z</time></trkpt><trkpt lat="44.8371917" lon="9.3265083"><ele>627.0</ele><time>2026-05-02T10:33:58.99Z</time></trkpt><trkpt lat="44.8371567" lon="9.32638"><ele>627.0</ele><time>2026-05-02T10:33:59.995Z</time></trkpt><trkpt lat="44.83712" lon="9.326255"><ele>627.2</ele><time>2026-05-02T10:34:00.99Z</time></trkpt><trkpt lat="44.8370833" lon="9.32613"><ele>627.4000000000001</ele><time>2026-05-02T10:34:01.99Z</time></trkpt><trkpt lat="44.83705" lon="9.3260033"><ele>627.5999999999999</ele><time>2026-05-02T10:34:02.991Z</time></trkpt><trkpt lat="44.8370133" lon="9.325875"><ele>627.8</ele><time>2026-05-02T10:34:03.99Z</time></trkpt><trkpt lat="44.8369767" lon="9.325745"><ele>628.0</ele><time>2026-05-02T10:34:04.99Z</time></trkpt><trkpt lat="44.8369483" lon="9.3256083"><ele>628.0</ele><time>2026-05-02T10:34:05.99Z</time></trkpt><trkpt lat="44.83693" lon="9.3254667"><ele>628.0</ele><time>2026-05-02T10:34:06.99Z</time></trkpt><trkpt lat="44.8369233" lon="9.3253233"><ele>628.0</ele><time>2026-05-02T10:34:07.991Z</time></trkpt><trkpt lat="44.8369233" lon="9.3251833"><ele>628.0</ele><time>2026-05-02T10:34:08.992Z</time></trkpt><trkpt lat="44.8369233" lon="9.3250467"><ele>628.0</ele><time>2026-05-02T10:34:09.989Z</time></trkpt><trkpt lat="44.8369233" lon="9.3249117"><ele>628.0</ele><time>2026-05-02T10:34:10.99Z</time></trkpt><trkpt lat="44.836915" lon="9.32478"><ele>628.0</ele><time>2026-05-02T10:34:11.99Z</time></trkpt><trkpt lat="44.8369" lon="9.3246517"><ele>628.0</ele><time>2026-05-02T10:34:12.99Z</time></trkpt><trkpt lat="44.8368783" lon="9.32453"><ele>628.0</ele><time>2026-05-02T10:34:13.99Z</time></trkpt><trkpt lat="44.83685" lon="9.32442"><ele>628.0</ele><time>2026-05-02T10:34:14.99Z</time></trkpt><trkpt lat="44.836825" lon="9.3243183"><ele>628.0</ele><time>2026-05-02T10:34:15.991Z</time></trkpt><trkpt lat="44.8367983" lon="9.3242167"><ele>629.8333333333334</ele><time>2026-05-02T10:34:16.991Z</time></trkpt><trkpt lat="44.8367733" lon="9.3241083"><ele>631.6666666666667</ele><time>2026-05-02T10:34:17.989Z</time></trkpt><trkpt lat="44.8367483" lon="9.3239917"><ele>633.5</ele><time>2026-05-02T10:34:18.991Z</time></trkpt><trkpt lat="44.8367167" lon="9.3238733"><ele>635.3333333333334</ele><time>2026-05-02T10:34:19.99Z</time></trkpt><trkpt lat="44.8366867" lon="9.323755"><ele>637.1666666666666</ele><time>2026-05-02T10:34:20.99Z</time></trkpt><trkpt lat="44.836655" lon="9.32364"><ele>639.0</ele><time>2026-05-02T10:34:21.99Z</time></trkpt><trkpt lat="44.8366217" lon="9.32354"><ele>639.6666666666666</ele><time>2026-05-02T10:34:22.989Z</time></trkpt><trkpt lat="44.8365867" lon="9.323445"><ele>640.3333333333334</ele><time>2026-05-02T10:34:23.99Z</time></trkpt><trkpt lat="44.8365467" lon="9.3233633"><ele>641.0</ele><time>2026-05-02T10:34:24.989Z</time></trkpt><trkpt lat="44.836465" lon="9.32328"><ele>641.6666666666667</ele><time>2026-05-02T10:34:26.99Z</time></trkpt><trkpt lat="44.8363883" lon="9.3232433"><ele>642.3333333333334</ele><time>2026-05-02T10:34:28.99Z</time></trkpt><trkpt lat="44.8363117" lon="9.3232167"><ele>643.0</ele><time>2026-05-02T10:34:31.991Z</time></trkpt><trkpt lat="44.83625" lon="9.3231333"><ele>644.8333333333334</ele><time>2026-05-02T10:34:35.991Z</time></trkpt><trkpt lat="44.8361683" lon="9.32305"><ele>646.6666666666667</ele><time>2026-05-02T10:34:37.991Z</time></trkpt><trkpt lat="44.8361117" lon="9.3229817"><ele>648.5</ele><time>2026-05-02T10:34:38.991Z</time></trkpt><trkpt lat="44.8360567" lon="9.3229017"><ele>650.3333333333334</ele><time>2026-05-02T10:34:39.991Z</time></trkpt><trkpt lat="44.8360117" lon="9.3228217"><ele>652.1666666666666</ele><time>2026-05-02T10:34:40.991Z</time></trkpt><trkpt lat="44.835975" lon="9.3227317"><ele>654.0</ele><time>2026-05-02T10:34:41.992Z</time></trkpt><trkpt lat="44.835945" lon="9.3226367"><ele>654.0</ele><time>2026-05-02T10:34:42.991Z</time></trkpt><trkpt lat="44.83592" lon="9.3225383"><ele>654.0</ele><time>2026-05-02T10:34:43.991Z</time></trkpt><trkpt lat="44.8359083" lon="9.3224167"><ele>654.0</ele><time>2026-05-02T10:34:44.991Z</time></trkpt><trkpt lat="44.8358983" lon="9.3222883"><ele>654.0</ele><time>2026-05-02T10:34:45.991Z</time></trkpt><trkpt lat="44.8358867" lon="9.322175"><ele>654.0</ele><time>2026-05-02T10:34:46.99Z</time></trkpt><trkpt lat="44.8359067" lon="9.3222783"><ele>654.0</ele><time>2026-05-02T10:35:06.99Z</time></trkpt><trkpt lat="44.8359767" lon="9.32226"><ele>657.6</ele><time>2026-05-02T10:35:09.991Z</time></trkpt><trkpt lat="44.8360383" lon="9.3221517"><ele>661.2</ele><time>2026-05-02T10:35:11.992Z</time></trkpt><trkpt lat="44.8361383" lon="9.3220467"><ele>664.8000000000001</ele><time>2026-05-02T10:35:13.99Z</time></trkpt><trkpt lat="44.83622" lon="9.3219717"><ele>668.4000000000001</ele><time>2026-05-02T10:35:15.99Z</time></trkpt><trkpt lat="44.8362233" lon="9.3218583"><ele>672.0</ele><time>2026-05-02T10:35:18.99Z</time></trkpt><trkpt lat="44.836185" lon="9.3217467"><ele>672.0</ele><time>2026-05-02T10:35:20.991Z</time></trkpt><trkpt lat="44.836155" lon="9.3216367"><ele>672.0</ele><time>2026-05-02T10:35:22.99Z</time></trkpt><trkpt lat="44.8361233" lon="9.3215333"><ele>672.0</ele><time>2026-05-02T10:35:24.99Z</time></trkpt><trkpt lat="44.8361533" lon="9.3214383"><ele>672.0</ele><time>2026-05-02T10:35:27.99Z</time></trkpt><trkpt lat="44.8361933" lon="9.321365"><ele>672.0</ele><time>2026-05-02T10:35:34.991Z</time></trkpt><trkpt lat="44.83626" lon="9.321335"><ele>672.0</ele><time>2026-05-02T10:35:36.99Z</time></trkpt><trkpt lat="44.8363217" lon="9.3213033"><ele>672.0</ele><time>2026-05-02T10:35:38.991Z</time></trkpt><trkpt lat="44.83643" lon="9.32133"><ele>673.5</ele><time>2026-05-02T10:35:52.99Z</time></trkpt><trkpt lat="44.836485" lon="9.3212533"><ele>675.0</ele><time>2026-05-02T10:36:12.988Z</time></trkpt><trkpt lat="44.8365433" lon="9.32118"><ele>676.5</ele><time>2026-05-02T10:36:14.989Z</time></trkpt><trkpt lat="44.8365783" lon="9.3210783"><ele>678.0</ele><time>2026-05-02T10:36:16.989Z</time></trkpt><trkpt lat="44.83665" lon="9.3209383"><ele>679.5</ele><time>2026-05-02T10:36:18.989Z</time></trkpt><trkpt lat="44.8366733" lon="9.3208183"><ele>681.0</ele><time>2026-05-02T10:36:20.99Z</time></trkpt><trkpt lat="44.8366367" lon="9.3209067"><ele>681.0</ele><time>2026-05-02T10:36:29.989Z</time></trkpt><trkpt lat="44.8366233" lon="9.32103"><ele>681.0</ele><time>2026-05-02T10:36:31.989Z</time></trkpt><trkpt lat="44.8366067" lon="9.3211367"><ele>681.0</ele><time>2026-05-02T10:36:33.99Z</time></trkpt><trkpt lat="44.83654" lon="9.321235"><ele>681.0</ele><time>2026-05-02T10:36:36.989Z</time></trkpt><trkpt lat="44.8364733" lon="9.32128"><ele>681.0</ele><time>2026-05-02T10:36:38.99Z</time></trkpt><trkpt lat="44.8363983" lon="9.32127"><ele>681.0</ele><time>2026-05-02T10:36:41.989Z</time></trkpt><trkpt lat="44.8363333" lon="9.321265"><ele>681.0</ele><time>2026-05-02T10:36:44.989Z</time></trkpt><trkpt lat="44.8362733" lon="9.3213067"><ele>681.0</ele><time>2026-05-02T10:36:46.989Z</time></trkpt><trkpt lat="44.8362017" lon="9.321315"><ele>681.0</ele><time>2026-05-02T10:36:49.99Z</time></trkpt><trkpt lat="44.8361217" lon="9.321325"><ele>681.0</ele><time>2026-05-02T10:36:53.99Z</time></trkpt><trkpt lat="44.83605" lon="9.3212667"><ele>681.0</ele><time>2026-05-02T10:36:55.989Z</time></trkpt><trkpt lat="44.8359633" lon="9.3211133"><ele>681.0</ele><time>2026-05-02T10:36:57.989Z</time></trkpt><trkpt lat="44.8359233" lon="9.3210267"><ele>682.7142857142858</ele><time>2026-05-02T10:36:58.989Z</time></trkpt><trkpt lat="44.83589" lon="9.320945"><ele>684.4285714285714</ele><time>2026-05-02T10:36:59.99Z</time></trkpt><trkpt lat="44.8358683" lon="9.3208367"><ele>686.1428571428571</ele><time>2026-05-02T10:37:00.99Z</time></trkpt><trkpt lat="44.8358533" lon="9.320735"><ele>687.8571428571429</ele><time>2026-05-02T10:37:01.989Z</time></trkpt><trkpt lat="44.83584" lon="9.32063"><ele>689.5714285714286</ele><time>2026-05-02T10:37:02.99Z</time></trkpt><trkpt lat="44.8358317" lon="9.32053"><ele>691.2857142857143</ele><time>2026-05-02T10:37:03.988Z</time></trkpt><trkpt lat="44.8358217" lon="9.3204367"><ele>693.0</ele><time>2026-05-02T10:37:04.989Z</time></trkpt><trkpt lat="44.8357967" lon="9.3203167"><ele>693.8333333333334</ele><time>2026-05-02T10:37:06.989Z</time></trkpt><trkpt lat="44.8357667" lon="9.3202383"><ele>694.6666666666666</ele><time>2026-05-02T10:37:19.989Z</time></trkpt><trkpt lat="44.8357767" lon="9.32013"><ele>695.5</ele><time>2026-05-02T10:37:21.989Z</time></trkpt><trkpt lat="44.835775" lon="9.32"><ele>696.3333333333333</ele><time>2026-05-02T10:37:23.99Z</time></trkpt><trkpt lat="44.83576" lon="9.3199117"><ele>697.1666666666666</ele><time>2026-05-02T10:37:24.989Z</time></trkpt><trkpt lat="44.8357133" lon="9.3197767"><ele>698.0</ele><time>2026-05-02T10:37:26.99Z</time></trkpt><trkpt lat="44.835675" lon="9.3197033"><ele>698.0</ele><time>2026-05-02T10:37:27.989Z</time></trkpt><trkpt lat="44.835635" lon="9.3196233"><ele>698.0</ele><time>2026-05-02T10:37:28.99Z</time></trkpt><trkpt lat="44.835595" lon="9.3195383"><ele>698.0</ele><time>2026-05-02T10:37:29.99Z</time></trkpt><trkpt lat="44.8355517" lon="9.31946"><ele>698.0</ele><time>2026-05-02T10:37:30.99Z</time></trkpt><trkpt lat="44.8355017" lon="9.3194"><ele>698.0</ele><time>2026-05-02T10:37:31.989Z</time></trkpt><trkpt lat="44.83543" lon="9.31934"><ele>698.0</ele><time>2026-05-02T10:37:32.991Z</time></trkpt><trkpt lat="44.8353367" lon="9.3192767"><ele>698.0</ele><time>2026-05-02T10:37:33.989Z</time></trkpt><trkpt lat="44.835245" lon="9.3192317"><ele>698.0</ele><time>2026-05-02T10:37:34.989Z</time></trkpt><trkpt lat="44.8351517" lon="9.3191833"><ele>698.0</ele><time>2026-05-02T10:37:35.989Z</time></trkpt><trkpt lat="44.83505" lon="9.3191367"><ele>698.0</ele><time>2026-05-02T10:37:36.991Z</time></trkpt><trkpt lat="44.834945" lon="9.3190917"><ele>698.0</ele><time>2026-05-02T10:37:37.989Z</time></trkpt><trkpt lat="44.834845" lon="9.3190517"><ele>700.5</ele><time>2026-05-02T10:37:38.991Z</time></trkpt><trkpt lat="44.8347517" lon="9.3190133"><ele>703.0</ele><time>2026-05-02T10:37:39.99Z</time></trkpt><trkpt lat="44.8346683" lon="9.3189817"><ele>705.5</ele><time>2026-05-02T10:37:40.989Z</time></trkpt><trkpt lat="44.8345933" lon="9.3189583"><ele>708.0</ele><time>2026-05-02T10:37:41.989Z</time></trkpt><trkpt lat="44.8345017" lon="9.3188967"><ele>710.5</ele><time>2026-05-02T10:37:43.988Z</time></trkpt><trkpt lat="44.834515" lon="9.3188"><ele>713.0</ele><time>2026-05-02T10:37:46.989Z</time></trkpt><trkpt lat="44.8345983" lon="9.3187333"><ele>714.75</ele><time>2026-05-02T10:37:48.989Z</time></trkpt><trkpt lat="44.834705" lon="9.31867"><ele>716.5</ele><time>2026-05-02T10:37:50.99Z</time></trkpt><trkpt lat="44.83482" lon="9.31858"><ele>718.25</ele><time>2026-05-02T10:37:52.988Z</time></trkpt><trkpt lat="44.8348783" lon="9.3184367"><ele>720.0</ele><time>2026-05-02T10:37:54.989Z</time></trkpt><trkpt lat="44.8348883" lon="9.3182667"><ele>720.0</ele><time>2026-05-02T10:37:56.989Z</time></trkpt><trkpt lat="44.8348833" lon="9.3181683"><ele>720.0</ele><time>2026-05-02T10:37:57.989Z</time></trkpt><trkpt lat="44.8348833" lon="9.31806"><ele>720.0</ele><time>2026-05-02T10:37:58.989Z</time></trkpt><trkpt lat="44.8348933" lon="9.3179533"><ele>720.0</ele><time>2026-05-02T10:37:59.989Z</time></trkpt><trkpt lat="44.83491" lon="9.3178567"><ele>720.0</ele><time>2026-05-02T10:38:00.989Z</time></trkpt><trkpt lat="44.83493" lon="9.3177633"><ele>720.0</ele><time>2026-05-02T10:38:01.99Z</time></trkpt><trkpt lat="44.8349467" lon="9.317665"><ele>720.0</ele><time>2026-05-02T10:38:02.989Z</time></trkpt><trkpt lat="44.83496" lon="9.3175683"><ele>721.0</ele><time>2026-05-02T10:38:03.989Z</time></trkpt><trkpt lat="44.8349767" lon="9.31747"><ele>722.0</ele><time>2026-05-02T10:38:04.989Z</time></trkpt><trkpt lat="44.834995" lon="9.3173717"><ele>723.0</ele><time>2026-05-02T10:38:05.989Z</time></trkpt><trkpt lat="44.8350133" lon="9.31727"><ele>724.0</ele><time>2026-05-02T10:38:06.988Z</time></trkpt><trkpt lat="44.8350233" lon="9.3171717"><ele>725.0</ele><time>2026-05-02T10:38:07.99Z</time></trkpt><trkpt lat="44.8350317" lon="9.3170683"><ele>726.0</ele><time>2026-05-02T10:38:08.989Z</time></trkpt><trkpt lat="44.8350367" lon="9.3169667"><ele>727.0</ele><time>2026-05-02T10:38:09.989Z</time></trkpt><trkpt lat="44.83504" lon="9.3168717"><ele>729.2</ele><time>2026-05-02T10:38:10.99Z</time></trkpt><trkpt lat="44.8350433" lon="9.316705"><ele>731.4000000000001</ele><time>2026-05-02T10:38:12.989Z</time></trkpt><trkpt lat="44.8350517" lon="9.31653"><ele>733.5999999999999</ele><time>2026-05-02T10:38:14.989Z</time></trkpt><trkpt lat="44.835065" lon="9.31643"><ele>735.8</ele><time>2026-05-02T10:38:15.989Z</time></trkpt><trkpt lat="44.8350817" lon="9.3163283"><ele>738.0</ele><time>2026-05-02T10:38:16.991Z</time></trkpt><trkpt lat="44.8351067" lon="9.316225"><ele>738.5</ele><time>2026-05-02T10:38:17.99Z</time></trkpt><trkpt lat="44.8351317" lon="9.3161167"><ele>739.0</ele><time>2026-05-02T10:38:18.989Z</time></trkpt><trkpt lat="44.8351583" lon="9.3160067"><ele>739.5</ele><time>2026-05-02T10:38:19.989Z</time></trkpt><trkpt lat="44.835195" lon="9.3158917"><ele>740.0</ele><time>2026-05-02T10:38:20.989Z</time></trkpt><trkpt lat="44.8352333" lon="9.3157667"><ele>740.5</ele><time>2026-05-02T10:38:21.991Z</time></trkpt><trkpt lat="44.83527" lon="9.3156383"><ele>741.0</ele><time>2026-05-02T10:38:22.989Z</time></trkpt><trkpt lat="44.8353033" lon="9.315515"><ele>741.0</ele><time>2026-05-02T10:38:23.989Z</time></trkpt><trkpt lat="44.8353383" lon="9.3153983"><ele>741.0</ele><time>2026-05-02T10:38:24.989Z</time></trkpt><trkpt lat="44.83537" lon="9.3152817"><ele>741.0</ele><time>2026-05-02T10:38:25.991Z</time></trkpt><trkpt lat="44.8354017" lon="9.3151517"><ele>741.0</ele><time>2026-05-02T10:38:26.99Z</time></trkpt><trkpt lat="44.83543" lon="9.3150283"><ele>741.0</ele><time>2026-05-02T10:38:27.991Z</time></trkpt><trkpt lat="44.835455" lon="9.3149017"><ele>741.0</ele><time>2026-05-02T10:38:28.99Z</time></trkpt><trkpt lat="44.8354817" lon="9.3147767"><ele>741.0</ele><time>2026-05-02T10:38:29.99Z</time></trkpt><trkpt lat="44.8355033" lon="9.3146533"><ele>741.0</ele><time>2026-05-02T10:38:30.99Z</time></trkpt><trkpt lat="44.8355267" lon="9.314535"><ele>741.0</ele><time>2026-05-02T10:38:31.99Z</time></trkpt><trkpt lat="44.83555" lon="9.3144167"><ele>741.0</ele><time>2026-05-02T10:38:32.99Z</time></trkpt><trkpt lat="44.8355683" lon="9.314305"><ele>741.0</ele><time>2026-05-02T10:38:33.989Z</time></trkpt><trkpt lat="44.8355817" lon="9.3142017"><ele>742.2857142857142</ele><time>2026-05-02T10:38:34.99Z</time></trkpt><trkpt lat="44.835585" lon="9.3141"><ele>743.5714285714287</ele><time>2026-05-02T10:38:35.989Z</time></trkpt><trkpt lat="44.8355733" lon="9.314"><ele>744.8571428571429</ele><time>2026-05-02T10:38:36.989Z</time></trkpt><trkpt lat="44.83554" lon="9.3139183"><ele>746.1428571428571</ele><time>2026-05-02T10:38:37.989Z</time></trkpt><trkpt lat="44.8354983" lon="9.3138483"><ele>747.4285714285713</ele><time>2026-05-02T10:38:38.989Z</time></trkpt><trkpt lat="44.8354367" lon="9.3138117"><ele>748.7142857142858</ele><time>2026-05-02T10:38:39.988Z</time></trkpt><trkpt lat="44.835365" lon="9.313795"><ele>750.0</ele><time>2026-05-02T10:38:40.989Z</time></trkpt><trkpt lat="44.8352833" lon="9.3137917"><ele>750.0</ele><time>2026-05-02T10:38:41.989Z</time></trkpt><trkpt lat="44.8352" lon="9.3137883"><ele>750.0</ele><time>2026-05-02T10:38:42.989Z</time></trkpt><trkpt lat="44.8351217" lon="9.3137833"><ele>750.0</ele><time>2026-05-02T10:38:43.989Z</time></trkpt><trkpt lat="44.83504" lon="9.31378"><ele>750.0</ele><time>2026-05-02T10:38:44.99Z</time></trkpt><trkpt lat="44.83495" lon="9.31378"><ele>750.0</ele><time>2026-05-02T10:38:45.989Z</time></trkpt><trkpt lat="44.83486" lon="9.313775"><ele>750.0</ele><time>2026-05-02T10:38:46.989Z</time></trkpt><trkpt lat="44.83478" lon="9.31376"><ele>754.2</ele><time>2026-05-02T10:38:47.989Z</time></trkpt><trkpt lat="44.83471" lon="9.3137133"><ele>758.4</ele><time>2026-05-02T10:38:48.989Z</time></trkpt><trkpt lat="44.8346317" lon="9.3136617"><ele>762.5999999999999</ele><time>2026-05-02T10:38:49.989Z</time></trkpt><trkpt lat="44.8345517" lon="9.3136033"><ele>766.8</ele><time>2026-05-02T10:38:50.992Z</time></trkpt><trkpt lat="44.8344617" lon="9.3135433"><ele>771.0</ele><time>2026-05-02T10:38:51.99Z</time></trkpt><trkpt lat="44.8343683" lon="9.313485"><ele>773.0</ele><time>2026-05-02T10:38:52.989Z</time></trkpt><trkpt lat="44.8342733" lon="9.3134317"><ele>775.0</ele><time>2026-05-02T10:38:53.989Z</time></trkpt><trkpt lat="44.8341817" lon="9.313375"><ele>777.0</ele><time>2026-05-02T10:38:54.989Z</time></trkpt><trkpt lat="44.8340983" lon="9.3133183"><ele>779.0</ele><time>2026-05-02T10:38:55.99Z</time></trkpt><trkpt lat="44.834025" lon="9.3132583"><ele>781.0</ele><time>2026-05-02T10:38:56.989Z</time></trkpt><trkpt lat="44.8339667" lon="9.3131933"><ele>782.4999999999999</ele><time>2026-05-02T10:38:57.989Z</time></trkpt><trkpt lat="44.833945" lon="9.3130467"><ele>784.0</ele><time>2026-05-02T10:38:59.989Z</time></trkpt><trkpt lat="44.8339933" lon="9.312965"><ele>785.5</ele><time>2026-05-02T10:39:00.99Z</time></trkpt><trkpt lat="44.83407" lon="9.3128983"><ele>787.0</ele><time>2026-05-02T10:39:01.991Z</time></trkpt><trkpt lat="44.834155" lon="9.3128567"><ele>788.4999999999999</ele><time>2026-05-02T10:39:02.989Z</time></trkpt><trkpt lat="44.8342333" lon="9.3128183"><ele>790.0</ele><time>2026-05-02T10:39:03.989Z</time></trkpt><trkpt lat="44.8342983" lon="9.3127733"><ele>787.4999999999999</ele><time>2026-05-02T10:39:04.99Z</time></trkpt><trkpt lat="44.8343583" lon="9.3127267"><ele>785.0</ele><time>2026-05-02T10:39:05.99Z</time></trkpt><trkpt lat="44.8344167" lon="9.31268"><ele>782.5</ele><time>2026-05-02T10:39:06.991Z</time></trkpt><trkpt lat="44.8345083" lon="9.312585"><ele>780.0</ele><time>2026-05-02T10:39:08.992Z</time></trkpt><trkpt lat="44.8345383" lon="9.3124767"><ele>777.4999999999999</ele><time>2026-05-02T10:39:10.989Z</time></trkpt><trkpt lat="44.8344933" lon="9.3123367"><ele>775.0</ele><time>2026-05-02T10:39:12.99Z</time></trkpt><trkpt lat="44.8344683" lon="9.312255"><ele>775.4</ele><time>2026-05-02T10:39:13.989Z</time></trkpt><trkpt lat="44.8344517" lon="9.31216"><ele>775.8</ele><time>2026-05-02T10:39:14.989Z</time></trkpt><trkpt lat="44.8344417" lon="9.3120633"><ele>776.2</ele><time>2026-05-02T10:39:15.989Z</time></trkpt><trkpt lat="44.8344217" lon="9.3118917"><ele>776.6</ele><time>2026-05-02T10:39:17.989Z</time></trkpt><trkpt lat="44.834425" lon="9.311715"><ele>777.0</ele><time>2026-05-02T10:39:19.989Z</time></trkpt><trkpt lat="44.8344367" lon="9.311555"><ele>777.0</ele><time>2026-05-02T10:39:21.989Z</time></trkpt><trkpt lat="44.8344267" lon="9.3114367"><ele>777.0</ele><time>2026-05-02T10:39:23.989Z</time></trkpt><trkpt lat="44.8343717" lon="9.3113283"><ele>777.0</ele><time>2026-05-02T10:39:25.99Z</time></trkpt><trkpt lat="44.8343067" lon="9.3112183"><ele>777.0</ele><time>2026-05-02T10:39:27.989Z</time></trkpt><trkpt lat="44.8342417" lon="9.3111"><ele>777.0</ele><time>2026-05-02T10:39:29.989Z</time></trkpt><trkpt lat="44.8341533" lon="9.31102"><ele>783.0</ele><time>2026-05-02T10:39:31.989Z</time></trkpt><trkpt lat="44.83403" lon="9.3109517"><ele>789.0</ele><time>2026-05-02T10:39:33.989Z</time></trkpt><trkpt lat="44.8339483" lon="9.31091"><ele>795.0</ele><time>2026-05-02T10:39:34.989Z</time></trkpt><trkpt lat="44.8338533" lon="9.31088"><ele>801.0</ele><time>2026-05-02T10:39:35.989Z</time></trkpt><trkpt lat="44.83376" lon="9.31085"><ele>807.0</ele><time>2026-05-02T10:39:36.989Z</time></trkpt><trkpt lat="44.8336717" lon="9.3108183"><ele>807.0</ele><time>2026-05-02T10:39:37.99Z</time></trkpt><trkpt lat="44.8335883" lon="9.310785"><ele>807.0</ele><time>2026-05-02T10:39:38.991Z</time></trkpt><trkpt lat="44.8335167" lon="9.31076"><ele>807.0</ele><time>2026-05-02T10:39:39.989Z</time></trkpt><trkpt lat="44.83343" lon="9.3107483"><ele>807.0</ele><time>2026-05-02T10:39:41.989Z</time></trkpt><trkpt lat="44.8333433" lon="9.31075"><ele>807.0</ele><time>2026-05-02T10:39:43.989Z</time></trkpt><trkpt lat="44.8332267" lon="9.3107517"><ele>810.8</ele><time>2026-05-02T10:39:45.989Z</time></trkpt><trkpt lat="44.8331183" lon="9.3107383"><ele>814.6</ele><time>2026-05-02T10:39:47.989Z</time></trkpt><trkpt lat="44.8330083" lon="9.31068"><ele>818.4</ele><time>2026-05-02T10:39:49.989Z</time></trkpt><trkpt lat="44.8329333" lon="9.31064"><ele>822.1999999999999</ele><time>2026-05-02T10:39:50.99Z</time></trkpt><trkpt lat="44.83285" lon="9.3106217"><ele>826.0</ele><time>2026-05-02T10:39:51.989Z</time></trkpt><trkpt lat="44.8327733" lon="9.310595"><ele>826.6666666666666</ele><time>2026-05-02T10:39:52.99Z</time></trkpt><trkpt lat="44.8326967" lon="9.3105583"><ele>827.3333333333333</ele><time>2026-05-02T10:39:53.989Z</time></trkpt><trkpt lat="44.8326133" lon="9.3105083"><ele>828.0</ele><time>2026-05-02T10:39:54.99Z</time></trkpt><trkpt lat="44.8325283" lon="9.3104583"><ele>828.6666666666667</ele><time>2026-05-02T10:39:55.991Z</time></trkpt><trkpt lat="44.8324517" lon="9.3104217"><ele>829.3333333333334</ele><time>2026-05-02T10:39:56.991Z</time></trkpt><trkpt lat="44.8323883" lon="9.31039"><ele>830.0</ele><time>2026-05-02T10:39:57.989Z</time></trkpt><trkpt lat="44.8322867" lon="9.3103333"><ele>835.0000000000001</ele><time>2026-05-02T10:39:59.99Z</time></trkpt><trkpt lat="44.8321883" lon="9.3102317"><ele>840.0</ele><time>2026-05-02T10:40:01.989Z</time></trkpt><trkpt lat="44.83213" lon="9.3101667"><ele>845.0</ele><time>2026-05-02T10:40:02.99Z</time></trkpt><trkpt lat="44.8320767" lon="9.310095"><ele>850.0</ele><time>2026-05-02T10:40:03.989Z</time></trkpt><trkpt lat="44.832035" lon="9.31002"><ele>855.0000000000001</ele><time>2026-05-02T10:40:04.99Z</time></trkpt><trkpt lat="44.8319617" lon="9.3099083"><ele>860.0</ele><time>2026-05-02T10:40:06.989Z</time></trkpt><trkpt lat="44.831905" lon="9.30982"><ele>860.0</ele><time>2026-05-02T10:40:09.99Z</time></trkpt><trkpt lat="44.8318433" lon="9.309745"><ele>860.0</ele><time>2026-05-02T10:40:11.989Z</time></trkpt><trkpt lat="44.8317517" lon="9.3096467"><ele>860.0</ele><time>2026-05-02T10:40:13.989Z</time></trkpt><trkpt lat="44.8317067" lon="9.30958"><ele>860.0</ele><time>2026-05-02T10:40:14.99Z</time></trkpt><trkpt lat="44.8316383" lon="9.3094833"><ele>860.0</ele><time>2026-05-02T10:40:16.989Z</time></trkpt><trkpt lat="44.83161" lon="9.30936"><ele>864.6666666666667</ele><time>2026-05-02T10:40:19.989Z</time></trkpt><trkpt lat="44.8315883" lon="9.30923"><ele>869.3333333333334</ele><time>2026-05-02T10:40:21.989Z</time></trkpt><trkpt lat="44.83158" lon="9.30911"><ele>874.0</ele><time>2026-05-02T10:40:23.99Z</time></trkpt><trkpt lat="44.831555" lon="9.3090217"><ele>878.6666666666667</ele><time>2026-05-02T10:40:25.99Z</time></trkpt><trkpt lat="44.831515" lon="9.3089267"><ele>883.3333333333334</ele><time>2026-05-02T10:41:47.99Z</time></trkpt><trkpt lat="44.831425" lon="9.308845"><ele>888.0</ele><time>2026-05-02T10:41:49.99Z</time></trkpt><trkpt lat="44.8313717" lon="9.3087933"><ele>888.0</ele><time>2026-05-02T10:41:50.991Z</time></trkpt><trkpt lat="44.8312783" lon="9.3087133"><ele>888.0</ele><time>2026-05-02T10:41:52.99Z</time></trkpt><trkpt lat="44.83118" lon="9.3086983"><ele>888.0</ele><time>2026-05-02T10:41:54.989Z</time></trkpt><trkpt lat="44.8311067" lon="9.3087017"><ele>888.0</ele><time>2026-05-02T10:41:56.99Z</time></trkpt><trkpt lat="44.8310683" lon="9.308775"><ele>888.0</ele><time>2026-05-02T10:41:59.989Z</time></trkpt><trkpt lat="44.831075" lon="9.3088717"><ele>888.0</ele><time>2026-05-02T10:42:01.99Z</time></trkpt><trkpt lat="44.8309683" lon="9.3088717"><ele>890.6666666666666</ele><time>2026-05-02T10:42:55.99Z</time></trkpt><trkpt lat="44.8309417" lon="9.3087717"><ele>893.3333333333333</ele><time>2026-05-02T10:42:57.989Z</time></trkpt><trkpt lat="44.8309083" lon="9.3086517"><ele>896.0</ele><time>2026-05-02T10:42:59.991Z</time></trkpt><trkpt lat="44.83087" lon="9.308535"><ele>898.6666666666666</ele><time>2026-05-02T10:43:01.99Z</time></trkpt><trkpt lat="44.830825" lon="9.308445"><ele>901.3333333333333</ele><time>2026-05-02T10:43:03.989Z</time></trkpt><trkpt lat="44.83079" lon="9.308365"><ele>904.0</ele><time>2026-05-02T10:43:05.99Z</time></trkpt><trkpt lat="44.83075" lon="9.308275"><ele>904.0</ele><time>2026-05-02T10:43:09.989Z</time></trkpt><trkpt lat="44.8306933" lon="9.30817"><ele>904.0000000000001</ele><time>2026-05-02T10:43:49.989Z</time></trkpt><trkpt lat="44.8306267" lon="9.30801"><ele>904.0000000000001</ele><time>2026-05-02T10:43:51.99Z</time></trkpt><trkpt lat="44.830585" lon="9.3079167"><ele>904.0</ele><time>2026-05-02T10:43:52.989Z</time></trkpt><trkpt lat="44.8305317" lon="9.30781"><ele>904.0</ele><time>2026-05-02T10:43:53.99Z</time></trkpt><trkpt lat="44.8304667" lon="9.3077"><ele>903.5</ele><time>2026-05-02T10:43:54.989Z</time></trkpt><trkpt lat="44.83039" lon="9.3075783"><ele>903.0</ele><time>2026-05-02T10:43:55.991Z</time></trkpt><trkpt lat="44.8303133" lon="9.3074383"><ele>902.5</ele><time>2026-05-02T10:43:56.99Z</time></trkpt><trkpt lat="44.8302367" lon="9.3073033"><ele>902.0</ele><time>2026-05-02T10:43:57.99Z</time></trkpt><trkpt lat="44.83016" lon="9.3071717"><ele>904.0000000000001</ele><time>2026-05-02T10:43:58.989Z</time></trkpt><trkpt lat="44.830085" lon="9.30706"><ele>906.0</ele><time>2026-05-02T10:43:59.99Z</time></trkpt><trkpt lat="44.830015" lon="9.306965"><ele>908.0</ele><time>2026-05-02T10:44:00.99Z</time></trkpt><trkpt lat="44.8299533" lon="9.3068783"><ele>910.0</ele><time>2026-05-02T10:44:01.99Z</time></trkpt><trkpt lat="44.8298967" lon="9.3067967"><ele>912.0000000000001</ele><time>2026-05-02T10:44:02.99Z</time></trkpt><trkpt lat="44.8298567" lon="9.3067133"><ele>914.0</ele><time>2026-05-02T10:44:03.99Z</time></trkpt><trkpt lat="44.8298317" lon="9.3066183"><ele>914.0</ele><time>2026-05-02T10:44:04.99Z</time></trkpt><trkpt lat="44.8298183" lon="9.30651"><ele>914.0000000000001</ele><time>2026-05-02T10:44:05.99Z</time></trkpt><trkpt lat="44.8297917" lon="9.3064133"><ele>914.0000000000001</ele><time>2026-05-02T10:44:06.99Z</time></trkpt><trkpt lat="44.82974" lon="9.3063017"><ele>914.0</ele><time>2026-05-02T10:44:07.991Z</time></trkpt><trkpt lat="44.8296683" lon="9.3061783"><ele>914.0</ele><time>2026-05-02T10:44:08.99Z</time></trkpt><trkpt lat="44.829605" lon="9.30607"><ele>913.4000000000001</ele><time>2026-05-02T10:44:09.989Z</time></trkpt><trkpt lat="44.82954" lon="9.305975"><ele>912.8000000000001</ele><time>2026-05-02T10:44:10.99Z</time></trkpt><trkpt lat="44.829455" lon="9.3059017"><ele>912.1999999999999</ele><time>2026-05-02T10:44:11.99Z</time></trkpt><trkpt lat="44.829355" lon="9.3058267"><ele>911.5999999999999</ele><time>2026-05-02T10:44:12.99Z</time></trkpt><trkpt lat="44.8292533" lon="9.3057317"><ele>911.0</ele><time>2026-05-02T10:44:13.989Z</time></trkpt><trkpt lat="44.8291583" lon="9.30563"><ele>913.0</ele><time>2026-05-02T10:44:14.99Z</time></trkpt><trkpt lat="44.8290783" lon="9.3055283"><ele>914.9999999999999</ele><time>2026-05-02T10:44:15.991Z</time></trkpt><trkpt lat="44.829" lon="9.3054267"><ele>916.9999999999999</ele><time>2026-05-02T10:44:16.989Z</time></trkpt><trkpt lat="44.8289133" lon="9.30534"><ele>919.0</ele><time>2026-05-02T10:44:17.991Z</time></trkpt><trkpt lat="44.8288217" lon="9.3052583"><ele>921.0</ele><time>2026-05-02T10:44:18.991Z</time></trkpt><trkpt lat="44.82873" lon="9.30517"><ele>921.0</ele><time>2026-05-02T10:44:19.99Z</time></trkpt><trkpt lat="44.828645" lon="9.30508"><ele>920.9999999999999</ele><time>2026-05-02T10:44:20.991Z</time></trkpt><trkpt lat="44.8285583" lon="9.3049933"><ele>920.9999999999999</ele><time>2026-05-02T10:44:21.99Z</time></trkpt><trkpt lat="44.8284733" lon="9.3049"><ele>921.0</ele><time>2026-05-02T10:44:22.99Z</time></trkpt><trkpt lat="44.8284033" lon="9.3047933"><ele>921.0</ele><time>2026-05-02T10:44:23.99Z</time></trkpt><trkpt lat="44.8283467" lon="9.3046717"><ele>924.1999999999999</ele><time>2026-05-02T10:44:24.989Z</time></trkpt><trkpt lat="44.828295" lon="9.3045417"><ele>927.3999999999999</ele><time>2026-05-02T10:44:25.991Z</time></trkpt><trkpt lat="44.828235" lon="9.304425"><ele>930.6</ele><time>2026-05-02T10:44:26.99Z</time></trkpt><trkpt lat="44.828165" lon="9.3043183"><ele>933.8</ele><time>2026-05-02T10:44:27.991Z</time></trkpt><trkpt lat="44.8280883" lon="9.304235"><ele>937.0</ele><time>2026-05-02T10:44:28.992Z</time></trkpt><trkpt lat="44.8280033" lon="9.304165"><ele>937.0</ele><time>2026-05-02T10:44:29.989Z</time></trkpt><trkpt lat="44.827925" lon="9.3041167"><ele>937.0</ele><time>2026-05-02T10:44:30.989Z</time></trkpt><trkpt lat="44.827845" lon="9.3040783"><ele>937.0</ele><time>2026-05-02T10:44:31.989Z</time></trkpt><trkpt lat="44.827755" lon="9.3040467"><ele>937.0</ele><time>2026-05-02T10:44:32.992Z</time></trkpt><trkpt lat="44.827655" lon="9.303995"><ele>937.0</ele><time>2026-05-02T10:44:33.99Z</time></trkpt><trkpt lat="44.8275567" lon="9.303935"><ele>941.0</ele><time>2026-05-02T10:44:34.989Z</time></trkpt><trkpt lat="44.8274683" lon="9.3038833"><ele>945.0</ele><time>2026-05-02T10:44:35.99Z</time></trkpt><trkpt lat="44.8273833" lon="9.3038383"><ele>949.0</ele><time>2026-05-02T10:44:36.991Z</time></trkpt><trkpt lat="44.82731" lon="9.303785"><ele>953.0</ele><time>2026-05-02T10:44:37.989Z</time></trkpt><trkpt lat="44.82725" lon="9.3037233"><ele>957.0</ele><time>2026-05-02T10:44:38.99Z</time></trkpt><trkpt lat="44.8271783" lon="9.3035767"><ele>957.0</ele><time>2026-05-02T10:44:40.99Z</time></trkpt><trkpt lat="44.82715" lon="9.3034733"><ele>957.0</ele><time>2026-05-02T10:44:41.991Z</time></trkpt><trkpt lat="44.8271167" lon="9.3033483"><ele>957.0</ele><time>2026-05-02T10:44:42.992Z</time></trkpt><trkpt lat="44.8270817" lon="9.3032183"><ele>957.0</ele><time>2026-05-02T10:44:43.991Z</time></trkpt><trkpt lat="44.8270333" lon="9.3031"><ele>957.0</ele><time>2026-05-02T10:44:44.99Z</time></trkpt><trkpt lat="44.826985" lon="9.303"><ele>956.8333333333334</ele><time>2026-05-02T10:44:45.99Z</time></trkpt><trkpt lat="44.826925" lon="9.3029283"><ele>956.6666666666667</ele><time>2026-05-02T10:44:46.991Z</time></trkpt><trkpt lat="44.8268517" lon="9.3028783"><ele>956.5</ele><time>2026-05-02T10:44:47.99Z</time></trkpt><trkpt lat="44.8267667" lon="9.3028383"><ele>956.3333333333334</ele><time>2026-05-02T10:44:48.99Z</time></trkpt><trkpt lat="44.8266767" lon="9.30278"><ele>956.1666666666667</ele><time>2026-05-02T10:44:49.991Z</time></trkpt><trkpt lat="44.82661" lon="9.302695"><ele>956.0</ele><time>2026-05-02T10:44:50.991Z</time></trkpt><trkpt lat="44.8265583" lon="9.302605"><ele>959.1999999999999</ele><time>2026-05-02T10:44:51.99Z</time></trkpt><trkpt lat="44.8264967" lon="9.3025167"><ele>962.3999999999999</ele><time>2026-05-02T10:44:52.99Z</time></trkpt><trkpt lat="44.82643" lon="9.30243"><ele>965.6</ele><time>2026-05-02T10:44:53.99Z</time></trkpt><trkpt lat="44.8263517" lon="9.302345"><ele>968.8</ele><time>2026-05-02T10:44:54.99Z</time></trkpt><trkpt lat="44.8262683" lon="9.3022633"><ele>972.0</ele><time>2026-05-02T10:44:55.992Z</time></trkpt><trkpt lat="44.8261917" lon="9.302175"><ele>972.0</ele><time>2026-05-02T10:44:56.991Z</time></trkpt><trkpt lat="44.8261233" lon="9.3020733"><ele>972.0</ele><time>2026-05-02T10:44:57.991Z</time></trkpt><trkpt lat="44.82606" lon="9.3019717"><ele>972.0</ele><time>2026-05-02T10:44:58.99Z</time></trkpt><trkpt lat="44.825995" lon="9.3018717"><ele>972.0</ele><time>2026-05-02T10:44:59.991Z</time></trkpt><trkpt lat="44.8259333" lon="9.30178"><ele>972.0</ele><time>2026-05-02T10:45:00.992Z</time></trkpt><trkpt lat="44.8258783" lon="9.30169"><ele>974.1666666666666</ele><time>2026-05-02T10:45:01.992Z</time></trkpt><trkpt lat="44.8258267" lon="9.3016017"><ele>976.3333333333333</ele><time>2026-05-02T10:45:02.992Z</time></trkpt><trkpt lat="44.8257767" lon="9.3015233"><ele>978.5</ele><time>2026-05-02T10:45:03.991Z</time></trkpt><trkpt lat="44.8257167" lon="9.301445"><ele>980.6666666666666</ele><time>2026-05-02T10:45:04.992Z</time></trkpt><trkpt lat="44.8256617" lon="9.3013717"><ele>982.8333333333333</ele><time>2026-05-02T10:45:05.992Z</time></trkpt><trkpt lat="44.82561" lon="9.3013167"><ele>985.0</ele><time>2026-05-02T10:45:06.993Z</time></trkpt><trkpt lat="44.8255383" lon="9.301235"><ele>985.4</ele><time>2026-05-02T10:45:08.991Z</time></trkpt><trkpt lat="44.82545" lon="9.301095"><ele>985.8</ele><time>2026-05-02T10:45:21.99Z</time></trkpt><trkpt lat="44.8254017" lon="9.3010167"><ele>986.2</ele><time>2026-05-02T10:45:22.99Z</time></trkpt><trkpt lat="44.8253433" lon="9.3009433"><ele>986.6</ele><time>2026-05-02T10:45:23.99Z</time></trkpt><trkpt lat="44.8252683" lon="9.300865"><ele>987.0</ele><time>2026-05-02T10:45:24.989Z</time></trkpt><trkpt lat="44.8251817" lon="9.300785"><ele>990.2</ele><time>2026-05-02T10:45:25.99Z</time></trkpt><trkpt lat="44.82509" lon="9.3007"><ele>993.4000000000001</ele><time>2026-05-02T10:45:26.991Z</time></trkpt><trkpt lat="44.8250017" lon="9.3006117"><ele>996.5999999999999</ele><time>2026-05-02T10:45:27.989Z</time></trkpt><trkpt lat="44.82493" lon="9.3005217"><ele>999.8</ele><time>2026-05-02T10:45:28.991Z</time></trkpt><trkpt lat="44.8248717" lon="9.30043"><ele>1003.0</ele><time>2026-05-02T10:45:29.992Z</time></trkpt><trkpt lat="44.82482" lon="9.3003417"><ele>1004.9999999999999</ele><time>2026-05-02T10:45:30.99Z</time></trkpt><trkpt lat="44.824785" lon="9.3002433"><ele>1007.0</ele><time>2026-05-02T10:45:31.99Z</time></trkpt><trkpt lat="44.8247633" lon="9.300145"><ele>1009.0</ele><time>2026-05-02T10:45:32.992Z</time></trkpt><trkpt lat="44.8247433" lon="9.3000183"><ele>1011.0</ele><time>2026-05-02T10:45:33.992Z</time></trkpt><trkpt lat="44.82473" lon="9.2999083"><ele>1012.9999999999999</ele><time>2026-05-02T10:45:34.991Z</time></trkpt><trkpt lat="44.82472" lon="9.2998033"><ele>1015.0</ele><time>2026-05-02T10:45:35.992Z</time></trkpt><trkpt lat="44.824705" lon="9.29969"><ele>1017.6</ele><time>2026-05-02T10:45:36.99Z</time></trkpt><trkpt lat="44.8247417" lon="9.29961"><ele>1020.2</ele><time>2026-05-02T10:45:53.99Z</time></trkpt><trkpt lat="44.8247583" lon="9.2994717"><ele>1022.8</ele><time>2026-05-02T10:45:55.99Z</time></trkpt><trkpt lat="44.8247217" lon="9.2993217"><ele>1025.4</ele><time>2026-05-02T10:45:57.991Z</time></trkpt><trkpt lat="44.8246867" lon="9.299245"><ele>1028.0</ele><time>2026-05-02T10:45:58.99Z</time></trkpt><trkpt lat="44.824635" lon="9.2990783"><ele>1028.0</ele><time>2026-05-02T10:46:00.99Z</time></trkpt><trkpt lat="44.82461" lon="9.2989833"><ele>1028.0</ele><time>2026-05-02T10:46:01.991Z</time></trkpt><trkpt lat="44.824585" lon="9.2988683"><ele>1028.0</ele><time>2026-05-02T10:46:02.99Z</time></trkpt><trkpt lat="44.824565" lon="9.2987383"><ele>1028.0</ele><time>2026-05-02T10:46:03.991Z</time></trkpt><trkpt lat="44.8245567" lon="9.2986183"><ele>1028.0</ele><time>2026-05-02T10:46:04.991Z</time></trkpt><trkpt lat="44.824545" lon="9.2985033"><ele>1028.0</ele><time>2026-05-02T10:46:05.991Z</time></trkpt><trkpt lat="44.824535" lon="9.2983967"><ele>1029.142857142857</ele><time>2026-05-02T10:46:06.99Z</time></trkpt><trkpt lat="44.8245217" lon="9.2982967"><ele>1030.2857142857142</ele><time>2026-05-02T10:46:07.99Z</time></trkpt><trkpt lat="44.824515" lon="9.298195"><ele>1031.4285714285716</ele><time>2026-05-02T10:46:08.991Z</time></trkpt><trkpt lat="44.82451" lon="9.2981017"><ele>1032.5714285714284</ele><time>2026-05-02T10:46:09.989Z</time></trkpt><trkpt lat="44.8244983" lon="9.298005"><ele>1033.7142857142858</ele><time>2026-05-02T10:46:10.992Z</time></trkpt><trkpt lat="44.8244833" lon="9.29791"><ele>1034.857142857143</ele><time>2026-05-02T10:46:11.991Z</time></trkpt><trkpt lat="44.8244667" lon="9.2978117"><ele>1036.0</ele><time>2026-05-02T10:46:12.992Z</time></trkpt><trkpt lat="44.8244483" lon="9.2977067"><ele>1036.6</ele><time>2026-05-02T10:46:13.991Z</time></trkpt><trkpt lat="44.82443" lon="9.2976"><ele>1037.1999999999998</ele><time>2026-05-02T10:46:14.99Z</time></trkpt><trkpt lat="44.8244067" lon="9.2974783"><ele>1037.8000000000002</ele><time>2026-05-02T10:46:15.99Z</time></trkpt><trkpt lat="44.82438" lon="9.2973417"><ele>1038.4</ele><time>2026-05-02T10:46:16.992Z</time></trkpt><trkpt lat="44.8243517" lon="9.29721"><ele>1039.0</ele><time>2026-05-02T10:46:17.991Z</time></trkpt><trkpt lat="44.8243283" lon="9.29708"><ele>1042.2</ele><time>2026-05-02T10:46:18.992Z</time></trkpt><trkpt lat="44.8243083" lon="9.2969483"><ele>1045.4</ele><time>2026-05-02T10:46:19.991Z</time></trkpt><trkpt lat="44.8242933" lon="9.2968017"><ele>1048.6</ele><time>2026-05-02T10:46:20.991Z</time></trkpt><trkpt lat="44.8242817" lon="9.2966633"><ele>1051.8</ele><time>2026-05-02T10:46:21.991Z</time></trkpt><trkpt lat="44.82427" lon="9.29653"><ele>1055.0</ele><time>2026-05-02T10:46:22.991Z</time></trkpt><trkpt lat="44.8242617" lon="9.2963983"><ele>1056.0</ele><time>2026-05-02T10:46:23.991Z</time></trkpt><trkpt lat="44.8242583" lon="9.2962683"><ele>1057.0</ele><time>2026-05-02T10:46:24.992Z</time></trkpt><trkpt lat="44.8242667" lon="9.2961383"><ele>1058.0</ele><time>2026-05-02T10:46:25.991Z</time></trkpt><trkpt lat="44.8242767" lon="9.2960117"><ele>1059.0</ele><time>2026-05-02T10:46:26.991Z</time></trkpt><trkpt lat="44.8242817" lon="9.2958933"><ele>1060.0</ele><time>2026-05-02T10:46:27.99Z</time></trkpt><trkpt lat="44.8242717" lon="9.29578"><ele>1061.0</ele><time>2026-05-02T10:46:28.99Z</time></trkpt><trkpt lat="44.824265" lon="9.29566"><ele>1063.5</ele><time>2026-05-02T10:46:29.99Z</time></trkpt><trkpt lat="44.8242433" lon="9.2955533"><ele>1066.0</ele><time>2026-05-02T10:46:30.99Z</time></trkpt><trkpt lat="44.824215" lon="9.2954633"><ele>1068.5</ele><time>2026-05-02T10:46:31.992Z</time></trkpt><trkpt lat="44.8241833" lon="9.2953717"><ele>1071.0</ele><time>2026-05-02T10:46:32.99Z</time></trkpt><trkpt lat="44.82414" lon="9.29528"><ele>1073.5</ele><time>2026-05-02T10:46:33.99Z</time></trkpt><trkpt lat="44.824105" lon="9.29519"><ele>1076.0</ele><time>2026-05-02T10:46:34.99Z</time></trkpt><trkpt lat="44.8240833" lon="9.2950267"><ele>1076.0</ele><time>2026-05-02T10:46:36.99Z</time></trkpt><trkpt lat="44.824115" lon="9.2948567"><ele>1076.0</ele><time>2026-05-02T10:46:38.991Z</time></trkpt><trkpt lat="44.824105" lon="9.2947667"><ele>1076.0</ele><time>2026-05-02T10:46:39.989Z</time></trkpt><trkpt lat="44.8240517" lon="9.294615"><ele>1076.0</ele><time>2026-05-02T10:46:41.992Z</time></trkpt><trkpt lat="44.8240083" lon="9.2945417"><ele>1076.0</ele><time>2026-05-02T10:46:42.991Z</time></trkpt><trkpt lat="44.8239667" lon="9.2944617"><ele>1076.0</ele><time>2026-05-02T10:46:43.99Z</time></trkpt><trkpt lat="44.823935" lon="9.2943783"><ele>1078.1666666666667</ele><time>2026-05-02T10:46:44.989Z</time></trkpt><trkpt lat="44.823915" lon="9.294275"><ele>1080.3333333333335</ele><time>2026-05-02T10:46:45.99Z</time></trkpt><trkpt lat="44.8239083" lon="9.2941567"><ele>1082.5</ele><time>2026-05-02T10:46:46.989Z</time></trkpt><trkpt lat="44.8239" lon="9.2940267"><ele>1084.6666666666667</ele><time>2026-05-02T10:46:47.989Z</time></trkpt><trkpt lat="44.82389" lon="9.29391"><ele>1086.8333333333333</ele><time>2026-05-02T10:46:48.989Z</time></trkpt><trkpt lat="44.82388" lon="9.2938017"><ele>1089.0</ele><time>2026-05-02T10:46:49.989Z</time></trkpt><trkpt lat="44.8238633" lon="9.2937"><ele>1091.0</ele><time>2026-05-02T10:46:50.99Z</time></trkpt><trkpt lat="44.8238383" lon="9.2936117"><ele>1093.0</ele><time>2026-05-02T10:46:51.989Z</time></trkpt><trkpt lat="44.823815" lon="9.2935217"><ele>1095.0</ele><time>2026-05-02T10:46:52.99Z</time></trkpt><trkpt lat="44.8238083" lon="9.2934333"><ele>1097.0</ele><time>2026-05-02T10:46:53.99Z</time></trkpt><trkpt lat="44.82383" lon="9.2932783"><ele>1099.0</ele><time>2026-05-02T10:46:55.989Z</time></trkpt><trkpt lat="44.8238617" lon="9.2931417"><ele>1101.0</ele><time>2026-05-02T10:46:57.989Z</time></trkpt><trkpt lat="44.8238417" lon="9.2929933"><ele>1103.8333333333333</ele><time>2026-05-02T10:46:59.992Z</time></trkpt><trkpt lat="44.8238183" lon="9.2929017"><ele>1106.6666666666667</ele><time>2026-05-02T10:47:00.991Z</time></trkpt><trkpt lat="44.8237947" lon="9.2928053"><ele>1109.5</ele><time>2026-05-02T10:47:01.991Z</time></trkpt><trkpt lat="44.8237682" lon="9.2926995"><ele>1112.3333333333335</ele><time>2026-05-02T10:47:02.99Z</time></trkpt><trkpt lat="44.8237526" lon="9.2925986"><ele>1115.1666666666667</ele><time>2026-05-02T10:47:03.99Z</time></trkpt><trkpt lat="44.8237511" lon="9.2924902"><ele>1118.0</ele><time>2026-05-02T10:47:04.99Z</time></trkpt><trkpt lat="44.8237582" lon="9.2923742"><ele>1118.0</ele><time>2026-05-02T10:47:05.991Z</time></trkpt><trkpt lat="44.8237653" lon="9.2922566"><ele>1118.0</ele><time>2026-05-02T10:47:06.99Z</time></trkpt><trkpt lat="44.8237654" lon="9.29215"><ele>1118.0</ele><time>2026-05-02T10:47:07.99Z</time></trkpt><trkpt lat="44.8237582" lon="9.292051"><ele>1118.0</ele><time>2026-05-02T10:47:08.991Z</time></trkpt><trkpt lat="44.8237241" lon="9.2919094"><ele>1118.0</ele><time>2026-05-02T10:47:10.992Z</time></trkpt><trkpt lat="44.8237207" lon="9.2917866"><ele>1118.0</ele><time>2026-05-02T10:47:24.989Z</time></trkpt><trkpt lat="44.8237829" lon="9.2916644"><ele>1122.0</ele><time>2026-05-02T10:47:26.992Z</time></trkpt><trkpt lat="44.8238628" lon="9.2915017"><ele>1126.0</ele><time>2026-05-02T10:47:28.992Z</time></trkpt><trkpt lat="44.8239046" lon="9.2914019"><ele>1130.0</ele><time>2026-05-02T10:47:29.989Z</time></trkpt><trkpt lat="44.8239386" lon="9.291295"><ele>1134.0</ele><time>2026-05-02T10:47:30.989Z</time></trkpt><trkpt lat="44.8239682" lon="9.2911802"><ele>1138.0</ele><time>2026-05-02T10:47:31.99Z</time></trkpt><trkpt lat="44.8239965" lon="9.2910664"><ele>1139.5</ele><time>2026-05-02T10:47:32.99Z</time></trkpt><trkpt lat="44.8240232" lon="9.290952"><ele>1141.0</ele><time>2026-05-02T10:47:33.989Z</time></trkpt><trkpt lat="44.824057" lon="9.2908337"><ele>1142.5</ele><time>2026-05-02T10:47:34.99Z</time></trkpt><trkpt lat="44.8241009" lon="9.2907237"><ele>1144.0</ele><time>2026-05-02T10:47:35.989Z</time></trkpt><trkpt lat="44.8241503" lon="9.290623"><ele>1145.5</ele><time>2026-05-02T10:47:36.989Z</time></trkpt><trkpt lat="44.8242025" lon="9.2905271"><ele>1147.0</ele><time>2026-05-02T10:47:37.991Z</time></trkpt><trkpt lat="44.8242564" lon="9.2904323"><ele>1149.0</ele><time>2026-05-02T10:47:38.991Z</time></trkpt><trkpt lat="44.8243013" lon="9.2903337"><ele>1151.0</ele><time>2026-05-02T10:47:39.99Z</time></trkpt><trkpt lat="44.8243321" lon="9.2902275"><ele>1153.0</ele><time>2026-05-02T10:47:40.989Z</time></trkpt><trkpt lat="44.8243542" lon="9.2901175"><ele>1155.0</ele><time>2026-05-02T10:47:41.989Z</time></trkpt><trkpt lat="44.8243815" lon="9.2899892"><ele>1157.0</ele><time>2026-05-02T10:47:42.99Z</time></trkpt><trkpt lat="44.8244179" lon="9.2898269"><ele>1154.5</ele><time>2026-05-02T10:47:43.99Z</time></trkpt><trkpt lat="44.8244621" lon="9.2896587"><ele>1152.0</ele><time>2026-05-02T10:47:44.989Z</time></trkpt><trkpt lat="44.8245058" lon="9.2894888"><ele>1149.5</ele><time>2026-05-02T10:47:45.989Z</time></trkpt><trkpt lat="44.8245424" lon="9.2893058"><ele>1147.0</ele><time>2026-05-02T10:47:46.989Z</time></trkpt><trkpt lat="44.8245815" lon="9.2891292"><ele>1147.0</ele><time>2026-05-02T10:47:47.99Z</time></trkpt><trkpt lat="44.8246246" lon="9.2889688"><ele>1147.0</ele><time>2026-05-02T10:47:48.989Z</time></trkpt><trkpt lat="44.8246786" lon="9.2888188"><ele>1147.0</ele><time>2026-05-02T10:47:49.989Z</time></trkpt><trkpt lat="44.824746" lon="9.2886876"><ele>1147.0</ele><time>2026-05-02T10:47:50.989Z</time></trkpt><trkpt lat="44.8248195" lon="9.288575"><ele>1145.2</ele><time>2026-05-02T10:47:51.989Z</time></trkpt><trkpt lat="44.8249018" lon="9.2884814"><ele>1143.4</ele><time>2026-05-02T10:47:52.99Z</time></trkpt><trkpt lat="44.8249967" lon="9.2884211"><ele>1141.6</ele><time>2026-05-02T10:47:53.99Z</time></trkpt><trkpt lat="44.8250947" lon="9.2883689"><ele>1139.8</ele><time>2026-05-02T10:47:54.991Z</time></trkpt><trkpt lat="44.8251764" lon="9.2883175"><ele>1138.0</ele><time>2026-05-02T10:47:55.991Z</time></trkpt><trkpt lat="44.8252281" lon="9.2882608"><ele>1138.0000000000002</ele><time>2026-05-02T10:47:56.992Z</time></trkpt><trkpt lat="44.8252732" lon="9.2881808"><ele>1138.0</ele><time>2026-05-02T10:47:57.989Z</time></trkpt><trkpt lat="44.8253109" lon="9.288099"><ele>1138.0</ele><time>2026-05-02T10:47:58.99Z</time></trkpt><trkpt lat="44.8253445" lon="9.2880117"><ele>1138.0</ele><time>2026-05-02T10:47:59.99Z</time></trkpt><trkpt lat="44.8253877" lon="9.2879204"><ele>1138.0</ele><time>2026-05-02T10:48:00.989Z</time></trkpt><trkpt lat="44.8254268" lon="9.2878371"><ele>1138.0000000000002</ele><time>2026-05-02T10:48:01.99Z</time></trkpt><trkpt lat="44.8254699" lon="9.2877537"><ele>1138.0</ele><time>2026-05-02T10:48:02.991Z</time></trkpt><trkpt lat="44.8255195" lon="9.2876728"><ele>1141.8</ele><time>2026-05-02T10:48:03.989Z</time></trkpt><trkpt lat="44.8255709" lon="9.287591"><ele>1145.6</ele><time>2026-05-02T10:48:04.989Z</time></trkpt><trkpt lat="44.8256229" lon="9.2874972"><ele>1149.4</ele><time>2026-05-02T10:48:05.99Z</time></trkpt><trkpt lat="44.8256799" lon="9.2873876"><ele>1153.2</ele><time>2026-05-02T10:48:06.989Z</time></trkpt><trkpt lat="44.8257362" lon="9.2872356"><ele>1157.0</ele><time>2026-05-02T10:48:07.989Z</time></trkpt><trkpt lat="44.8257973" lon="9.287101"><ele>1158.6</ele><time>2026-05-02T10:48:08.99Z</time></trkpt><trkpt lat="44.8258571" lon="9.2869737"><ele>1160.2</ele><time>2026-05-02T10:48:09.989Z</time></trkpt><trkpt lat="44.8259275" lon="9.2868542"><ele>1161.8</ele><time>2026-05-02T10:48:10.99Z</time></trkpt><trkpt lat="44.8260025" lon="9.2867511"><ele>1163.4</ele><time>2026-05-02T10:48:11.99Z</time></trkpt><trkpt lat="44.8260808" lon="9.2866628"><ele>1165.0</ele><time>2026-05-02T10:48:12.99Z</time></trkpt><trkpt lat="44.8261639" lon="9.2866028"><ele>1165.0</ele><time>2026-05-02T10:48:13.99Z</time></trkpt><trkpt lat="44.8262443" lon="9.2865654"><ele>1165.0</ele><time>2026-05-02T10:48:14.989Z</time></trkpt><trkpt lat="44.8263352" lon="9.2865468"><ele>1165.0</ele><time>2026-05-02T10:48:15.99Z</time></trkpt><trkpt lat="44.826421" lon="9.2865483"><ele>1165.0</ele><time>2026-05-02T10:48:16.989Z</time></trkpt><trkpt lat="44.8264983" lon="9.2865633"><ele>1165.0</ele><time>2026-05-02T10:48:17.989Z</time></trkpt><trkpt lat="44.8265683" lon="9.286565"><ele>1165.0</ele><time>2026-05-02T10:48:18.99Z</time></trkpt><trkpt lat="44.82664" lon="9.28656"><ele>1165.0</ele><time>2026-05-02T10:48:19.989Z</time></trkpt><trkpt lat="44.8267117" lon="9.286535"><ele>1165.0</ele><time>2026-05-02T10:48:20.99Z</time></trkpt><trkpt lat="44.826785" lon="9.286505"><ele>1165.0</ele><time>2026-05-02T10:48:21.989Z</time></trkpt><trkpt lat="44.826845" lon="9.2864633"><ele>1165.0</ele><time>2026-05-02T10:48:22.989Z</time></trkpt><trkpt lat="44.826915" lon="9.28642"><ele>1165.0</ele><time>2026-05-02T10:48:23.989Z</time></trkpt><trkpt lat="44.8269867" lon="9.2863667"><ele>1165.0</ele><time>2026-05-02T10:48:24.99Z</time></trkpt><trkpt lat="44.8270667" lon="9.2863"><ele>1165.8</ele><time>2026-05-02T10:48:25.99Z</time></trkpt><trkpt lat="44.8271467" lon="9.2862433"><ele>1166.6</ele><time>2026-05-02T10:48:26.992Z</time></trkpt><trkpt lat="44.827235" lon="9.2861983"><ele>1167.4</ele><time>2026-05-02T10:48:27.992Z</time></trkpt><trkpt lat="44.8273217" lon="9.2861583"><ele>1168.2</ele><time>2026-05-02T10:48:28.99Z</time></trkpt><trkpt lat="44.8274117" lon="9.286125"><ele>1169.0</ele><time>2026-05-02T10:48:29.99Z</time></trkpt><trkpt lat="44.8275" lon="9.2861"><ele>1169.0</ele><time>2026-05-02T10:48:30.99Z</time></trkpt><trkpt lat="44.8275767" lon="9.286085"><ele>1169.0</ele><time>2026-05-02T10:48:31.992Z</time></trkpt><trkpt lat="44.8276517" lon="9.28608"><ele>1169.0</ele><time>2026-05-02T10:48:32.99Z</time></trkpt><trkpt lat="44.8277183" lon="9.2860817"><ele>1169.0</ele><time>2026-05-02T10:48:33.99Z</time></trkpt><trkpt lat="44.8277933" lon="9.2860933"><ele>1169.0</ele><time>2026-05-02T10:48:34.991Z</time></trkpt><trkpt lat="44.8278733" lon="9.2860933"><ele>1169.0</ele><time>2026-05-02T10:48:35.991Z</time></trkpt><trkpt lat="44.82796" lon="9.2861"><ele>1169.0</ele><time>2026-05-02T10:48:36.991Z</time></trkpt><trkpt lat="44.82804" lon="9.2860867"><ele>1169.0</ele><time>2026-05-02T10:48:37.991Z</time></trkpt><trkpt lat="44.8281267" lon="9.2860617"><ele>1169.0</ele><time>2026-05-02T10:48:38.99Z</time></trkpt><trkpt lat="44.82821" lon="9.28604"><ele>1169.0</ele><time>2026-05-02T10:48:39.991Z</time></trkpt><trkpt lat="44.8282867" lon="9.28602"><ele>1169.0</ele><time>2026-05-02T10:48:40.991Z</time></trkpt><trkpt lat="44.8283633" lon="9.2859917"><ele>1169.0</ele><time>2026-05-02T10:48:41.989Z</time></trkpt><trkpt lat="44.8284267" lon="9.2859533"><ele>1167.6666666666667</ele><time>2026-05-02T10:48:42.993Z</time></trkpt><trkpt lat="44.8285017" lon="9.2859"><ele>1166.3333333333335</ele><time>2026-05-02T10:48:43.99Z</time></trkpt><trkpt lat="44.8285733" lon="9.2858383"><ele>1165.0</ele><time>2026-05-02T10:48:44.991Z</time></trkpt><trkpt lat="44.8286417" lon="9.2857783"><ele>1163.6666666666667</ele><time>2026-05-02T10:48:45.991Z</time></trkpt><trkpt lat="44.828715" lon="9.2857217"><ele>1162.3333333333333</ele><time>2026-05-02T10:48:46.99Z</time></trkpt><trkpt lat="44.8288" lon="9.2856533"><ele>1161.0</ele><time>2026-05-02T10:48:47.99Z</time></trkpt><trkpt lat="44.8288767" lon="9.2855883"><ele>1160.3999999999999</ele><time>2026-05-02T10:48:48.991Z</time></trkpt><trkpt lat="44.8289667" lon="9.2855133"><ele>1159.8</ele><time>2026-05-02T10:48:49.99Z</time></trkpt><trkpt lat="44.8290433" lon="9.2854317"><ele>1159.1999999999998</ele><time>2026-05-02T10:48:50.991Z</time></trkpt><trkpt lat="44.829115" lon="9.2853617"><ele>1158.6</ele><time>2026-05-02T10:48:51.99Z</time></trkpt><trkpt lat="44.82919" lon="9.2852917"><ele>1158.0</ele><time>2026-05-02T10:48:52.99Z</time></trkpt><trkpt lat="44.82926" lon="9.2852333"><ele>1157.4</ele><time>2026-05-02T10:48:53.99Z</time></trkpt><trkpt lat="44.8293417" lon="9.2851767"><ele>1156.8</ele><time>2026-05-02T10:48:54.99Z</time></trkpt><trkpt lat="44.8294267" lon="9.285135"><ele>1156.2</ele><time>2026-05-02T10:48:55.989Z</time></trkpt><trkpt lat="44.82952" lon="9.2851083"><ele>1155.6</ele><time>2026-05-02T10:48:56.99Z</time></trkpt><trkpt lat="44.8296083" lon="9.2850833"><ele>1155.0</ele><time>2026-05-02T10:48:57.99Z</time></trkpt><trkpt lat="44.8297017" lon="9.2850533"><ele>1155.0</ele><time>2026-05-02T10:48:58.989Z</time></trkpt><trkpt lat="44.8297967" lon="9.2850267"><ele>1155.0</ele><time>2026-05-02T10:48:59.989Z</time></trkpt><trkpt lat="44.8298683" lon="9.2849983"><ele>1155.0</ele><time>2026-05-02T10:49:00.99Z</time></trkpt><trkpt lat="44.82995" lon="9.284965"><ele>1155.0</ele><time>2026-05-02T10:49:01.989Z</time></trkpt><trkpt lat="44.8300283" lon="9.284935"><ele>1155.0</ele><time>2026-05-02T10:49:02.99Z</time></trkpt><trkpt lat="44.8301117" lon="9.2849117"><ele>1155.0</ele><time>2026-05-02T10:49:03.989Z</time></trkpt><trkpt lat="44.8302017" lon="9.2848917"><ele>1154.1666666666667</ele><time>2026-05-02T10:49:04.992Z</time></trkpt><trkpt lat="44.830295" lon="9.2848817"><ele>1153.3333333333333</ele><time>2026-05-02T10:49:05.989Z</time></trkpt><trkpt lat="44.830385" lon="9.2848683"><ele>1152.5</ele><time>2026-05-02T10:49:06.989Z</time></trkpt><trkpt lat="44.8304683" lon="9.2848683"><ele>1151.6666666666665</ele><time>2026-05-02T10:49:07.989Z</time></trkpt><trkpt lat="44.83055" lon="9.28488"><ele>1150.8333333333333</ele><time>2026-05-02T10:49:08.991Z</time></trkpt><trkpt lat="44.8306267" lon="9.2849"><ele>1150.0</ele><time>2026-05-02T10:49:09.99Z</time></trkpt><trkpt lat="44.8307017" lon="9.2849183"><ele>1150.0</ele><time>2026-05-02T10:49:10.989Z</time></trkpt><trkpt lat="44.8307767" lon="9.284945"><ele>1150.0</ele><time>2026-05-02T10:49:11.989Z</time></trkpt><trkpt lat="44.8308383" lon="9.28497"><ele>1150.0</ele><time>2026-05-02T10:49:12.989Z</time></trkpt><trkpt lat="44.8309017" lon="9.2849883"><ele>1150.0</ele><time>2026-05-02T10:49:13.99Z</time></trkpt><trkpt lat="44.8310167" lon="9.2850083"><ele>1150.0</ele><time>2026-05-02T10:49:15.989Z</time></trkpt><trkpt lat="44.8311317" lon="9.2850317"><ele>1150.0</ele><time>2026-05-02T10:49:17.99Z</time></trkpt><trkpt lat="44.8312017" lon="9.2850333"><ele>1149.5</ele><time>2026-05-02T10:49:18.989Z</time></trkpt><trkpt lat="44.831275" lon="9.285025"><ele>1149.0</ele><time>2026-05-02T10:49:19.99Z</time></trkpt><trkpt lat="44.8313567" lon="9.2850133"><ele>1148.5</ele><time>2026-05-02T10:49:20.99Z</time></trkpt><trkpt lat="44.8314383" lon="9.2850083"><ele>1148.0</ele><time>2026-05-02T10:49:21.989Z</time></trkpt><trkpt lat="44.8315183" lon="9.2850067"><ele>1147.5</ele><time>2026-05-02T10:49:22.989Z</time></trkpt><trkpt lat="44.8315967" lon="9.285015"><ele>1147.0</ele><time>2026-05-02T10:49:23.99Z</time></trkpt><trkpt lat="44.8316733" lon="9.2850183"><ele>1147.0</ele><time>2026-05-02T10:49:24.989Z</time></trkpt><trkpt lat="44.831765" lon="9.285015"><ele>1147.0</ele><time>2026-05-02T10:49:25.989Z</time></trkpt><trkpt lat="44.83185" lon="9.2850117"><ele>1147.0</ele><time>2026-05-02T10:49:26.99Z</time></trkpt><trkpt lat="44.83193" lon="9.285015"><ele>1147.0</ele><time>2026-05-02T10:49:27.99Z</time></trkpt><trkpt lat="44.832015" lon="9.2850267"><ele>1147.0</ele><time>2026-05-02T10:49:28.99Z</time></trkpt><trkpt lat="44.8321" lon="9.285025"><ele>1147.0</ele><time>2026-05-02T10:49:29.99Z</time></trkpt><trkpt lat="44.8321767" lon="9.2850233"><ele>1145.4</ele><time>2026-05-02T10:49:30.989Z</time></trkpt><trkpt lat="44.8322617" lon="9.2850233"><ele>1143.8000000000002</ele><time>2026-05-02T10:49:31.989Z</time></trkpt><trkpt lat="44.8323483" lon="9.2850283"><ele>1142.2</ele><time>2026-05-02T10:49:32.989Z</time></trkpt><trkpt lat="44.832445" lon="9.28504"><ele>1140.6000000000001</ele><time>2026-05-02T10:49:33.989Z</time></trkpt><trkpt lat="44.8325367" lon="9.2850533"><ele>1139.0</ele><time>2026-05-02T10:49:34.99Z</time></trkpt><trkpt lat="44.8326267" lon="9.2850717"><ele>1137.8</ele><time>2026-05-02T10:49:35.99Z</time></trkpt><trkpt lat="44.8326983" lon="9.2850967"><ele>1136.6000000000001</ele><time>2026-05-02T10:49:36.989Z</time></trkpt><trkpt lat="44.8327867" lon="9.2851417"><ele>1135.4</ele><time>2026-05-02T10:49:38.989Z</time></trkpt><trkpt lat="44.832925" lon="9.2851717"><ele>1134.2</ele><time>2026-05-02T10:50:14.99Z</time></trkpt><trkpt lat="44.833055" lon="9.285175"><ele>1133.0</ele><time>2026-05-02T10:50:16.989Z</time></trkpt><trkpt lat="44.8331383" lon="9.2851733"><ele>1133.0</ele><time>2026-05-02T10:50:17.99Z</time></trkpt><trkpt lat="44.8332233" lon="9.2851833"><ele>1133.0</ele><time>2026-05-02T10:50:18.989Z</time></trkpt><trkpt lat="44.8333017" lon="9.285205"><ele>1133.0</ele><time>2026-05-02T10:50:19.989Z</time></trkpt><trkpt lat="44.8333767" lon="9.2852483"><ele>1133.0</ele><time>2026-05-02T10:50:20.99Z</time></trkpt><trkpt lat="44.8334633" lon="9.2853067"><ele>1133.0</ele><time>2026-05-02T10:50:21.989Z</time></trkpt><trkpt lat="44.8335483" lon="9.28538"><ele>1133.0</ele><time>2026-05-02T10:50:22.989Z</time></trkpt><trkpt lat="44.833635" lon="9.2854517"><ele>1133.3333333333335</ele><time>2026-05-02T10:50:23.989Z</time></trkpt><trkpt lat="44.8337183" lon="9.28552"><ele>1133.6666666666667</ele><time>2026-05-02T10:50:24.989Z</time></trkpt><trkpt lat="44.8337917" lon="9.2855817"><ele>1134.0</ele><time>2026-05-02T10:50:25.99Z</time></trkpt><trkpt lat="44.8338567" lon="9.2856483"><ele>1134.3333333333333</ele><time>2026-05-02T10:50:26.99Z</time></trkpt><trkpt lat="44.8339267" lon="9.2857083"><ele>1134.6666666666665</ele><time>2026-05-02T10:50:27.989Z</time></trkpt><trkpt lat="44.8339933" lon="9.2857767"><ele>1135.0</ele><time>2026-05-02T10:50:28.989Z</time></trkpt><trkpt lat="44.8340583" lon="9.2858583"><ele>1135.2857142857142</ele><time>2026-05-02T10:50:29.989Z</time></trkpt><trkpt lat="44.8341217" lon="9.2859283"><ele>1135.5714285714284</ele><time>2026-05-02T10:50:30.989Z</time></trkpt><trkpt lat="44.8341833" lon="9.285985"><ele>1135.8571428571427</ele><time>2026-05-02T10:50:31.991Z</time></trkpt><trkpt lat="44.8342433" lon="9.286035"><ele>1136.142857142857</ele><time>2026-05-02T10:50:32.989Z</time></trkpt><trkpt lat="44.8343" lon="9.2860833"><ele>1136.4285714285713</ele><time>2026-05-02T10:50:33.989Z</time></trkpt><trkpt lat="44.8343633" lon="9.2861367"><ele>1136.7142857142856</ele><time>2026-05-02T10:50:34.99Z</time></trkpt><trkpt lat="44.8344233" lon="9.2862083"><ele>1137.0</ele><time>2026-05-02T10:50:35.989Z</time></trkpt><trkpt lat="44.8345017" lon="9.2863033"><ele>1137.8</ele><time>2026-05-02T10:50:36.989Z</time></trkpt><trkpt lat="44.8345767" lon="9.2863983"><ele>1138.6</ele><time>2026-05-02T10:50:37.989Z</time></trkpt><trkpt lat="44.8346467" lon="9.28648"><ele>1139.3999999999999</ele><time>2026-05-02T10:50:38.99Z</time></trkpt><trkpt lat="44.8347167" lon="9.2865417"><ele>1140.2</ele><time>2026-05-02T10:50:39.989Z</time></trkpt><trkpt lat="44.8347933" lon="9.2865983"><ele>1141.0</ele><time>2026-05-02T10:50:40.99Z</time></trkpt><trkpt lat="44.8348767" lon="9.2866533"><ele>1141.0</ele><time>2026-05-02T10:50:41.989Z</time></trkpt><trkpt lat="44.83495" lon="9.2867083"><ele>1141.0</ele><time>2026-05-02T10:50:42.99Z</time></trkpt><trkpt lat="44.83502" lon="9.2867667"><ele>1141.0</ele><time>2026-05-02T10:50:43.989Z</time></trkpt><trkpt lat="44.83508" lon="9.286825"><ele>1141.0</ele><time>2026-05-02T10:50:44.99Z</time></trkpt><trkpt lat="44.8351367" lon="9.2868867"><ele>1141.0</ele><time>2026-05-02T10:50:45.989Z</time></trkpt><trkpt lat="44.835195" lon="9.2869683"><ele>1141.0</ele><time>2026-05-02T10:50:46.99Z</time></trkpt><trkpt lat="44.83525" lon="9.2870483"><ele>1140.3333333333333</ele><time>2026-05-02T10:50:47.99Z</time></trkpt><trkpt lat="44.8353083" lon="9.287125"><ele>1139.6666666666665</ele><time>2026-05-02T10:50:48.99Z</time></trkpt><trkpt lat="44.8353733" lon="9.2872117"><ele>1139.0</ele><time>2026-05-02T10:50:49.989Z</time></trkpt><trkpt lat="44.8354367" lon="9.287295"><ele>1138.3333333333333</ele><time>2026-05-02T10:50:50.99Z</time></trkpt><trkpt lat="44.8355067" lon="9.28738"><ele>1137.6666666666667</ele><time>2026-05-02T10:50:51.989Z</time></trkpt><trkpt lat="44.835575" lon="9.287465"><ele>1137.0</ele><time>2026-05-02T10:50:52.989Z</time></trkpt><trkpt lat="44.83564" lon="9.2875517"><ele>1137.0</ele><time>2026-05-02T10:50:53.99Z</time></trkpt><trkpt lat="44.8357083" lon="9.2876317"><ele>1137.0</ele><time>2026-05-02T10:50:54.99Z</time></trkpt><trkpt lat="44.8357717" lon="9.2877"><ele>1137.0</ele><time>2026-05-02T10:50:55.99Z</time></trkpt><trkpt lat="44.8358483" lon="9.2877667"><ele>1137.0</ele><time>2026-05-02T10:50:56.99Z</time></trkpt><trkpt lat="44.8359267" lon="9.287835"><ele>1137.0</ele><time>2026-05-02T10:50:57.989Z</time></trkpt><trkpt lat="44.8360117" lon="9.2879033"><ele>1137.0</ele><time>2026-05-02T10:50:58.989Z</time></trkpt><trkpt lat="44.8361017" lon="9.28797"><ele>1136.0</ele><time>2026-05-02T10:50:59.99Z</time></trkpt><trkpt lat="44.836185" lon="9.2880283"><ele>1135.0</ele><time>2026-05-02T10:51:00.989Z</time></trkpt><trkpt lat="44.8362633" lon="9.2880817"><ele>1134.0</ele><time>2026-05-02T10:51:01.989Z</time></trkpt><trkpt lat="44.8363333" lon="9.2881217"><ele>1133.0</ele><time>2026-05-02T10:51:02.99Z</time></trkpt><trkpt lat="44.8364067" lon="9.2881433"><ele>1132.0</ele><time>2026-05-02T10:51:03.989Z</time></trkpt><trkpt lat="44.8364817" lon="9.288145"><ele>1131.0</ele><time>2026-05-02T10:51:04.989Z</time></trkpt><trkpt lat="44.8365533" lon="9.28811"><ele>1131.0</ele><time>2026-05-02T10:51:05.99Z</time></trkpt><trkpt lat="44.836625" lon="9.2880667"><ele>1131.0</ele><time>2026-05-02T10:51:06.989Z</time></trkpt><trkpt lat="44.8367" lon="9.2880283"><ele>1131.0</ele><time>2026-05-02T10:51:07.99Z</time></trkpt><trkpt lat="44.8367817" lon="9.2879967"><ele>1131.0</ele><time>2026-05-02T10:51:08.989Z</time></trkpt><trkpt lat="44.8368633" lon="9.2879817"><ele>1131.0</ele><time>2026-05-02T10:51:09.989Z</time></trkpt><trkpt lat="44.83694" lon="9.2880017"><ele>1131.0</ele><time>2026-05-02T10:51:10.989Z</time></trkpt><trkpt lat="44.837015" lon="9.288045"><ele>1129.0</ele><time>2026-05-02T10:51:11.99Z</time></trkpt><trkpt lat="44.8370933" lon="9.2880917"><ele>1127.0</ele><time>2026-05-02T10:51:12.99Z</time></trkpt><trkpt lat="44.83716" lon="9.2881333"><ele>1125.0</ele><time>2026-05-02T10:51:13.989Z</time></trkpt><trkpt lat="44.8372367" lon="9.28816"><ele>1123.0</ele><time>2026-05-02T10:51:14.99Z</time></trkpt><trkpt lat="44.8373067" lon="9.2881683"><ele>1121.0</ele><time>2026-05-02T10:51:15.989Z</time></trkpt><trkpt lat="44.8373717" lon="9.2881617"><ele>1119.0</ele><time>2026-05-02T10:51:16.989Z</time></trkpt><trkpt lat="44.8374783" lon="9.288135"><ele>1119.0</ele><time>2026-05-02T10:51:18.99Z</time></trkpt><trkpt lat="44.8375717" lon="9.28806"><ele>1119.0</ele><time>2026-05-02T10:51:20.99Z</time></trkpt><trkpt lat="44.8376767" lon="9.2879883"><ele>1119.0</ele><time>2026-05-02T10:51:22.989Z</time></trkpt><trkpt lat="44.83775" lon="9.2879633"><ele>1119.0</ele><time>2026-05-02T10:51:23.99Z</time></trkpt><trkpt lat="44.8378133" lon="9.287945"><ele>1119.0</ele><time>2026-05-02T10:51:24.99Z</time></trkpt><trkpt lat="44.8379383" lon="9.2879083"><ele>1117.0</ele><time>2026-05-02T10:51:26.99Z</time></trkpt><trkpt lat="44.8380083" lon="9.287885"><ele>1115.0</ele><time>2026-05-02T10:51:27.989Z</time></trkpt><trkpt lat="44.8380867" lon="9.2878567"><ele>1113.0</ele><time>2026-05-02T10:51:28.99Z</time></trkpt><trkpt lat="44.8381617" lon="9.2878217"><ele>1111.0</ele><time>2026-05-02T10:51:29.994Z</time></trkpt><trkpt lat="44.83824" lon="9.2877917"><ele>1109.0</ele><time>2026-05-02T10:51:30.99Z</time></trkpt><trkpt lat="44.8383183" lon="9.28777"><ele>1107.0</ele><time>2026-05-02T10:51:31.991Z</time></trkpt><trkpt lat="44.8383883" lon="9.2877633"><ele>1107.0</ele><time>2026-05-02T10:51:32.99Z</time></trkpt><trkpt lat="44.8384667" lon="9.2877633"><ele>1107.0</ele><time>2026-05-02T10:51:33.989Z</time></trkpt><trkpt lat="44.83856" lon="9.2877817"><ele>1107.0</ele><time>2026-05-02T10:51:34.991Z</time></trkpt><trkpt lat="44.8386367" lon="9.2878067"><ele>1107.0</ele><time>2026-05-02T10:51:35.99Z</time></trkpt><trkpt lat="44.8386983" lon="9.2878383"><ele>1107.0</ele><time>2026-05-02T10:51:36.989Z</time></trkpt><trkpt lat="44.83881" lon="9.2879333"><ele>1107.0</ele><time>2026-05-02T10:51:38.991Z</time></trkpt><trkpt lat="44.8388883" lon="9.28803"><ele>1105.2</ele><time>2026-05-02T10:51:40.989Z</time></trkpt><trkpt lat="44.8389817" lon="9.2881217"><ele>1103.4</ele><time>2026-05-02T10:51:42.989Z</time></trkpt><trkpt lat="44.8390783" lon="9.2882267"><ele>1101.6</ele><time>2026-05-02T10:51:44.991Z</time></trkpt><trkpt lat="44.8391517" lon="9.2883717"><ele>1099.8</ele><time>2026-05-02T10:51:46.989Z</time></trkpt><trkpt lat="44.8391817" lon="9.2884517"><ele>1098.0</ele><time>2026-05-02T10:51:47.991Z</time></trkpt><trkpt lat="44.8391883" lon="9.28854"><ele>1098.0</ele><time>2026-05-02T10:51:48.99Z</time></trkpt><trkpt lat="44.8391717" lon="9.2886333"><ele>1098.0</ele><time>2026-05-02T10:51:49.99Z</time></trkpt><trkpt lat="44.8391383" lon="9.2887233"><ele>1098.0</ele><time>2026-05-02T10:51:50.991Z</time></trkpt><trkpt lat="44.8390917" lon="9.2888233"><ele>1098.0</ele><time>2026-05-02T10:51:51.989Z</time></trkpt><trkpt lat="44.8390467" lon="9.2889217"><ele>1098.0</ele><time>2026-05-02T10:51:52.991Z</time></trkpt><trkpt lat="44.839015" lon="9.2890317"><ele>1098.0</ele><time>2026-05-02T10:51:53.989Z</time></trkpt><trkpt lat="44.838995" lon="9.2891517"><ele>1096.6</ele><time>2026-05-02T10:51:54.99Z</time></trkpt><trkpt lat="44.8389883" lon="9.28928"><ele>1095.1999999999998</ele><time>2026-05-02T10:51:55.99Z</time></trkpt><trkpt lat="44.83899" lon="9.2894133"><ele>1093.8</ele><time>2026-05-02T10:51:56.991Z</time></trkpt><trkpt lat="44.8389933" lon="9.2895483"><ele>1092.3999999999999</ele><time>2026-05-02T10:51:57.99Z</time></trkpt><trkpt lat="44.8389967" lon="9.289685"><ele>1091.0</ele><time>2026-05-02T10:51:58.989Z</time></trkpt><trkpt lat="44.8390017" lon="9.2898183"><ele>1089.6</ele><time>2026-05-02T10:51:59.99Z</time></trkpt><trkpt lat="44.8390117" lon="9.289955"><ele>1088.1999999999998</ele><time>2026-05-02T10:52:00.99Z</time></trkpt><trkpt lat="44.83902" lon="9.2900917"><ele>1086.8000000000002</ele><time>2026-05-02T10:52:01.99Z</time></trkpt><trkpt lat="44.83903" lon="9.2902267"><ele>1085.4</ele><time>2026-05-02T10:52:02.99Z</time></trkpt><trkpt lat="44.8390367" lon="9.2903583"><ele>1084.0</ele><time>2026-05-02T10:52:03.989Z</time></trkpt><trkpt lat="44.8390417" lon="9.2904883"><ele>1083.1666666666665</ele><time>2026-05-02T10:52:04.989Z</time></trkpt><trkpt lat="44.83904" lon="9.2906133"><ele>1082.3333333333333</ele><time>2026-05-02T10:52:05.989Z</time></trkpt><trkpt lat="44.8390367" lon="9.290735"><ele>1081.5</ele><time>2026-05-02T10:52:06.991Z</time></trkpt><trkpt lat="44.8390333" lon="9.2908567"><ele>1080.6666666666667</ele><time>2026-05-02T10:52:07.989Z</time></trkpt><trkpt lat="44.8390383" lon="9.2909733"><ele>1079.8333333333335</ele><time>2026-05-02T10:52:08.989Z</time></trkpt><trkpt lat="44.839055" lon="9.29108"><ele>1079.0</ele><time>2026-05-02T10:52:09.989Z</time></trkpt><trkpt lat="44.8390683" lon="9.2911817"><ele>1079.0</ele><time>2026-05-02T10:52:10.99Z</time></trkpt><trkpt lat="44.8390833" lon="9.29129"><ele>1079.0</ele><time>2026-05-02T10:52:11.989Z</time></trkpt><trkpt lat="44.8391083" lon="9.2914017"><ele>1079.0</ele><time>2026-05-02T10:52:12.989Z</time></trkpt><trkpt lat="44.8391483" lon="9.2915083"><ele>1079.0</ele><time>2026-05-02T10:52:13.989Z</time></trkpt><trkpt lat="44.8391933" lon="9.29161"><ele>1079.0</ele><time>2026-05-02T10:52:14.99Z</time></trkpt><trkpt lat="44.8392383" lon="9.2917167"><ele>1079.0</ele><time>2026-05-02T10:52:15.989Z</time></trkpt><trkpt lat="44.8392767" lon="9.291825"><ele>1079.1666666666667</ele><time>2026-05-02T10:52:16.99Z</time></trkpt><trkpt lat="44.83931" lon="9.2919383"><ele>1079.3333333333335</ele><time>2026-05-02T10:52:17.989Z</time></trkpt><trkpt lat="44.8393333" lon="9.2920467"><ele>1079.5</ele><time>2026-05-02T10:52:18.99Z</time></trkpt><trkpt lat="44.8393467" lon="9.2921567"><ele>1079.6666666666667</ele><time>2026-05-02T10:52:19.99Z</time></trkpt><trkpt lat="44.839355" lon="9.2922633"><ele>1079.8333333333333</ele><time>2026-05-02T10:52:20.99Z</time></trkpt><trkpt lat="44.8393617" lon="9.29236"><ele>1080.0</ele><time>2026-05-02T10:52:21.989Z</time></trkpt><trkpt lat="44.8393717" lon="9.2924533"><ele>1079.1666666666667</ele><time>2026-05-02T10:52:22.992Z</time></trkpt><trkpt lat="44.839385" lon="9.2925483"><ele>1078.3333333333333</ele><time>2026-05-02T10:52:23.991Z</time></trkpt><trkpt lat="44.8394017" lon="9.2926483"><ele>1077.5</ele><time>2026-05-02T10:52:24.99Z</time></trkpt><trkpt lat="44.8394167" lon="9.2927517"><ele>1076.6666666666665</ele><time>2026-05-02T10:52:25.991Z</time></trkpt><trkpt lat="44.8394283" lon="9.2928533"><ele>1075.8333333333333</ele><time>2026-05-02T10:52:26.991Z</time></trkpt><trkpt lat="44.8394517" lon="9.2929967"><ele>1075.0</ele><time>2026-05-02T10:52:28.992Z</time></trkpt><trkpt lat="44.8393767" lon="9.29302"><ele>1075.0</ele><time>2026-05-02T10:53:08.991Z</time></trkpt><trkpt lat="44.8393067" lon="9.2929667"><ele>1075.0</ele><time>2026-05-02T10:53:10.991Z</time></trkpt><trkpt lat="44.839225" lon="9.2929317"><ele>1075.0</ele><time>2026-05-02T10:53:12.989Z</time></trkpt><trkpt lat="44.83912" lon="9.2929233"><ele>1075.0</ele><time>2026-05-02T10:53:14.99Z</time></trkpt><trkpt lat="44.8389917" lon="9.2929183"><ele>1075.0</ele><time>2026-05-02T10:53:16.989Z</time></trkpt><trkpt lat="44.8389233" lon="9.2929233"><ele>1074.0000000000002</ele><time>2026-05-02T10:53:17.99Z</time></trkpt><trkpt lat="44.8388533" lon="9.2929333"><ele>1073.0</ele><time>2026-05-02T10:53:18.99Z</time></trkpt><trkpt lat="44.8387867" lon="9.2929433"><ele>1072.0</ele><time>2026-05-02T10:53:19.99Z</time></trkpt><trkpt lat="44.8387183" lon="9.2929617"><ele>1071.0</ele><time>2026-05-02T10:53:20.99Z</time></trkpt><trkpt lat="44.838645" lon="9.2929817"><ele>1070.0</ele><time>2026-05-02T10:53:21.991Z</time></trkpt><trkpt lat="44.8385717" lon="9.2929983"><ele>1069.0000000000002</ele><time>2026-05-02T10:53:22.99Z</time></trkpt><trkpt lat="44.8385017" lon="9.2930133"><ele>1068.0</ele><time>2026-05-02T10:53:23.992Z</time></trkpt><trkpt lat="44.8384333" lon="9.29302"><ele>1066.5</ele><time>2026-05-02T10:53:24.989Z</time></trkpt><trkpt lat="44.838365" lon="9.2930283"><ele>1065.0</ele><time>2026-05-02T10:53:25.989Z</time></trkpt><trkpt lat="44.8382717" lon="9.2930483"><ele>1063.5</ele><time>2026-05-02T10:53:27.99Z</time></trkpt><trkpt lat="44.8382017" lon="9.29306"><ele>1062.0</ele><time>2026-05-02T10:53:30.989Z</time></trkpt><trkpt lat="44.8381433" lon="9.29301"><ele>1060.5</ele><time>2026-05-02T10:53:34.989Z</time></trkpt><trkpt lat="44.8380633" lon="9.2928733"><ele>1059.0</ele><time>2026-05-02T10:54:38.989Z</time></trkpt><trkpt lat="44.8379983" lon="9.2928283"><ele>1059.0</ele><time>2026-05-02T10:54:42.989Z</time></trkpt><trkpt lat="44.837985" lon="9.2929217"><ele>1059.0</ele><time>2026-05-02T10:54:46.991Z</time></trkpt><trkpt lat="44.8379717" lon="9.2930383"><ele>1059.0</ele><time>2026-05-02T10:54:50.991Z</time></trkpt><trkpt lat="44.8379217" lon="9.2931217"><ele>1059.0</ele><time>2026-05-02T10:54:53.989Z</time></trkpt><trkpt lat="44.83788" lon="9.2932117"><ele>1059.0</ele><time>2026-05-02T10:54:56.99Z</time></trkpt><trkpt lat="44.8378583" lon="9.2933"><ele>1059.0</ele><time>2026-05-02T10:54:58.989Z</time></trkpt><trkpt lat="44.8378183" lon="9.293405"><ele>1058.4</ele><time>2026-05-02T10:55:00.989Z</time></trkpt><trkpt lat="44.8377883" lon="9.2935433"><ele>1057.8000000000002</ele><time>2026-05-02T10:55:02.99Z</time></trkpt><trkpt lat="44.8377383" lon="9.29369"><ele>1057.1999999999998</ele><time>2026-05-02T10:55:04.99Z</time></trkpt><trkpt lat="44.8376833" lon="9.2938233"><ele>1056.6</ele><time>2026-05-02T10:55:06.99Z</time></trkpt><trkpt lat="44.8376317" lon="9.2939767"><ele>1056.0</ele><time>2026-05-02T10:55:08.99Z</time></trkpt><trkpt lat="44.8376033" lon="9.29412"><ele>1051.5</ele><time>2026-05-02T10:55:10.989Z</time></trkpt><trkpt lat="44.8375483" lon="9.2942183"><ele>1047.0</ele><time>2026-05-02T10:55:12.989Z</time></trkpt><trkpt lat="44.837515" lon="9.2943183"><ele>1042.5</ele><time>2026-05-02T10:55:14.989Z</time></trkpt><trkpt lat="44.8374617" lon="9.2943983"><ele>1038.0</ele><time>2026-05-02T10:55:17.99Z</time></trkpt><trkpt lat="44.8373967" lon="9.294395"><ele>1033.5</ele><time>2026-05-02T10:55:19.99Z</time></trkpt><trkpt lat="44.837315" lon="9.2943867"><ele>1029.0</ele><time>2026-05-02T10:55:22.99Z</time></trkpt><trkpt lat="44.8372517" lon="9.2943333"><ele>1029.0</ele><time>2026-05-02T10:55:25.989Z</time></trkpt><trkpt lat="44.83718" lon="9.2943967"><ele>1029.0</ele><time>2026-05-02T10:55:27.99Z</time></trkpt><trkpt lat="44.837085" lon="9.294465"><ele>1029.0</ele><time>2026-05-02T10:55:29.989Z</time></trkpt><trkpt lat="44.8369883" lon="9.294515"><ele>1029.0</ele><time>2026-05-02T10:55:31.989Z</time></trkpt><trkpt lat="44.8369067" lon="9.294535"><ele>1029.0</ele><time>2026-05-02T10:55:33.99Z</time></trkpt><trkpt lat="44.8368383" lon="9.294545"><ele>1029.0</ele><time>2026-05-02T10:55:35.989Z</time></trkpt><trkpt lat="44.8367767" lon="9.2945983"><ele>1029.0</ele><time>2026-05-02T11:03:26.99Z</time></trkpt><trkpt lat="44.8368483" lon="9.2945717"><ele>1029.0</ele><time>2026-05-02T11:03:29.99Z</time></trkpt><trkpt lat="44.8369417" lon="9.29452"><ele>1029.0</ele><time>2026-05-02T11:03:31.989Z</time></trkpt><trkpt lat="44.8370433" lon="9.29447"><ele>1029.0</ele><time>2026-05-02T11:03:33.989Z</time></trkpt><trkpt lat="44.83714" lon="9.2944033"><ele>1029.0</ele><time>2026-05-02T11:03:35.988Z</time></trkpt><trkpt lat="44.83721" lon="9.2943383"><ele>1029.0</ele><time>2026-05-02T11:03:37.989Z</time></trkpt><trkpt lat="44.8372967" lon="9.2943467"><ele>1029.0</ele><time>2026-05-02T11:03:40.989Z</time></trkpt><trkpt lat="44.83737" lon="9.2943883"><ele>1029.0</ele><time>2026-05-02T11:03:44.989Z</time></trkpt><trkpt lat="44.8374517" lon="9.2943933"><ele>1029.0</ele><time>2026-05-02T11:03:47.989Z</time></trkpt><trkpt lat="44.8374867" lon="9.29428"><ele>1029.0</ele><time>2026-05-02T11:03:51.989Z</time></trkpt><trkpt lat="44.837535" lon="9.294205"><ele>1029.0</ele><time>2026-05-02T11:03:53.99Z</time></trkpt><trkpt lat="44.8375717" lon="9.2940717"><ele>1029.0</ele><time>2026-05-02T11:03:56.99Z</time></trkpt><trkpt lat="44.8376183" lon="9.293925"><ele>1029.0</ele><time>2026-05-02T11:03:58.99Z</time></trkpt><trkpt lat="44.837655" lon="9.2938467"><ele>1029.0</ele><time>2026-05-02T11:03:59.991Z</time></trkpt><trkpt lat="44.83772" lon="9.2937083"><ele>1029.0</ele><time>2026-05-02T11:04:01.99Z</time></trkpt><trkpt lat="44.837775" lon="9.2935417"><ele>1029.0</ele><time>2026-05-02T11:04:03.989Z</time></trkpt><trkpt lat="44.837805" lon="9.2934533"><ele>1032.857142857143</ele><time>2026-05-02T11:04:04.989Z</time></trkpt><trkpt lat="44.8378367" lon="9.293375"><ele>1036.7142857142858</ele><time>2026-05-02T11:04:05.99Z</time></trkpt><trkpt lat="44.8378783" lon="9.293265"><ele>1040.5714285714284</ele><time>2026-05-02T11:04:07.989Z</time></trkpt><trkpt lat="44.8379083" lon="9.2931783"><ele>1044.4285714285716</ele><time>2026-05-02T11:04:11.99Z</time></trkpt><trkpt lat="44.8379467" lon="9.2930867"><ele>1048.2857142857142</ele><time>2026-05-02T11:04:14.991Z</time></trkpt><trkpt lat="44.837955" lon="9.29299"><ele>1052.142857142857</ele><time>2026-05-02T11:04:17.989Z</time></trkpt><trkpt lat="44.837955" lon="9.2928767"><ele>1056.0</ele><time>2026-05-02T11:04:20.991Z</time></trkpt><trkpt lat="44.8380317" lon="9.29286"><ele>1056.5</ele><time>2026-05-02T11:04:24.989Z</time></trkpt><trkpt lat="44.8381033" lon="9.29291"><ele>1057.0</ele><time>2026-05-02T11:04:26.99Z</time></trkpt><trkpt lat="44.8381967" lon="9.292955"><ele>1057.5</ele><time>2026-05-02T11:04:28.991Z</time></trkpt><trkpt lat="44.8382683" lon="9.2929717"><ele>1058.0</ele><time>2026-05-02T11:04:30.991Z</time></trkpt><trkpt lat="44.8383617" lon="9.293"><ele>1058.5</ele><time>2026-05-02T11:07:20.991Z</time></trkpt><trkpt lat="44.8384283" lon="9.2929967"><ele>1059.0</ele><time>2026-05-02T11:07:21.99Z</time></trkpt><trkpt lat="44.8384983" lon="9.2929883"><ele>1060.5</ele><time>2026-05-02T11:07:22.99Z</time></trkpt><trkpt lat="44.8385683" lon="9.2929767"><ele>1062.0</ele><time>2026-05-02T11:07:23.991Z</time></trkpt><trkpt lat="44.8386467" lon="9.2929583"><ele>1063.5</ele><time>2026-05-02T11:07:24.99Z</time></trkpt><trkpt lat="44.8387383" lon="9.2929367"><ele>1065.0</ele><time>2026-05-02T11:07:25.99Z</time></trkpt><trkpt lat="44.838825" lon="9.29292"><ele>1066.5</ele><time>2026-05-02T11:07:26.99Z</time></trkpt><trkpt lat="44.8389117" lon="9.2929117"><ele>1068.0</ele><time>2026-05-02T11:07:27.989Z</time></trkpt><trkpt lat="44.8390083" lon="9.2929033"><ele>1068.0</ele><time>2026-05-02T11:07:28.99Z</time></trkpt><trkpt lat="44.8391067" lon="9.2928767"><ele>1068.0</ele><time>2026-05-02T11:07:29.989Z</time></trkpt><trkpt lat="44.8391983" lon="9.2928367"><ele>1068.0</ele><time>2026-05-02T11:07:30.99Z</time></trkpt><trkpt lat="44.839275" lon="9.2928"><ele>1068.0</ele><time>2026-05-02T11:07:31.989Z</time></trkpt><trkpt lat="44.8393367" lon="9.29277"><ele>1068.0</ele><time>2026-05-02T11:07:32.99Z</time></trkpt><trkpt lat="44.8394083" lon="9.2927017"><ele>1068.0</ele><time>2026-05-02T11:07:34.99Z</time></trkpt><trkpt lat="44.8394183" lon="9.2925917"><ele>1068.7142857142858</ele><time>2026-05-02T11:07:36.99Z</time></trkpt><trkpt lat="44.8394033" lon="9.2925033"><ele>1069.4285714285716</ele><time>2026-05-02T11:07:37.989Z</time></trkpt><trkpt lat="44.8393833" lon="9.2924167"><ele>1070.142857142857</ele><time>2026-05-02T11:07:38.99Z</time></trkpt><trkpt lat="44.8393683" lon="9.292325"><ele>1070.857142857143</ele><time>2026-05-02T11:07:39.989Z</time></trkpt><trkpt lat="44.8393567" lon="9.29222"><ele>1071.5714285714284</ele><time>2026-05-02T11:07:40.99Z</time></trkpt><trkpt lat="44.839345" lon="9.2921033"><ele>1072.2857142857142</ele><time>2026-05-02T11:07:41.989Z</time></trkpt><trkpt lat="44.839325" lon="9.2919867"><ele>1073.0</ele><time>2026-05-02T11:07:42.99Z</time></trkpt><trkpt lat="44.8392983" lon="9.291875"><ele>1073.0</ele><time>2026-05-02T11:07:43.991Z</time></trkpt><trkpt lat="44.8392583" lon="9.2917633"><ele>1073.0</ele><time>2026-05-02T11:07:44.99Z</time></trkpt><trkpt lat="44.8392117" lon="9.2916467"><ele>1073.0</ele><time>2026-05-02T11:07:45.99Z</time></trkpt><trkpt lat="44.8391567" lon="9.2915267"><ele>1073.0</ele><time>2026-05-02T11:07:46.992Z</time></trkpt><trkpt lat="44.839105" lon="9.2914067"><ele>1073.0</ele><time>2026-05-02T11:07:47.99Z</time></trkpt><trkpt lat="44.8390717" lon="9.2912967"><ele>1074.2</ele><time>2026-05-02T11:07:48.99Z</time></trkpt><trkpt lat="44.8390533" lon="9.29118"><ele>1075.4</ele><time>2026-05-02T11:07:49.99Z</time></trkpt><trkpt lat="44.8390433" lon="9.29105"><ele>1076.6000000000001</ele><time>2026-05-02T11:07:50.99Z</time></trkpt><trkpt lat="44.83904" lon="9.2909083"><ele>1077.8</ele><time>2026-05-02T11:07:51.99Z</time></trkpt><trkpt lat="44.8390417" lon="9.290755"><ele>1079.0</ele><time>2026-05-02T11:07:52.99Z</time></trkpt><trkpt lat="44.83904" lon="9.2905933"><ele>1080.25</ele><time>2026-05-02T11:07:53.99Z</time></trkpt><trkpt lat="44.8390383" lon="9.2904267"><ele>1081.5</ele><time>2026-05-02T11:07:54.99Z</time></trkpt><trkpt lat="44.8390333" lon="9.2902633"><ele>1082.75</ele><time>2026-05-02T11:07:55.989Z</time></trkpt><trkpt lat="44.83902" lon="9.2900967"><ele>1084.0</ele><time>2026-05-02T11:07:56.992Z</time></trkpt><trkpt lat="44.839005" lon="9.28993"><ele>1085.75</ele><time>2026-05-02T11:07:57.99Z</time></trkpt><trkpt lat="44.8389933" lon="9.2897567"><ele>1087.5</ele><time>2026-05-02T11:07:58.99Z</time></trkpt><trkpt lat="44.8389817" lon="9.28958"><ele>1089.25</ele><time>2026-05-02T11:07:59.991Z</time></trkpt><trkpt lat="44.838975" lon="9.2893983"><ele>1091.0</ele><time>2026-05-02T11:08:00.99Z</time></trkpt><trkpt lat="44.838975" lon="9.289235"><ele>1091.0</ele><time>2026-05-02T11:08:01.99Z</time></trkpt><trkpt lat="44.8389883" lon="9.2890917"><ele>1091.0</ele><time>2026-05-02T11:08:02.991Z</time></trkpt><trkpt lat="44.839025" lon="9.2889517"><ele>1091.0</ele><time>2026-05-02T11:08:03.989Z</time></trkpt><trkpt lat="44.83908" lon="9.2888133"><ele>1091.0</ele><time>2026-05-02T11:08:04.99Z</time></trkpt><trkpt lat="44.8391367" lon="9.2886817"><ele>1091.0</ele><time>2026-05-02T11:08:05.989Z</time></trkpt><trkpt lat="44.839175" lon="9.2885567"><ele>1092.1666666666667</ele><time>2026-05-02T11:08:06.99Z</time></trkpt><trkpt lat="44.8391933" lon="9.288435"><ele>1093.3333333333335</ele><time>2026-05-02T11:08:07.99Z</time></trkpt><trkpt lat="44.8391917" lon="9.2883133"><ele>1094.5</ele><time>2026-05-02T11:08:08.991Z</time></trkpt><trkpt lat="44.8391633" lon="9.288195"><ele>1095.6666666666667</ele><time>2026-05-02T11:08:09.99Z</time></trkpt><trkpt lat="44.83913" lon="9.2880883"><ele>1096.8333333333333</ele><time>2026-05-02T11:08:10.991Z</time></trkpt><trkpt lat="44.8390683" lon="9.2879983"><ele>1098.0</ele><time>2026-05-02T11:08:11.99Z</time></trkpt><trkpt lat="44.8389983" lon="9.2879233"><ele>1098.6666666666667</ele><time>2026-05-02T11:08:12.991Z</time></trkpt><trkpt lat="44.8389183" lon="9.2878717"><ele>1099.3333333333333</ele><time>2026-05-02T11:08:13.99Z</time></trkpt><trkpt lat="44.8388333" lon="9.2878317"><ele>1100.0</ele><time>2026-05-02T11:08:14.99Z</time></trkpt><trkpt lat="44.8387533" lon="9.2877917"><ele>1100.6666666666665</ele><time>2026-05-02T11:08:15.99Z</time></trkpt><trkpt lat="44.838665" lon="9.2877783"><ele>1101.3333333333333</ele><time>2026-05-02T11:08:16.99Z</time></trkpt><trkpt lat="44.8385683" lon="9.2877833"><ele>1102.0</ele><time>2026-05-02T11:08:17.99Z</time></trkpt><trkpt lat="44.8384633" lon="9.2877967"><ele>1103.0</ele><time>2026-05-02T11:08:18.99Z</time></trkpt><trkpt lat="44.838365" lon="9.2878117"><ele>1104.0</ele><time>2026-05-02T11:08:19.991Z</time></trkpt><trkpt lat="44.83826" lon="9.2878383"><ele>1105.0</ele><time>2026-05-02T11:08:20.99Z</time></trkpt><trkpt lat="44.8381483" lon="9.2878683"><ele>1106.0</ele><time>2026-05-02T11:08:21.99Z</time></trkpt><trkpt lat="44.8380383" lon="9.2878967"><ele>1107.0</ele><time>2026-05-02T11:08:22.99Z</time></trkpt><trkpt lat="44.8379333" lon="9.287915"><ele>1107.0</ele><time>2026-05-02T11:08:23.99Z</time></trkpt><trkpt lat="44.8378267" lon="9.287955"><ele>1107.0</ele><time>2026-05-02T11:08:24.989Z</time></trkpt><trkpt lat="44.837725" lon="9.288"><ele>1107.0</ele><time>2026-05-02T11:08:25.99Z</time></trkpt><trkpt lat="44.8376283" lon="9.2880583"><ele>1107.0</ele><time>2026-05-02T11:08:26.99Z</time></trkpt><trkpt lat="44.8375283" lon="9.288105"><ele>1107.0</ele><time>2026-05-02T11:08:27.99Z</time></trkpt><trkpt lat="44.837435" lon="9.2881383"><ele>1108.2</ele><time>2026-05-02T11:08:28.988Z</time></trkpt><trkpt lat="44.83734" lon="9.288155"><ele>1109.4</ele><time>2026-05-02T11:08:29.99Z</time></trkpt><trkpt lat="44.8372467" lon="9.2881583"><ele>1110.6</ele><time>2026-05-02T11:08:30.989Z</time></trkpt><trkpt lat="44.837155" lon="9.2881417"><ele>1111.8</ele><time>2026-05-02T11:08:31.989Z</time></trkpt><trkpt lat="44.8370633" lon="9.2880983"><ele>1113.0</ele><time>2026-05-02T11:08:32.99Z</time></trkpt><trkpt lat="44.8369883" lon="9.2880483"><ele>1114.0</ele><time>2026-05-02T11:08:33.989Z</time></trkpt><trkpt lat="44.83691" lon="9.2880133"><ele>1115.0</ele><time>2026-05-02T11:08:34.989Z</time></trkpt><trkpt lat="44.8368383" lon="9.28798"><ele>1116.0</ele><time>2026-05-02T11:08:35.989Z</time></trkpt><trkpt lat="44.8367617" lon="9.2879583"><ele>1117.0</ele><time>2026-05-02T11:08:36.989Z</time></trkpt><trkpt lat="44.83669" lon="9.2879717"><ele>1118.0</ele><time>2026-05-02T11:08:37.99Z</time></trkpt><trkpt lat="44.8366117" lon="9.2880233"><ele>1119.0</ele><time>2026-05-02T11:08:38.989Z</time></trkpt><trkpt lat="44.8365283" lon="9.2880633"><ele>1121.4</ele><time>2026-05-02T11:08:39.989Z</time></trkpt><trkpt lat="44.8364333" lon="9.2880883"><ele>1123.8000000000002</ele><time>2026-05-02T11:08:40.989Z</time></trkpt><trkpt lat="44.8363367" lon="9.2880817"><ele>1126.1999999999998</ele><time>2026-05-02T11:08:41.988Z</time></trkpt><trkpt lat="44.8362567" lon="9.288045"><ele>1128.6</ele><time>2026-05-02T11:08:42.989Z</time></trkpt><trkpt lat="44.83617" lon="9.2879883"><ele>1131.0</ele><time>2026-05-02T11:08:43.99Z</time></trkpt><trkpt lat="44.836075" lon="9.2879217"><ele>1131.0</ele><time>2026-05-02T11:08:44.991Z</time></trkpt><trkpt lat="44.83598" lon="9.2878567"><ele>1131.0</ele><time>2026-05-02T11:08:45.989Z</time></trkpt><trkpt lat="44.8358783" lon="9.2877883"><ele>1131.0</ele><time>2026-05-02T11:08:46.989Z</time></trkpt><trkpt lat="44.83579" lon="9.2877083"><ele>1131.0</ele><time>2026-05-02T11:08:47.989Z</time></trkpt><trkpt lat="44.835705" lon="9.2876283"><ele>1131.0</ele><time>2026-05-02T11:08:48.989Z</time></trkpt><trkpt lat="44.8356283" lon="9.2875383"><ele>1132.2</ele><time>2026-05-02T11:08:49.991Z</time></trkpt><trkpt lat="44.83555" lon="9.2874417"><ele>1133.3999999999999</ele><time>2026-05-02T11:08:50.99Z</time></trkpt><trkpt lat="44.8354717" lon="9.2873467"><ele>1134.6</ele><time>2026-05-02T11:08:51.988Z</time></trkpt><trkpt lat="44.8353933" lon="9.2872517"><ele>1135.8</ele><time>2026-05-02T11:08:52.988Z</time></trkpt><trkpt lat="44.835315" lon="9.2871583"><ele>1137.0</ele><time>2026-05-02T11:08:53.989Z</time></trkpt><trkpt lat="44.8352417" lon="9.287065"><ele>1137.6666666666667</ele><time>2026-05-02T11:08:54.989Z</time></trkpt><trkpt lat="44.8351683" lon="9.2869717"><ele>1138.3333333333333</ele><time>2026-05-02T11:08:55.99Z</time></trkpt><trkpt lat="44.8351" lon="9.28689"><ele>1139.0</ele><time>2026-05-02T11:08:56.99Z</time></trkpt><trkpt lat="44.8350283" lon="9.2868183"><ele>1139.6666666666665</ele><time>2026-05-02T11:08:57.989Z</time></trkpt><trkpt lat="44.8349533" lon="9.2867533"><ele>1140.3333333333333</ele><time>2026-05-02T11:08:58.989Z</time></trkpt><trkpt lat="44.8348833" lon="9.28669"><ele>1141.0</ele><time>2026-05-02T11:08:59.99Z</time></trkpt><trkpt lat="44.8348117" lon="9.2866267"><ele>1141.0</ele><time>2026-05-02T11:09:00.989Z</time></trkpt><trkpt lat="44.834735" lon="9.2865683"><ele>1141.0</ele><time>2026-05-02T11:09:01.989Z</time></trkpt><trkpt lat="44.8346617" lon="9.2865017"><ele>1141.0</ele><time>2026-05-02T11:09:02.992Z</time></trkpt><trkpt lat="44.834585" lon="9.2864183"><ele>1141.0</ele><time>2026-05-02T11:09:03.99Z</time></trkpt><trkpt lat="44.8345067" lon="9.2863283"><ele>1141.0</ele><time>2026-05-02T11:09:04.989Z</time></trkpt><trkpt lat="44.8344333" lon="9.28624"><ele>1140.2</ele><time>2026-05-02T11:09:05.99Z</time></trkpt><trkpt lat="44.8343633" lon="9.2861617"><ele>1139.3999999999999</ele><time>2026-05-02T11:09:06.989Z</time></trkpt><trkpt lat="44.83429" lon="9.2861"><ele>1138.6</ele><time>2026-05-02T11:09:07.989Z</time></trkpt><trkpt lat="44.8342167" lon="9.2860317"><ele>1137.8</ele><time>2026-05-02T11:09:08.99Z</time></trkpt><trkpt lat="44.8341367" lon="9.2859567"><ele>1137.0</ele><time>2026-05-02T11:09:09.989Z</time></trkpt><trkpt lat="44.834055" lon="9.2858733"><ele>1137.0</ele><time>2026-05-02T11:09:10.989Z</time></trkpt><trkpt lat="44.83398" lon="9.2857817"><ele>1137.0</ele><time>2026-05-02T11:09:11.989Z</time></trkpt><trkpt lat="44.833905" lon="9.2856967"><ele>1137.0</ele><time>2026-05-02T11:09:12.989Z</time></trkpt><trkpt lat="44.83382" lon="9.2856217"><ele>1137.0</ele><time>2026-05-02T11:09:13.989Z</time></trkpt><trkpt lat="44.8337333" lon="9.285545"><ele>1137.0</ele><time>2026-05-02T11:09:14.989Z</time></trkpt><trkpt lat="44.83365" lon="9.28547"><ele>1136.6</ele><time>2026-05-02T11:09:15.988Z</time></trkpt><trkpt lat="44.83357" lon="9.2853967"><ele>1136.2</ele><time>2026-05-02T11:09:17Z</time></trkpt><trkpt lat="44.833485" lon="9.28533"><ele>1135.8</ele><time>2026-05-02T11:09:17.989Z</time></trkpt><trkpt lat="44.8333917" lon="9.2852717"><ele>1135.4</ele><time>2026-05-02T11:09:18.989Z</time></trkpt><trkpt lat="44.8333017" lon="9.28523"><ele>1135.0</ele><time>2026-05-02T11:09:19.988Z</time></trkpt><trkpt lat="44.83322" lon="9.2852017"><ele>1134.6666666666665</ele><time>2026-05-02T11:09:20.989Z</time></trkpt><trkpt lat="44.8331433" lon="9.2851867"><ele>1134.3333333333333</ele><time>2026-05-02T11:09:21.989Z</time></trkpt><trkpt lat="44.8330533" lon="9.2851883"><ele>1134.0</ele><time>2026-05-02T11:09:22.988Z</time></trkpt><trkpt lat="44.8329617" lon="9.28519"><ele>1133.6666666666667</ele><time>2026-05-02T11:09:23.991Z</time></trkpt><trkpt lat="44.832875" lon="9.285185"><ele>1133.3333333333335</ele><time>2026-05-02T11:09:24.99Z</time></trkpt><trkpt lat="44.8327983" lon="9.285165"><ele>1133.0</ele><time>2026-05-02T11:09:25.989Z</time></trkpt><trkpt lat="44.8327367" lon="9.2851417"><ele>1134.0</ele><time>2026-05-02T11:09:26.99Z</time></trkpt><trkpt lat="44.8326217" lon="9.2851233"><ele>1135.0</ele><time>2026-05-02T11:09:28.989Z</time></trkpt><trkpt lat="44.8325517" lon="9.2851167"><ele>1136.0</ele><time>2026-05-02T11:09:29.989Z</time></trkpt><trkpt lat="44.83248" lon="9.2851117"><ele>1137.0</ele><time>2026-05-02T11:09:30.989Z</time></trkpt><trkpt lat="44.832405" lon="9.2851167"><ele>1138.0</ele><time>2026-05-02T11:09:31.989Z</time></trkpt><trkpt lat="44.832335" lon="9.2851133"><ele>1139.0</ele><time>2026-05-02T11:09:32.99Z</time></trkpt><trkpt lat="44.8322067" lon="9.2851033"><ele>1139.0</ele><time>2026-05-02T11:09:34.989Z</time></trkpt><trkpt lat="44.8321383" lon="9.2851"><ele>1139.0</ele><time>2026-05-02T11:09:35.99Z</time></trkpt><trkpt lat="44.8320683" lon="9.2850917"><ele>1139.0</ele><time>2026-05-02T11:09:36.989Z</time></trkpt><trkpt lat="44.83198" lon="9.2850867"><ele>1139.0</ele><time>2026-05-02T11:09:37.99Z</time></trkpt><trkpt lat="44.8318883" lon="9.2850867"><ele>1139.0</ele><time>2026-05-02T11:09:38.99Z</time></trkpt><trkpt lat="44.831795" lon="9.28507"><ele>1139.0</ele><time>2026-05-02T11:09:39.99Z</time></trkpt><trkpt lat="44.831705" lon="9.2850567"><ele>1140.3333333333335</ele><time>2026-05-02T11:09:40.989Z</time></trkpt><trkpt lat="44.8316167" lon="9.28505"><ele>1141.6666666666667</ele><time>2026-05-02T11:09:41.99Z</time></trkpt><trkpt lat="44.8315317" lon="9.2850517"><ele>1143.0</ele><time>2026-05-02T11:09:42.99Z</time></trkpt><trkpt lat="44.831445" lon="9.2850667"><ele>1144.3333333333333</ele><time>2026-05-02T11:09:43.99Z</time></trkpt><trkpt lat="44.8313617" lon="9.2850733"><ele>1145.6666666666665</ele><time>2026-05-02T11:09:44.99Z</time></trkpt><trkpt lat="44.8312767" lon="9.2850867"><ele>1147.0</ele><time>2026-05-02T11:09:45.989Z</time></trkpt><trkpt lat="44.8312033" lon="9.28508"><ele>1147.0</ele><time>2026-05-02T11:09:46.989Z</time></trkpt><trkpt lat="44.8311383" lon="9.2850567"><ele>1147.0</ele><time>2026-05-02T11:09:47.99Z</time></trkpt><trkpt lat="44.8310667" lon="9.2850433"><ele>1147.0</ele><time>2026-05-02T11:09:48.989Z</time></trkpt><trkpt lat="44.830975" lon="9.285025"><ele>1147.0</ele><time>2026-05-02T11:09:49.989Z</time></trkpt><trkpt lat="44.8308817" lon="9.2849933"><ele>1147.0</ele><time>2026-05-02T11:09:50.99Z</time></trkpt><trkpt lat="44.8307883" lon="9.2849683"><ele>1147.0</ele><time>2026-05-02T11:09:51.989Z</time></trkpt><trkpt lat="44.8307017" lon="9.2849383"><ele>1147.6</ele><time>2026-05-02T11:09:52.989Z</time></trkpt><trkpt lat="44.830605" lon="9.2849183"><ele>1148.2</ele><time>2026-05-02T11:09:53.989Z</time></trkpt><trkpt lat="44.8305133" lon="9.28491"><ele>1148.8</ele><time>2026-05-02T11:09:54.99Z</time></trkpt><trkpt lat="44.83042" lon="9.2849133"><ele>1149.4</ele><time>2026-05-02T11:09:55.989Z</time></trkpt><trkpt lat="44.830325" lon="9.2849167"><ele>1150.0</ele><time>2026-05-02T11:09:56.99Z</time></trkpt><trkpt lat="44.8302383" lon="9.28493"><ele>1150.0</ele><time>2026-05-02T11:09:57.99Z</time></trkpt><trkpt lat="44.8301467" lon="9.2849483"><ele>1150.0</ele><time>2026-05-02T11:09:58.991Z</time></trkpt><trkpt lat="44.83006" lon="9.2849733"><ele>1150.0</ele><time>2026-05-02T11:09:59.99Z</time></trkpt><trkpt lat="44.829975" lon="9.2850017"><ele>1150.0</ele><time>2026-05-02T11:10:00.989Z</time></trkpt><trkpt lat="44.8298883" lon="9.2850317"><ele>1150.0</ele><time>2026-05-02T11:10:01.99Z</time></trkpt><trkpt lat="44.8297883" lon="9.2850583"><ele>1151.0</ele><time>2026-05-02T11:10:02.991Z</time></trkpt><trkpt lat="44.8296817" lon="9.2850967"><ele>1152.0</ele><time>2026-05-02T11:10:03.989Z</time></trkpt><trkpt lat="44.82958" lon="9.28512"><ele>1153.0</ele><time>2026-05-02T11:10:04.992Z</time></trkpt><trkpt lat="44.829485" lon="9.2851467"><ele>1154.0</ele><time>2026-05-02T11:10:05.989Z</time></trkpt><trkpt lat="44.8293983" lon="9.2851833"><ele>1155.0</ele><time>2026-05-02T11:10:06.99Z</time></trkpt><trkpt lat="44.829315" lon="9.2852333"><ele>1155.5</ele><time>2026-05-02T11:10:07.989Z</time></trkpt><trkpt lat="44.8292383" lon="9.28529"><ele>1156.0</ele><time>2026-05-02T11:10:08.99Z</time></trkpt><trkpt lat="44.8291733" lon="9.285355"><ele>1156.5</ele><time>2026-05-02T11:10:09.989Z</time></trkpt><trkpt lat="44.8291" lon="9.2854167"><ele>1157.0</ele><time>2026-05-02T11:10:10.989Z</time></trkpt><trkpt lat="44.8290217" lon="9.2854867"><ele>1157.5</ele><time>2026-05-02T11:10:11.991Z</time></trkpt><trkpt lat="44.8289483" lon="9.2855583"><ele>1158.0</ele><time>2026-05-02T11:10:12.989Z</time></trkpt><trkpt lat="44.8288683" lon="9.2856183"><ele>1158.6</ele><time>2026-05-02T11:10:13.989Z</time></trkpt><trkpt lat="44.828785" lon="9.2856767"><ele>1159.1999999999998</ele><time>2026-05-02T11:10:14.99Z</time></trkpt><trkpt lat="44.8287" lon="9.2857433"><ele>1159.8</ele><time>2026-05-02T11:10:15.989Z</time></trkpt><trkpt lat="44.8286133" lon="9.285825"><ele>1160.3999999999999</ele><time>2026-05-02T11:10:16.989Z</time></trkpt><trkpt lat="44.828535" lon="9.2859"><ele>1161.0</ele><time>2026-05-02T11:10:17.989Z</time></trkpt><trkpt lat="44.8284617" lon="9.2859667"><ele>1162.3333333333333</ele><time>2026-05-02T11:10:18.99Z</time></trkpt><trkpt lat="44.82839" lon="9.2860217"><ele>1163.6666666666667</ele><time>2026-05-02T11:10:19.989Z</time></trkpt><trkpt lat="44.8283267" lon="9.286065"><ele>1165.0</ele><time>2026-05-02T11:10:20.989Z</time></trkpt><trkpt lat="44.8282583" lon="9.2860983"><ele>1166.3333333333335</ele><time>2026-05-02T11:10:21.989Z</time></trkpt><trkpt lat="44.828195" lon="9.286125"><ele>1167.6666666666667</ele><time>2026-05-02T11:10:22.99Z</time></trkpt><trkpt lat="44.828075" lon="9.286155"><ele>1169.0</ele><time>2026-05-02T11:10:24.99Z</time></trkpt><trkpt lat="44.82801" lon="9.2861617"><ele>1169.0</ele><time>2026-05-02T11:10:25.989Z</time></trkpt><trkpt lat="44.827935" lon="9.28616"><ele>1169.0</ele><time>2026-05-02T11:10:26.99Z</time></trkpt><trkpt lat="44.8278667" lon="9.2861517"><ele>1169.0</ele><time>2026-05-02T11:10:27.989Z</time></trkpt><trkpt lat="44.8278033" lon="9.2861467"><ele>1169.0</ele><time>2026-05-02T11:10:28.989Z</time></trkpt><trkpt lat="44.827725" lon="9.2861433"><ele>1169.0</ele><time>2026-05-02T11:10:29.99Z</time></trkpt><trkpt lat="44.8276483" lon="9.28615"><ele>1169.0</ele><time>2026-05-02T11:10:30.989Z</time></trkpt><trkpt lat="44.8275633" lon="9.2861667"><ele>1169.0</ele><time>2026-05-02T11:10:31.99Z</time></trkpt><trkpt lat="44.8274767" lon="9.2861933"><ele>1169.0</ele><time>2026-05-02T11:10:32.991Z</time></trkpt><trkpt lat="44.8273817" lon="9.286235"><ele>1169.0</ele><time>2026-05-02T11:10:33.99Z</time></trkpt><trkpt lat="44.8272933" lon="9.2862717"><ele>1169.0</ele><time>2026-05-02T11:10:34.99Z</time></trkpt><trkpt lat="44.8272117" lon="9.28632"><ele>1169.0</ele><time>2026-05-02T11:10:35.991Z</time></trkpt><trkpt lat="44.8271267" lon="9.286375"><ele>1169.0</ele><time>2026-05-02T11:10:36.989Z</time></trkpt><trkpt lat="44.8270483" lon="9.2864217"><ele>1169.6666666666667</ele><time>2026-05-02T11:10:37.989Z</time></trkpt><trkpt lat="44.8269717" lon="9.2864733"><ele>1170.3333333333335</ele><time>2026-05-02T11:10:38.99Z</time></trkpt><trkpt lat="44.8269033" lon="9.28653"><ele>1171.0</ele><time>2026-05-02T11:10:39.99Z</time></trkpt><trkpt lat="44.8268283" lon="9.286585"><ele>1171.6666666666667</ele><time>2026-05-02T11:10:40.989Z</time></trkpt><trkpt lat="44.8267617" lon="9.2866267"><ele>1172.3333333333333</ele><time>2026-05-02T11:10:41.99Z</time></trkpt><trkpt lat="44.82669" lon="9.2866583"><ele>1173.0</ele><time>2026-05-02T11:10:42.989Z</time></trkpt><trkpt lat="44.8266133" lon="9.28666"><ele>1171.4</ele><time>2026-05-02T11:10:43.989Z</time></trkpt><trkpt lat="44.8265267" lon="9.2866633"><ele>1169.8</ele><time>2026-05-02T11:10:44.989Z</time></trkpt><trkpt lat="44.8264317" lon="9.2866667"><ele>1168.2</ele><time>2026-05-02T11:10:45.989Z</time></trkpt><trkpt lat="44.8263367" lon="9.2866633"><ele>1166.6</ele><time>2026-05-02T11:10:46.989Z</time></trkpt><trkpt lat="44.8262417" lon="9.2866817"><ele>1165.0</ele><time>2026-05-02T11:10:47.989Z</time></trkpt><trkpt lat="44.8261383" lon="9.2867167"><ele>1165.0</ele><time>2026-05-02T11:10:48.989Z</time></trkpt><trkpt lat="44.8260617" lon="9.286775"><ele>1165.0</ele><time>2026-05-02T11:10:49.99Z</time></trkpt><trkpt lat="44.8259917" lon="9.28685"><ele>1165.0</ele><time>2026-05-02T11:10:50.989Z</time></trkpt><trkpt lat="44.825925" lon="9.2869417"><ele>1165.0</ele><time>2026-05-02T11:10:51.989Z</time></trkpt><trkpt lat="44.825865" lon="9.2870333"><ele>1165.0</ele><time>2026-05-02T11:10:52.99Z</time></trkpt><trkpt lat="44.8258083" lon="9.2871533"><ele>1163.4</ele><time>2026-05-02T11:10:53.99Z</time></trkpt><trkpt lat="44.82574" lon="9.2872683"><ele>1161.8</ele><time>2026-05-02T11:10:54.989Z</time></trkpt><trkpt lat="44.82567" lon="9.28739"><ele>1160.2</ele><time>2026-05-02T11:10:55.989Z</time></trkpt><trkpt lat="44.8256033" lon="9.2875083"><ele>1158.6</ele><time>2026-05-02T11:10:56.99Z</time></trkpt><trkpt lat="44.825545" lon="9.2876217"><ele>1157.0</ele><time>2026-05-02T11:10:57.991Z</time></trkpt><trkpt lat="44.8254933" lon="9.2877133"><ele>1157.0</ele><time>2026-05-02T11:10:58.99Z</time></trkpt><trkpt lat="44.825445" lon="9.2878233"><ele>1157.0</ele><time>2026-05-02T11:10:59.989Z</time></trkpt><trkpt lat="44.8254" lon="9.2879233"><ele>1157.0</ele><time>2026-05-02T11:11:00.99Z</time></trkpt><trkpt lat="44.82536" lon="9.2880283"><ele>1157.0</ele><time>2026-05-02T11:11:01.99Z</time></trkpt><trkpt lat="44.82533" lon="9.28812"><ele>1157.0</ele><time>2026-05-02T11:11:02.992Z</time></trkpt><trkpt lat="44.8252917" lon="9.2882117"><ele>1157.0</ele><time>2026-05-02T11:11:03.989Z</time></trkpt><trkpt lat="44.82525" lon="9.28829"><ele>1158.8333333333335</ele><time>2026-05-02T11:11:04.991Z</time></trkpt><trkpt lat="44.8251867" lon="9.2883683"><ele>1160.6666666666667</ele><time>2026-05-02T11:11:05.99Z</time></trkpt><trkpt lat="44.8251017" lon="9.2884267"><ele>1162.5</ele><time>2026-05-02T11:11:06.989Z</time></trkpt><trkpt lat="44.82501" lon="9.2884733"><ele>1164.3333333333333</ele><time>2026-05-02T11:11:07.989Z</time></trkpt><trkpt lat="44.8249283" lon="9.2885333"><ele>1166.1666666666665</ele><time>2026-05-02T11:11:08.99Z</time></trkpt><trkpt lat="44.8248733" lon="9.288615"><ele>1168.0</ele><time>2026-05-02T11:11:09.989Z</time></trkpt><trkpt lat="44.8248167" lon="9.2887117"><ele>1168.0</ele><time>2026-05-02T11:11:10.99Z</time></trkpt><trkpt lat="44.8247717" lon="9.2888117"><ele>1168.0</ele><time>2026-05-02T11:11:11.99Z</time></trkpt><trkpt lat="44.8247183" lon="9.2889083"><ele>1168.0</ele><time>2026-05-02T11:11:12.99Z</time></trkpt><trkpt lat="44.8246667" lon="9.2889733"><ele>1168.0</ele><time>2026-05-02T11:11:13.99Z</time></trkpt><trkpt lat="44.824625" lon="9.2890617"><ele>1168.0</ele><time>2026-05-02T11:11:14.99Z</time></trkpt><trkpt lat="44.8245867" lon="9.289185"><ele>1168.0</ele><time>2026-05-02T11:11:15.993Z</time></trkpt><trkpt lat="44.8245517" lon="9.2892933"><ele>1164.5</ele><time>2026-05-02T11:11:16.989Z</time></trkpt><trkpt lat="44.8245217" lon="9.2894033"><ele>1161.0</ele><time>2026-05-02T11:11:17.99Z</time></trkpt><trkpt lat="44.82449" lon="9.28951"><ele>1157.5</ele><time>2026-05-02T11:11:18.989Z</time></trkpt><trkpt lat="44.8244583" lon="9.2896267"><ele>1154.0</ele><time>2026-05-02T11:11:19.989Z</time></trkpt><trkpt lat="44.8244317" lon="9.28975"><ele>1150.5</ele><time>2026-05-02T11:11:20.99Z</time></trkpt><trkpt lat="44.8244017" lon="9.2898583"><ele>1147.0</ele><time>2026-05-02T11:11:21.989Z</time></trkpt><trkpt lat="44.8243783" lon="9.2899617"><ele>1149.0</ele><time>2026-05-02T11:11:22.99Z</time></trkpt><trkpt lat="44.82435" lon="9.2900617"><ele>1151.0</ele><time>2026-05-02T11:11:23.991Z</time></trkpt><trkpt lat="44.8243167" lon="9.2901567"><ele>1153.0</ele><time>2026-05-02T11:11:24.99Z</time></trkpt><trkpt lat="44.8242683" lon="9.2902833"><ele>1155.0</ele><time>2026-05-02T11:11:25.99Z</time></trkpt><trkpt lat="44.8242233" lon="9.2904133"><ele>1157.0</ele><time>2026-05-02T11:11:26.989Z</time></trkpt><trkpt lat="44.8241717" lon="9.29055"><ele>1155.0</ele><time>2026-05-02T11:11:27.989Z</time></trkpt><trkpt lat="44.8241167" lon="9.2906967"><ele>1153.0</ele><time>2026-05-02T11:11:28.99Z</time></trkpt><trkpt lat="44.82407" lon="9.2908367"><ele>1151.0</ele><time>2026-05-02T11:11:29.989Z</time></trkpt><trkpt lat="44.8240233" lon="9.29096"><ele>1149.0</ele><time>2026-05-02T11:11:30.99Z</time></trkpt><trkpt lat="44.8239717" lon="9.291085"><ele>1147.0</ele><time>2026-05-02T11:11:31.989Z</time></trkpt><trkpt lat="44.8239317" lon="9.2912"><ele>1147.0</ele><time>2026-05-02T11:11:32.99Z</time></trkpt><trkpt lat="44.8238867" lon="9.2912967"><ele>1147.0</ele><time>2026-05-02T11:11:33.989Z</time></trkpt><trkpt lat="44.82384" lon="9.2913883"><ele>1147.0</ele><time>2026-05-02T11:11:34.989Z</time></trkpt><trkpt lat="44.82377" lon="9.2915083"><ele>1147.0</ele><time>2026-05-02T11:11:36.99Z</time></trkpt><trkpt lat="44.8236933" lon="9.2915667"><ele>1147.0</ele><time>2026-05-02T11:11:38.99Z</time></trkpt><trkpt lat="44.8236167" lon="9.2916333"><ele>1147.0</ele><time>2026-05-02T11:11:40.99Z</time></trkpt><trkpt lat="44.8235433" lon="9.2916567"><ele>1147.6666666666665</ele><time>2026-05-02T11:11:42.991Z</time></trkpt><trkpt lat="44.823455" lon="9.29165"><ele>1148.3333333333333</ele><time>2026-05-02T11:11:45.989Z</time></trkpt><trkpt lat="44.8233933" lon="9.291615"><ele>1149.0</ele><time>2026-05-02T11:11:47.99Z</time></trkpt><trkpt lat="44.823335" lon="9.2915033"><ele>1149.6666666666667</ele><time>2026-05-02T11:11:49.99Z</time></trkpt><trkpt lat="44.8232967" lon="9.2914317"><ele>1150.3333333333335</ele><time>2026-05-02T11:11:50.99Z</time></trkpt><trkpt lat="44.8232533" lon="9.2913467"><ele>1151.0</ele><time>2026-05-02T11:11:51.99Z</time></trkpt><trkpt lat="44.8232133" lon="9.2912433"><ele>1151.0</ele><time>2026-05-02T11:11:52.99Z</time></trkpt><trkpt lat="44.823175" lon="9.29114"><ele>1151.0</ele><time>2026-05-02T11:11:53.991Z</time></trkpt><trkpt lat="44.8231267" lon="9.2910467"><ele>1151.0</ele><time>2026-05-02T11:11:54.991Z</time></trkpt><trkpt lat="44.8230733" lon="9.2909517"><ele>1151.0</ele><time>2026-05-02T11:11:55.99Z</time></trkpt><trkpt lat="44.8230067" lon="9.2908583"><ele>1151.0</ele><time>2026-05-02T11:11:56.991Z</time></trkpt><trkpt lat="44.8229267" lon="9.2907467"><ele>1151.0</ele><time>2026-05-02T11:11:57.989Z</time></trkpt><trkpt lat="44.8228467" lon="9.2906333"><ele>1151.0</ele><time>2026-05-02T11:11:58.99Z</time></trkpt><trkpt lat="44.8227683" lon="9.2905467"><ele>1151.0</ele><time>2026-05-02T11:11:59.99Z</time></trkpt><trkpt lat="44.82269" lon="9.2904567"><ele>1151.0</ele><time>2026-05-02T11:12:00.99Z</time></trkpt><trkpt lat="44.8226167" lon="9.290375"><ele>1151.0</ele><time>2026-05-02T11:12:01.99Z</time></trkpt><trkpt lat="44.8225583" lon="9.2903133"><ele>1150.3333333333335</ele><time>2026-05-02T11:12:02.991Z</time></trkpt><trkpt lat="44.8224683" lon="9.2902233"><ele>1149.6666666666667</ele><time>2026-05-02T11:12:04.99Z</time></trkpt><trkpt lat="44.8223533" lon="9.2902083"><ele>1149.0</ele><time>2026-05-02T11:12:06.99Z</time></trkpt><trkpt lat="44.8222833" lon="9.2902183"><ele>1148.3333333333333</ele><time>2026-05-02T11:12:07.99Z</time></trkpt><trkpt lat="44.8222183" lon="9.290245"><ele>1147.6666666666665</ele><time>2026-05-02T11:12:08.991Z</time></trkpt><trkpt lat="44.8221417" lon="9.2902883"><ele>1147.0</ele><time>2026-05-02T11:12:09.99Z</time></trkpt><trkpt lat="44.8220617" lon="9.290335"><ele>1147.0</ele><time>2026-05-02T11:12:10.99Z</time></trkpt><trkpt lat="44.8219833" lon="9.290385"><ele>1147.0</ele><time>2026-05-02T11:12:11.99Z</time></trkpt><trkpt lat="44.8219" lon="9.2904217"><ele>1147.0</ele><time>2026-05-02T11:12:12.99Z</time></trkpt><trkpt lat="44.8218183" lon="9.2904683"><ele>1147.0</ele><time>2026-05-02T11:12:13.99Z</time></trkpt><trkpt lat="44.8217333" lon="9.2904933"><ele>1147.0</ele><time>2026-05-02T11:12:14.991Z</time></trkpt><trkpt lat="44.8216433" lon="9.2905267"><ele>1147.0</ele><time>2026-05-02T11:12:15.989Z</time></trkpt><trkpt lat="44.82156" lon="9.2905717"><ele>1143.8</ele><time>2026-05-02T11:12:16.99Z</time></trkpt><trkpt lat="44.821475" lon="9.2906233"><ele>1140.6</ele><time>2026-05-02T11:12:17.99Z</time></trkpt><trkpt lat="44.8213917" lon="9.29068"><ele>1137.3999999999999</ele><time>2026-05-02T11:12:18.99Z</time></trkpt><trkpt lat="44.8213033" lon="9.2907533"><ele>1134.2</ele><time>2026-05-02T11:12:19.99Z</time></trkpt><trkpt lat="44.82122" lon="9.290835"><ele>1131.0</ele><time>2026-05-02T11:12:20.99Z</time></trkpt><trkpt lat="44.821135" lon="9.2909167"><ele>1131.0</ele><time>2026-05-02T11:12:21.99Z</time></trkpt><trkpt lat="44.8210567" lon="9.2910017"><ele>1131.0</ele><time>2026-05-02T11:12:22.99Z</time></trkpt><trkpt lat="44.82098" lon="9.2910817"><ele>1131.0</ele><time>2026-05-02T11:12:23.991Z</time></trkpt><trkpt lat="44.8209017" lon="9.2911567"><ele>1131.0</ele><time>2026-05-02T11:12:24.991Z</time></trkpt><trkpt lat="44.82082" lon="9.29123"><ele>1131.0</ele><time>2026-05-02T11:12:25.99Z</time></trkpt><trkpt lat="44.8207317" lon="9.2913067"><ele>1130.8</ele><time>2026-05-02T11:12:26.99Z</time></trkpt><trkpt lat="44.8206433" lon="9.29138"><ele>1130.6</ele><time>2026-05-02T11:12:27.989Z</time></trkpt><trkpt lat="44.8205517" lon="9.291445"><ele>1130.4</ele><time>2026-05-02T11:12:28.99Z</time></trkpt><trkpt lat="44.820455" lon="9.291495"><ele>1130.2</ele><time>2026-05-02T11:12:29.991Z</time></trkpt><trkpt lat="44.8203567" lon="9.2915567"><ele>1130.0</ele><time>2026-05-02T11:12:30.99Z</time></trkpt><trkpt lat="44.8202617" lon="9.291625"><ele>1130.0</ele><time>2026-05-02T11:12:31.99Z</time></trkpt><trkpt lat="44.8201783" lon="9.2917133"><ele>1130.0</ele><time>2026-05-02T11:12:32.99Z</time></trkpt><trkpt lat="44.8201033" lon="9.291815"><ele>1130.0</ele><time>2026-05-02T11:12:33.99Z</time></trkpt><trkpt lat="44.8200283" lon="9.291905"><ele>1130.0</ele><time>2026-05-02T11:12:34.99Z</time></trkpt><trkpt lat="44.8199467" lon="9.2919883"><ele>1130.0</ele><time>2026-05-02T11:12:35.99Z</time></trkpt><trkpt lat="44.81987" lon="9.2920483"><ele>1129.8</ele><time>2026-05-02T11:12:36.989Z</time></trkpt><trkpt lat="44.8197883" lon="9.292095"><ele>1129.6</ele><time>2026-05-02T11:12:37.99Z</time></trkpt><trkpt lat="44.8197033" lon="9.2921483"><ele>1129.4</ele><time>2026-05-02T11:12:38.99Z</time></trkpt><trkpt lat="44.8196183" lon="9.2922217"><ele>1129.2</ele><time>2026-05-02T11:12:39.99Z</time></trkpt><trkpt lat="44.8195317" lon="9.29231"><ele>1129.0</ele><time>2026-05-02T11:12:40.99Z</time></trkpt><trkpt lat="44.8194433" lon="9.292405"><ele>1129.75</ele><time>2026-05-02T11:12:41.99Z</time></trkpt><trkpt lat="44.81935" lon="9.2925117"><ele>1130.5</ele><time>2026-05-02T11:12:42.989Z</time></trkpt><trkpt lat="44.8192633" lon="9.2926183"><ele>1131.25</ele><time>2026-05-02T11:12:43.989Z</time></trkpt><trkpt lat="44.8191783" lon="9.2927283"><ele>1132.0</ele><time>2026-05-02T11:12:44.99Z</time></trkpt><trkpt lat="44.8190967" lon="9.2928367"><ele>1132.6</ele><time>2026-05-02T11:12:45.99Z</time></trkpt><trkpt lat="44.8190267" lon="9.2929433"><ele>1133.2</ele><time>2026-05-02T11:12:46.991Z</time></trkpt><trkpt lat="44.8189667" lon="9.2930467"><ele>1133.8</ele><time>2026-05-02T11:12:47.99Z</time></trkpt><trkpt lat="44.8189083" lon="9.2931517"><ele>1134.4</ele><time>2026-05-02T11:12:48.99Z</time></trkpt><trkpt lat="44.81885" lon="9.2932583"><ele>1135.0</ele><time>2026-05-02T11:12:49.991Z</time></trkpt><trkpt lat="44.8187983" lon="9.2933683"><ele>1136.4</ele><time>2026-05-02T11:12:50.991Z</time></trkpt><trkpt lat="44.8187583" lon="9.2934683"><ele>1137.8</ele><time>2026-05-02T11:12:51.992Z</time></trkpt><trkpt lat="44.818715" lon="9.2935767"><ele>1139.2</ele><time>2026-05-02T11:12:52.99Z</time></trkpt><trkpt lat="44.81867" lon="9.2936867"><ele>1140.6</ele><time>2026-05-02T11:12:53.99Z</time></trkpt><trkpt lat="44.8186183" lon="9.2938"><ele>1142.0</ele><time>2026-05-02T11:12:54.99Z</time></trkpt><trkpt lat="44.8185583" lon="9.2939133"><ele>1142.2</ele><time>2026-05-02T11:12:55.993Z</time></trkpt><trkpt lat="44.8184933" lon="9.2940233"><ele>1142.4</ele><time>2026-05-02T11:12:56.992Z</time></trkpt><trkpt lat="44.8184233" lon="9.294125"><ele>1142.6</ele><time>2026-05-02T11:12:57.991Z</time></trkpt><trkpt lat="44.8183433" lon="9.2942217"><ele>1142.8</ele><time>2026-05-02T11:12:58.99Z</time></trkpt><trkpt lat="44.8182517" lon="9.2943217"><ele>1143.0</ele><time>2026-05-02T11:12:59.99Z</time></trkpt><trkpt lat="44.8181567" lon="9.2944333"><ele>1143.0</ele><time>2026-05-02T11:13:00.991Z</time></trkpt><trkpt lat="44.8180517" lon="9.2945517"><ele>1143.0</ele><time>2026-05-02T11:13:01.99Z</time></trkpt><trkpt lat="44.81795" lon="9.29467"><ele>1143.0</ele><time>2026-05-02T11:13:02.99Z</time></trkpt><trkpt lat="44.817855" lon="9.2947917"><ele>1143.0</ele><time>2026-05-02T11:13:03.99Z</time></trkpt><trkpt lat="44.81777" lon="9.29491"><ele>1143.2</ele><time>2026-05-02T11:13:04.99Z</time></trkpt><trkpt lat="44.817685" lon="9.29502"><ele>1143.4</ele><time>2026-05-02T11:13:05.991Z</time></trkpt><trkpt lat="44.8176" lon="9.2951233"><ele>1143.6000000000001</ele><time>2026-05-02T11:13:06.993Z</time></trkpt><trkpt lat="44.8175167" lon="9.2952217"><ele>1143.8</ele><time>2026-05-02T11:13:07.992Z</time></trkpt><trkpt lat="44.81744" lon="9.295315"><ele>1144.0</ele><time>2026-05-02T11:13:08.993Z</time></trkpt><trkpt lat="44.8173683" lon="9.2954133"><ele>1144.0</ele><time>2026-05-02T11:13:09.991Z</time></trkpt><trkpt lat="44.81729" lon="9.2955067"><ele>1144.0</ele><time>2026-05-02T11:13:10.991Z</time></trkpt><trkpt lat="44.81721" lon="9.2956067"><ele>1144.0</ele><time>2026-05-02T11:13:11.991Z</time></trkpt><trkpt lat="44.817125" lon="9.2957117"><ele>1144.0</ele><time>2026-05-02T11:13:12.992Z</time></trkpt><trkpt lat="44.8170383" lon="9.295805"><ele>1144.0</ele><time>2026-05-02T11:13:13.993Z</time></trkpt><trkpt lat="44.816955" lon="9.295895"><ele>1144.2</ele><time>2026-05-02T11:13:14.992Z</time></trkpt><trkpt lat="44.8168767" lon="9.2959917"><ele>1144.4</ele><time>2026-05-02T11:13:15.991Z</time></trkpt><trkpt lat="44.8167933" lon="9.2960817"><ele>1144.6</ele><time>2026-05-02T11:13:16.99Z</time></trkpt><trkpt lat="44.81671" lon="9.2961733"><ele>1144.8</ele><time>2026-05-02T11:13:17.989Z</time></trkpt><trkpt lat="44.8166167" lon="9.2962683"><ele>1145.0</ele><time>2026-05-02T11:13:18.991Z</time></trkpt><trkpt lat="44.8165217" lon="9.2963683"><ele>1145.0</ele><time>2026-05-02T11:13:19.99Z</time></trkpt><trkpt lat="44.8164383" lon="9.2964617"><ele>1145.0</ele><time>2026-05-02T11:13:20.99Z</time></trkpt><trkpt lat="44.816365" lon="9.29654"><ele>1145.0</ele><time>2026-05-02T11:13:21.99Z</time></trkpt><trkpt lat="44.8163017" lon="9.2966067"><ele>1145.0</ele><time>2026-05-02T11:13:22.99Z</time></trkpt><trkpt lat="44.8162417" lon="9.2966717"><ele>1145.0</ele><time>2026-05-02T11:13:23.99Z</time></trkpt><trkpt lat="44.816185" lon="9.2967367"><ele>1145.0</ele><time>2026-05-02T11:13:24.991Z</time></trkpt><trkpt lat="44.816125" lon="9.2968"><ele>1145.0</ele><time>2026-05-02T11:13:25.989Z</time></trkpt><trkpt lat="44.8160683" lon="9.2968667"><ele>1145.0</ele><time>2026-05-02T11:13:26.991Z</time></trkpt><trkpt lat="44.8160183" lon="9.296925"><ele>1145.0</ele><time>2026-05-02T11:13:27.99Z</time></trkpt><trkpt lat="44.8159483" lon="9.297015"><ele>1145.0</ele><time>2026-05-02T11:13:29.991Z</time></trkpt><trkpt lat="44.8159167" lon="9.2971483"><ele>1145.0</ele><time>2026-05-02T11:14:20.991Z</time></trkpt><trkpt lat="44.815895" lon="9.2972633"><ele>1145.0</ele><time>2026-05-02T11:14:24.989Z</time></trkpt><trkpt lat="44.8158567" lon="9.2973567"><ele>1145.5</ele><time>2026-05-02T11:14:28.991Z</time></trkpt><trkpt lat="44.8158483" lon="9.2974767"><ele>1146.0</ele><time>2026-05-02T11:14:30.992Z</time></trkpt><trkpt lat="44.815835" lon="9.297645"><ele>1146.5</ele><time>2026-05-02T11:14:32.99Z</time></trkpt><trkpt lat="44.8158167" lon="9.2977483"><ele>1147.0</ele><time>2026-05-02T11:14:33.99Z</time></trkpt><trkpt lat="44.8157867" lon="9.2978567"><ele>1147.5</ele><time>2026-05-02T11:14:34.991Z</time></trkpt><trkpt lat="44.8157533" lon="9.29796"><ele>1148.0</ele><time>2026-05-02T11:14:35.991Z</time></trkpt><trkpt lat="44.8157183" lon="9.2981083"><ele>1148.0</ele><time>2026-05-02T11:14:37.99Z</time></trkpt><trkpt lat="44.815685" lon="9.2982417"><ele>1148.0</ele><time>2026-05-02T11:14:39.99Z</time></trkpt><trkpt lat="44.8156433" lon="9.2983917"><ele>1148.0</ele><time>2026-05-02T11:14:41.99Z</time></trkpt><trkpt lat="44.8156167" lon="9.2984783"><ele>1148.0</ele><time>2026-05-02T11:14:42.991Z</time></trkpt><trkpt lat="44.8155817" lon="9.2985683"><ele>1148.0</ele><time>2026-05-02T11:14:43.99Z</time></trkpt><trkpt lat="44.815515" lon="9.2987067"><ele>1148.0</ele><time>2026-05-02T11:14:45.99Z</time></trkpt><trkpt lat="44.815445" lon="9.2988333"><ele>1148.0</ele><time>2026-05-02T11:14:47.99Z</time></trkpt><trkpt lat="44.8153867" lon="9.298975"><ele>1148.0</ele><time>2026-05-02T11:14:49.99Z</time></trkpt><trkpt lat="44.81536" lon="9.2990617"><ele>1148.0</ele><time>2026-05-02T11:14:50.991Z</time></trkpt><trkpt lat="44.81533" lon="9.2992083"><ele>1148.0</ele><time>2026-05-02T11:14:52.99Z</time></trkpt><trkpt lat="44.8153317" lon="9.2993817"><ele>1147.0</ele><time>2026-05-02T11:14:54.99Z</time></trkpt><trkpt lat="44.8153583" lon="9.299565"><ele>1146.0</ele><time>2026-05-02T11:14:56.991Z</time></trkpt><trkpt lat="44.8153633" lon="9.2996667"><ele>1145.0</ele><time>2026-05-02T11:14:57.99Z</time></trkpt><trkpt lat="44.8153817" lon="9.29977"><ele>1144.0</ele><time>2026-05-02T11:14:58.99Z</time></trkpt><trkpt lat="44.8153967" lon="9.2998633"><ele>1143.0</ele><time>2026-05-02T11:14:59.99Z</time></trkpt><trkpt lat="44.815395" lon="9.29996"><ele>1142.0</ele><time>2026-05-02T11:15:00.99Z</time></trkpt><trkpt lat="44.8153933" lon="9.3000767"><ele>1141.1666666666667</ele><time>2026-05-02T11:15:01.991Z</time></trkpt><trkpt lat="44.8153867" lon="9.3002"><ele>1140.3333333333335</ele><time>2026-05-02T11:15:02.991Z</time></trkpt><trkpt lat="44.8153917" lon="9.30031"><ele>1139.5</ele><time>2026-05-02T11:15:03.99Z</time></trkpt><trkpt lat="44.8153917" lon="9.30042"><ele>1138.6666666666667</ele><time>2026-05-02T11:15:04.992Z</time></trkpt><trkpt lat="44.8154017" lon="9.3005367"><ele>1137.8333333333333</ele><time>2026-05-02T11:15:05.991Z</time></trkpt><trkpt lat="44.8154017" lon="9.3006417"><ele>1137.0</ele><time>2026-05-02T11:15:06.991Z</time></trkpt><trkpt lat="44.8154033" lon="9.3007333"><ele>1136.8</ele><time>2026-05-02T11:15:07.989Z</time></trkpt><trkpt lat="44.8154017" lon="9.300875"><ele>1136.6</ele><time>2026-05-02T11:15:09.99Z</time></trkpt><trkpt lat="44.8154117" lon="9.3009983"><ele>1136.3999999999999</ele><time>2026-05-02T11:15:11.99Z</time></trkpt><trkpt lat="44.81543" lon="9.30114"><ele>1136.2</ele><time>2026-05-02T11:15:13.99Z</time></trkpt><trkpt lat="44.8154333" lon="9.3013"><ele>1136.0</ele><time>2026-05-02T11:15:15.99Z</time></trkpt><trkpt lat="44.81541" lon="9.3014483"><ele>1135.7142857142858</ele><time>2026-05-02T11:15:17.99Z</time></trkpt><trkpt lat="44.8153883" lon="9.3015383"><ele>1135.4285714285713</ele><time>2026-05-02T11:15:18.99Z</time></trkpt><trkpt lat="44.81535" lon="9.3016383"><ele>1135.142857142857</ele><time>2026-05-02T11:15:19.991Z</time></trkpt><trkpt lat="44.8153183" lon="9.3017233"><ele>1134.857142857143</ele><time>2026-05-02T11:15:20.991Z</time></trkpt><trkpt lat="44.8152817" lon="9.3017983"><ele>1134.5714285714284</ele><time>2026-05-02T11:15:21.991Z</time></trkpt><trkpt lat="44.8152367" lon="9.3018733"><ele>1134.2857142857142</ele><time>2026-05-02T11:15:22.991Z</time></trkpt><trkpt lat="44.8151883" lon="9.3019417"><ele>1134.0</ele><time>2026-05-02T11:15:23.991Z</time></trkpt><trkpt lat="44.8151383" lon="9.3019967"><ele>1137.25</ele><time>2026-05-02T11:15:24.99Z</time></trkpt><trkpt lat="44.81506" lon="9.3021167"><ele>1140.5</ele><time>2026-05-02T11:15:26.993Z</time></trkpt><trkpt lat="44.8149833" lon="9.3022367"><ele>1143.75</ele><time>2026-05-02T11:15:28.994Z</time></trkpt><trkpt lat="44.8148767" lon="9.3023183"><ele>1147.0</ele><time>2026-05-02T11:15:30.99Z</time></trkpt><trkpt lat="44.814785" lon="9.3024067"><ele>1147.0</ele><time>2026-05-02T11:15:32.99Z</time></trkpt><trkpt lat="44.81472" lon="9.302515"><ele>1147.0</ele><time>2026-05-02T11:15:34.99Z</time></trkpt><trkpt lat="44.8146833" lon="9.3026333"><ele>1147.0</ele><time>2026-05-02T11:15:36.99Z</time></trkpt><trkpt lat="44.8146833" lon="9.3027483"><ele>1147.0</ele><time>2026-05-02T11:15:38.993Z</time></trkpt><trkpt lat="44.8146817" lon="9.3028617"><ele>1147.0</ele><time>2026-05-02T11:15:40.989Z</time></trkpt><trkpt lat="44.81468" lon="9.3029967"><ele>1146.8</ele><time>2026-05-02T11:15:42.989Z</time></trkpt><trkpt lat="44.81468" lon="9.3031133"><ele>1146.6</ele><time>2026-05-02T11:15:44.99Z</time></trkpt><trkpt lat="44.8147117" lon="9.3032333"><ele>1146.3999999999999</ele><time>2026-05-02T11:15:46.989Z</time></trkpt><trkpt lat="44.81471" lon="9.30337"><ele>1146.2</ele><time>2026-05-02T11:15:48.989Z</time></trkpt><trkpt lat="44.8146967" lon="9.30351"><ele>1146.0</ele><time>2026-05-02T11:15:50.991Z</time></trkpt><trkpt lat="44.814655" lon="9.3036467"><ele>1146.0</ele><time>2026-05-02T11:15:52.989Z</time></trkpt><trkpt lat="44.8146233" lon="9.3037283"><ele>1146.0</ele><time>2026-05-02T11:15:53.99Z</time></trkpt><trkpt lat="44.8145867" lon="9.30381"><ele>1146.0</ele><time>2026-05-02T11:15:54.99Z</time></trkpt><trkpt lat="44.8145517" lon="9.303895"><ele>1146.0</ele><time>2026-05-02T11:15:55.989Z</time></trkpt><trkpt lat="44.814535" lon="9.3039967"><ele>1146.0</ele><time>2026-05-02T11:15:56.991Z</time></trkpt><trkpt lat="44.814515" lon="9.3041"><ele>1146.0</ele><time>2026-05-02T11:15:57.989Z</time></trkpt><trkpt lat="44.8144633" lon="9.3042617"><ele>1146.6</ele><time>2026-05-02T11:15:59.99Z</time></trkpt><trkpt lat="44.81442" lon="9.3044367"><ele>1147.1999999999998</ele><time>2026-05-02T11:16:01.989Z</time></trkpt><trkpt lat="44.8144017" lon="9.3045283"><ele>1147.8000000000002</ele><time>2026-05-02T11:16:02.99Z</time></trkpt><trkpt lat="44.814385" lon="9.304625"><ele>1148.4</ele><time>2026-05-02T11:16:03.99Z</time></trkpt><trkpt lat="44.8143917" lon="9.3047217"><ele>1149.0</ele><time>2026-05-02T11:16:04.989Z</time></trkpt><trkpt lat="44.814385" lon="9.3048867"><ele>1149.3333333333333</ele><time>2026-05-02T11:16:06.989Z</time></trkpt><trkpt lat="44.8143683" lon="9.3049833"><ele>1149.6666666666667</ele><time>2026-05-02T11:16:07.99Z</time></trkpt><trkpt lat="44.814355" lon="9.305135"><ele>1150.0</ele><time>2026-05-02T11:16:09.989Z</time></trkpt><trkpt lat="44.8143883" lon="9.3053083"><ele>1150.3333333333335</ele><time>2026-05-02T11:16:11.989Z</time></trkpt><trkpt lat="44.8144083" lon="9.3054033"><ele>1150.6666666666667</ele><time>2026-05-02T11:16:12.989Z</time></trkpt><trkpt lat="44.814425" lon="9.3055033"><ele>1151.0</ele><time>2026-05-02T11:16:13.989Z</time></trkpt><trkpt lat="44.814495" lon="9.3056367"><ele>1151.4285714285713</ele><time>2026-05-02T11:16:15.989Z</time></trkpt><trkpt lat="44.8145567" lon="9.3056783"><ele>1151.857142857143</ele><time>2026-05-02T11:16:16.989Z</time></trkpt><trkpt lat="44.8146133" lon="9.3057583"><ele>1152.2857142857142</ele><time>2026-05-02T11:16:17.989Z</time></trkpt><trkpt lat="44.8146883" lon="9.3058"><ele>1152.7142857142858</ele><time>2026-05-02T11:16:18.989Z</time></trkpt><trkpt lat="44.8147583" lon="9.3058183"><ele>1153.142857142857</ele><time>2026-05-02T11:16:19.989Z</time></trkpt><trkpt lat="44.8148217" lon="9.3058467"><ele>1153.5714285714284</ele><time>2026-05-02T11:16:20.99Z</time></trkpt><trkpt lat="44.8148833" lon="9.3058833"><ele>1154.0</ele><time>2026-05-02T11:16:21.989Z</time></trkpt><trkpt lat="44.81494" lon="9.30594"><ele>1154.0</ele><time>2026-05-02T11:16:22.99Z</time></trkpt><trkpt lat="44.8149867" lon="9.3060083"><ele>1154.0</ele><time>2026-05-02T11:16:23.989Z</time></trkpt><trkpt lat="44.81504" lon="9.3060833"><ele>1154.0</ele><time>2026-05-02T11:16:24.989Z</time></trkpt><trkpt lat="44.8150867" lon="9.3061833"><ele>1154.0</ele><time>2026-05-02T11:16:25.989Z</time></trkpt><trkpt lat="44.8151233" lon="9.3063017"><ele>1154.0</ele><time>2026-05-02T11:16:26.989Z</time></trkpt><trkpt lat="44.8151867" lon="9.3064183"><ele>1154.0</ele><time>2026-05-02T11:16:27.99Z</time></trkpt><trkpt lat="44.8152617" lon="9.3065317"><ele>1149.8333333333335</ele><time>2026-05-02T11:16:28.989Z</time></trkpt><trkpt lat="44.8153167" lon="9.3066433"><ele>1145.6666666666667</ele><time>2026-05-02T11:16:29.99Z</time></trkpt><trkpt lat="44.8153733" lon="9.30675"><ele>1141.5</ele><time>2026-05-02T11:16:30.989Z</time></trkpt><trkpt lat="44.8154217" lon="9.3068483"><ele>1137.3333333333333</ele><time>2026-05-02T11:16:31.989Z</time></trkpt><trkpt lat="44.8154817" lon="9.306935"><ele>1133.1666666666665</ele><time>2026-05-02T11:16:32.99Z</time></trkpt><trkpt lat="44.8155383" lon="9.3070267"><ele>1129.0</ele><time>2026-05-02T11:16:33.989Z</time></trkpt><trkpt lat="44.8155917" lon="9.307105"><ele>1129.0</ele><time>2026-05-02T11:16:34.989Z</time></trkpt><trkpt lat="44.8156317" lon="9.3071983"><ele>1129.0</ele><time>2026-05-02T11:16:35.989Z</time></trkpt><trkpt lat="44.8156883" lon="9.3072933"><ele>1129.0</ele><time>2026-05-02T11:16:36.989Z</time></trkpt><trkpt lat="44.8157417" lon="9.30739"><ele>1129.0</ele><time>2026-05-02T11:16:37.992Z</time></trkpt><trkpt lat="44.8157917" lon="9.3074767"><ele>1129.0</ele><time>2026-05-02T11:16:38.99Z</time></trkpt><trkpt lat="44.8158233" lon="9.3075917"><ele>1129.0</ele><time>2026-05-02T11:16:39.989Z</time></trkpt><trkpt lat="44.81584" lon="9.3076867"><ele>1129.2</ele><time>2026-05-02T11:16:40.989Z</time></trkpt><trkpt lat="44.8158517" lon="9.307865"><ele>1129.4</ele><time>2026-05-02T11:16:42.989Z</time></trkpt><trkpt lat="44.8158433" lon="9.30796"><ele>1129.6</ele><time>2026-05-02T11:16:43.989Z</time></trkpt><trkpt lat="44.8158217" lon="9.3081383"><ele>1129.8</ele><time>2026-05-02T11:16:45.989Z</time></trkpt><trkpt lat="44.815795" lon="9.3082267"><ele>1130.0</ele><time>2026-05-02T11:16:46.989Z</time></trkpt><trkpt lat="44.81576" lon="9.3083083"><ele>1130.0</ele><time>2026-05-02T11:16:47.99Z</time></trkpt><trkpt lat="44.8157017" lon="9.3084"><ele>1130.0</ele><time>2026-05-02T11:16:48.99Z</time></trkpt><trkpt lat="44.8156367" lon="9.3085"><ele>1130.0</ele><time>2026-05-02T11:16:49.99Z</time></trkpt><trkpt lat="44.8155683" lon="9.3086117"><ele>1130.0</ele><time>2026-05-02T11:16:50.991Z</time></trkpt><trkpt lat="44.8155" lon="9.3086983"><ele>1130.0</ele><time>2026-05-02T11:16:51.989Z</time></trkpt><trkpt lat="44.8154283" lon="9.3087833"><ele>1130.0</ele><time>2026-05-02T11:16:52.989Z</time></trkpt><trkpt lat="44.8153533" lon="9.308855"><ele>1130.0</ele><time>2026-05-02T11:16:53.991Z</time></trkpt><trkpt lat="44.815285" lon="9.3089017"><ele>1130.0</ele><time>2026-05-02T11:16:54.991Z</time></trkpt><trkpt lat="44.8152217" lon="9.3089567"><ele>1130.0</ele><time>2026-05-02T11:16:55.989Z</time></trkpt><trkpt lat="44.8151583" lon="9.3090267"><ele>1130.0</ele><time>2026-05-02T11:16:56.99Z</time></trkpt><trkpt lat="44.8151083" lon="9.309105"><ele>1130.0</ele><time>2026-05-02T11:16:57.989Z</time></trkpt><trkpt lat="44.8150683" lon="9.309195"><ele>1131.1666666666667</ele><time>2026-05-02T11:16:58.99Z</time></trkpt><trkpt lat="44.8150383" lon="9.3093"><ele>1132.3333333333335</ele><time>2026-05-02T11:16:59.989Z</time></trkpt><trkpt lat="44.8150217" lon="9.3094233"><ele>1133.5</ele><time>2026-05-02T11:17:00.989Z</time></trkpt><trkpt lat="44.814995" lon="9.3095283"><ele>1134.6666666666667</ele><time>2026-05-02T11:17:01.989Z</time></trkpt><trkpt lat="44.814955" lon="9.3096433"><ele>1135.8333333333333</ele><time>2026-05-02T11:17:02.99Z</time></trkpt><trkpt lat="44.81491" lon="9.3097417"><ele>1137.0</ele><time>2026-05-02T11:17:03.989Z</time></trkpt><trkpt lat="44.8148517" lon="9.309845"><ele>1134.5</ele><time>2026-05-02T11:17:04.989Z</time></trkpt><trkpt lat="44.8147833" lon="9.3099217"><ele>1132.0</ele><time>2026-05-02T11:17:05.989Z</time></trkpt><trkpt lat="44.8147167" lon="9.3099883"><ele>1129.5</ele><time>2026-05-02T11:17:06.989Z</time></trkpt><trkpt lat="44.81464" lon="9.3100533"><ele>1127.0</ele><time>2026-05-02T11:17:07.99Z</time></trkpt><trkpt lat="44.8145567" lon="9.3101183"><ele>1124.5</ele><time>2026-05-02T11:17:08.989Z</time></trkpt><trkpt lat="44.8145017" lon="9.3101867"><ele>1122.0</ele><time>2026-05-02T11:17:09.989Z</time></trkpt><trkpt lat="44.8144367" lon="9.3102367"><ele>1122.0</ele><time>2026-05-02T11:17:11.991Z</time></trkpt><trkpt lat="44.814395" lon="9.3103167"><ele>1122.0</ele><time>2026-05-02T11:17:14.989Z</time></trkpt><trkpt lat="44.814335" lon="9.3103467"><ele>1122.0</ele><time>2026-05-02T11:17:18.99Z</time></trkpt><trkpt lat="44.8143" lon="9.310515"><ele>1122.0</ele><time>2026-05-02T11:18:24.99Z</time></trkpt><trkpt lat="44.8142333" lon="9.31056"><ele>1122.0</ele><time>2026-05-02T11:18:26.99Z</time></trkpt><trkpt lat="44.8141133" lon="9.31061"><ele>1123.1666666666667</ele><time>2026-05-02T11:18:28.989Z</time></trkpt><trkpt lat="44.8140467" lon="9.310655"><ele>1124.3333333333333</ele><time>2026-05-02T11:18:30.989Z</time></trkpt><trkpt lat="44.8140083" lon="9.3107617"><ele>1125.5</ele><time>2026-05-02T11:18:33.989Z</time></trkpt><trkpt lat="44.8140683" lon="9.3108633"><ele>1126.6666666666665</ele><time>2026-05-02T11:18:36.99Z</time></trkpt><trkpt lat="44.81411" lon="9.31098"><ele>1127.8333333333333</ele><time>2026-05-02T11:18:38.99Z</time></trkpt><trkpt lat="44.8141517" lon="9.31107"><ele>1129.0</ele><time>2026-05-02T11:18:41.989Z</time></trkpt><trkpt lat="44.81423" lon="9.3111917"><ele>1129.0</ele><time>2026-05-02T11:18:58.989Z</time></trkpt><trkpt lat="44.8142867" lon="9.3113117"><ele>1129.0</ele><time>2026-05-02T11:19:00.989Z</time></trkpt><trkpt lat="44.8143617" lon="9.3114583"><ele>1129.0</ele><time>2026-05-02T11:19:02.99Z</time></trkpt><trkpt lat="44.8144067" lon="9.3115283"><ele>1129.0</ele><time>2026-05-02T11:19:03.989Z</time></trkpt><trkpt lat="44.8144533" lon="9.3116033"><ele>1129.0</ele><time>2026-05-02T11:19:04.991Z</time></trkpt><trkpt lat="44.81452" lon="9.311735"><ele>1120.0</ele><time>2026-05-02T11:19:06.989Z</time></trkpt><trkpt lat="44.8145483" lon="9.3118733"><ele>1111.0</ele><time>2026-05-02T11:19:08.99Z</time></trkpt><trkpt lat="44.8145617" lon="9.3120383"><ele>1102.0</ele><time>2026-05-02T11:19:10.989Z</time></trkpt><trkpt lat="44.8145533" lon="9.3122"><ele>1093.0</ele><time>2026-05-02T11:19:12.99Z</time></trkpt><trkpt lat="44.81454" lon="9.3123733"><ele>1092.5</ele><time>2026-05-02T11:19:14.99Z</time></trkpt><trkpt lat="44.8145333" lon="9.3124617"><ele>1092.0</ele><time>2026-05-02T11:19:15.989Z</time></trkpt><trkpt lat="44.8145267" lon="9.3125533"><ele>1091.5</ele><time>2026-05-02T11:19:16.99Z</time></trkpt><trkpt lat="44.8145117" lon="9.3126483"><ele>1091.0</ele><time>2026-05-02T11:19:17.99Z</time></trkpt><trkpt lat="44.814465" lon="9.3128"><ele>1090.5</ele><time>2026-05-02T11:19:19.989Z</time></trkpt><trkpt lat="44.8144083" lon="9.3129567"><ele>1090.0</ele><time>2026-05-02T11:19:21.99Z</time></trkpt><trkpt lat="44.8143817" lon="9.31304"><ele>1088.8333333333333</ele><time>2026-05-02T11:19:22.991Z</time></trkpt><trkpt lat="44.8143583" lon="9.3131317"><ele>1087.6666666666665</ele><time>2026-05-02T11:19:23.989Z</time></trkpt><trkpt lat="44.8143167" lon="9.3132533"><ele>1086.5</ele><time>2026-05-02T11:19:25.989Z</time></trkpt><trkpt lat="44.8142883" lon="9.3133483"><ele>1085.3333333333333</ele><time>2026-05-02T11:19:27.99Z</time></trkpt><trkpt lat="44.8143" lon="9.3134583"><ele>1084.1666666666667</ele><time>2026-05-02T11:19:29.989Z</time></trkpt><trkpt lat="44.8143383" lon="9.3135933"><ele>1083.0</ele><time>2026-05-02T11:19:31.989Z</time></trkpt><trkpt lat="44.81437" lon="9.313745"><ele>1083.0</ele><time>2026-05-02T11:19:33.99Z</time></trkpt><trkpt lat="44.8144217" lon="9.3138833"><ele>1083.0</ele><time>2026-05-02T11:19:35.991Z</time></trkpt><trkpt lat="44.81443" lon="9.3140033"><ele>1083.0</ele><time>2026-05-02T11:19:37.99Z</time></trkpt><trkpt lat="44.8144333" lon="9.3141033"><ele>1083.0</ele><time>2026-05-02T11:19:39.99Z</time></trkpt><trkpt lat="44.8144483" lon="9.3142117"><ele>1083.0</ele><time>2026-05-02T11:19:42.99Z</time></trkpt><trkpt lat="44.814455" lon="9.3143333"><ele>1083.0</ele><time>2026-05-02T11:19:44.99Z</time></trkpt><trkpt lat="44.8144967" lon="9.31446"><ele>1083.0</ele><time>2026-05-02T11:19:46.989Z</time></trkpt><trkpt lat="44.8145133" lon="9.31459"><ele>1083.0</ele><time>2026-05-02T11:19:48.989Z</time></trkpt><trkpt lat="44.81451" lon="9.3147117"><ele>1083.0</ele><time>2026-05-02T11:19:50.99Z</time></trkpt><trkpt lat="44.81451" lon="9.314835"><ele>1083.0</ele><time>2026-05-02T11:19:52.989Z</time></trkpt><trkpt lat="44.81457" lon="9.3149117"><ele>1083.0</ele><time>2026-05-02T11:19:53.99Z</time></trkpt><trkpt lat="44.8146333" lon="9.314985"><ele>1083.0</ele><time>2026-05-02T11:19:54.99Z</time></trkpt><trkpt lat="44.8146517" lon="9.3150767"><ele>1084.8333333333333</ele><time>2026-05-02T11:19:55.989Z</time></trkpt><trkpt lat="44.8146883" lon="9.31517"><ele>1086.6666666666667</ele><time>2026-05-02T11:19:56.99Z</time></trkpt><trkpt lat="44.8147133" lon="9.3152617"><ele>1088.5</ele><time>2026-05-02T11:19:57.99Z</time></trkpt><trkpt lat="44.8147233" lon="9.3153583"><ele>1090.3333333333335</ele><time>2026-05-02T11:19:58.99Z</time></trkpt><trkpt lat="44.8147217" lon="9.3154517"><ele>1092.1666666666667</ele><time>2026-05-02T11:19:59.99Z</time></trkpt><trkpt lat="44.81471" lon="9.3155467"><ele>1094.0</ele><time>2026-05-02T11:20:00.99Z</time></trkpt><trkpt lat="44.8147017" lon="9.315725"><ele>1095.2</ele><time>2026-05-02T11:20:02.99Z</time></trkpt><trkpt lat="44.81471" lon="9.315815"><ele>1096.4</ele><time>2026-05-02T11:20:03.99Z</time></trkpt><trkpt lat="44.8147067" lon="9.3159317"><ele>1097.6</ele><time>2026-05-02T11:20:04.99Z</time></trkpt><trkpt lat="44.81471" lon="9.31604"><ele>1098.8</ele><time>2026-05-02T11:20:05.989Z</time></trkpt><trkpt lat="44.8146983" lon="9.31619"><ele>1100.0</ele><time>2026-05-02T11:20:07.989Z</time></trkpt><trkpt lat="44.8146967" lon="9.316365"><ele>1100.2</ele><time>2026-05-02T11:20:09.99Z</time></trkpt><trkpt lat="44.8147033" lon="9.3164617"><ele>1100.4</ele><time>2026-05-02T11:20:10.99Z</time></trkpt><trkpt lat="44.8147183" lon="9.316555"><ele>1100.6</ele><time>2026-05-02T11:20:11.99Z</time></trkpt><trkpt lat="44.814765" lon="9.3167267"><ele>1100.8</ele><time>2026-05-02T11:20:13.989Z</time></trkpt><trkpt lat="44.814805" lon="9.316875"><ele>1101.0</ele><time>2026-05-02T11:20:15.99Z</time></trkpt><trkpt lat="44.81482" lon="9.317015"><ele>1101.0</ele><time>2026-05-02T11:20:17.99Z</time></trkpt><trkpt lat="44.8148367" lon="9.3171067"><ele>1101.0</ele><time>2026-05-02T11:20:18.99Z</time></trkpt><trkpt lat="44.8148567" lon="9.317205"><ele>1101.0</ele><time>2026-05-02T11:20:19.99Z</time></trkpt><trkpt lat="44.814895" lon="9.3173083"><ele>1101.0</ele><time>2026-05-02T11:20:20.991Z</time></trkpt><trkpt lat="44.814935" lon="9.3174083"><ele>1101.0</ele><time>2026-05-02T11:20:21.99Z</time></trkpt><trkpt lat="44.8149667" lon="9.3175133"><ele>1101.0</ele><time>2026-05-02T11:20:22.99Z</time></trkpt><trkpt lat="44.8149833" lon="9.31762"><ele>1102.0</ele><time>2026-05-02T11:20:23.99Z</time></trkpt><trkpt lat="44.8149933" lon="9.3177333"><ele>1103.0</ele><time>2026-05-02T11:20:24.99Z</time></trkpt><trkpt lat="44.8149933" lon="9.3178367"><ele>1104.0</ele><time>2026-05-02T11:20:25.99Z</time></trkpt><trkpt lat="44.814975" lon="9.3179383"><ele>1105.0</ele><time>2026-05-02T11:20:26.99Z</time></trkpt><trkpt lat="44.8149483" lon="9.3180517"><ele>1106.0</ele><time>2026-05-02T11:20:27.99Z</time></trkpt><trkpt lat="44.814925" lon="9.3181717"><ele>1107.0</ele><time>2026-05-02T11:20:28.99Z</time></trkpt><trkpt lat="44.8148983" lon="9.31827"><ele>1108.0</ele><time>2026-05-02T11:20:29.99Z</time></trkpt><trkpt lat="44.8148583" lon="9.3184167"><ele>1109.0</ele><time>2026-05-02T11:20:31.989Z</time></trkpt><trkpt lat="44.8148183" lon="9.3185033"><ele>1110.0</ele><time>2026-05-02T11:20:33.989Z</time></trkpt><trkpt lat="44.8147983" lon="9.31861"><ele>1111.0</ele><time>2026-05-02T11:20:37.989Z</time></trkpt><trkpt lat="44.8147183" lon="9.3187283"><ele>1112.0</ele><time>2026-05-02T11:20:40.991Z</time></trkpt><trkpt lat="44.81463" lon="9.3188017"><ele>1112.0</ele><time>2026-05-02T11:20:42.989Z</time></trkpt><trkpt lat="44.814515" lon="9.3188283"><ele>1112.0</ele><time>2026-05-02T11:20:44.99Z</time></trkpt><trkpt lat="44.8144367" lon="9.3188383"><ele>1112.0</ele><time>2026-05-02T11:20:45.99Z</time></trkpt><trkpt lat="44.8143567" lon="9.3188483"><ele>1112.0</ele><time>2026-05-02T11:20:46.989Z</time></trkpt><trkpt lat="44.8142583" lon="9.3188633"><ele>1112.0</ele><time>2026-05-02T11:20:47.989Z</time></trkpt><trkpt lat="44.8141667" lon="9.3188583"><ele>1113.5</ele><time>2026-05-02T11:20:48.989Z</time></trkpt><trkpt lat="44.8140767" lon="9.31883"><ele>1115.0</ele><time>2026-05-02T11:20:49.989Z</time></trkpt><trkpt lat="44.8140033" lon="9.31879"><ele>1116.5</ele><time>2026-05-02T11:20:50.99Z</time></trkpt><trkpt lat="44.8139383" lon="9.31875"><ele>1118.0</ele><time>2026-05-02T11:20:51.991Z</time></trkpt><trkpt lat="44.81387" lon="9.3187233"><ele>1119.5</ele><time>2026-05-02T11:20:52.989Z</time></trkpt><trkpt lat="44.8137933" lon="9.3186933"><ele>1121.0</ele><time>2026-05-02T11:20:53.99Z</time></trkpt><trkpt lat="44.813715" lon="9.31866"><ele>1121.0</ele><time>2026-05-02T11:20:54.989Z</time></trkpt><trkpt lat="44.8136517" lon="9.318625"><ele>1121.0</ele><time>2026-05-02T11:20:55.991Z</time></trkpt><trkpt lat="44.8135733" lon="9.31858"><ele>1121.0</ele><time>2026-05-02T11:20:56.99Z</time></trkpt><trkpt lat="44.8134983" lon="9.3185333"><ele>1121.0</ele><time>2026-05-02T11:20:57.989Z</time></trkpt><trkpt lat="44.8134283" lon="9.3184917"><ele>1121.0</ele><time>2026-05-02T11:20:58.99Z</time></trkpt><trkpt lat="44.8133633" lon="9.31845"><ele>1121.0</ele><time>2026-05-02T11:20:59.989Z</time></trkpt><trkpt lat="44.8132983" lon="9.3184033"><ele>1120.1666666666667</ele><time>2026-05-02T11:21:00.99Z</time></trkpt><trkpt lat="44.81324" lon="9.3183483"><ele>1119.3333333333335</ele><time>2026-05-02T11:21:01.99Z</time></trkpt><trkpt lat="44.8131833" lon="9.318275"><ele>1118.5</ele><time>2026-05-02T11:21:02.989Z</time></trkpt><trkpt lat="44.8131367" lon="9.3182133"><ele>1117.6666666666667</ele><time>2026-05-02T11:21:03.99Z</time></trkpt><trkpt lat="44.813085" lon="9.3181467"><ele>1116.8333333333333</ele><time>2026-05-02T11:21:04.989Z</time></trkpt><trkpt lat="44.8130333" lon="9.31809"><ele>1116.0</ele><time>2026-05-02T11:21:05.99Z</time></trkpt><trkpt lat="44.812945" lon="9.317945"><ele>1115.0</ele><time>2026-05-02T11:21:07.99Z</time></trkpt><trkpt lat="44.8128917" lon="9.317855"><ele>1114.0</ele><time>2026-05-02T11:21:08.99Z</time></trkpt><trkpt lat="44.8128317" lon="9.31777"><ele>1113.0</ele><time>2026-05-02T11:21:09.991Z</time></trkpt><trkpt lat="44.8127717" lon="9.317695"><ele>1112.0</ele><time>2026-05-02T11:21:10.99Z</time></trkpt><trkpt lat="44.81271" lon="9.3176367"><ele>1111.0</ele><time>2026-05-02T11:21:11.99Z</time></trkpt><trkpt lat="44.812625" lon="9.3175833"><ele>1110.0</ele><time>2026-05-02T11:21:12.99Z</time></trkpt><trkpt lat="44.8125317" lon="9.3175117"><ele>1110.0</ele><time>2026-05-02T11:21:13.99Z</time></trkpt><trkpt lat="44.8124383" lon="9.317435"><ele>1110.0</ele><time>2026-05-02T11:21:14.99Z</time></trkpt><trkpt lat="44.8123517" lon="9.3173533"><ele>1110.0</ele><time>2026-05-02T11:21:15.989Z</time></trkpt><trkpt lat="44.812275" lon="9.317275"><ele>1110.0</ele><time>2026-05-02T11:21:16.99Z</time></trkpt><trkpt lat="44.8122083" lon="9.3171967"><ele>1110.0</ele><time>2026-05-02T11:21:17.989Z</time></trkpt><trkpt lat="44.8121483" lon="9.3171133"><ele>1109.6</ele><time>2026-05-02T11:21:18.99Z</time></trkpt><trkpt lat="44.8120867" lon="9.317025"><ele>1109.2</ele><time>2026-05-02T11:21:19.989Z</time></trkpt><trkpt lat="44.8120217" lon="9.3169467"><ele>1108.8</ele><time>2026-05-02T11:21:20.99Z</time></trkpt><trkpt lat="44.8119433" lon="9.3168833"><ele>1108.4</ele><time>2026-05-02T11:21:21.989Z</time></trkpt><trkpt lat="44.8118533" lon="9.3168283"><ele>1108.0</ele><time>2026-05-02T11:21:22.989Z</time></trkpt><trkpt lat="44.8117583" lon="9.3167867"><ele>1108.0</ele><time>2026-05-02T11:21:23.99Z</time></trkpt><trkpt lat="44.8116533" lon="9.3167633"><ele>1108.0</ele><time>2026-05-02T11:21:24.989Z</time></trkpt><trkpt lat="44.8115583" lon="9.3167467"><ele>1108.0</ele><time>2026-05-02T11:21:25.989Z</time></trkpt><trkpt lat="44.8114667" lon="9.3167317"><ele>1108.0</ele><time>2026-05-02T11:21:26.99Z</time></trkpt><trkpt lat="44.811375" lon="9.3167133"><ele>1108.0</ele><time>2026-05-02T11:21:27.989Z</time></trkpt><trkpt lat="44.8113" lon="9.316715"><ele>1108.0</ele><time>2026-05-02T11:21:29.076Z</time></trkpt><trkpt lat="44.8112317" lon="9.316735"><ele>1108.0</ele><time>2026-05-02T11:21:29.989Z</time></trkpt><trkpt lat="44.8111617" lon="9.3167567"><ele>1108.0</ele><time>2026-05-02T11:21:30.989Z</time></trkpt><trkpt lat="44.8110817" lon="9.316765"><ele>1108.0</ele><time>2026-05-02T11:21:31.99Z</time></trkpt><trkpt lat="44.8109983" lon="9.316745"><ele>1108.0</ele><time>2026-05-02T11:21:32.99Z</time></trkpt><trkpt lat="44.8109167" lon="9.3167017"><ele>1108.0</ele><time>2026-05-02T11:21:33.991Z</time></trkpt><trkpt lat="44.8108483" lon="9.3166417"><ele>1109.8333333333333</ele><time>2026-05-02T11:21:34.99Z</time></trkpt><trkpt lat="44.8107817" lon="9.3165817"><ele>1111.6666666666665</ele><time>2026-05-02T11:21:35.991Z</time></trkpt><trkpt lat="44.8107217" lon="9.3165167"><ele>1113.5</ele><time>2026-05-02T11:21:36.99Z</time></trkpt><trkpt lat="44.8106633" lon="9.3164417"><ele>1115.3333333333333</ele><time>2026-05-02T11:21:37.989Z</time></trkpt><trkpt lat="44.8105933" lon="9.3163667"><ele>1117.1666666666667</ele><time>2026-05-02T11:21:38.99Z</time></trkpt><trkpt lat="44.8105267" lon="9.3162983"><ele>1119.0</ele><time>2026-05-02T11:21:39.989Z</time></trkpt><trkpt lat="44.8104633" lon="9.3162367"><ele>1119.0</ele><time>2026-05-02T11:21:40.99Z</time></trkpt><trkpt lat="44.81041" lon="9.3161767"><ele>1119.0</ele><time>2026-05-02T11:21:41.99Z</time></trkpt><trkpt lat="44.810355" lon="9.3161317"><ele>1119.0</ele><time>2026-05-02T11:21:42.989Z</time></trkpt><trkpt lat="44.8102317" lon="9.316125"><ele>1119.0</ele><time>2026-05-02T11:21:44.99Z</time></trkpt><trkpt lat="44.81017" lon="9.3161683"><ele>1119.0</ele><time>2026-05-02T11:21:45.99Z</time></trkpt><trkpt lat="44.810095" lon="9.31624"><ele>1119.0</ele><time>2026-05-02T11:21:46.989Z</time></trkpt><trkpt lat="44.810025" lon="9.3163517"><ele>1114.6666666666667</ele><time>2026-05-02T11:21:47.99Z</time></trkpt><trkpt lat="44.809955" lon="9.316445"><ele>1110.3333333333333</ele><time>2026-05-02T11:21:48.991Z</time></trkpt><trkpt lat="44.8098833" lon="9.3165067"><ele>1106.0</ele><time>2026-05-02T11:21:49.99Z</time></trkpt><trkpt lat="44.8098133" lon="9.316545"><ele>1101.6666666666665</ele><time>2026-05-02T11:21:50.991Z</time></trkpt><trkpt lat="44.8097367" lon="9.3165617"><ele>1097.3333333333333</ele><time>2026-05-02T11:21:51.989Z</time></trkpt><trkpt lat="44.80964" lon="9.316555"><ele>1093.0</ele><time>2026-05-02T11:21:52.99Z</time></trkpt><trkpt lat="44.8095367" lon="9.3165533"><ele>1093.0</ele><time>2026-05-02T11:21:53.989Z</time></trkpt><trkpt lat="44.8094467" lon="9.3165667"><ele>1093.0</ele><time>2026-05-02T11:21:54.989Z</time></trkpt><trkpt lat="44.809365" lon="9.3165883"><ele>1093.0</ele><time>2026-05-02T11:21:55.99Z</time></trkpt><trkpt lat="44.80929" lon="9.3166117"><ele>1093.0</ele><time>2026-05-02T11:21:56.991Z</time></trkpt><trkpt lat="44.8092167" lon="9.3166183"><ele>1093.0</ele><time>2026-05-02T11:21:57.99Z</time></trkpt><trkpt lat="44.8091533" lon="9.3166017"><ele>1093.0</ele><time>2026-05-02T11:21:58.991Z</time></trkpt><trkpt lat="44.8090967" lon="9.3165583"><ele>1093.0</ele><time>2026-05-02T11:21:59.99Z</time></trkpt><trkpt lat="44.80904" lon="9.3165083"><ele>1093.0</ele><time>2026-05-02T11:22:00.989Z</time></trkpt><trkpt lat="44.8089817" lon="9.3164583"><ele>1093.0</ele><time>2026-05-02T11:22:01.99Z</time></trkpt><trkpt lat="44.8089233" lon="9.3164017"><ele>1093.0</ele><time>2026-05-02T11:22:02.99Z</time></trkpt><trkpt lat="44.80887" lon="9.316345"><ele>1093.0</ele><time>2026-05-02T11:22:03.989Z</time></trkpt><trkpt lat="44.808815" lon="9.3162933"><ele>1093.0</ele><time>2026-05-02T11:22:04.99Z</time></trkpt><trkpt lat="44.8087583" lon="9.3162333"><ele>1093.0</ele><time>2026-05-02T11:22:05.99Z</time></trkpt><trkpt lat="44.808695" lon="9.316175"><ele>1094.0</ele><time>2026-05-02T11:22:06.99Z</time></trkpt><trkpt lat="44.8086367" lon="9.3161317"><ele>1095.0</ele><time>2026-05-02T11:22:07.99Z</time></trkpt><trkpt lat="44.8085767" lon="9.3161033"><ele>1096.0</ele><time>2026-05-02T11:22:08.99Z</time></trkpt><trkpt lat="44.808505" lon="9.316085"><ele>1097.0</ele><time>2026-05-02T11:22:09.989Z</time></trkpt><trkpt lat="44.808425" lon="9.3160667"><ele>1098.0</ele><time>2026-05-02T11:22:10.99Z</time></trkpt><trkpt lat="44.80835" lon="9.31605"><ele>1099.0</ele><time>2026-05-02T11:22:11.99Z</time></trkpt><trkpt lat="44.8082833" lon="9.31603"><ele>1100.0</ele><time>2026-05-02T11:22:12.99Z</time></trkpt><trkpt lat="44.8082" lon="9.3160133"><ele>1100.0</ele><time>2026-05-02T11:22:13.992Z</time></trkpt><trkpt lat="44.8081167" lon="9.31602"><ele>1100.0</ele><time>2026-05-02T11:22:14.992Z</time></trkpt><trkpt lat="44.8080333" lon="9.31603"><ele>1100.0</ele><time>2026-05-02T11:22:15.99Z</time></trkpt><trkpt lat="44.8079533" lon="9.3160517"><ele>1100.0</ele><time>2026-05-02T11:22:16.989Z</time></trkpt><trkpt lat="44.807815" lon="9.31607"><ele>1100.0</ele><time>2026-05-02T11:22:18.99Z</time></trkpt><trkpt lat="44.8077383" lon="9.3160483"><ele>1100.0</ele><time>2026-05-02T11:22:19.99Z</time></trkpt><trkpt lat="44.80768" lon="9.3159933"><ele>1100.0</ele><time>2026-05-02T11:22:20.99Z</time></trkpt><trkpt lat="44.8076283" lon="9.3159383"><ele>1100.0</ele><time>2026-05-02T11:22:21.989Z</time></trkpt><trkpt lat="44.8075267" lon="9.31582"><ele>1100.0</ele><time>2026-05-02T11:22:23.99Z</time></trkpt><trkpt lat="44.8074683" lon="9.3157667"><ele>1100.0</ele><time>2026-05-02T11:22:24.99Z</time></trkpt><trkpt lat="44.8073883" lon="9.31571"><ele>1100.0</ele><time>2026-05-02T11:22:25.99Z</time></trkpt><trkpt lat="44.8073017" lon="9.3156567"><ele>1100.0</ele><time>2026-05-02T11:22:26.99Z</time></trkpt><trkpt lat="44.8072083" lon="9.3156"><ele>1100.0</ele><time>2026-05-02T11:22:27.989Z</time></trkpt><trkpt lat="44.80711" lon="9.31554"><ele>1100.0</ele><time>2026-05-02T11:22:28.993Z</time></trkpt><trkpt lat="44.8070117" lon="9.3154867"><ele>1100.0</ele><time>2026-05-02T11:22:29.989Z</time></trkpt><trkpt lat="44.8069067" lon="9.3154367"><ele>1100.0</ele><time>2026-05-02T11:22:30.99Z</time></trkpt><trkpt lat="44.8068117" lon="9.3153817"><ele>1097.5</ele><time>2026-05-02T11:22:31.989Z</time></trkpt><trkpt lat="44.8067283" lon="9.3153333"><ele>1095.0</ele><time>2026-05-02T11:22:32.99Z</time></trkpt><trkpt lat="44.8066467" lon="9.3152933"><ele>1092.5</ele><time>2026-05-02T11:22:33.99Z</time></trkpt><trkpt lat="44.806565" lon="9.3152583"><ele>1090.0</ele><time>2026-05-02T11:22:34.989Z</time></trkpt><trkpt lat="44.8064867" lon="9.3152283"><ele>1087.5</ele><time>2026-05-02T11:22:35.99Z</time></trkpt><trkpt lat="44.806405" lon="9.3152033"><ele>1085.0</ele><time>2026-05-02T11:22:36.99Z</time></trkpt><trkpt lat="44.8063233" lon="9.3151717"><ele>1085.0</ele><time>2026-05-02T11:22:37.99Z</time></trkpt><trkpt lat="44.8062583" lon="9.3151267"><ele>1085.0</ele><time>2026-05-02T11:22:38.989Z</time></trkpt><trkpt lat="44.8062067" lon="9.31507"><ele>1085.0</ele><time>2026-05-02T11:22:39.989Z</time></trkpt><trkpt lat="44.8061633" lon="9.315"><ele>1085.0</ele><time>2026-05-02T11:22:40.989Z</time></trkpt><trkpt lat="44.8060933" lon="9.3148817"><ele>1085.0</ele><time>2026-05-02T11:22:42.99Z</time></trkpt><trkpt lat="44.8059883" lon="9.3148183"><ele>1085.0</ele><time>2026-05-02T11:22:44.99Z</time></trkpt><trkpt lat="44.8059117" lon="9.314805"><ele>1084.0</ele><time>2026-05-02T11:22:45.991Z</time></trkpt><trkpt lat="44.80583" lon="9.3148083"><ele>1083.0</ele><time>2026-05-02T11:22:46.99Z</time></trkpt><trkpt lat="44.805755" lon="9.31483"><ele>1082.0</ele><time>2026-05-02T11:22:47.99Z</time></trkpt><trkpt lat="44.805685" lon="9.314865"><ele>1081.0</ele><time>2026-05-02T11:22:48.99Z</time></trkpt><trkpt lat="44.8056267" lon="9.3149333"><ele>1080.0</ele><time>2026-05-02T11:22:49.99Z</time></trkpt><trkpt lat="44.8055667" lon="9.315025"><ele>1079.0</ele><time>2026-05-02T11:22:50.991Z</time></trkpt><trkpt lat="44.805515" lon="9.3151183"><ele>1079.0</ele><time>2026-05-02T11:22:51.99Z</time></trkpt><trkpt lat="44.8054633" lon="9.315215"><ele>1079.0</ele><time>2026-05-02T11:22:52.99Z</time></trkpt><trkpt lat="44.8054267" lon="9.3153183"><ele>1079.0</ele><time>2026-05-02T11:22:53.991Z</time></trkpt><trkpt lat="44.8053917" lon="9.315415"><ele>1079.0</ele><time>2026-05-02T11:22:54.99Z</time></trkpt><trkpt lat="44.8053483" lon="9.315505"><ele>1079.0</ele><time>2026-05-02T11:22:55.99Z</time></trkpt><trkpt lat="44.805295" lon="9.315585"><ele>1079.0</ele><time>2026-05-02T11:22:56.991Z</time></trkpt><trkpt lat="44.8052317" lon="9.31565"><ele>1076.1666666666667</ele><time>2026-05-02T11:22:57.99Z</time></trkpt><trkpt lat="44.805155" lon="9.3157017"><ele>1073.3333333333335</ele><time>2026-05-02T11:22:58.991Z</time></trkpt><trkpt lat="44.80508" lon="9.31575"><ele>1070.5</ele><time>2026-05-02T11:22:59.99Z</time></trkpt><trkpt lat="44.8050117" lon="9.3157883"><ele>1067.6666666666667</ele><time>2026-05-02T11:23:00.99Z</time></trkpt><trkpt lat="44.80491" lon="9.315815"><ele>1064.8333333333333</ele><time>2026-05-02T11:23:02.991Z</time></trkpt><trkpt lat="44.8048317" lon="9.3157617"><ele>1062.0</ele><time>2026-05-02T11:23:04.99Z</time></trkpt><trkpt lat="44.8047433" lon="9.3156217"><ele>1064.8333333333333</ele><time>2026-05-02T11:23:14.99Z</time></trkpt><trkpt lat="44.804685" lon="9.3155117"><ele>1067.6666666666667</ele><time>2026-05-02T11:23:16.989Z</time></trkpt><trkpt lat="44.804635" lon="9.3153917"><ele>1070.5</ele><time>2026-05-02T11:23:18.989Z</time></trkpt><trkpt lat="44.804575" lon="9.315265"><ele>1073.3333333333335</ele><time>2026-05-02T11:23:20.99Z</time></trkpt><trkpt lat="44.8045383" lon="9.31519"><ele>1076.1666666666667</ele><time>2026-05-02T11:23:21.99Z</time></trkpt><trkpt lat="44.8044967" lon="9.31511"><ele>1079.0</ele><time>2026-05-02T11:23:22.99Z</time></trkpt><trkpt lat="44.80445" lon="9.31503"><ele>1079.0</ele><time>2026-05-02T11:23:23.991Z</time></trkpt><trkpt lat="44.804395" lon="9.314955"><ele>1079.0</ele><time>2026-05-02T11:23:24.99Z</time></trkpt><trkpt lat="44.8043333" lon="9.3149033"><ele>1079.0</ele><time>2026-05-02T11:23:25.99Z</time></trkpt><trkpt lat="44.8042667" lon="9.314865"><ele>1079.0</ele><time>2026-05-02T11:23:26.99Z</time></trkpt><trkpt lat="44.8041883" lon="9.314845"><ele>1079.0</ele><time>2026-05-02T11:23:27.99Z</time></trkpt><trkpt lat="44.804105" lon="9.3148333"><ele>1079.0</ele><time>2026-05-02T11:23:28.989Z</time></trkpt><trkpt lat="44.8040117" lon="9.3148283"><ele>1076.6000000000001</ele><time>2026-05-02T11:23:29.989Z</time></trkpt><trkpt lat="44.8039183" lon="9.3148267"><ele>1074.2</ele><time>2026-05-02T11:23:30.99Z</time></trkpt><trkpt lat="44.8038233" lon="9.3148217"><ele>1071.8000000000002</ele><time>2026-05-02T11:23:31.989Z</time></trkpt><trkpt lat="44.8037267" lon="9.3148183"><ele>1069.4</ele><time>2026-05-02T11:23:32.992Z</time></trkpt><trkpt lat="44.8036283" lon="9.3148167"><ele>1067.0</ele><time>2026-05-02T11:23:33.991Z</time></trkpt><trkpt lat="44.803525" lon="9.3148217"><ele>1067.75</ele><time>2026-05-02T11:23:34.989Z</time></trkpt><trkpt lat="44.8034183" lon="9.3148233"><ele>1068.5</ele><time>2026-05-02T11:23:35.99Z</time></trkpt><trkpt lat="44.8033083" lon="9.3148183"><ele>1069.25</ele><time>2026-05-02T11:23:36.989Z</time></trkpt><trkpt lat="44.80319" lon="9.3148067"><ele>1070.0</ele><time>2026-05-02T11:23:37.991Z</time></trkpt><trkpt lat="44.803065" lon="9.3147983"><ele>1070.0</ele><time>2026-05-02T11:23:38.99Z</time></trkpt><trkpt lat="44.80295" lon="9.3148117"><ele>1070.0</ele><time>2026-05-02T11:23:39.989Z</time></trkpt><trkpt lat="44.80285" lon="9.3148483"><ele>1070.0</ele><time>2026-05-02T11:23:40.989Z</time></trkpt><trkpt lat="44.80276" lon="9.3148967"><ele>1070.0</ele><time>2026-05-02T11:23:41.991Z</time></trkpt><trkpt lat="44.80268" lon="9.3149383"><ele>1070.0</ele><time>2026-05-02T11:23:42.99Z</time></trkpt><trkpt lat="44.8026067" lon="9.3149783"><ele>1071.5</ele><time>2026-05-02T11:23:43.989Z</time></trkpt><trkpt lat="44.8025333" lon="9.3150017"><ele>1073.0</ele><time>2026-05-02T11:23:44.99Z</time></trkpt><trkpt lat="44.8024633" lon="9.3149683"><ele>1074.5</ele><time>2026-05-02T11:23:45.989Z</time></trkpt><trkpt lat="44.8024167" lon="9.3149083"><ele>1076.0</ele><time>2026-05-02T11:23:46.989Z</time></trkpt><trkpt lat="44.8024417" lon="9.31472"><ele>1077.5</ele><time>2026-05-02T11:23:48.99Z</time></trkpt><trkpt lat="44.8025" lon="9.3146117"><ele>1079.0</ele><time>2026-05-02T11:23:49.99Z</time></trkpt><trkpt lat="44.8025733" lon="9.3145033"><ele>1080.0</ele><time>2026-05-02T11:23:50.99Z</time></trkpt><trkpt lat="44.8026517" lon="9.3143917"><ele>1081.0</ele><time>2026-05-02T11:23:51.99Z</time></trkpt><trkpt lat="44.8027283" lon="9.3142817"><ele>1082.0</ele><time>2026-05-02T11:23:52.99Z</time></trkpt><trkpt lat="44.802805" lon="9.3141717"><ele>1083.0</ele><time>2026-05-02T11:23:53.99Z</time></trkpt><trkpt lat="44.8028833" lon="9.3140633"><ele>1084.0</ele><time>2026-05-02T11:23:54.99Z</time></trkpt><trkpt lat="44.8029617" lon="9.3139533"><ele>1085.6000000000001</ele><time>2026-05-02T11:23:55.991Z</time></trkpt><trkpt lat="44.8030417" lon="9.3138433"><ele>1087.2</ele><time>2026-05-02T11:23:56.99Z</time></trkpt><trkpt lat="44.8031183" lon="9.3137333"><ele>1088.8000000000002</ele><time>2026-05-02T11:23:57.989Z</time></trkpt><trkpt lat="44.8031883" lon="9.3136233"><ele>1090.4</ele><time>2026-05-02T11:23:58.989Z</time></trkpt><trkpt lat="44.803255" lon="9.3135117"><ele>1092.0</ele><time>2026-05-02T11:23:59.991Z</time></trkpt><trkpt lat="44.803315" lon="9.3134033"><ele>1092.0</ele><time>2026-05-02T11:24:00.99Z</time></trkpt><trkpt lat="44.8033633" lon="9.313295"><ele>1092.0</ele><time>2026-05-02T11:24:01.99Z</time></trkpt><trkpt lat="44.8034" lon="9.3131833"><ele>1092.0</ele><time>2026-05-02T11:24:02.991Z</time></trkpt><trkpt lat="44.8034133" lon="9.3130683"><ele>1092.0</ele><time>2026-05-02T11:24:03.99Z</time></trkpt><trkpt lat="44.8034" lon="9.3129533"><ele>1092.0</ele><time>2026-05-02T11:24:04.99Z</time></trkpt><trkpt lat="44.8033533" lon="9.3128583"><ele>1092.0</ele><time>2026-05-02T11:24:05.99Z</time></trkpt><trkpt lat="44.8032817" lon="9.3127967"><ele>1094.4</ele><time>2026-05-02T11:24:06.99Z</time></trkpt><trkpt lat="44.8031967" lon="9.3127867"><ele>1096.8000000000002</ele><time>2026-05-02T11:24:07.99Z</time></trkpt><trkpt lat="44.8031017" lon="9.31284"><ele>1099.2</ele><time>2026-05-02T11:24:08.991Z</time></trkpt><trkpt lat="44.8030117" lon="9.3129067"><ele>1101.6000000000001</ele><time>2026-05-02T11:24:09.99Z</time></trkpt><trkpt lat="44.8029167" lon="9.3129767"><ele>1104.0</ele><time>2026-05-02T11:24:10.991Z</time></trkpt><trkpt lat="44.802815" lon="9.313045"><ele>1102.0</ele><time>2026-05-02T11:24:11.99Z</time></trkpt><trkpt lat="44.8027167" lon="9.3131117"><ele>1100.0</ele><time>2026-05-02T11:24:12.99Z</time></trkpt><trkpt lat="44.8026167" lon="9.3131833"><ele>1098.0</ele><time>2026-05-02T11:24:13.99Z</time></trkpt><trkpt lat="44.8025217" lon="9.31325"><ele>1096.0</ele><time>2026-05-02T11:24:14.99Z</time></trkpt><trkpt lat="44.8024333" lon="9.3133033"><ele>1094.0</ele><time>2026-05-02T11:24:15.99Z</time></trkpt><trkpt lat="44.8023467" lon="9.3133367"><ele>1094.0</ele><time>2026-05-02T11:24:16.996Z</time></trkpt><trkpt lat="44.802265" lon="9.3133467"><ele>1094.0</ele><time>2026-05-02T11:24:17.991Z</time></trkpt><trkpt lat="44.8021933" lon="9.3133383"><ele>1094.0</ele><time>2026-05-02T11:24:18.99Z</time></trkpt><trkpt lat="44.8020783" lon="9.31332"><ele>1094.0</ele><time>2026-05-02T11:24:20.991Z</time></trkpt><trkpt lat="44.8019683" lon="9.313335"><ele>1094.0</ele><time>2026-05-02T11:24:22.989Z</time></trkpt><trkpt lat="44.8019017" lon="9.31337"><ele>1095.4</ele><time>2026-05-02T11:24:23.99Z</time></trkpt><trkpt lat="44.8018267" lon="9.3134267"><ele>1096.8000000000002</ele><time>2026-05-02T11:24:24.99Z</time></trkpt><trkpt lat="44.8017383" lon="9.3134983"><ele>1098.1999999999998</ele><time>2026-05-02T11:24:25.99Z</time></trkpt><trkpt lat="44.8016433" lon="9.3135783"><ele>1099.6</ele><time>2026-05-02T11:24:26.99Z</time></trkpt><trkpt lat="44.8015517" lon="9.31365"><ele>1101.0</ele><time>2026-05-02T11:24:27.99Z</time></trkpt><trkpt lat="44.8014583" lon="9.313695"><ele>1101.0</ele><time>2026-05-02T11:24:28.99Z</time></trkpt><trkpt lat="44.8013683" lon="9.3137067"><ele>1101.0</ele><time>2026-05-02T11:24:29.99Z</time></trkpt><trkpt lat="44.8012767" lon="9.3136833"><ele>1101.0</ele><time>2026-05-02T11:24:30.99Z</time></trkpt><trkpt lat="44.8011883" lon="9.313635"><ele>1101.0</ele><time>2026-05-02T11:24:31.989Z</time></trkpt><trkpt lat="44.8011083" lon="9.3135867"><ele>1101.0</ele><time>2026-05-02T11:24:32.99Z</time></trkpt><trkpt lat="44.8010367" lon="9.31355"><ele>1101.0</ele><time>2026-05-02T11:24:33.99Z</time></trkpt><trkpt lat="44.800965" lon="9.313525"><ele>1101.1666666666667</ele><time>2026-05-02T11:24:34.99Z</time></trkpt><trkpt lat="44.8008717" lon="9.3134817"><ele>1101.3333333333333</ele><time>2026-05-02T11:24:36.991Z</time></trkpt><trkpt lat="44.80081" lon="9.3134383"><ele>1101.5</ele><time>2026-05-02T11:24:38.99Z</time></trkpt><trkpt lat="44.8007417" lon="9.3133333"><ele>1101.6666666666665</ele><time>2026-05-02T11:25:31.989Z</time></trkpt><trkpt lat="44.80069" lon="9.313215"><ele>1101.8333333333333</ele><time>2026-05-02T11:25:33.99Z</time></trkpt><trkpt lat="44.8006583" lon="9.3131333"><ele>1102.0</ele><time>2026-05-02T11:25:34.989Z</time></trkpt><trkpt lat="44.8006183" lon="9.3130383"><ele>1102.0</ele><time>2026-05-02T11:25:35.989Z</time></trkpt><trkpt lat="44.8005633" lon="9.312925"><ele>1102.0</ele><time>2026-05-02T11:25:36.99Z</time></trkpt><trkpt lat="44.8005017" lon="9.3128033"><ele>1102.0</ele><time>2026-05-02T11:25:37.989Z</time></trkpt><trkpt lat="44.8004283" lon="9.3126833"><ele>1102.0</ele><time>2026-05-02T11:25:38.99Z</time></trkpt><trkpt lat="44.8003533" lon="9.31256"><ele>1102.0</ele><time>2026-05-02T11:25:39.991Z</time></trkpt><trkpt lat="44.80027" lon="9.3124033"><ele>1102.0</ele><time>2026-05-02T11:25:40.99Z</time></trkpt><trkpt lat="44.800185" lon="9.3122717"><ele>1102.0</ele><time>2026-05-02T11:25:41.99Z</time></trkpt><trkpt lat="44.800095" lon="9.3121517"><ele>1102.0</ele><time>2026-05-02T11:25:42.99Z</time></trkpt><trkpt lat="44.8000067" lon="9.312045"><ele>1102.0</ele><time>2026-05-02T11:25:43.99Z</time></trkpt><trkpt lat="44.7999167" lon="9.3119383"><ele>1101.75</ele><time>2026-05-02T11:25:44.99Z</time></trkpt><trkpt lat="44.79984" lon="9.3117817"><ele>1101.5</ele><time>2026-05-02T11:25:45.99Z</time></trkpt><trkpt lat="44.799795" lon="9.3116183"><ele>1101.25</ele><time>2026-05-02T11:25:46.99Z</time></trkpt><trkpt lat="44.7997583" lon="9.311445"><ele>1101.0</ele><time>2026-05-02T11:25:47.99Z</time></trkpt><trkpt lat="44.79972" lon="9.3112867"><ele>1101.0</ele><time>2026-05-02T11:25:48.99Z</time></trkpt><trkpt lat="44.7996667" lon="9.311145"><ele>1101.0</ele><time>2026-05-02T11:25:49.99Z</time></trkpt><trkpt lat="44.7995883" lon="9.311025"><ele>1101.0</ele><time>2026-05-02T11:25:50.99Z</time></trkpt><trkpt lat="44.7994983" lon="9.31091"><ele>1101.0</ele><time>2026-05-02T11:25:51.99Z</time></trkpt><trkpt lat="44.7993817" lon="9.310835"><ele>1106.25</ele><time>2026-05-02T11:25:52.992Z</time></trkpt><trkpt lat="44.799245" lon="9.3108067"><ele>1111.5</ele><time>2026-05-02T11:25:53.99Z</time></trkpt><trkpt lat="44.7990983" lon="9.3108017"><ele>1116.75</ele><time>2026-05-02T11:25:54.99Z</time></trkpt><trkpt lat="44.7989517" lon="9.3107933"><ele>1122.0</ele><time>2026-05-02T11:25:55.989Z</time></trkpt><trkpt lat="44.7988217" lon="9.3107517"><ele>1122.0</ele><time>2026-05-02T11:25:56.99Z</time></trkpt><trkpt lat="44.79868" lon="9.3106967"><ele>1122.0</ele><time>2026-05-02T11:25:57.99Z</time></trkpt><trkpt lat="44.79854" lon="9.3106417"><ele>1122.0</ele><time>2026-05-02T11:25:58.991Z</time></trkpt><trkpt lat="44.7983867" lon="9.3105933"><ele>1122.0</ele><time>2026-05-02T11:25:59.99Z</time></trkpt><trkpt lat="44.79824" lon="9.3105433"><ele>1118.0</ele><time>2026-05-02T11:26:00.99Z</time></trkpt><trkpt lat="44.7980933" lon="9.3104817"><ele>1114.0</ele><time>2026-05-02T11:26:01.99Z</time></trkpt><trkpt lat="44.7979517" lon="9.3104133"><ele>1110.0</ele><time>2026-05-02T11:26:02.992Z</time></trkpt><trkpt lat="44.7978133" lon="9.3103167"><ele>1110.0</ele><time>2026-05-02T11:26:03.989Z</time></trkpt><trkpt lat="44.7976717" lon="9.3102117"><ele>1110.0</ele><time>2026-05-02T11:26:04.99Z</time></trkpt><trkpt lat="44.7975317" lon="9.3101183"><ele>1110.0</ele><time>2026-05-02T11:26:05.99Z</time></trkpt><trkpt lat="44.7973967" lon="9.3100483"><ele>1113.75</ele><time>2026-05-02T11:26:06.99Z</time></trkpt><trkpt lat="44.7972617" lon="9.3100033"><ele>1117.5</ele><time>2026-05-02T11:26:07.989Z</time></trkpt><trkpt lat="44.797125" lon="9.309985"><ele>1121.25</ele><time>2026-05-02T11:26:08.991Z</time></trkpt><trkpt lat="44.796985" lon="9.30998"><ele>1125.0</ele><time>2026-05-02T11:26:09.99Z</time></trkpt><trkpt lat="44.79684" lon="9.3099783"><ele>1126.75</ele><time>2026-05-02T11:26:10.989Z</time></trkpt><trkpt lat="44.7966867" lon="9.3099733"><ele>1128.5</ele><time>2026-05-02T11:26:11.99Z</time></trkpt><trkpt lat="44.7965383" lon="9.309965"><ele>1130.25</ele><time>2026-05-02T11:26:12.99Z</time></trkpt><trkpt lat="44.796395" lon="9.309965"><ele>1132.0</ele><time>2026-05-02T11:26:13.99Z</time></trkpt><trkpt lat="44.796255" lon="9.3099767"><ele>1132.0</ele><time>2026-05-02T11:26:14.99Z</time></trkpt><trkpt lat="44.7961167" lon="9.3100083"><ele>1132.0</ele><time>2026-05-02T11:26:15.99Z</time></trkpt><trkpt lat="44.79598" lon="9.3100483"><ele>1132.0</ele><time>2026-05-02T11:26:16.991Z</time></trkpt><trkpt lat="44.7958583" lon="9.3100967"><ele>1132.0</ele><time>2026-05-02T11:26:17.991Z</time></trkpt><trkpt lat="44.79574" lon="9.310155"><ele>1131.0</ele><time>2026-05-02T11:26:18.99Z</time></trkpt><trkpt lat="44.795635" lon="9.31024"><ele>1130.0</ele><time>2026-05-02T11:26:19.991Z</time></trkpt><trkpt lat="44.7955383" lon="9.310345"><ele>1129.0</ele><time>2026-05-02T11:26:20.99Z</time></trkpt><trkpt lat="44.7954333" lon="9.3104617"><ele>1128.0</ele><time>2026-05-02T11:26:21.99Z</time></trkpt><trkpt lat="44.795315" lon="9.3105717"><ele>1130.25</ele><time>2026-05-02T11:26:22.991Z</time></trkpt><trkpt lat="44.7951967" lon="9.3106833"><ele>1132.5</ele><time>2026-05-02T11:26:23.99Z</time></trkpt><trkpt lat="44.795075" lon="9.3108067"><ele>1134.75</ele><time>2026-05-02T11:26:24.99Z</time></trkpt><trkpt lat="44.7949633" lon="9.3109383"><ele>1137.0</ele><time>2026-05-02T11:26:25.99Z</time></trkpt><trkpt lat="44.7948583" lon="9.3110617"><ele>1137.0</ele><time>2026-05-02T11:26:26.99Z</time></trkpt><trkpt lat="44.7947583" lon="9.31117"><ele>1137.0</ele><time>2026-05-02T11:26:27.99Z</time></trkpt><trkpt lat="44.7946633" lon="9.3112567"><ele>1137.0</ele><time>2026-05-02T11:26:28.989Z</time></trkpt><trkpt lat="44.7945733" lon="9.3113233"><ele>1137.0</ele><time>2026-05-02T11:26:29.992Z</time></trkpt><trkpt lat="44.7944933" lon="9.3113667"><ele>1137.0</ele><time>2026-05-02T11:26:30.989Z</time></trkpt><trkpt lat="44.7944183" lon="9.311375"><ele>1137.0</ele><time>2026-05-02T11:26:31.989Z</time></trkpt><trkpt lat="44.7943733" lon="9.31131"><ele>1137.0</ele><time>2026-05-02T11:26:32.989Z</time></trkpt><trkpt lat="44.7943583" lon="9.3111133"><ele>1137.0</ele><time>2026-05-02T11:26:34.989Z</time></trkpt><trkpt lat="44.7943633" lon="9.3109867"><ele>1137.0</ele><time>2026-05-02T11:26:35.991Z</time></trkpt><trkpt lat="44.79435" lon="9.310855"><ele>1137.0</ele><time>2026-05-02T11:26:36.989Z</time></trkpt><trkpt lat="44.79431" lon="9.3107233"><ele>1136.25</ele><time>2026-05-02T11:26:37.988Z</time></trkpt><trkpt lat="44.7942417" lon="9.3105933"><ele>1135.5</ele><time>2026-05-02T11:26:38.99Z</time></trkpt><trkpt lat="44.7941583" lon="9.3104633"><ele>1134.75</ele><time>2026-05-02T11:26:39.989Z</time></trkpt><trkpt lat="44.79407" lon="9.3103317"><ele>1134.0</ele><time>2026-05-02T11:26:40.989Z</time></trkpt><trkpt lat="44.7939867" lon="9.3102033"><ele>1134.0</ele><time>2026-05-02T11:26:41.989Z</time></trkpt><trkpt lat="44.793905" lon="9.310075"><ele>1134.0</ele><time>2026-05-02T11:26:42.989Z</time></trkpt><trkpt lat="44.7938317" lon="9.3099467"><ele>1134.0</ele><time>2026-05-02T11:26:43.989Z</time></trkpt><trkpt lat="44.79377" lon="9.3098067"><ele>1134.0</ele><time>2026-05-02T11:26:44.989Z</time></trkpt><trkpt lat="44.793735" lon="9.30965"><ele>1132.8</ele><time>2026-05-02T11:26:45.989Z</time></trkpt><trkpt lat="44.7937233" lon="9.3094917"><ele>1131.6000000000001</ele><time>2026-05-02T11:26:46.988Z</time></trkpt><trkpt lat="44.79372" lon="9.309335"><ele>1130.4</ele><time>2026-05-02T11:26:47.988Z</time></trkpt><trkpt lat="44.7937017" lon="9.309195"><ele>1129.2</ele><time>2026-05-02T11:26:48.994Z</time></trkpt><trkpt lat="44.793645" lon="9.30909"><ele>1128.0</ele><time>2026-05-02T11:26:49.989Z</time></trkpt><trkpt lat="44.79356" lon="9.3090283"><ele>1129.2</ele><time>2026-05-02T11:26:50.989Z</time></trkpt><trkpt lat="44.79347" lon="9.309005"><ele>1130.4</ele><time>2026-05-02T11:26:51.988Z</time></trkpt><trkpt lat="44.79338" lon="9.3089717"><ele>1131.6000000000001</ele><time>2026-05-02T11:26:52.989Z</time></trkpt><trkpt lat="44.7932817" lon="9.308905"><ele>1132.8</ele><time>2026-05-02T11:26:53.989Z</time></trkpt><trkpt lat="44.7931933" lon="9.3088117"><ele>1134.0</ele><time>2026-05-02T11:26:54.989Z</time></trkpt><trkpt lat="44.793115" lon="9.3086983"><ele>1134.0</ele><time>2026-05-02T11:26:55.99Z</time></trkpt><trkpt lat="44.7930267" lon="9.3085883"><ele>1134.0</ele><time>2026-05-02T11:26:56.992Z</time></trkpt><trkpt lat="44.79295" lon="9.3084583"><ele>1134.0</ele><time>2026-05-02T11:26:57.99Z</time></trkpt><trkpt lat="44.7928817" lon="9.30831"><ele>1134.0</ele><time>2026-05-02T11:26:58.99Z</time></trkpt><trkpt lat="44.792825" lon="9.308135"><ele>1131.5</ele><time>2026-05-02T11:26:59.99Z</time></trkpt><trkpt lat="44.792775" lon="9.3079633"><ele>1129.0</ele><time>2026-05-02T11:27:00.988Z</time></trkpt><trkpt lat="44.7927367" lon="9.30779"><ele>1126.5</ele><time>2026-05-02T11:27:01.99Z</time></trkpt><trkpt lat="44.7927317" lon="9.3076267"><ele>1124.0</ele><time>2026-05-02T11:27:02.989Z</time></trkpt><trkpt lat="44.792745" lon="9.3074867"><ele>1124.0</ele><time>2026-05-02T11:27:03.988Z</time></trkpt><trkpt lat="44.7927817" lon="9.30736"><ele>1124.0</ele><time>2026-05-02T11:27:04.989Z</time></trkpt><trkpt lat="44.79283" lon="9.307235"><ele>1124.0</ele><time>2026-05-02T11:27:05.989Z</time></trkpt><trkpt lat="44.792875" lon="9.3071"><ele>1124.0</ele><time>2026-05-02T11:27:06.989Z</time></trkpt><trkpt lat="44.7928983" lon="9.3069583"><ele>1124.0</ele><time>2026-05-02T11:27:07.989Z</time></trkpt><trkpt lat="44.7928967" lon="9.3068283"><ele>1123.5</ele><time>2026-05-02T11:27:08.989Z</time></trkpt><trkpt lat="44.79285" lon="9.3067333"><ele>1123.0</ele><time>2026-05-02T11:27:09.988Z</time></trkpt><trkpt lat="44.7927883" lon="9.3066883"><ele>1122.5</ele><time>2026-05-02T11:27:10.989Z</time></trkpt><trkpt lat="44.792715" lon="9.3066883"><ele>1122.0</ele><time>2026-05-02T11:27:11.989Z</time></trkpt><trkpt lat="44.7926283" lon="9.30672"><ele>1121.5</ele><time>2026-05-02T11:27:12.99Z</time></trkpt><trkpt lat="44.7925433" lon="9.3067617"><ele>1121.0</ele><time>2026-05-02T11:27:13.989Z</time></trkpt><trkpt lat="44.792465" lon="9.3068"><ele>1124.8</ele><time>2026-05-02T11:27:14.989Z</time></trkpt><trkpt lat="44.7924017" lon="9.3068267"><ele>1128.6</ele><time>2026-05-02T11:27:15.989Z</time></trkpt><trkpt lat="44.7922883" lon="9.3068617"><ele>1132.4</ele><time>2026-05-02T11:27:17.989Z</time></trkpt><trkpt lat="44.7921883" lon="9.3068567"><ele>1136.2</ele><time>2026-05-02T11:27:19.99Z</time></trkpt><trkpt lat="44.7920533" lon="9.3068167"><ele>1140.0</ele><time>2026-05-02T11:27:21.99Z</time></trkpt><trkpt lat="44.791985" lon="9.306775"><ele>1140.0</ele><time>2026-05-02T11:27:22.99Z</time></trkpt><trkpt lat="44.7918983" lon="9.3067217"><ele>1140.0</ele><time>2026-05-02T11:27:23.989Z</time></trkpt><trkpt lat="44.79181" lon="9.306665"><ele>1140.0</ele><time>2026-05-02T11:27:24.989Z</time></trkpt><trkpt lat="44.7917133" lon="9.3066083"><ele>1140.0</ele><time>2026-05-02T11:27:25.99Z</time></trkpt><trkpt lat="44.7916183" lon="9.3065467"><ele>1140.0</ele><time>2026-05-02T11:27:26.989Z</time></trkpt><trkpt lat="44.7915333" lon="9.3064917"><ele>1141.8333333333333</ele><time>2026-05-02T11:27:27.989Z</time></trkpt><trkpt lat="44.7914417" lon="9.30645"><ele>1143.6666666666667</ele><time>2026-05-02T11:27:28.99Z</time></trkpt><trkpt lat="44.7913517" lon="9.306435"><ele>1145.5</ele><time>2026-05-02T11:27:29.992Z</time></trkpt><trkpt lat="44.7912767" lon="9.3064383"><ele>1147.3333333333335</ele><time>2026-05-02T11:27:30.993Z</time></trkpt><trkpt lat="44.79122" lon="9.3064917"><ele>1149.1666666666667</ele><time>2026-05-02T11:27:31.989Z</time></trkpt><trkpt lat="44.7911717" lon="9.3065683"><ele>1151.0</ele><time>2026-05-02T11:27:32.991Z</time></trkpt><trkpt lat="44.7911383" lon="9.3066567"><ele>1151.0</ele><time>2026-05-02T11:27:33.989Z</time></trkpt><trkpt lat="44.7911233" lon="9.3067667"><ele>1151.0</ele><time>2026-05-02T11:27:34.989Z</time></trkpt><trkpt lat="44.791135" lon="9.30689"><ele>1151.0</ele><time>2026-05-02T11:27:35.99Z</time></trkpt><trkpt lat="44.7911533" lon="9.307015"><ele>1151.0</ele><time>2026-05-02T11:27:36.989Z</time></trkpt><trkpt lat="44.791145" lon="9.3071333"><ele>1151.0</ele><time>2026-05-02T11:27:37.99Z</time></trkpt><trkpt lat="44.791135" lon="9.3072367"><ele>1151.0</ele><time>2026-05-02T11:27:38.991Z</time></trkpt><trkpt lat="44.791035" lon="9.3073783"><ele>1156.2</ele><time>2026-05-02T11:27:40.989Z</time></trkpt><trkpt lat="44.7909567" lon="9.307435"><ele>1161.3999999999999</ele><time>2026-05-02T11:27:41.99Z</time></trkpt><trkpt lat="44.7908717" lon="9.3074883"><ele>1166.6</ele><time>2026-05-02T11:27:42.989Z</time></trkpt><trkpt lat="44.7907717" lon="9.3075267"><ele>1171.8</ele><time>2026-05-02T11:27:43.99Z</time></trkpt><trkpt lat="44.7906867" lon="9.307565"><ele>1177.0</ele><time>2026-05-02T11:27:44.991Z</time></trkpt><trkpt lat="44.79061" lon="9.3075983"><ele>1177.0</ele><time>2026-05-02T11:27:45.99Z</time></trkpt><trkpt lat="44.7905267" lon="9.3076317"><ele>1177.0</ele><time>2026-05-02T11:27:46.99Z</time></trkpt><trkpt lat="44.79044" lon="9.3076667"><ele>1177.0</ele><time>2026-05-02T11:27:47.989Z</time></trkpt><trkpt lat="44.7903383" lon="9.3076967"><ele>1177.0</ele><time>2026-05-02T11:27:48.989Z</time></trkpt><trkpt lat="44.7902417" lon="9.30773"><ele>1177.0</ele><time>2026-05-02T11:27:49.989Z</time></trkpt><trkpt lat="44.7901433" lon="9.307775"><ele>1178.4</ele><time>2026-05-02T11:27:50.99Z</time></trkpt><trkpt lat="44.790045" lon="9.3078183"><ele>1179.8000000000002</ele><time>2026-05-02T11:27:51.989Z</time></trkpt><trkpt lat="44.7899517" lon="9.3078583"><ele>1181.2</ele><time>2026-05-02T11:27:52.989Z</time></trkpt><trkpt lat="44.789855" lon="9.3078967"><ele>1182.6000000000001</ele><time>2026-05-02T11:27:53.989Z</time></trkpt><trkpt lat="44.789765" lon="9.3079383"><ele>1184.0</ele><time>2026-05-02T11:27:54.989Z</time></trkpt><trkpt lat="44.7896683" lon="9.3079767"><ele>1184.0</ele><time>2026-05-02T11:27:55.989Z</time></trkpt><trkpt lat="44.78956" lon="9.3080183"><ele>1184.0</ele><time>2026-05-02T11:27:56.99Z</time></trkpt><trkpt lat="44.78946" lon="9.30805"><ele>1184.0</ele><time>2026-05-02T11:27:57.989Z</time></trkpt><trkpt lat="44.78937" lon="9.308085"><ele>1184.0</ele><time>2026-05-02T11:27:58.989Z</time></trkpt><trkpt lat="44.7892933" lon="9.308135"><ele>1184.0</ele><time>2026-05-02T11:27:59.989Z</time></trkpt><trkpt lat="44.789215" lon="9.3081833"><ele>1187.6666666666667</ele><time>2026-05-02T11:28:00.99Z</time></trkpt><trkpt lat="44.7891505" lon="9.3082374"><ele>1191.3333333333335</ele><time>2026-05-02T11:28:01.99Z</time></trkpt><trkpt lat="44.789094" lon="9.308302"><ele>1195.0</ele><time>2026-05-02T11:28:02.99Z</time></trkpt><trkpt lat="44.7890532" lon="9.3083733"><ele>1198.6666666666667</ele><time>2026-05-02T11:28:03.99Z</time></trkpt><trkpt lat="44.7890942" lon="9.3085562"><ele>1202.3333333333333</ele><time>2026-05-02T11:28:05.989Z</time></trkpt><trkpt lat="44.7891537" lon="9.308658"><ele>1206.0</ele><time>2026-05-02T11:28:06.989Z</time></trkpt><trkpt lat="44.7892051" lon="9.3087456"><ele>1206.0</ele><time>2026-05-02T11:28:07.989Z</time></trkpt><trkpt lat="44.7892898" lon="9.3088202"><ele>1206.0</ele><time>2026-05-02T11:28:08.989Z</time></trkpt><trkpt lat="44.7893901" lon="9.3088918"><ele>1206.0</ele><time>2026-05-02T11:28:09.989Z</time></trkpt><trkpt lat="44.7894862" lon="9.3089646"><ele>1206.0</ele><time>2026-05-02T11:28:10.99Z</time></trkpt><trkpt lat="44.7895615" lon="9.3090383"><ele>1206.0</ele><time>2026-05-02T11:28:11.99Z</time></trkpt><trkpt lat="44.7896233" lon="9.3091128"><ele>1208.1666666666667</ele><time>2026-05-02T11:28:12.99Z</time></trkpt><trkpt lat="44.7896783" lon="9.3091894"><ele>1210.3333333333333</ele><time>2026-05-02T11:28:13.99Z</time></trkpt><trkpt lat="44.7897209" lon="9.3092653"><ele>1212.5</ele><time>2026-05-02T11:28:14.99Z</time></trkpt><trkpt lat="44.7896511" lon="9.3094099"><ele>1214.6666666666665</ele><time>2026-05-02T11:28:16.988Z</time></trkpt><trkpt lat="44.7895872" lon="9.3094494"><ele>1216.8333333333333</ele><time>2026-05-02T11:28:17.99Z</time></trkpt><trkpt lat="44.7894957" lon="9.3094643"><ele>1219.0</ele><time>2026-05-02T11:28:18.989Z</time></trkpt><trkpt lat="44.7894012" lon="9.3094786"><ele>1219.25</ele><time>2026-05-02T11:28:19.991Z</time></trkpt><trkpt lat="44.7892939" lon="9.3095023"><ele>1219.5</ele><time>2026-05-02T11:28:20.989Z</time></trkpt><trkpt lat="44.7891784" lon="9.3095383"><ele>1219.75</ele><time>2026-05-02T11:28:21.989Z</time></trkpt><trkpt lat="44.7890691" lon="9.3095937"><ele>1220.0</ele><time>2026-05-02T11:28:22.989Z</time></trkpt><trkpt lat="44.7889679" lon="9.3096583"><ele>1220.0</ele><time>2026-05-02T11:28:23.991Z</time></trkpt><trkpt lat="44.7888726" lon="9.3097095"><ele>1220.0</ele><time>2026-05-02T11:28:24.989Z</time></trkpt><trkpt lat="44.7887836" lon="9.3097501"><ele>1220.0</ele><time>2026-05-02T11:28:25.989Z</time></trkpt><trkpt lat="44.7886878" lon="9.3097622"><ele>1220.0</ele><time>2026-05-02T11:28:26.99Z</time></trkpt><trkpt lat="44.788572" lon="9.3097608"><ele>1220.0</ele><time>2026-05-02T11:28:27.989Z</time></trkpt><trkpt lat="44.7884647" lon="9.3097616"><ele>1225.4</ele><time>2026-05-02T11:28:28.989Z</time></trkpt><trkpt lat="44.7883666" lon="9.3097716"><ele>1230.8</ele><time>2026-05-02T11:28:29.989Z</time></trkpt><trkpt lat="44.7882788" lon="9.3097951"><ele>1236.2</ele><time>2026-05-02T11:28:30.989Z</time></trkpt><trkpt lat="44.7881793" lon="9.3098384"><ele>1241.6</ele><time>2026-05-02T11:28:31.99Z</time></trkpt><trkpt lat="44.7880787" lon="9.3098922"><ele>1247.0</ele><time>2026-05-02T11:28:32.989Z</time></trkpt><trkpt lat="44.7879929" lon="9.3099499"><ele>1247.0</ele><time>2026-05-02T11:28:33.989Z</time></trkpt><trkpt lat="44.7879138" lon="9.3099925"><ele>1247.0</ele><time>2026-05-02T11:28:34.988Z</time></trkpt><trkpt lat="44.7878424" lon="9.3100045"><ele>1247.0</ele><time>2026-05-02T11:28:35.989Z</time></trkpt><trkpt lat="44.7877783" lon="9.3099832"><ele>1247.0</ele><time>2026-05-02T11:28:36.989Z</time></trkpt><trkpt lat="44.7876911" lon="9.3098858"><ele>1247.0</ele><time>2026-05-02T11:28:38.99Z</time></trkpt><trkpt lat="44.7876794" lon="9.309788"><ele>1247.0</ele><time>2026-05-02T11:28:39.99Z</time></trkpt><trkpt lat="44.7876593" lon="9.3097003"><ele>1250.2</ele><time>2026-05-02T11:28:40.992Z</time></trkpt><trkpt lat="44.7876105" lon="9.3095517"><ele>1253.4</ele><time>2026-05-02T11:28:42.989Z</time></trkpt><trkpt lat="44.7875133" lon="9.3094937"><ele>1256.6</ele><time>2026-05-02T11:28:44.989Z</time></trkpt><trkpt lat="44.7874303" lon="9.3095238"><ele>1259.8</ele><time>2026-05-02T11:28:46.989Z</time></trkpt><trkpt lat="44.7873833" lon="9.3096379"><ele>1263.0</ele><time>2026-05-02T11:28:48.989Z</time></trkpt><trkpt lat="44.7874019" lon="9.3098123"><ele>1263.5714285714284</ele><time>2026-05-02T11:28:50.989Z</time></trkpt><trkpt lat="44.7874196" lon="9.3099113"><ele>1264.142857142857</ele><time>2026-05-02T11:28:51.99Z</time></trkpt><trkpt lat="44.7874503" lon="9.3100107"><ele>1264.7142857142858</ele><time>2026-05-02T11:28:52.989Z</time></trkpt><trkpt lat="44.7874881" lon="9.3101006"><ele>1265.2857142857142</ele><time>2026-05-02T11:28:53.99Z</time></trkpt><trkpt lat="44.7875149" lon="9.3101885"><ele>1265.857142857143</ele><time>2026-05-02T11:28:54.99Z</time></trkpt><trkpt lat="44.78754" lon="9.3102819"><ele>1266.4285714285713</ele><time>2026-05-02T11:28:55.989Z</time></trkpt><trkpt lat="44.7875624" lon="9.3103841"><ele>1267.0</ele><time>2026-05-02T11:28:56.99Z</time></trkpt><trkpt lat="44.7875919" lon="9.3104957"><ele>1265.8333333333333</ele><time>2026-05-02T11:28:57.989Z</time></trkpt><trkpt lat="44.787616" lon="9.3106022"><ele>1264.6666666666665</ele><time>2026-05-02T11:28:58.99Z</time></trkpt><trkpt lat="44.7876445" lon="9.3107067"><ele>1263.5</ele><time>2026-05-02T11:28:59.991Z</time></trkpt><trkpt lat="44.7876756" lon="9.3108078"><ele>1262.3333333333333</ele><time>2026-05-02T11:29:00.989Z</time></trkpt><trkpt lat="44.787716" lon="9.3109133"><ele>1261.1666666666667</ele><time>2026-05-02T11:29:01.99Z</time></trkpt><trkpt lat="44.7877582" lon="9.3110132"><ele>1260.0</ele><time>2026-05-02T11:29:02.99Z</time></trkpt><trkpt lat="44.7878058" lon="9.3111318"><ele>1260.0</ele><time>2026-05-02T11:29:03.99Z</time></trkpt><trkpt lat="44.7878729" lon="9.3112479"><ele>1260.0</ele><time>2026-05-02T11:29:04.989Z</time></trkpt><trkpt lat="44.7879488" lon="9.311364"><ele>1260.0</ele><time>2026-05-02T11:29:05.991Z</time></trkpt><trkpt lat="44.7880114" lon="9.311474"><ele>1260.0</ele><time>2026-05-02T11:29:06.99Z</time></trkpt><trkpt lat="44.7880666" lon="9.3115866"><ele>1260.0</ele><time>2026-05-02T11:29:07.99Z</time></trkpt><trkpt lat="44.7881186" lon="9.3117025"><ele>1265.0</ele><time>2026-05-02T11:29:08.99Z</time></trkpt><trkpt lat="44.7881637" lon="9.3118075"><ele>1270.0</ele><time>2026-05-02T11:29:09.989Z</time></trkpt><trkpt lat="44.7881978" lon="9.3119049"><ele>1275.0</ele><time>2026-05-02T11:29:10.989Z</time></trkpt><trkpt lat="44.7882703" lon="9.311954"><ele>1280.0</ele><time>2026-05-02T11:29:12.99Z</time></trkpt><trkpt lat="44.7883583" lon="9.31195"><ele>1285.0</ele><time>2026-05-02T11:29:14.99Z</time></trkpt><trkpt lat="44.78851" lon="9.3119467"><ele>1287.0</ele><time>2026-05-02T11:29:15.989Z</time></trkpt><trkpt lat="44.7886433" lon="9.3118867"><ele>1289.0</ele><time>2026-05-02T11:29:16.99Z</time></trkpt><trkpt lat="44.7887567" lon="9.311835"><ele>1291.0</ele><time>2026-05-02T11:29:17.989Z</time></trkpt><trkpt lat="44.7888717" lon="9.3117783"><ele>1293.0</ele><time>2026-05-02T11:29:18.989Z</time></trkpt><trkpt lat="44.7889683" lon="9.3117083"><ele>1293.0</ele><time>2026-05-02T11:29:19.989Z</time></trkpt><trkpt lat="44.7890633" lon="9.3116217"><ele>1293.0</ele><time>2026-05-02T11:29:20.99Z</time></trkpt><trkpt lat="44.7891583" lon="9.31151"><ele>1293.0</ele><time>2026-05-02T11:29:21.989Z</time></trkpt><trkpt lat="44.7892433" lon="9.31141"><ele>1293.0</ele><time>2026-05-02T11:29:22.99Z</time></trkpt><trkpt lat="44.78933" lon="9.3113117"><ele>1290.8000000000002</ele><time>2026-05-02T11:29:23.99Z</time></trkpt><trkpt lat="44.7894083" lon="9.3112317"><ele>1288.6</ele><time>2026-05-02T11:29:24.99Z</time></trkpt><trkpt lat="44.7894767" lon="9.3111867"><ele>1286.4</ele><time>2026-05-02T11:29:25.989Z</time></trkpt><trkpt lat="44.7895683" lon="9.311175"><ele>1284.1999999999998</ele><time>2026-05-02T11:29:27.989Z</time></trkpt><trkpt lat="44.7896617" lon="9.311225"><ele>1282.0</ele><time>2026-05-02T11:29:29.991Z</time></trkpt><trkpt lat="44.789735" lon="9.311325"><ele>1284.8</ele><time>2026-05-02T11:29:31.989Z</time></trkpt><trkpt lat="44.789785" lon="9.3114617"><ele>1287.6</ele><time>2026-05-02T11:29:33.99Z</time></trkpt><trkpt lat="44.7898033" lon="9.3115483"><ele>1290.3999999999999</ele><time>2026-05-02T11:29:35.989Z</time></trkpt><trkpt lat="44.7897133" lon="9.31147"><ele>1293.1999999999998</ele><time>2026-05-02T11:29:48.99Z</time></trkpt><trkpt lat="44.789625" lon="9.3114567"><ele>1296.0</ele><time>2026-05-02T11:29:50.99Z</time></trkpt><trkpt lat="44.7895233" lon="9.31152"><ele>1296.0</ele><time>2026-05-02T11:29:52.99Z</time></trkpt><trkpt lat="44.7894733" lon="9.3115833"><ele>1296.0</ele><time>2026-05-02T11:29:53.99Z</time></trkpt><trkpt lat="44.7894333" lon="9.31166"><ele>1296.0</ele><time>2026-05-02T11:29:54.989Z</time></trkpt><trkpt lat="44.7893983" lon="9.3117417"><ele>1296.0</ele><time>2026-05-02T11:29:55.989Z</time></trkpt><trkpt lat="44.7893733" lon="9.3118283"><ele>1296.0</ele><time>2026-05-02T11:29:56.99Z</time></trkpt><trkpt lat="44.7893633" lon="9.3119233"><ele>1296.0</ele><time>2026-05-02T11:29:57.989Z</time></trkpt><trkpt lat="44.7893717" lon="9.312035"><ele>1296.0</ele><time>2026-05-02T11:29:58.989Z</time></trkpt><trkpt lat="44.7894017" lon="9.312155"><ele>1296.4</ele><time>2026-05-02T11:29:59.989Z</time></trkpt><trkpt lat="44.78943" lon="9.31229"><ele>1296.8</ele><time>2026-05-02T11:30:00.989Z</time></trkpt><trkpt lat="44.7894517" lon="9.312435"><ele>1297.2</ele><time>2026-05-02T11:30:01.99Z</time></trkpt><trkpt lat="44.789475" lon="9.3125817"><ele>1297.6000000000001</ele><time>2026-05-02T11:30:02.992Z</time></trkpt><trkpt lat="44.7894917" lon="9.3127167"><ele>1298.0</ele><time>2026-05-02T11:30:03.989Z</time></trkpt><trkpt lat="44.7895033" lon="9.3128383"><ele>1298.0</ele><time>2026-05-02T11:30:04.99Z</time></trkpt><trkpt lat="44.78951" lon="9.3129583"><ele>1298.0</ele><time>2026-05-02T11:30:05.99Z</time></trkpt><trkpt lat="44.789515" lon="9.3130817"><ele>1298.0</ele><time>2026-05-02T11:30:06.99Z</time></trkpt><trkpt lat="44.789515" lon="9.3131967"><ele>1298.0</ele><time>2026-05-02T11:30:07.99Z</time></trkpt><trkpt lat="44.789505" lon="9.3132967"><ele>1298.0</ele><time>2026-05-02T11:30:08.991Z</time></trkpt><trkpt lat="44.78949" lon="9.3133833"><ele>1298.0</ele><time>2026-05-02T11:30:09.989Z</time></trkpt><trkpt lat="44.789455" lon="9.3134617"><ele>1299.1666666666667</ele><time>2026-05-02T11:30:10.99Z</time></trkpt><trkpt lat="44.789395" lon="9.3135217"><ele>1300.3333333333335</ele><time>2026-05-02T11:30:11.991Z</time></trkpt><trkpt lat="44.7893467" lon="9.3135867"><ele>1301.5</ele><time>2026-05-02T11:30:12.989Z</time></trkpt><trkpt lat="44.7892667" lon="9.3136817"><ele>1302.6666666666667</ele><time>2026-05-02T11:30:14.99Z</time></trkpt><trkpt lat="44.7892133" lon="9.3137667"><ele>1303.8333333333333</ele><time>2026-05-02T11:30:16.99Z</time></trkpt><trkpt lat="44.7892033" lon="9.3138917"><ele>1305.0</ele><time>2026-05-02T11:30:18.99Z</time></trkpt><trkpt lat="44.7892217" lon="9.314075"><ele>1310.0</ele><time>2026-05-02T11:30:20.989Z</time></trkpt><trkpt lat="44.7892233" lon="9.31419"><ele>1315.0</ele><time>2026-05-02T11:30:21.99Z</time></trkpt><trkpt lat="44.7892267" lon="9.3143117"><ele>1320.0</ele><time>2026-05-02T11:30:22.99Z</time></trkpt><trkpt lat="44.789225" lon="9.31444"><ele>1325.0</ele><time>2026-05-02T11:30:23.99Z</time></trkpt><trkpt lat="44.7892217" lon="9.31458"><ele>1330.0</ele><time>2026-05-02T11:30:24.989Z</time></trkpt><trkpt lat="44.78921" lon="9.3146933"><ele>1335.0</ele><time>2026-05-02T11:30:25.989Z</time></trkpt><trkpt lat="44.7892017" lon="9.3148017"><ele>1335.0</ele><time>2026-05-02T11:30:26.991Z</time></trkpt><trkpt lat="44.7891933" lon="9.3149083"><ele>1335.0</ele><time>2026-05-02T11:30:27.99Z</time></trkpt><trkpt lat="44.7891867" lon="9.31501"><ele>1335.0</ele><time>2026-05-02T11:30:28.99Z</time></trkpt><trkpt lat="44.7891817" lon="9.3151"><ele>1335.0</ele><time>2026-05-02T11:30:29.99Z</time></trkpt><trkpt lat="44.7891633" lon="9.3152317"><ele>1335.0</ele><time>2026-05-02T11:30:31.99Z</time></trkpt><trkpt lat="44.7891367" lon="9.31534"><ele>1335.0</ele><time>2026-05-02T11:30:33.99Z</time></trkpt><trkpt lat="44.7890633" lon="9.3153383"><ele>1335.0</ele><time>2026-05-02T11:30:35.99Z</time></trkpt><trkpt lat="44.788965" lon="9.31523"><ele>1335.0</ele><time>2026-05-02T11:30:37.99Z</time></trkpt><trkpt lat="44.7889133" lon="9.31515"><ele>1335.0</ele><time>2026-05-02T11:30:38.99Z</time></trkpt><trkpt lat="44.78886" lon="9.3150533"><ele>1335.0</ele><time>2026-05-02T11:30:39.99Z</time></trkpt><trkpt lat="44.7888067" lon="9.31494"><ele>1335.0</ele><time>2026-05-02T11:30:40.989Z</time></trkpt><trkpt lat="44.78877" lon="9.3148117"><ele>1335.0</ele><time>2026-05-02T11:30:41.99Z</time></trkpt><trkpt lat="44.7887433" lon="9.31467"><ele>1335.0</ele><time>2026-05-02T11:30:42.989Z</time></trkpt><trkpt lat="44.78872" lon="9.3145217"><ele>1335.0</ele><time>2026-05-02T11:30:43.989Z</time></trkpt><trkpt lat="44.7887067" lon="9.3143767"><ele>1335.0</ele><time>2026-05-02T11:30:44.99Z</time></trkpt><trkpt lat="44.788695" lon="9.3142433"><ele>1335.0</ele><time>2026-05-02T11:30:45.989Z</time></trkpt><trkpt lat="44.7886817" lon="9.314115"><ele>1335.0</ele><time>2026-05-02T11:30:46.989Z</time></trkpt><trkpt lat="44.788665" lon="9.3140033"><ele>1335.0</ele><time>2026-05-02T11:30:47.99Z</time></trkpt><trkpt lat="44.7886367" lon="9.313915"><ele>1335.0</ele><time>2026-05-02T11:30:48.989Z</time></trkpt><trkpt lat="44.7885467" lon="9.31386"><ele>1335.0</ele><time>2026-05-02T11:30:50.99Z</time></trkpt><trkpt lat="44.7885033" lon="9.3140217"><ele>1335.0</ele><time>2026-05-02T11:30:52.989Z</time></trkpt><trkpt lat="44.7885083" lon="9.31415"><ele>1335.0</ele><time>2026-05-02T11:30:53.989Z</time></trkpt><trkpt lat="44.788515" lon="9.3142867"><ele>1335.0</ele><time>2026-05-02T11:30:54.989Z</time></trkpt><trkpt lat="44.788525" lon="9.3144167"><ele>1335.0</ele><time>2026-05-02T11:30:55.992Z</time></trkpt><trkpt lat="44.788535" lon="9.31454"><ele>1335.0</ele><time>2026-05-02T11:30:56.989Z</time></trkpt><trkpt lat="44.78854" lon="9.3146617"><ele>1335.0</ele><time>2026-05-02T11:30:57.989Z</time></trkpt><trkpt lat="44.7885483" lon="9.31478"><ele>1335.0</ele><time>2026-05-02T11:30:58.99Z</time></trkpt><trkpt lat="44.7885517" lon="9.3149"><ele>1335.0</ele><time>2026-05-02T11:30:59.99Z</time></trkpt><trkpt lat="44.7885483" lon="9.3150183"><ele>1335.0</ele><time>2026-05-02T11:31:00.99Z</time></trkpt><trkpt lat="44.7885433" lon="9.315135"><ele>1335.0</ele><time>2026-05-02T11:31:01.991Z</time></trkpt><trkpt lat="44.7885333" lon="9.3152467"><ele>1335.0</ele><time>2026-05-02T11:31:02.99Z</time></trkpt><trkpt lat="44.788525" lon="9.31536"><ele>1335.0</ele><time>2026-05-02T11:31:03.989Z</time></trkpt><trkpt lat="44.7885133" lon="9.3154733"><ele>1335.0</ele><time>2026-05-02T11:31:04.991Z</time></trkpt><trkpt lat="44.788505" lon="9.3155933"><ele>1339.8</ele><time>2026-05-02T11:31:05.99Z</time></trkpt><trkpt lat="44.78849" lon="9.3157083"><ele>1344.6</ele><time>2026-05-02T11:31:06.99Z</time></trkpt><trkpt lat="44.78846" lon="9.3158067"><ele>1349.4</ele><time>2026-05-02T11:31:07.989Z</time></trkpt><trkpt lat="44.7883667" lon="9.3159283"><ele>1354.2</ele><time>2026-05-02T11:31:09.99Z</time></trkpt><trkpt lat="44.78829" lon="9.3159533"><ele>1359.0</ele><time>2026-05-02T11:31:10.989Z</time></trkpt><trkpt lat="44.788195" lon="9.3159633"><ele>1359.0</ele><time>2026-05-02T11:31:11.99Z</time></trkpt><trkpt lat="44.7880933" lon="9.3159583"><ele>1359.0</ele><time>2026-05-02T11:31:12.99Z</time></trkpt><trkpt lat="44.787995" lon="9.3159467"><ele>1359.0</ele><time>2026-05-02T11:31:13.99Z</time></trkpt><trkpt lat="44.7879017" lon="9.31593"><ele>1359.0</ele><time>2026-05-02T11:31:14.992Z</time></trkpt><trkpt lat="44.7878117" lon="9.31591"><ele>1359.0</ele><time>2026-05-02T11:31:15.989Z</time></trkpt><trkpt lat="44.7877183" lon="9.3158917"><ele>1362.0</ele><time>2026-05-02T11:31:16.99Z</time></trkpt><trkpt lat="44.78762" lon="9.31588"><ele>1365.0</ele><time>2026-05-02T11:31:17.991Z</time></trkpt><trkpt lat="44.7875183" lon="9.315875"><ele>1368.0</ele><time>2026-05-02T11:31:18.989Z</time></trkpt><trkpt lat="44.78742" lon="9.3158833"><ele>1371.0</ele><time>2026-05-02T11:31:19.991Z</time></trkpt><trkpt lat="44.7873283" lon="9.3159217"><ele>1374.0</ele><time>2026-05-02T11:31:20.991Z</time></trkpt><trkpt lat="44.78724" lon="9.3159867"><ele>1374.0</ele><time>2026-05-02T11:31:21.99Z</time></trkpt><trkpt lat="44.787155" lon="9.3160567"><ele>1374.0</ele><time>2026-05-02T11:31:22.989Z</time></trkpt><trkpt lat="44.7870683" lon="9.3161217"><ele>1374.0</ele><time>2026-05-02T11:31:23.989Z</time></trkpt><trkpt lat="44.7869817" lon="9.31617"><ele>1374.0</ele><time>2026-05-02T11:31:24.989Z</time></trkpt><trkpt lat="44.78689" lon="9.316205"><ele>1374.0</ele><time>2026-05-02T11:31:25.99Z</time></trkpt><trkpt lat="44.78679" lon="9.3162333"><ele>1373.8000000000002</ele><time>2026-05-02T11:31:26.992Z</time></trkpt><trkpt lat="44.78669" lon="9.316275"><ele>1373.6000000000001</ele><time>2026-05-02T11:31:27.99Z</time></trkpt><trkpt lat="44.7865983" lon="9.3163433"><ele>1373.4</ele><time>2026-05-02T11:31:28.989Z</time></trkpt><trkpt lat="44.786515" lon="9.3164467"><ele>1373.2</ele><time>2026-05-02T11:31:29.99Z</time></trkpt><trkpt lat="44.78644" lon="9.316575"><ele>1373.0</ele><time>2026-05-02T11:31:30.989Z</time></trkpt><trkpt lat="44.78638" lon="9.3167133"><ele>1373.0</ele><time>2026-05-02T11:31:31.99Z</time></trkpt><trkpt lat="44.7863383" lon="9.3168583"><ele>1373.0</ele><time>2026-05-02T11:31:32.99Z</time></trkpt><trkpt lat="44.786315" lon="9.31702"><ele>1373.0</ele><time>2026-05-02T11:31:33.989Z</time></trkpt><trkpt lat="44.78631" lon="9.31719"><ele>1373.0</ele><time>2026-05-02T11:31:34.989Z</time></trkpt><trkpt lat="44.78633" lon="9.317355"><ele>1373.75</ele><time>2026-05-02T11:31:35.991Z</time></trkpt><trkpt lat="44.7863683" lon="9.31751"><ele>1374.5</ele><time>2026-05-02T11:31:36.991Z</time></trkpt><trkpt lat="44.7864067" lon="9.3176533"><ele>1375.25</ele><time>2026-05-02T11:31:37.99Z</time></trkpt><trkpt lat="44.786455" lon="9.317795"><ele>1376.0</ele><time>2026-05-02T11:31:38.989Z</time></trkpt><trkpt lat="44.7865033" lon="9.31795"><ele>1379.25</ele><time>2026-05-02T11:31:39.989Z</time></trkpt><trkpt lat="44.7865483" lon="9.3181067"><ele>1382.5</ele><time>2026-05-02T11:31:40.989Z</time></trkpt><trkpt lat="44.78659" lon="9.3182683"><ele>1385.75</ele><time>2026-05-02T11:31:41.99Z</time></trkpt><trkpt lat="44.7866267" lon="9.3184333"><ele>1389.0</ele><time>2026-05-02T11:31:42.989Z</time></trkpt><trkpt lat="44.7866567" lon="9.318605"><ele>1389.0</ele><time>2026-05-02T11:31:43.989Z</time></trkpt><trkpt lat="44.7866833" lon="9.31877"><ele>1389.0</ele><time>2026-05-02T11:31:44.99Z</time></trkpt><trkpt lat="44.7867167" lon="9.31893"><ele>1389.0</ele><time>2026-05-02T11:31:45.989Z</time></trkpt><trkpt lat="44.7867533" lon="9.31907"><ele>1389.0</ele><time>2026-05-02T11:31:46.989Z</time></trkpt><trkpt lat="44.78679" lon="9.3191917"><ele>1389.0</ele><time>2026-05-02T11:31:47.99Z</time></trkpt><trkpt lat="44.7868133" lon="9.3192933"><ele>1393.0</ele><time>2026-05-02T11:31:48.989Z</time></trkpt><trkpt lat="44.7868" lon="9.319435"><ele>1397.0</ele><time>2026-05-02T11:31:50.991Z</time></trkpt><trkpt lat="44.7866883" lon="9.3193133"><ele>1401.0</ele><time>2026-05-02T11:31:53.989Z</time></trkpt><trkpt lat="44.786635" lon="9.3191983"><ele>1405.0</ele><time>2026-05-02T11:31:54.989Z</time></trkpt><trkpt lat="44.7865683" lon="9.3190683"><ele>1405.0</ele><time>2026-05-02T11:31:55.989Z</time></trkpt><trkpt lat="44.7865017" lon="9.3189483"><ele>1405.0</ele><time>2026-05-02T11:31:56.99Z</time></trkpt><trkpt lat="44.7864283" lon="9.31883"><ele>1405.0</ele><time>2026-05-02T11:31:57.989Z</time></trkpt><trkpt lat="44.7863583" lon="9.3187133"><ele>1405.0</ele><time>2026-05-02T11:31:58.99Z</time></trkpt><trkpt lat="44.7862883" lon="9.318595"><ele>1405.0</ele><time>2026-05-02T11:31:59.99Z</time></trkpt><trkpt lat="44.7862217" lon="9.3184683"><ele>1407.5</ele><time>2026-05-02T11:32:00.99Z</time></trkpt><trkpt lat="44.7861533" lon="9.31833"><ele>1410.0</ele><time>2026-05-02T11:32:01.989Z</time></trkpt><trkpt lat="44.786085" lon="9.31818"><ele>1412.5</ele><time>2026-05-02T11:32:02.99Z</time></trkpt><trkpt lat="44.78602" lon="9.3180333"><ele>1415.0</ele><time>2026-05-02T11:32:03.99Z</time></trkpt><trkpt lat="44.7859567" lon="9.3178867"><ele>1415.0</ele><time>2026-05-02T11:32:04.989Z</time></trkpt><trkpt lat="44.7858967" lon="9.3177517"><ele>1415.0</ele><time>2026-05-02T11:32:05.99Z</time></trkpt><trkpt lat="44.78584" lon="9.31763"><ele>1415.0</ele><time>2026-05-02T11:32:06.99Z</time></trkpt><trkpt lat="44.78578" lon="9.317525"><ele>1415.0</ele><time>2026-05-02T11:32:07.99Z</time></trkpt><trkpt lat="44.78571" lon="9.3174283"><ele>1415.0</ele><time>2026-05-02T11:32:08.99Z</time></trkpt><trkpt lat="44.7856383" lon="9.31733"><ele>1413.4</ele><time>2026-05-02T11:32:09.991Z</time></trkpt><trkpt lat="44.7855733" lon="9.317215"><ele>1411.8</ele><time>2026-05-02T11:32:10.99Z</time></trkpt><trkpt lat="44.7855267" lon="9.317085"><ele>1410.1999999999998</ele><time>2026-05-02T11:32:11.989Z</time></trkpt><trkpt lat="44.7855067" lon="9.3169483"><ele>1408.6</ele><time>2026-05-02T11:32:12.99Z</time></trkpt><trkpt lat="44.7854983" lon="9.3168"><ele>1407.0</ele><time>2026-05-02T11:32:13.989Z</time></trkpt><trkpt lat="44.7854917" lon="9.31666"><ele>1407.0</ele><time>2026-05-02T11:32:14.99Z</time></trkpt><trkpt lat="44.7854733" lon="9.316525"><ele>1407.0</ele><time>2026-05-02T11:32:15.989Z</time></trkpt><trkpt lat="44.7854417" lon="9.3164067"><ele>1407.0</ele><time>2026-05-02T11:32:16.99Z</time></trkpt><trkpt lat="44.7854017" lon="9.3163133"><ele>1407.0</ele><time>2026-05-02T11:32:17.989Z</time></trkpt><trkpt lat="44.785355" lon="9.3162333"><ele>1407.0</ele><time>2026-05-02T11:32:18.99Z</time></trkpt><trkpt lat="44.7853033" lon="9.3161767"><ele>1407.0</ele><time>2026-05-02T11:32:19.989Z</time></trkpt><trkpt lat="44.7852433" lon="9.3161317"><ele>1411.0</ele><time>2026-05-02T11:32:20.991Z</time></trkpt><trkpt lat="44.7851417" lon="9.3160833"><ele>1415.0</ele><time>2026-05-02T11:32:22.989Z</time></trkpt><trkpt lat="44.7850717" lon="9.3159983"><ele>1419.0</ele><time>2026-05-02T11:32:24.99Z</time></trkpt><trkpt lat="44.7849967" lon="9.31587"><ele>1423.0</ele><time>2026-05-02T11:32:26.991Z</time></trkpt><trkpt lat="44.7848817" lon="9.31581"><ele>1427.0</ele><time>2026-05-02T11:32:28.99Z</time></trkpt><trkpt lat="44.784795" lon="9.315825"><ele>1427.0</ele><time>2026-05-02T11:32:29.99Z</time></trkpt><trkpt lat="44.7846983" lon="9.31584"><ele>1427.0</ele><time>2026-05-02T11:32:30.99Z</time></trkpt><trkpt lat="44.784605" lon="9.31584"><ele>1427.0</ele><time>2026-05-02T11:32:31.991Z</time></trkpt><trkpt lat="44.78452" lon="9.315825"><ele>1427.0</ele><time>2026-05-02T11:32:32.99Z</time></trkpt><trkpt lat="44.7844383" lon="9.3158067"><ele>1427.0</ele><time>2026-05-02T11:32:33.99Z</time></trkpt><trkpt lat="44.7843617" lon="9.3157867"><ele>1427.0</ele><time>2026-05-02T11:32:34.99Z</time></trkpt><trkpt lat="44.784285" lon="9.3157683"><ele>1426.6666666666667</ele><time>2026-05-02T11:32:35.991Z</time></trkpt><trkpt lat="44.7842117" lon="9.3157467"><ele>1426.3333333333335</ele><time>2026-05-02T11:32:36.99Z</time></trkpt><trkpt lat="44.7841433" lon="9.3157233"><ele>1426.0</ele><time>2026-05-02T11:32:37.991Z</time></trkpt><trkpt lat="44.7840767" lon="9.3157017"><ele>1425.6666666666667</ele><time>2026-05-02T11:32:38.99Z</time></trkpt><trkpt lat="44.7840133" lon="9.3156783"><ele>1425.3333333333333</ele><time>2026-05-02T11:32:39.991Z</time></trkpt><trkpt lat="44.78389" lon="9.315655"><ele>1425.0</ele><time>2026-05-02T11:32:41.99Z</time></trkpt><trkpt lat="44.783825" lon="9.315645"><ele>1425.0000000000002</ele><time>2026-05-02T11:32:42.99Z</time></trkpt><trkpt lat="44.7837633" lon="9.3156217"><ele>1425.0</ele><time>2026-05-02T11:32:43.991Z</time></trkpt><trkpt lat="44.7837067" lon="9.3155783"><ele>1425.0</ele><time>2026-05-02T11:32:44.991Z</time></trkpt><trkpt lat="44.7836517" lon="9.315525"><ele>1425.0</ele><time>2026-05-02T11:32:45.99Z</time></trkpt><trkpt lat="44.7835983" lon="9.3154617"><ele>1425.0</ele><time>2026-05-02T11:32:46.99Z</time></trkpt><trkpt lat="44.7835483" lon="9.3153917"><ele>1425.0000000000002</ele><time>2026-05-02T11:32:47.993Z</time></trkpt><trkpt lat="44.78351" lon="9.315315"><ele>1425.0</ele><time>2026-05-02T11:32:48.989Z</time></trkpt><trkpt lat="44.7834783" lon="9.3152333"><ele>1422.6666666666667</ele><time>2026-05-02T11:32:49.989Z</time></trkpt><trkpt lat="44.78345" lon="9.3151417"><ele>1420.3333333333333</ele><time>2026-05-02T11:32:50.991Z</time></trkpt><trkpt lat="44.7834133" lon="9.3150517"><ele>1418.0</ele><time>2026-05-02T11:32:51.989Z</time></trkpt><trkpt lat="44.7833617" lon="9.3149683"><ele>1415.6666666666665</ele><time>2026-05-02T11:32:52.989Z</time></trkpt><trkpt lat="44.7832983" lon="9.3148733"><ele>1413.3333333333333</ele><time>2026-05-02T11:32:53.989Z</time></trkpt><trkpt lat="44.7832383" lon="9.314765"><ele>1411.0</ele><time>2026-05-02T11:32:54.99Z</time></trkpt><trkpt lat="44.783185" lon="9.31465"><ele>1409.1666666666665</ele><time>2026-05-02T11:32:55.99Z</time></trkpt><trkpt lat="44.7831433" lon="9.314555"><ele>1407.3333333333333</ele><time>2026-05-02T11:32:56.991Z</time></trkpt><trkpt lat="44.7831067" lon="9.314465"><ele>1405.5</ele><time>2026-05-02T11:32:57.99Z</time></trkpt><trkpt lat="44.7830667" lon="9.3143767"><ele>1403.6666666666667</ele><time>2026-05-02T11:32:58.991Z</time></trkpt><trkpt lat="44.783025" lon="9.3142817"><ele>1401.8333333333335</ele><time>2026-05-02T11:32:59.991Z</time></trkpt><trkpt lat="44.7829783" lon="9.3141767"><ele>1400.0</ele><time>2026-05-02T11:33:00.99Z</time></trkpt><trkpt lat="44.7829217" lon="9.3140683"><ele>1400.0</ele><time>2026-05-02T11:33:01.99Z</time></trkpt><trkpt lat="44.7828667" lon="9.3139567"><ele>1400.0</ele><time>2026-05-02T11:33:02.99Z</time></trkpt><trkpt lat="44.7828078" lon="9.3138493"><ele>1400.0</ele><time>2026-05-02T11:33:03.989Z</time></trkpt><trkpt lat="44.7827489" lon="9.3137545"><ele>1400.0</ele><time>2026-05-02T11:33:04.99Z</time></trkpt><trkpt lat="44.7826953" lon="9.3136797"><ele>1400.0</ele><time>2026-05-02T11:33:05.991Z</time></trkpt><trkpt lat="44.7826197" lon="9.3135589"><ele>1399.0</ele><time>2026-05-02T11:33:07.991Z</time></trkpt><trkpt lat="44.7825676" lon="9.3134463"><ele>1398.0</ele><time>2026-05-02T11:33:09.989Z</time></trkpt><trkpt lat="44.782513" lon="9.3133488"><ele>1397.0</ele><time>2026-05-02T11:33:11.99Z</time></trkpt><trkpt lat="44.7824591" lon="9.3132573"><ele>1396.0</ele><time>2026-05-02T11:33:13.99Z</time></trkpt><trkpt lat="44.7824083" lon="9.3131411"><ele>1395.0</ele><time>2026-05-02T11:33:15.989Z</time></trkpt><trkpt lat="44.7823671" lon="9.3130059"><ele>1393.4</ele><time>2026-05-02T11:33:17.99Z</time></trkpt><trkpt lat="44.7823139" lon="9.3128392"><ele>1391.8</ele><time>2026-05-02T11:33:19.99Z</time></trkpt><trkpt lat="44.7822867" lon="9.3127574"><ele>1390.1999999999998</ele><time>2026-05-02T11:33:20.99Z</time></trkpt><trkpt lat="44.7822371" lon="9.3125985"><ele>1388.6</ele><time>2026-05-02T11:33:22.99Z</time></trkpt><trkpt lat="44.7821882" lon="9.312452"><ele>1387.0</ele><time>2026-05-02T11:33:24.991Z</time></trkpt><trkpt lat="44.7821569" lon="9.3123551"><ele>1387.0</ele><time>2026-05-02T11:33:26.991Z</time></trkpt><trkpt lat="44.7821217" lon="9.3124317"><ele>1387.0</ele><time>2026-05-02T11:34:16.99Z</time></trkpt><trkpt lat="44.7821117" lon="9.312565"><ele>1387.0</ele><time>2026-05-02T11:34:19.992Z</time></trkpt><trkpt lat="44.7821233" lon="9.3126867"><ele>1387.0</ele><time>2026-05-02T11:34:21.99Z</time></trkpt><trkpt lat="44.7821233" lon="9.312785"><ele>1387.0</ele><time>2026-05-02T11:34:23.991Z</time></trkpt><trkpt lat="44.7821283" lon="9.3128783"><ele>1387.0</ele><time>2026-05-02T11:34:25.989Z</time></trkpt><trkpt lat="44.782135" lon="9.3129767"><ele>1388.3333333333333</ele><time>2026-05-02T11:34:27.99Z</time></trkpt><trkpt lat="44.7821433" lon="9.313095"><ele>1389.6666666666665</ele><time>2026-05-02T11:34:29.99Z</time></trkpt><trkpt lat="44.7821633" lon="9.3132683"><ele>1391.0</ele><time>2026-05-02T11:34:31.99Z</time></trkpt><trkpt lat="44.782175" lon="9.3133683"><ele>1392.3333333333333</ele><time>2026-05-02T11:34:32.991Z</time></trkpt><trkpt lat="44.782195" lon="9.3134633"><ele>1393.6666666666667</ele><time>2026-05-02T11:34:34.083Z</time></trkpt><trkpt lat="44.7822117" lon="9.3135717"><ele>1395.0</ele><time>2026-05-02T11:34:34.991Z</time></trkpt><trkpt lat="44.782245" lon="9.3137283"><ele>1395.0</ele><time>2026-05-02T11:34:36.99Z</time></trkpt><trkpt lat="44.78227" lon="9.313815"><ele>1395.0</ele><time>2026-05-02T11:34:37.99Z</time></trkpt><trkpt lat="44.7822967" lon="9.3138983"><ele>1395.0</ele><time>2026-05-02T11:34:38.99Z</time></trkpt><trkpt lat="44.782345" lon="9.314055"><ele>1395.0</ele><time>2026-05-02T11:34:40.99Z</time></trkpt><trkpt lat="44.78235" lon="9.31422"><ele>1395.0</ele><time>2026-05-02T11:34:42.99Z</time></trkpt><trkpt lat="44.7823417" lon="9.3143083"><ele>1395.0</ele><time>2026-05-02T11:34:43.99Z</time></trkpt><trkpt lat="44.7823367" lon="9.3144083"><ele>1394.1666666666667</ele><time>2026-05-02T11:34:44.99Z</time></trkpt><trkpt lat="44.782315" lon="9.3145833"><ele>1393.3333333333333</ele><time>2026-05-02T11:34:46.99Z</time></trkpt><trkpt lat="44.7822933" lon="9.314675"><ele>1392.5</ele><time>2026-05-02T11:34:47.991Z</time></trkpt><trkpt lat="44.782265" lon="9.3147717"><ele>1391.6666666666665</ele><time>2026-05-02T11:34:48.99Z</time></trkpt><trkpt lat="44.7822383" lon="9.3148717"><ele>1390.8333333333333</ele><time>2026-05-02T11:34:49.99Z</time></trkpt><trkpt lat="44.7822067" lon="9.3149667"><ele>1390.0</ele><time>2026-05-02T11:34:50.99Z</time></trkpt><trkpt lat="44.7821767" lon="9.3150733"><ele>1389.5</ele><time>2026-05-02T11:34:51.99Z</time></trkpt><trkpt lat="44.782145" lon="9.3151717"><ele>1389.0</ele><time>2026-05-02T11:34:52.99Z</time></trkpt><trkpt lat="44.782115" lon="9.31526"><ele>1388.5</ele><time>2026-05-02T11:34:53.99Z</time></trkpt><trkpt lat="44.7820883" lon="9.3153467"><ele>1388.0</ele><time>2026-05-02T11:34:54.991Z</time></trkpt><trkpt lat="44.7820483" lon="9.3154633"><ele>1387.5</ele><time>2026-05-02T11:34:55.991Z</time></trkpt><trkpt lat="44.782025" lon="9.3155483"><ele>1387.0</ele><time>2026-05-02T11:34:56.991Z</time></trkpt><trkpt lat="44.7819833" lon="9.3156617"><ele>1386.8</ele><time>2026-05-02T11:34:57.991Z</time></trkpt><trkpt lat="44.7819417" lon="9.3157983"><ele>1386.6</ele><time>2026-05-02T11:34:59.99Z</time></trkpt><trkpt lat="44.78192" lon="9.3158917"><ele>1386.3999999999999</ele><time>2026-05-02T11:35:00.992Z</time></trkpt><trkpt lat="44.7819033" lon="9.31608"><ele>1386.1999999999998</ele><time>2026-05-02T11:35:02.991Z</time></trkpt><trkpt lat="44.7819033" lon="9.316185"><ele>1386.0</ele><time>2026-05-02T11:35:03.99Z</time></trkpt><trkpt lat="44.7819033" lon="9.3162917"><ele>1384.1999999999998</ele><time>2026-05-02T11:35:04.99Z</time></trkpt><trkpt lat="44.7819067" lon="9.31644"><ele>1382.3999999999999</ele><time>2026-05-02T11:35:06.99Z</time></trkpt><trkpt lat="44.781925" lon="9.3165667"><ele>1380.6</ele><time>2026-05-02T11:35:08.99Z</time></trkpt><trkpt lat="44.7819617" lon="9.3167067"><ele>1378.8</ele><time>2026-05-02T11:35:10.99Z</time></trkpt><trkpt lat="44.7820067" lon="9.3168483"><ele>1377.0</ele><time>2026-05-02T11:35:12.99Z</time></trkpt><trkpt lat="44.7820283" lon="9.3169317"><ele>1377.0</ele><time>2026-05-02T11:35:13.991Z</time></trkpt><trkpt lat="44.782055" lon="9.3170767"><ele>1377.0</ele><time>2026-05-02T11:35:15.99Z</time></trkpt><trkpt lat="44.782075" lon="9.3171983"><ele>1377.0</ele><time>2026-05-02T11:35:17.991Z</time></trkpt><trkpt lat="44.7821117" lon="9.3173367"><ele>1377.0</ele><time>2026-05-02T11:35:19.99Z</time></trkpt><trkpt lat="44.7821617" lon="9.3174517"><ele>1377.0</ele><time>2026-05-02T11:35:21.99Z</time></trkpt><trkpt lat="44.7822017" lon="9.317575"><ele>1374.5</ele><time>2026-05-02T11:35:23.99Z</time></trkpt><trkpt lat="44.7822283" lon="9.3177367"><ele>1372.0</ele><time>2026-05-02T11:35:25.99Z</time></trkpt><trkpt lat="44.78225" lon="9.31789"><ele>1369.5</ele><time>2026-05-02T11:35:27.991Z</time></trkpt><trkpt lat="44.7822617" lon="9.3180417"><ele>1367.0</ele><time>2026-05-02T11:35:29.991Z</time></trkpt><trkpt lat="44.7822583" lon="9.3182117"><ele>1363.6</ele><time>2026-05-02T11:35:31.99Z</time></trkpt><trkpt lat="44.782255" lon="9.318305"><ele>1360.1999999999998</ele><time>2026-05-02T11:35:32.99Z</time></trkpt><trkpt lat="44.7822367" lon="9.318495"><ele>1356.8</ele><time>2026-05-02T11:35:34.99Z</time></trkpt><trkpt lat="44.782215" lon="9.31865"><ele>1353.4</ele><time>2026-05-02T11:35:36.99Z</time></trkpt><trkpt lat="44.7821883" lon="9.3187767"><ele>1350.0</ele><time>2026-05-02T11:35:38.991Z</time></trkpt><trkpt lat="44.7821467" lon="9.31904"><ele>1348.8333333333333</ele><time>2026-05-02T11:35:51.99Z</time></trkpt><trkpt lat="44.78211" lon="9.3191417"><ele>1347.6666666666667</ele><time>2026-05-02T11:35:54.99Z</time></trkpt><trkpt lat="44.7820867" lon="9.31925"><ele>1346.5</ele><time>2026-05-02T11:35:57.99Z</time></trkpt><trkpt lat="44.7820683" lon="9.3193367"><ele>1345.3333333333335</ele><time>2026-05-02T11:35:59.99Z</time></trkpt><trkpt lat="44.782035" lon="9.3194683"><ele>1344.1666666666667</ele><time>2026-05-02T11:36:01.99Z</time></trkpt><trkpt lat="44.78199" lon="9.3195967"><ele>1343.0</ele><time>2026-05-02T11:36:03.99Z</time></trkpt><trkpt lat="44.78197" lon="9.3196917"><ele>1339.4285714285713</ele><time>2026-05-02T11:36:05.99Z</time></trkpt><trkpt lat="44.7819433" lon="9.3197733"><ele>1335.857142857143</ele><time>2026-05-02T11:36:08.992Z</time></trkpt><trkpt lat="44.7818817" lon="9.3198467"><ele>1332.2857142857142</ele><time>2026-05-02T11:36:10.991Z</time></trkpt><trkpt lat="44.7818133" lon="9.3199167"><ele>1328.7142857142858</ele><time>2026-05-02T11:36:12.991Z</time></trkpt><trkpt lat="44.781795" lon="9.320015"><ele>1325.142857142857</ele><time>2026-05-02T11:36:14.99Z</time></trkpt><trkpt lat="44.7817667" lon="9.32011"><ele>1321.5714285714287</ele><time>2026-05-02T11:36:16.99Z</time></trkpt><trkpt lat="44.7817283" lon="9.3201917"><ele>1318.0</ele><time>2026-05-02T11:36:19.992Z</time></trkpt><trkpt lat="44.78181" lon="9.3202583"><ele>1318.0</ele><time>2026-05-02T11:36:35.992Z</time></trkpt><trkpt lat="44.781925" lon="9.320275"><ele>1318.0</ele><time>2026-05-02T11:36:37.989Z</time></trkpt><trkpt lat="44.7820067" lon="9.3203017"><ele>1318.0</ele><time>2026-05-02T11:36:38.989Z</time></trkpt><trkpt lat="44.7820883" lon="9.3203217"><ele>1318.0</ele><time>2026-05-02T11:36:39.989Z</time></trkpt><trkpt lat="44.7821583" lon="9.320335"><ele>1318.0</ele><time>2026-05-02T11:36:40.989Z</time></trkpt><trkpt lat="44.7822233" lon="9.3203433"><ele>1318.0</ele><time>2026-05-02T11:36:41.989Z</time></trkpt><trkpt lat="44.78233" lon="9.32036"><ele>1318.0</ele><time>2026-05-02T11:36:43.989Z</time></trkpt><trkpt lat="44.782405" lon="9.3204733"><ele>1318.0</ele><time>2026-05-02T11:37:03.989Z</time></trkpt><trkpt lat="44.78256" lon="9.3205317"><ele>1318.0</ele><time>2026-05-02T11:37:22.989Z</time></trkpt><trkpt lat="44.7826383" lon="9.3205583"><ele>1318.0</ele><time>2026-05-02T11:37:24.989Z</time></trkpt><trkpt lat="44.7827517" lon="9.320605"><ele>1311.4</ele><time>2026-05-02T11:37:26.99Z</time></trkpt><trkpt lat="44.7828617" lon="9.32065"><ele>1304.8000000000002</ele><time>2026-05-02T11:37:28.993Z</time></trkpt><trkpt lat="44.78295" lon="9.320695"><ele>1298.2</ele><time>2026-05-02T11:37:30.989Z</time></trkpt><trkpt lat="44.7830117" lon="9.3207617"><ele>1291.6</ele><time>2026-05-02T11:37:32.99Z</time></trkpt><trkpt lat="44.7831083" lon="9.3208133"><ele>1285.0</ele><time>2026-05-02T11:37:35.989Z</time></trkpt><trkpt lat="44.7831967" lon="9.3208467"><ele>1285.0</ele><time>2026-05-02T11:37:37.99Z</time></trkpt><trkpt lat="44.78328" lon="9.320905"><ele>1285.0</ele><time>2026-05-02T11:37:39.989Z</time></trkpt><trkpt lat="44.78337" lon="9.32096"><ele>1285.0</ele><time>2026-05-02T11:37:41.989Z</time></trkpt><trkpt lat="44.7834267" lon="9.321005"><ele>1285.0</ele><time>2026-05-02T11:37:43.99Z</time></trkpt><trkpt lat="44.7834833" lon="9.3210883"><ele>1285.0</ele><time>2026-05-02T11:37:47.992Z</time></trkpt><trkpt lat="44.7835317" lon="9.32115"><ele>1285.0</ele><time>2026-05-02T11:37:49.99Z</time></trkpt><trkpt lat="44.78362" lon="9.3212183"><ele>1288.8</ele><time>2026-05-02T11:37:51.989Z</time></trkpt><trkpt lat="44.783675" lon="9.3212633"><ele>1292.6</ele><time>2026-05-02T11:37:53.989Z</time></trkpt><trkpt lat="44.7838017" lon="9.3213783"><ele>1296.4</ele><time>2026-05-02T11:38:16.989Z</time></trkpt><trkpt lat="44.783875" lon="9.3214933"><ele>1300.2</ele><time>2026-05-02T11:40:21.991Z</time></trkpt><trkpt lat="44.783935" lon="9.3216467"><ele>1304.0</ele><time>2026-05-02T11:40:47.989Z</time></trkpt><trkpt lat="44.783915" lon="9.3217383"><ele>1295.6666666666667</ele><time>2026-05-02T11:40:52.989Z</time></trkpt><trkpt lat="44.78396" lon="9.32183"><ele>1287.3333333333335</ele><time>2026-05-02T11:40:59.99Z</time></trkpt><trkpt lat="44.7840117" lon="9.3219017"><ele>1279.0</ele><time>2026-05-02T11:41:04.989Z</time></trkpt><trkpt lat="44.7840617" lon="9.32196"><ele>1270.6666666666667</ele><time>2026-05-02T11:41:08.99Z</time></trkpt><trkpt lat="44.7841033" lon="9.32207"><ele>1262.3333333333333</ele><time>2026-05-02T11:41:11.99Z</time></trkpt><trkpt lat="44.7841483" lon="9.3221483"><ele>1254.0</ele><time>2026-05-02T11:41:13.99Z</time></trkpt><trkpt lat="44.7842133" lon="9.3222233"><ele>1251.8333333333333</ele><time>2026-05-02T11:41:15.989Z</time></trkpt><trkpt lat="44.7842683" lon="9.3222983"><ele>1249.6666666666667</ele><time>2026-05-02T11:41:17.99Z</time></trkpt><trkpt lat="44.7843167" lon="9.3223683"><ele>1247.5</ele><time>2026-05-02T11:41:19.989Z</time></trkpt><trkpt lat="44.78437" lon="9.32245"><ele>1245.3333333333335</ele><time>2026-05-02T11:41:21.99Z</time></trkpt><trkpt lat="44.7844133" lon="9.3225333"><ele>1243.1666666666667</ele><time>2026-05-02T11:41:23.989Z</time></trkpt><trkpt lat="44.78446" lon="9.3226183"><ele>1241.0</ele><time>2026-05-02T11:41:25.989Z</time></trkpt><trkpt lat="44.7845167" lon="9.322705"><ele>1241.0</ele><time>2026-05-02T11:41:27.989Z</time></trkpt><trkpt lat="44.7845683" lon="9.322765"><ele>1241.0</ele><time>2026-05-02T11:41:29.989Z</time></trkpt><trkpt lat="44.784615" lon="9.3228517"><ele>1241.0</ele><time>2026-05-02T11:41:32.99Z</time></trkpt><trkpt lat="44.78466" lon="9.3229167"><ele>1241.0</ele><time>2026-05-02T11:41:34.991Z</time></trkpt><trkpt lat="44.7847233" lon="9.3230067"><ele>1241.0</ele><time>2026-05-02T11:41:37.99Z</time></trkpt><trkpt lat="44.7847783" lon="9.3230633"><ele>1241.0</ele><time>2026-05-02T11:41:39.989Z</time></trkpt><trkpt lat="44.7848433" lon="9.3231283"><ele>1241.0</ele><time>2026-05-02T11:41:41.989Z</time></trkpt><trkpt lat="44.7849133" lon="9.3231933"><ele>1237.6666666666667</ele><time>2026-05-02T11:41:43.989Z</time></trkpt><trkpt lat="44.784965" lon="9.3232733"><ele>1234.3333333333335</ele><time>2026-05-02T11:41:45.989Z</time></trkpt><trkpt lat="44.785015" lon="9.3233383"><ele>1231.0</ele><time>2026-05-02T11:41:47.989Z</time></trkpt><trkpt lat="44.785075" lon="9.3234"><ele>1227.6666666666667</ele><time>2026-05-02T11:41:49.989Z</time></trkpt><trkpt lat="44.7851617" lon="9.3234817"><ele>1224.3333333333333</ele><time>2026-05-02T11:41:51.989Z</time></trkpt><trkpt lat="44.785255" lon="9.3235733"><ele>1221.0</ele><time>2026-05-02T11:41:53.99Z</time></trkpt><trkpt lat="44.7853033" lon="9.3236317"><ele>1221.0</ele><time>2026-05-02T11:41:54.989Z</time></trkpt><trkpt lat="44.7853933" lon="9.3237367"><ele>1221.0</ele><time>2026-05-02T11:41:56.99Z</time></trkpt><trkpt lat="44.7854417" lon="9.3237983"><ele>1221.0</ele><time>2026-05-02T11:41:57.989Z</time></trkpt><trkpt lat="44.7854883" lon="9.3238583"><ele>1221.0</ele><time>2026-05-02T11:41:58.989Z</time></trkpt><trkpt lat="44.7855383" lon="9.3239183"><ele>1221.0</ele><time>2026-05-02T11:41:59.989Z</time></trkpt><trkpt lat="44.7855917" lon="9.3239733"><ele>1221.0</ele><time>2026-05-02T11:42:00.989Z</time></trkpt><trkpt lat="44.7856667" lon="9.324075"><ele>1215.5</ele><time>2026-05-02T11:42:02.99Z</time></trkpt><trkpt lat="44.785695" lon="9.32424"><ele>1210.0</ele><time>2026-05-02T11:42:04.99Z</time></trkpt><trkpt lat="44.78571" lon="9.324355"><ele>1204.5</ele><time>2026-05-02T11:42:05.99Z</time></trkpt><trkpt lat="44.7857217" lon="9.324465"><ele>1199.0</ele><time>2026-05-02T11:42:06.99Z</time></trkpt><trkpt lat="44.78574" lon="9.32458"><ele>1193.5</ele><time>2026-05-02T11:42:07.989Z</time></trkpt><trkpt lat="44.78576" lon="9.32469"><ele>1188.0</ele><time>2026-05-02T11:42:08.99Z</time></trkpt><trkpt lat="44.7857767" lon="9.3248033"><ele>1186.0</ele><time>2026-05-02T11:42:09.989Z</time></trkpt><trkpt lat="44.785795" lon="9.3248967"><ele>1184.0</ele><time>2026-05-02T11:42:10.99Z</time></trkpt><trkpt lat="44.78583" lon="9.3250267"><ele>1182.0</ele><time>2026-05-02T11:42:12.991Z</time></trkpt><trkpt lat="44.78582" lon="9.3252233"><ele>1180.0</ele><time>2026-05-02T11:44:27.99Z</time></trkpt><trkpt lat="44.7857817" lon="9.325295"><ele>1178.0</ele><time>2026-05-02T11:44:51.991Z</time></trkpt><trkpt lat="44.7857" lon="9.3253767"><ele>1178.0</ele><time>2026-05-02T11:44:54.989Z</time></trkpt><trkpt lat="44.785635" lon="9.32548"><ele>1178.0</ele><time>2026-05-02T11:44:56.99Z</time></trkpt><trkpt lat="44.78557" lon="9.3255883"><ele>1178.0</ele><time>2026-05-02T11:44:58.99Z</time></trkpt><trkpt lat="44.785475" lon="9.325705"><ele>1178.0</ele><time>2026-05-02T11:45:00.989Z</time></trkpt><trkpt lat="44.785425" lon="9.3257633"><ele>1178.0</ele><time>2026-05-02T11:45:01.99Z</time></trkpt><trkpt lat="44.7853767" lon="9.3258217"><ele>1176.2</ele><time>2026-05-02T11:45:02.99Z</time></trkpt><trkpt lat="44.78533" lon="9.3258817"><ele>1174.4</ele><time>2026-05-02T11:45:03.99Z</time></trkpt><trkpt lat="44.78529" lon="9.325955"><ele>1172.6000000000001</ele><time>2026-05-02T11:45:04.989Z</time></trkpt><trkpt lat="44.785225" lon="9.3260933"><ele>1170.8</ele><time>2026-05-02T11:45:06.989Z</time></trkpt><trkpt lat="44.7851917" lon="9.3262233"><ele>1169.0</ele><time>2026-05-02T11:45:08.992Z</time></trkpt><trkpt lat="44.785165" lon="9.3263733"><ele>1164.2</ele><time>2026-05-02T11:45:10.99Z</time></trkpt><trkpt lat="44.7851467" lon="9.3265083"><ele>1159.4</ele><time>2026-05-02T11:45:12.989Z</time></trkpt><trkpt lat="44.785095" lon="9.3266367"><ele>1154.6</ele><time>2026-05-02T11:45:14.991Z</time></trkpt><trkpt lat="44.7850083" lon="9.326745"><ele>1149.8</ele><time>2026-05-02T11:45:16.99Z</time></trkpt><trkpt lat="44.7849083" lon="9.3267617"><ele>1145.0</ele><time>2026-05-02T11:45:18.989Z</time></trkpt><trkpt lat="44.784845" lon="9.3267117"><ele>1145.0</ele><time>2026-05-02T11:45:20.99Z</time></trkpt><trkpt lat="44.7847883" lon="9.32666"><ele>1145.0</ele><time>2026-05-02T11:45:22.989Z</time></trkpt><trkpt lat="44.7847217" lon="9.326615"><ele>1145.0</ele><time>2026-05-02T11:45:24.989Z</time></trkpt><trkpt lat="44.78466" lon="9.3265467"><ele>1145.0</ele><time>2026-05-02T11:45:26.99Z</time></trkpt><trkpt lat="44.7845933" lon="9.3264517"><ele>1145.0</ele><time>2026-05-02T11:45:28.99Z</time></trkpt><trkpt lat="44.7845333" lon="9.32639"><ele>1145.0</ele><time>2026-05-02T11:45:30.99Z</time></trkpt><trkpt lat="44.7844567" lon="9.32637"><ele>1144.3333333333335</ele><time>2026-05-02T11:45:33.989Z</time></trkpt><trkpt lat="44.7843867" lon="9.3263917"><ele>1143.6666666666667</ele><time>2026-05-02T11:45:35.989Z</time></trkpt><trkpt lat="44.7843077" lon="9.3264276"><ele>1143.0</ele><time>2026-05-02T11:45:38.013Z</time></trkpt><trkpt lat="44.784225" lon="9.3264682"><ele>1142.3333333333333</ele><time>2026-05-02T11:45:39.989Z</time></trkpt><trkpt lat="44.7840932" lon="9.3264901"><ele>1141.6666666666665</ele><time>2026-05-02T11:45:41.989Z</time></trkpt><trkpt lat="44.7840226" lon="9.3264956"><ele>1141.0</ele><time>2026-05-02T11:45:42.99Z</time></trkpt><trkpt lat="44.783953" lon="9.3264817"><ele>1138.3333333333333</ele><time>2026-05-02T11:45:43.99Z</time></trkpt><trkpt lat="44.7838813" lon="9.326451"><ele>1135.6666666666665</ele><time>2026-05-02T11:45:44.991Z</time></trkpt><trkpt lat="44.783809" lon="9.3264155"><ele>1133.0</ele><time>2026-05-02T11:45:45.99Z</time></trkpt><trkpt lat="44.7837355" lon="9.3263786"><ele>1130.3333333333333</ele><time>2026-05-02T11:45:46.99Z</time></trkpt><trkpt lat="44.7836767" lon="9.3263367"><ele>1127.6666666666667</ele><time>2026-05-02T11:45:47.991Z</time></trkpt><trkpt lat="44.783565" lon="9.3263017"><ele>1125.0</ele><time>2026-05-02T11:45:49.99Z</time></trkpt><trkpt lat="44.7834583" lon="9.3262633"><ele>1121.6</ele><time>2026-05-02T11:45:51.99Z</time></trkpt><trkpt lat="44.7833817" lon="9.3261817"><ele>1118.2</ele><time>2026-05-02T11:45:53.991Z</time></trkpt><trkpt lat="44.7833067" lon="9.3261267"><ele>1114.8</ele><time>2026-05-02T11:45:55.991Z</time></trkpt><trkpt lat="44.78318" lon="9.3261033"><ele>1111.4</ele><time>2026-05-02T11:45:57.99Z</time></trkpt><trkpt lat="44.7830933" lon="9.32609"><ele>1108.0</ele><time>2026-05-02T11:45:58.99Z</time></trkpt><trkpt lat="44.783" lon="9.3260817"><ele>1108.0</ele><time>2026-05-02T11:45:59.993Z</time></trkpt><trkpt lat="44.7829117" lon="9.3260867"><ele>1108.0</ele><time>2026-05-02T11:46:00.99Z</time></trkpt><trkpt lat="44.7828333" lon="9.3260967"><ele>1108.0</ele><time>2026-05-02T11:46:01.99Z</time></trkpt><trkpt lat="44.7827617" lon="9.326115"><ele>1108.0</ele><time>2026-05-02T11:46:02.991Z</time></trkpt><trkpt lat="44.7827017" lon="9.3261517"><ele>1108.0</ele><time>2026-05-02T11:46:03.99Z</time></trkpt><trkpt lat="44.782645" lon="9.3262"><ele>1108.0</ele><time>2026-05-02T11:46:04.99Z</time></trkpt><trkpt lat="44.782545" lon="9.3262733"><ele>1106.0</ele><time>2026-05-02T11:46:06.991Z</time></trkpt><trkpt lat="44.782445" lon="9.3262717"><ele>1104.0</ele><time>2026-05-02T11:46:08.991Z</time></trkpt><trkpt lat="44.782345" lon="9.3262583"><ele>1102.0</ele><time>2026-05-02T11:46:10.991Z</time></trkpt><trkpt lat="44.782255" lon="9.3262417"><ele>1100.0</ele><time>2026-05-02T11:46:12.989Z</time></trkpt><trkpt lat="44.78218" lon="9.3261817"><ele>1098.0</ele><time>2026-05-02T11:46:14.991Z</time></trkpt><trkpt lat="44.7821151" lon="9.3260681"><ele>1098.0</ele><time>2026-05-02T11:46:16.989Z</time></trkpt><trkpt lat="44.782049" lon="9.3259201"><ele>1098.0</ele><time>2026-05-02T11:46:18.989Z</time></trkpt><trkpt lat="44.7820101" lon="9.3258401"><ele>1098.0</ele><time>2026-05-02T11:46:19.988Z</time></trkpt><trkpt lat="44.7819542" lon="9.3257081"><ele>1098.0</ele><time>2026-05-02T11:46:21.988Z</time></trkpt><trkpt lat="44.7819049" lon="9.3255978"><ele>1098.0</ele><time>2026-05-02T11:46:25.061Z</time></trkpt><trkpt lat="44.781821" lon="9.3255126"><ele>1095.3333333333333</ele><time>2026-05-02T11:46:27.093Z</time></trkpt><trkpt lat="44.7817583" lon="9.3254499"><ele>1092.6666666666667</ele><time>2026-05-02T11:46:29.013Z</time></trkpt><trkpt lat="44.7816844" lon="9.3254117"><ele>1090.0</ele><time>2026-05-02T11:46:30.989Z</time></trkpt><trkpt lat="44.7816141" lon="9.3254809"><ele>1087.3333333333335</ele><time>2026-05-02T11:46:34.005Z</time></trkpt><trkpt lat="44.7815437" lon="9.3255328"><ele>1084.6666666666667</ele><time>2026-05-02T11:46:35.989Z</time></trkpt><trkpt lat="44.7815135" lon="9.3256201"><ele>1082.0</ele><time>2026-05-02T11:46:38.061Z</time></trkpt><trkpt lat="44.7815285" lon="9.325707"><ele>1081.5</ele><time>2026-05-02T11:46:40.037Z</time></trkpt><trkpt lat="44.7814817" lon="9.3257917"><ele>1081.0</ele><time>2026-05-02T11:46:43.989Z</time></trkpt><trkpt lat="44.7813883" lon="9.3258083"><ele>1080.5</ele><time>2026-05-02T11:47:10.99Z</time></trkpt><trkpt lat="44.78134" lon="9.32588"><ele>1080.0</ele><time>2026-05-02T11:47:18.989Z</time></trkpt><trkpt lat="44.78128" lon="9.3259883"><ele>1079.5</ele><time>2026-05-02T11:47:20.989Z</time></trkpt><trkpt lat="44.7812533" lon="9.32607"><ele>1079.0</ele><time>2026-05-02T11:47:21.989Z</time></trkpt><trkpt lat="44.781225" lon="9.3261717"><ele>1079.0</ele><time>2026-05-02T11:47:22.99Z</time></trkpt><trkpt lat="44.7812" lon="9.3262867"><ele>1079.0</ele><time>2026-05-02T11:47:23.99Z</time></trkpt><trkpt lat="44.7811767" lon="9.3263867"><ele>1079.0</ele><time>2026-05-02T11:47:24.989Z</time></trkpt><trkpt lat="44.7811567" lon="9.326475"><ele>1079.0</ele><time>2026-05-02T11:47:25.989Z</time></trkpt><trkpt lat="44.7810867" lon="9.3266033"><ele>1079.0</ele><time>2026-05-02T11:47:27.991Z</time></trkpt><trkpt lat="44.781055" lon="9.326775"><ele>1079.142857142857</ele><time>2026-05-02T11:47:29.989Z</time></trkpt><trkpt lat="44.7810367" lon="9.3268633"><ele>1079.2857142857142</ele><time>2026-05-02T11:47:30.99Z</time></trkpt><trkpt lat="44.7810417" lon="9.3269633"><ele>1079.4285714285713</ele><time>2026-05-02T11:47:31.989Z</time></trkpt><trkpt lat="44.7810417" lon="9.3270717"><ele>1079.5714285714284</ele><time>2026-05-02T11:47:32.991Z</time></trkpt><trkpt lat="44.7810367" lon="9.3271833"><ele>1079.7142857142856</ele><time>2026-05-02T11:47:33.99Z</time></trkpt><trkpt lat="44.78103" lon="9.327295"><ele>1079.857142857143</ele><time>2026-05-02T11:47:34.989Z</time></trkpt><trkpt lat="44.78103" lon="9.3274033"><ele>1080.0</ele><time>2026-05-02T11:47:35.989Z</time></trkpt><trkpt lat="44.7810233" lon="9.3275033"><ele>1079.6</ele><time>2026-05-02T11:47:36.989Z</time></trkpt><trkpt lat="44.7810417" lon="9.3276683"><ele>1079.2</ele><time>2026-05-02T11:47:38.99Z</time></trkpt><trkpt lat="44.7810617" lon="9.327785"><ele>1078.8</ele><time>2026-05-02T11:47:40.989Z</time></trkpt><trkpt lat="44.7810367" lon="9.3279783"><ele>1078.4</ele><time>2026-05-02T11:47:42.989Z</time></trkpt><trkpt lat="44.7810467" lon="9.3280817"><ele>1078.0</ele><time>2026-05-02T11:47:43.989Z</time></trkpt><trkpt lat="44.7810317" lon="9.328175"><ele>1067.2</ele><time>2026-05-02T11:47:44.99Z</time></trkpt><trkpt lat="44.781" lon="9.3283067"><ele>1056.4</ele><time>2026-05-02T11:47:46.989Z</time></trkpt><trkpt lat="44.7809367" lon="9.32844"><ele>1045.6000000000001</ele><time>2026-05-02T11:47:49.991Z</time></trkpt><trkpt lat="44.78091" lon="9.3286167"><ele>1034.8</ele><time>2026-05-02T11:47:51.991Z</time></trkpt><trkpt lat="44.7808983" lon="9.3287117"><ele>1024.0</ele><time>2026-05-02T11:47:52.991Z</time></trkpt><trkpt lat="44.7808917" lon="9.3288067"><ele>1024.8</ele><time>2026-05-02T11:47:53.991Z</time></trkpt><trkpt lat="44.7809283" lon="9.3289467"><ele>1025.6000000000001</ele><time>2026-05-02T11:47:55.992Z</time></trkpt><trkpt lat="44.7810033" lon="9.3290483"><ele>1026.4</ele><time>2026-05-02T11:47:57.99Z</time></trkpt><trkpt lat="44.7811033" lon="9.3291017"><ele>1027.2</ele><time>2026-05-02T11:47:59.991Z</time></trkpt><trkpt lat="44.7811967" lon="9.3291267"><ele>1028.0</ele><time>2026-05-02T11:48:01.992Z</time></trkpt><trkpt lat="44.781275" lon="9.3292583"><ele>1028.0</ele><time>2026-05-02T11:48:03.991Z</time></trkpt><trkpt lat="44.7813317" lon="9.3293167"><ele>1028.0</ele><time>2026-05-02T11:48:04.99Z</time></trkpt><trkpt lat="44.781445" lon="9.3294283"><ele>1028.0</ele><time>2026-05-02T11:48:06.99Z</time></trkpt><trkpt lat="44.781505" lon="9.32951"><ele>1028.0</ele><time>2026-05-02T11:48:07.99Z</time></trkpt><trkpt lat="44.7815717" lon="9.329625"><ele>1028.0</ele><time>2026-05-02T11:48:08.991Z</time></trkpt><trkpt lat="44.78163" lon="9.32974"><ele>1025.8333333333335</ele><time>2026-05-02T11:48:09.99Z</time></trkpt><trkpt lat="44.7816933" lon="9.3298433"><ele>1023.6666666666667</ele><time>2026-05-02T11:48:10.99Z</time></trkpt><trkpt lat="44.7817433" lon="9.3299333"><ele>1021.5</ele><time>2026-05-02T11:48:11.992Z</time></trkpt><trkpt lat="44.7817967" lon="9.3300083"><ele>1019.3333333333333</ele><time>2026-05-02T11:48:12.991Z</time></trkpt><trkpt lat="44.7818367" lon="9.3300833"><ele>1017.1666666666666</ele><time>2026-05-02T11:48:13.991Z</time></trkpt><trkpt lat="44.7818767" lon="9.3302567"><ele>1015.0</ele><time>2026-05-02T11:48:15.99Z</time></trkpt><trkpt lat="44.7818633" lon="9.33037"><ele>1010.0</ele><time>2026-05-02T11:48:17.991Z</time></trkpt><trkpt lat="44.7818017" lon="9.3304683"><ele>1005.0</ele><time>2026-05-02T11:48:20.991Z</time></trkpt><trkpt lat="44.7816967" lon="9.3304983"><ele>1000.0</ele><time>2026-05-02T11:48:22.989Z</time></trkpt><trkpt lat="44.781605" lon="9.3305117"><ele>995.0</ele><time>2026-05-02T11:48:24.99Z</time></trkpt><trkpt lat="44.7814833" lon="9.3305067"><ele>990.0</ele><time>2026-05-02T11:48:26.99Z</time></trkpt><trkpt lat="44.7814067" lon="9.3305183"><ele>990.0</ele><time>2026-05-02T11:48:27.988Z</time></trkpt><trkpt lat="44.78134" lon="9.3305467"><ele>990.0</ele><time>2026-05-02T11:48:28.989Z</time></trkpt><trkpt lat="44.78128" lon="9.3305767"><ele>990.0</ele><time>2026-05-02T11:48:29.988Z</time></trkpt><trkpt lat="44.7811717" lon="9.3305667"><ele>990.0</ele><time>2026-05-02T11:48:31.989Z</time></trkpt><trkpt lat="44.7811117" lon="9.33053"><ele>990.0</ele><time>2026-05-02T11:48:32.989Z</time></trkpt><trkpt lat="44.7810067" lon="9.3304267"><ele>990.0</ele><time>2026-05-02T11:48:34.99Z</time></trkpt><trkpt lat="44.780935" lon="9.3303583"><ele>986.6666666666666</ele><time>2026-05-02T11:48:35.99Z</time></trkpt><trkpt lat="44.7808633" lon="9.3302883"><ele>983.3333333333333</ele><time>2026-05-02T11:48:36.989Z</time></trkpt><trkpt lat="44.7808" lon="9.3302283"><ele>980.0</ele><time>2026-05-02T11:48:37.989Z</time></trkpt><trkpt lat="44.7807317" lon="9.3301783"><ele>976.6666666666666</ele><time>2026-05-02T11:48:38.99Z</time></trkpt><trkpt lat="44.78067" lon="9.33015"><ele>973.3333333333333</ele><time>2026-05-02T11:48:39.989Z</time></trkpt><trkpt lat="44.7805983" lon="9.33011"><ele>970.0</ele><time>2026-05-02T11:48:40.989Z</time></trkpt><trkpt lat="44.7805167" lon="9.33008"><ele>969.9999999999999</ele><time>2026-05-02T11:48:41.989Z</time></trkpt><trkpt lat="44.7804433" lon="9.33005"><ele>970.0</ele><time>2026-05-02T11:48:42.99Z</time></trkpt><trkpt lat="44.7803567" lon="9.330025"><ele>970.0</ele><time>2026-05-02T11:48:44.99Z</time></trkpt><trkpt lat="44.780325" lon="9.3299333"><ele>970.0</ele><time>2026-05-02T11:48:47.989Z</time></trkpt><trkpt lat="44.780295" lon="9.3297617"><ele>969.9999999999999</ele><time>2026-05-02T11:48:49.989Z</time></trkpt><trkpt lat="44.78024" lon="9.3296883"><ele>970.0</ele><time>2026-05-02T11:48:50.99Z</time></trkpt><trkpt lat="44.7801667" lon="9.3297083"><ele>965.6</ele><time>2026-05-02T11:48:51.989Z</time></trkpt><trkpt lat="44.7801017" lon="9.3297917"><ele>961.2</ele><time>2026-05-02T11:48:53.99Z</time></trkpt><trkpt lat="44.7800533" lon="9.3298817"><ele>956.8</ele><time>2026-05-02T11:48:55.989Z</time></trkpt><trkpt lat="44.78004" lon="9.3300417"><ele>952.4</ele><time>2026-05-02T11:48:57.99Z</time></trkpt><trkpt lat="44.7800583" lon="9.3301683"><ele>948.0</ele><time>2026-05-02T11:48:59.99Z</time></trkpt><trkpt lat="44.7801033" lon="9.3302667"><ele>948.0</ele><time>2026-05-02T11:49:02.989Z</time></trkpt><trkpt lat="44.7801417" lon="9.3304483"><ele>948.0</ele><time>2026-05-02T11:49:04.989Z</time></trkpt><trkpt lat="44.7801617" lon="9.3305367"><ele>948.0</ele><time>2026-05-02T11:49:05.988Z</time></trkpt><trkpt lat="44.78018" lon="9.330625"><ele>948.0</ele><time>2026-05-02T11:49:07.989Z</time></trkpt><trkpt lat="44.7801683" lon="9.330765"><ele>948.0</ele><time>2026-05-02T11:49:09.989Z</time></trkpt><trkpt lat="44.7801533" lon="9.3308633"><ele>948.0</ele><time>2026-05-02T11:49:10.989Z</time></trkpt><trkpt lat="44.78014" lon="9.330985"><ele>948.3333333333334</ele><time>2026-05-02T11:49:11.989Z</time></trkpt><trkpt lat="44.7801333" lon="9.3310933"><ele>948.6666666666667</ele><time>2026-05-02T11:49:12.989Z</time></trkpt><trkpt lat="44.7801417" lon="9.3312183"><ele>949.0</ele><time>2026-05-02T11:49:13.99Z</time></trkpt><trkpt lat="44.780175" lon="9.3313033"><ele>949.3333333333334</ele><time>2026-05-02T11:49:14.995Z</time></trkpt><trkpt lat="44.7802183" lon="9.3313833"><ele>949.6666666666667</ele><time>2026-05-02T11:49:15.99Z</time></trkpt><trkpt lat="44.780275" lon="9.3314517"><ele>950.0</ele><time>2026-05-02T11:49:16.989Z</time></trkpt><trkpt lat="44.7803383" lon="9.3314917"><ele>944.8</ele><time>2026-05-02T11:49:17.99Z</time></trkpt><trkpt lat="44.7804117" lon="9.33157"><ele>939.6</ele><time>2026-05-02T11:49:19.99Z</time></trkpt><trkpt lat="44.7804433" lon="9.3317033"><ele>934.4000000000001</ele><time>2026-05-02T11:49:21.99Z</time></trkpt><trkpt lat="44.780465" lon="9.3318733"><ele>929.2</ele><time>2026-05-02T11:49:23.991Z</time></trkpt><trkpt lat="44.7804983" lon="9.33197"><ele>924.0</ele><time>2026-05-02T11:49:24.989Z</time></trkpt><trkpt lat="44.780535" lon="9.332065"><ele>924.0</ele><time>2026-05-02T11:49:25.989Z</time></trkpt><trkpt lat="44.7805617" lon="9.33216"><ele>924.0</ele><time>2026-05-02T11:49:26.989Z</time></trkpt><trkpt lat="44.780595" lon="9.332255"><ele>924.0</ele><time>2026-05-02T11:49:27.988Z</time></trkpt><trkpt lat="44.78063" lon="9.332355"><ele>924.0</ele><time>2026-05-02T11:49:28.989Z</time></trkpt><trkpt lat="44.7806667" lon="9.33247"><ele>924.0</ele><time>2026-05-02T11:49:29.989Z</time></trkpt><trkpt lat="44.7807033" lon="9.33259"><ele>924.0</ele><time>2026-05-02T11:49:30.989Z</time></trkpt><trkpt lat="44.7807517" lon="9.3327083"><ele>921.0</ele><time>2026-05-02T11:49:31.989Z</time></trkpt><trkpt lat="44.780805" lon="9.3328133"><ele>918.0</ele><time>2026-05-02T11:49:32.99Z</time></trkpt><trkpt lat="44.780855" lon="9.3329133"><ele>915.0</ele><time>2026-05-02T11:49:33.989Z</time></trkpt><trkpt lat="44.7808917" lon="9.3330067"><ele>912.0</ele><time>2026-05-02T11:49:34.989Z</time></trkpt><trkpt lat="44.7809217" lon="9.3331"><ele>909.0</ele><time>2026-05-02T11:49:35.99Z</time></trkpt><trkpt lat="44.78095" lon="9.3332083"><ele>906.0</ele><time>2026-05-02T11:49:36.989Z</time></trkpt><trkpt lat="44.78098" lon="9.3333133"><ele>906.0</ele><time>2026-05-02T11:49:37.99Z</time></trkpt><trkpt lat="44.78101" lon="9.3334067"><ele>905.9999999999999</ele><time>2026-05-02T11:49:38.99Z</time></trkpt><trkpt lat="44.78105" lon="9.333495"><ele>905.9999999999999</ele><time>2026-05-02T11:49:39.989Z</time></trkpt><trkpt lat="44.7811083" lon="9.3336317"><ele>906.0</ele><time>2026-05-02T11:49:41.989Z</time></trkpt><trkpt lat="44.7811617" lon="9.3337517"><ele>906.0</ele><time>2026-05-02T11:49:43.989Z</time></trkpt><trkpt lat="44.7812017" lon="9.3339083"><ele>904.0</ele><time>2026-05-02T11:49:45.99Z</time></trkpt><trkpt lat="44.781215" lon="9.334"><ele>902.0</ele><time>2026-05-02T11:49:46.989Z</time></trkpt><trkpt lat="44.7812283" lon="9.3341117"><ele>900.0</ele><time>2026-05-02T11:49:47.989Z</time></trkpt><trkpt lat="44.7812517" lon="9.3342433"><ele>898.0</ele><time>2026-05-02T11:49:48.989Z</time></trkpt><trkpt lat="44.7812767" lon="9.3343683"><ele>896.0</ele><time>2026-05-02T11:49:49.989Z</time></trkpt><trkpt lat="44.7813" lon="9.33449"><ele>894.0</ele><time>2026-05-02T11:49:50.99Z</time></trkpt><trkpt lat="44.7813167" lon="9.3345967"><ele>891.4000000000001</ele><time>2026-05-02T11:49:51.989Z</time></trkpt><trkpt lat="44.7813183" lon="9.33476"><ele>888.8000000000001</ele><time>2026-05-02T11:49:53.99Z</time></trkpt><trkpt lat="44.7813233" lon="9.3349017"><ele>886.1999999999999</ele><time>2026-05-02T11:49:55.988Z</time></trkpt><trkpt lat="44.7813483" lon="9.3350167"><ele>883.5999999999999</ele><time>2026-05-02T11:49:57.99Z</time></trkpt><trkpt lat="44.781345" lon="9.3351417"><ele>881.0</ele><time>2026-05-02T11:50:00.989Z</time></trkpt><trkpt lat="44.7813717" lon="9.3352567"><ele>881.0000000000001</ele><time>2026-05-02T11:50:03.989Z</time></trkpt><trkpt lat="44.781355" lon="9.3353733"><ele>881.0</ele><time>2026-05-02T11:50:08.989Z</time></trkpt><trkpt lat="44.7813567" lon="9.3354783"><ele>881.0</ele><time>2026-05-02T11:50:10.989Z</time></trkpt><trkpt lat="44.78139" lon="9.33558"><ele>881.0</ele><time>2026-05-02T11:50:12.989Z</time></trkpt><trkpt lat="44.7814467" lon="9.3356533"><ele>881.0000000000001</ele><time>2026-05-02T11:50:14.989Z</time></trkpt><trkpt lat="44.7815117" lon="9.3357267"><ele>881.0</ele><time>2026-05-02T11:50:16.99Z</time></trkpt><trkpt lat="44.7815917" lon="9.3357867"><ele>877.6666666666667</ele><time>2026-05-02T11:50:18.989Z</time></trkpt><trkpt lat="44.7816767" lon="9.3357967"><ele>874.3333333333334</ele><time>2026-05-02T11:50:20.989Z</time></trkpt><trkpt lat="44.781775" lon="9.3357867"><ele>871.0</ele><time>2026-05-02T11:50:22.99Z</time></trkpt><trkpt lat="44.781865" lon="9.335765"><ele>867.6666666666667</ele><time>2026-05-02T11:50:24.99Z</time></trkpt><trkpt lat="44.7819667" lon="9.3357617"><ele>864.3333333333334</ele><time>2026-05-02T11:50:26.989Z</time></trkpt><trkpt lat="44.7820383" lon="9.3357467"><ele>861.0</ele><time>2026-05-02T11:50:27.989Z</time></trkpt><trkpt lat="44.7821033" lon="9.33572"><ele>858.0</ele><time>2026-05-02T11:50:28.988Z</time></trkpt><trkpt lat="44.7821683" lon="9.3356883"><ele>855.0</ele><time>2026-05-02T11:50:29.989Z</time></trkpt><trkpt lat="44.7822817" lon="9.3356467"><ele>852.0</ele><time>2026-05-02T11:50:31.989Z</time></trkpt><trkpt lat="44.78238" lon="9.33562"><ele>849.0</ele><time>2026-05-02T11:50:33.989Z</time></trkpt><trkpt lat="44.7824467" lon="9.3356017"><ele>846.0</ele><time>2026-05-02T11:50:34.989Z</time></trkpt><trkpt lat="44.782515" lon="9.3355817"><ele>843.0</ele><time>2026-05-02T11:50:35.99Z</time></trkpt><trkpt lat="44.78259" lon="9.3355583"><ele>844.5</ele><time>2026-05-02T11:50:36.989Z</time></trkpt><trkpt lat="44.782655" lon="9.3355433"><ele>846.0</ele><time>2026-05-02T11:50:37.989Z</time></trkpt><trkpt lat="44.7827467" lon="9.33556"><ele>847.5</ele><time>2026-05-02T11:50:39.989Z</time></trkpt><trkpt lat="44.7828067" lon="9.3356783"><ele>849.0</ele><time>2026-05-02T11:50:41.989Z</time></trkpt><trkpt lat="44.7828183" lon="9.3358017"><ele>850.5</ele><time>2026-05-02T11:50:42.989Z</time></trkpt><trkpt lat="44.7828367" lon="9.3359217"><ele>852.0</ele><time>2026-05-02T11:50:43.99Z</time></trkpt><trkpt lat="44.7828517" lon="9.33605"><ele>852.0</ele><time>2026-05-02T11:50:44.989Z</time></trkpt><trkpt lat="44.782875" lon="9.336175"><ele>852.0</ele><time>2026-05-02T11:50:45.989Z</time></trkpt><trkpt lat="44.78291" lon="9.3362867"><ele>852.0</ele><time>2026-05-02T11:50:46.989Z</time></trkpt><trkpt lat="44.7829417" lon="9.33639"><ele>852.0</ele><time>2026-05-02T11:50:47.989Z</time></trkpt><trkpt lat="44.782965" lon="9.3364867"><ele>852.0</ele><time>2026-05-02T11:50:48.989Z</time></trkpt><trkpt lat="44.7829917" lon="9.3365817"><ele>852.0</ele><time>2026-05-02T11:50:49.989Z</time></trkpt><trkpt lat="44.78304" lon="9.3366733"><ele>847.4000000000001</ele><time>2026-05-02T11:50:50.989Z</time></trkpt><trkpt lat="44.7831483" lon="9.3367383"><ele>842.8000000000001</ele><time>2026-05-02T11:50:52.989Z</time></trkpt><trkpt lat="44.7832467" lon="9.3367417"><ele>838.2</ele><time>2026-05-02T11:50:54.989Z</time></trkpt><trkpt lat="44.7833317" lon="9.3367483"><ele>833.6</ele><time>2026-05-02T11:50:56.989Z</time></trkpt><trkpt lat="44.7834533" lon="9.3367267"><ele>829.0</ele><time>2026-05-02T11:50:58.99Z</time></trkpt><trkpt lat="44.7835283" lon="9.336695"><ele>826.6666666666666</ele><time>2026-05-02T11:50:59.989Z</time></trkpt><trkpt lat="44.7836067" lon="9.3366617"><ele>824.3333333333333</ele><time>2026-05-02T11:51:00.99Z</time></trkpt><trkpt lat="44.7836717" lon="9.336635"><ele>822.0</ele><time>2026-05-02T11:51:01.99Z</time></trkpt><trkpt lat="44.783735" lon="9.33662"><ele>819.6666666666667</ele><time>2026-05-02T11:51:02.99Z</time></trkpt><trkpt lat="44.7837983" lon="9.3366033"><ele>817.3333333333334</ele><time>2026-05-02T11:51:03.989Z</time></trkpt><trkpt lat="44.7838667" lon="9.33658"><ele>815.0</ele><time>2026-05-02T11:51:04.989Z</time></trkpt><trkpt lat="44.783985" lon="9.336575"><ele>815.0000000000001</ele><time>2026-05-02T11:51:06.99Z</time></trkpt><trkpt lat="44.7840517" lon="9.336565"><ele>815.0</ele><time>2026-05-02T11:51:07.99Z</time></trkpt><trkpt lat="44.7841283" lon="9.3365317"><ele>815.0</ele><time>2026-05-02T11:51:08.99Z</time></trkpt><trkpt lat="44.7842017" lon="9.3364733"><ele>815.0</ele><time>2026-05-02T11:51:09.989Z</time></trkpt><trkpt lat="44.78426" lon="9.3364233"><ele>815.0000000000001</ele><time>2026-05-02T11:51:10.99Z</time></trkpt><trkpt lat="44.7843417" lon="9.3363533"><ele>815.0</ele><time>2026-05-02T11:51:12.991Z</time></trkpt><trkpt lat="44.7844017" lon="9.3362917"><ele>814.25</ele><time>2026-05-02T11:51:13.99Z</time></trkpt><trkpt lat="44.7844883" lon="9.3362033"><ele>813.5</ele><time>2026-05-02T11:51:15.989Z</time></trkpt><trkpt lat="44.7845783" lon="9.3361183"><ele>812.75</ele><time>2026-05-02T11:51:17.989Z</time></trkpt><trkpt lat="44.78472" lon="9.3360367"><ele>812.0</ele><time>2026-05-02T11:51:19.99Z</time></trkpt><trkpt lat="44.7848317" lon="9.3360117"><ele>812.0</ele><time>2026-05-02T11:51:20.991Z</time></trkpt><trkpt lat="44.7849283" lon="9.3359967"><ele>812.0</ele><time>2026-05-02T11:51:21.989Z</time></trkpt><trkpt lat="44.78505" lon="9.3360383"><ele>812.0</ele><time>2026-05-02T11:51:23.989Z</time></trkpt><trkpt lat="44.785165" lon="9.336155"><ele>812.0</ele><time>2026-05-02T11:51:25.99Z</time></trkpt><trkpt lat="44.78525" lon="9.3362383"><ele>811.1666666666667</ele><time>2026-05-02T11:51:26.99Z</time></trkpt><trkpt lat="44.7853117" lon="9.3363067"><ele>810.3333333333334</ele><time>2026-05-02T11:51:27.99Z</time></trkpt><trkpt lat="44.7853917" lon="9.33641"><ele>809.5</ele><time>2026-05-02T11:51:29.989Z</time></trkpt><trkpt lat="44.7854167" lon="9.3365183"><ele>808.6666666666667</ele><time>2026-05-02T11:51:31.989Z</time></trkpt><trkpt lat="44.7854267" lon="9.336625"><ele>807.8333333333334</ele><time>2026-05-02T11:51:33.99Z</time></trkpt><trkpt lat="44.7854167" lon="9.3367283"><ele>807.0</ele><time>2026-05-02T11:51:36.991Z</time></trkpt><trkpt lat="44.7853883" lon="9.336815"><ele>805.3333333333334</ele><time>2026-05-02T11:51:39.99Z</time></trkpt><trkpt lat="44.78536" lon="9.3369067"><ele>803.6666666666667</ele><time>2026-05-02T11:51:43.989Z</time></trkpt><trkpt lat="44.7853217" lon="9.3370233"><ele>802.0</ele><time>2026-05-02T11:51:45.989Z</time></trkpt><trkpt lat="44.7852533" lon="9.3371683"><ele>800.3333333333334</ele><time>2026-05-02T11:51:47.989Z</time></trkpt><trkpt lat="44.7852133" lon="9.337255"><ele>798.6666666666667</ele><time>2026-05-02T11:51:48.99Z</time></trkpt><trkpt lat="44.7851733" lon="9.3373433"><ele>797.0</ele><time>2026-05-02T11:51:49.992Z</time></trkpt><trkpt lat="44.7851283" lon="9.3374217"><ele>795.1666666666667</ele><time>2026-05-02T11:51:50.991Z</time></trkpt><trkpt lat="44.78508" lon="9.3374967"><ele>793.3333333333334</ele><time>2026-05-02T11:51:51.991Z</time></trkpt><trkpt lat="44.785035" lon="9.3375717"><ele>791.5</ele><time>2026-05-02T11:51:52.991Z</time></trkpt><trkpt lat="44.78499" lon="9.3376417"><ele>789.6666666666667</ele><time>2026-05-02T11:51:53.991Z</time></trkpt><trkpt lat="44.7849467" lon="9.3377083"><ele>787.8333333333334</ele><time>2026-05-02T11:51:54.991Z</time></trkpt><trkpt lat="44.784905" lon="9.3377767"><ele>786.0</ele><time>2026-05-02T11:51:55.991Z</time></trkpt><trkpt lat="44.7848383" lon="9.3379067"><ele>783.5</ele><time>2026-05-02T11:51:57.991Z</time></trkpt><trkpt lat="44.784775" lon="9.3380517"><ele>781.0</ele><time>2026-05-02T11:51:59.989Z</time></trkpt><trkpt lat="44.7847483" lon="9.33814"><ele>778.5</ele><time>2026-05-02T11:52:00.989Z</time></trkpt><trkpt lat="44.784725" lon="9.3382417"><ele>776.0</ele><time>2026-05-02T11:52:01.989Z</time></trkpt><trkpt lat="44.7847033" lon="9.338335"><ele>773.5</ele><time>2026-05-02T11:52:02.989Z</time></trkpt><trkpt lat="44.78468" lon="9.338425"><ele>771.0</ele><time>2026-05-02T11:52:03.989Z</time></trkpt><trkpt lat="44.7846367" lon="9.338585"><ele>771.0</ele><time>2026-05-02T11:52:05.99Z</time></trkpt><trkpt lat="44.78461" lon="9.3386667"><ele>771.0</ele><time>2026-05-02T11:52:06.989Z</time></trkpt><trkpt lat="44.784595" lon="9.3387567"><ele>771.0</ele><time>2026-05-02T11:52:07.989Z</time></trkpt><trkpt lat="44.784585" lon="9.3388483"><ele>771.0</ele><time>2026-05-02T11:52:08.989Z</time></trkpt><trkpt lat="44.7845783" lon="9.3389417"><ele>771.0</ele><time>2026-05-02T11:52:09.99Z</time></trkpt><trkpt lat="44.7845683" lon="9.339035"><ele>771.0</ele><time>2026-05-02T11:52:10.989Z</time></trkpt><trkpt lat="44.78456" lon="9.3391317"><ele>771.0</ele><time>2026-05-02T11:52:11.99Z</time></trkpt><trkpt lat="44.7845517" lon="9.3392233"><ele>769.0</ele><time>2026-05-02T11:52:12.99Z</time></trkpt><trkpt lat="44.7845183" lon="9.3393767"><ele>767.0</ele><time>2026-05-02T11:52:14.99Z</time></trkpt><trkpt lat="44.7844467" lon="9.3394967"><ele>765.0</ele><time>2026-05-02T11:52:16.989Z</time></trkpt><trkpt lat="44.7843967" lon="9.3395567"><ele>763.0</ele><time>2026-05-02T11:52:17.989Z</time></trkpt><trkpt lat="44.7843433" lon="9.3396233"><ele>761.0</ele><time>2026-05-02T11:52:18.989Z</time></trkpt><trkpt lat="44.7842933" lon="9.3396933"><ele>759.0</ele><time>2026-05-02T11:52:19.989Z</time></trkpt><trkpt lat="44.7842183" lon="9.3398017"><ele>754.4000000000001</ele><time>2026-05-02T11:52:21.99Z</time></trkpt><trkpt lat="44.784175" lon="9.3399317"><ele>749.8</ele><time>2026-05-02T11:52:24.989Z</time></trkpt><trkpt lat="44.7841833" lon="9.3400633"><ele>745.2</ele><time>2026-05-02T11:52:26.99Z</time></trkpt><trkpt lat="44.7841933" lon="9.3402317"><ele>740.5999999999999</ele><time>2026-05-02T11:52:28.99Z</time></trkpt><trkpt lat="44.7842017" lon="9.34033"><ele>736.0</ele><time>2026-05-02T11:52:29.989Z</time></trkpt><trkpt lat="44.784215" lon="9.3404283"><ele>736.0</ele><time>2026-05-02T11:52:30.989Z</time></trkpt><trkpt lat="44.7842317" lon="9.3405367"><ele>736.0</ele><time>2026-05-02T11:52:31.989Z</time></trkpt><trkpt lat="44.7842517" lon="9.3406433"><ele>736.0</ele><time>2026-05-02T11:52:32.99Z</time></trkpt><trkpt lat="44.7842817" lon="9.3407633"><ele>736.0</ele><time>2026-05-02T11:52:33.989Z</time></trkpt><trkpt lat="44.7843217" lon="9.3408883"><ele>736.0</ele><time>2026-05-02T11:52:34.989Z</time></trkpt><trkpt lat="44.7843667" lon="9.34102"><ele>736.0</ele><time>2026-05-02T11:52:35.99Z</time></trkpt><trkpt lat="44.7844233" lon="9.3411633"><ele>735.4</ele><time>2026-05-02T11:52:36.989Z</time></trkpt><trkpt lat="44.7844733" lon="9.341305"><ele>734.8</ele><time>2026-05-02T11:52:37.991Z</time></trkpt><trkpt lat="44.784515" lon="9.3414467"><ele>734.1999999999999</ele><time>2026-05-02T11:52:38.993Z</time></trkpt><trkpt lat="44.7845433" lon="9.3415883"><ele>733.5999999999999</ele><time>2026-05-02T11:52:39.993Z</time></trkpt><trkpt lat="44.7845517" lon="9.3417133"><ele>733.0</ele><time>2026-05-02T11:52:40.991Z</time></trkpt><trkpt lat="44.7845433" lon="9.3418433"><ele>729.5999999999999</ele><time>2026-05-02T11:52:41.989Z</time></trkpt><trkpt lat="44.7845167" lon="9.3419667"><ele>726.1999999999999</ele><time>2026-05-02T11:52:42.991Z</time></trkpt><trkpt lat="44.7844833" lon="9.3420917"><ele>722.8</ele><time>2026-05-02T11:52:43.989Z</time></trkpt><trkpt lat="44.7844433" lon="9.3422133"><ele>719.4</ele><time>2026-05-02T11:52:44.99Z</time></trkpt><trkpt lat="44.7844067" lon="9.342345"><ele>716.0</ele><time>2026-05-02T11:52:45.989Z</time></trkpt><trkpt lat="44.7843733" lon="9.3424767"><ele>714.3333333333333</ele><time>2026-05-02T11:52:46.99Z</time></trkpt><trkpt lat="44.7843433" lon="9.3426133"><ele>712.6666666666666</ele><time>2026-05-02T11:52:47.99Z</time></trkpt><trkpt lat="44.78432" lon="9.3427467"><ele>711.0</ele><time>2026-05-02T11:52:48.989Z</time></trkpt><trkpt lat="44.7842967" lon="9.3428733"><ele>709.3333333333334</ele><time>2026-05-02T11:52:49.991Z</time></trkpt><trkpt lat="44.784275" lon="9.3429867"><ele>707.6666666666667</ele><time>2026-05-02T11:52:50.99Z</time></trkpt><trkpt lat="44.7842533" lon="9.3430817"><ele>706.0</ele><time>2026-05-02T11:52:51.991Z</time></trkpt><trkpt lat="44.7842033" lon="9.343235"><ele>704.3333333333334</ele><time>2026-05-02T11:52:53.99Z</time></trkpt><trkpt lat="44.7841233" lon="9.3433533"><ele>702.6666666666667</ele><time>2026-05-02T11:52:55.99Z</time></trkpt><trkpt lat="44.7840667" lon="9.3434067"><ele>701.0</ele><time>2026-05-02T11:52:56.99Z</time></trkpt><trkpt lat="44.7840133" lon="9.3434633"><ele>699.3333333333334</ele><time>2026-05-02T11:52:57.99Z</time></trkpt><trkpt lat="44.783955" lon="9.343515"><ele>697.6666666666666</ele><time>2026-05-02T11:52:58.99Z</time></trkpt><trkpt lat="44.7838967" lon="9.34357"><ele>696.0</ele><time>2026-05-02T11:52:59.99Z</time></trkpt><trkpt lat="44.7838283" lon="9.3436183"><ele>696.0</ele><time>2026-05-02T11:53:00.99Z</time></trkpt><trkpt lat="44.783765" lon="9.3436717"><ele>696.0</ele><time>2026-05-02T11:53:01.99Z</time></trkpt><trkpt lat="44.7837083" lon="9.3437183"><ele>696.0</ele><time>2026-05-02T11:53:02.991Z</time></trkpt><trkpt lat="44.7836533" lon="9.3437617"><ele>696.0</ele><time>2026-05-02T11:53:03.99Z</time></trkpt><trkpt lat="44.7835583" lon="9.3438333"><ele>696.0</ele><time>2026-05-02T11:53:05.992Z</time></trkpt><trkpt lat="44.7834917" lon="9.3438833"><ele>696.0</ele><time>2026-05-02T11:53:07.991Z</time></trkpt><trkpt lat="44.78343" lon="9.3439283"><ele>693.8</ele><time>2026-05-02T11:53:09.991Z</time></trkpt><trkpt lat="44.7833217" lon="9.3440033"><ele>691.5999999999999</ele><time>2026-05-02T11:53:47.99Z</time></trkpt><trkpt lat="44.783215" lon="9.3440867"><ele>689.4</ele><time>2026-05-02T11:53:49.99Z</time></trkpt><trkpt lat="44.783145" lon="9.3441267"><ele>687.2</ele><time>2026-05-02T11:53:50.991Z</time></trkpt><trkpt lat="44.78307" lon="9.34417"><ele>685.0</ele><time>2026-05-02T11:53:51.99Z</time></trkpt><trkpt lat="44.782995" lon="9.3442133"><ele>685.0</ele><time>2026-05-02T11:53:52.99Z</time></trkpt><trkpt lat="44.78292" lon="9.3442567"><ele>685.0</ele><time>2026-05-02T11:53:53.991Z</time></trkpt><trkpt lat="44.782845" lon="9.3443"><ele>685.0</ele><time>2026-05-02T11:53:54.99Z</time></trkpt><trkpt lat="44.78277" lon="9.3443533"><ele>685.0</ele><time>2026-05-02T11:53:55.99Z</time></trkpt><trkpt lat="44.7826983" lon="9.3444167"><ele>685.0</ele><time>2026-05-02T11:53:56.99Z</time></trkpt><trkpt lat="44.7826333" lon="9.3444717"><ele>685.0</ele><time>2026-05-02T11:53:57.989Z</time></trkpt><trkpt lat="44.7825667" lon="9.3445167"><ele>683.0</ele><time>2026-05-02T11:53:58.989Z</time></trkpt><trkpt lat="44.7824933" lon="9.3445417"><ele>681.0</ele><time>2026-05-02T11:53:59.99Z</time></trkpt><trkpt lat="44.7824133" lon="9.3445567"><ele>679.0</ele><time>2026-05-02T11:54:00.989Z</time></trkpt><trkpt lat="44.782335" lon="9.3445667"><ele>677.0</ele><time>2026-05-02T11:54:01.991Z</time></trkpt><trkpt lat="44.78226" lon="9.3445517"><ele>675.0</ele><time>2026-05-02T11:54:02.991Z</time></trkpt><trkpt lat="44.7821817" lon="9.344515"><ele>673.0</ele><time>2026-05-02T11:54:03.992Z</time></trkpt><trkpt lat="44.7820983" lon="9.3444617"><ele>673.0</ele><time>2026-05-02T11:54:04.99Z</time></trkpt><trkpt lat="44.7820133" lon="9.344405"><ele>673.0</ele><time>2026-05-02T11:54:05.99Z</time></trkpt><trkpt lat="44.7819333" lon="9.3443483"><ele>673.0</ele><time>2026-05-02T11:54:06.989Z</time></trkpt><trkpt lat="44.781855" lon="9.3442967"><ele>673.0</ele><time>2026-05-02T11:54:07.99Z</time></trkpt><trkpt lat="44.7817833" lon="9.3442483"><ele>673.0</ele><time>2026-05-02T11:54:08.991Z</time></trkpt><trkpt lat="44.7817233" lon="9.3441933"><ele>673.0</ele><time>2026-05-02T11:54:09.99Z</time></trkpt><trkpt lat="44.7816717" lon="9.3441317"><ele>671.0</ele><time>2026-05-02T11:54:10.99Z</time></trkpt><trkpt lat="44.78162" lon="9.3440717"><ele>669.0</ele><time>2026-05-02T11:54:11.989Z</time></trkpt><trkpt lat="44.7815133" lon="9.3439983"><ele>667.0</ele><time>2026-05-02T11:54:14.093Z</time></trkpt><trkpt lat="44.7814017" lon="9.344025"><ele>665.0</ele><time>2026-05-02T11:54:15.989Z</time></trkpt><trkpt lat="44.7813383" lon="9.3440533"><ele>663.0</ele><time>2026-05-02T11:54:16.99Z</time></trkpt><trkpt lat="44.78127" lon="9.3440767"><ele>661.0</ele><time>2026-05-02T11:54:17.989Z</time></trkpt><trkpt lat="44.7812083" lon="9.3440983"><ele>661.0</ele><time>2026-05-02T11:54:18.989Z</time></trkpt><trkpt lat="44.7811017" lon="9.3441383"><ele>661.0</ele><time>2026-05-02T11:54:20.992Z</time></trkpt><trkpt lat="44.7810033" lon="9.3442083"><ele>661.0</ele><time>2026-05-02T11:54:22.99Z</time></trkpt><trkpt lat="44.7809067" lon="9.344295"><ele>661.0</ele><time>2026-05-02T11:54:24.99Z</time></trkpt><trkpt lat="44.780845" lon="9.344405"><ele>661.0</ele><time>2026-05-02T11:54:26.989Z</time></trkpt><trkpt lat="44.7807967" lon="9.3444983"><ele>657.5</ele><time>2026-05-02T11:54:28.99Z</time></trkpt><trkpt lat="44.7807" lon="9.3445083"><ele>654.0</ele><time>2026-05-02T11:54:31.989Z</time></trkpt><trkpt lat="44.7805917" lon="9.3444783"><ele>650.5</ele><time>2026-05-02T11:54:33.99Z</time></trkpt><trkpt lat="44.780525" lon="9.344455"><ele>647.0</ele><time>2026-05-02T11:54:34.991Z</time></trkpt><trkpt lat="44.7804583" lon="9.3444233"><ele>643.5</ele><time>2026-05-02T11:54:35.99Z</time></trkpt><trkpt lat="44.7803917" lon="9.3443933"><ele>640.0</ele><time>2026-05-02T11:54:36.99Z</time></trkpt><trkpt lat="44.7802817" lon="9.3443683"><ele>640.0</ele><time>2026-05-02T11:54:38.99Z</time></trkpt><trkpt lat="44.78019" lon="9.3443267"><ele>640.0</ele><time>2026-05-02T11:54:40.99Z</time></trkpt><trkpt lat="44.780095" lon="9.34431"><ele>640.0</ele><time>2026-05-02T11:54:42.99Z</time></trkpt><trkpt lat="44.7800017" lon="9.34435"><ele>640.0</ele><time>2026-05-02T11:54:44.99Z</time></trkpt><trkpt lat="44.7798917" lon="9.3443967"><ele>640.0</ele><time>2026-05-02T11:54:46.989Z</time></trkpt><trkpt lat="44.77978" lon="9.3444183"><ele>635.6</ele><time>2026-05-02T11:54:48.991Z</time></trkpt><trkpt lat="44.77967" lon="9.3444483"><ele>631.2</ele><time>2026-05-02T11:54:50.99Z</time></trkpt><trkpt lat="44.7795617" lon="9.3444617"><ele>626.8</ele><time>2026-05-02T11:54:52.989Z</time></trkpt><trkpt lat="44.7794583" lon="9.3444183"><ele>622.4</ele><time>2026-05-02T11:54:54.996Z</time></trkpt><trkpt lat="44.7793517" lon="9.344365"><ele>618.0</ele><time>2026-05-02T11:54:56.99Z</time></trkpt><trkpt lat="44.7792583" lon="9.3443383"><ele>615.3333333333334</ele><time>2026-05-02T11:54:58.99Z</time></trkpt><trkpt lat="44.779175" lon="9.34434"><ele>612.6666666666666</ele><time>2026-05-02T11:55:00.989Z</time></trkpt><trkpt lat="44.77909" lon="9.3443317"><ele>610.0</ele><time>2026-05-02T11:55:02.99Z</time></trkpt><trkpt lat="44.77901" lon="9.3443217"><ele>607.3333333333333</ele><time>2026-05-02T11:55:04.99Z</time></trkpt><trkpt lat="44.77893" lon="9.3443083"><ele>604.6666666666666</ele><time>2026-05-02T11:55:06.989Z</time></trkpt><trkpt lat="44.778845" lon="9.3442867"><ele>602.0</ele><time>2026-05-02T11:55:08.99Z</time></trkpt><trkpt lat="44.7787433" lon="9.34426"><ele>602.0</ele><time>2026-05-02T11:55:10.99Z</time></trkpt><trkpt lat="44.7786383" lon="9.3442567"><ele>602.0</ele><time>2026-05-02T11:55:12.989Z</time></trkpt><trkpt lat="44.7785417" lon="9.34426"><ele>602.0</ele><time>2026-05-02T11:55:14.99Z</time></trkpt><trkpt lat="44.7784417" lon="9.34426"><ele>602.0</ele><time>2026-05-02T11:55:16.989Z</time></trkpt><trkpt lat="44.7783417" lon="9.34426"><ele>602.0</ele><time>2026-05-02T11:55:18.989Z</time></trkpt><trkpt lat="44.7782167" lon="9.3443033"><ele>600.2</ele><time>2026-05-02T11:55:20.991Z</time></trkpt><trkpt lat="44.7781417" lon="9.34436"><ele>598.4000000000001</ele><time>2026-05-02T11:55:21.989Z</time></trkpt><trkpt lat="44.7780717" lon="9.3444417"><ele>596.5999999999999</ele><time>2026-05-02T11:55:22.99Z</time></trkpt><trkpt lat="44.7780033" lon="9.3445433"><ele>594.8</ele><time>2026-05-02T11:55:23.989Z</time></trkpt><trkpt lat="44.7779367" lon="9.344645"><ele>593.0</ele><time>2026-05-02T11:55:24.989Z</time></trkpt><trkpt lat="44.777865" lon="9.3447333"><ele>591.6666666666666</ele><time>2026-05-02T11:55:25.989Z</time></trkpt><trkpt lat="44.77779" lon="9.3448083"><ele>590.3333333333333</ele><time>2026-05-02T11:55:26.99Z</time></trkpt><trkpt lat="44.777725" lon="9.3448717"><ele>589.0</ele><time>2026-05-02T11:55:27.989Z</time></trkpt><trkpt lat="44.7776683" lon="9.34492"><ele>587.6666666666666</ele><time>2026-05-02T11:55:28.989Z</time></trkpt><trkpt lat="44.7775933" lon="9.344985"><ele>586.3333333333334</ele><time>2026-05-02T11:55:30.991Z</time></trkpt><trkpt lat="44.7775367" lon="9.34504"><ele>585.0</ele><time>2026-05-02T11:55:33.99Z</time></trkpt><trkpt lat="44.7774217" lon="9.345125"><ele>584.0</ele><time>2026-05-02T11:56:28.99Z</time></trkpt><trkpt lat="44.7773467" lon="9.345205"><ele>583.0</ele><time>2026-05-02T11:56:30.989Z</time></trkpt><trkpt lat="44.7772867" lon="9.34531"><ele>582.0</ele><time>2026-05-02T11:56:32.991Z</time></trkpt><trkpt lat="44.7772317" lon="9.3454267"><ele>581.0</ele><time>2026-05-02T11:56:34.99Z</time></trkpt><trkpt lat="44.7771867" lon="9.3455483"><ele>580.0</ele><time>2026-05-02T11:56:36.989Z</time></trkpt><trkpt lat="44.77716" lon="9.3456983"><ele>579.0</ele><time>2026-05-02T11:56:38.99Z</time></trkpt><trkpt lat="44.77713" lon="9.34584"><ele>578.0</ele><time>2026-05-02T11:56:40.99Z</time></trkpt><trkpt lat="44.7770683" lon="9.3459567"><ele>577.0</ele><time>2026-05-02T11:56:42.989Z</time></trkpt><trkpt lat="44.7770033" lon="9.3460883"><ele>576.0</ele><time>2026-05-02T11:56:44.99Z</time></trkpt><trkpt lat="44.7769667" lon="9.34624"><ele>575.0</ele><time>2026-05-02T11:56:46.989Z</time></trkpt><trkpt lat="44.7769083" lon="9.3463783"><ele>573.25</ele><time>2026-05-02T11:56:48.991Z</time></trkpt><trkpt lat="44.7768433" lon="9.3465267"><ele>571.5</ele><time>2026-05-02T11:56:50.99Z</time></trkpt><trkpt lat="44.7767983" lon="9.3466783"><ele>569.75</ele><time>2026-05-02T11:56:52.99Z</time></trkpt><trkpt lat="44.7767283" lon="9.346835"><ele>568.0</ele><time>2026-05-02T11:57:46.989Z</time></trkpt><trkpt lat="44.7766567" lon="9.3469433"><ele>568.0</ele><time>2026-05-02T11:57:48.99Z</time></trkpt><trkpt lat="44.77658" lon="9.3470317"><ele>568.0</ele><time>2026-05-02T11:57:50.99Z</time></trkpt><trkpt lat="44.77649" lon="9.3471"><ele>568.0</ele><time>2026-05-02T11:57:52.989Z</time></trkpt><trkpt lat="44.7763833" lon="9.3471217"><ele>568.0</ele><time>2026-05-02T11:57:54.988Z</time></trkpt><trkpt lat="44.776285" lon="9.3471433"><ele>568.0</ele><time>2026-05-02T11:57:56.989Z</time></trkpt><trkpt lat="44.776215" lon="9.3471983"><ele>567.0</ele><time>2026-05-02T11:57:58.99Z</time></trkpt><trkpt lat="44.7761517" lon="9.3472767"><ele>566.0</ele><time>2026-05-02T11:58:00.989Z</time></trkpt><trkpt lat="44.77613" lon="9.347385"><ele>565.0</ele><time>2026-05-02T11:58:02.989Z</time></trkpt><trkpt lat="44.776075" lon="9.3475"><ele>564.0</ele><time>2026-05-02T11:58:04.988Z</time></trkpt><trkpt lat="44.776015" lon="9.347595"><ele>563.0</ele><time>2026-05-02T11:58:06.989Z</time></trkpt><trkpt lat="44.7759417" lon="9.3476283"><ele>562.0</ele><time>2026-05-02T11:58:08.989Z</time></trkpt><trkpt lat="44.7758417" lon="9.3476483"><ele>559.0</ele><time>2026-05-02T11:58:10.989Z</time></trkpt><trkpt lat="44.7757483" lon="9.3477083"><ele>556.0</ele><time>2026-05-02T11:58:12.989Z</time></trkpt><trkpt lat="44.77565" lon="9.347745"><ele>553.0</ele><time>2026-05-02T11:58:14.989Z</time></trkpt><trkpt lat="44.7755683" lon="9.3477233"><ele>550.0</ele><time>2026-05-02T11:58:16.989Z</time></trkpt><trkpt lat="44.7754967" lon="9.3476917"><ele>547.0</ele><time>2026-05-02T11:58:18.988Z</time></trkpt><trkpt lat="44.7754067" lon="9.3476517"><ele>547.0</ele><time>2026-05-02T11:58:20.989Z</time></trkpt><trkpt lat="44.7753183" lon="9.34759"><ele>547.0</ele><time>2026-05-02T11:58:22.988Z</time></trkpt><trkpt lat="44.7752383" lon="9.3475067"><ele>547.0</ele><time>2026-05-02T11:58:24.988Z</time></trkpt><trkpt lat="44.775175" lon="9.347385"><ele>547.0</ele><time>2026-05-02T11:58:26.99Z</time></trkpt><trkpt lat="44.7750983" lon="9.3473083"><ele>547.0</ele><time>2026-05-02T11:58:28.991Z</time></trkpt><trkpt lat="44.7749967" lon="9.347275"><ele>544.6666666666667</ele><time>2026-05-02T11:58:30.989Z</time></trkpt><trkpt lat="44.7749233" lon="9.34724"><ele>542.3333333333334</ele><time>2026-05-02T11:58:32.989Z</time></trkpt><trkpt lat="44.77487" lon="9.3471833"><ele>540.0</ele><time>2026-05-02T11:58:34.989Z</time></trkpt><trkpt lat="44.774805" lon="9.3471117"><ele>537.6666666666666</ele><time>2026-05-02T11:58:36.989Z</time></trkpt><trkpt lat="44.7747383" lon="9.3469733"><ele>535.3333333333333</ele><time>2026-05-02T11:58:38.991Z</time></trkpt><trkpt lat="44.7746933" lon="9.3468917"><ele>533.0</ele><time>2026-05-02T11:58:39.989Z</time></trkpt><trkpt lat="44.7746333" lon="9.34683"><ele>533.0</ele><time>2026-05-02T11:58:40.99Z</time></trkpt><trkpt lat="44.7745717" lon="9.34678"><ele>533.0</ele><time>2026-05-02T11:58:41.989Z</time></trkpt><trkpt lat="44.774505" lon="9.3467433"><ele>533.0</ele><time>2026-05-02T11:58:42.989Z</time></trkpt><trkpt lat="44.7744417" lon="9.3467317"><ele>533.0</ele><time>2026-05-02T11:58:43.99Z</time></trkpt><trkpt lat="44.7743683" lon="9.3467433"><ele>533.0</ele><time>2026-05-02T11:58:44.989Z</time></trkpt><trkpt lat="44.7742917" lon="9.346755"><ele>533.0</ele><time>2026-05-02T11:58:45.989Z</time></trkpt><trkpt lat="44.774215" lon="9.3467533"><ele>533.0</ele><time>2026-05-02T11:58:46.989Z</time></trkpt><trkpt lat="44.77414" lon="9.346735"><ele>531.0</ele><time>2026-05-02T11:58:47.989Z</time></trkpt><trkpt lat="44.7740683" lon="9.3467033"><ele>529.0</ele><time>2026-05-02T11:58:48.989Z</time></trkpt><trkpt lat="44.774" lon="9.3466633"><ele>527.0</ele><time>2026-05-02T11:58:49.99Z</time></trkpt><trkpt lat="44.7739383" lon="9.346615"><ele>525.0</ele><time>2026-05-02T11:58:50.991Z</time></trkpt><trkpt lat="44.7738783" lon="9.3465683"><ele>523.0</ele><time>2026-05-02T11:58:51.989Z</time></trkpt><trkpt lat="44.7738217" lon="9.3465267"><ele>521.0</ele><time>2026-05-02T11:58:52.99Z</time></trkpt><trkpt lat="44.77371" lon="9.3464883"><ele>521.0</ele><time>2026-05-02T11:58:54.99Z</time></trkpt><trkpt lat="44.7736417" lon="9.3464633"><ele>521.0</ele><time>2026-05-02T11:58:55.989Z</time></trkpt><trkpt lat="44.7735667" lon="9.3464467"><ele>521.0</ele><time>2026-05-02T11:58:56.989Z</time></trkpt><trkpt lat="44.7734917" lon="9.3464317"><ele>521.0</ele><time>2026-05-02T11:58:57.989Z</time></trkpt><trkpt lat="44.7734167" lon="9.3464217"><ele>521.0</ele><time>2026-05-02T11:58:58.989Z</time></trkpt><trkpt lat="44.7733467" lon="9.3464217"><ele>521.0</ele><time>2026-05-02T11:58:59.989Z</time></trkpt><trkpt lat="44.7732817" lon="9.34644"><ele>521.0</ele><time>2026-05-02T11:59:00.989Z</time></trkpt><trkpt lat="44.773225" lon="9.346485"><ele>520.7142857142857</ele><time>2026-05-02T11:59:01.99Z</time></trkpt><trkpt lat="44.773165" lon="9.3465317"><ele>520.4285714285714</ele><time>2026-05-02T11:59:02.991Z</time></trkpt><trkpt lat="44.7731067" lon="9.3465733"><ele>520.1428571428571</ele><time>2026-05-02T11:59:03.989Z</time></trkpt><trkpt lat="44.773045" lon="9.3466133"><ele>519.8571428571429</ele><time>2026-05-02T11:59:04.989Z</time></trkpt><trkpt lat="44.7729833" lon="9.3466483"><ele>519.5714285714286</ele><time>2026-05-02T11:59:05.99Z</time></trkpt><trkpt lat="44.7729217" lon="9.34668"><ele>519.2857142857142</ele><time>2026-05-02T11:59:06.99Z</time></trkpt><trkpt lat="44.7728583" lon="9.3467067"><ele>519.0</ele><time>2026-05-02T11:59:07.99Z</time></trkpt><trkpt lat="44.7727917" lon="9.3467317"><ele>519.0</ele><time>2026-05-02T11:59:08.989Z</time></trkpt><trkpt lat="44.77273" lon="9.3467533"><ele>519.0</ele><time>2026-05-02T11:59:09.989Z</time></trkpt><trkpt lat="44.7726683" lon="9.346775"><ele>519.0</ele><time>2026-05-02T11:59:10.989Z</time></trkpt><trkpt lat="44.7725717" lon="9.34681"><ele>519.0</ele><time>2026-05-02T11:59:12.989Z</time></trkpt><trkpt lat="44.7724967" lon="9.346815"><ele>519.0</ele><time>2026-05-02T11:59:14.989Z</time></trkpt><trkpt lat="44.7724233" lon="9.3468167"><ele>519.0</ele><time>2026-05-02T11:59:16.989Z</time></trkpt><trkpt lat="44.77236" lon="9.34683"><ele>519.0</ele><time>2026-05-02T11:59:18.989Z</time></trkpt><trkpt lat="44.772265" lon="9.346845"><ele>517.1666666666666</ele><time>2026-05-02T11:59:21.989Z</time></trkpt><trkpt lat="44.772185" lon="9.3468683"><ele>515.3333333333334</ele><time>2026-05-02T11:59:23.989Z</time></trkpt><trkpt lat="44.7721033" lon="9.34689"><ele>513.5</ele><time>2026-05-02T11:59:25.989Z</time></trkpt><trkpt lat="44.772005" lon="9.3469467"><ele>511.6666666666667</ele><time>2026-05-02T11:59:27.989Z</time></trkpt><trkpt lat="44.7719433" lon="9.3469783"><ele>509.83333333333337</ele><time>2026-05-02T11:59:28.989Z</time></trkpt><trkpt lat="44.7718783" lon="9.347"><ele>508.0</ele><time>2026-05-02T11:59:29.989Z</time></trkpt><trkpt lat="44.77181" lon="9.3470167"><ele>505.6666666666667</ele><time>2026-05-02T11:59:30.988Z</time></trkpt><trkpt lat="44.77174" lon="9.3470233"><ele>503.33333333333337</ele><time>2026-05-02T11:59:31.988Z</time></trkpt><trkpt lat="44.7716667" lon="9.3470267"><ele>501.0</ele><time>2026-05-02T11:59:32.989Z</time></trkpt><trkpt lat="44.7715917" lon="9.3470283"><ele>498.66666666666663</ele><time>2026-05-02T11:59:33.988Z</time></trkpt><trkpt lat="44.7715133" lon="9.3470317"><ele>496.3333333333333</ele><time>2026-05-02T11:59:34.99Z</time></trkpt><trkpt lat="44.771435" lon="9.3470317"><ele>494.0</ele><time>2026-05-02T11:59:35.989Z</time></trkpt><trkpt lat="44.77136" lon="9.34704"><ele>494.0</ele><time>2026-05-02T11:59:36.988Z</time></trkpt><trkpt lat="44.7712933" lon="9.3470483"><ele>494.0</ele><time>2026-05-02T11:59:37.989Z</time></trkpt><trkpt lat="44.7711767" lon="9.34707"><ele>494.0</ele><time>2026-05-02T11:59:39.989Z</time></trkpt><trkpt lat="44.7710667" lon="9.3471183"><ele>494.0</ele><time>2026-05-02T11:59:41.989Z</time></trkpt><trkpt lat="44.7709617" lon="9.347155"><ele>494.0</ele><time>2026-05-02T11:59:43.989Z</time></trkpt><trkpt lat="44.770885" lon="9.3471617"><ele>492.79999999999995</ele><time>2026-05-02T11:59:45.989Z</time></trkpt><trkpt lat="44.7708133" lon="9.3471917"><ele>491.59999999999997</ele><time>2026-05-02T11:59:47.989Z</time></trkpt><trkpt lat="44.7707633" lon="9.347105"><ele>490.4</ele><time>2026-05-02T11:59:51.99Z</time></trkpt><trkpt lat="44.77074" lon="9.3469567"><ele>489.2</ele><time>2026-05-02T11:59:53.99Z</time></trkpt><trkpt lat="44.7706383" lon="9.346825"><ele>488.0</ele><time>2026-05-02T11:59:55.989Z</time></trkpt><trkpt lat="44.7705717" lon="9.346765"><ele>487.99999999999994</ele><time>2026-05-02T11:59:56.989Z</time></trkpt><trkpt lat="44.7705017" lon="9.3467033"><ele>488.0</ele><time>2026-05-02T11:59:57.988Z</time></trkpt><trkpt lat="44.7704333" lon="9.34664"><ele>488.0</ele><time>2026-05-02T11:59:58.991Z</time></trkpt><trkpt lat="44.77037" lon="9.3465783"><ele>488.0</ele><time>2026-05-02T11:59:59.991Z</time></trkpt><trkpt lat="44.7703117" lon="9.34652"><ele>487.99999999999994</ele><time>2026-05-02T12:00:00.99Z</time></trkpt><trkpt lat="44.7702533" lon="9.3464667"><ele>488.0</ele><time>2026-05-02T12:00:01.99Z</time></trkpt><trkpt lat="44.7701933" lon="9.34641"><ele>485.8333333333333</ele><time>2026-05-02T12:00:02.991Z</time></trkpt><trkpt lat="44.7701283" lon="9.3463533"><ele>483.66666666666663</ele><time>2026-05-02T12:00:03.99Z</time></trkpt><trkpt lat="44.77006" lon="9.3462983"><ele>481.5</ele><time>2026-05-02T12:00:04.99Z</time></trkpt><trkpt lat="44.7699883" lon="9.3462383"><ele>479.33333333333337</ele><time>2026-05-02T12:00:05.99Z</time></trkpt><trkpt lat="44.7699133" lon="9.346165"><ele>477.1666666666667</ele><time>2026-05-02T12:00:06.99Z</time></trkpt><trkpt lat="44.7698317" lon="9.3460783"><ele>475.0</ele><time>2026-05-02T12:00:07.99Z</time></trkpt><trkpt lat="44.7697483" lon="9.3459917"><ele>475.0</ele><time>2026-05-02T12:00:08.991Z</time></trkpt><trkpt lat="44.7696617" lon="9.3458967"><ele>475.0</ele><time>2026-05-02T12:00:09.99Z</time></trkpt><trkpt lat="44.76957" lon="9.3458067"><ele>475.0</ele><time>2026-05-02T12:00:10.99Z</time></trkpt><trkpt lat="44.7694783" lon="9.3457167"><ele>475.0</ele><time>2026-05-02T12:00:11.989Z</time></trkpt><trkpt lat="44.7693867" lon="9.3456333"><ele>475.0</ele><time>2026-05-02T12:00:12.99Z</time></trkpt><trkpt lat="44.7692967" lon="9.345555"><ele>471.6666666666667</ele><time>2026-05-02T12:00:13.991Z</time></trkpt><trkpt lat="44.76921" lon="9.3454767"><ele>468.33333333333337</ele><time>2026-05-02T12:00:14.989Z</time></trkpt><trkpt lat="44.7691333" lon="9.3453967"><ele>465.0</ele><time>2026-05-02T12:00:15.989Z</time></trkpt><trkpt lat="44.7690683" lon="9.3453117"><ele>461.66666666666663</ele><time>2026-05-02T12:00:16.989Z</time></trkpt><trkpt lat="44.7690133" lon="9.3452183"><ele>458.3333333333333</ele><time>2026-05-02T12:00:17.99Z</time></trkpt><trkpt lat="44.768985" lon="9.34512"><ele>455.0</ele><time>2026-05-02T12:00:18.99Z</time></trkpt><trkpt lat="44.768965" lon="9.344955"><ele>455.0</ele><time>2026-05-02T12:00:20.989Z</time></trkpt><trkpt lat="44.7689" lon="9.3449067"><ele>455.0</ele><time>2026-05-02T12:00:23.991Z</time></trkpt><trkpt lat="44.7688667" lon="9.345005"><ele>455.0</ele><time>2026-05-02T12:00:35.99Z</time></trkpt><trkpt lat="44.76885" lon="9.3451733"><ele>455.0</ele><time>2026-05-02T12:00:37.991Z</time></trkpt><trkpt lat="44.7688317" lon="9.3453083"><ele>455.0</ele><time>2026-05-02T12:00:38.99Z</time></trkpt><trkpt lat="44.7688017" lon="9.345475"><ele>455.0</ele><time>2026-05-02T12:00:39.99Z</time></trkpt><trkpt lat="44.7687683" lon="9.3456483"><ele>455.0</ele><time>2026-05-02T12:00:40.99Z</time></trkpt><trkpt lat="44.7687283" lon="9.345815"><ele>455.0</ele><time>2026-05-02T12:00:41.989Z</time></trkpt><trkpt lat="44.7686683" lon="9.3459783"><ele>455.0</ele><time>2026-05-02T12:00:42.988Z</time></trkpt><trkpt lat="44.7686017" lon="9.3461383"><ele>455.0</ele><time>2026-05-02T12:00:43.988Z</time></trkpt><trkpt lat="44.768545" lon="9.3462883"><ele>455.0</ele><time>2026-05-02T12:00:44.989Z</time></trkpt><trkpt lat="44.7684933" lon="9.3464267"><ele>455.0</ele><time>2026-05-02T12:00:45.99Z</time></trkpt><trkpt lat="44.7684467" lon="9.3465567"><ele>455.0</ele><time>2026-05-02T12:00:46.989Z</time></trkpt><trkpt lat="44.7684083" lon="9.346685"><ele>455.0</ele><time>2026-05-02T12:00:47.989Z</time></trkpt><trkpt lat="44.7683883" lon="9.3468133"><ele>450.25</ele><time>2026-05-02T12:00:48.99Z</time></trkpt><trkpt lat="44.7683883" lon="9.3469467"><ele>445.5</ele><time>2026-05-02T12:00:49.989Z</time></trkpt><trkpt lat="44.7684" lon="9.3470933"><ele>440.75</ele><time>2026-05-02T12:00:50.99Z</time></trkpt><trkpt lat="44.7684333" lon="9.34726"><ele>436.0</ele><time>2026-05-02T12:00:51.994Z</time></trkpt><trkpt lat="44.7684783" lon="9.3474433"><ele>440.0</ele><time>2026-05-02T12:00:52.99Z</time></trkpt><trkpt lat="44.76853" lon="9.3476433"><ele>444.0</ele><time>2026-05-02T12:00:53.989Z</time></trkpt><trkpt lat="44.76858" lon="9.3478333"><ele>448.0</ele><time>2026-05-02T12:00:54.989Z</time></trkpt><trkpt lat="44.768625" lon="9.3480017"><ele>452.0</ele><time>2026-05-02T12:00:55.991Z</time></trkpt><trkpt lat="44.76866" lon="9.3481583"><ele>452.40000000000003</ele><time>2026-05-02T12:00:56.989Z</time></trkpt><trkpt lat="44.7686933" lon="9.348315"><ele>452.80000000000007</ele><time>2026-05-02T12:00:57.989Z</time></trkpt><trkpt lat="44.768725" lon="9.3484617"><ele>453.2</ele><time>2026-05-02T12:00:58.99Z</time></trkpt><trkpt lat="44.7687533" lon="9.3485983"><ele>453.6</ele><time>2026-05-02T12:00:59.99Z</time></trkpt><trkpt lat="44.7687767" lon="9.3487283"><ele>454.0</ele><time>2026-05-02T12:01:00.991Z</time></trkpt><trkpt lat="44.7687983" lon="9.3488517"><ele>453.5714285714286</ele><time>2026-05-02T12:01:01.99Z</time></trkpt><trkpt lat="44.7688133" lon="9.3489633"><ele>453.1428571428572</ele><time>2026-05-02T12:01:02.991Z</time></trkpt><trkpt lat="44.76882" lon="9.349065"><ele>452.7142857142857</ele><time>2026-05-02T12:01:03.991Z</time></trkpt><trkpt lat="44.7688283" lon="9.349165"><ele>452.28571428571433</ele><time>2026-05-02T12:01:04.99Z</time></trkpt><trkpt lat="44.768845" lon="9.3492567"><ele>451.8571428571429</ele><time>2026-05-02T12:01:05.991Z</time></trkpt><trkpt lat="44.7688783" lon="9.3493433"><ele>451.42857142857144</ele><time>2026-05-02T12:01:06.99Z</time></trkpt><trkpt lat="44.7689283" lon="9.3494167"><ele>451.0</ele><time>2026-05-02T12:01:07.99Z</time></trkpt><trkpt lat="44.7689883" lon="9.34948"><ele>451.0</ele><time>2026-05-02T12:01:08.99Z</time></trkpt><trkpt lat="44.7690467" lon="9.3495317"><ele>451.0</ele><time>2026-05-02T12:01:09.99Z</time></trkpt><trkpt lat="44.7691033" lon="9.349585"><ele>451.0</ele><time>2026-05-02T12:01:10.99Z</time></trkpt><trkpt lat="44.769145" lon="9.3496533"><ele>451.0</ele><time>2026-05-02T12:01:11.99Z</time></trkpt><trkpt lat="44.7691733" lon="9.3498117"><ele>451.0</ele><time>2026-05-02T12:01:13.99Z</time></trkpt><trkpt lat="44.7691767" lon="9.3499017"><ele>451.0</ele><time>2026-05-02T12:01:14.989Z</time></trkpt><trkpt lat="44.769185" lon="9.349995"><ele>451.0</ele><time>2026-05-02T12:01:15.989Z</time></trkpt><trkpt lat="44.7692" lon="9.3500983"><ele>449.50000000000006</ele><time>2026-05-02T12:01:16.989Z</time></trkpt><trkpt lat="44.7692133" lon="9.35021"><ele>448.0</ele><time>2026-05-02T12:01:17.99Z</time></trkpt><trkpt lat="44.7692317" lon="9.350325"><ele>446.5</ele><time>2026-05-02T12:01:18.99Z</time></trkpt><trkpt lat="44.7692433" lon="9.350445"><ele>445.0</ele><time>2026-05-02T12:01:19.989Z</time></trkpt><trkpt lat="44.7692483" lon="9.3505667"><ele>443.50000000000006</ele><time>2026-05-02T12:01:20.992Z</time></trkpt><trkpt lat="44.7692533" lon="9.3506917"><ele>442.0</ele><time>2026-05-02T12:01:21.991Z</time></trkpt><trkpt lat="44.7692667" lon="9.3508133"><ele>440.83333333333337</ele><time>2026-05-02T12:01:22.99Z</time></trkpt><trkpt lat="44.7692817" lon="9.3509233"><ele>439.6666666666667</ele><time>2026-05-02T12:01:23.99Z</time></trkpt><trkpt lat="44.769295" lon="9.3510267"><ele>438.5</ele><time>2026-05-02T12:01:24.989Z</time></trkpt><trkpt lat="44.7692933" lon="9.35113"><ele>437.33333333333337</ele><time>2026-05-02T12:01:25.989Z</time></trkpt><trkpt lat="44.7692683" lon="9.351225"><ele>436.1666666666667</ele><time>2026-05-02T12:01:26.99Z</time></trkpt><trkpt lat="44.769255" lon="9.3513117"><ele>435.0</ele><time>2026-05-02T12:01:27.988Z</time></trkpt><trkpt lat="44.76925" lon="9.351495"><ele>433.8333333333333</ele><time>2026-05-02T12:01:29.991Z</time></trkpt><trkpt lat="44.7692517" lon="9.3515933"><ele>432.66666666666663</ele><time>2026-05-02T12:01:30.989Z</time></trkpt><trkpt lat="44.7692517" lon="9.3516883"><ele>431.5</ele><time>2026-05-02T12:01:31.989Z</time></trkpt><trkpt lat="44.76924" lon="9.351785"><ele>430.3333333333333</ele><time>2026-05-02T12:01:32.989Z</time></trkpt><trkpt lat="44.7692283" lon="9.35189"><ele>429.16666666666663</ele><time>2026-05-02T12:01:33.989Z</time></trkpt><trkpt lat="44.7692167" lon="9.3520083"><ele>428.0</ele><time>2026-05-02T12:01:34.989Z</time></trkpt><trkpt lat="44.769205" lon="9.3521367"><ele>426.0</ele><time>2026-05-02T12:01:35.992Z</time></trkpt><trkpt lat="44.7691967" lon="9.3522717"><ele>423.99999999999994</ele><time>2026-05-02T12:01:36.99Z</time></trkpt><trkpt lat="44.769195" lon="9.3524067"><ele>422.0</ele><time>2026-05-02T12:01:37.99Z</time></trkpt><trkpt lat="44.7691933" lon="9.3525367"><ele>420.0</ele><time>2026-05-02T12:01:38.992Z</time></trkpt><trkpt lat="44.769195" lon="9.3526617"><ele>418.0</ele><time>2026-05-02T12:01:39.991Z</time></trkpt><trkpt lat="44.7691967" lon="9.352775"><ele>418.00000000000006</ele><time>2026-05-02T12:01:40.99Z</time></trkpt><trkpt lat="44.769195" lon="9.3528733"><ele>418.0</ele><time>2026-05-02T12:01:41.989Z</time></trkpt><trkpt lat="44.7691917" lon="9.352965"><ele>418.0</ele><time>2026-05-02T12:01:42.989Z</time></trkpt><trkpt lat="44.76919" lon="9.3530567"><ele>418.0</ele><time>2026-05-02T12:01:43.988Z</time></trkpt><trkpt lat="44.76918" lon="9.353145"><ele>418.00000000000006</ele><time>2026-05-02T12:01:44.989Z</time></trkpt><trkpt lat="44.7691433" lon="9.3532917"><ele>418.0</ele><time>2026-05-02T12:01:46.989Z</time></trkpt><trkpt lat="44.7690917" lon="9.3534233"><ele>415.59999999999997</ele><time>2026-05-02T12:01:48.989Z</time></trkpt><trkpt lat="44.76904" lon="9.3535433"><ele>413.2</ele><time>2026-05-02T12:01:50.991Z</time></trkpt><trkpt lat="44.76899" lon="9.3536833"><ele>410.8</ele><time>2026-05-02T12:01:52.989Z</time></trkpt><trkpt lat="44.768965" lon="9.35384"><ele>408.4</ele><time>2026-05-02T12:01:54.989Z</time></trkpt><trkpt lat="44.7689417" lon="9.35396"><ele>406.0</ele><time>2026-05-02T12:01:56.989Z</time></trkpt><trkpt lat="44.7688917" lon="9.3540533"><ele>403.6666666666667</ele><time>2026-05-02T12:01:58.989Z</time></trkpt><trkpt lat="44.7688667" lon="9.3541667"><ele>401.33333333333337</ele><time>2026-05-02T12:02:00.989Z</time></trkpt><trkpt lat="44.76887" lon="9.3542617"><ele>399.0</ele><time>2026-05-02T12:02:02.991Z</time></trkpt><trkpt lat="44.7689283" lon="9.3543433"><ele>396.66666666666663</ele><time>2026-05-02T12:02:04.989Z</time></trkpt><trkpt lat="44.76903" lon="9.3543683"><ele>394.3333333333333</ele><time>2026-05-02T12:02:06.989Z</time></trkpt><trkpt lat="44.769115" lon="9.3543567"><ele>392.0</ele><time>2026-05-02T12:02:08.989Z</time></trkpt><trkpt lat="44.7691983" lon="9.3543217"><ele>392.0</ele><time>2026-05-02T12:02:11.99Z</time></trkpt><trkpt lat="44.7692733" lon="9.3543933"><ele>392.0</ele><time>2026-05-02T12:02:14.989Z</time></trkpt><trkpt lat="44.7692817" lon="9.354515"><ele>392.0</ele><time>2026-05-02T12:02:16.989Z</time></trkpt><trkpt lat="44.7692333" lon="9.3546383"><ele>392.0</ele><time>2026-05-02T12:02:18.989Z</time></trkpt><trkpt lat="44.7691667" lon="9.35474"><ele>392.0</ele><time>2026-05-02T12:02:20.99Z</time></trkpt><trkpt lat="44.7690633" lon="9.354785"><ele>390.8333333333333</ele><time>2026-05-02T12:02:22.991Z</time></trkpt><trkpt lat="44.7690017" lon="9.35482"><ele>389.66666666666663</ele><time>2026-05-02T12:02:23.989Z</time></trkpt><trkpt lat="44.7689233" lon="9.354875"><ele>388.5</ele><time>2026-05-02T12:02:24.989Z</time></trkpt><trkpt lat="44.7688517" lon="9.354925"><ele>387.33333333333337</ele><time>2026-05-02T12:02:25.989Z</time></trkpt><trkpt lat="44.768785" lon="9.3549817"><ele>386.1666666666667</ele><time>2026-05-02T12:02:26.989Z</time></trkpt><trkpt lat="44.7687233" lon="9.3550533"><ele>385.0</ele><time>2026-05-02T12:02:27.989Z</time></trkpt><trkpt lat="44.768665" lon="9.3551383"><ele>385.0</ele><time>2026-05-02T12:02:28.99Z</time></trkpt><trkpt lat="44.7686067" lon="9.35525"><ele>385.0</ele><time>2026-05-02T12:02:29.989Z</time></trkpt><trkpt lat="44.76855" lon="9.35536"><ele>385.0</ele><time>2026-05-02T12:02:30.99Z</time></trkpt><trkpt lat="44.768505" lon="9.3554683"><ele>385.0</ele><time>2026-05-02T12:02:31.99Z</time></trkpt><trkpt lat="44.7684733" lon="9.3555833"><ele>385.0</ele><time>2026-05-02T12:02:32.989Z</time></trkpt><trkpt lat="44.7684567" lon="9.355705"><ele>384.00000000000006</ele><time>2026-05-02T12:02:33.989Z</time></trkpt><trkpt lat="44.7684383" lon="9.3558317"><ele>383.0</ele><time>2026-05-02T12:02:34.989Z</time></trkpt><trkpt lat="44.7684167" lon="9.3559567"><ele>382.0</ele><time>2026-05-02T12:02:35.99Z</time></trkpt><trkpt lat="44.7683967" lon="9.35608"><ele>381.0</ele><time>2026-05-02T12:02:36.989Z</time></trkpt><trkpt lat="44.7683767" lon="9.3561983"><ele>380.0</ele><time>2026-05-02T12:02:37.989Z</time></trkpt><trkpt lat="44.7683517" lon="9.3563033"><ele>379.0</ele><time>2026-05-02T12:02:38.99Z</time></trkpt><trkpt lat="44.7683217" lon="9.356385"><ele>379.0</ele><time>2026-05-02T12:02:39.989Z</time></trkpt><trkpt lat="44.7682967" lon="9.3565583"><ele>379.0</ele><time>2026-05-02T12:02:41.989Z</time></trkpt><trkpt lat="44.768305" lon="9.3566683"><ele>379.0</ele><time>2026-05-02T12:02:42.99Z</time></trkpt><trkpt lat="44.7683183" lon="9.356775"><ele>379.0</ele><time>2026-05-02T12:02:43.989Z</time></trkpt><trkpt lat="44.76834" lon="9.35688"><ele>379.0</ele><time>2026-05-02T12:02:44.989Z</time></trkpt><trkpt lat="44.768365" lon="9.3569817"><ele>379.0</ele><time>2026-05-02T12:02:45.989Z</time></trkpt><trkpt lat="44.7683933" lon="9.3570783"><ele>379.00000000000006</ele><time>2026-05-02T12:02:46.99Z</time></trkpt><trkpt lat="44.7684217" lon="9.3571767"><ele>379.0</ele><time>2026-05-02T12:02:47.989Z</time></trkpt><trkpt lat="44.7684433" lon="9.3572783"><ele>379.0</ele><time>2026-05-02T12:02:48.989Z</time></trkpt><trkpt lat="44.768465" lon="9.3573783"><ele>379.0</ele><time>2026-05-02T12:02:49.99Z</time></trkpt><trkpt lat="44.768485" lon="9.357475"><ele>379.0</ele><time>2026-05-02T12:02:50.989Z</time></trkpt><trkpt lat="44.7685067" lon="9.3575667"><ele>379.00000000000006</ele><time>2026-05-02T12:02:51.989Z</time></trkpt><trkpt lat="44.7685267" lon="9.357655"><ele>379.0</ele><time>2026-05-02T12:02:52.989Z</time></trkpt><trkpt lat="44.768545" lon="9.357745"><ele>381.42857142857144</ele><time>2026-05-02T12:02:53.989Z</time></trkpt><trkpt lat="44.768565" lon="9.3578333"><ele>383.8571428571429</ele><time>2026-05-02T12:02:54.989Z</time></trkpt><trkpt lat="44.768585" lon="9.357925"><ele>386.28571428571433</ele><time>2026-05-02T12:02:55.99Z</time></trkpt><trkpt lat="44.7686083" lon="9.3580183"><ele>388.7142857142857</ele><time>2026-05-02T12:02:56.989Z</time></trkpt><trkpt lat="44.7686333" lon="9.3581133"><ele>391.1428571428571</ele><time>2026-05-02T12:02:57.989Z</time></trkpt><trkpt lat="44.7686567" lon="9.3582133"><ele>393.5714285714286</ele><time>2026-05-02T12:02:58.989Z</time></trkpt><trkpt lat="44.7686783" lon="9.3583183"><ele>396.0</ele><time>2026-05-02T12:02:59.99Z</time></trkpt><trkpt lat="44.7687" lon="9.3584283"><ele>396.0</ele><time>2026-05-02T12:03:00.99Z</time></trkpt><trkpt lat="44.7687183" lon="9.3585317"><ele>396.0</ele><time>2026-05-02T12:03:01.99Z</time></trkpt><trkpt lat="44.768735" lon="9.35863"><ele>396.0</ele><time>2026-05-02T12:03:02.989Z</time></trkpt><trkpt lat="44.7687567" lon="9.35872"><ele>396.0</ele><time>2026-05-02T12:03:03.989Z</time></trkpt><trkpt lat="44.7687783" lon="9.35881"><ele>396.0</ele><time>2026-05-02T12:03:04.99Z</time></trkpt><trkpt lat="44.76881" lon="9.3589067"><ele>396.0</ele><time>2026-05-02T12:03:05.991Z</time></trkpt><trkpt lat="44.7688517" lon="9.359005"><ele>396.0</ele><time>2026-05-02T12:03:06.989Z</time></trkpt><trkpt lat="44.768885" lon="9.359105"><ele>395.6666666666667</ele><time>2026-05-02T12:03:07.99Z</time></trkpt><trkpt lat="44.768905" lon="9.359215"><ele>395.33333333333337</ele><time>2026-05-02T12:03:08.99Z</time></trkpt><trkpt lat="44.7689" lon="9.359325"><ele>395.0</ele><time>2026-05-02T12:03:09.99Z</time></trkpt><trkpt lat="44.7688683" lon="9.359425"><ele>394.6666666666667</ele><time>2026-05-02T12:03:10.991Z</time></trkpt><trkpt lat="44.7688217" lon="9.3595233"><ele>394.33333333333337</ele><time>2026-05-02T12:03:11.991Z</time></trkpt><trkpt lat="44.7687683" lon="9.3596317"><ele>394.0</ele><time>2026-05-02T12:03:12.989Z</time></trkpt><trkpt lat="44.7687167" lon="9.3597517"><ele>394.0</ele><time>2026-05-02T12:03:13.991Z</time></trkpt><trkpt lat="44.7686667" lon="9.3598783"><ele>394.0</ele><time>2026-05-02T12:03:14.991Z</time></trkpt><trkpt lat="44.76862" lon="9.3600217"><ele>394.0</ele><time>2026-05-02T12:03:15.991Z</time></trkpt><trkpt lat="44.7685733" lon="9.360195"><ele>394.0</ele><time>2026-05-02T12:03:16.989Z</time></trkpt><trkpt lat="44.7685283" lon="9.3604017"><ele>389.0</ele><time>2026-05-02T12:03:17.989Z</time></trkpt><trkpt lat="44.7684783" lon="9.3606233"><ele>384.0</ele><time>2026-05-02T12:03:18.989Z</time></trkpt><trkpt lat="44.76843" lon="9.3608383"><ele>379.0</ele><time>2026-05-02T12:03:19.989Z</time></trkpt><trkpt lat="44.7683883" lon="9.3610483"><ele>379.0</ele><time>2026-05-02T12:03:20.99Z</time></trkpt><trkpt lat="44.76835" lon="9.3612483"><ele>379.0</ele><time>2026-05-02T12:03:21.99Z</time></trkpt><trkpt lat="44.7683167" lon="9.3614417"><ele>379.0</ele><time>2026-05-02T12:03:22.989Z</time></trkpt><trkpt lat="44.7682933" lon="9.3616267"><ele>379.0</ele><time>2026-05-02T12:03:23.992Z</time></trkpt><trkpt lat="44.7682867" lon="9.3618067"><ele>378.0</ele><time>2026-05-02T12:03:24.99Z</time></trkpt><trkpt lat="44.7683033" lon="9.3619783"><ele>377.0</ele><time>2026-05-02T12:03:25.989Z</time></trkpt><trkpt lat="44.768345" lon="9.36214"><ele>376.0</ele><time>2026-05-02T12:03:26.992Z</time></trkpt><trkpt lat="44.7683967" lon="9.3622883"><ele>375.0</ele><time>2026-05-02T12:03:27.989Z</time></trkpt><trkpt lat="44.76845" lon="9.3624317"><ele>374.4</ele><time>2026-05-02T12:03:28.989Z</time></trkpt><trkpt lat="44.768495" lon="9.36258"><ele>373.8</ele><time>2026-05-02T12:03:29.989Z</time></trkpt><trkpt lat="44.7685217" lon="9.3627333"><ele>373.20000000000005</ele><time>2026-05-02T12:03:30.989Z</time></trkpt><trkpt lat="44.7685383" lon="9.3628883"><ele>372.6</ele><time>2026-05-02T12:03:31.99Z</time></trkpt><trkpt lat="44.7685467" lon="9.3630433"><ele>372.0</ele><time>2026-05-02T12:03:32.99Z</time></trkpt><trkpt lat="44.7685517" lon="9.3631967"><ele>370.8</ele><time>2026-05-02T12:03:33.989Z</time></trkpt><trkpt lat="44.76855" lon="9.363345"><ele>369.6</ele><time>2026-05-02T12:03:34.989Z</time></trkpt><trkpt lat="44.7685367" lon="9.3634867"><ele>368.40000000000003</ele><time>2026-05-02T12:03:35.991Z</time></trkpt><trkpt lat="44.768515" lon="9.3636233"><ele>367.20000000000005</ele><time>2026-05-02T12:03:36.989Z</time></trkpt><trkpt lat="44.7684983" lon="9.3637617"><ele>366.0</ele><time>2026-05-02T12:03:37.989Z</time></trkpt><trkpt lat="44.7684917" lon="9.3639067"><ele>364.8</ele><time>2026-05-02T12:03:38.989Z</time></trkpt><trkpt lat="44.7684917" lon="9.3640533"><ele>363.6</ele><time>2026-05-02T12:03:39.989Z</time></trkpt><trkpt lat="44.7684867" lon="9.364205"><ele>362.4</ele><time>2026-05-02T12:03:40.989Z</time></trkpt><trkpt lat="44.7684683" lon="9.3643483"><ele>361.2</ele><time>2026-05-02T12:03:41.989Z</time></trkpt><trkpt lat="44.7684283" lon="9.364485"><ele>360.0</ele><time>2026-05-02T12:03:42.989Z</time></trkpt><trkpt lat="44.7683767" lon="9.364635"><ele>360.0</ele><time>2026-05-02T12:03:43.989Z</time></trkpt><trkpt lat="44.7683333" lon="9.3648067"><ele>360.0</ele><time>2026-05-02T12:03:44.989Z</time></trkpt><trkpt lat="44.7683117" lon="9.364985"><ele>360.0</ele><time>2026-05-02T12:03:45.989Z</time></trkpt><trkpt lat="44.7682967" lon="9.3651617"><ele>360.0</ele><time>2026-05-02T12:03:46.989Z</time></trkpt><trkpt lat="44.7682817" lon="9.3653317"><ele>360.0</ele><time>2026-05-02T12:03:47.989Z</time></trkpt><trkpt lat="44.76827" lon="9.3655017"><ele>360.0</ele><time>2026-05-02T12:03:48.989Z</time></trkpt><trkpt lat="44.7682667" lon="9.36567"><ele>360.0</ele><time>2026-05-02T12:03:49.991Z</time></trkpt><trkpt lat="44.7682683" lon="9.365825"><ele>360.0</ele><time>2026-05-02T12:03:50.99Z</time></trkpt><trkpt lat="44.768275" lon="9.3659717"><ele>359.6</ele><time>2026-05-02T12:03:51.99Z</time></trkpt><trkpt lat="44.7682767" lon="9.36611"><ele>359.2</ele><time>2026-05-02T12:03:52.991Z</time></trkpt><trkpt lat="44.7682833" lon="9.36625"><ele>358.79999999999995</ele><time>2026-05-02T12:03:53.991Z</time></trkpt><trkpt lat="44.7683083" lon="9.3663933"><ele>358.4</ele><time>2026-05-02T12:03:54.991Z</time></trkpt><trkpt lat="44.76834" lon="9.3665367"><ele>358.0</ele><time>2026-05-02T12:03:55.99Z</time></trkpt><trkpt lat="44.7683683" lon="9.3666767"><ele>357.79999999999995</ele><time>2026-05-02T12:03:56.991Z</time></trkpt><trkpt lat="44.7683883" lon="9.36682"><ele>357.6</ele><time>2026-05-02T12:03:57.991Z</time></trkpt><trkpt lat="44.7683883" lon="9.3669667"><ele>357.4</ele><time>2026-05-02T12:03:58.99Z</time></trkpt><trkpt lat="44.768385" lon="9.367115"><ele>357.20000000000005</ele><time>2026-05-02T12:03:59.991Z</time></trkpt><trkpt lat="44.76839" lon="9.3672633"><ele>357.0</ele><time>2026-05-02T12:04:00.991Z</time></trkpt><trkpt lat="44.7684167" lon="9.367405"><ele>358.0</ele><time>2026-05-02T12:04:01.991Z</time></trkpt><trkpt lat="44.7684717" lon="9.36753"><ele>359.0</ele><time>2026-05-02T12:04:02.992Z</time></trkpt><trkpt lat="44.76853" lon="9.3676367"><ele>360.0</ele><time>2026-05-02T12:04:03.991Z</time></trkpt><trkpt lat="44.768585" lon="9.36774"><ele>361.0</ele><time>2026-05-02T12:04:04.99Z</time></trkpt><trkpt lat="44.7686133" lon="9.3678583"><ele>362.0</ele><time>2026-05-02T12:04:05.991Z</time></trkpt><trkpt lat="44.76862" lon="9.36799"><ele>361.40000000000003</ele><time>2026-05-02T12:04:06.991Z</time></trkpt><trkpt lat="44.768615" lon="9.36812"><ele>360.8</ele><time>2026-05-02T12:04:07.991Z</time></trkpt><trkpt lat="44.7686117" lon="9.368255"><ele>360.2</ele><time>2026-05-02T12:04:08.991Z</time></trkpt><trkpt lat="44.7686217" lon="9.36839"><ele>359.6</ele><time>2026-05-02T12:04:09.991Z</time></trkpt><trkpt lat="44.76866" lon="9.3685167"><ele>359.0</ele><time>2026-05-02T12:04:10.991Z</time></trkpt><trkpt lat="44.7687083" lon="9.36863"><ele>359.0</ele><time>2026-05-02T12:04:11.99Z</time></trkpt><trkpt lat="44.768775" lon="9.368735"><ele>359.0</ele><time>2026-05-02T12:04:12.991Z</time></trkpt><trkpt lat="44.7688583" lon="9.3688283"><ele>359.0</ele><time>2026-05-02T12:04:13.99Z</time></trkpt><trkpt lat="44.7689483" lon="9.3689083"><ele>359.0</ele><time>2026-05-02T12:04:14.99Z</time></trkpt><trkpt lat="44.769045" lon="9.3689783"><ele>359.0</ele><time>2026-05-02T12:04:15.989Z</time></trkpt><trkpt lat="44.7691417" lon="9.3690417"><ele>359.2</ele><time>2026-05-02T12:04:16.99Z</time></trkpt><trkpt lat="44.7692383" lon="9.3691067"><ele>359.4</ele><time>2026-05-02T12:04:17.99Z</time></trkpt><trkpt lat="44.7693383" lon="9.3691783"><ele>359.6</ele><time>2026-05-02T12:04:18.989Z</time></trkpt><trkpt lat="44.7694433" lon="9.36925"><ele>359.8</ele><time>2026-05-02T12:04:19.989Z</time></trkpt><trkpt lat="44.769545" lon="9.36932"><ele>360.0</ele><time>2026-05-02T12:04:20.993Z</time></trkpt><trkpt lat="44.7696417" lon="9.3693833"><ele>360.0</ele><time>2026-05-02T12:04:21.991Z</time></trkpt><trkpt lat="44.7697317" lon="9.3694467"><ele>360.0</ele><time>2026-05-02T12:04:22.99Z</time></trkpt><trkpt lat="44.7698067" lon="9.36952"><ele>360.0</ele><time>2026-05-02T12:04:23.992Z</time></trkpt><trkpt lat="44.7698683" lon="9.36962"><ele>360.0</ele><time>2026-05-02T12:04:24.991Z</time></trkpt><trkpt lat="44.769915" lon="9.3697533"><ele>360.0</ele><time>2026-05-02T12:04:25.992Z</time></trkpt><trkpt lat="44.7699483" lon="9.3699017"><ele>358.4</ele><time>2026-05-02T12:04:26.991Z</time></trkpt><trkpt lat="44.769975" lon="9.3700517"><ele>356.8</ele><time>2026-05-02T12:04:27.991Z</time></trkpt><trkpt lat="44.770005" lon="9.3702017"><ele>355.20000000000005</ele><time>2026-05-02T12:04:28.992Z</time></trkpt><trkpt lat="44.7700383" lon="9.3703533"><ele>353.6</ele><time>2026-05-02T12:04:29.991Z</time></trkpt><trkpt lat="44.7700867" lon="9.3705"><ele>352.0</ele><time>2026-05-02T12:04:30.989Z</time></trkpt><trkpt lat="44.7701417" lon="9.370645"><ele>350.6</ele><time>2026-05-02T12:04:31.989Z</time></trkpt><trkpt lat="44.7702083" lon="9.3707833"><ele>349.20000000000005</ele><time>2026-05-02T12:04:32.99Z</time></trkpt><trkpt lat="44.7702867" lon="9.370905"><ele>347.8</ele><time>2026-05-02T12:04:33.99Z</time></trkpt><trkpt lat="44.7703617" lon="9.3710133"><ele>346.4</ele><time>2026-05-02T12:04:34.989Z</time></trkpt><trkpt lat="44.7704317" lon="9.37112"><ele>345.0</ele><time>2026-05-02T12:04:35.993Z</time></trkpt><trkpt lat="44.770485" lon="9.3712383"><ele>345.0</ele><time>2026-05-02T12:04:36.99Z</time></trkpt><trkpt lat="44.770525" lon="9.37138"><ele>345.0</ele><time>2026-05-02T12:04:37.99Z</time></trkpt><trkpt lat="44.7705533" lon="9.3715367"><ele>345.0</ele><time>2026-05-02T12:04:38.99Z</time></trkpt><trkpt lat="44.77057" lon="9.3716933"><ele>345.0</ele><time>2026-05-02T12:04:39.989Z</time></trkpt><trkpt lat="44.7705783" lon="9.3718283"><ele>345.0</ele><time>2026-05-02T12:04:40.991Z</time></trkpt><trkpt lat="44.770575" lon="9.3719533"><ele>345.0</ele><time>2026-05-02T12:04:41.99Z</time></trkpt><trkpt lat="44.7705633" lon="9.3720783"><ele>345.0</ele><time>2026-05-02T12:04:42.99Z</time></trkpt><trkpt lat="44.7705417" lon="9.3722117"><ele>345.0</ele><time>2026-05-02T12:04:43.989Z</time></trkpt><trkpt lat="44.7705083" lon="9.37235"><ele>345.0</ele><time>2026-05-02T12:04:44.99Z</time></trkpt><trkpt lat="44.7704633" lon="9.3724983"><ele>345.0</ele><time>2026-05-02T12:04:45.989Z</time></trkpt><trkpt lat="44.770405" lon="9.3726483"><ele>345.5</ele><time>2026-05-02T12:04:46.99Z</time></trkpt><trkpt lat="44.7703317" lon="9.3727867"><ele>346.0</ele><time>2026-05-02T12:04:47.99Z</time></trkpt><trkpt lat="44.77026" lon="9.3729217"><ele>346.5</ele><time>2026-05-02T12:04:48.989Z</time></trkpt><trkpt lat="44.7701917" lon="9.3730467"><ele>347.0</ele><time>2026-05-02T12:04:49.989Z</time></trkpt><trkpt lat="44.7701183" lon="9.3731583"><ele>345.40000000000003</ele><time>2026-05-02T12:04:50.99Z</time></trkpt><trkpt lat="44.7700367" lon="9.3732467"><ele>343.8</ele><time>2026-05-02T12:04:51.99Z</time></trkpt><trkpt lat="44.7699433" lon="9.373315"><ele>342.2</ele><time>2026-05-02T12:04:52.99Z</time></trkpt><trkpt lat="44.7698467" lon="9.3733783"><ele>340.6</ele><time>2026-05-02T12:04:53.992Z</time></trkpt><trkpt lat="44.7697517" lon="9.3734517"><ele>339.0</ele><time>2026-05-02T12:04:54.99Z</time></trkpt><trkpt lat="44.7696617" lon="9.3735217"><ele>339.0</ele><time>2026-05-02T12:04:55.99Z</time></trkpt><trkpt lat="44.7695633" lon="9.3735833"><ele>339.0</ele><time>2026-05-02T12:04:56.99Z</time></trkpt><trkpt lat="44.7694633" lon="9.3736283"><ele>339.0</ele><time>2026-05-02T12:04:57.989Z</time></trkpt><trkpt lat="44.769365" lon="9.3736717"><ele>339.0</ele><time>2026-05-02T12:04:58.99Z</time></trkpt><trkpt lat="44.7692717" lon="9.373735"><ele>339.0</ele><time>2026-05-02T12:04:59.989Z</time></trkpt><trkpt lat="44.7691883" lon="9.3738183"><ele>337.6</ele><time>2026-05-02T12:05:00.99Z</time></trkpt><trkpt lat="44.7691133" lon="9.373925"><ele>336.2</ele><time>2026-05-02T12:05:01.99Z</time></trkpt><trkpt lat="44.7690517" lon="9.3740567"><ele>334.8</ele><time>2026-05-02T12:05:02.99Z</time></trkpt><trkpt lat="44.769005" lon="9.374195"><ele>333.40000000000003</ele><time>2026-05-02T12:05:03.989Z</time></trkpt><trkpt lat="44.768965" lon="9.3743333"><ele>332.0</ele><time>2026-05-02T12:05:04.989Z</time></trkpt><trkpt lat="44.7689267" lon="9.3744683"><ele>332.0</ele><time>2026-05-02T12:05:05.989Z</time></trkpt><trkpt lat="44.768915" lon="9.3746083"><ele>332.0</ele><time>2026-05-02T12:05:06.99Z</time></trkpt><trkpt lat="44.768905" lon="9.3747433"><ele>332.0</ele><time>2026-05-02T12:05:07.99Z</time></trkpt><trkpt lat="44.7688967" lon="9.3748783"><ele>332.0</ele><time>2026-05-02T12:05:08.989Z</time></trkpt><trkpt lat="44.7688933" lon="9.3750133"><ele>332.0</ele><time>2026-05-02T12:05:09.99Z</time></trkpt><trkpt lat="44.768895" lon="9.37515"><ele>333.20000000000005</ele><time>2026-05-02T12:05:10.99Z</time></trkpt><trkpt lat="44.7688967" lon="9.375285"><ele>334.4</ele><time>2026-05-02T12:05:11.989Z</time></trkpt><trkpt lat="44.7688917" lon="9.37542"><ele>335.6</ele><time>2026-05-02T12:05:12.989Z</time></trkpt><trkpt lat="44.768865" lon="9.37555"><ele>336.79999999999995</ele><time>2026-05-02T12:05:13.99Z</time></trkpt><trkpt lat="44.7688433" lon="9.375685"><ele>338.0</ele><time>2026-05-02T12:05:14.989Z</time></trkpt><trkpt lat="44.7688267" lon="9.3758167"><ele>338.0</ele><time>2026-05-02T12:05:15.99Z</time></trkpt><trkpt lat="44.76883" lon="9.375955"><ele>338.0</ele><time>2026-05-02T12:05:16.99Z</time></trkpt><trkpt lat="44.7688317" lon="9.376095"><ele>338.0</ele><time>2026-05-02T12:05:17.991Z</time></trkpt><trkpt lat="44.76882" lon="9.3762383"><ele>338.0</ele><time>2026-05-02T12:05:18.99Z</time></trkpt><trkpt lat="44.7688183" lon="9.3763767"><ele>338.0</ele><time>2026-05-02T12:05:19.99Z</time></trkpt><trkpt lat="44.7688283" lon="9.3765017"><ele>337.5</ele><time>2026-05-02T12:05:20.991Z</time></trkpt><trkpt lat="44.7688583" lon="9.3766117"><ele>337.0</ele><time>2026-05-02T12:05:21.992Z</time></trkpt><trkpt lat="44.7689067" lon="9.3767017"><ele>336.5</ele><time>2026-05-02T12:05:22.992Z</time></trkpt><trkpt lat="44.7689667" lon="9.37679"><ele>336.0</ele><time>2026-05-02T12:05:23.992Z</time></trkpt><trkpt lat="44.76902" lon="9.37688"><ele>335.5</ele><time>2026-05-02T12:05:24.992Z</time></trkpt><trkpt lat="44.769055" lon="9.3769717"><ele>335.0</ele><time>2026-05-02T12:05:25.989Z</time></trkpt><trkpt lat="44.76904" lon="9.3770583"><ele>335.0</ele><time>2026-05-02T12:05:26.991Z</time></trkpt><trkpt lat="44.7690133" lon="9.3771417"><ele>335.0</ele><time>2026-05-02T12:05:27.99Z</time></trkpt><trkpt lat="44.768975" lon="9.3772283"><ele>335.0</ele><time>2026-05-02T12:05:28.991Z</time></trkpt><trkpt lat="44.76893" lon="9.3773117"><ele>335.0</ele><time>2026-05-02T12:05:29.99Z</time></trkpt><trkpt lat="44.768885" lon="9.3773967"><ele>335.0</ele><time>2026-05-02T12:05:30.99Z</time></trkpt><trkpt lat="44.768835" lon="9.3774817"><ele>335.0</ele><time>2026-05-02T12:05:31.99Z</time></trkpt><trkpt lat="44.7687733" lon="9.3775733"><ele>335.6</ele><time>2026-05-02T12:05:32.99Z</time></trkpt><trkpt lat="44.768715" lon="9.3776783"><ele>336.2</ele><time>2026-05-02T12:05:33.99Z</time></trkpt><trkpt lat="44.7686633" lon="9.3778167"><ele>336.79999999999995</ele><time>2026-05-02T12:05:34.989Z</time></trkpt><trkpt lat="44.7686233" lon="9.3779683"><ele>337.4</ele><time>2026-05-02T12:05:35.99Z</time></trkpt><trkpt lat="44.7685833" lon="9.3781167"><ele>338.0</ele><time>2026-05-02T12:05:36.989Z</time></trkpt><trkpt lat="44.76854" lon="9.3782617"><ele>334.79999999999995</ele><time>2026-05-02T12:05:37.991Z</time></trkpt><trkpt lat="44.7684917" lon="9.3783933"><ele>331.6</ele><time>2026-05-02T12:05:38.99Z</time></trkpt><trkpt lat="44.768435" lon="9.37851"><ele>328.4</ele><time>2026-05-02T12:05:39.989Z</time></trkpt><trkpt lat="44.7683767" lon="9.3786233"><ele>325.20000000000005</ele><time>2026-05-02T12:05:40.991Z</time></trkpt><trkpt lat="44.76832" lon="9.378735"><ele>322.0</ele><time>2026-05-02T12:05:41.991Z</time></trkpt><trkpt lat="44.768275" lon="9.3788517"><ele>321.8333333333333</ele><time>2026-05-02T12:05:42.991Z</time></trkpt><trkpt lat="44.768245" lon="9.3789717"><ele>321.66666666666663</ele><time>2026-05-02T12:05:43.992Z</time></trkpt><trkpt lat="44.7682333" lon="9.379095"><ele>321.5</ele><time>2026-05-02T12:05:44.99Z</time></trkpt><trkpt lat="44.7682417" lon="9.3792183"><ele>321.3333333333333</ele><time>2026-05-02T12:05:45.991Z</time></trkpt><trkpt lat="44.7682617" lon="9.379335"><ele>321.1666666666667</ele><time>2026-05-02T12:05:46.99Z</time></trkpt><trkpt lat="44.7682933" lon="9.379455"><ele>321.0</ele><time>2026-05-02T12:05:47.991Z</time></trkpt><trkpt lat="44.76833" lon="9.379585"><ele>320.2</ele><time>2026-05-02T12:05:48.99Z</time></trkpt><trkpt lat="44.76837" lon="9.3797267"><ele>319.40000000000003</ele><time>2026-05-02T12:05:49.991Z</time></trkpt><trkpt lat="44.7684133" lon="9.37987"><ele>318.6</ele><time>2026-05-02T12:05:50.991Z</time></trkpt><trkpt lat="44.7684533" lon="9.3800217"><ele>317.8</ele><time>2026-05-02T12:05:51.99Z</time></trkpt><trkpt lat="44.7684833" lon="9.3801783"><ele>317.0</ele><time>2026-05-02T12:05:52.99Z</time></trkpt><trkpt lat="44.7685" lon="9.3803383"><ele>317.0</ele><time>2026-05-02T12:05:53.991Z</time></trkpt><trkpt lat="44.7685167" lon="9.3805"><ele>317.0</ele><time>2026-05-02T12:05:54.99Z</time></trkpt><trkpt lat="44.7685283" lon="9.38066"><ele>317.0</ele><time>2026-05-02T12:05:55.989Z</time></trkpt><trkpt lat="44.768535" lon="9.3808217"><ele>317.0</ele><time>2026-05-02T12:05:56.99Z</time></trkpt><trkpt lat="44.7685467" lon="9.38098"><ele>316.2</ele><time>2026-05-02T12:05:57.991Z</time></trkpt><trkpt lat="44.768555" lon="9.3811333"><ele>315.4</ele><time>2026-05-02T12:05:58.989Z</time></trkpt><trkpt lat="44.7685617" lon="9.381285"><ele>314.6</ele><time>2026-05-02T12:05:59.99Z</time></trkpt><trkpt lat="44.76857" lon="9.3814317"><ele>313.8</ele><time>2026-05-02T12:06:00.99Z</time></trkpt><trkpt lat="44.768575" lon="9.381575"><ele>313.0</ele><time>2026-05-02T12:06:01.991Z</time></trkpt><trkpt lat="44.7685883" lon="9.3817167"><ele>313.0</ele><time>2026-05-02T12:06:02.99Z</time></trkpt><trkpt lat="44.76861" lon="9.3818517"><ele>313.0</ele><time>2026-05-02T12:06:03.99Z</time></trkpt><trkpt lat="44.76865" lon="9.381985"><ele>313.0</ele><time>2026-05-02T12:06:04.99Z</time></trkpt><trkpt lat="44.768705" lon="9.3821167"><ele>313.0</ele><time>2026-05-02T12:06:05.992Z</time></trkpt><trkpt lat="44.7687667" lon="9.382255"><ele>313.0</ele><time>2026-05-02T12:06:06.993Z</time></trkpt><trkpt lat="44.7688317" lon="9.3823967"><ele>311.75</ele><time>2026-05-02T12:06:07.989Z</time></trkpt><trkpt lat="44.7689" lon="9.3825433"><ele>310.5</ele><time>2026-05-02T12:06:08.991Z</time></trkpt><trkpt lat="44.7689733" lon="9.3826967"><ele>309.25</ele><time>2026-05-02T12:06:09.989Z</time></trkpt><trkpt lat="44.7690517" lon="9.3828533"><ele>308.0</ele><time>2026-05-02T12:06:10.989Z</time></trkpt><trkpt lat="44.769135" lon="9.3830117"><ele>308.0</ele><time>2026-05-02T12:06:11.989Z</time></trkpt><trkpt lat="44.7692083" lon="9.3831733"><ele>308.0</ele><time>2026-05-02T12:06:12.99Z</time></trkpt><trkpt lat="44.7692783" lon="9.3833317"><ele>308.0</ele><time>2026-05-02T12:06:13.99Z</time></trkpt><trkpt lat="44.7693467" lon="9.3834833"><ele>308.0</ele><time>2026-05-02T12:06:14.99Z</time></trkpt><trkpt lat="44.7694167" lon="9.3836317"><ele>308.0</ele><time>2026-05-02T12:06:15.99Z</time></trkpt><trkpt lat="44.7694833" lon="9.3837733"><ele>308.0</ele><time>2026-05-02T12:06:16.99Z</time></trkpt><trkpt lat="44.7695483" lon="9.3839083"><ele>308.0</ele><time>2026-05-02T12:06:17.99Z</time></trkpt><trkpt lat="44.7696183" lon="9.384045"><ele>308.0</ele><time>2026-05-02T12:06:18.991Z</time></trkpt><trkpt lat="44.7696933" lon="9.3841933"><ele>305.75</ele><time>2026-05-02T12:06:19.989Z</time></trkpt><trkpt lat="44.769765" lon="9.3843467"><ele>303.5</ele><time>2026-05-02T12:06:20.99Z</time></trkpt><trkpt lat="44.7698433" lon="9.384495"><ele>301.25</ele><time>2026-05-02T12:06:21.989Z</time></trkpt><trkpt lat="44.769915" lon="9.3846417"><ele>299.0</ele><time>2026-05-02T12:06:22.992Z</time></trkpt><trkpt lat="44.7699883" lon="9.384785"><ele>297.0</ele><time>2026-05-02T12:06:23.989Z</time></trkpt><trkpt lat="44.770055" lon="9.384925"><ele>295.0</ele><time>2026-05-02T12:06:24.989Z</time></trkpt><trkpt lat="44.7701117" lon="9.385065"><ele>293.0</ele><time>2026-05-02T12:06:25.99Z</time></trkpt><trkpt lat="44.7701517" lon="9.3852"><ele>291.0</ele><time>2026-05-02T12:06:26.992Z</time></trkpt><trkpt lat="44.7701667" lon="9.38533"><ele>289.0</ele><time>2026-05-02T12:06:27.99Z</time></trkpt><trkpt lat="44.7701667" lon="9.3854583"><ele>288.16666666666663</ele><time>2026-05-02T12:06:28.991Z</time></trkpt><trkpt lat="44.7701567" lon="9.3855717"><ele>287.3333333333333</ele><time>2026-05-02T12:06:29.99Z</time></trkpt><trkpt lat="44.7701333" lon="9.3856667"><ele>286.5</ele><time>2026-05-02T12:06:30.99Z</time></trkpt><trkpt lat="44.7700983" lon="9.3857417"><ele>285.6666666666667</ele><time>2026-05-02T12:06:31.99Z</time></trkpt><trkpt lat="44.77002" lon="9.38585"><ele>284.83333333333337</ele><time>2026-05-02T12:06:33.99Z</time></trkpt><trkpt lat="44.76996" lon="9.3859"><ele>284.0</ele><time>2026-05-02T12:06:35.99Z</time></trkpt><trkpt lat="44.7699383" lon="9.3857867"><ele>284.0</ele><time>2026-05-02T12:06:39.989Z</time></trkpt><trkpt lat="44.7699767" lon="9.38568"><ele>284.0</ele><time>2026-05-02T12:06:42.991Z</time></trkpt><trkpt lat="44.7700217" lon="9.3856"><ele>284.0</ele><time>2026-05-02T12:06:46.99Z</time></trkpt></trkseg><trkseg><trkpt lat="44.7700367" lon="9.385675"><ele>284.0</ele><time>2026-05-02T13:10:31.992Z</time></trkpt><trkpt lat="44.7699817" lon="9.3857617"><ele>284.0</ele><time>2026-05-02T13:18:57.99Z</time></trkpt><trkpt lat="44.769975" lon="9.3858717"><ele>284.0</ele><time>2026-05-02T13:19:00.99Z</time></trkpt><trkpt lat="44.7699967" lon="9.3859667"><ele>284.0</ele><time>2026-05-02T13:19:03.99Z</time></trkpt><trkpt lat="44.7700633" lon="9.3859983"><ele>284.0</ele><time>2026-05-02T13:19:06.991Z</time></trkpt><trkpt lat="44.77015" lon="9.3859933"><ele>284.0</ele><time>2026-05-02T13:19:09.99Z</time></trkpt><trkpt lat="44.7702417" lon="9.3859767"><ele>284.0</ele><time>2026-05-02T13:19:12.991Z</time></trkpt><trkpt lat="44.7703267" lon="9.38599"><ele>284.0</ele><time>2026-05-02T13:19:15.989Z</time></trkpt><trkpt lat="44.770395" lon="9.3859933"><ele>284.0</ele><time>2026-05-02T13:19:18.991Z</time></trkpt><trkpt lat="44.7704633" lon="9.3859667"><ele>284.0</ele><time>2026-05-02T13:19:27.989Z</time></trkpt><trkpt lat="44.7705417" lon="9.3859733"><ele>284.0</ele><time>2026-05-02T13:19:30.991Z</time></trkpt><trkpt lat="44.7707083" lon="9.386015"><ele>284.0</ele><time>2026-05-02T13:19:33.989Z</time></trkpt><trkpt lat="44.7708233" lon="9.38604"><ele>284.0</ele><time>2026-05-02T13:19:35.99Z</time></trkpt><trkpt lat="44.770955" lon="9.3860783"><ele>284.0</ele><time>2026-05-02T13:19:37.989Z</time></trkpt><trkpt lat="44.7710233" lon="9.3860967"><ele>284.0</ele><time>2026-05-02T13:19:38.989Z</time></trkpt><trkpt lat="44.7711517" lon="9.386125"><ele>283.0</ele><time>2026-05-02T13:19:40.989Z</time></trkpt><trkpt lat="44.77122" lon="9.3861417"><ele>282.0</ele><time>2026-05-02T13:19:41.989Z</time></trkpt><trkpt lat="44.7713183" lon="9.386175"><ele>281.0</ele><time>2026-05-02T13:19:42.989Z</time></trkpt><trkpt lat="44.7714167" lon="9.386205"><ele>280.0</ele><time>2026-05-02T13:19:43.99Z</time></trkpt><trkpt lat="44.771525" lon="9.3862417"><ele>279.0</ele><time>2026-05-02T13:19:44.989Z</time></trkpt><trkpt lat="44.7716233" lon="9.386275"><ele>279.0</ele><time>2026-05-02T13:19:45.989Z</time></trkpt><trkpt lat="44.7717217" lon="9.386305"><ele>279.0</ele><time>2026-05-02T13:19:46.99Z</time></trkpt><trkpt lat="44.7718217" lon="9.386335"><ele>279.0</ele><time>2026-05-02T13:19:47.989Z</time></trkpt><trkpt lat="44.7719333" lon="9.3863667"><ele>279.0</ele><time>2026-05-02T13:19:48.989Z</time></trkpt><trkpt lat="44.7720583" lon="9.3864033"><ele>279.0</ele><time>2026-05-02T13:19:49.989Z</time></trkpt><trkpt lat="44.772185" lon="9.3864433"><ele>277.0</ele><time>2026-05-02T13:19:50.989Z</time></trkpt><trkpt lat="44.7723" lon="9.386475"><ele>275.0</ele><time>2026-05-02T13:19:51.989Z</time></trkpt><trkpt lat="44.7724117" lon="9.3865017"><ele>273.0</ele><time>2026-05-02T13:19:52.989Z</time></trkpt><trkpt lat="44.7725217" lon="9.38653"><ele>271.0</ele><time>2026-05-02T13:19:53.989Z</time></trkpt><trkpt lat="44.77263" lon="9.3865583"><ele>270.0</ele><time>2026-05-02T13:19:54.989Z</time></trkpt><trkpt lat="44.7727367" lon="9.3865833"><ele>269.0</ele><time>2026-05-02T13:19:55.989Z</time></trkpt><trkpt lat="44.7728433" lon="9.3866083"><ele>268.0</ele><time>2026-05-02T13:19:56.991Z</time></trkpt><trkpt lat="44.7729567" lon="9.3866333"><ele>267.0</ele><time>2026-05-02T13:19:57.989Z</time></trkpt><trkpt lat="44.773075" lon="9.3866583"><ele>267.0</ele><time>2026-05-02T13:19:58.989Z</time></trkpt><trkpt lat="44.7732017" lon="9.3866867"><ele>267.0</ele><time>2026-05-02T13:19:59.99Z</time></trkpt><trkpt lat="44.773345" lon="9.38672"><ele>267.0</ele><time>2026-05-02T13:20:00.99Z</time></trkpt><trkpt lat="44.7734933" lon="9.38675"><ele>267.0</ele><time>2026-05-02T13:20:01.989Z</time></trkpt><trkpt lat="44.7736467" lon="9.386775"><ele>265.6666666666667</ele><time>2026-05-02T13:20:02.994Z</time></trkpt><trkpt lat="44.7737983" lon="9.3867983"><ele>264.33333333333337</ele><time>2026-05-02T13:20:03.989Z</time></trkpt><trkpt lat="44.7739517" lon="9.3868183"><ele>263.0</ele><time>2026-05-02T13:20:04.99Z</time></trkpt><trkpt lat="44.7741033" lon="9.38683"><ele>263.0</ele><time>2026-05-02T13:20:05.989Z</time></trkpt><trkpt lat="44.77425" lon="9.3868467"><ele>263.0</ele><time>2026-05-02T13:20:06.989Z</time></trkpt><trkpt lat="44.7743933" lon="9.3868783"><ele>263.0</ele><time>2026-05-02T13:20:07.99Z</time></trkpt><trkpt lat="44.7745333" lon="9.3869133"><ele>263.0</ele><time>2026-05-02T13:20:08.99Z</time></trkpt><trkpt lat="44.774665" lon="9.3869733"><ele>264.25</ele><time>2026-05-02T13:20:09.989Z</time></trkpt><trkpt lat="44.7747883" lon="9.3870617"><ele>265.5</ele><time>2026-05-02T13:20:10.989Z</time></trkpt><trkpt lat="44.7748983" lon="9.3871733"><ele>266.75</ele><time>2026-05-02T13:20:11.989Z</time></trkpt><trkpt lat="44.7749883" lon="9.3873033"><ele>268.0</ele><time>2026-05-02T13:20:12.99Z</time></trkpt><trkpt lat="44.7750583" lon="9.3874517"><ele>268.0</ele><time>2026-05-02T13:20:13.99Z</time></trkpt><trkpt lat="44.775115" lon="9.3876067"><ele>268.0</ele><time>2026-05-02T13:20:14.99Z</time></trkpt><trkpt lat="44.77517" lon="9.38776"><ele>268.0</ele><time>2026-05-02T13:20:15.99Z</time></trkpt><trkpt lat="44.7752217" lon="9.3879067"><ele>268.0</ele><time>2026-05-02T13:20:16.991Z</time></trkpt><trkpt lat="44.7752667" lon="9.3880533"><ele>269.6</ele><time>2026-05-02T13:20:17.99Z</time></trkpt><trkpt lat="44.77531" lon="9.388195"><ele>271.20000000000005</ele><time>2026-05-02T13:20:18.991Z</time></trkpt><trkpt lat="44.775345" lon="9.388325"><ele>272.8</ele><time>2026-05-02T13:20:19.99Z</time></trkpt><trkpt lat="44.7753767" lon="9.38844"><ele>274.40000000000003</ele><time>2026-05-02T13:20:20.991Z</time></trkpt><trkpt lat="44.775405" lon="9.3885417"><ele>276.0</ele><time>2026-05-02T13:20:21.99Z</time></trkpt><trkpt lat="44.7754483" lon="9.3886883"><ele>276.0</ele><time>2026-05-02T13:20:23.989Z</time></trkpt><trkpt lat="44.7754967" lon="9.3887767"><ele>276.0</ele><time>2026-05-02T13:20:25.989Z</time></trkpt><trkpt lat="44.775565" lon="9.3888283"><ele>276.0</ele><time>2026-05-02T13:20:27.989Z</time></trkpt><trkpt lat="44.7756183" lon="9.38889"><ele>276.0</ele><time>2026-05-02T13:20:30.99Z</time></trkpt><trkpt lat="44.7757017" lon="9.388965"><ele>276.0</ele><time>2026-05-02T13:20:41.989Z</time></trkpt><trkpt lat="44.775815" lon="9.3890483"><ele>276.8333333333333</ele><time>2026-05-02T13:20:43.99Z</time></trkpt><trkpt lat="44.77589" lon="9.3890917"><ele>277.6666666666667</ele><time>2026-05-02T13:20:44.99Z</time></trkpt><trkpt lat="44.775965" lon="9.3891317"><ele>278.5</ele><time>2026-05-02T13:20:45.989Z</time></trkpt><trkpt lat="44.7760333" lon="9.3891633"><ele>279.33333333333337</ele><time>2026-05-02T13:20:46.989Z</time></trkpt><trkpt lat="44.7760983" lon="9.3891917"><ele>280.1666666666667</ele><time>2026-05-02T13:20:47.99Z</time></trkpt><trkpt lat="44.7762117" lon="9.3892483"><ele>281.0</ele><time>2026-05-02T13:20:49.991Z</time></trkpt><trkpt lat="44.7762667" lon="9.3892983"><ele>281.0</ele><time>2026-05-02T13:20:50.99Z</time></trkpt><trkpt lat="44.7763183" lon="9.3893617"><ele>281.0</ele><time>2026-05-02T13:20:51.991Z</time></trkpt><trkpt lat="44.7763867" lon="9.3894517"><ele>281.0</ele><time>2026-05-02T13:20:52.989Z</time></trkpt><trkpt lat="44.7764533" lon="9.389555"><ele>281.0</ele><time>2026-05-02T13:20:53.99Z</time></trkpt><trkpt lat="44.77652" lon="9.389665"><ele>281.0</ele><time>2026-05-02T13:20:54.99Z</time></trkpt><trkpt lat="44.7765883" lon="9.3897783"><ele>278.25</ele><time>2026-05-02T13:20:56.089Z</time></trkpt><trkpt lat="44.7766683" lon="9.3898917"><ele>275.5</ele><time>2026-05-02T13:20:56.99Z</time></trkpt><trkpt lat="44.7767567" lon="9.3900083"><ele>272.75</ele><time>2026-05-02T13:20:57.99Z</time></trkpt><trkpt lat="44.7768417" lon="9.3901317"><ele>270.0</ele><time>2026-05-02T13:20:58.989Z</time></trkpt><trkpt lat="44.7769317" lon="9.3902517"><ele>271.5</ele><time>2026-05-02T13:20:59.989Z</time></trkpt><trkpt lat="44.7770283" lon="9.3903717"><ele>273.0</ele><time>2026-05-02T13:21:00.99Z</time></trkpt><trkpt lat="44.7771283" lon="9.3904933"><ele>274.5</ele><time>2026-05-02T13:21:01.989Z</time></trkpt><trkpt lat="44.77722" lon="9.3906167"><ele>276.0</ele><time>2026-05-02T13:21:02.99Z</time></trkpt><trkpt lat="44.7773083" lon="9.390725"><ele>276.0</ele><time>2026-05-02T13:21:03.99Z</time></trkpt><trkpt lat="44.7773983" lon="9.3908233"><ele>276.0</ele><time>2026-05-02T13:21:04.989Z</time></trkpt><trkpt lat="44.7775083" lon="9.3909167"><ele>276.0</ele><time>2026-05-02T13:21:05.99Z</time></trkpt><trkpt lat="44.7776333" lon="9.3910067"><ele>276.0</ele><time>2026-05-02T13:21:06.989Z</time></trkpt><trkpt lat="44.7777617" lon="9.3910983"><ele>277.0</ele><time>2026-05-02T13:21:07.991Z</time></trkpt><trkpt lat="44.777885" lon="9.3911917"><ele>278.0</ele><time>2026-05-02T13:21:08.992Z</time></trkpt><trkpt lat="44.7779917" lon="9.39129"><ele>279.0</ele><time>2026-05-02T13:21:09.991Z</time></trkpt><trkpt lat="44.7780833" lon="9.3914"><ele>280.0</ele><time>2026-05-02T13:21:10.99Z</time></trkpt><trkpt lat="44.7781683" lon="9.39152"><ele>280.0</ele><time>2026-05-02T13:21:11.99Z</time></trkpt><trkpt lat="44.7782533" lon="9.391655"><ele>280.0</ele><time>2026-05-02T13:21:12.99Z</time></trkpt><trkpt lat="44.7783367" lon="9.39179"><ele>280.0</ele><time>2026-05-02T13:21:13.99Z</time></trkpt><trkpt lat="44.7784317" lon="9.3919083"><ele>280.0</ele><time>2026-05-02T13:21:14.99Z</time></trkpt><trkpt lat="44.7785433" lon="9.3920167"><ele>281.75</ele><time>2026-05-02T13:21:15.989Z</time></trkpt><trkpt lat="44.7786633" lon="9.3921217"><ele>283.5</ele><time>2026-05-02T13:21:16.99Z</time></trkpt><trkpt lat="44.7787767" lon="9.3922267"><ele>285.25</ele><time>2026-05-02T13:21:17.989Z</time></trkpt><trkpt lat="44.7788817" lon="9.3923467"><ele>287.0</ele><time>2026-05-02T13:21:18.99Z</time></trkpt><trkpt lat="44.7789817" lon="9.392475"><ele>287.0</ele><time>2026-05-02T13:21:19.991Z</time></trkpt><trkpt lat="44.7790733" lon="9.392615"><ele>287.0</ele><time>2026-05-02T13:21:20.99Z</time></trkpt><trkpt lat="44.77916" lon="9.3927583"><ele>287.0</ele><time>2026-05-02T13:21:21.99Z</time></trkpt><trkpt lat="44.7792417" lon="9.39291"><ele>287.0</ele><time>2026-05-02T13:21:22.99Z</time></trkpt><trkpt lat="44.77932" lon="9.3930633"><ele>287.33333333333337</ele><time>2026-05-02T13:21:23.989Z</time></trkpt><trkpt lat="44.7793933" lon="9.3932167"><ele>287.6666666666667</ele><time>2026-05-02T13:21:24.99Z</time></trkpt><trkpt lat="44.7795383" lon="9.3935167"><ele>288.0</ele><time>2026-05-02T13:21:26.991Z</time></trkpt><trkpt lat="44.779605" lon="9.3936683"><ele>288.0</ele><time>2026-05-02T13:21:27.992Z</time></trkpt><trkpt lat="44.7796633" lon="9.3938233"><ele>288.0</ele><time>2026-05-02T13:21:28.99Z</time></trkpt><trkpt lat="44.7797067" lon="9.3939733"><ele>288.0</ele><time>2026-05-02T13:21:29.99Z</time></trkpt><trkpt lat="44.7797383" lon="9.3941233"><ele>288.0</ele><time>2026-05-02T13:21:30.989Z</time></trkpt><trkpt lat="44.7797617" lon="9.3942767"><ele>286.4</ele><time>2026-05-02T13:21:31.99Z</time></trkpt><trkpt lat="44.7797717" lon="9.3944217"><ele>284.8</ele><time>2026-05-02T13:21:32.99Z</time></trkpt><trkpt lat="44.7797817" lon="9.3945567"><ele>283.2</ele><time>2026-05-02T13:21:33.989Z</time></trkpt><trkpt lat="44.7797967" lon="9.3946867"><ele>281.6</ele><time>2026-05-02T13:21:34.99Z</time></trkpt><trkpt lat="44.7798033" lon="9.3948033"><ele>280.0</ele><time>2026-05-02T13:21:35.99Z</time></trkpt><trkpt lat="44.77981" lon="9.394915"><ele>280.0</ele><time>2026-05-02T13:21:36.989Z</time></trkpt><trkpt lat="44.7798117" lon="9.3950217"><ele>280.0</ele><time>2026-05-02T13:21:37.989Z</time></trkpt><trkpt lat="44.7798117" lon="9.3951333"><ele>280.0</ele><time>2026-05-02T13:21:38.99Z</time></trkpt><trkpt lat="44.7798167" lon="9.3953983"><ele>280.0</ele><time>2026-05-02T13:21:40.991Z</time></trkpt><trkpt lat="44.7798283" lon="9.3955333"><ele>280.0</ele><time>2026-05-02T13:21:41.99Z</time></trkpt><trkpt lat="44.7798417" lon="9.3956583"><ele>279.0</ele><time>2026-05-02T13:21:42.989Z</time></trkpt><trkpt lat="44.7798567" lon="9.3957833"><ele>278.0</ele><time>2026-05-02T13:21:43.991Z</time></trkpt><trkpt lat="44.779875" lon="9.3959133"><ele>277.0</ele><time>2026-05-02T13:21:44.989Z</time></trkpt><trkpt lat="44.7798967" lon="9.3960517"><ele>276.0</ele><time>2026-05-02T13:21:45.99Z</time></trkpt><trkpt lat="44.7799233" lon="9.3962033"><ele>275.0</ele><time>2026-05-02T13:21:46.989Z</time></trkpt><trkpt lat="44.7799483" lon="9.3963683"><ele>273.4</ele><time>2026-05-02T13:21:47.989Z</time></trkpt><trkpt lat="44.7799683" lon="9.3965383"><ele>271.8</ele><time>2026-05-02T13:21:48.99Z</time></trkpt><trkpt lat="44.7799883" lon="9.3967"><ele>270.2</ele><time>2026-05-02T13:21:49.99Z</time></trkpt><trkpt lat="44.7800067" lon="9.39685"><ele>268.6</ele><time>2026-05-02T13:21:50.989Z</time></trkpt><trkpt lat="44.780025" lon="9.3969917"><ele>267.0</ele><time>2026-05-02T13:21:51.99Z</time></trkpt><trkpt lat="44.7800383" lon="9.3971233"><ele>265.8</ele><time>2026-05-02T13:21:52.99Z</time></trkpt><trkpt lat="44.78005" lon="9.3972517"><ele>264.6</ele><time>2026-05-02T13:21:53.989Z</time></trkpt><trkpt lat="44.7800583" lon="9.3973783"><ele>263.40000000000003</ele><time>2026-05-02T13:21:54.99Z</time></trkpt><trkpt lat="44.7800717" lon="9.3974967"><ele>262.2</ele><time>2026-05-02T13:21:55.99Z</time></trkpt><trkpt lat="44.7800883" lon="9.3976217"><ele>261.0</ele><time>2026-05-02T13:21:56.991Z</time></trkpt><trkpt lat="44.780105" lon="9.3977583"><ele>261.0</ele><time>2026-05-02T13:21:57.991Z</time></trkpt><trkpt lat="44.780125" lon="9.3979167"><ele>261.0</ele><time>2026-05-02T13:21:58.989Z</time></trkpt><trkpt lat="44.780145" lon="9.3980867"><ele>261.0</ele><time>2026-05-02T13:21:59.99Z</time></trkpt><trkpt lat="44.78016" lon="9.398255"><ele>261.0</ele><time>2026-05-02T13:22:00.99Z</time></trkpt><trkpt lat="44.7801617" lon="9.39841"><ele>260.8</ele><time>2026-05-02T13:22:01.991Z</time></trkpt><trkpt lat="44.7801467" lon="9.39856"><ele>260.6</ele><time>2026-05-02T13:22:02.99Z</time></trkpt><trkpt lat="44.78013" lon="9.398705"><ele>260.4</ele><time>2026-05-02T13:22:03.989Z</time></trkpt><trkpt lat="44.7801117" lon="9.3988383"><ele>260.2</ele><time>2026-05-02T13:22:04.989Z</time></trkpt><trkpt lat="44.7801033" lon="9.3989683"><ele>260.0</ele><time>2026-05-02T13:22:05.991Z</time></trkpt><trkpt lat="44.7801067" lon="9.399105"><ele>259.4</ele><time>2026-05-02T13:22:06.99Z</time></trkpt><trkpt lat="44.7801233" lon="9.3992533"><ele>258.8</ele><time>2026-05-02T13:22:07.99Z</time></trkpt><trkpt lat="44.7801517" lon="9.3994067"><ele>258.2</ele><time>2026-05-02T13:22:08.988Z</time></trkpt><trkpt lat="44.7801817" lon="9.39956"><ele>257.6</ele><time>2026-05-02T13:22:09.99Z</time></trkpt><trkpt lat="44.7802183" lon="9.3997017"><ele>257.0</ele><time>2026-05-02T13:22:10.989Z</time></trkpt><trkpt lat="44.78027" lon="9.3998283"><ele>258.8</ele><time>2026-05-02T13:22:11.989Z</time></trkpt><trkpt lat="44.78033" lon="9.39993"><ele>260.6</ele><time>2026-05-02T13:22:12.989Z</time></trkpt><trkpt lat="44.780385" lon="9.39999"><ele>262.40000000000003</ele><time>2026-05-02T13:22:13.988Z</time></trkpt><trkpt lat="44.7804783" lon="9.40004"><ele>264.2</ele><time>2026-05-02T13:22:15.989Z</time></trkpt><trkpt lat="44.7805667" lon="9.4001367"><ele>266.0</ele><time>2026-05-02T13:22:17.989Z</time></trkpt><trkpt lat="44.7806383" lon="9.400195"><ele>266.0</ele><time>2026-05-02T13:22:18.989Z</time></trkpt><trkpt lat="44.780735" lon="9.4002683"><ele>266.0</ele><time>2026-05-02T13:22:19.99Z</time></trkpt><trkpt lat="44.7808517" lon="9.4003467"><ele>266.0</ele><time>2026-05-02T13:22:20.989Z</time></trkpt><trkpt lat="44.780955" lon="9.400425"><ele>266.0</ele><time>2026-05-02T13:22:21.989Z</time></trkpt><trkpt lat="44.7810467" lon="9.4005"><ele>264.83333333333337</ele><time>2026-05-02T13:22:22.989Z</time></trkpt><trkpt lat="44.7811367" lon="9.400565"><ele>263.6666666666667</ele><time>2026-05-02T13:22:23.989Z</time></trkpt><trkpt lat="44.78121" lon="9.40063"><ele>262.5</ele><time>2026-05-02T13:22:24.99Z</time></trkpt><trkpt lat="44.7812567" lon="9.4007083"><ele>261.3333333333333</ele><time>2026-05-02T13:22:25.989Z</time></trkpt><trkpt lat="44.7812767" lon="9.4008017"><ele>260.16666666666663</ele><time>2026-05-02T13:22:26.989Z</time></trkpt><trkpt lat="44.7812617" lon="9.400895"><ele>259.0</ele><time>2026-05-02T13:22:27.988Z</time></trkpt><trkpt lat="44.781155" lon="9.4010233"><ele>259.0</ele><time>2026-05-02T13:22:29.989Z</time></trkpt><trkpt lat="44.7810667" lon="9.4010783"><ele>259.0</ele><time>2026-05-02T13:22:30.989Z</time></trkpt><trkpt lat="44.780975" lon="9.4011383"><ele>259.0</ele><time>2026-05-02T13:22:31.989Z</time></trkpt><trkpt lat="44.7808933" lon="9.4011917"><ele>259.0</ele><time>2026-05-02T13:22:32.989Z</time></trkpt><trkpt lat="44.7808283" lon="9.401235"><ele>259.0</ele><time>2026-05-02T13:22:33.99Z</time></trkpt><trkpt lat="44.7807583" lon="9.401295"><ele>259.0</ele><time>2026-05-02T13:22:35.989Z</time></trkpt><trkpt lat="44.780755" lon="9.401385"><ele>257.8</ele><time>2026-05-02T13:22:37.989Z</time></trkpt><trkpt lat="44.7808117" lon="9.4014933"><ele>256.59999999999997</ele><time>2026-05-02T13:22:38.991Z</time></trkpt><trkpt lat="44.78088" lon="9.4016083"><ele>255.4</ele><time>2026-05-02T13:22:39.988Z</time></trkpt><trkpt lat="44.7809533" lon="9.4017233"><ele>254.2</ele><time>2026-05-02T13:22:40.989Z</time></trkpt><trkpt lat="44.7810333" lon="9.4018417"><ele>253.0</ele><time>2026-05-02T13:22:41.989Z</time></trkpt><trkpt lat="44.7811183" lon="9.4019617"><ele>253.0</ele><time>2026-05-02T13:22:42.99Z</time></trkpt><trkpt lat="44.7812033" lon="9.402085"><ele>253.0</ele><time>2026-05-02T13:22:43.989Z</time></trkpt><trkpt lat="44.7812833" lon="9.402205"><ele>253.0</ele><time>2026-05-02T13:22:44.99Z</time></trkpt><trkpt lat="44.7813633" lon="9.4023183"><ele>253.0</ele><time>2026-05-02T13:22:45.989Z</time></trkpt><trkpt lat="44.781445" lon="9.4024367"><ele>251.5</ele><time>2026-05-02T13:22:46.989Z</time></trkpt><trkpt lat="44.7815267" lon="9.402555"><ele>250.0</ele><time>2026-05-02T13:22:47.989Z</time></trkpt><trkpt lat="44.7816167" lon="9.402675"><ele>248.5</ele><time>2026-05-02T13:22:48.989Z</time></trkpt><trkpt lat="44.7817067" lon="9.4028"><ele>247.0</ele><time>2026-05-02T13:22:49.991Z</time></trkpt><trkpt lat="44.781795" lon="9.4029267"><ele>246.25</ele><time>2026-05-02T13:22:50.99Z</time></trkpt><trkpt lat="44.7818817" lon="9.40305"><ele>245.5</ele><time>2026-05-02T13:22:51.989Z</time></trkpt><trkpt lat="44.7819717" lon="9.4031733"><ele>244.75</ele><time>2026-05-02T13:22:52.99Z</time></trkpt><trkpt lat="44.78206" lon="9.4032983"><ele>244.0</ele><time>2026-05-02T13:22:53.99Z</time></trkpt><trkpt lat="44.7821483" lon="9.4034233"><ele>244.0</ele><time>2026-05-02T13:22:54.99Z</time></trkpt><trkpt lat="44.782235" lon="9.4035483"><ele>244.0</ele><time>2026-05-02T13:22:55.988Z</time></trkpt><trkpt lat="44.782325" lon="9.4036817"><ele>244.0</ele><time>2026-05-02T13:22:56.989Z</time></trkpt><trkpt lat="44.7824217" lon="9.4038267"><ele>244.0</ele><time>2026-05-02T13:22:57.989Z</time></trkpt><trkpt lat="44.7825283" lon="9.40398"><ele>243.75</ele><time>2026-05-02T13:22:58.989Z</time></trkpt><trkpt lat="44.7826383" lon="9.404135"><ele>243.5</ele><time>2026-05-02T13:22:59.989Z</time></trkpt><trkpt lat="44.7827417" lon="9.4042833"><ele>243.25</ele><time>2026-05-02T13:23:00.989Z</time></trkpt><trkpt lat="44.782845" lon="9.404425"><ele>243.0</ele><time>2026-05-02T13:23:01.99Z</time></trkpt><trkpt lat="44.782945" lon="9.4045667"><ele>242.5</ele><time>2026-05-02T13:23:02.99Z</time></trkpt><trkpt lat="44.7830433" lon="9.4047133"><ele>242.0</ele><time>2026-05-02T13:23:03.989Z</time></trkpt><trkpt lat="44.7831433" lon="9.4048583"><ele>241.5</ele><time>2026-05-02T13:23:04.989Z</time></trkpt><trkpt lat="44.7832467" lon="9.405005"><ele>241.0</ele><time>2026-05-02T13:23:05.989Z</time></trkpt><trkpt lat="44.7833467" lon="9.4051517"><ele>241.0</ele><time>2026-05-02T13:23:06.988Z</time></trkpt><trkpt lat="44.7834467" lon="9.4052983"><ele>241.0</ele><time>2026-05-02T13:23:07.989Z</time></trkpt><trkpt lat="44.7835483" lon="9.4054417"><ele>241.0</ele><time>2026-05-02T13:23:08.991Z</time></trkpt><trkpt lat="44.7836467" lon="9.4055867"><ele>241.0</ele><time>2026-05-02T13:23:09.989Z</time></trkpt><trkpt lat="44.7837433" lon="9.4057267"><ele>241.75</ele><time>2026-05-02T13:23:10.989Z</time></trkpt><trkpt lat="44.7838383" lon="9.4058617"><ele>242.5</ele><time>2026-05-02T13:23:11.988Z</time></trkpt><trkpt lat="44.7839317" lon="9.4059983"><ele>243.25</ele><time>2026-05-02T13:23:12.989Z</time></trkpt><trkpt lat="44.7840333" lon="9.406145"><ele>244.0</ele><time>2026-05-02T13:23:13.988Z</time></trkpt><trkpt lat="44.7841383" lon="9.406295"><ele>244.5</ele><time>2026-05-02T13:23:14.992Z</time></trkpt><trkpt lat="44.7842417" lon="9.406445"><ele>245.0</ele><time>2026-05-02T13:23:15.989Z</time></trkpt><trkpt lat="44.7843417" lon="9.406585"><ele>245.5</ele><time>2026-05-02T13:23:16.989Z</time></trkpt><trkpt lat="44.7844333" lon="9.406715"><ele>246.0</ele><time>2026-05-02T13:23:17.99Z</time></trkpt><trkpt lat="44.7845267" lon="9.4068433"><ele>246.0</ele><time>2026-05-02T13:23:18.993Z</time></trkpt><trkpt lat="44.7846217" lon="9.4069733"><ele>246.0</ele><time>2026-05-02T13:23:19.991Z</time></trkpt><trkpt lat="44.7847233" lon="9.4071117"><ele>246.0</ele><time>2026-05-02T13:23:20.991Z</time></trkpt><trkpt lat="44.7848267" lon="9.4072533"><ele>246.0</ele><time>2026-05-02T13:23:21.99Z</time></trkpt><trkpt lat="44.784915" lon="9.4073833"><ele>246.4</ele><time>2026-05-02T13:23:22.991Z</time></trkpt><trkpt lat="44.7850033" lon="9.4075033"><ele>246.8</ele><time>2026-05-02T13:23:23.99Z</time></trkpt><trkpt lat="44.7850867" lon="9.4076117"><ele>247.20000000000002</ele><time>2026-05-02T13:23:24.989Z</time></trkpt><trkpt lat="44.7851567" lon="9.4077067"><ele>247.60000000000002</ele><time>2026-05-02T13:23:25.989Z</time></trkpt><trkpt lat="44.7852117" lon="9.4077917"><ele>248.0</ele><time>2026-05-02T13:23:26.989Z</time></trkpt><trkpt lat="44.7852533" lon="9.407875"><ele>247.66666666666669</ele><time>2026-05-02T13:23:27.99Z</time></trkpt><trkpt lat="44.7852717" lon="9.4079667"><ele>247.33333333333334</ele><time>2026-05-02T13:23:28.989Z</time></trkpt><trkpt lat="44.7852683" lon="9.4080683"><ele>247.0</ele><time>2026-05-02T13:23:29.989Z</time></trkpt><trkpt lat="44.7852433" lon="9.4081767"><ele>246.66666666666669</ele><time>2026-05-02T13:23:30.99Z</time></trkpt><trkpt lat="44.7851883" lon="9.4082833"><ele>246.33333333333334</ele><time>2026-05-02T13:23:31.99Z</time></trkpt><trkpt lat="44.785115" lon="9.408385"><ele>246.0</ele><time>2026-05-02T13:23:32.989Z</time></trkpt><trkpt lat="44.7850467" lon="9.4084833"><ele>247.0</ele><time>2026-05-02T13:23:33.989Z</time></trkpt><trkpt lat="44.784985" lon="9.408565"><ele>248.00000000000003</ele><time>2026-05-02T13:23:34.99Z</time></trkpt><trkpt lat="44.78492" lon="9.4086483"><ele>249.00000000000003</ele><time>2026-05-02T13:23:35.989Z</time></trkpt><trkpt lat="44.7848517" lon="9.4087333"><ele>250.0</ele><time>2026-05-02T13:23:36.99Z</time></trkpt><trkpt lat="44.7847733" lon="9.4088167"><ele>251.0</ele><time>2026-05-02T13:23:37.989Z</time></trkpt><trkpt lat="44.7847" lon="9.4088867"><ele>251.50000000000003</ele><time>2026-05-02T13:23:38.99Z</time></trkpt><trkpt lat="44.784635" lon="9.4089383"><ele>252.0</ele><time>2026-05-02T13:23:39.989Z</time></trkpt><trkpt lat="44.7845733" lon="9.4089633"><ele>252.5</ele><time>2026-05-02T13:23:40.989Z</time></trkpt><trkpt lat="44.78446" lon="9.4089017"><ele>253.0</ele><time>2026-05-02T13:23:42.99Z</time></trkpt><trkpt lat="44.7844" lon="9.40883"><ele>253.50000000000003</ele><time>2026-05-02T13:23:43.989Z</time></trkpt><trkpt lat="44.7843267" lon="9.4087333"><ele>254.0</ele><time>2026-05-02T13:23:44.989Z</time></trkpt><trkpt lat="44.7842533" lon="9.408615"><ele>254.25</ele><time>2026-05-02T13:23:45.989Z</time></trkpt><trkpt lat="44.784185" lon="9.408495"><ele>254.5</ele><time>2026-05-02T13:23:46.99Z</time></trkpt><trkpt lat="44.7841067" lon="9.4083567"><ele>254.75</ele><time>2026-05-02T13:23:47.99Z</time></trkpt><trkpt lat="44.784035" lon="9.4082217"><ele>255.0</ele><time>2026-05-02T13:23:48.991Z</time></trkpt><trkpt lat="44.7839567" lon="9.4080917"><ele>254.25</ele><time>2026-05-02T13:23:49.99Z</time></trkpt><trkpt lat="44.7838717" lon="9.4079567"><ele>253.5</ele><time>2026-05-02T13:23:50.991Z</time></trkpt><trkpt lat="44.7837833" lon="9.4078233"><ele>252.75</ele><time>2026-05-02T13:23:51.99Z</time></trkpt><trkpt lat="44.7836983" lon="9.407695"><ele>252.0</ele><time>2026-05-02T13:23:52.991Z</time></trkpt><trkpt lat="44.783615" lon="9.4075567"><ele>252.0</ele><time>2026-05-02T13:23:53.991Z</time></trkpt><trkpt lat="44.7835317" lon="9.4074183"><ele>252.0</ele><time>2026-05-02T13:23:54.99Z</time></trkpt><trkpt lat="44.783455" lon="9.40728"><ele>252.0</ele><time>2026-05-02T13:23:55.989Z</time></trkpt><trkpt lat="44.7833767" lon="9.407145"><ele>252.0</ele><time>2026-05-02T13:23:56.99Z</time></trkpt><trkpt lat="44.7832967" lon="9.407005"><ele>253.25</ele><time>2026-05-02T13:23:57.989Z</time></trkpt><trkpt lat="44.7832183" lon="9.40687"><ele>254.5</ele><time>2026-05-02T13:23:58.989Z</time></trkpt><trkpt lat="44.7831433" lon="9.4067433"><ele>255.75</ele><time>2026-05-02T13:23:59.989Z</time></trkpt><trkpt lat="44.7830767" lon="9.406625"><ele>257.0</ele><time>2026-05-02T13:24:00.991Z</time></trkpt><trkpt lat="44.7830133" lon="9.4065133"><ele>257.0</ele><time>2026-05-02T13:24:01.99Z</time></trkpt><trkpt lat="44.7829517" lon="9.40642"><ele>257.0</ele><time>2026-05-02T13:24:02.989Z</time></trkpt><trkpt lat="44.7828867" lon="9.4063583"><ele>257.0</ele><time>2026-05-02T13:24:03.989Z</time></trkpt><trkpt lat="44.78279" lon="9.4063283"><ele>257.0</ele><time>2026-05-02T13:24:05.99Z</time></trkpt><trkpt lat="44.7827383" lon="9.40641"><ele>257.0</ele><time>2026-05-02T13:24:08.991Z</time></trkpt><trkpt lat="44.7827217" lon="9.4065033"><ele>257.0</ele><time>2026-05-02T13:24:09.99Z</time></trkpt><trkpt lat="44.78271" lon="9.4065983"><ele>257.0</ele><time>2026-05-02T13:24:10.99Z</time></trkpt><trkpt lat="44.782695" lon="9.4066967"><ele>257.0</ele><time>2026-05-02T13:24:11.991Z</time></trkpt><trkpt lat="44.78266" lon="9.4068317"><ele>257.0</ele><time>2026-05-02T13:24:13.989Z</time></trkpt><trkpt lat="44.7825817" lon="9.4069633"><ele>257.0</ele><time>2026-05-02T13:24:15.99Z</time></trkpt><trkpt lat="44.782525" lon="9.4070067"><ele>257.0</ele><time>2026-05-02T13:24:16.99Z</time></trkpt><trkpt lat="44.78246" lon="9.407045"><ele>257.0</ele><time>2026-05-02T13:24:17.991Z</time></trkpt><trkpt lat="44.7823883" lon="9.40709"><ele>259.0</ele><time>2026-05-02T13:24:18.989Z</time></trkpt><trkpt lat="44.78231" lon="9.407125"><ele>261.0</ele><time>2026-05-02T13:24:19.992Z</time></trkpt><trkpt lat="44.7822333" lon="9.40716"><ele>263.0</ele><time>2026-05-02T13:24:20.993Z</time></trkpt><trkpt lat="44.7821633" lon="9.4071983"><ele>265.0</ele><time>2026-05-02T13:24:21.989Z</time></trkpt><trkpt lat="44.7820883" lon="9.4073267"><ele>267.0</ele><time>2026-05-02T13:24:23.991Z</time></trkpt><trkpt lat="44.7820033" lon="9.4074667"><ele>268.8333333333333</ele><time>2026-05-02T13:24:25.989Z</time></trkpt><trkpt lat="44.7819617" lon="9.407545"><ele>270.6666666666667</ele><time>2026-05-02T13:24:26.989Z</time></trkpt><trkpt lat="44.7819124" lon="9.4076213"><ele>272.5</ele><time>2026-05-02T13:24:27.99Z</time></trkpt><trkpt lat="44.7818639" lon="9.4076951"><ele>274.33333333333337</ele><time>2026-05-02T13:24:28.99Z</time></trkpt><trkpt lat="44.7818264" lon="9.4078313"><ele>276.1666666666667</ele><time>2026-05-02T13:24:30.989Z</time></trkpt><trkpt lat="44.7818537" lon="9.408007"><ele>278.0</ele><time>2026-05-02T13:24:32.989Z</time></trkpt><trkpt lat="44.7818684" lon="9.4081121"><ele>278.0</ele><time>2026-05-02T13:24:33.99Z</time></trkpt><trkpt lat="44.7818735" lon="9.4082126"><ele>278.0</ele><time>2026-05-02T13:24:34.992Z</time></trkpt><trkpt lat="44.7818406" lon="9.408365"><ele>278.0</ele><time>2026-05-02T13:24:36.989Z</time></trkpt><trkpt lat="44.7817383" lon="9.4084746"><ele>278.0</ele><time>2026-05-02T13:24:38.989Z</time></trkpt><trkpt lat="44.7816524" lon="9.4085177"><ele>278.0</ele><time>2026-05-02T13:24:39.989Z</time></trkpt><trkpt lat="44.7815627" lon="9.4085562"><ele>281.8</ele><time>2026-05-02T13:24:40.989Z</time></trkpt><trkpt lat="44.7814795" lon="9.40859"><ele>285.6</ele><time>2026-05-02T13:24:41.989Z</time></trkpt><trkpt lat="44.7814063" lon="9.4086193"><ele>289.4</ele><time>2026-05-02T13:24:42.99Z</time></trkpt><trkpt lat="44.7813445" lon="9.4086539"><ele>293.2</ele><time>2026-05-02T13:24:43.991Z</time></trkpt><trkpt lat="44.7812605" lon="9.4087592"><ele>297.0</ele><time>2026-05-02T13:24:45.99Z</time></trkpt><trkpt lat="44.7811935" lon="9.4088895"><ele>297.0</ele><time>2026-05-02T13:24:47.99Z</time></trkpt><trkpt lat="44.7811669" lon="9.4089703"><ele>297.0</ele><time>2026-05-02T13:24:48.991Z</time></trkpt><trkpt lat="44.7811583" lon="9.4090659"><ele>297.0</ele><time>2026-05-02T13:24:49.99Z</time></trkpt><trkpt lat="44.7811627" lon="9.4091686"><ele>297.0</ele><time>2026-05-02T13:24:50.99Z</time></trkpt><trkpt lat="44.7811613" lon="9.4092735"><ele>297.0</ele><time>2026-05-02T13:24:51.991Z</time></trkpt><trkpt lat="44.781152" lon="9.4093807"><ele>297.0</ele><time>2026-05-02T13:24:52.99Z</time></trkpt><trkpt lat="44.7811381" lon="9.4094925"><ele>297.0</ele><time>2026-05-02T13:24:53.991Z</time></trkpt><trkpt lat="44.7811186" lon="9.4096112"><ele>296.8333333333333</ele><time>2026-05-02T13:24:54.989Z</time></trkpt><trkpt lat="44.7810914" lon="9.4097168"><ele>296.6666666666667</ele><time>2026-05-02T13:24:55.989Z</time></trkpt><trkpt lat="44.7810598" lon="9.4098088"><ele>296.5</ele><time>2026-05-02T13:24:56.99Z</time></trkpt><trkpt lat="44.7810178" lon="9.4098875"><ele>296.33333333333337</ele><time>2026-05-02T13:24:57.99Z</time></trkpt><trkpt lat="44.7809629" lon="9.4099657"><ele>296.1666666666667</ele><time>2026-05-02T13:24:58.99Z</time></trkpt><trkpt lat="44.7808988" lon="9.4100527"><ele>296.0</ele><time>2026-05-02T13:24:59.989Z</time></trkpt><trkpt lat="44.7808419" lon="9.4101488"><ele>298.83333333333337</ele><time>2026-05-02T13:25:00.989Z</time></trkpt><trkpt lat="44.7808052" lon="9.4102451"><ele>301.6666666666667</ele><time>2026-05-02T13:25:01.99Z</time></trkpt><trkpt lat="44.7807836" lon="9.4103636"><ele>304.5</ele><time>2026-05-02T13:25:02.991Z</time></trkpt><trkpt lat="44.7807756" lon="9.4104726"><ele>307.3333333333333</ele><time>2026-05-02T13:25:03.989Z</time></trkpt><trkpt lat="44.780768" lon="9.4105736"><ele>310.16666666666663</ele><time>2026-05-02T13:25:04.99Z</time></trkpt><trkpt lat="44.780754" lon="9.4106736"><ele>313.0</ele><time>2026-05-02T13:25:05.989Z</time></trkpt><trkpt lat="44.7807209" lon="9.4107775"><ele>313.8</ele><time>2026-05-02T13:25:06.99Z</time></trkpt><trkpt lat="44.780672" lon="9.4108885"><ele>314.6</ele><time>2026-05-02T13:25:07.99Z</time></trkpt><trkpt lat="44.7806197" lon="9.4110047"><ele>315.4</ele><time>2026-05-02T13:25:08.99Z</time></trkpt><trkpt lat="44.7805723" lon="9.4111251"><ele>316.2</ele><time>2026-05-02T13:25:09.989Z</time></trkpt><trkpt lat="44.7805384" lon="9.4112525"><ele>317.0</ele><time>2026-05-02T13:25:10.99Z</time></trkpt><trkpt lat="44.7805021" lon="9.4113861"><ele>317.4</ele><time>2026-05-02T13:25:11.991Z</time></trkpt><trkpt lat="44.7804667" lon="9.4115259"><ele>317.79999999999995</ele><time>2026-05-02T13:25:12.991Z</time></trkpt><trkpt lat="44.7804289" lon="9.4116655"><ele>318.2</ele><time>2026-05-02T13:25:13.991Z</time></trkpt><trkpt lat="44.7803905" lon="9.4117987"><ele>318.59999999999997</ele><time>2026-05-02T13:25:14.99Z</time></trkpt><trkpt lat="44.7803509" lon="9.4119207"><ele>319.0</ele><time>2026-05-02T13:25:15.99Z</time></trkpt><trkpt lat="44.7803145" lon="9.4120433"><ele>319.16666666666663</ele><time>2026-05-02T13:25:16.989Z</time></trkpt><trkpt lat="44.7802792" lon="9.4121612"><ele>319.3333333333333</ele><time>2026-05-02T13:25:17.991Z</time></trkpt><trkpt lat="44.780246" lon="9.4122772"><ele>319.5</ele><time>2026-05-02T13:25:18.991Z</time></trkpt><trkpt lat="44.7802088" lon="9.4123924"><ele>319.6666666666667</ele><time>2026-05-02T13:25:19.99Z</time></trkpt><trkpt lat="44.7801661" lon="9.4125008"><ele>319.83333333333337</ele><time>2026-05-02T13:25:20.991Z</time></trkpt><trkpt lat="44.7801193" lon="9.41261"><ele>320.0</ele><time>2026-05-02T13:25:21.99Z</time></trkpt><trkpt lat="44.7800638" lon="9.4127266"><ele>323.4</ele><time>2026-05-02T13:25:22.99Z</time></trkpt><trkpt lat="44.7800049" lon="9.4128529"><ele>326.8</ele><time>2026-05-02T13:25:23.991Z</time></trkpt><trkpt lat="44.7799461" lon="9.4129839"><ele>330.20000000000005</ele><time>2026-05-02T13:25:24.989Z</time></trkpt><trkpt lat="44.7798932" lon="9.4131074"><ele>333.6</ele><time>2026-05-02T13:25:25.989Z</time></trkpt><trkpt lat="44.7798429" lon="9.4132133"><ele>337.0</ele><time>2026-05-02T13:25:26.992Z</time></trkpt><trkpt lat="44.779789" lon="9.4133014"><ele>337.0</ele><time>2026-05-02T13:25:27.99Z</time></trkpt><trkpt lat="44.7797341" lon="9.4133668"><ele>337.0</ele><time>2026-05-02T13:25:28.99Z</time></trkpt><trkpt lat="44.7796433" lon="9.4134861"><ele>337.0</ele><time>2026-05-02T13:25:30.991Z</time></trkpt><trkpt lat="44.7796083" lon="9.4135731"><ele>337.0</ele><time>2026-05-02T13:25:31.99Z</time></trkpt><trkpt lat="44.779574" lon="9.4136773"><ele>337.0</ele><time>2026-05-02T13:25:32.99Z</time></trkpt><trkpt lat="44.7795316" lon="9.41379"><ele>337.0</ele><time>2026-05-02T13:25:33.99Z</time></trkpt><trkpt lat="44.7794735" lon="9.4139141"><ele>336.8</ele><time>2026-05-02T13:25:34.989Z</time></trkpt><trkpt lat="44.7794059" lon="9.414041"><ele>336.6</ele><time>2026-05-02T13:25:35.989Z</time></trkpt><trkpt lat="44.7793366" lon="9.4141696"><ele>336.40000000000003</ele><time>2026-05-02T13:25:36.989Z</time></trkpt><trkpt lat="44.7792732" lon="9.4143018"><ele>336.20000000000005</ele><time>2026-05-02T13:25:37.99Z</time></trkpt><trkpt lat="44.7792186" lon="9.4144346"><ele>336.0</ele><time>2026-05-02T13:25:38.989Z</time></trkpt><trkpt lat="44.7791682" lon="9.4145641"><ele>339.8</ele><time>2026-05-02T13:25:39.989Z</time></trkpt><trkpt lat="44.7791115" lon="9.4146902"><ele>343.6</ele><time>2026-05-02T13:25:40.989Z</time></trkpt><trkpt lat="44.7790433" lon="9.4148167"><ele>347.4</ele><time>2026-05-02T13:25:41.989Z</time></trkpt><trkpt lat="44.7789731" lon="9.4149383"><ele>351.2</ele><time>2026-05-02T13:25:42.991Z</time></trkpt><trkpt lat="44.7789086" lon="9.4150607"><ele>355.0</ele><time>2026-05-02T13:25:43.989Z</time></trkpt><trkpt lat="44.7788477" lon="9.4151746"><ele>355.0</ele><time>2026-05-02T13:25:44.989Z</time></trkpt><trkpt lat="44.7787817" lon="9.4152693"><ele>355.0</ele><time>2026-05-02T13:25:45.989Z</time></trkpt><trkpt lat="44.7787034" lon="9.4153512"><ele>355.0</ele><time>2026-05-02T13:25:46.989Z</time></trkpt><trkpt lat="44.7786141" lon="9.4154223"><ele>355.0</ele><time>2026-05-02T13:25:47.989Z</time></trkpt><trkpt lat="44.7785293" lon="9.4154866"><ele>355.0</ele><time>2026-05-02T13:25:48.989Z</time></trkpt><trkpt lat="44.7784611" lon="9.4155571"><ele>358.5</ele><time>2026-05-02T13:25:49.989Z</time></trkpt><trkpt lat="44.7784042" lon="9.4156338"><ele>362.0</ele><time>2026-05-02T13:25:50.99Z</time></trkpt><trkpt lat="44.7783575" lon="9.4157225"><ele>365.5</ele><time>2026-05-02T13:25:51.989Z</time></trkpt><trkpt lat="44.7783352" lon="9.4158156"><ele>369.0</ele><time>2026-05-02T13:25:52.991Z</time></trkpt><trkpt lat="44.778336" lon="9.4159182"><ele>372.5</ele><time>2026-05-02T13:25:53.989Z</time></trkpt><trkpt lat="44.7783615" lon="9.4160182"><ele>376.0</ele><time>2026-05-02T13:25:54.99Z</time></trkpt><trkpt lat="44.7784128" lon="9.4161147"><ele>376.0</ele><time>2026-05-02T13:25:55.99Z</time></trkpt><trkpt lat="44.7784829" lon="9.4162055"><ele>376.0</ele><time>2026-05-02T13:25:56.99Z</time></trkpt><trkpt lat="44.778556" lon="9.4162967"><ele>376.0</ele><time>2026-05-02T13:25:57.99Z</time></trkpt><trkpt lat="44.7786349" lon="9.4163735"><ele>376.0</ele><time>2026-05-02T13:25:58.989Z</time></trkpt><trkpt lat="44.7787169" lon="9.4164289"><ele>376.0</ele><time>2026-05-02T13:25:59.99Z</time></trkpt><trkpt lat="44.7787995" lon="9.4164587"><ele>373.3333333333333</ele><time>2026-05-02T13:26:00.989Z</time></trkpt><trkpt lat="44.7788791" lon="9.4164863"><ele>370.66666666666663</ele><time>2026-05-02T13:26:01.989Z</time></trkpt><trkpt lat="44.7789444" lon="9.41653"><ele>368.0</ele><time>2026-05-02T13:26:02.989Z</time></trkpt><trkpt lat="44.7790055" lon="9.416579"><ele>365.3333333333333</ele><time>2026-05-02T13:26:03.989Z</time></trkpt><trkpt lat="44.779062" lon="9.4166449"><ele>362.6666666666667</ele><time>2026-05-02T13:26:04.99Z</time></trkpt><trkpt lat="44.7791036" lon="9.4167516"><ele>360.0</ele><time>2026-05-02T13:26:05.99Z</time></trkpt><trkpt lat="44.7791269" lon="9.4168725"><ele>360.0</ele><time>2026-05-02T13:26:06.989Z</time></trkpt><trkpt lat="44.7791353" lon="9.4169934"><ele>360.0</ele><time>2026-05-02T13:26:07.99Z</time></trkpt><trkpt lat="44.7791397" lon="9.4171119"><ele>360.0</ele><time>2026-05-02T13:26:08.991Z</time></trkpt><trkpt lat="44.7791432" lon="9.4172221"><ele>360.0</ele><time>2026-05-02T13:26:09.99Z</time></trkpt><trkpt lat="44.7791416" lon="9.4173191"><ele>360.0</ele><time>2026-05-02T13:26:10.99Z</time></trkpt><trkpt lat="44.7791305" lon="9.4174083"><ele>360.0</ele><time>2026-05-02T13:26:11.989Z</time></trkpt><trkpt lat="44.7790651" lon="9.4175614"><ele>360.0</ele><time>2026-05-02T13:26:13.989Z</time></trkpt><trkpt lat="44.7790106" lon="9.4176287"><ele>360.0</ele><time>2026-05-02T13:26:14.99Z</time></trkpt><trkpt lat="44.7789551" lon="9.417703"><ele>360.0</ele><time>2026-05-02T13:26:15.989Z</time></trkpt><trkpt lat="44.7789119" lon="9.4177727"><ele>360.0</ele><time>2026-05-02T13:26:16.99Z</time></trkpt><trkpt lat="44.7788609" lon="9.4179331"><ele>360.0</ele><time>2026-05-02T13:26:18.989Z</time></trkpt><trkpt lat="44.7788676" lon="9.4180345"><ele>360.0</ele><time>2026-05-02T13:26:19.989Z</time></trkpt><trkpt lat="44.7788663" lon="9.4181443"><ele>360.0</ele><time>2026-05-02T13:26:20.99Z</time></trkpt><trkpt lat="44.7788662" lon="9.4182545"><ele>360.0</ele><time>2026-05-02T13:26:21.989Z</time></trkpt><trkpt lat="44.7788711" lon="9.4183661"><ele>360.0</ele><time>2026-05-02T13:26:22.989Z</time></trkpt><trkpt lat="44.778873" lon="9.4184752"><ele>360.0</ele><time>2026-05-02T13:26:23.989Z</time></trkpt><trkpt lat="44.7788752" lon="9.4185848"><ele>360.0</ele><time>2026-05-02T13:26:24.989Z</time></trkpt><trkpt lat="44.7788775" lon="9.4187028"><ele>360.0</ele><time>2026-05-02T13:26:25.989Z</time></trkpt><trkpt lat="44.7788772" lon="9.4188225"><ele>358.4</ele><time>2026-05-02T13:26:26.989Z</time></trkpt><trkpt lat="44.7788705" lon="9.418935"><ele>356.8</ele><time>2026-05-02T13:26:27.989Z</time></trkpt><trkpt lat="44.7788504" lon="9.4190363"><ele>355.20000000000005</ele><time>2026-05-02T13:26:28.989Z</time></trkpt><trkpt lat="44.7788133" lon="9.419125"><ele>353.6</ele><time>2026-05-02T13:26:29.99Z</time></trkpt><trkpt lat="44.7787483" lon="9.4192617"><ele>352.0</ele><time>2026-05-02T13:26:31.989Z</time></trkpt><trkpt lat="44.7786533" lon="9.4193867"><ele>352.0</ele><time>2026-05-02T13:26:33.989Z</time></trkpt><trkpt lat="44.7785917" lon="9.4194567"><ele>352.0</ele><time>2026-05-02T13:26:34.991Z</time></trkpt><trkpt lat="44.7785383" lon="9.4195283"><ele>352.0</ele><time>2026-05-02T13:26:35.989Z</time></trkpt><trkpt lat="44.7784967" lon="9.41968"><ele>352.0</ele><time>2026-05-02T13:26:37.989Z</time></trkpt><trkpt lat="44.7785017" lon="9.4197833"><ele>352.0</ele><time>2026-05-02T13:26:38.99Z</time></trkpt><trkpt lat="44.7785017" lon="9.4198767"><ele>352.0</ele><time>2026-05-02T13:26:39.989Z</time></trkpt><trkpt lat="44.7784867" lon="9.4199633"><ele>354.16666666666663</ele><time>2026-05-02T13:26:40.989Z</time></trkpt><trkpt lat="44.77846" lon="9.420045"><ele>356.3333333333333</ele><time>2026-05-02T13:26:41.989Z</time></trkpt><trkpt lat="44.7783967" lon="9.420185"><ele>358.5</ele><time>2026-05-02T13:26:43.989Z</time></trkpt><trkpt lat="44.7783667" lon="9.4202883"><ele>360.6666666666667</ele><time>2026-05-02T13:26:45.99Z</time></trkpt><trkpt lat="44.7783117" lon="9.4203883"><ele>362.83333333333337</ele><time>2026-05-02T13:26:48.989Z</time></trkpt><trkpt lat="44.7783117" lon="9.4204983"><ele>365.0</ele><time>2026-05-02T13:26:51.989Z</time></trkpt><trkpt lat="44.77837" lon="9.42055"><ele>363.33333333333337</ele><time>2026-05-02T13:26:54.989Z</time></trkpt><trkpt lat="44.7784417" lon="9.42054"><ele>361.6666666666667</ele><time>2026-05-02T13:26:56.989Z</time></trkpt><trkpt lat="44.778545" lon="9.4204783"><ele>360.0</ele><time>2026-05-02T13:26:58.991Z</time></trkpt><trkpt lat="44.7786033" lon="9.42043"><ele>358.3333333333333</ele><time>2026-05-02T13:26:59.989Z</time></trkpt><trkpt lat="44.778665" lon="9.420385"><ele>356.66666666666663</ele><time>2026-05-02T13:27:00.99Z</time></trkpt><trkpt lat="44.7787283" lon="9.420355"><ele>355.0</ele><time>2026-05-02T13:27:01.99Z</time></trkpt><trkpt lat="44.7787933" lon="9.420345"><ele>355.0</ele><time>2026-05-02T13:27:02.99Z</time></trkpt><trkpt lat="44.778865" lon="9.4203567"><ele>355.0</ele><time>2026-05-02T13:27:03.989Z</time></trkpt><trkpt lat="44.778945" lon="9.4203717"><ele>355.0</ele><time>2026-05-02T13:27:04.989Z</time></trkpt><trkpt lat="44.7790367" lon="9.42037"><ele>355.0</ele><time>2026-05-02T13:27:05.99Z</time></trkpt><trkpt lat="44.77913" lon="9.4203417"><ele>355.0</ele><time>2026-05-02T13:27:06.99Z</time></trkpt><trkpt lat="44.7792233" lon="9.4203133"><ele>355.0</ele><time>2026-05-02T13:27:07.991Z</time></trkpt><trkpt lat="44.7793183" lon="9.4203117"><ele>356.4</ele><time>2026-05-02T13:27:08.99Z</time></trkpt><trkpt lat="44.7794283" lon="9.42032"><ele>357.8</ele><time>2026-05-02T13:27:09.989Z</time></trkpt><trkpt lat="44.77954" lon="9.4203267"><ele>359.20000000000005</ele><time>2026-05-02T13:27:10.991Z</time></trkpt><trkpt lat="44.77964" lon="9.4203217"><ele>360.6</ele><time>2026-05-02T13:27:11.99Z</time></trkpt><trkpt lat="44.7797217" lon="9.4203133"><ele>362.0</ele><time>2026-05-02T13:27:12.99Z</time></trkpt><trkpt lat="44.7797917" lon="9.42032"><ele>362.0</ele><time>2026-05-02T13:27:13.99Z</time></trkpt><trkpt lat="44.7799033" lon="9.4203867"><ele>362.0</ele><time>2026-05-02T13:27:15.989Z</time></trkpt><trkpt lat="44.7799583" lon="9.4204467"><ele>362.0</ele><time>2026-05-02T13:27:16.989Z</time></trkpt><trkpt lat="44.7800267" lon="9.42052"><ele>362.0</ele><time>2026-05-02T13:27:17.99Z</time></trkpt><trkpt lat="44.78011" lon="9.4206167"><ele>362.0</ele><time>2026-05-02T13:27:18.99Z</time></trkpt><trkpt lat="44.7801917" lon="9.4207183"><ele>363.6</ele><time>2026-05-02T13:27:19.99Z</time></trkpt><trkpt lat="44.78026" lon="9.4208083"><ele>365.20000000000005</ele><time>2026-05-02T13:27:20.99Z</time></trkpt><trkpt lat="44.7803283" lon="9.4208833"><ele>366.8</ele><time>2026-05-02T13:27:21.991Z</time></trkpt><trkpt lat="44.7804017" lon="9.42093"><ele>368.4</ele><time>2026-05-02T13:27:22.991Z</time></trkpt><trkpt lat="44.7804733" lon="9.4209533"><ele>370.0</ele><time>2026-05-02T13:27:23.99Z</time></trkpt><trkpt lat="44.78058" lon="9.4210217"><ele>370.0</ele><time>2026-05-02T13:27:25.99Z</time></trkpt><trkpt lat="44.7806433" lon="9.421185"><ele>370.0</ele><time>2026-05-02T13:27:27.99Z</time></trkpt><trkpt lat="44.780665" lon="9.4212883"><ele>370.0</ele><time>2026-05-02T13:27:28.99Z</time></trkpt><trkpt lat="44.7806833" lon="9.4213733"><ele>370.0</ele><time>2026-05-02T13:27:29.989Z</time></trkpt><trkpt lat="44.7806733" lon="9.42148"><ele>370.0</ele><time>2026-05-02T13:27:31.99Z</time></trkpt><trkpt lat="44.7805817" lon="9.421445"><ele>370.0</ele><time>2026-05-02T13:27:33.991Z</time></trkpt><trkpt lat="44.78053" lon="9.4213933"><ele>371.3333333333333</ele><time>2026-05-02T13:27:34.99Z</time></trkpt><trkpt lat="44.7804267" lon="9.4213233"><ele>372.66666666666663</ele><time>2026-05-02T13:27:36.99Z</time></trkpt><trkpt lat="44.7803583" lon="9.4213317"><ele>374.0</ele><time>2026-05-02T13:27:37.989Z</time></trkpt><trkpt lat="44.78028" lon="9.4213717"><ele>375.3333333333333</ele><time>2026-05-02T13:27:38.99Z</time></trkpt><trkpt lat="44.7802" lon="9.4214217"><ele>376.6666666666667</ele><time>2026-05-02T13:27:39.989Z</time></trkpt><trkpt lat="44.78013" lon="9.421445"><ele>378.0</ele><time>2026-05-02T13:27:40.989Z</time></trkpt><trkpt lat="44.780005" lon="9.42144"><ele>380.1666666666667</ele><time>2026-05-02T13:27:42.99Z</time></trkpt><trkpt lat="44.77992" lon="9.4214283"><ele>382.33333333333337</ele><time>2026-05-02T13:27:43.99Z</time></trkpt><trkpt lat="44.7798417" lon="9.4214317"><ele>384.5</ele><time>2026-05-02T13:27:44.991Z</time></trkpt><trkpt lat="44.77977" lon="9.4214417"><ele>386.6666666666667</ele><time>2026-05-02T13:27:45.99Z</time></trkpt><trkpt lat="44.7797017" lon="9.4214683"><ele>388.83333333333337</ele><time>2026-05-02T13:27:46.989Z</time></trkpt><trkpt lat="44.7796567" lon="9.4215467"><ele>391.0</ele><time>2026-05-02T13:27:47.99Z</time></trkpt><trkpt lat="44.779615" lon="9.4216417"><ele>391.00000000000006</ele><time>2026-05-02T13:27:48.991Z</time></trkpt><trkpt lat="44.779575" lon="9.421745"><ele>391.0</ele><time>2026-05-02T13:27:49.991Z</time></trkpt><trkpt lat="44.7795433" lon="9.4218533"><ele>391.0</ele><time>2026-05-02T13:27:50.99Z</time></trkpt><trkpt lat="44.77952" lon="9.4219533"><ele>391.0</ele><time>2026-05-02T13:27:51.992Z</time></trkpt><trkpt lat="44.7795083" lon="9.422055"><ele>391.00000000000006</ele><time>2026-05-02T13:27:52.991Z</time></trkpt><trkpt lat="44.7795083" lon="9.42216"><ele>391.0</ele><time>2026-05-02T13:27:53.992Z</time></trkpt><trkpt lat="44.77952" lon="9.4222683"><ele>391.00000000000006</ele><time>2026-05-02T13:27:54.991Z</time></trkpt><trkpt lat="44.779545" lon="9.4223833"><ele>391.0</ele><time>2026-05-02T13:27:55.99Z</time></trkpt><trkpt lat="44.7795633" lon="9.4225"><ele>391.0</ele><time>2026-05-02T13:27:56.991Z</time></trkpt><trkpt lat="44.7795767" lon="9.4226183"><ele>391.0</ele><time>2026-05-02T13:27:57.991Z</time></trkpt><trkpt lat="44.7795867" lon="9.4227383"><ele>391.00000000000006</ele><time>2026-05-02T13:27:58.991Z</time></trkpt><trkpt lat="44.77959" lon="9.42285"><ele>391.0</ele><time>2026-05-02T13:27:59.989Z</time></trkpt><trkpt lat="44.7795867" lon="9.422955"><ele>390.71428571428567</ele><time>2026-05-02T13:28:00.99Z</time></trkpt><trkpt lat="44.7795883" lon="9.4230517"><ele>390.42857142857144</ele><time>2026-05-02T13:28:01.99Z</time></trkpt><trkpt lat="44.779585" lon="9.42315"><ele>390.1428571428571</ele><time>2026-05-02T13:28:02.992Z</time></trkpt><trkpt lat="44.7795917" lon="9.4232483"><ele>389.85714285714283</ele><time>2026-05-02T13:28:03.99Z</time></trkpt><trkpt lat="44.7796017" lon="9.42334"><ele>389.57142857142856</ele><time>2026-05-02T13:28:04.99Z</time></trkpt><trkpt lat="44.7796233" lon="9.4234283"><ele>389.2857142857143</ele><time>2026-05-02T13:28:05.99Z</time></trkpt><trkpt lat="44.7796583" lon="9.423525"><ele>389.0</ele><time>2026-05-02T13:28:06.991Z</time></trkpt><trkpt lat="44.7796967" lon="9.42363"><ele>388.99999999999994</ele><time>2026-05-02T13:28:07.989Z</time></trkpt><trkpt lat="44.7797267" lon="9.42372"><ele>389.0</ele><time>2026-05-02T13:28:08.99Z</time></trkpt><trkpt lat="44.7797683" lon="9.42379"><ele>389.0</ele><time>2026-05-02T13:28:09.99Z</time></trkpt><trkpt lat="44.7798167" lon="9.42386"><ele>389.0</ele><time>2026-05-02T13:28:10.989Z</time></trkpt><trkpt lat="44.77987" lon="9.423995"><ele>388.99999999999994</ele><time>2026-05-02T13:28:12.989Z</time></trkpt><trkpt lat="44.7799033" lon="9.42416"><ele>389.0</ele><time>2026-05-02T13:28:14.99Z</time></trkpt><trkpt lat="44.7799217" lon="9.4242467"><ele>391.25</ele><time>2026-05-02T13:28:15.988Z</time></trkpt><trkpt lat="44.7799833" lon="9.4244183"><ele>393.5</ele><time>2026-05-02T13:28:17.989Z</time></trkpt><trkpt lat="44.7800267" lon="9.4245683"><ele>395.75</ele><time>2026-05-02T13:28:19.99Z</time></trkpt><trkpt lat="44.78005" lon="9.4247417"><ele>398.0</ele><time>2026-05-02T13:28:21.989Z</time></trkpt><trkpt lat="44.7800617" lon="9.4248433"><ele>398.8333333333333</ele><time>2026-05-02T13:28:22.989Z</time></trkpt><trkpt lat="44.78007" lon="9.424975"><ele>399.66666666666663</ele><time>2026-05-02T13:28:23.989Z</time></trkpt><trkpt lat="44.7800933" lon="9.4251"><ele>400.5</ele><time>2026-05-02T13:28:24.989Z</time></trkpt><trkpt lat="44.7801233" lon="9.425215"><ele>401.33333333333337</ele><time>2026-05-02T13:28:25.989Z</time></trkpt><trkpt lat="44.7801417" lon="9.4253233"><ele>402.1666666666667</ele><time>2026-05-02T13:28:26.99Z</time></trkpt><trkpt lat="44.7801783" lon="9.425415"><ele>403.0</ele><time>2026-05-02T13:28:27.989Z</time></trkpt><trkpt lat="44.7802517" lon="9.4255"><ele>403.0</ele><time>2026-05-02T13:28:28.989Z</time></trkpt><trkpt lat="44.78033" lon="9.425565"><ele>403.0</ele><time>2026-05-02T13:28:29.989Z</time></trkpt><trkpt lat="44.7804233" lon="9.4256267"><ele>403.0</ele><time>2026-05-02T13:28:30.989Z</time></trkpt><trkpt lat="44.78053" lon="9.42568"><ele>403.0</ele><time>2026-05-02T13:28:31.989Z</time></trkpt><trkpt lat="44.7806317" lon="9.4257367"><ele>403.0</ele><time>2026-05-02T13:28:32.99Z</time></trkpt><trkpt lat="44.780725" lon="9.425795"><ele>403.0</ele><time>2026-05-02T13:28:33.989Z</time></trkpt><trkpt lat="44.7807983" lon="9.4258433"><ele>403.0</ele><time>2026-05-02T13:28:34.989Z</time></trkpt><trkpt lat="44.7808717" lon="9.4259033"><ele>403.0</ele><time>2026-05-02T13:28:35.989Z</time></trkpt><trkpt lat="44.7809167" lon="9.4259783"><ele>403.0</ele><time>2026-05-02T13:28:36.989Z</time></trkpt><trkpt lat="44.7809483" lon="9.42607"><ele>403.0</ele><time>2026-05-02T13:28:37.988Z</time></trkpt><trkpt lat="44.7809767" lon="9.4261617"><ele>403.0</ele><time>2026-05-02T13:28:38.989Z</time></trkpt><trkpt lat="44.7810083" lon="9.4262483"><ele>403.0</ele><time>2026-05-02T13:28:39.989Z</time></trkpt><trkpt lat="44.7810433" lon="9.426325"><ele>401.59999999999997</ele><time>2026-05-02T13:28:40.988Z</time></trkpt><trkpt lat="44.78112" lon="9.426425"><ele>400.2</ele><time>2026-05-02T13:28:42.989Z</time></trkpt><trkpt lat="44.781205" lon="9.4264267"><ele>398.8</ele><time>2026-05-02T13:28:44.99Z</time></trkpt><trkpt lat="44.7813083" lon="9.4263867"><ele>397.4</ele><time>2026-05-02T13:28:46.988Z</time></trkpt><trkpt lat="44.7813983" lon="9.4262983"><ele>396.0</ele><time>2026-05-02T13:28:48.989Z</time></trkpt><trkpt lat="44.781455" lon="9.42621"><ele>396.0</ele><time>2026-05-02T13:28:49.989Z</time></trkpt><trkpt lat="44.7815233" lon="9.4261017"><ele>396.0</ele><time>2026-05-02T13:28:50.99Z</time></trkpt><trkpt lat="44.7815867" lon="9.426005"><ele>396.0</ele><time>2026-05-02T13:28:51.989Z</time></trkpt><trkpt lat="44.7816517" lon="9.4259133"><ele>396.0</ele><time>2026-05-02T13:28:52.989Z</time></trkpt><trkpt lat="44.7817267" lon="9.42583"><ele>396.0</ele><time>2026-05-02T13:28:53.99Z</time></trkpt><trkpt lat="44.78181" lon="9.4257583"><ele>397.20000000000005</ele><time>2026-05-02T13:28:54.989Z</time></trkpt><trkpt lat="44.7819" lon="9.42569"><ele>398.40000000000003</ele><time>2026-05-02T13:28:55.989Z</time></trkpt><trkpt lat="44.7819917" lon="9.42562"><ele>399.6</ele><time>2026-05-02T13:28:56.989Z</time></trkpt><trkpt lat="44.7820783" lon="9.4255533"><ele>400.8</ele><time>2026-05-02T13:28:57.99Z</time></trkpt><trkpt lat="44.7821617" lon="9.4254967"><ele>402.0</ele><time>2026-05-02T13:28:58.989Z</time></trkpt><trkpt lat="44.78224" lon="9.4254483"><ele>399.6666666666667</ele><time>2026-05-02T13:28:59.988Z</time></trkpt><trkpt lat="44.7823167" lon="9.4254067"><ele>397.33333333333337</ele><time>2026-05-02T13:29:00.989Z</time></trkpt><trkpt lat="44.78239" lon="9.425385"><ele>395.0</ele><time>2026-05-02T13:29:01.989Z</time></trkpt><trkpt lat="44.7824633" lon="9.4253517"><ele>392.6666666666667</ele><time>2026-05-02T13:29:02.989Z</time></trkpt><trkpt lat="44.78254" lon="9.425305"><ele>390.33333333333337</ele><time>2026-05-02T13:29:03.989Z</time></trkpt><trkpt lat="44.7826083" lon="9.4252483"><ele>388.0</ele><time>2026-05-02T13:29:04.989Z</time></trkpt><trkpt lat="44.78266" lon="9.4251817"><ele>387.83333333333337</ele><time>2026-05-02T13:29:05.989Z</time></trkpt><trkpt lat="44.7826983" lon="9.4250917"><ele>387.6666666666667</ele><time>2026-05-02T13:29:06.989Z</time></trkpt><trkpt lat="44.7827433" lon="9.425"><ele>387.5</ele><time>2026-05-02T13:29:07.99Z</time></trkpt><trkpt lat="44.7827917" lon="9.4249183"><ele>387.33333333333337</ele><time>2026-05-02T13:29:08.989Z</time></trkpt><trkpt lat="44.78284" lon="9.4248333"><ele>387.1666666666667</ele><time>2026-05-02T13:29:09.989Z</time></trkpt><trkpt lat="44.7828867" lon="9.4247367"><ele>387.0</ele><time>2026-05-02T13:29:10.988Z</time></trkpt><trkpt lat="44.7829267" lon="9.4246267"><ele>387.0</ele><time>2026-05-02T13:29:11.99Z</time></trkpt><trkpt lat="44.7829567" lon="9.42452"><ele>387.0</ele><time>2026-05-02T13:29:12.99Z</time></trkpt><trkpt lat="44.7829717" lon="9.424415"><ele>387.0</ele><time>2026-05-02T13:29:13.989Z</time></trkpt><trkpt lat="44.7829867" lon="9.4243167"><ele>387.0</ele><time>2026-05-02T13:29:14.99Z</time></trkpt><trkpt lat="44.78301" lon="9.424225"><ele>387.0</ele><time>2026-05-02T13:29:15.988Z</time></trkpt><trkpt lat="44.7830533" lon="9.4241417"><ele>387.0</ele><time>2026-05-02T13:29:16.989Z</time></trkpt><trkpt lat="44.7831067" lon="9.4240667"><ele>387.0</ele><time>2026-05-02T13:29:17.99Z</time></trkpt><trkpt lat="44.7831733" lon="9.4240067"><ele>387.0</ele><time>2026-05-02T13:29:18.989Z</time></trkpt><trkpt lat="44.7832483" lon="9.4239567"><ele>387.0</ele><time>2026-05-02T13:29:19.989Z</time></trkpt><trkpt lat="44.7833267" lon="9.4239217"><ele>387.0</ele><time>2026-05-02T13:29:20.989Z</time></trkpt><trkpt lat="44.7834067" lon="9.4239067"><ele>387.0</ele><time>2026-05-02T13:29:21.989Z</time></trkpt><trkpt lat="44.7834867" lon="9.42395"><ele>387.0</ele><time>2026-05-02T13:29:22.991Z</time></trkpt><trkpt lat="44.7835567" lon="9.4240183"><ele>387.0</ele><time>2026-05-02T13:29:23.99Z</time></trkpt><trkpt lat="44.78362" lon="9.4241083"><ele>387.6</ele><time>2026-05-02T13:29:24.989Z</time></trkpt><trkpt lat="44.7836733" lon="9.4241933"><ele>388.20000000000005</ele><time>2026-05-02T13:29:25.989Z</time></trkpt><trkpt lat="44.7837717" lon="9.4242783"><ele>388.8</ele><time>2026-05-02T13:29:27.989Z</time></trkpt><trkpt lat="44.7838833" lon="9.4242267"><ele>389.4</ele><time>2026-05-02T13:29:29.989Z</time></trkpt><trkpt lat="44.78395" lon="9.4241867"><ele>390.0</ele><time>2026-05-02T13:29:30.989Z</time></trkpt><trkpt lat="44.7840317" lon="9.4241217"><ele>390.0</ele><time>2026-05-02T13:29:31.989Z</time></trkpt><trkpt lat="44.7841283" lon="9.42403"><ele>390.0</ele><time>2026-05-02T13:29:32.989Z</time></trkpt><trkpt lat="44.7842167" lon="9.4239617"><ele>390.0</ele><time>2026-05-02T13:29:33.989Z</time></trkpt><trkpt lat="44.7843033" lon="9.4239067"><ele>390.0</ele><time>2026-05-02T13:29:34.989Z</time></trkpt><trkpt lat="44.784375" lon="9.4238683"><ele>390.0</ele><time>2026-05-02T13:29:35.991Z</time></trkpt><trkpt lat="44.7844517" lon="9.4238417"><ele>390.0</ele><time>2026-05-02T13:29:37.989Z</time></trkpt><trkpt lat="44.7844617" lon="9.4239417"><ele>390.0</ele><time>2026-05-02T13:29:40.99Z</time></trkpt><trkpt lat="44.7844133" lon="9.4240783"><ele>390.0</ele><time>2026-05-02T13:29:42.99Z</time></trkpt><trkpt lat="44.784375" lon="9.4241883"><ele>390.0</ele><time>2026-05-02T13:29:44.99Z</time></trkpt><trkpt lat="44.7843333" lon="9.4243033"><ele>390.0</ele><time>2026-05-02T13:29:51.989Z</time></trkpt><trkpt lat="44.7842767" lon="9.4244483"><ele>390.0</ele><time>2026-05-02T13:29:53.989Z</time></trkpt><trkpt lat="44.7842383" lon="9.424535"><ele>390.0</ele><time>2026-05-02T13:29:54.99Z</time></trkpt><trkpt lat="44.78419" lon="9.4246333"><ele>390.0</ele><time>2026-05-02T13:29:55.989Z</time></trkpt><trkpt lat="44.78414" lon="9.4247417"><ele>390.0</ele><time>2026-05-02T13:29:56.991Z</time></trkpt><trkpt lat="44.784095" lon="9.4248533"><ele>390.0</ele><time>2026-05-02T13:29:57.989Z</time></trkpt><trkpt lat="44.7840583" lon="9.4249717"><ele>390.0</ele><time>2026-05-02T13:29:58.989Z</time></trkpt><trkpt lat="44.7840217" lon="9.4251033"><ele>393.0</ele><time>2026-05-02T13:29:59.989Z</time></trkpt><trkpt lat="44.783985" lon="9.4252333"><ele>396.0</ele><time>2026-05-02T13:30:00.989Z</time></trkpt><trkpt lat="44.7839483" lon="9.4253617"><ele>399.0</ele><time>2026-05-02T13:30:01.991Z</time></trkpt><trkpt lat="44.7839083" lon="9.4254833"><ele>402.0</ele><time>2026-05-02T13:30:02.991Z</time></trkpt><trkpt lat="44.783865" lon="9.42561"><ele>405.0</ele><time>2026-05-02T13:30:03.99Z</time></trkpt><trkpt lat="44.7838267" lon="9.4257333"><ele>407.3333333333333</ele><time>2026-05-02T13:30:04.991Z</time></trkpt><trkpt lat="44.7838017" lon="9.425855"><ele>409.66666666666663</ele><time>2026-05-02T13:30:05.99Z</time></trkpt><trkpt lat="44.7837817" lon="9.4259783"><ele>412.0</ele><time>2026-05-02T13:30:06.991Z</time></trkpt><trkpt lat="44.7837633" lon="9.426105"><ele>414.3333333333333</ele><time>2026-05-02T13:30:07.99Z</time></trkpt><trkpt lat="44.7837517" lon="9.4262117"><ele>416.66666666666663</ele><time>2026-05-02T13:30:08.991Z</time></trkpt><trkpt lat="44.7837317" lon="9.4263183"><ele>419.0</ele><time>2026-05-02T13:30:09.991Z</time></trkpt><trkpt lat="44.7836967" lon="9.4264217"><ele>417.79999999999995</ele><time>2026-05-02T13:30:10.99Z</time></trkpt><trkpt lat="44.7836483" lon="9.426525"><ele>416.59999999999997</ele><time>2026-05-02T13:30:11.989Z</time></trkpt><trkpt lat="44.7835967" lon="9.4266217"><ele>415.4</ele><time>2026-05-02T13:30:12.989Z</time></trkpt><trkpt lat="44.783545" lon="9.4267383"><ele>414.2</ele><time>2026-05-02T13:30:13.989Z</time></trkpt><trkpt lat="44.7835083" lon="9.426865"><ele>413.0</ele><time>2026-05-02T13:30:14.989Z</time></trkpt><trkpt lat="44.783475" lon="9.4269917"><ele>412.99999999999994</ele><time>2026-05-02T13:30:15.989Z</time></trkpt><trkpt lat="44.783445" lon="9.4271083"><ele>413.0</ele><time>2026-05-02T13:30:16.988Z</time></trkpt><trkpt lat="44.7834117" lon="9.4272017"><ele>413.0</ele><time>2026-05-02T13:30:17.988Z</time></trkpt><trkpt lat="44.783365" lon="9.427285"><ele>413.0</ele><time>2026-05-02T13:30:18.988Z</time></trkpt><trkpt lat="44.783325" lon="9.4273767"><ele>412.99999999999994</ele><time>2026-05-02T13:30:19.992Z</time></trkpt><trkpt lat="44.78329" lon="9.427455"><ele>413.0</ele><time>2026-05-02T13:30:20.99Z</time></trkpt><trkpt lat="44.7832267" lon="9.4275933"><ele>415.4</ele><time>2026-05-02T13:30:22.99Z</time></trkpt><trkpt lat="44.7831133" lon="9.4277083"><ele>417.79999999999995</ele><time>2026-05-02T13:30:24.989Z</time></trkpt><trkpt lat="44.78303" lon="9.4277733"><ele>420.2</ele><time>2026-05-02T13:30:25.989Z</time></trkpt><trkpt lat="44.7829583" lon="9.4278417"><ele>422.6</ele><time>2026-05-02T13:30:26.989Z</time></trkpt><trkpt lat="44.782895" lon="9.4279067"><ele>425.0</ele><time>2026-05-02T13:30:27.989Z</time></trkpt><trkpt lat="44.782845" lon="9.42797"><ele>428.4</ele><time>2026-05-02T13:30:28.989Z</time></trkpt><trkpt lat="44.78279" lon="9.4280983"><ele>431.8</ele><time>2026-05-02T13:30:30.989Z</time></trkpt><trkpt lat="44.782785" lon="9.4282583"><ele>435.20000000000005</ele><time>2026-05-02T13:30:32.991Z</time></trkpt><trkpt lat="44.7828017" lon="9.42836"><ele>438.6</ele><time>2026-05-02T13:30:33.988Z</time></trkpt><trkpt lat="44.7828217" lon="9.4284617"><ele>442.0</ele><time>2026-05-02T13:30:34.99Z</time></trkpt><trkpt lat="44.78286" lon="9.4286117"><ele>442.0</ele><time>2026-05-02T13:30:36.989Z</time></trkpt><trkpt lat="44.78294" lon="9.4287283"><ele>442.00000000000006</ele><time>2026-05-02T13:30:38.989Z</time></trkpt><trkpt lat="44.783" lon="9.4287633"><ele>442.00000000000006</ele><time>2026-05-02T13:30:39.99Z</time></trkpt><trkpt lat="44.783065" lon="9.428775"><ele>442.0</ele><time>2026-05-02T13:30:40.991Z</time></trkpt><trkpt lat="44.7831883" lon="9.4287767"><ele>442.0</ele><time>2026-05-02T13:30:42.989Z</time></trkpt><trkpt lat="44.7832933" lon="9.4288017"><ele>444.8</ele><time>2026-05-02T13:30:44.991Z</time></trkpt><trkpt lat="44.783365" lon="9.4288383"><ele>447.6</ele><time>2026-05-02T13:30:46.99Z</time></trkpt><trkpt lat="44.7833883" lon="9.428925"><ele>450.40000000000003</ele><time>2026-05-02T13:31:00.989Z</time></trkpt><trkpt lat="44.7833133" lon="9.428985"><ele>453.20000000000005</ele><time>2026-05-02T13:31:02.99Z</time></trkpt><trkpt lat="44.783255" lon="9.4291033"><ele>456.0</ele><time>2026-05-02T13:31:04.989Z</time></trkpt><trkpt lat="44.7832367" lon="9.429275"><ele>456.0</ele><time>2026-05-02T13:31:06.99Z</time></trkpt><trkpt lat="44.7832217" lon="9.4294083"><ele>456.0</ele><time>2026-05-02T13:31:08.989Z</time></trkpt><trkpt lat="44.78316" lon="9.42948"><ele>456.0</ele><time>2026-05-02T13:31:10.992Z</time></trkpt><trkpt lat="44.7830867" lon="9.4295483"><ele>456.0</ele><time>2026-05-02T13:31:12.989Z</time></trkpt><trkpt lat="44.7830233" lon="9.429655"><ele>456.0</ele><time>2026-05-02T13:31:14.989Z</time></trkpt><trkpt lat="44.7829817" lon="9.4298017"><ele>457.5</ele><time>2026-05-02T13:31:16.989Z</time></trkpt><trkpt lat="44.78295" lon="9.4299233"><ele>459.0</ele><time>2026-05-02T13:31:18.989Z</time></trkpt><trkpt lat="44.7829267" lon="9.430035"><ele>460.5</ele><time>2026-05-02T13:31:21.99Z</time></trkpt><trkpt lat="44.7829867" lon="9.4301417"><ele>462.0</ele><time>2026-05-02T13:31:23.989Z</time></trkpt><trkpt lat="44.78303" lon="9.4302133"><ele>463.5</ele><time>2026-05-02T13:31:24.989Z</time></trkpt><trkpt lat="44.78307" lon="9.4303117"><ele>465.0</ele><time>2026-05-02T13:31:25.989Z</time></trkpt><trkpt lat="44.78311" lon="9.4304217"><ele>466.0</ele><time>2026-05-02T13:31:26.989Z</time></trkpt><trkpt lat="44.7831517" lon="9.4305367"><ele>467.0</ele><time>2026-05-02T13:31:27.989Z</time></trkpt><trkpt lat="44.7831883" lon="9.430655"><ele>468.0</ele><time>2026-05-02T13:31:28.99Z</time></trkpt><trkpt lat="44.78323" lon="9.4307867"><ele>469.0</ele><time>2026-05-02T13:31:29.99Z</time></trkpt><trkpt lat="44.7832767" lon="9.4309267"><ele>470.0</ele><time>2026-05-02T13:31:30.989Z</time></trkpt><trkpt lat="44.78333" lon="9.43106"><ele>470.0</ele><time>2026-05-02T13:31:31.991Z</time></trkpt><trkpt lat="44.78338" lon="9.4311833"><ele>470.0</ele><time>2026-05-02T13:31:32.991Z</time></trkpt><trkpt lat="44.7834283" lon="9.4313"><ele>470.0</ele><time>2026-05-02T13:31:33.991Z</time></trkpt><trkpt lat="44.78347" lon="9.431415"><ele>470.0</ele><time>2026-05-02T13:31:34.99Z</time></trkpt><trkpt lat="44.78351" lon="9.4315333"><ele>470.0</ele><time>2026-05-02T13:31:35.99Z</time></trkpt><trkpt lat="44.7835467" lon="9.43164"><ele>472.16666666666663</ele><time>2026-05-02T13:31:36.991Z</time></trkpt><trkpt lat="44.7835783" lon="9.4317233"><ele>474.3333333333333</ele><time>2026-05-02T13:31:37.99Z</time></trkpt><trkpt lat="44.7836333" lon="9.43186"><ele>476.5</ele><time>2026-05-02T13:31:39.99Z</time></trkpt><trkpt lat="44.7836567" lon="9.4320083"><ele>478.66666666666663</ele><time>2026-05-02T13:31:41.99Z</time></trkpt><trkpt lat="44.78366" lon="9.4321033"><ele>480.8333333333333</ele><time>2026-05-02T13:31:42.99Z</time></trkpt><trkpt lat="44.783675" lon="9.4322033"><ele>483.0</ele><time>2026-05-02T13:31:43.989Z</time></trkpt><trkpt lat="44.78372" lon="9.43235"><ele>484.2</ele><time>2026-05-02T13:31:45.989Z</time></trkpt><trkpt lat="44.7837817" lon="9.43246"><ele>485.4</ele><time>2026-05-02T13:31:47.989Z</time></trkpt><trkpt lat="44.7838367" lon="9.4325567"><ele>486.59999999999997</ele><time>2026-05-02T13:31:49.989Z</time></trkpt><trkpt lat="44.7838817" lon="9.432635"><ele>487.79999999999995</ele><time>2026-05-02T13:31:51.989Z</time></trkpt><trkpt lat="44.78393" lon="9.4327167"><ele>489.0</ele><time>2026-05-02T13:31:53.989Z</time></trkpt><trkpt lat="44.7840183" lon="9.4328233"><ele>489.0</ele><time>2026-05-02T13:31:55.99Z</time></trkpt><trkpt lat="44.78407" lon="9.4328883"><ele>489.0</ele><time>2026-05-02T13:31:56.99Z</time></trkpt><trkpt lat="44.7841233" lon="9.4329617"><ele>489.0</ele><time>2026-05-02T13:31:57.989Z</time></trkpt><trkpt lat="44.7841717" lon="9.433035"><ele>489.0</ele><time>2026-05-02T13:31:58.99Z</time></trkpt><trkpt lat="44.7842167" lon="9.4331083"><ele>489.0</ele><time>2026-05-02T13:31:59.99Z</time></trkpt><trkpt lat="44.7842567" lon="9.43318"><ele>489.0</ele><time>2026-05-02T13:32:00.989Z</time></trkpt><trkpt lat="44.784325" lon="9.4333017"><ele>490.3333333333333</ele><time>2026-05-02T13:32:02.991Z</time></trkpt><trkpt lat="44.7843783" lon="9.433405"><ele>491.66666666666663</ele><time>2026-05-02T13:32:04.99Z</time></trkpt><trkpt lat="44.7844367" lon="9.4334983"><ele>493.0</ele><time>2026-05-02T13:32:06.989Z</time></trkpt><trkpt lat="44.784505" lon="9.4335783"><ele>494.3333333333333</ele><time>2026-05-02T13:32:08.989Z</time></trkpt><trkpt lat="44.7845767" lon="9.4336133"><ele>495.66666666666663</ele><time>2026-05-02T13:32:10.99Z</time></trkpt><trkpt lat="44.7846617" lon="9.43362"><ele>497.0</ele><time>2026-05-02T13:32:12.989Z</time></trkpt><trkpt lat="44.7847483" lon="9.4336317"><ele>497.0</ele><time>2026-05-02T13:32:14.99Z</time></trkpt><trkpt lat="44.7848383" lon="9.4336783"><ele>497.00000000000006</ele><time>2026-05-02T13:32:16.99Z</time></trkpt><trkpt lat="44.7849333" lon="9.43373"><ele>497.00000000000006</ele><time>2026-05-02T13:32:18.991Z</time></trkpt><trkpt lat="44.7850267" lon="9.4338067"><ele>497.0</ele><time>2026-05-02T13:32:20.991Z</time></trkpt><trkpt lat="44.7851267" lon="9.4339117"><ele>497.0</ele><time>2026-05-02T13:32:22.989Z</time></trkpt><trkpt lat="44.78518" lon="9.43396"><ele>501.8</ele><time>2026-05-02T13:32:23.989Z</time></trkpt><trkpt lat="44.7852767" lon="9.4340333"><ele>506.6</ele><time>2026-05-02T13:32:25.989Z</time></trkpt><trkpt lat="44.7853517" lon="9.4341117"><ele>511.40000000000003</ele><time>2026-05-02T13:32:27.99Z</time></trkpt><trkpt lat="44.7854167" lon="9.4342"><ele>516.2</ele><time>2026-05-02T13:32:29.99Z</time></trkpt><trkpt lat="44.7854333" lon="9.4343033"><ele>521.0</ele><time>2026-05-02T13:32:31.989Z</time></trkpt><trkpt lat="44.7854517" lon="9.43444"><ele>521.0</ele><time>2026-05-02T13:32:33.99Z</time></trkpt><trkpt lat="44.7854683" lon="9.4345283"><ele>521.0</ele><time>2026-05-02T13:32:34.991Z</time></trkpt><trkpt lat="44.7854883" lon="9.4346233"><ele>521.0</ele><time>2026-05-02T13:32:35.99Z</time></trkpt><trkpt lat="44.78552" lon="9.4347983"><ele>521.0</ele><time>2026-05-02T13:32:37.991Z</time></trkpt><trkpt lat="44.78553" lon="9.4348883"><ele>521.0</ele><time>2026-05-02T13:32:38.991Z</time></trkpt><trkpt lat="44.78554" lon="9.4349833"><ele>521.0</ele><time>2026-05-02T13:32:39.99Z</time></trkpt><trkpt lat="44.7855517" lon="9.435075"><ele>521.5</ele><time>2026-05-02T13:32:40.99Z</time></trkpt><trkpt lat="44.78558" lon="9.4351567"><ele>522.0</ele><time>2026-05-02T13:32:41.989Z</time></trkpt><trkpt lat="44.7856217" lon="9.43524"><ele>522.5</ele><time>2026-05-02T13:32:42.989Z</time></trkpt><trkpt lat="44.7856783" lon="9.4353167"><ele>523.0</ele><time>2026-05-02T13:32:43.989Z</time></trkpt><trkpt lat="44.7857467" lon="9.4353883"><ele>523.5</ele><time>2026-05-02T13:32:44.99Z</time></trkpt><trkpt lat="44.78582" lon="9.43546"><ele>524.0</ele><time>2026-05-02T13:32:45.994Z</time></trkpt><trkpt lat="44.7858983" lon="9.4355367"><ele>524.5</ele><time>2026-05-02T13:32:46.989Z</time></trkpt><trkpt lat="44.7859667" lon="9.4356167"><ele>525.0</ele><time>2026-05-02T13:32:47.989Z</time></trkpt><trkpt lat="44.7860317" lon="9.4356917"><ele>525.5</ele><time>2026-05-02T13:32:48.989Z</time></trkpt><trkpt lat="44.7860967" lon="9.4357617"><ele>526.0</ele><time>2026-05-02T13:32:49.989Z</time></trkpt><trkpt lat="44.78616" lon="9.4358283"><ele>526.5</ele><time>2026-05-02T13:32:50.989Z</time></trkpt><trkpt lat="44.7862217" lon="9.435905"><ele>527.0</ele><time>2026-05-02T13:32:51.99Z</time></trkpt><trkpt lat="44.7862733" lon="9.435995"><ele>530.3333333333333</ele><time>2026-05-02T13:32:52.989Z</time></trkpt><trkpt lat="44.7863117" lon="9.4361017"><ele>533.6666666666666</ele><time>2026-05-02T13:32:53.989Z</time></trkpt><trkpt lat="44.786345" lon="9.4362133"><ele>537.0</ele><time>2026-05-02T13:32:54.989Z</time></trkpt><trkpt lat="44.7863733" lon="9.4363283"><ele>540.3333333333334</ele><time>2026-05-02T13:32:55.99Z</time></trkpt><trkpt lat="44.7863967" lon="9.4364383"><ele>543.6666666666667</ele><time>2026-05-02T13:32:56.989Z</time></trkpt><trkpt lat="44.7864117" lon="9.4365517"><ele>547.0</ele><time>2026-05-02T13:32:57.991Z</time></trkpt><trkpt lat="44.786415" lon="9.4366517"><ele>547.8333333333334</ele><time>2026-05-02T13:32:58.989Z</time></trkpt><trkpt lat="44.7864083" lon="9.4367583"><ele>548.6666666666667</ele><time>2026-05-02T13:32:59.99Z</time></trkpt><trkpt lat="44.78639" lon="9.4368717"><ele>549.5</ele><time>2026-05-02T13:33:00.989Z</time></trkpt><trkpt lat="44.7863817" lon="9.4369883"><ele>550.3333333333334</ele><time>2026-05-02T13:33:01.99Z</time></trkpt><trkpt lat="44.7863733" lon="9.4370983"><ele>551.1666666666666</ele><time>2026-05-02T13:33:02.989Z</time></trkpt><trkpt lat="44.7863583" lon="9.437205"><ele>552.0</ele><time>2026-05-02T13:33:03.989Z</time></trkpt><trkpt lat="44.7863433" lon="9.4373033"><ele>553.0</ele><time>2026-05-02T13:33:04.99Z</time></trkpt><trkpt lat="44.7863183" lon="9.4373917"><ele>554.0</ele><time>2026-05-02T13:33:05.99Z</time></trkpt><trkpt lat="44.7862933" lon="9.4374817"><ele>555.0</ele><time>2026-05-02T13:33:06.991Z</time></trkpt><trkpt lat="44.786275" lon="9.4375783"><ele>556.0</ele><time>2026-05-02T13:33:07.989Z</time></trkpt><trkpt lat="44.78626" lon="9.43768"><ele>557.0</ele><time>2026-05-02T13:33:08.99Z</time></trkpt><trkpt lat="44.786255" lon="9.4377817"><ele>558.0</ele><time>2026-05-02T13:33:09.99Z</time></trkpt><trkpt lat="44.7862567" lon="9.437875"><ele>559.0</ele><time>2026-05-02T13:33:10.991Z</time></trkpt><trkpt lat="44.78627" lon="9.4379767"><ele>559.0</ele><time>2026-05-02T13:33:11.989Z</time></trkpt><trkpt lat="44.7862867" lon="9.4380933"><ele>559.0</ele><time>2026-05-02T13:33:12.989Z</time></trkpt><trkpt lat="44.7863183" lon="9.438215"><ele>559.0</ele><time>2026-05-02T13:33:13.989Z</time></trkpt><trkpt lat="44.78636" lon="9.4383233"><ele>559.0</ele><time>2026-05-02T13:33:14.989Z</time></trkpt><trkpt lat="44.7864067" lon="9.4384167"><ele>559.0</ele><time>2026-05-02T13:33:15.989Z</time></trkpt><trkpt lat="44.7864567" lon="9.4385167"><ele>559.0</ele><time>2026-05-02T13:33:16.989Z</time></trkpt><trkpt lat="44.7865017" lon="9.4386067"><ele>559.0</ele><time>2026-05-02T13:33:17.989Z</time></trkpt><trkpt lat="44.7865333" lon="9.43869"><ele>559.0</ele><time>2026-05-02T13:33:18.989Z</time></trkpt><trkpt lat="44.7865617" lon="9.4388567"><ele>559.0</ele><time>2026-05-02T13:33:20.99Z</time></trkpt><trkpt lat="44.7865717" lon="9.43895"><ele>559.0</ele><time>2026-05-02T13:33:21.989Z</time></trkpt><trkpt lat="44.7865833" lon="9.43905"><ele>559.0</ele><time>2026-05-02T13:33:22.989Z</time></trkpt><trkpt lat="44.7865917" lon="9.43915"><ele>559.0</ele><time>2026-05-02T13:33:23.99Z</time></trkpt><trkpt lat="44.786595" lon="9.43925"><ele>559.0</ele><time>2026-05-02T13:33:24.989Z</time></trkpt><trkpt lat="44.786595" lon="9.439345"><ele>559.0</ele><time>2026-05-02T13:33:25.99Z</time></trkpt><trkpt lat="44.7865967" lon="9.4394433"><ele>559.0</ele><time>2026-05-02T13:33:26.992Z</time></trkpt><trkpt lat="44.786595" lon="9.4395517"><ele>559.0</ele><time>2026-05-02T13:33:27.989Z</time></trkpt><trkpt lat="44.786575" lon="9.4396633"><ele>559.0</ele><time>2026-05-02T13:33:28.989Z</time></trkpt><trkpt lat="44.7865467" lon="9.43977"><ele>559.0</ele><time>2026-05-02T13:33:29.99Z</time></trkpt><trkpt lat="44.7865183" lon="9.4398633"><ele>559.0</ele><time>2026-05-02T13:33:30.991Z</time></trkpt><trkpt lat="44.78649" lon="9.43996"><ele>559.0</ele><time>2026-05-02T13:33:31.993Z</time></trkpt><trkpt lat="44.7864733" lon="9.4400567"><ele>559.0</ele><time>2026-05-02T13:33:32.99Z</time></trkpt><trkpt lat="44.7864933" lon="9.44022"><ele>559.0</ele><time>2026-05-02T13:33:34.99Z</time></trkpt><trkpt lat="44.7865417" lon="9.4403117"><ele>559.0</ele><time>2026-05-02T13:33:35.99Z</time></trkpt><trkpt lat="44.7865983" lon="9.44042"><ele>559.0</ele><time>2026-05-02T13:33:36.99Z</time></trkpt><trkpt lat="44.78665" lon="9.4405383"><ele>561.0</ele><time>2026-05-02T13:33:37.99Z</time></trkpt><trkpt lat="44.7867" lon="9.44067"><ele>563.0</ele><time>2026-05-02T13:33:38.992Z</time></trkpt><trkpt lat="44.78675" lon="9.4408017"><ele>565.0</ele><time>2026-05-02T13:33:39.99Z</time></trkpt><trkpt lat="44.7868017" lon="9.4409267"><ele>567.0</ele><time>2026-05-02T13:33:40.991Z</time></trkpt><trkpt lat="44.78685" lon="9.441035"><ele>569.0</ele><time>2026-05-02T13:33:41.99Z</time></trkpt><trkpt lat="44.7869017" lon="9.4411317"><ele>569.0</ele><time>2026-05-02T13:33:42.989Z</time></trkpt><trkpt lat="44.7869483" lon="9.4412217"><ele>569.0</ele><time>2026-05-02T13:33:43.989Z</time></trkpt><trkpt lat="44.7869967" lon="9.4413083"><ele>569.0</ele><time>2026-05-02T13:33:44.989Z</time></trkpt><trkpt lat="44.78705" lon="9.4414033"><ele>569.0</ele><time>2026-05-02T13:33:45.99Z</time></trkpt><trkpt lat="44.7871067" lon="9.441495"><ele>569.0</ele><time>2026-05-02T13:33:46.989Z</time></trkpt><trkpt lat="44.7871517" lon="9.4415833"><ele>569.0</ele><time>2026-05-02T13:33:47.989Z</time></trkpt><trkpt lat="44.787185" lon="9.4416633"><ele>571.2</ele><time>2026-05-02T13:33:48.989Z</time></trkpt><trkpt lat="44.7872017" lon="9.4418067"><ele>573.4</ele><time>2026-05-02T13:33:50.99Z</time></trkpt><trkpt lat="44.7871767" lon="9.44189"><ele>575.6</ele><time>2026-05-02T13:33:51.99Z</time></trkpt><trkpt lat="44.7871617" lon="9.4420383"><ele>577.8</ele><time>2026-05-02T13:33:53.989Z</time></trkpt><trkpt lat="44.7872067" lon="9.442145"><ele>580.0</ele><time>2026-05-02T13:33:55.989Z</time></trkpt><trkpt lat="44.787315" lon="9.4421933"><ele>581.1666666666667</ele><time>2026-05-02T13:33:57.989Z</time></trkpt><trkpt lat="44.7873783" lon="9.4422217"><ele>582.3333333333334</ele><time>2026-05-02T13:33:58.989Z</time></trkpt><trkpt lat="44.7874367" lon="9.4422633"><ele>583.5</ele><time>2026-05-02T13:33:59.99Z</time></trkpt><trkpt lat="44.787495" lon="9.442315"><ele>584.6666666666666</ele><time>2026-05-02T13:34:00.989Z</time></trkpt><trkpt lat="44.7875467" lon="9.4423683"><ele>585.8333333333333</ele><time>2026-05-02T13:34:01.99Z</time></trkpt><trkpt lat="44.787665" lon="9.4424467"><ele>587.0</ele><time>2026-05-02T13:34:03.99Z</time></trkpt><trkpt lat="44.7877383" lon="9.442475"><ele>587.0</ele><time>2026-05-02T13:34:04.99Z</time></trkpt><trkpt lat="44.7878133" lon="9.4425083"><ele>587.0</ele><time>2026-05-02T13:34:05.99Z</time></trkpt><trkpt lat="44.78788" lon="9.4425483"><ele>587.0</ele><time>2026-05-02T13:34:06.99Z</time></trkpt><trkpt lat="44.7879383" lon="9.4426083"><ele>587.0</ele><time>2026-05-02T13:34:07.989Z</time></trkpt><trkpt lat="44.7879983" lon="9.4427367"><ele>587.0</ele><time>2026-05-02T13:34:09.99Z</time></trkpt><trkpt lat="44.7879983" lon="9.4428883"><ele>587.0</ele><time>2026-05-02T13:34:11.989Z</time></trkpt><trkpt lat="44.7879483" lon="9.4430383"><ele>589.8333333333333</ele><time>2026-05-02T13:34:13.989Z</time></trkpt><trkpt lat="44.7879083" lon="9.4431183"><ele>592.6666666666666</ele><time>2026-05-02T13:34:14.99Z</time></trkpt><trkpt lat="44.7878433" lon="9.4432333"><ele>595.5</ele><time>2026-05-02T13:34:16.99Z</time></trkpt><trkpt lat="44.7878117" lon="9.44334"><ele>598.3333333333334</ele><time>2026-05-02T13:34:19.99Z</time></trkpt><trkpt lat="44.78787" lon="9.4434"><ele>601.1666666666667</ele><time>2026-05-02T13:34:21.989Z</time></trkpt><trkpt lat="44.7879417" lon="9.4434433"><ele>604.0</ele><time>2026-05-02T13:34:23.989Z</time></trkpt><trkpt lat="44.7880417" lon="9.4435133"><ele>604.0</ele><time>2026-05-02T13:34:25.989Z</time></trkpt><trkpt lat="44.7881483" lon="9.443595"><ele>604.0</ele><time>2026-05-02T13:34:27.99Z</time></trkpt><trkpt lat="44.78824" lon="9.44368"><ele>604.0</ele><time>2026-05-02T13:34:29.989Z</time></trkpt><trkpt lat="44.7883167" lon="9.443755"><ele>604.0</ele><time>2026-05-02T13:34:31.99Z</time></trkpt><trkpt lat="44.7884117" lon="9.4438367"><ele>604.0</ele><time>2026-05-02T13:34:33.989Z</time></trkpt><trkpt lat="44.7884883" lon="9.4438383"><ele>604.2</ele><time>2026-05-02T13:34:35.99Z</time></trkpt><trkpt lat="44.7885633" lon="9.4438267"><ele>604.4</ele><time>2026-05-02T13:34:37.99Z</time></trkpt><trkpt lat="44.7886317" lon="9.44391"><ele>604.6</ele><time>2026-05-02T13:34:39.989Z</time></trkpt><trkpt lat="44.7887183" lon="9.44402"><ele>604.8</ele><time>2026-05-02T13:34:41.989Z</time></trkpt><trkpt lat="44.78881" lon="9.4441"><ele>605.0</ele><time>2026-05-02T13:34:43.99Z</time></trkpt><trkpt lat="44.7888967" lon="9.44413"><ele>605.0</ele><time>2026-05-02T13:34:45.99Z</time></trkpt><trkpt lat="44.78901" lon="9.4441333"><ele>605.0</ele><time>2026-05-02T13:34:47.99Z</time></trkpt><trkpt lat="44.7890733" lon="9.4441283"><ele>605.0</ele><time>2026-05-02T13:34:48.989Z</time></trkpt><trkpt lat="44.7891417" lon="9.4441233"><ele>605.0</ele><time>2026-05-02T13:34:49.99Z</time></trkpt><trkpt lat="44.7892217" lon="9.4441233"><ele>605.0</ele><time>2026-05-02T13:34:50.991Z</time></trkpt><trkpt lat="44.7893033" lon="9.4441217"><ele>605.0</ele><time>2026-05-02T13:34:51.989Z</time></trkpt><trkpt lat="44.7893883" lon="9.44412"><ele>605.0</ele><time>2026-05-02T13:34:52.99Z</time></trkpt><trkpt lat="44.7894717" lon="9.4441217"><ele>605.0</ele><time>2026-05-02T13:34:53.991Z</time></trkpt><trkpt lat="44.78955" lon="9.4441167"><ele>605.0</ele><time>2026-05-02T13:34:54.99Z</time></trkpt><trkpt lat="44.7896317" lon="9.4441117"><ele>605.0</ele><time>2026-05-02T13:34:55.989Z</time></trkpt><trkpt lat="44.78971" lon="9.4441083"><ele>605.0</ele><time>2026-05-02T13:34:56.99Z</time></trkpt><trkpt lat="44.7897883" lon="9.4441067"><ele>605.0</ele><time>2026-05-02T13:34:57.99Z</time></trkpt><trkpt lat="44.7898667" lon="9.44411"><ele>605.0</ele><time>2026-05-02T13:34:58.99Z</time></trkpt><trkpt lat="44.7899417" lon="9.4441067"><ele>605.0</ele><time>2026-05-02T13:34:59.99Z</time></trkpt><trkpt lat="44.7900167" lon="9.4440983"><ele>605.0</ele><time>2026-05-02T13:35:00.99Z</time></trkpt><trkpt lat="44.7900883" lon="9.4440833"><ele>605.0</ele><time>2026-05-02T13:35:01.991Z</time></trkpt><trkpt lat="44.790155" lon="9.4440533"><ele>605.0</ele><time>2026-05-02T13:35:02.99Z</time></trkpt><trkpt lat="44.7902167" lon="9.4440067"><ele>605.0</ele><time>2026-05-02T13:35:03.991Z</time></trkpt><trkpt lat="44.790275" lon="9.4439467"><ele>605.0</ele><time>2026-05-02T13:35:04.99Z</time></trkpt><trkpt lat="44.7903283" lon="9.4438817"><ele>606.6</ele><time>2026-05-02T13:35:05.991Z</time></trkpt><trkpt lat="44.79038" lon="9.44382"><ele>608.2</ele><time>2026-05-02T13:35:06.991Z</time></trkpt><trkpt lat="44.7904533" lon="9.4437317"><ele>609.8</ele><time>2026-05-02T13:35:08.992Z</time></trkpt><trkpt lat="44.7905633" lon="9.4436933"><ele>611.4</ele><time>2026-05-02T13:35:16.989Z</time></trkpt><trkpt lat="44.7906167" lon="9.4438133"><ele>613.0</ele><time>2026-05-02T13:35:18.99Z</time></trkpt><trkpt lat="44.7906683" lon="9.4439467"><ele>613.0</ele><time>2026-05-02T13:35:20.99Z</time></trkpt><trkpt lat="44.79074" lon="9.4440417"><ele>613.0</ele><time>2026-05-02T13:35:22.989Z</time></trkpt><trkpt lat="44.79082" lon="9.44409"><ele>613.0</ele><time>2026-05-02T13:35:24.99Z</time></trkpt><trkpt lat="44.7908967" lon="9.4441183"><ele>613.0</ele><time>2026-05-02T13:35:26.991Z</time></trkpt><trkpt lat="44.7909683" lon="9.444145"><ele>613.0</ele><time>2026-05-02T13:35:28.991Z</time></trkpt><trkpt lat="44.7910433" lon="9.4442117"><ele>613.0</ele><time>2026-05-02T13:35:30.99Z</time></trkpt><trkpt lat="44.7911133" lon="9.4443067"><ele>614.5</ele><time>2026-05-02T13:35:32.99Z</time></trkpt><trkpt lat="44.7911483" lon="9.4444017"><ele>616.0</ele><time>2026-05-02T13:35:34.99Z</time></trkpt><trkpt lat="44.79118" lon="9.4444833"><ele>617.5</ele><time>2026-05-02T13:35:37.989Z</time></trkpt><trkpt lat="44.7912583" lon="9.4445267"><ele>619.0</ele><time>2026-05-02T13:35:40.99Z</time></trkpt><trkpt lat="44.79132" lon="9.444615"><ele>620.5</ele><time>2026-05-02T13:35:42.99Z</time></trkpt><trkpt lat="44.791395" lon="9.4447283"><ele>622.0</ele><time>2026-05-02T13:35:44.991Z</time></trkpt><trkpt lat="44.791435" lon="9.4448283"><ele>626.2</ele><time>2026-05-02T13:35:46.99Z</time></trkpt><trkpt lat="44.7914817" lon="9.44496"><ele>630.4000000000001</ele><time>2026-05-02T13:35:48.99Z</time></trkpt><trkpt lat="44.7915183" lon="9.44509"><ele>634.5999999999999</ele><time>2026-05-02T13:35:50.991Z</time></trkpt><trkpt lat="44.791585" lon="9.4452133"><ele>638.8</ele><time>2026-05-02T13:35:52.992Z</time></trkpt><trkpt lat="44.7916617" lon="9.44535"><ele>643.0</ele><time>2026-05-02T13:35:54.991Z</time></trkpt><trkpt lat="44.7917417" lon="9.4455033"><ele>643.0</ele><time>2026-05-02T13:35:56.991Z</time></trkpt><trkpt lat="44.7917933" lon="9.44558"><ele>643.0</ele><time>2026-05-02T13:35:57.99Z</time></trkpt><trkpt lat="44.7918533" lon="9.4456567"><ele>643.0</ele><time>2026-05-02T13:35:58.99Z</time></trkpt><trkpt lat="44.791915" lon="9.4457267"><ele>643.0</ele><time>2026-05-02T13:35:59.99Z</time></trkpt><trkpt lat="44.7919717" lon="9.4457917"><ele>643.0</ele><time>2026-05-02T13:36:00.99Z</time></trkpt><trkpt lat="44.7920283" lon="9.44584"><ele>643.0</ele><time>2026-05-02T13:36:01.99Z</time></trkpt><trkpt lat="44.7921201" lon="9.4459241"><ele>645.4</ele><time>2026-05-02T13:36:03.989Z</time></trkpt><trkpt lat="44.7921987" lon="9.4459581"><ele>647.8</ele><time>2026-05-02T13:36:05.99Z</time></trkpt><trkpt lat="44.7923163" lon="9.4459005"><ele>650.2</ele><time>2026-05-02T13:36:07.99Z</time></trkpt><trkpt lat="44.7923911" lon="9.4458688"><ele>652.6</ele><time>2026-05-02T13:36:08.988Z</time></trkpt><trkpt lat="44.7925109" lon="9.4459038"><ele>655.0</ele><time>2026-05-02T13:36:10.989Z</time></trkpt><trkpt lat="44.792563" lon="9.4459641"><ele>655.0</ele><time>2026-05-02T13:36:11.989Z</time></trkpt><trkpt lat="44.7926098" lon="9.4460359"><ele>655.0</ele><time>2026-05-02T13:36:12.989Z</time></trkpt><trkpt lat="44.7926462" lon="9.4461135"><ele>655.0</ele><time>2026-05-02T13:36:13.988Z</time></trkpt><trkpt lat="44.7926777" lon="9.4462053"><ele>655.0</ele><time>2026-05-02T13:36:14.99Z</time></trkpt><trkpt lat="44.7927033" lon="9.4463005"><ele>655.0</ele><time>2026-05-02T13:36:15.99Z</time></trkpt><trkpt lat="44.7927176" lon="9.4463869"><ele>655.0</ele><time>2026-05-02T13:36:16.989Z</time></trkpt><trkpt lat="44.7927198" lon="9.4465411"><ele>655.4</ele><time>2026-05-02T13:36:18.989Z</time></trkpt><trkpt lat="44.792723" lon="9.4466313"><ele>655.8</ele><time>2026-05-02T13:36:19.989Z</time></trkpt><trkpt lat="44.7927489" lon="9.4467865"><ele>656.2</ele><time>2026-05-02T13:36:21.989Z</time></trkpt><trkpt lat="44.7927933" lon="9.446914"><ele>656.6</ele><time>2026-05-02T13:36:23.989Z</time></trkpt><trkpt lat="44.792826" lon="9.4470272"><ele>657.0</ele><time>2026-05-02T13:36:25.989Z</time></trkpt><trkpt lat="44.7928416" lon="9.4471488"><ele>657.0</ele><time>2026-05-02T13:36:27.989Z</time></trkpt><trkpt lat="44.7928167" lon="9.4472762"><ele>657.0</ele><time>2026-05-02T13:36:29.989Z</time></trkpt><trkpt lat="44.7927243" lon="9.4473965"><ele>657.0</ele><time>2026-05-02T13:36:31.99Z</time></trkpt><trkpt lat="44.7926691" lon="9.4474617"><ele>657.0</ele><time>2026-05-02T13:36:32.989Z</time></trkpt><trkpt lat="44.7926273" lon="9.4475308"><ele>657.0</ele><time>2026-05-02T13:36:33.99Z</time></trkpt><trkpt lat="44.7925957" lon="9.4476137"><ele>657.0</ele><time>2026-05-02T13:36:34.989Z</time></trkpt><trkpt lat="44.7925678" lon="9.4477034"><ele>660.2</ele><time>2026-05-02T13:36:35.99Z</time></trkpt><trkpt lat="44.7925416" lon="9.4477889"><ele>663.4000000000001</ele><time>2026-05-02T13:36:36.989Z</time></trkpt><trkpt lat="44.792471" lon="9.4479064"><ele>666.5999999999999</ele><time>2026-05-02T13:36:38.989Z</time></trkpt><trkpt lat="44.7924096" lon="9.4480127"><ele>669.8</ele><time>2026-05-02T13:36:40.989Z</time></trkpt><trkpt lat="44.7923772" lon="9.448151"><ele>673.0</ele><time>2026-05-02T13:36:42.99Z</time></trkpt><trkpt lat="44.7923557" lon="9.4483097"><ele>675.8</ele><time>2026-05-02T13:36:44.99Z</time></trkpt><trkpt lat="44.792322" lon="9.4484489"><ele>678.5999999999999</ele><time>2026-05-02T13:36:46.989Z</time></trkpt><trkpt lat="44.7922753" lon="9.4485869"><ele>681.4000000000001</ele><time>2026-05-02T13:36:48.989Z</time></trkpt><trkpt lat="44.7922455" lon="9.4487113"><ele>684.2</ele><time>2026-05-02T13:36:50.99Z</time></trkpt><trkpt lat="44.7921989" lon="9.4488624"><ele>687.0</ele><time>2026-05-02T13:36:52.992Z</time></trkpt><trkpt lat="44.7921476" lon="9.4489748"><ele>686.8333333333334</ele><time>2026-05-02T13:36:54.989Z</time></trkpt><trkpt lat="44.7921164" lon="9.4490689"><ele>686.6666666666666</ele><time>2026-05-02T13:36:56.989Z</time></trkpt><trkpt lat="44.7920797" lon="9.4492088"><ele>686.5</ele><time>2026-05-02T13:36:59.989Z</time></trkpt><trkpt lat="44.7920652" lon="9.4493264"><ele>686.3333333333333</ele><time>2026-05-02T13:37:01.991Z</time></trkpt><trkpt lat="44.7920635" lon="9.4494275"><ele>686.1666666666666</ele><time>2026-05-02T13:37:03.99Z</time></trkpt><trkpt lat="44.7920255" lon="9.4495531"><ele>686.0</ele><time>2026-05-02T13:37:06.989Z</time></trkpt><trkpt lat="44.7919861" lon="9.4496427"><ele>686.0</ele><time>2026-05-02T13:37:09.99Z</time></trkpt><trkpt lat="44.7919233" lon="9.44972"><ele>686.0</ele><time>2026-05-02T13:37:16.988Z</time></trkpt><trkpt lat="44.7918633" lon="9.4497967"><ele>686.0</ele><time>2026-05-02T13:37:20.991Z</time></trkpt><trkpt lat="44.7917567" lon="9.4498217"><ele>686.0</ele><time>2026-05-02T13:40:38.99Z</time></trkpt><trkpt lat="44.79182" lon="9.449845"><ele>686.0</ele><time>2026-05-02T13:40:48.989Z</time></trkpt><trkpt lat="44.7918533" lon="9.449985"><ele>686.0</ele><time>2026-05-02T13:40:50.99Z</time></trkpt><trkpt lat="44.7918933" lon="9.450145"><ele>686.0</ele><time>2026-05-02T13:40:52.991Z</time></trkpt><trkpt lat="44.7919383" lon="9.4502683"><ele>686.0</ele><time>2026-05-02T13:40:54.991Z</time></trkpt><trkpt lat="44.7919667" lon="9.450395"><ele>686.0</ele><time>2026-05-02T13:40:56.992Z</time></trkpt><trkpt lat="44.792" lon="9.450555"><ele>686.0</ele><time>2026-05-02T13:40:58.992Z</time></trkpt><trkpt lat="44.792015" lon="9.4506467"><ele>686.0</ele><time>2026-05-02T13:40:59.99Z</time></trkpt><trkpt lat="44.79203" lon="9.4507483"><ele>685.8</ele><time>2026-05-02T13:41:00.991Z</time></trkpt><trkpt lat="44.7920467" lon="9.4508367"><ele>685.5999999999999</ele><time>2026-05-02T13:41:01.99Z</time></trkpt><trkpt lat="44.792075" lon="9.4510067"><ele>685.4</ele><time>2026-05-02T13:41:03.989Z</time></trkpt><trkpt lat="44.7920667" lon="9.451155"><ele>685.2</ele><time>2026-05-02T13:41:05.991Z</time></trkpt><trkpt lat="44.79204" lon="9.4513067"><ele>685.0</ele><time>2026-05-02T13:41:07.99Z</time></trkpt><trkpt lat="44.7920233" lon="9.4514433"><ele>685.0</ele><time>2026-05-02T13:41:09.989Z</time></trkpt><trkpt lat="44.79204" lon="9.4515333"><ele>685.0</ele><time>2026-05-02T13:41:12.99Z</time></trkpt><trkpt lat="44.7920417" lon="9.45165"><ele>685.0</ele><time>2026-05-02T13:41:15.99Z</time></trkpt><trkpt lat="44.7920367" lon="9.4517717"><ele>685.0</ele><time>2026-05-02T13:41:17.99Z</time></trkpt><trkpt lat="44.792015" lon="9.4518667"><ele>685.0</ele><time>2026-05-02T13:41:19.991Z</time></trkpt><trkpt lat="44.791965" lon="9.45193"><ele>685.0</ele><time>2026-05-02T13:41:21.991Z</time></trkpt><trkpt lat="44.7918617" lon="9.4520317"><ele>688.1666666666667</ele><time>2026-05-02T13:41:31.989Z</time></trkpt><trkpt lat="44.791815" lon="9.4521017"><ele>691.3333333333334</ele><time>2026-05-02T13:41:33.989Z</time></trkpt><trkpt lat="44.79178" lon="9.45221"><ele>694.5</ele><time>2026-05-02T13:41:35.989Z</time></trkpt><trkpt lat="44.791775" lon="9.452345"><ele>697.6666666666666</ele><time>2026-05-02T13:41:37.989Z</time></trkpt><trkpt lat="44.7917817" lon="9.4524383"><ele>700.8333333333333</ele><time>2026-05-02T13:41:38.99Z</time></trkpt><trkpt lat="44.7917783" lon="9.452605"><ele>704.0</ele><time>2026-05-02T13:41:40.99Z</time></trkpt><trkpt lat="44.791745" lon="9.452775"><ele>704.0</ele><time>2026-05-02T13:41:42.989Z</time></trkpt><trkpt lat="44.7917317" lon="9.45294"><ele>704.0</ele><time>2026-05-02T13:41:44.99Z</time></trkpt><trkpt lat="44.7917283" lon="9.4530633"><ele>704.0</ele><time>2026-05-02T13:41:46.989Z</time></trkpt><trkpt lat="44.791705" lon="9.45317"><ele>704.0</ele><time>2026-05-02T13:41:48.992Z</time></trkpt><trkpt lat="44.7916783" lon="9.453265"><ele>704.0</ele><time>2026-05-02T13:41:51.989Z</time></trkpt><trkpt lat="44.79161" lon="9.4533417"><ele>704.0</ele><time>2026-05-02T13:42:02.991Z</time></trkpt><trkpt lat="44.7915717" lon="9.4534417"><ele>704.3333333333333</ele><time>2026-05-02T13:42:05.991Z</time></trkpt><trkpt lat="44.7915683" lon="9.4535433"><ele>704.6666666666666</ele><time>2026-05-02T13:42:07.991Z</time></trkpt><trkpt lat="44.79158" lon="9.4536567"><ele>705.0</ele><time>2026-05-02T13:42:09.991Z</time></trkpt><trkpt lat="44.791595" lon="9.453815"><ele>705.3333333333334</ele><time>2026-05-02T13:42:11.992Z</time></trkpt><trkpt lat="44.7916217" lon="9.4539683"><ele>705.6666666666667</ele><time>2026-05-02T13:42:13.991Z</time></trkpt><trkpt lat="44.7916333" lon="9.4540567"><ele>706.0</ele><time>2026-05-02T13:42:14.991Z</time></trkpt><trkpt lat="44.791655" lon="9.4541933"><ele>706.0</ele><time>2026-05-02T13:42:16.99Z</time></trkpt><trkpt lat="44.791675" lon="9.4543367"><ele>706.0</ele><time>2026-05-02T13:42:18.991Z</time></trkpt><trkpt lat="44.7917017" lon="9.45443"><ele>706.0</ele><time>2026-05-02T13:42:20.992Z</time></trkpt><trkpt lat="44.7917617" lon="9.4545217"><ele>706.0</ele><time>2026-05-02T13:42:23.99Z</time></trkpt><trkpt lat="44.791815" lon="9.4546283"><ele>706.0</ele><time>2026-05-02T13:42:25.99Z</time></trkpt><trkpt lat="44.7918433" lon="9.4547583"><ele>705.5714285714286</ele><time>2026-05-02T13:42:27.99Z</time></trkpt><trkpt lat="44.7918383" lon="9.4548817"><ele>705.1428571428572</ele><time>2026-05-02T13:42:29.991Z</time></trkpt><trkpt lat="44.7918233" lon="9.4549717"><ele>704.7142857142858</ele><time>2026-05-02T13:42:31.99Z</time></trkpt><trkpt lat="44.7917783" lon="9.4550417"><ele>704.2857142857142</ele><time>2026-05-02T13:42:34.99Z</time></trkpt><trkpt lat="44.7917917" lon="9.4551383"><ele>703.8571428571429</ele><time>2026-05-02T13:42:38.991Z</time></trkpt><trkpt lat="44.7918483" lon="9.4551933"><ele>703.4285714285714</ele><time>2026-05-02T13:42:42.991Z</time></trkpt><trkpt lat="44.7919133" lon="9.4552033"><ele>703.0</ele><time>2026-05-02T13:42:44.99Z</time></trkpt><trkpt lat="44.791985" lon="9.4552283"><ele>700.5</ele><time>2026-05-02T13:42:46.99Z</time></trkpt><trkpt lat="44.7920517" lon="9.45531"><ele>698.0</ele><time>2026-05-02T13:42:49.989Z</time></trkpt><trkpt lat="44.79209" lon="9.4554"><ele>695.5</ele><time>2026-05-02T13:42:52.989Z</time></trkpt><trkpt lat="44.7921567" lon="9.4554933"><ele>693.0</ele><time>2026-05-02T13:42:55.99Z</time></trkpt><trkpt lat="44.7922017" lon="9.455595"><ele>690.5</ele><time>2026-05-02T13:42:57.991Z</time></trkpt><trkpt lat="44.7922283" lon="9.4557017"><ele>688.0</ele><time>2026-05-02T13:42:59.99Z</time></trkpt><trkpt lat="44.7922567" lon="9.4557833"><ele>687.0</ele><time>2026-05-02T13:43:01.989Z</time></trkpt><trkpt lat="44.7922617" lon="9.4558867"><ele>686.0</ele><time>2026-05-02T13:43:04.991Z</time></trkpt><trkpt lat="44.7922367" lon="9.455995"><ele>685.0</ele><time>2026-05-02T13:43:07.989Z</time></trkpt><trkpt lat="44.79218" lon="9.4560883"><ele>684.0</ele><time>2026-05-02T13:43:10.99Z</time></trkpt><trkpt lat="44.7921133" lon="9.456085"><ele>683.0</ele><time>2026-05-02T13:43:12.992Z</time></trkpt><trkpt lat="44.7920367" lon="9.456055"><ele>682.0</ele><time>2026-05-02T13:43:14.99Z</time></trkpt><trkpt lat="44.7919033" lon="9.4560283"><ele>680.8333333333334</ele><time>2026-05-02T13:43:30.991Z</time></trkpt><trkpt lat="44.7918283" lon="9.45602"><ele>679.6666666666667</ele><time>2026-05-02T13:43:32.989Z</time></trkpt><trkpt lat="44.7917533" lon="9.4560483"><ele>678.5</ele><time>2026-05-02T13:43:34.989Z</time></trkpt><trkpt lat="44.7916583" lon="9.4561033"><ele>677.3333333333334</ele><time>2026-05-02T13:43:36.989Z</time></trkpt><trkpt lat="44.7915917" lon="9.4561533"><ele>676.1666666666666</ele><time>2026-05-02T13:43:38.99Z</time></trkpt><trkpt lat="44.7915767" lon="9.4562583"><ele>675.0</ele><time>2026-05-02T13:43:41.99Z</time></trkpt><trkpt lat="44.7915783" lon="9.4563517"><ele>675.0</ele><time>2026-05-02T13:43:44.992Z</time></trkpt><trkpt lat="44.7915767" lon="9.4564483"><ele>675.0</ele><time>2026-05-02T13:43:49.989Z</time></trkpt><trkpt lat="44.7915667" lon="9.4566833"><ele>675.0</ele><time>2026-05-02T13:44:12.989Z</time></trkpt><trkpt lat="44.7915583" lon="9.4567767"><ele>675.0</ele><time>2026-05-02T13:44:14.989Z</time></trkpt><trkpt lat="44.7915167" lon="9.4568433"><ele>675.0</ele><time>2026-05-02T13:44:16.988Z</time></trkpt><trkpt lat="44.79144" lon="9.4568983"><ele>675.0</ele><time>2026-05-02T13:44:19.988Z</time></trkpt><trkpt lat="44.79136" lon="9.4569417"><ele>675.0</ele><time>2026-05-02T13:44:22.989Z</time></trkpt><trkpt lat="44.79131" lon="9.457005"><ele>675.0</ele><time>2026-05-02T13:44:25.988Z</time></trkpt><trkpt lat="44.7913233" lon="9.4571"><ele>675.0</ele><time>2026-05-02T13:44:33.988Z</time></trkpt><trkpt lat="44.7913583" lon="9.457175"><ele>675.0</ele><time>2026-05-02T13:44:35.989Z</time></trkpt><trkpt lat="44.7913883" lon="9.4572733"><ele>675.0</ele><time>2026-05-02T13:44:37.988Z</time></trkpt><trkpt lat="44.7914333" lon="9.4573717"><ele>675.0</ele><time>2026-05-02T13:44:39.989Z</time></trkpt><trkpt lat="44.7914833" lon="9.4574733"><ele>672.3333333333334</ele><time>2026-05-02T13:44:41.988Z</time></trkpt><trkpt lat="44.7915433" lon="9.4575833"><ele>669.6666666666666</ele><time>2026-05-02T13:44:43.989Z</time></trkpt><trkpt lat="44.7915583" lon="9.457695"><ele>667.0</ele><time>2026-05-02T13:44:45.989Z</time></trkpt><trkpt lat="44.791545" lon="9.4578133"><ele>664.3333333333333</ele><time>2026-05-02T13:44:48.989Z</time></trkpt><trkpt lat="44.79153" lon="9.457935"><ele>661.6666666666666</ele><time>2026-05-02T13:44:51.989Z</time></trkpt><trkpt lat="44.7915233" lon="9.458055"><ele>659.0</ele><time>2026-05-02T13:44:54.988Z</time></trkpt><trkpt lat="44.79148" lon="9.458145"><ele>655.8333333333333</ele><time>2026-05-02T13:44:59.989Z</time></trkpt><trkpt lat="44.7914783" lon="9.458245"><ele>652.6666666666666</ele><time>2026-05-02T13:45:03.988Z</time></trkpt><trkpt lat="44.7914883" lon="9.4583667"><ele>649.5</ele><time>2026-05-02T13:45:13.988Z</time></trkpt><trkpt lat="44.7915033" lon="9.4584617"><ele>646.3333333333334</ele><time>2026-05-02T13:45:15.989Z</time></trkpt><trkpt lat="44.7915133" lon="9.4585767"><ele>643.1666666666667</ele><time>2026-05-02T13:45:18.99Z</time></trkpt><trkpt lat="44.7914867" lon="9.458665"><ele>640.0</ele><time>2026-05-02T13:45:22.99Z</time></trkpt><trkpt lat="44.7914533" lon="9.4588117"><ele>639.1428571428571</ele><time>2026-05-02T13:45:44.992Z</time></trkpt><trkpt lat="44.79148" lon="9.4589167"><ele>638.2857142857143</ele><time>2026-05-02T13:46:11.989Z</time></trkpt><trkpt lat="44.7914983" lon="9.459005"><ele>637.4285714285714</ele><time>2026-05-02T13:46:13.989Z</time></trkpt><trkpt lat="44.7915333" lon="9.4591217"><ele>636.5714285714286</ele><time>2026-05-02T13:46:15.989Z</time></trkpt><trkpt lat="44.7915483" lon="9.4592167"><ele>635.7142857142857</ele><time>2026-05-02T13:46:17.989Z</time></trkpt><trkpt lat="44.7915367" lon="9.459325"><ele>634.8571428571429</ele><time>2026-05-02T13:46:20.99Z</time></trkpt><trkpt lat="44.7915617" lon="9.4594083"><ele>634.0</ele><time>2026-05-02T13:46:24.989Z</time></trkpt><trkpt lat="44.7916083" lon="9.4593267"><ele>634.0</ele><time>2026-05-02T13:46:31.99Z</time></trkpt><trkpt lat="44.7916583" lon="9.459245"><ele>634.0</ele><time>2026-05-02T13:46:35.99Z</time></trkpt><trkpt lat="44.7917233" lon="9.4592433"><ele>634.0</ele><time>2026-05-02T13:46:38.992Z</time></trkpt><trkpt lat="44.7918117" lon="9.4594383"><ele>634.0</ele><time>2026-05-02T13:47:15.99Z</time></trkpt><trkpt lat="44.7918533" lon="9.4595483"><ele>634.0</ele><time>2026-05-02T13:47:17.989Z</time></trkpt><trkpt lat="44.7918883" lon="9.4596767"><ele>635.2</ele><time>2026-05-02T13:47:19.99Z</time></trkpt><trkpt lat="44.7919667" lon="9.45978"><ele>636.4</ele><time>2026-05-02T13:47:21.989Z</time></trkpt><trkpt lat="44.7920633" lon="9.4598383"><ele>637.6</ele><time>2026-05-02T13:47:23.989Z</time></trkpt><trkpt lat="44.7921767" lon="9.45992"><ele>638.8</ele><time>2026-05-02T13:47:25.989Z</time></trkpt><trkpt lat="44.7922617" lon="9.4600017"><ele>640.0</ele><time>2026-05-02T13:47:27.989Z</time></trkpt><trkpt lat="44.7923083" lon="9.46014"><ele>640.0</ele><time>2026-05-02T13:47:29.989Z</time></trkpt><trkpt lat="44.79235" lon="9.4602833"><ele>640.0</ele><time>2026-05-02T13:47:31.99Z</time></trkpt><trkpt lat="44.792425" lon="9.4603567"><ele>640.0</ele><time>2026-05-02T13:47:33.989Z</time></trkpt><trkpt lat="44.7925033" lon="9.4604233"><ele>640.0</ele><time>2026-05-02T13:47:35.99Z</time></trkpt><trkpt lat="44.7925817" lon="9.4604617"><ele>640.0</ele><time>2026-05-02T13:47:37.989Z</time></trkpt><trkpt lat="44.792645" lon="9.4604583"><ele>640.0</ele><time>2026-05-02T13:47:39.99Z</time></trkpt><trkpt lat="44.7927133" lon="9.4604317"><ele>638.6</ele><time>2026-05-02T13:47:42.989Z</time></trkpt><trkpt lat="44.7927867" lon="9.4604017"><ele>637.2</ele><time>2026-05-02T13:47:44.989Z</time></trkpt><trkpt lat="44.7928867" lon="9.460385"><ele>635.8</ele><time>2026-05-02T13:47:46.991Z</time></trkpt><trkpt lat="44.7929783" lon="9.4604083"><ele>634.4</ele><time>2026-05-02T13:47:48.989Z</time></trkpt><trkpt lat="44.7930767" lon="9.460495"><ele>633.0</ele><time>2026-05-02T13:47:50.99Z</time></trkpt><trkpt lat="44.7931417" lon="9.4606083"><ele>635.5</ele><time>2026-05-02T13:47:52.989Z</time></trkpt><trkpt lat="44.7932117" lon="9.4607017"><ele>638.0</ele><time>2026-05-02T13:47:54.989Z</time></trkpt><trkpt lat="44.7932467" lon="9.4608067"><ele>640.5</ele><time>2026-05-02T13:47:56.99Z</time></trkpt><trkpt lat="44.7932633" lon="9.4609267"><ele>643.0</ele><time>2026-05-02T13:47:58.99Z</time></trkpt><trkpt lat="44.793285" lon="9.4610183"><ele>645.5</ele><time>2026-05-02T13:48:00.989Z</time></trkpt><trkpt lat="44.7933667" lon="9.4610267"><ele>648.0</ele><time>2026-05-02T13:48:30.989Z</time></trkpt><trkpt lat="44.7934683" lon="9.4609983"><ele>646.6666666666666</ele><time>2026-05-02T13:48:33.99Z</time></trkpt><trkpt lat="44.79356" lon="9.460955"><ele>645.3333333333334</ele><time>2026-05-02T13:48:35.989Z</time></trkpt><trkpt lat="44.793665" lon="9.460935"><ele>644.0</ele><time>2026-05-02T13:48:37.989Z</time></trkpt><trkpt lat="44.7937333" lon="9.46093"><ele>642.6666666666667</ele><time>2026-05-02T13:48:38.989Z</time></trkpt><trkpt lat="44.793805" lon="9.4609233"><ele>641.3333333333334</ele><time>2026-05-02T13:48:39.99Z</time></trkpt><trkpt lat="44.793875" lon="9.4609233"><ele>640.0</ele><time>2026-05-02T13:48:40.992Z</time></trkpt><trkpt lat="44.7939417" lon="9.4609367"><ele>640.0</ele><time>2026-05-02T13:48:41.992Z</time></trkpt><trkpt lat="44.79401" lon="9.4609617"><ele>640.0</ele><time>2026-05-02T13:48:42.989Z</time></trkpt><trkpt lat="44.7940883" lon="9.4609883"><ele>640.0</ele><time>2026-05-02T13:48:43.99Z</time></trkpt><trkpt lat="44.794165" lon="9.4610133"><ele>640.0</ele><time>2026-05-02T13:48:44.99Z</time></trkpt><trkpt lat="44.79424" lon="9.4610367"><ele>640.0</ele><time>2026-05-02T13:48:45.989Z</time></trkpt><trkpt lat="44.79431" lon="9.4610583"><ele>640.0</ele><time>2026-05-02T13:48:46.989Z</time></trkpt><trkpt lat="44.7943833" lon="9.4610783"><ele>638.1428571428571</ele><time>2026-05-02T13:48:47.991Z</time></trkpt><trkpt lat="44.79446" lon="9.4610933"><ele>636.2857142857143</ele><time>2026-05-02T13:48:48.99Z</time></trkpt><trkpt lat="44.794535" lon="9.4611167"><ele>634.4285714285714</ele><time>2026-05-02T13:48:49.991Z</time></trkpt><trkpt lat="44.79461" lon="9.4611433"><ele>632.5714285714286</ele><time>2026-05-02T13:48:50.991Z</time></trkpt><trkpt lat="44.7946717" lon="9.4611817"><ele>630.7142857142857</ele><time>2026-05-02T13:48:51.99Z</time></trkpt><trkpt lat="44.79474" lon="9.4612067"><ele>628.8571428571429</ele><time>2026-05-02T13:48:52.99Z</time></trkpt><trkpt lat="44.794815" lon="9.4612283"><ele>627.0</ele><time>2026-05-02T13:48:53.991Z</time></trkpt><trkpt lat="44.7948883" lon="9.4612483"><ele>627.0</ele><time>2026-05-02T13:48:54.991Z</time></trkpt><trkpt lat="44.79496" lon="9.4612783"><ele>627.0</ele><time>2026-05-02T13:48:55.989Z</time></trkpt><trkpt lat="44.795035" lon="9.4613133"><ele>627.0</ele><time>2026-05-02T13:48:56.989Z</time></trkpt><trkpt lat="44.7951117" lon="9.4613533"><ele>627.0</ele><time>2026-05-02T13:48:57.989Z</time></trkpt><trkpt lat="44.7951917" lon="9.4614033"><ele>627.0</ele><time>2026-05-02T13:48:58.989Z</time></trkpt><trkpt lat="44.79526" lon="9.4614567"><ele>627.0</ele><time>2026-05-02T13:48:59.99Z</time></trkpt><trkpt lat="44.795335" lon="9.46151"><ele>624.1666666666666</ele><time>2026-05-02T13:49:00.989Z</time></trkpt><trkpt lat="44.7953933" lon="9.461565"><ele>621.3333333333334</ele><time>2026-05-02T13:49:01.989Z</time></trkpt><trkpt lat="44.7954467" lon="9.4616183"><ele>618.5</ele><time>2026-05-02T13:49:02.989Z</time></trkpt><trkpt lat="44.7955" lon="9.4616717"><ele>615.6666666666667</ele><time>2026-05-02T13:49:03.99Z</time></trkpt><trkpt lat="44.795555" lon="9.46173"><ele>612.8333333333334</ele><time>2026-05-02T13:49:04.989Z</time></trkpt><trkpt lat="44.795605" lon="9.4617933"><ele>610.0</ele><time>2026-05-02T13:49:05.989Z</time></trkpt><trkpt lat="44.79569" lon="9.4619017"><ele>610.0</ele><time>2026-05-02T13:49:07.99Z</time></trkpt><trkpt lat="44.7957467" lon="9.462"><ele>610.0</ele><time>2026-05-02T13:49:09.99Z</time></trkpt><trkpt lat="44.7957767" lon="9.4621333"><ele>610.0</ele><time>2026-05-02T13:49:11.99Z</time></trkpt><trkpt lat="44.7958167" lon="9.4622933"><ele>610.0</ele><time>2026-05-02T13:49:13.989Z</time></trkpt><trkpt lat="44.795855" lon="9.4624433"><ele>610.0</ele><time>2026-05-02T13:49:15.989Z</time></trkpt><trkpt lat="44.7959283" lon="9.4625883"><ele>611.1666666666667</ele><time>2026-05-02T13:49:17.99Z</time></trkpt><trkpt lat="44.7959683" lon="9.4626583"><ele>612.3333333333334</ele><time>2026-05-02T13:49:18.99Z</time></trkpt><trkpt lat="44.796015" lon="9.462725"><ele>613.5</ele><time>2026-05-02T13:49:19.989Z</time></trkpt><trkpt lat="44.7960633" lon="9.46279"><ele>614.6666666666666</ele><time>2026-05-02T13:49:20.991Z</time></trkpt><trkpt lat="44.7961217" lon="9.462855"><ele>615.8333333333333</ele><time>2026-05-02T13:49:21.991Z</time></trkpt><trkpt lat="44.7961967" lon="9.4629967"><ele>617.0</ele><time>2026-05-02T13:49:23.99Z</time></trkpt><trkpt lat="44.79623" lon="9.463085"><ele>611.0</ele><time>2026-05-02T13:49:24.99Z</time></trkpt><trkpt lat="44.79626" lon="9.4631783"><ele>605.0</ele><time>2026-05-02T13:49:25.989Z</time></trkpt><trkpt lat="44.7962917" lon="9.4632667"><ele>599.0</ele><time>2026-05-02T13:49:26.989Z</time></trkpt><trkpt lat="44.7963833" lon="9.4633383"><ele>593.0</ele><time>2026-05-02T13:49:28.989Z</time></trkpt><trkpt lat="44.7964867" lon="9.4632867"><ele>587.0</ele><time>2026-05-02T13:49:30.989Z</time></trkpt><trkpt lat="44.7965883" lon="9.4631883"><ele>587.0</ele><time>2026-05-02T13:49:32.989Z</time></trkpt><trkpt lat="44.7966917" lon="9.46319"><ele>587.0</ele><time>2026-05-02T13:49:34.989Z</time></trkpt><trkpt lat="44.7967717" lon="9.4633017"><ele>587.0</ele><time>2026-05-02T13:49:36.99Z</time></trkpt><trkpt lat="44.796815" lon="9.4634367"><ele>587.0</ele><time>2026-05-02T13:49:38.989Z</time></trkpt><trkpt lat="44.7968517" lon="9.4635583"><ele>587.0</ele><time>2026-05-02T13:49:40.99Z</time></trkpt><trkpt lat="44.7969417" lon="9.4636433"><ele>587.3333333333333</ele><time>2026-05-02T13:49:42.989Z</time></trkpt><trkpt lat="44.7970033" lon="9.46368"><ele>587.6666666666666</ele><time>2026-05-02T13:49:43.989Z</time></trkpt><trkpt lat="44.797065" lon="9.4637217"><ele>588.0</ele><time>2026-05-02T13:49:44.99Z</time></trkpt><trkpt lat="44.7971283" lon="9.46377"><ele>588.3333333333334</ele><time>2026-05-02T13:49:45.989Z</time></trkpt><trkpt lat="44.7971833" lon="9.463815"><ele>588.6666666666667</ele><time>2026-05-02T13:49:46.989Z</time></trkpt><trkpt lat="44.7973067" lon="9.4638417"><ele>589.0</ele><time>2026-05-02T13:49:48.989Z</time></trkpt><trkpt lat="44.7974183" lon="9.463805"><ele>585.6</ele><time>2026-05-02T13:49:50.989Z</time></trkpt><trkpt lat="44.7975217" lon="9.463775"><ele>582.2</ele><time>2026-05-02T13:49:52.989Z</time></trkpt><trkpt lat="44.797615" lon="9.46373"><ele>578.8000000000001</ele><time>2026-05-02T13:49:54.989Z</time></trkpt><trkpt lat="44.7976967" lon="9.4636183"><ele>575.4</ele><time>2026-05-02T13:49:56.989Z</time></trkpt><trkpt lat="44.7978017" lon="9.46356"><ele>572.0</ele><time>2026-05-02T13:49:58.989Z</time></trkpt><trkpt lat="44.79793" lon="9.4635733"><ele>571.3333333333333</ele><time>2026-05-02T13:50:00.992Z</time></trkpt><trkpt lat="44.7980033" lon="9.463565"><ele>570.6666666666666</ele><time>2026-05-02T13:50:01.991Z</time></trkpt><trkpt lat="44.7980717" lon="9.4635483"><ele>570.0</ele><time>2026-05-02T13:50:02.989Z</time></trkpt><trkpt lat="44.79815" lon="9.46351"><ele>569.3333333333334</ele><time>2026-05-02T13:50:03.99Z</time></trkpt><trkpt lat="44.7982167" lon="9.463455"><ele>568.6666666666667</ele><time>2026-05-02T13:50:04.989Z</time></trkpt><trkpt lat="44.7982917" lon="9.4633933"><ele>568.0</ele><time>2026-05-02T13:50:05.991Z</time></trkpt><trkpt lat="44.7983717" lon="9.463335"><ele>568.0</ele><time>2026-05-02T13:50:06.989Z</time></trkpt><trkpt lat="44.798455" lon="9.463295"><ele>568.0</ele><time>2026-05-02T13:50:07.989Z</time></trkpt><trkpt lat="44.79854" lon="9.46326"><ele>568.0</ele><time>2026-05-02T13:50:08.99Z</time></trkpt><trkpt lat="44.7986283" lon="9.4632183"><ele>568.0</ele><time>2026-05-02T13:50:09.989Z</time></trkpt><trkpt lat="44.7987183" lon="9.4631517"><ele>568.0</ele><time>2026-05-02T13:50:10.99Z</time></trkpt><trkpt lat="44.7988083" lon="9.4630783"><ele>568.6</ele><time>2026-05-02T13:50:11.989Z</time></trkpt><trkpt lat="44.7988967" lon="9.4629967"><ele>569.1999999999999</ele><time>2026-05-02T13:50:12.99Z</time></trkpt><trkpt lat="44.799" lon="9.4629333"><ele>569.8</ele><time>2026-05-02T13:50:13.989Z</time></trkpt><trkpt lat="44.7991033" lon="9.4629"><ele>570.4</ele><time>2026-05-02T13:50:14.99Z</time></trkpt><trkpt lat="44.7992033" lon="9.4628917"><ele>571.0</ele><time>2026-05-02T13:50:15.989Z</time></trkpt><trkpt lat="44.7993083" lon="9.4628883"><ele>564.8</ele><time>2026-05-02T13:50:16.989Z</time></trkpt><trkpt lat="44.79943" lon="9.4629"><ele>558.6</ele><time>2026-05-02T13:50:17.989Z</time></trkpt><trkpt lat="44.7995467" lon="9.4629067"><ele>552.4</ele><time>2026-05-02T13:50:18.989Z</time></trkpt><trkpt lat="44.7996583" lon="9.462905"><ele>546.2</ele><time>2026-05-02T13:50:19.99Z</time></trkpt><trkpt lat="44.79975" lon="9.4628917"><ele>540.0</ele><time>2026-05-02T13:50:20.989Z</time></trkpt><trkpt lat="44.7998217" lon="9.4628533"><ele>540.0</ele><time>2026-05-02T13:50:21.992Z</time></trkpt><trkpt lat="44.7998783" lon="9.4627817"><ele>540.0</ele><time>2026-05-02T13:50:22.989Z</time></trkpt><trkpt lat="44.7998983" lon="9.46266"><ele>540.0</ele><time>2026-05-02T13:50:23.993Z</time></trkpt><trkpt lat="44.7998933" lon="9.46249"><ele>540.0</ele><time>2026-05-02T13:50:24.989Z</time></trkpt><trkpt lat="44.7998967" lon="9.4623"><ele>540.0</ele><time>2026-05-02T13:50:25.99Z</time></trkpt><trkpt lat="44.7999083" lon="9.4621083"><ele>539.4</ele><time>2026-05-02T13:50:26.99Z</time></trkpt><trkpt lat="44.7999167" lon="9.4619483"><ele>538.8</ele><time>2026-05-02T13:50:27.989Z</time></trkpt><trkpt lat="44.799915" lon="9.4617933"><ele>538.2</ele><time>2026-05-02T13:50:28.989Z</time></trkpt><trkpt lat="44.7999033" lon="9.4616467"><ele>537.6</ele><time>2026-05-02T13:50:29.99Z</time></trkpt><trkpt lat="44.7998833" lon="9.4614983"><ele>537.0</ele><time>2026-05-02T13:50:30.989Z</time></trkpt><trkpt lat="44.7998417" lon="9.461365"><ele>535.1666666666666</ele><time>2026-05-02T13:50:31.989Z</time></trkpt><trkpt lat="44.7997967" lon="9.4612367"><ele>533.3333333333334</ele><time>2026-05-02T13:50:32.989Z</time></trkpt><trkpt lat="44.7997583" lon="9.46111"><ele>531.5</ele><time>2026-05-02T13:50:33.989Z</time></trkpt><trkpt lat="44.79974" lon="9.461"><ele>529.6666666666667</ele><time>2026-05-02T13:50:34.989Z</time></trkpt><trkpt lat="44.7997433" lon="9.460895"><ele>527.8333333333334</ele><time>2026-05-02T13:50:35.99Z</time></trkpt><trkpt lat="44.7997983" lon="9.4608133"><ele>526.0</ele><time>2026-05-02T13:50:36.989Z</time></trkpt><trkpt lat="44.79987" lon="9.4607517"><ele>526.0</ele><time>2026-05-02T13:50:37.989Z</time></trkpt><trkpt lat="44.799955" lon="9.4607133"><ele>526.0</ele><time>2026-05-02T13:50:38.99Z</time></trkpt><trkpt lat="44.8000533" lon="9.4606983"><ele>526.0</ele><time>2026-05-02T13:50:39.989Z</time></trkpt><trkpt lat="44.8001533" lon="9.4606867"><ele>526.0</ele><time>2026-05-02T13:50:40.989Z</time></trkpt><trkpt lat="44.80025" lon="9.4606783"><ele>526.0</ele><time>2026-05-02T13:50:41.99Z</time></trkpt><trkpt lat="44.8003417" lon="9.4606683"><ele>523.6666666666667</ele><time>2026-05-02T13:50:42.989Z</time></trkpt><trkpt lat="44.8004283" lon="9.4606717"><ele>521.3333333333334</ele><time>2026-05-02T13:50:43.989Z</time></trkpt><trkpt lat="44.8005033" lon="9.4606933"><ele>519.0</ele><time>2026-05-02T13:50:44.99Z</time></trkpt><trkpt lat="44.800565" lon="9.4607367"><ele>516.6666666666666</ele><time>2026-05-02T13:50:45.99Z</time></trkpt><trkpt lat="44.8006167" lon="9.4608017"><ele>514.3333333333333</ele><time>2026-05-02T13:50:46.99Z</time></trkpt><trkpt lat="44.8006567" lon="9.4608867"><ele>512.0</ele><time>2026-05-02T13:50:47.99Z</time></trkpt><trkpt lat="44.80069" lon="9.4609883"><ele>512.0</ele><time>2026-05-02T13:50:48.99Z</time></trkpt><trkpt lat="44.8007117" lon="9.4611017"><ele>512.0</ele><time>2026-05-02T13:50:49.989Z</time></trkpt><trkpt lat="44.80073" lon="9.4612233"><ele>512.0</ele><time>2026-05-02T13:50:50.99Z</time></trkpt><trkpt lat="44.80074" lon="9.4613517"><ele>512.0</ele><time>2026-05-02T13:50:51.99Z</time></trkpt><trkpt lat="44.8007433" lon="9.4614867"><ele>512.0</ele><time>2026-05-02T13:50:52.989Z</time></trkpt><trkpt lat="44.800745" lon="9.461625"><ele>511.8333333333333</ele><time>2026-05-02T13:50:53.989Z</time></trkpt><trkpt lat="44.8007467" lon="9.4617617"><ele>511.66666666666663</ele><time>2026-05-02T13:50:54.991Z</time></trkpt><trkpt lat="44.80074" lon="9.4618883"><ele>511.5</ele><time>2026-05-02T13:50:55.989Z</time></trkpt><trkpt lat="44.800745" lon="9.462"><ele>511.33333333333337</ele><time>2026-05-02T13:50:56.99Z</time></trkpt><trkpt lat="44.8007717" lon="9.4621"><ele>511.1666666666667</ele><time>2026-05-02T13:50:57.989Z</time></trkpt><trkpt lat="44.8008283" lon="9.4621767"><ele>511.0</ele><time>2026-05-02T13:50:58.989Z</time></trkpt><trkpt lat="44.800895" lon="9.46225"><ele>511.6</ele><time>2026-05-02T13:50:59.99Z</time></trkpt><trkpt lat="44.8009617" lon="9.462335"><ele>512.2</ele><time>2026-05-02T13:51:00.989Z</time></trkpt><trkpt lat="44.801035" lon="9.462425"><ele>512.8</ele><time>2026-05-02T13:51:01.99Z</time></trkpt><trkpt lat="44.8011067" lon="9.4625183"><ele>513.4</ele><time>2026-05-02T13:51:02.99Z</time></trkpt><trkpt lat="44.8011767" lon="9.4625917"><ele>514.0</ele><time>2026-05-02T13:51:03.989Z</time></trkpt><trkpt lat="44.8012567" lon="9.46265"><ele>510.00000000000006</ele><time>2026-05-02T13:51:04.989Z</time></trkpt><trkpt lat="44.8013383" lon="9.4626867"><ele>506.0</ele><time>2026-05-02T13:51:05.989Z</time></trkpt><trkpt lat="44.801425" lon="9.4627067"><ele>502.0</ele><time>2026-05-02T13:51:06.99Z</time></trkpt><trkpt lat="44.8015083" lon="9.4627233"><ele>498.0</ele><time>2026-05-02T13:51:07.989Z</time></trkpt><trkpt lat="44.8015917" lon="9.4627417"><ele>494.00000000000006</ele><time>2026-05-02T13:51:08.99Z</time></trkpt><trkpt lat="44.801675" lon="9.4627633"><ele>490.0</ele><time>2026-05-02T13:51:09.989Z</time></trkpt><trkpt lat="44.801755" lon="9.4627933"><ele>487.8</ele><time>2026-05-02T13:51:10.989Z</time></trkpt><trkpt lat="44.8018383" lon="9.4628233"><ele>485.6</ele><time>2026-05-02T13:51:11.989Z</time></trkpt><trkpt lat="44.8019267" lon="9.4628467"><ele>483.4</ele><time>2026-05-02T13:51:12.99Z</time></trkpt><trkpt lat="44.802015" lon="9.46286"><ele>481.2</ele><time>2026-05-02T13:51:13.99Z</time></trkpt><trkpt lat="44.8021083" lon="9.462865"><ele>479.0</ele><time>2026-05-02T13:51:14.989Z</time></trkpt><trkpt lat="44.8022033" lon="9.4628517"><ele>479.0</ele><time>2026-05-02T13:51:15.991Z</time></trkpt><trkpt lat="44.8022933" lon="9.4628217"><ele>479.0</ele><time>2026-05-02T13:51:16.991Z</time></trkpt><trkpt lat="44.8023817" lon="9.4627733"><ele>479.0</ele><time>2026-05-02T13:51:17.99Z</time></trkpt><trkpt lat="44.802465" lon="9.4627133"><ele>479.0</ele><time>2026-05-02T13:51:18.991Z</time></trkpt><trkpt lat="44.8025483" lon="9.462655"><ele>479.0</ele><time>2026-05-02T13:51:19.989Z</time></trkpt><trkpt lat="44.80263" lon="9.46262"><ele>477.49999999999994</ele><time>2026-05-02T13:51:20.991Z</time></trkpt><trkpt lat="44.8027117" lon="9.4626067"><ele>476.0</ele><time>2026-05-02T13:51:21.989Z</time></trkpt><trkpt lat="44.8027933" lon="9.4626167"><ele>474.5</ele><time>2026-05-02T13:51:22.989Z</time></trkpt><trkpt lat="44.8028717" lon="9.462655"><ele>473.0</ele><time>2026-05-02T13:51:23.991Z</time></trkpt><trkpt lat="44.80295" lon="9.462705"><ele>471.49999999999994</ele><time>2026-05-02T13:51:24.989Z</time></trkpt><trkpt lat="44.8030167" lon="9.4627583"><ele>470.0</ele><time>2026-05-02T13:51:25.99Z</time></trkpt><trkpt lat="44.803105" lon="9.4628217"><ele>469.99999999999994</ele><time>2026-05-02T13:51:27.99Z</time></trkpt><trkpt lat="44.8031733" lon="9.4628817"><ele>470.0</ele><time>2026-05-02T13:51:30.989Z</time></trkpt><trkpt lat="44.80326" lon="9.4629117"><ele>470.0</ele><time>2026-05-02T13:51:33.989Z</time></trkpt><trkpt lat="44.8033183" lon="9.46296"><ele>470.0</ele><time>2026-05-02T13:51:35.989Z</time></trkpt><trkpt lat="44.8033533" lon="9.4630567"><ele>469.99999999999994</ele><time>2026-05-02T13:51:37.99Z</time></trkpt><trkpt lat="44.8033717" lon="9.4632033"><ele>470.0</ele><time>2026-05-02T13:51:39.989Z</time></trkpt><trkpt lat="44.8034" lon="9.463345"><ele>470.16666666666663</ele><time>2026-05-02T13:51:41.99Z</time></trkpt><trkpt lat="44.8034333" lon="9.4634683"><ele>470.3333333333333</ele><time>2026-05-02T13:51:43.989Z</time></trkpt><trkpt lat="44.8034433" lon="9.463585"><ele>470.5</ele><time>2026-05-02T13:51:45.99Z</time></trkpt><trkpt lat="44.8034617" lon="9.463685"><ele>470.66666666666663</ele><time>2026-05-02T13:51:47.99Z</time></trkpt><trkpt lat="44.8035183" lon="9.4637867"><ele>470.8333333333333</ele><time>2026-05-02T13:51:49.991Z</time></trkpt><trkpt lat="44.8035717" lon="9.4639083"><ele>471.0</ele><time>2026-05-02T13:51:51.99Z</time></trkpt><trkpt lat="44.803605" lon="9.4640283"><ele>471.0</ele><time>2026-05-02T13:51:53.991Z</time></trkpt><trkpt lat="44.8036533" lon="9.4641533"><ele>471.0</ele><time>2026-05-02T13:51:55.992Z</time></trkpt><trkpt lat="44.8037067" lon="9.464295"><ele>471.0</ele><time>2026-05-02T13:51:57.992Z</time></trkpt><trkpt lat="44.8037667" lon="9.4644517"><ele>471.0</ele><time>2026-05-02T13:51:59.99Z</time></trkpt><trkpt lat="44.8037933" lon="9.464535"><ele>471.0</ele><time>2026-05-02T13:52:00.989Z</time></trkpt><trkpt lat="44.8038567" lon="9.4646583"><ele>471.20000000000005</ele><time>2026-05-02T13:52:02.99Z</time></trkpt><trkpt lat="44.8039267" lon="9.4647983"><ele>471.40000000000003</ele><time>2026-05-02T13:52:04.99Z</time></trkpt><trkpt lat="44.8039467" lon="9.4649417"><ele>471.6</ele><time>2026-05-02T13:52:06.99Z</time></trkpt><trkpt lat="44.803945" lon="9.4650783"><ele>471.8</ele><time>2026-05-02T13:52:08.99Z</time></trkpt><trkpt lat="44.8039483" lon="9.465245"><ele>472.0</ele><time>2026-05-02T13:52:10.989Z</time></trkpt><trkpt lat="44.8039633" lon="9.4653417"><ele>472.0</ele><time>2026-05-02T13:52:11.989Z</time></trkpt><trkpt lat="44.8039733" lon="9.4654367"><ele>472.00000000000006</ele><time>2026-05-02T13:52:12.989Z</time></trkpt><trkpt lat="44.80398" lon="9.4655267"><ele>472.00000000000006</ele><time>2026-05-02T13:52:13.989Z</time></trkpt><trkpt lat="44.80398" lon="9.4656883"><ele>472.0</ele><time>2026-05-02T13:52:15.989Z</time></trkpt><trkpt lat="44.8039683" lon="9.4658317"><ele>472.0</ele><time>2026-05-02T13:52:17.99Z</time></trkpt><trkpt lat="44.8039467" lon="9.4659783"><ele>471.6</ele><time>2026-05-02T13:52:19.99Z</time></trkpt><trkpt lat="44.8039383" lon="9.4661"><ele>471.20000000000005</ele><time>2026-05-02T13:52:21.989Z</time></trkpt><trkpt lat="44.80396" lon="9.4662017"><ele>470.8</ele><time>2026-05-02T13:52:23.991Z</time></trkpt><trkpt lat="44.80397" lon="9.46631"><ele>470.4</ele><time>2026-05-02T13:52:25.992Z</time></trkpt><trkpt lat="44.8039583" lon="9.4664383"><ele>470.0</ele><time>2026-05-02T13:52:27.99Z</time></trkpt><trkpt lat="44.8038983" lon="9.4665933"><ele>470.8</ele><time>2026-05-02T13:52:29.99Z</time></trkpt><trkpt lat="44.8038417" lon="9.466735"><ele>471.6</ele><time>2026-05-02T13:52:31.99Z</time></trkpt><trkpt lat="44.8038367" lon="9.4668467"><ele>472.4</ele><time>2026-05-02T13:52:33.99Z</time></trkpt><trkpt lat="44.8038667" lon="9.4669283"><ele>473.2</ele><time>2026-05-02T13:52:35.99Z</time></trkpt><trkpt lat="44.8039117" lon="9.4670283"><ele>474.0</ele><time>2026-05-02T13:52:37.99Z</time></trkpt><trkpt lat="44.8039767" lon="9.4671467"><ele>474.4</ele><time>2026-05-02T13:52:39.989Z</time></trkpt><trkpt lat="44.8040517" lon="9.46721"><ele>474.79999999999995</ele><time>2026-05-02T13:52:41.991Z</time></trkpt><trkpt lat="44.8041333" lon="9.4672283"><ele>475.20000000000005</ele><time>2026-05-02T13:52:43.991Z</time></trkpt><trkpt lat="44.8042167" lon="9.4672583"><ele>475.6</ele><time>2026-05-02T13:52:45.99Z</time></trkpt><trkpt lat="44.8043067" lon="9.4673183"><ele>476.0</ele><time>2026-05-02T13:52:47.99Z</time></trkpt><trkpt lat="44.8044" lon="9.4673783"><ele>473.6</ele><time>2026-05-02T13:52:49.99Z</time></trkpt><trkpt lat="44.8044817" lon="9.467445"><ele>471.20000000000005</ele><time>2026-05-02T13:52:51.99Z</time></trkpt><trkpt lat="44.8045467" lon="9.4675383"><ele>468.79999999999995</ele><time>2026-05-02T13:52:53.99Z</time></trkpt><trkpt lat="44.8046017" lon="9.4676767"><ele>466.4</ele><time>2026-05-02T13:52:55.99Z</time></trkpt><trkpt lat="44.8046533" lon="9.4677983"><ele>464.0</ele><time>2026-05-02T13:52:57.99Z</time></trkpt><trkpt lat="44.8047183" lon="9.4678767"><ele>464.16666666666663</ele><time>2026-05-02T13:52:59.991Z</time></trkpt><trkpt lat="44.8047717" lon="9.4679467"><ele>464.3333333333333</ele><time>2026-05-02T13:53:01.99Z</time></trkpt><trkpt lat="44.8048267" lon="9.4680217"><ele>464.5</ele><time>2026-05-02T13:53:03.99Z</time></trkpt><trkpt lat="44.8048833" lon="9.4681033"><ele>464.66666666666663</ele><time>2026-05-02T13:53:05.989Z</time></trkpt><trkpt lat="44.8049233" lon="9.4682117"><ele>464.8333333333333</ele><time>2026-05-02T13:53:07.99Z</time></trkpt><trkpt lat="44.8049333" lon="9.4683483"><ele>465.0</ele><time>2026-05-02T13:53:09.988Z</time></trkpt><trkpt lat="44.80495" lon="9.4684633"><ele>465.0</ele><time>2026-05-02T13:53:11.989Z</time></trkpt><trkpt lat="44.80497" lon="9.4686167"><ele>465.0</ele><time>2026-05-02T13:53:13.991Z</time></trkpt><trkpt lat="44.8049883" lon="9.4687617"><ele>465.0</ele><time>2026-05-02T13:53:15.989Z</time></trkpt><trkpt lat="44.804995" lon="9.46891"><ele>465.0</ele><time>2026-05-02T13:53:17.989Z</time></trkpt><trkpt lat="44.8050083" lon="9.4690517"><ele>465.0</ele><time>2026-05-02T13:53:19.989Z</time></trkpt><trkpt lat="44.8050217" lon="9.469185"><ele>464.4</ele><time>2026-05-02T13:53:21.989Z</time></trkpt><trkpt lat="44.8049917" lon="9.469325"><ele>463.8</ele><time>2026-05-02T13:53:51.989Z</time></trkpt><trkpt lat="44.8050633" lon="9.4692517"><ele>463.20000000000005</ele><time>2026-05-02T13:53:53.99Z</time></trkpt><trkpt lat="44.80514" lon="9.46915"><ele>462.6</ele><time>2026-05-02T13:53:55.989Z</time></trkpt><trkpt lat="44.8051967" lon="9.4690283"><ele>462.0</ele><time>2026-05-02T13:53:57.989Z</time></trkpt><trkpt lat="44.80523" lon="9.4689133"><ele>459.8333333333333</ele><time>2026-05-02T13:53:59.988Z</time></trkpt><trkpt lat="44.805265" lon="9.4687967"><ele>457.66666666666663</ele><time>2026-05-02T13:54:01.989Z</time></trkpt><trkpt lat="44.8053317" lon="9.4687033"><ele>455.5</ele><time>2026-05-02T13:54:03.989Z</time></trkpt><trkpt lat="44.80541" lon="9.468645"><ele>453.3333333333333</ele><time>2026-05-02T13:54:05.992Z</time></trkpt><trkpt lat="44.8054833" lon="9.4685733"><ele>451.16666666666663</ele><time>2026-05-02T13:54:07.99Z</time></trkpt><trkpt lat="44.8055367" lon="9.4685033"><ele>449.0</ele><time>2026-05-02T13:54:09.988Z</time></trkpt><trkpt lat="44.805595" lon="9.4684333"><ele>449.0</ele><time>2026-05-02T13:54:12.989Z</time></trkpt><trkpt lat="44.8056617" lon="9.4683533"><ele>449.0</ele><time>2026-05-02T13:54:14.989Z</time></trkpt><trkpt lat="44.8057567" lon="9.4682767"><ele>449.0</ele><time>2026-05-02T13:54:16.988Z</time></trkpt><trkpt lat="44.80584" lon="9.4681767"><ele>449.0</ele><time>2026-05-02T13:54:18.988Z</time></trkpt><trkpt lat="44.805905" lon="9.4680583"><ele>449.0</ele><time>2026-05-02T13:54:20.989Z</time></trkpt><trkpt lat="44.8059733" lon="9.4679533"><ele>446.4</ele><time>2026-05-02T13:54:22.989Z</time></trkpt><trkpt lat="44.806065" lon="9.467905"><ele>443.79999999999995</ele><time>2026-05-02T13:54:24.989Z</time></trkpt><trkpt lat="44.8061567" lon="9.4678367"><ele>441.20000000000005</ele><time>2026-05-02T13:54:26.99Z</time></trkpt><trkpt lat="44.8062517" lon="9.4677583"><ele>438.6</ele><time>2026-05-02T13:54:28.989Z</time></trkpt><trkpt lat="44.8063267" lon="9.46769"><ele>436.0</ele><time>2026-05-02T13:54:30.99Z</time></trkpt><trkpt lat="44.8063883" lon="9.4676333"><ele>436.00000000000006</ele><time>2026-05-02T13:54:32.991Z</time></trkpt><trkpt lat="44.806405" lon="9.4675217"><ele>436.0</ele><time>2026-05-02T13:54:35.99Z</time></trkpt><trkpt lat="44.8064617" lon="9.4674583"><ele>436.0</ele><time>2026-05-02T13:54:38.99Z</time></trkpt><trkpt lat="44.8065183" lon="9.4675617"><ele>436.0</ele><time>2026-05-02T13:54:41.99Z</time></trkpt><trkpt lat="44.806595" lon="9.4676867"><ele>436.00000000000006</ele><time>2026-05-02T13:54:43.991Z</time></trkpt><trkpt lat="44.8066467" lon="9.467775"><ele>436.0</ele><time>2026-05-02T13:54:44.99Z</time></trkpt><trkpt lat="44.8067" lon="9.4678733"><ele>435.6666666666667</ele><time>2026-05-02T13:54:45.989Z</time></trkpt><trkpt lat="44.8067417" lon="9.46798"><ele>435.33333333333337</ele><time>2026-05-02T13:54:46.988Z</time></trkpt><trkpt lat="44.80677" lon="9.46809"><ele>435.0</ele><time>2026-05-02T13:54:47.989Z</time></trkpt><trkpt lat="44.8067833" lon="9.46821"><ele>434.66666666666663</ele><time>2026-05-02T13:54:48.989Z</time></trkpt><trkpt lat="44.806775" lon="9.468325"><ele>434.3333333333333</ele><time>2026-05-02T13:54:49.989Z</time></trkpt><trkpt lat="44.8067567" lon="9.4684417"><ele>434.0</ele><time>2026-05-02T13:54:50.989Z</time></trkpt><trkpt lat="44.8067233" lon="9.4685517"><ele>433.99999999999994</ele><time>2026-05-02T13:54:51.989Z</time></trkpt><trkpt lat="44.806675" lon="9.4686483"><ele>434.0</ele><time>2026-05-02T13:54:52.989Z</time></trkpt><trkpt lat="44.806605" lon="9.468715"><ele>434.0</ele><time>2026-05-02T13:54:53.989Z</time></trkpt><trkpt lat="44.8065233" lon="9.4687667"><ele>434.0</ele><time>2026-05-02T13:54:54.989Z</time></trkpt><trkpt lat="44.806445" lon="9.46882"><ele>433.99999999999994</ele><time>2026-05-02T13:54:55.989Z</time></trkpt><trkpt lat="44.8063767" lon="9.4688817"><ele>434.0</ele><time>2026-05-02T13:54:56.989Z</time></trkpt><trkpt lat="44.806325" lon="9.468955"><ele>433.2</ele><time>2026-05-02T13:54:57.989Z</time></trkpt><trkpt lat="44.806335" lon="9.4690483"><ele>432.4</ele><time>2026-05-02T13:54:58.989Z</time></trkpt><trkpt lat="44.8063717" lon="9.469125"><ele>431.6</ele><time>2026-05-02T13:54:59.989Z</time></trkpt><trkpt lat="44.8064183" lon="9.469195"><ele>430.8</ele><time>2026-05-02T13:55:00.991Z</time></trkpt><trkpt lat="44.8065617" lon="9.4692383"><ele>430.0</ele><time>2026-05-02T13:55:01.989Z</time></trkpt><trkpt lat="44.8066783" lon="9.469285"><ele>430.0</ele><time>2026-05-02T13:55:02.99Z</time></trkpt><trkpt lat="44.806785" lon="9.469335"><ele>430.0</ele><time>2026-05-02T13:55:03.988Z</time></trkpt><trkpt lat="44.8068833" lon="9.4693917"><ele>430.0</ele><time>2026-05-02T13:55:04.99Z</time></trkpt><trkpt lat="44.806975" lon="9.4694567"><ele>430.0</ele><time>2026-05-02T13:55:05.989Z</time></trkpt><trkpt lat="44.8070483" lon="9.4695283"><ele>430.0</ele><time>2026-05-02T13:55:06.99Z</time></trkpt><trkpt lat="44.807105" lon="9.469625"><ele>427.83333333333337</ele><time>2026-05-02T13:55:07.989Z</time></trkpt><trkpt lat="44.8071433" lon="9.4697283"><ele>425.6666666666667</ele><time>2026-05-02T13:55:08.989Z</time></trkpt><trkpt lat="44.8071767" lon="9.4698367"><ele>423.5</ele><time>2026-05-02T13:55:09.989Z</time></trkpt><trkpt lat="44.8072167" lon="9.4699367"><ele>421.33333333333337</ele><time>2026-05-02T13:55:10.989Z</time></trkpt><trkpt lat="44.8072817" lon="9.470025"><ele>419.1666666666667</ele><time>2026-05-02T13:55:11.988Z</time></trkpt><trkpt lat="44.8073633" lon="9.470095"><ele>417.0</ele><time>2026-05-02T13:55:12.989Z</time></trkpt><trkpt lat="44.807455" lon="9.4701517"><ele>417.0</ele><time>2026-05-02T13:55:13.989Z</time></trkpt><trkpt lat="44.8075433" lon="9.470205"><ele>417.0</ele><time>2026-05-02T13:55:14.989Z</time></trkpt><trkpt lat="44.8076267" lon="9.47027"><ele>417.0</ele><time>2026-05-02T13:55:15.99Z</time></trkpt><trkpt lat="44.8077083" lon="9.47034"><ele>417.0</ele><time>2026-05-02T13:55:16.989Z</time></trkpt><trkpt lat="44.80778" lon="9.4704233"><ele>417.0</ele><time>2026-05-02T13:55:17.989Z</time></trkpt><trkpt lat="44.8078483" lon="9.4705033"><ele>414.8</ele><time>2026-05-02T13:55:18.989Z</time></trkpt><trkpt lat="44.8079217" lon="9.4705767"><ele>412.6</ele><time>2026-05-02T13:55:19.992Z</time></trkpt><trkpt lat="44.8080017" lon="9.4706467"><ele>410.40000000000003</ele><time>2026-05-02T13:55:20.99Z</time></trkpt><trkpt lat="44.8080817" lon="9.4707233"><ele>408.20000000000005</ele><time>2026-05-02T13:55:21.99Z</time></trkpt><trkpt lat="44.8081533" lon="9.4708133"><ele>406.0</ele><time>2026-05-02T13:55:22.99Z</time></trkpt><trkpt lat="44.8082183" lon="9.4709117"><ele>406.00000000000006</ele><time>2026-05-02T13:55:23.989Z</time></trkpt><trkpt lat="44.8082683" lon="9.4710167"><ele>406.0</ele><time>2026-05-02T13:55:24.99Z</time></trkpt><trkpt lat="44.8082933" lon="9.4711267"><ele>406.0</ele><time>2026-05-02T13:55:25.989Z</time></trkpt><trkpt lat="44.8082933" lon="9.47124"><ele>406.0</ele><time>2026-05-02T13:55:26.989Z</time></trkpt><trkpt lat="44.8082833" lon="9.4713533"><ele>406.00000000000006</ele><time>2026-05-02T13:55:27.989Z</time></trkpt><trkpt lat="44.8082783" lon="9.4714683"><ele>406.0</ele><time>2026-05-02T13:55:28.989Z</time></trkpt><trkpt lat="44.8082983" lon="9.4715717"><ele>407.20000000000005</ele><time>2026-05-02T13:55:29.989Z</time></trkpt><trkpt lat="44.8083383" lon="9.4716567"><ele>408.40000000000003</ele><time>2026-05-02T13:55:30.989Z</time></trkpt><trkpt lat="44.8084" lon="9.4717883"><ele>409.6</ele><time>2026-05-02T13:55:32.99Z</time></trkpt><trkpt lat="44.808395" lon="9.4718983"><ele>410.8</ele><time>2026-05-02T13:55:34.991Z</time></trkpt><trkpt lat="44.8083083" lon="9.472005"><ele>412.0</ele><time>2026-05-02T13:55:36.989Z</time></trkpt><trkpt lat="44.80824" lon="9.4720717"><ele>410.83333333333337</ele><time>2026-05-02T13:55:37.99Z</time></trkpt><trkpt lat="44.8081617" lon="9.472135"><ele>409.6666666666667</ele><time>2026-05-02T13:55:38.991Z</time></trkpt><trkpt lat="44.808085" lon="9.47219"><ele>408.5</ele><time>2026-05-02T13:55:39.99Z</time></trkpt><trkpt lat="44.8080083" lon="9.472225"><ele>407.33333333333337</ele><time>2026-05-02T13:55:40.99Z</time></trkpt><trkpt lat="44.80793" lon="9.4722417"><ele>406.1666666666667</ele><time>2026-05-02T13:55:41.989Z</time></trkpt><trkpt lat="44.8078483" lon="9.4722317"><ele>405.0</ele><time>2026-05-02T13:55:42.989Z</time></trkpt><trkpt lat="44.807765" lon="9.4722167"><ele>405.0</ele><time>2026-05-02T13:55:43.989Z</time></trkpt><trkpt lat="44.80769" lon="9.4721717"><ele>405.0</ele><time>2026-05-02T13:55:44.989Z</time></trkpt><trkpt lat="44.8076117" lon="9.4721417"><ele>405.0</ele><time>2026-05-02T13:55:45.989Z</time></trkpt><trkpt lat="44.807525" lon="9.4721267"><ele>405.0</ele><time>2026-05-02T13:55:46.99Z</time></trkpt><trkpt lat="44.80744" lon="9.4721267"><ele>405.0</ele><time>2026-05-02T13:55:47.989Z</time></trkpt><trkpt lat="44.8073583" lon="9.4721567"><ele>405.0</ele><time>2026-05-02T13:55:48.988Z</time></trkpt><trkpt lat="44.8072783" lon="9.4722083"><ele>409.6</ele><time>2026-05-02T13:55:49.989Z</time></trkpt><trkpt lat="44.807205" lon="9.4722783"><ele>414.2</ele><time>2026-05-02T13:55:50.99Z</time></trkpt><trkpt lat="44.807135" lon="9.4723633"><ele>418.79999999999995</ele><time>2026-05-02T13:55:51.989Z</time></trkpt><trkpt lat="44.8071317" lon="9.4725067"><ele>423.4</ele><time>2026-05-02T13:55:52.989Z</time></trkpt><trkpt lat="44.8070983" lon="9.47264"><ele>428.0</ele><time>2026-05-02T13:55:53.989Z</time></trkpt><trkpt lat="44.8070717" lon="9.4728"><ele>428.5</ele><time>2026-05-02T13:55:54.989Z</time></trkpt><trkpt lat="44.8070383" lon="9.4729517"><ele>429.0</ele><time>2026-05-02T13:55:55.989Z</time></trkpt><trkpt lat="44.80701" lon="9.47311"><ele>429.5</ele><time>2026-05-02T13:55:56.99Z</time></trkpt><trkpt lat="44.80698" lon="9.4732633"><ele>430.0</ele><time>2026-05-02T13:55:57.989Z</time></trkpt><trkpt lat="44.8069533" lon="9.4734217"><ele>430.0</ele><time>2026-05-02T13:55:58.989Z</time></trkpt><trkpt lat="44.806925" lon="9.4735817"><ele>430.0</ele><time>2026-05-02T13:55:59.993Z</time></trkpt><trkpt lat="44.80689" lon="9.4737433"><ele>430.0</ele><time>2026-05-02T13:56:00.989Z</time></trkpt><trkpt lat="44.806855" lon="9.4739017"><ele>430.0</ele><time>2026-05-02T13:56:01.989Z</time></trkpt><trkpt lat="44.8068167" lon="9.4740583"><ele>432.25</ele><time>2026-05-02T13:56:02.989Z</time></trkpt><trkpt lat="44.8067817" lon="9.4742117"><ele>434.5</ele><time>2026-05-02T13:56:03.989Z</time></trkpt><trkpt lat="44.8067417" lon="9.474375"><ele>436.75</ele><time>2026-05-02T13:56:04.991Z</time></trkpt><trkpt lat="44.806695" lon="9.4745333"><ele>439.0</ele><time>2026-05-02T13:56:05.989Z</time></trkpt><trkpt lat="44.8066483" lon="9.474685"><ele>439.50000000000006</ele><time>2026-05-02T13:56:06.989Z</time></trkpt><trkpt lat="44.8066067" lon="9.474815"><ele>440.0</ele><time>2026-05-02T13:56:07.988Z</time></trkpt><trkpt lat="44.8065633" lon="9.4749167"><ele>440.5</ele><time>2026-05-02T13:56:08.99Z</time></trkpt><trkpt lat="44.8065133" lon="9.4750083"><ele>441.0</ele><time>2026-05-02T13:56:09.99Z</time></trkpt><trkpt lat="44.8064633" lon="9.4750883"><ele>441.50000000000006</ele><time>2026-05-02T13:56:10.989Z</time></trkpt><trkpt lat="44.8063883" lon="9.4751733"><ele>442.0</ele><time>2026-05-02T13:56:11.989Z</time></trkpt><trkpt lat="44.806305" lon="9.47527"><ele>442.0</ele><time>2026-05-02T13:56:12.989Z</time></trkpt><trkpt lat="44.8062133" lon="9.47536"><ele>442.0</ele><time>2026-05-02T13:56:13.989Z</time></trkpt><trkpt lat="44.8061217" lon="9.4754617"><ele>442.0</ele><time>2026-05-02T13:56:14.989Z</time></trkpt><trkpt lat="44.80603" lon="9.47557"><ele>442.0</ele><time>2026-05-02T13:56:15.989Z</time></trkpt><trkpt lat="44.80594" lon="9.47567"><ele>447.0</ele><time>2026-05-02T13:56:16.989Z</time></trkpt><trkpt lat="44.8058483" lon="9.47578"><ele>452.0</ele><time>2026-05-02T13:56:17.989Z</time></trkpt><trkpt lat="44.80576" lon="9.4758983"><ele>457.0</ele><time>2026-05-02T13:56:18.989Z</time></trkpt><trkpt lat="44.8056767" lon="9.47602"><ele>462.0</ele><time>2026-05-02T13:56:19.989Z</time></trkpt><trkpt lat="44.8055883" lon="9.4761417"><ele>464.5</ele><time>2026-05-02T13:56:20.989Z</time></trkpt><trkpt lat="44.8055033" lon="9.4762783"><ele>467.0</ele><time>2026-05-02T13:56:21.989Z</time></trkpt><trkpt lat="44.8054167" lon="9.476425"><ele>469.5</ele><time>2026-05-02T13:56:22.989Z</time></trkpt><trkpt lat="44.8053283" lon="9.4765517"><ele>472.0</ele><time>2026-05-02T13:56:23.989Z</time></trkpt><trkpt lat="44.8052483" lon="9.4766667"><ele>472.0</ele><time>2026-05-02T13:56:24.988Z</time></trkpt><trkpt lat="44.8051767" lon="9.476785"><ele>472.0</ele><time>2026-05-02T13:56:25.99Z</time></trkpt><trkpt lat="44.8051033" lon="9.4769133"><ele>472.0</ele><time>2026-05-02T13:56:26.989Z</time></trkpt><trkpt lat="44.8050359" lon="9.4770429"><ele>472.0</ele><time>2026-05-02T13:56:27.989Z</time></trkpt><trkpt lat="44.8049683" lon="9.477173"><ele>474.0</ele><time>2026-05-02T13:56:28.989Z</time></trkpt><trkpt lat="44.8049045" lon="9.4773041"><ele>476.00000000000006</ele><time>2026-05-02T13:56:29.989Z</time></trkpt><trkpt lat="44.804853" lon="9.4774314"><ele>478.00000000000006</ele><time>2026-05-02T13:56:30.989Z</time></trkpt><trkpt lat="44.8048185" lon="9.4775584"><ele>480.0</ele><time>2026-05-02T13:56:31.989Z</time></trkpt><trkpt lat="44.8047873" lon="9.4776829"><ele>482.0</ele><time>2026-05-02T13:56:32.989Z</time></trkpt><trkpt lat="44.8047666" lon="9.4777866"><ele>481.99999999999994</ele><time>2026-05-02T13:56:33.989Z</time></trkpt><trkpt lat="44.8047806" lon="9.4779143"><ele>482.0</ele><time>2026-05-02T13:56:35.993Z</time></trkpt><trkpt lat="44.8048261" lon="9.477998"><ele>482.0</ele><time>2026-05-02T13:56:37.99Z</time></trkpt><trkpt lat="44.8049167" lon="9.4780606"><ele>482.0</ele><time>2026-05-02T13:56:39.989Z</time></trkpt><trkpt lat="44.8049758" lon="9.4780942"><ele>481.99999999999994</ele><time>2026-05-02T13:56:40.989Z</time></trkpt><trkpt lat="44.8050387" lon="9.4781246"><ele>482.0</ele><time>2026-05-02T13:56:41.99Z</time></trkpt><trkpt lat="44.805103" lon="9.4781576"><ele>482.5714285714286</ele><time>2026-05-02T13:56:42.989Z</time></trkpt><trkpt lat="44.805164" lon="9.4781988"><ele>483.1428571428572</ele><time>2026-05-02T13:56:43.989Z</time></trkpt><trkpt lat="44.8052231" lon="9.4782467"><ele>483.7142857142857</ele><time>2026-05-02T13:56:44.989Z</time></trkpt><trkpt lat="44.8052811" lon="9.478295"><ele>484.28571428571433</ele><time>2026-05-02T13:56:45.989Z</time></trkpt><trkpt lat="44.8053405" lon="9.478345"><ele>484.8571428571429</ele><time>2026-05-02T13:56:46.989Z</time></trkpt><trkpt lat="44.805401" lon="9.4783985"><ele>485.42857142857144</ele><time>2026-05-02T13:56:47.989Z</time></trkpt><trkpt lat="44.8054599" lon="9.4784583"><ele>486.0</ele><time>2026-05-02T13:56:48.989Z</time></trkpt><trkpt lat="44.8055209" lon="9.4785234"><ele>486.0</ele><time>2026-05-02T13:56:49.989Z</time></trkpt><trkpt lat="44.8055756" lon="9.4786004"><ele>486.0</ele><time>2026-05-02T13:56:50.989Z</time></trkpt><trkpt lat="44.8056224" lon="9.4786975"><ele>486.0</ele><time>2026-05-02T13:56:51.989Z</time></trkpt><trkpt lat="44.805658" lon="9.4788146"><ele>486.0</ele><time>2026-05-02T13:56:52.989Z</time></trkpt><trkpt lat="44.8056905" lon="9.4789393"><ele>486.0</ele><time>2026-05-02T13:56:53.989Z</time></trkpt><trkpt lat="44.8057285" lon="9.4790645"><ele>486.0</ele><time>2026-05-02T13:56:54.99Z</time></trkpt><trkpt lat="44.8057696" lon="9.4791853"><ele>485.6666666666667</ele><time>2026-05-02T13:56:55.99Z</time></trkpt><trkpt lat="44.8058122" lon="9.4792988"><ele>485.33333333333337</ele><time>2026-05-02T13:56:56.989Z</time></trkpt><trkpt lat="44.8058484" lon="9.4794009"><ele>485.0</ele><time>2026-05-02T13:56:57.989Z</time></trkpt><trkpt lat="44.8058758" lon="9.4794945"><ele>484.6666666666667</ele><time>2026-05-02T13:56:58.989Z</time></trkpt><trkpt lat="44.8058933" lon="9.4795895"><ele>484.33333333333337</ele><time>2026-05-02T13:56:59.989Z</time></trkpt><trkpt lat="44.8058992" lon="9.4796925"><ele>484.0</ele><time>2026-05-02T13:57:00.989Z</time></trkpt><trkpt lat="44.8058941" lon="9.4798069"><ele>482.83333333333337</ele><time>2026-05-02T13:57:01.989Z</time></trkpt><trkpt lat="44.8058833" lon="9.4799324"><ele>481.6666666666667</ele><time>2026-05-02T13:57:02.989Z</time></trkpt><trkpt lat="44.8058696" lon="9.4800576"><ele>480.5</ele><time>2026-05-02T13:57:03.99Z</time></trkpt><trkpt lat="44.8058592" lon="9.4801747"><ele>479.33333333333337</ele><time>2026-05-02T13:57:04.989Z</time></trkpt><trkpt lat="44.8058612" lon="9.480283"><ele>478.1666666666667</ele><time>2026-05-02T13:57:05.989Z</time></trkpt><trkpt lat="44.805867" lon="9.4803862"><ele>477.0</ele><time>2026-05-02T13:57:06.989Z</time></trkpt><trkpt lat="44.805876" lon="9.4804882"><ele>475.8333333333333</ele><time>2026-05-02T13:57:07.989Z</time></trkpt><trkpt lat="44.8058925" lon="9.4805873"><ele>474.66666666666663</ele><time>2026-05-02T13:57:08.991Z</time></trkpt><trkpt lat="44.805916" lon="9.4806883"><ele>473.5</ele><time>2026-05-02T13:57:09.991Z</time></trkpt><trkpt lat="44.8059436" lon="9.4807937"><ele>472.3333333333333</ele><time>2026-05-02T13:57:10.989Z</time></trkpt><trkpt lat="44.8059683" lon="9.4808994"><ele>471.16666666666663</ele><time>2026-05-02T13:57:11.989Z</time></trkpt><trkpt lat="44.8059903" lon="9.48101"><ele>470.0</ele><time>2026-05-02T13:57:12.989Z</time></trkpt><trkpt lat="44.8060117" lon="9.4811154"><ele>468.16666666666663</ele><time>2026-05-02T13:57:13.989Z</time></trkpt><trkpt lat="44.8060344" lon="9.4812143"><ele>466.3333333333333</ele><time>2026-05-02T13:57:14.989Z</time></trkpt><trkpt lat="44.8060583" lon="9.4813033"><ele>464.5</ele><time>2026-05-02T13:57:15.99Z</time></trkpt><trkpt lat="44.8060767" lon="9.481455"><ele>462.66666666666663</ele><time>2026-05-02T13:57:17.99Z</time></trkpt><trkpt lat="44.8060133" lon="9.48156"><ele>460.8333333333333</ele><time>2026-05-02T13:57:19.989Z</time></trkpt><trkpt lat="44.8059583" lon="9.4816167"><ele>459.0</ele><time>2026-05-02T13:57:20.989Z</time></trkpt><trkpt lat="44.8059" lon="9.4816833"><ele>459.0</ele><time>2026-05-02T13:57:21.989Z</time></trkpt><trkpt lat="44.805835" lon="9.4817767"><ele>459.0</ele><time>2026-05-02T13:57:22.988Z</time></trkpt><trkpt lat="44.8057667" lon="9.481865"><ele>459.0</ele><time>2026-05-02T13:57:23.989Z</time></trkpt><trkpt lat="44.80569" lon="9.48195"><ele>459.0</ele><time>2026-05-02T13:57:24.989Z</time></trkpt><trkpt lat="44.8056083" lon="9.482035"><ele>459.0</ele><time>2026-05-02T13:57:25.989Z</time></trkpt><trkpt lat="44.8055183" lon="9.48213"><ele>458.0</ele><time>2026-05-02T13:57:26.989Z</time></trkpt><trkpt lat="44.80543" lon="9.4822217"><ele>457.0</ele><time>2026-05-02T13:57:27.989Z</time></trkpt><trkpt lat="44.8053417" lon="9.4823083"><ele>456.0</ele><time>2026-05-02T13:57:28.989Z</time></trkpt><trkpt lat="44.8052533" lon="9.48239"><ele>455.0</ele><time>2026-05-02T13:57:29.989Z</time></trkpt><trkpt lat="44.8051683" lon="9.48247"><ele>454.0</ele><time>2026-05-02T13:57:30.989Z</time></trkpt><trkpt lat="44.8050883" lon="9.48255"><ele>454.00000000000006</ele><time>2026-05-02T13:57:31.989Z</time></trkpt><trkpt lat="44.8050167" lon="9.48264"><ele>454.0</ele><time>2026-05-02T13:57:32.989Z</time></trkpt><trkpt lat="44.8049483" lon="9.482735"><ele>454.0</ele><time>2026-05-02T13:57:33.99Z</time></trkpt><trkpt lat="44.804885" lon="9.482825"><ele>454.0</ele><time>2026-05-02T13:57:34.989Z</time></trkpt><trkpt lat="44.80483" lon="9.482905"><ele>454.00000000000006</ele><time>2026-05-02T13:57:35.989Z</time></trkpt><trkpt lat="44.8047717" lon="9.4829883"><ele>454.0</ele><time>2026-05-02T13:57:36.989Z</time></trkpt><trkpt lat="44.8047267" lon="9.4830667"><ele>451.33333333333337</ele><time>2026-05-02T13:57:37.989Z</time></trkpt><trkpt lat="44.804685" lon="9.4831483"><ele>448.6666666666667</ele><time>2026-05-02T13:57:38.99Z</time></trkpt><trkpt lat="44.804655" lon="9.4832333"><ele>446.0</ele><time>2026-05-02T13:57:39.99Z</time></trkpt><trkpt lat="44.80464" lon="9.48332"><ele>443.33333333333337</ele><time>2026-05-02T13:57:40.989Z</time></trkpt><trkpt lat="44.804665" lon="9.483485"><ele>440.6666666666667</ele><time>2026-05-02T13:57:42.989Z</time></trkpt><trkpt lat="44.8047317" lon="9.483615"><ele>438.0</ele><time>2026-05-02T13:57:44.989Z</time></trkpt><trkpt lat="44.8047617" lon="9.4837183"><ele>435.3333333333333</ele><time>2026-05-02T13:57:46.99Z</time></trkpt><trkpt lat="44.8047083" lon="9.4838167"><ele>432.66666666666663</ele><time>2026-05-02T13:57:49.99Z</time></trkpt><trkpt lat="44.804635" lon="9.4838767"><ele>430.0</ele><time>2026-05-02T13:57:52.99Z</time></trkpt><trkpt lat="44.804575" lon="9.48395"><ele>427.3333333333333</ele><time>2026-05-02T13:57:54.989Z</time></trkpt><trkpt lat="44.8044833" lon="9.4840633"><ele>424.66666666666663</ele><time>2026-05-02T13:57:56.989Z</time></trkpt><trkpt lat="44.8044283" lon="9.48413"><ele>422.0</ele><time>2026-05-02T13:57:57.991Z</time></trkpt><trkpt lat="44.8043833" lon="9.4842083"><ele>422.0</ele><time>2026-05-02T13:57:58.989Z</time></trkpt><trkpt lat="44.8043467" lon="9.4843"><ele>422.0</ele><time>2026-05-02T13:57:59.989Z</time></trkpt><trkpt lat="44.8042983" lon="9.4844683"><ele>422.0</ele><time>2026-05-02T13:58:01.989Z</time></trkpt><trkpt lat="44.80425" lon="9.4846183"><ele>422.0</ele><time>2026-05-02T13:58:03.99Z</time></trkpt><trkpt lat="44.80422" lon="9.4847067"><ele>422.0</ele><time>2026-05-02T13:58:04.989Z</time></trkpt><trkpt lat="44.8041783" lon="9.4847817"><ele>422.8</ele><time>2026-05-02T13:58:05.989Z</time></trkpt><trkpt lat="44.8041233" lon="9.48485"><ele>423.6</ele><time>2026-05-02T13:58:06.989Z</time></trkpt><trkpt lat="44.8040133" lon="9.4849567"><ele>424.40000000000003</ele><time>2026-05-02T13:58:08.989Z</time></trkpt><trkpt lat="44.80395" lon="9.4850317"><ele>425.20000000000005</ele><time>2026-05-02T13:58:09.99Z</time></trkpt><trkpt lat="44.8038717" lon="9.4851283"><ele>426.0</ele><time>2026-05-02T13:58:10.989Z</time></trkpt><trkpt lat="44.8038017" lon="9.485205"><ele>426.0</ele><time>2026-05-02T13:58:11.99Z</time></trkpt><trkpt lat="44.80373" lon="9.4852967"><ele>426.0</ele><time>2026-05-02T13:58:12.99Z</time></trkpt><trkpt lat="44.8036533" lon="9.4854217"><ele>426.0</ele><time>2026-05-02T13:58:13.989Z</time></trkpt><trkpt lat="44.80359" lon="9.4855183"><ele>426.0</ele><time>2026-05-02T13:58:14.991Z</time></trkpt><trkpt lat="44.80352" lon="9.4856033"><ele>426.0</ele><time>2026-05-02T13:58:15.989Z</time></trkpt><trkpt lat="44.8034483" lon="9.4856667"><ele>424.1666666666667</ele><time>2026-05-02T13:58:16.989Z</time></trkpt><trkpt lat="44.80337" lon="9.4857083"><ele>422.33333333333337</ele><time>2026-05-02T13:58:17.989Z</time></trkpt><trkpt lat="44.8033017" lon="9.4857517"><ele>420.5</ele><time>2026-05-02T13:58:18.989Z</time></trkpt><trkpt lat="44.8032383" lon="9.4858067"><ele>418.6666666666667</ele><time>2026-05-02T13:58:19.989Z</time></trkpt><trkpt lat="44.80318" lon="9.4859"><ele>416.83333333333337</ele><time>2026-05-02T13:58:20.989Z</time></trkpt><trkpt lat="44.8031233" lon="9.4859683"><ele>415.0</ele><time>2026-05-02T13:58:21.989Z</time></trkpt><trkpt lat="44.8030533" lon="9.486025"><ele>415.00000000000006</ele><time>2026-05-02T13:58:22.989Z</time></trkpt><trkpt lat="44.8029767" lon="9.4860617"><ele>415.0</ele><time>2026-05-02T13:58:23.989Z</time></trkpt><trkpt lat="44.8028983" lon="9.4860917"><ele>415.0</ele><time>2026-05-02T13:58:24.989Z</time></trkpt><trkpt lat="44.8028333" lon="9.4861367"><ele>415.0</ele><time>2026-05-02T13:58:25.988Z</time></trkpt><trkpt lat="44.8027767" lon="9.4862"><ele>415.00000000000006</ele><time>2026-05-02T13:58:26.989Z</time></trkpt><trkpt lat="44.8027433" lon="9.4862783"><ele>415.0</ele><time>2026-05-02T13:58:27.99Z</time></trkpt><trkpt lat="44.802725" lon="9.4864267"><ele>414.50000000000006</ele><time>2026-05-02T13:58:29.991Z</time></trkpt><trkpt lat="44.8027583" lon="9.4865583"><ele>414.0</ele><time>2026-05-02T13:58:31.99Z</time></trkpt><trkpt lat="44.8028417" lon="9.4866283"><ele>413.5</ele><time>2026-05-02T13:58:33.99Z</time></trkpt><trkpt lat="44.8029217" lon="9.4866567"><ele>413.0</ele><time>2026-05-02T13:58:34.989Z</time></trkpt><trkpt lat="44.8030017" lon="9.486685"><ele>412.50000000000006</ele><time>2026-05-02T13:58:35.989Z</time></trkpt><trkpt lat="44.803085" lon="9.486725"><ele>412.0</ele><time>2026-05-02T13:58:36.989Z</time></trkpt><trkpt lat="44.8031667" lon="9.4867817"><ele>412.00000000000006</ele><time>2026-05-02T13:58:37.99Z</time></trkpt><trkpt lat="44.8032467" lon="9.48685"><ele>412.0</ele><time>2026-05-02T13:58:38.991Z</time></trkpt><trkpt lat="44.803325" lon="9.4869167"><ele>412.0</ele><time>2026-05-02T13:58:39.989Z</time></trkpt><trkpt lat="44.8033983" lon="9.4869683"><ele>412.0</ele><time>2026-05-02T13:58:40.99Z</time></trkpt><trkpt lat="44.803475" lon="9.4870133"><ele>412.00000000000006</ele><time>2026-05-02T13:58:41.989Z</time></trkpt><trkpt lat="44.8035483" lon="9.487055"><ele>412.0</ele><time>2026-05-02T13:58:42.989Z</time></trkpt><trkpt lat="44.8036367" lon="9.4871017"><ele>412.83333333333337</ele><time>2026-05-02T13:58:43.99Z</time></trkpt><trkpt lat="44.8037133" lon="9.487165"><ele>413.6666666666667</ele><time>2026-05-02T13:58:44.989Z</time></trkpt><trkpt lat="44.803795" lon="9.4872333"><ele>414.5</ele><time>2026-05-02T13:58:45.989Z</time></trkpt><trkpt lat="44.8038733" lon="9.4872983"><ele>415.33333333333337</ele><time>2026-05-02T13:58:46.989Z</time></trkpt><trkpt lat="44.8039433" lon="9.4873533"><ele>416.1666666666667</ele><time>2026-05-02T13:58:47.991Z</time></trkpt><trkpt lat="44.80401" lon="9.4874017"><ele>417.0</ele><time>2026-05-02T13:58:48.991Z</time></trkpt><trkpt lat="44.8040767" lon="9.4874367"><ele>417.0</ele><time>2026-05-02T13:58:49.99Z</time></trkpt><trkpt lat="44.8041517" lon="9.4874633"><ele>417.0</ele><time>2026-05-02T13:58:50.99Z</time></trkpt><trkpt lat="44.8042267" lon="9.4874733"><ele>417.0</ele><time>2026-05-02T13:58:51.989Z</time></trkpt><trkpt lat="44.8043017" lon="9.48747"><ele>417.0</ele><time>2026-05-02T13:58:52.989Z</time></trkpt><trkpt lat="44.8043683" lon="9.487445"><ele>417.0</ele><time>2026-05-02T13:58:53.989Z</time></trkpt><trkpt lat="44.804445" lon="9.4874133"><ele>417.0</ele><time>2026-05-02T13:58:54.989Z</time></trkpt><trkpt lat="44.8045183" lon="9.4873883"><ele>415.5714285714286</ele><time>2026-05-02T13:58:55.989Z</time></trkpt><trkpt lat="44.8045883" lon="9.4873767"><ele>414.1428571428571</ele><time>2026-05-02T13:58:56.989Z</time></trkpt><trkpt lat="44.8046583" lon="9.487375"><ele>412.7142857142857</ele><time>2026-05-02T13:58:57.989Z</time></trkpt><trkpt lat="44.804725" lon="9.4874"><ele>411.28571428571433</ele><time>2026-05-02T13:58:58.989Z</time></trkpt><trkpt lat="44.8047917" lon="9.4874617"><ele>409.8571428571429</ele><time>2026-05-02T13:58:59.989Z</time></trkpt><trkpt lat="44.8048567" lon="9.4875383"><ele>408.42857142857144</ele><time>2026-05-02T13:59:00.989Z</time></trkpt><trkpt lat="44.8049083" lon="9.4876067"><ele>407.0</ele><time>2026-05-02T13:59:01.989Z</time></trkpt><trkpt lat="44.8049783" lon="9.4877117"><ele>407.0</ele><time>2026-05-02T13:59:03.989Z</time></trkpt><trkpt lat="44.8050283" lon="9.4877733"><ele>407.0</ele><time>2026-05-02T13:59:05.99Z</time></trkpt><trkpt lat="44.8050983" lon="9.487805"><ele>407.0</ele><time>2026-05-02T13:59:07.989Z</time></trkpt><trkpt lat="44.8052067" lon="9.4878333"><ele>407.0</ele><time>2026-05-02T13:59:09.99Z</time></trkpt><trkpt lat="44.8053367" lon="9.4878167"><ele>407.0</ele><time>2026-05-02T13:59:11.99Z</time></trkpt><trkpt lat="44.8054183" lon="9.4877917"><ele>404.6</ele><time>2026-05-02T13:59:12.989Z</time></trkpt><trkpt lat="44.805505" lon="9.4877767"><ele>402.20000000000005</ele><time>2026-05-02T13:59:13.989Z</time></trkpt><trkpt lat="44.8056" lon="9.487775"><ele>399.8</ele><time>2026-05-02T13:59:14.992Z</time></trkpt><trkpt lat="44.80569" lon="9.4877917"><ele>397.4</ele><time>2026-05-02T13:59:15.991Z</time></trkpt><trkpt lat="44.805775" lon="9.4878217"><ele>395.0</ele><time>2026-05-02T13:59:16.99Z</time></trkpt><trkpt lat="44.805865" lon="9.48786"><ele>394.99999999999994</ele><time>2026-05-02T13:59:17.99Z</time></trkpt><trkpt lat="44.805945" lon="9.4879017"><ele>395.0</ele><time>2026-05-02T13:59:18.99Z</time></trkpt><trkpt lat="44.8060233" lon="9.4879433"><ele>395.0</ele><time>2026-05-02T13:59:19.99Z</time></trkpt><trkpt lat="44.8060917" lon="9.48799"><ele>395.0</ele><time>2026-05-02T13:59:20.991Z</time></trkpt><trkpt lat="44.8061683" lon="9.48804"><ele>394.99999999999994</ele><time>2026-05-02T13:59:21.99Z</time></trkpt><trkpt lat="44.8062433" lon="9.4880733"><ele>395.0</ele><time>2026-05-02T13:59:22.99Z</time></trkpt><trkpt lat="44.8063217" lon="9.488105"><ele>393.8333333333333</ele><time>2026-05-02T13:59:23.991Z</time></trkpt><trkpt lat="44.8063983" lon="9.4881217"><ele>392.66666666666663</ele><time>2026-05-02T13:59:24.99Z</time></trkpt><trkpt lat="44.8064767" lon="9.4881167"><ele>391.5</ele><time>2026-05-02T13:59:25.989Z</time></trkpt><trkpt lat="44.8065583" lon="9.4880933"><ele>390.33333333333337</ele><time>2026-05-02T13:59:26.99Z</time></trkpt><trkpt lat="44.8066433" lon="9.4880567"><ele>389.1666666666667</ele><time>2026-05-02T13:59:27.99Z</time></trkpt><trkpt lat="44.80673" lon="9.488015"><ele>388.0</ele><time>2026-05-02T13:59:28.989Z</time></trkpt><trkpt lat="44.80682" lon="9.48799"><ele>386.1666666666667</ele><time>2026-05-02T13:59:29.989Z</time></trkpt><trkpt lat="44.80691" lon="9.4879867"><ele>384.33333333333337</ele><time>2026-05-02T13:59:30.989Z</time></trkpt><trkpt lat="44.807" lon="9.488005"><ele>382.5</ele><time>2026-05-02T13:59:31.989Z</time></trkpt><trkpt lat="44.8070883" lon="9.48803"><ele>380.6666666666667</ele><time>2026-05-02T13:59:32.989Z</time></trkpt><trkpt lat="44.8071733" lon="9.4880583"><ele>378.83333333333337</ele><time>2026-05-02T13:59:33.989Z</time></trkpt><trkpt lat="44.807255" lon="9.488095"><ele>377.0</ele><time>2026-05-02T13:59:34.989Z</time></trkpt><trkpt lat="44.8073367" lon="9.4881417"><ele>377.0</ele><time>2026-05-02T13:59:35.989Z</time></trkpt><trkpt lat="44.807415" lon="9.4881967"><ele>377.0</ele><time>2026-05-02T13:59:36.99Z</time></trkpt><trkpt lat="44.8074833" lon="9.488265"><ele>377.0</ele><time>2026-05-02T13:59:37.989Z</time></trkpt><trkpt lat="44.8075383" lon="9.48834"><ele>377.0</ele><time>2026-05-02T13:59:38.99Z</time></trkpt><trkpt lat="44.807585" lon="9.4884317"><ele>377.0</ele><time>2026-05-02T13:59:39.989Z</time></trkpt><trkpt lat="44.807615" lon="9.4885267"><ele>377.0</ele><time>2026-05-02T13:59:40.99Z</time></trkpt><trkpt lat="44.8076417" lon="9.48862"><ele>375.83333333333337</ele><time>2026-05-02T13:59:41.991Z</time></trkpt><trkpt lat="44.8076667" lon="9.4887067"><ele>374.6666666666667</ele><time>2026-05-02T13:59:42.989Z</time></trkpt><trkpt lat="44.8077033" lon="9.4887833"><ele>373.5</ele><time>2026-05-02T13:59:43.989Z</time></trkpt><trkpt lat="44.8078" lon="9.48889"><ele>372.3333333333333</ele><time>2026-05-02T13:59:45.99Z</time></trkpt><trkpt lat="44.8078933" lon="9.488965"><ele>371.16666666666663</ele><time>2026-05-02T13:59:47.991Z</time></trkpt><trkpt lat="44.8079167" lon="9.489075"><ele>370.0</ele><time>2026-05-02T13:59:49.991Z</time></trkpt><trkpt lat="44.8079" lon="9.489195"><ele>370.0</ele><time>2026-05-02T13:59:51.99Z</time></trkpt><trkpt lat="44.8078867" lon="9.4893217"><ele>370.0</ele><time>2026-05-02T13:59:53.991Z</time></trkpt><trkpt lat="44.80787" lon="9.4894717"><ele>370.0</ele><time>2026-05-02T13:59:55.989Z</time></trkpt><trkpt lat="44.8078267" lon="9.4895983"><ele>370.0</ele><time>2026-05-02T13:59:57.989Z</time></trkpt><trkpt lat="44.8077717" lon="9.4896583"><ele>370.0</ele><time>2026-05-02T13:59:58.991Z</time></trkpt><trkpt lat="44.8076917" lon="9.4897217"><ele>371.6</ele><time>2026-05-02T13:59:59.99Z</time></trkpt><trkpt lat="44.8076017" lon="9.4897767"><ele>373.2</ele><time>2026-05-02T14:00:00.991Z</time></trkpt><trkpt lat="44.8075117" lon="9.4898217"><ele>374.79999999999995</ele><time>2026-05-02T14:00:01.991Z</time></trkpt><trkpt lat="44.80742" lon="9.48986"><ele>376.4</ele><time>2026-05-02T14:00:02.991Z</time></trkpt><trkpt lat="44.80733" lon="9.4898917"><ele>378.0</ele><time>2026-05-02T14:00:03.992Z</time></trkpt><trkpt lat="44.80724" lon="9.48992"><ele>378.0</ele><time>2026-05-02T14:00:04.991Z</time></trkpt><trkpt lat="44.8071567" lon="9.48995"><ele>378.0</ele><time>2026-05-02T14:00:05.991Z</time></trkpt><trkpt lat="44.807075" lon="9.4899867"><ele>378.0</ele><time>2026-05-02T14:00:06.991Z</time></trkpt><trkpt lat="44.807" lon="9.49003"><ele>378.0</ele><time>2026-05-02T14:00:07.991Z</time></trkpt><trkpt lat="44.8069283" lon="9.4900867"><ele>378.0</ele><time>2026-05-02T14:00:08.991Z</time></trkpt><trkpt lat="44.8068717" lon="9.4901583"><ele>378.0</ele><time>2026-05-02T14:00:09.992Z</time></trkpt><trkpt lat="44.8068283" lon="9.4902583"><ele>378.5</ele><time>2026-05-02T14:00:10.99Z</time></trkpt><trkpt lat="44.806795" lon="9.49036"><ele>379.0</ele><time>2026-05-02T14:00:11.991Z</time></trkpt><trkpt lat="44.80676" lon="9.4904633"><ele>379.5</ele><time>2026-05-02T14:00:12.989Z</time></trkpt><trkpt lat="44.8067167" lon="9.4905733"><ele>380.0</ele><time>2026-05-02T14:00:13.99Z</time></trkpt><trkpt lat="44.80667" lon="9.4906783"><ele>380.5</ele><time>2026-05-02T14:00:14.99Z</time></trkpt><trkpt lat="44.8066233" lon="9.490785"><ele>381.0</ele><time>2026-05-02T14:00:15.99Z</time></trkpt><trkpt lat="44.8065683" lon="9.4909067"><ele>381.0</ele><time>2026-05-02T14:00:16.99Z</time></trkpt><trkpt lat="44.8065133" lon="9.49101"><ele>381.0</ele><time>2026-05-02T14:00:17.989Z</time></trkpt><trkpt lat="44.806455" lon="9.4911033"><ele>381.0</ele><time>2026-05-02T14:00:18.989Z</time></trkpt><trkpt lat="44.80639" lon="9.4912"><ele>381.0</ele><time>2026-05-02T14:00:19.99Z</time></trkpt><trkpt lat="44.8063333" lon="9.4913033"><ele>381.0</ele><time>2026-05-02T14:00:20.991Z</time></trkpt><trkpt lat="44.8062767" lon="9.4913933"><ele>381.0</ele><time>2026-05-02T14:00:21.989Z</time></trkpt><trkpt lat="44.8062167" lon="9.4914983"><ele>381.0</ele><time>2026-05-02T14:00:22.99Z</time></trkpt><trkpt lat="44.8061583" lon="9.4915533"><ele>381.0</ele><time>2026-05-02T14:00:23.99Z</time></trkpt><trkpt lat="44.806085" lon="9.491625"><ele>381.0</ele><time>2026-05-02T14:00:24.989Z</time></trkpt><trkpt lat="44.8060067" lon="9.4916667"><ele>381.0</ele><time>2026-05-02T14:00:25.989Z</time></trkpt><trkpt lat="44.80593" lon="9.4916933"><ele>381.0</ele><time>2026-05-02T14:00:26.99Z</time></trkpt><trkpt lat="44.8058517" lon="9.4916933"><ele>381.0</ele><time>2026-05-02T14:00:27.989Z</time></trkpt><trkpt lat="44.80578" lon="9.4916667"><ele>381.0</ele><time>2026-05-02T14:00:28.989Z</time></trkpt><trkpt lat="44.8057133" lon="9.4916233"><ele>381.0</ele><time>2026-05-02T14:00:29.989Z</time></trkpt><trkpt lat="44.8056467" lon="9.4915733"><ele>381.0</ele><time>2026-05-02T14:00:30.989Z</time></trkpt><trkpt lat="44.805575" lon="9.4915017"><ele>381.0</ele><time>2026-05-02T14:00:31.99Z</time></trkpt><trkpt lat="44.8055083" lon="9.4914317"><ele>381.0</ele><time>2026-05-02T14:00:32.991Z</time></trkpt><trkpt lat="44.8054367" lon="9.49138"><ele>381.0</ele><time>2026-05-02T14:00:33.99Z</time></trkpt><trkpt lat="44.8053617" lon="9.4913383"><ele>381.0</ele><time>2026-05-02T14:00:34.992Z</time></trkpt><trkpt lat="44.8052833" lon="9.4913183"><ele>381.0</ele><time>2026-05-02T14:00:35.992Z</time></trkpt><trkpt lat="44.8052" lon="9.4913283"><ele>381.0</ele><time>2026-05-02T14:00:36.991Z</time></trkpt><trkpt lat="44.8051233" lon="9.491345"><ele>381.0</ele><time>2026-05-02T14:00:37.989Z</time></trkpt><trkpt lat="44.8050567" lon="9.4913833"><ele>381.0</ele><time>2026-05-02T14:00:38.992Z</time></trkpt><trkpt lat="44.8049917" lon="9.4914417"><ele>383.0</ele><time>2026-05-02T14:00:39.991Z</time></trkpt><trkpt lat="44.80493" lon="9.4914983"><ele>385.0</ele><time>2026-05-02T14:00:40.991Z</time></trkpt><trkpt lat="44.8048267" lon="9.491585"><ele>387.0</ele><time>2026-05-02T14:00:42.99Z</time></trkpt><trkpt lat="44.8047767" lon="9.4917"><ele>389.0</ele><time>2026-05-02T14:00:44.992Z</time></trkpt><trkpt lat="44.8047767" lon="9.4918183"><ele>391.0</ele><time>2026-05-02T14:00:46.993Z</time></trkpt><trkpt lat="44.804805" lon="9.49197"><ele>391.0</ele><time>2026-05-02T14:00:48.991Z</time></trkpt><trkpt lat="44.8049" lon="9.4920467"><ele>391.0</ele><time>2026-05-02T14:00:50.991Z</time></trkpt><trkpt lat="44.8049783" lon="9.4920683"><ele>391.0</ele><time>2026-05-02T14:00:51.989Z</time></trkpt><trkpt lat="44.8050717" lon="9.49209"><ele>391.0</ele><time>2026-05-02T14:00:52.989Z</time></trkpt><trkpt lat="44.8051533" lon="9.49212"><ele>391.0</ele><time>2026-05-02T14:00:53.991Z</time></trkpt><trkpt lat="44.8052367" lon="9.4921533"><ele>390.1666666666667</ele><time>2026-05-02T14:00:54.99Z</time></trkpt><trkpt lat="44.8053233" lon="9.492185"><ele>389.33333333333337</ele><time>2026-05-02T14:00:55.989Z</time></trkpt><trkpt lat="44.80541" lon="9.492225"><ele>388.5</ele><time>2026-05-02T14:00:56.989Z</time></trkpt><trkpt lat="44.8054867" lon="9.4922683"><ele>387.66666666666663</ele><time>2026-05-02T14:00:57.989Z</time></trkpt><trkpt lat="44.8055533" lon="9.49232"><ele>386.8333333333333</ele><time>2026-05-02T14:00:58.989Z</time></trkpt><trkpt lat="44.8056083" lon="9.49238"><ele>386.0</ele><time>2026-05-02T14:00:59.99Z</time></trkpt><trkpt lat="44.8056517" lon="9.4924467"><ele>385.99999999999994</ele><time>2026-05-02T14:01:00.99Z</time></trkpt><trkpt lat="44.8056967" lon="9.4925283"><ele>386.0</ele><time>2026-05-02T14:01:01.989Z</time></trkpt><trkpt lat="44.8057533" lon="9.4926"><ele>386.0</ele><time>2026-05-02T14:01:02.989Z</time></trkpt><trkpt lat="44.805815" lon="9.492665"><ele>386.0</ele><time>2026-05-02T14:01:03.989Z</time></trkpt><trkpt lat="44.8058817" lon="9.492735"><ele>385.99999999999994</ele><time>2026-05-02T14:01:04.989Z</time></trkpt><trkpt lat="44.8059433" lon="9.4928083"><ele>386.0</ele><time>2026-05-02T14:01:05.989Z</time></trkpt><trkpt lat="44.806" lon="9.4928883"><ele>385.8333333333333</ele><time>2026-05-02T14:01:06.989Z</time></trkpt><trkpt lat="44.8060617" lon="9.4929683"><ele>385.66666666666663</ele><time>2026-05-02T14:01:07.99Z</time></trkpt><trkpt lat="44.8061233" lon="9.4930367"><ele>385.5</ele><time>2026-05-02T14:01:08.99Z</time></trkpt><trkpt lat="44.80619" lon="9.4930983"><ele>385.33333333333337</ele><time>2026-05-02T14:01:09.989Z</time></trkpt><trkpt lat="44.8062583" lon="9.4931517"><ele>385.1666666666667</ele><time>2026-05-02T14:01:10.99Z</time></trkpt><trkpt lat="44.8063267" lon="9.4931883"><ele>385.0</ele><time>2026-05-02T14:01:11.989Z</time></trkpt><trkpt lat="44.806405" lon="9.4932167"><ele>385.00000000000006</ele><time>2026-05-02T14:01:12.989Z</time></trkpt><trkpt lat="44.8064783" lon="9.493245"><ele>385.0</ele><time>2026-05-02T14:01:13.99Z</time></trkpt><trkpt lat="44.8065567" lon="9.49328"><ele>385.0</ele><time>2026-05-02T14:01:14.989Z</time></trkpt><trkpt lat="44.80663" lon="9.493325"><ele>385.0</ele><time>2026-05-02T14:01:15.989Z</time></trkpt><trkpt lat="44.8067" lon="9.4933783"><ele>385.00000000000006</ele><time>2026-05-02T14:01:16.99Z</time></trkpt><trkpt lat="44.806765" lon="9.4934567"><ele>385.0</ele><time>2026-05-02T14:01:17.989Z</time></trkpt><trkpt lat="44.8068233" lon="9.49354"><ele>384.2857142857143</ele><time>2026-05-02T14:01:18.99Z</time></trkpt><trkpt lat="44.8068817" lon="9.49363"><ele>383.57142857142856</ele><time>2026-05-02T14:01:19.989Z</time></trkpt><trkpt lat="44.806935" lon="9.4936967"><ele>382.8571428571429</ele><time>2026-05-02T14:01:20.99Z</time></trkpt><trkpt lat="44.80699" lon="9.49375"><ele>382.1428571428571</ele><time>2026-05-02T14:01:21.991Z</time></trkpt><trkpt lat="44.807045" lon="9.493795"><ele>381.42857142857144</ele><time>2026-05-02T14:01:22.989Z</time></trkpt><trkpt lat="44.8071017" lon="9.4938417"><ele>380.7142857142857</ele><time>2026-05-02T14:01:23.991Z</time></trkpt><trkpt lat="44.8071617" lon="9.4938883"><ele>380.0</ele><time>2026-05-02T14:01:24.991Z</time></trkpt><trkpt lat="44.8072333" lon="9.49393"><ele>380.0</ele><time>2026-05-02T14:01:25.989Z</time></trkpt><trkpt lat="44.807305" lon="9.493975"><ele>380.0</ele><time>2026-05-02T14:01:26.989Z</time></trkpt><trkpt lat="44.8073817" lon="9.494025"><ele>380.0</ele><time>2026-05-02T14:01:27.989Z</time></trkpt><trkpt lat="44.8074683" lon="9.49408"><ele>380.0</ele><time>2026-05-02T14:01:28.989Z</time></trkpt><trkpt lat="44.8075567" lon="9.4941283"><ele>380.0</ele><time>2026-05-02T14:01:29.99Z</time></trkpt><trkpt lat="44.8076417" lon="9.4941633"><ele>380.0</ele><time>2026-05-02T14:01:30.989Z</time></trkpt><trkpt lat="44.8077283" lon="9.4941933"><ele>377.6</ele><time>2026-05-02T14:01:31.991Z</time></trkpt><trkpt lat="44.8078117" lon="9.4942183"><ele>375.2</ele><time>2026-05-02T14:01:32.992Z</time></trkpt><trkpt lat="44.80791" lon="9.494225"><ele>372.79999999999995</ele><time>2026-05-02T14:01:33.991Z</time></trkpt><trkpt lat="44.80801" lon="9.49423"><ele>370.4</ele><time>2026-05-02T14:01:34.991Z</time></trkpt><trkpt lat="44.8081067" lon="9.4942367"><ele>368.0</ele><time>2026-05-02T14:01:35.992Z</time></trkpt><trkpt lat="44.808205" lon="9.4942483"><ele>368.0</ele><time>2026-05-02T14:01:36.992Z</time></trkpt><trkpt lat="44.8082967" lon="9.4942617"><ele>368.0</ele><time>2026-05-02T14:01:37.991Z</time></trkpt><trkpt lat="44.80839" lon="9.4942717"><ele>368.0</ele><time>2026-05-02T14:01:38.992Z</time></trkpt><trkpt lat="44.8084883" lon="9.4942767"><ele>368.0</ele><time>2026-05-02T14:01:39.99Z</time></trkpt><trkpt lat="44.8085883" lon="9.4942817"><ele>368.0</ele><time>2026-05-02T14:01:40.993Z</time></trkpt><trkpt lat="44.80869" lon="9.4942933"><ele>365.79999999999995</ele><time>2026-05-02T14:01:41.989Z</time></trkpt><trkpt lat="44.8087917" lon="9.4943083"><ele>363.6</ele><time>2026-05-02T14:01:42.99Z</time></trkpt><trkpt lat="44.8088933" lon="9.4943283"><ele>361.4</ele><time>2026-05-02T14:01:43.989Z</time></trkpt><trkpt lat="44.8089933" lon="9.494355"><ele>359.20000000000005</ele><time>2026-05-02T14:01:44.99Z</time></trkpt><trkpt lat="44.80909" lon="9.4943833"><ele>357.0</ele><time>2026-05-02T14:01:45.989Z</time></trkpt><trkpt lat="44.8091817" lon="9.4944"><ele>357.0</ele><time>2026-05-02T14:01:46.989Z</time></trkpt><trkpt lat="44.8092733" lon="9.4943933"><ele>357.0</ele><time>2026-05-02T14:01:47.99Z</time></trkpt><trkpt lat="44.8093667" lon="9.4943633"><ele>357.0</ele><time>2026-05-02T14:01:48.989Z</time></trkpt><trkpt lat="44.8094617" lon="9.4943267"><ele>357.0</ele><time>2026-05-02T14:01:49.99Z</time></trkpt><trkpt lat="44.80955" lon="9.494305"><ele>357.0</ele><time>2026-05-02T14:01:50.989Z</time></trkpt><trkpt lat="44.809635" lon="9.494305"><ele>355.6</ele><time>2026-05-02T14:01:51.99Z</time></trkpt><trkpt lat="44.8097217" lon="9.4943383"><ele>354.20000000000005</ele><time>2026-05-02T14:01:52.989Z</time></trkpt><trkpt lat="44.8098083" lon="9.4943933"><ele>352.8</ele><time>2026-05-02T14:01:53.989Z</time></trkpt><trkpt lat="44.809895" lon="9.4944467"><ele>351.4</ele><time>2026-05-02T14:01:54.99Z</time></trkpt><trkpt lat="44.8099817" lon="9.4944883"><ele>350.0</ele><time>2026-05-02T14:01:55.989Z</time></trkpt><trkpt lat="44.810065" lon="9.4945167"><ele>350.0</ele><time>2026-05-02T14:01:56.99Z</time></trkpt><trkpt lat="44.810145" lon="9.4945383"><ele>350.0</ele><time>2026-05-02T14:01:57.991Z</time></trkpt><trkpt lat="44.8102233" lon="9.4945583"><ele>350.0</ele><time>2026-05-02T14:01:58.99Z</time></trkpt><trkpt lat="44.8103033" lon="9.49458"><ele>350.0</ele><time>2026-05-02T14:01:59.989Z</time></trkpt><trkpt lat="44.8103817" lon="9.49461"><ele>350.0</ele><time>2026-05-02T14:02:00.99Z</time></trkpt><trkpt lat="44.8104567" lon="9.4946483"><ele>350.0</ele><time>2026-05-02T14:02:01.99Z</time></trkpt><trkpt lat="44.8105283" lon="9.4946883"><ele>348.1666666666667</ele><time>2026-05-02T14:02:02.992Z</time></trkpt><trkpt lat="44.8106" lon="9.49473"><ele>346.33333333333337</ele><time>2026-05-02T14:02:03.989Z</time></trkpt><trkpt lat="44.8106733" lon="9.4947733"><ele>344.5</ele><time>2026-05-02T14:02:04.99Z</time></trkpt><trkpt lat="44.81074" lon="9.4948183"><ele>342.6666666666667</ele><time>2026-05-02T14:02:05.99Z</time></trkpt><trkpt lat="44.810845" lon="9.4948733"><ele>340.8333333333333</ele><time>2026-05-02T14:02:07.991Z</time></trkpt><trkpt lat="44.8109133" lon="9.4949433"><ele>339.0</ele><time>2026-05-02T14:02:10.989Z</time></trkpt><trkpt lat="44.810895" lon="9.4950417"><ele>339.0</ele><time>2026-05-02T14:02:12.99Z</time></trkpt><trkpt lat="44.8108817" lon="9.495205"><ele>339.0</ele><time>2026-05-02T14:02:14.989Z</time></trkpt><trkpt lat="44.810885" lon="9.4953033"><ele>339.0</ele><time>2026-05-02T14:02:15.989Z</time></trkpt><trkpt lat="44.8109033" lon="9.4954217"><ele>339.0</ele><time>2026-05-02T14:02:16.989Z</time></trkpt><trkpt lat="44.810925" lon="9.4955533"><ele>339.0</ele><time>2026-05-02T14:02:17.99Z</time></trkpt><trkpt lat="44.8109367" lon="9.4956917"><ele>339.2</ele><time>2026-05-02T14:02:18.989Z</time></trkpt><trkpt lat="44.81095" lon="9.4958283"><ele>339.4</ele><time>2026-05-02T14:02:19.991Z</time></trkpt><trkpt lat="44.8109633" lon="9.4959617"><ele>339.6</ele><time>2026-05-02T14:02:20.99Z</time></trkpt><trkpt lat="44.8109933" lon="9.4961117"><ele>339.8</ele><time>2026-05-02T14:02:21.99Z</time></trkpt><trkpt lat="44.81103" lon="9.4962733"><ele>340.0</ele><time>2026-05-02T14:02:22.989Z</time></trkpt><trkpt lat="44.8110617" lon="9.49644"><ele>337.8</ele><time>2026-05-02T14:02:23.991Z</time></trkpt><trkpt lat="44.8110883" lon="9.4966017"><ele>335.6</ele><time>2026-05-02T14:02:24.989Z</time></trkpt><trkpt lat="44.8111133" lon="9.4967433"><ele>333.4</ele><time>2026-05-02T14:02:25.99Z</time></trkpt><trkpt lat="44.81115" lon="9.4968633"><ele>331.2</ele><time>2026-05-02T14:02:26.989Z</time></trkpt><trkpt lat="44.811205" lon="9.49697"><ele>329.0</ele><time>2026-05-02T14:02:27.99Z</time></trkpt><trkpt lat="44.8112867" lon="9.4970667"><ele>330.6</ele><time>2026-05-02T14:02:28.989Z</time></trkpt><trkpt lat="44.811375" lon="9.4971567"><ele>332.2</ele><time>2026-05-02T14:02:29.99Z</time></trkpt><trkpt lat="44.8114533" lon="9.4972417"><ele>333.8</ele><time>2026-05-02T14:02:30.989Z</time></trkpt><trkpt lat="44.811515" lon="9.4973233"><ele>335.40000000000003</ele><time>2026-05-02T14:02:31.99Z</time></trkpt><trkpt lat="44.8115483" lon="9.4974017"><ele>337.0</ele><time>2026-05-02T14:02:32.99Z</time></trkpt><trkpt lat="44.8115317" lon="9.4975617"><ele>337.0</ele><time>2026-05-02T14:02:34.992Z</time></trkpt><trkpt lat="44.8114833" lon="9.49766"><ele>337.0</ele><time>2026-05-02T14:02:35.992Z</time></trkpt><trkpt lat="44.8114233" lon="9.4977733"><ele>337.0</ele><time>2026-05-02T14:02:36.993Z</time></trkpt><trkpt lat="44.8113717" lon="9.4978883"><ele>337.0</ele><time>2026-05-02T14:02:37.992Z</time></trkpt><trkpt lat="44.811325" lon="9.4980017"><ele>337.0</ele><time>2026-05-02T14:02:38.992Z</time></trkpt><trkpt lat="44.8112783" lon="9.4981083"><ele>338.42857142857144</ele><time>2026-05-02T14:02:39.991Z</time></trkpt><trkpt lat="44.8112367" lon="9.4982117"><ele>339.8571428571429</ele><time>2026-05-02T14:02:40.992Z</time></trkpt><trkpt lat="44.8112133" lon="9.4983083"><ele>341.28571428571433</ele><time>2026-05-02T14:02:41.99Z</time></trkpt><trkpt lat="44.8112133" lon="9.4984"><ele>342.7142857142857</ele><time>2026-05-02T14:02:42.99Z</time></trkpt><trkpt lat="44.8112367" lon="9.4984867"><ele>344.1428571428571</ele><time>2026-05-02T14:02:43.99Z</time></trkpt><trkpt lat="44.811285" lon="9.4985583"><ele>345.5714285714286</ele><time>2026-05-02T14:02:44.989Z</time></trkpt><trkpt lat="44.8113567" lon="9.49862"><ele>347.0</ele><time>2026-05-02T14:02:45.989Z</time></trkpt><trkpt lat="44.8114517" lon="9.4986567"><ele>347.0</ele><time>2026-05-02T14:02:46.989Z</time></trkpt><trkpt lat="44.8115433" lon="9.4986833"><ele>347.0</ele><time>2026-05-02T14:02:47.989Z</time></trkpt><trkpt lat="44.8116467" lon="9.4987017"><ele>347.0</ele><time>2026-05-02T14:02:48.989Z</time></trkpt><trkpt lat="44.8117467" lon="9.4987283"><ele>347.0</ele><time>2026-05-02T14:02:49.989Z</time></trkpt><trkpt lat="44.8118433" lon="9.4987683"><ele>347.0</ele><time>2026-05-02T14:02:50.989Z</time></trkpt><trkpt lat="44.8119433" lon="9.4988133"><ele>348.0</ele><time>2026-05-02T14:02:51.99Z</time></trkpt><trkpt lat="44.812045" lon="9.498855"><ele>349.0</ele><time>2026-05-02T14:02:52.989Z</time></trkpt><trkpt lat="44.8121433" lon="9.498895"><ele>350.0</ele><time>2026-05-02T14:02:53.989Z</time></trkpt><trkpt lat="44.812235" lon="9.4989317"><ele>351.0</ele><time>2026-05-02T14:02:54.989Z</time></trkpt><trkpt lat="44.8123233" lon="9.49896"><ele>352.0</ele><time>2026-05-02T14:02:55.991Z</time></trkpt><trkpt lat="44.812405" lon="9.498975"><ele>352.0</ele><time>2026-05-02T14:02:56.989Z</time></trkpt><trkpt lat="44.812485" lon="9.4989817"><ele>352.0</ele><time>2026-05-02T14:02:57.989Z</time></trkpt><trkpt lat="44.8125617" lon="9.4989783"><ele>352.0</ele><time>2026-05-02T14:02:58.989Z</time></trkpt><trkpt lat="44.812635" lon="9.49897"><ele>352.0</ele><time>2026-05-02T14:02:59.989Z</time></trkpt><trkpt lat="44.8127083" lon="9.4989567"><ele>352.0</ele><time>2026-05-02T14:03:00.989Z</time></trkpt><trkpt lat="44.8127833" lon="9.49893"><ele>352.0</ele><time>2026-05-02T14:03:01.991Z</time></trkpt><trkpt lat="44.8128717" lon="9.49889"><ele>349.8</ele><time>2026-05-02T14:03:02.99Z</time></trkpt><trkpt lat="44.812965" lon="9.4988417"><ele>347.6</ele><time>2026-05-02T14:03:03.99Z</time></trkpt><trkpt lat="44.8130567" lon="9.4987933"><ele>345.40000000000003</ele><time>2026-05-02T14:03:04.99Z</time></trkpt><trkpt lat="44.8131467" lon="9.4987583"><ele>343.20000000000005</ele><time>2026-05-02T14:03:05.99Z</time></trkpt><trkpt lat="44.813235" lon="9.4987383"><ele>341.0</ele><time>2026-05-02T14:03:06.989Z</time></trkpt><trkpt lat="44.813325" lon="9.4987283"><ele>341.0</ele><time>2026-05-02T14:03:07.99Z</time></trkpt><trkpt lat="44.813415" lon="9.4987217"><ele>341.0</ele><time>2026-05-02T14:03:08.99Z</time></trkpt><trkpt lat="44.8135117" lon="9.4987167"><ele>341.0</ele><time>2026-05-02T14:03:09.99Z</time></trkpt><trkpt lat="44.8136133" lon="9.4987117"><ele>341.0</ele><time>2026-05-02T14:03:10.99Z</time></trkpt><trkpt lat="44.8137167" lon="9.498705"><ele>341.0</ele><time>2026-05-02T14:03:11.99Z</time></trkpt><trkpt lat="44.8138233" lon="9.4986983"><ele>338.6</ele><time>2026-05-02T14:03:12.989Z</time></trkpt><trkpt lat="44.8139317" lon="9.49869"><ele>336.20000000000005</ele><time>2026-05-02T14:03:13.991Z</time></trkpt><trkpt lat="44.8140433" lon="9.4986933"><ele>333.79999999999995</ele><time>2026-05-02T14:03:14.99Z</time></trkpt><trkpt lat="44.814155" lon="9.498695"><ele>331.4</ele><time>2026-05-02T14:03:15.99Z</time></trkpt><trkpt lat="44.81427" lon="9.4986967"><ele>329.0</ele><time>2026-05-02T14:03:16.989Z</time></trkpt><trkpt lat="44.8143833" lon="9.4987017"><ele>326.75</ele><time>2026-05-02T14:03:17.99Z</time></trkpt><trkpt lat="44.8144933" lon="9.4987117"><ele>324.5</ele><time>2026-05-02T14:03:18.989Z</time></trkpt><trkpt lat="44.8146083" lon="9.4987283"><ele>322.25</ele><time>2026-05-02T14:03:19.99Z</time></trkpt><trkpt lat="44.8147267" lon="9.4987517"><ele>320.0</ele><time>2026-05-02T14:03:20.991Z</time></trkpt><trkpt lat="44.8148483" lon="9.4987767"><ele>320.0</ele><time>2026-05-02T14:03:21.99Z</time></trkpt><trkpt lat="44.8149683" lon="9.4988017"><ele>320.0</ele><time>2026-05-02T14:03:22.992Z</time></trkpt><trkpt lat="44.815085" lon="9.498825"><ele>320.0</ele><time>2026-05-02T14:03:23.992Z</time></trkpt><trkpt lat="44.8151983" lon="9.4988533"><ele>320.0</ele><time>2026-05-02T14:03:24.992Z</time></trkpt><trkpt lat="44.8153083" lon="9.4989017"><ele>317.4</ele><time>2026-05-02T14:03:25.991Z</time></trkpt><trkpt lat="44.8154083" lon="9.498985"><ele>314.8</ele><time>2026-05-02T14:03:26.992Z</time></trkpt><trkpt lat="44.8154917" lon="9.499095"><ele>312.2</ele><time>2026-05-02T14:03:27.992Z</time></trkpt><trkpt lat="44.8155633" lon="9.499215"><ele>309.6</ele><time>2026-05-02T14:03:28.992Z</time></trkpt><trkpt lat="44.8156333" lon="9.499315"><ele>307.0</ele><time>2026-05-02T14:03:29.992Z</time></trkpt><trkpt lat="44.8157033" lon="9.4993933"><ele>307.0</ele><time>2026-05-02T14:03:30.991Z</time></trkpt><trkpt lat="44.81577" lon="9.4994667"><ele>307.0</ele><time>2026-05-02T14:03:31.991Z</time></trkpt><trkpt lat="44.8158217" lon="9.4995517"><ele>307.0</ele><time>2026-05-02T14:03:32.992Z</time></trkpt><trkpt lat="44.8158683" lon="9.4996483"><ele>307.0</ele><time>2026-05-02T14:03:33.992Z</time></trkpt><trkpt lat="44.8159283" lon="9.4997333"><ele>307.0</ele><time>2026-05-02T14:03:34.992Z</time></trkpt><trkpt lat="44.8160017" lon="9.4997817"><ele>307.0</ele><time>2026-05-02T14:03:35.992Z</time></trkpt><trkpt lat="44.8160833" lon="9.49982"><ele>305.0</ele><time>2026-05-02T14:03:36.992Z</time></trkpt><trkpt lat="44.81617" lon="9.4998483"><ele>303.0</ele><time>2026-05-02T14:03:37.991Z</time></trkpt><trkpt lat="44.8162567" lon="9.4998883"><ele>301.0</ele><time>2026-05-02T14:03:38.992Z</time></trkpt><trkpt lat="44.8163367" lon="9.49995"><ele>299.0</ele><time>2026-05-02T14:03:39.991Z</time></trkpt><trkpt lat="44.81641" lon="9.5000217"><ele>297.0</ele><time>2026-05-02T14:03:40.989Z</time></trkpt><trkpt lat="44.8164817" lon="9.5000817"><ele>295.0</ele><time>2026-05-02T14:03:41.989Z</time></trkpt><trkpt lat="44.8165567" lon="9.5001183"><ele>295.0</ele><time>2026-05-02T14:03:42.99Z</time></trkpt><trkpt lat="44.81663" lon="9.5001217"><ele>295.0</ele><time>2026-05-02T14:03:43.989Z</time></trkpt><trkpt lat="44.8166967" lon="9.5000717"><ele>295.0</ele><time>2026-05-02T14:03:44.99Z</time></trkpt><trkpt lat="44.81677" lon="9.4999917"><ele>295.0</ele><time>2026-05-02T14:03:45.989Z</time></trkpt><trkpt lat="44.8168517" lon="9.4999217"><ele>295.0</ele><time>2026-05-02T14:03:46.989Z</time></trkpt><trkpt lat="44.8169367" lon="9.499855"><ele>295.0</ele><time>2026-05-02T14:03:47.99Z</time></trkpt><trkpt lat="44.8170217" lon="9.4997917"><ele>291.66666666666663</ele><time>2026-05-02T14:03:48.99Z</time></trkpt><trkpt lat="44.8171" lon="9.499735"><ele>288.3333333333333</ele><time>2026-05-02T14:03:49.99Z</time></trkpt><trkpt lat="44.8171767" lon="9.4996833"><ele>285.0</ele><time>2026-05-02T14:03:50.99Z</time></trkpt><trkpt lat="44.81726" lon="9.499665"><ele>281.6666666666667</ele><time>2026-05-02T14:03:51.99Z</time></trkpt><trkpt lat="44.8173483" lon="9.4996733"><ele>278.33333333333337</ele><time>2026-05-02T14:03:52.992Z</time></trkpt><trkpt lat="44.8174433" lon="9.4997067"><ele>275.0</ele><time>2026-05-02T14:03:53.992Z</time></trkpt><trkpt lat="44.817545" lon="9.499735"><ele>275.0</ele><time>2026-05-02T14:03:54.993Z</time></trkpt><trkpt lat="44.8176483" lon="9.4997617"><ele>275.0</ele><time>2026-05-02T14:03:55.992Z</time></trkpt><trkpt lat="44.8177567" lon="9.4997967"><ele>275.0</ele><time>2026-05-02T14:03:56.993Z</time></trkpt><trkpt lat="44.817865" lon="9.499845"><ele>275.0</ele><time>2026-05-02T14:03:57.991Z</time></trkpt><trkpt lat="44.8179733" lon="9.4998867"><ele>275.0</ele><time>2026-05-02T14:03:58.991Z</time></trkpt><trkpt lat="44.818085" lon="9.499905"><ele>272.6</ele><time>2026-05-02T14:03:59.992Z</time></trkpt><trkpt lat="44.8181967" lon="9.4999183"><ele>270.2</ele><time>2026-05-02T14:04:00.992Z</time></trkpt><trkpt lat="44.818305" lon="9.49991"><ele>267.8</ele><time>2026-05-02T14:04:01.989Z</time></trkpt><trkpt lat="44.81842" lon="9.499895"><ele>265.4</ele><time>2026-05-02T14:04:02.99Z</time></trkpt><trkpt lat="44.818525" lon="9.4998883"><ele>263.0</ele><time>2026-05-02T14:04:03.99Z</time></trkpt><trkpt lat="44.8186317" lon="9.4998917"><ele>259.8</ele><time>2026-05-02T14:04:04.991Z</time></trkpt><trkpt lat="44.818735" lon="9.4999133"><ele>256.6</ele><time>2026-05-02T14:04:05.993Z</time></trkpt><trkpt lat="44.8188417" lon="9.49995"><ele>253.39999999999998</ele><time>2026-05-02T14:04:06.99Z</time></trkpt><trkpt lat="44.818935" lon="9.49999"><ele>250.2</ele><time>2026-05-02T14:04:07.99Z</time></trkpt><trkpt lat="44.819025" lon="9.5000333"><ele>247.0</ele><time>2026-05-02T14:04:08.991Z</time></trkpt><trkpt lat="44.8191067" lon="9.5000617"><ele>246.99999999999997</ele><time>2026-05-02T14:04:09.99Z</time></trkpt><trkpt lat="44.8191833" lon="9.50007"><ele>247.0</ele><time>2026-05-02T14:04:10.989Z</time></trkpt><trkpt lat="44.8192533" lon="9.50006"><ele>247.0</ele><time>2026-05-02T14:04:11.989Z</time></trkpt><trkpt lat="44.8193683" lon="9.5000467"><ele>247.0</ele><time>2026-05-02T14:04:13.989Z</time></trkpt><trkpt lat="44.8194117" lon="9.5001417"><ele>246.99999999999997</ele><time>2026-05-02T14:04:15.991Z</time></trkpt><trkpt lat="44.8193983" lon="9.50023"><ele>247.0</ele><time>2026-05-02T14:04:16.989Z</time></trkpt><trkpt lat="44.8193733" lon="9.5003183"><ele>244.33333333333331</ele><time>2026-05-02T14:04:17.989Z</time></trkpt><trkpt lat="44.8193233" lon="9.50042"><ele>241.66666666666666</ele><time>2026-05-02T14:04:18.989Z</time></trkpt><trkpt lat="44.819275" lon="9.50053"><ele>239.0</ele><time>2026-05-02T14:04:19.991Z</time></trkpt><trkpt lat="44.8192433" lon="9.5006367"><ele>236.33333333333331</ele><time>2026-05-02T14:04:20.992Z</time></trkpt><trkpt lat="44.8192267" lon="9.5007333"><ele>233.66666666666666</ele><time>2026-05-02T14:04:21.99Z</time></trkpt><trkpt lat="44.8192583" lon="9.500875"><ele>231.0</ele><time>2026-05-02T14:04:23.992Z</time></trkpt><trkpt lat="44.8193083" lon="9.5009367"><ele>228.0</ele><time>2026-05-02T14:04:24.992Z</time></trkpt><trkpt lat="44.8193617" lon="9.5010167"><ele>225.0</ele><time>2026-05-02T14:04:25.991Z</time></trkpt><trkpt lat="44.8194167" lon="9.5011233"><ele>222.0</ele><time>2026-05-02T14:04:26.992Z</time></trkpt><trkpt lat="44.8194683" lon="9.5012233"><ele>219.0</ele><time>2026-05-02T14:04:27.991Z</time></trkpt><trkpt lat="44.8195217" lon="9.5013117"><ele>216.0</ele><time>2026-05-02T14:04:28.993Z</time></trkpt><trkpt lat="44.8195717" lon="9.501385"><ele>213.0</ele><time>2026-05-02T14:04:29.991Z</time></trkpt><trkpt lat="44.8196567" lon="9.5014933"><ele>211.83333333333334</ele><time>2026-05-02T14:04:31.989Z</time></trkpt><trkpt lat="44.8197117" lon="9.501605"><ele>210.66666666666669</ele><time>2026-05-02T14:04:33.99Z</time></trkpt><trkpt lat="44.8197167" lon="9.5017033"><ele>209.5</ele><time>2026-05-02T14:04:36.989Z</time></trkpt><trkpt lat="44.8196983" lon="9.5017967"><ele>208.33333333333334</ele><time>2026-05-02T14:04:38.99Z</time></trkpt><trkpt lat="44.8196283" lon="9.501945"><ele>207.16666666666669</ele><time>2026-05-02T14:04:40.989Z</time></trkpt><trkpt lat="44.81961" lon="9.50204"><ele>206.0</ele><time>2026-05-02T14:04:41.99Z</time></trkpt><trkpt lat="44.8196033" lon="9.5021283"><ele>205.8</ele><time>2026-05-02T14:04:42.99Z</time></trkpt><trkpt lat="44.8196183" lon="9.502285"><ele>205.60000000000002</ele><time>2026-05-02T14:04:44.99Z</time></trkpt><trkpt lat="44.81965" lon="9.5024133"><ele>205.4</ele><time>2026-05-02T14:04:46.989Z</time></trkpt><trkpt lat="44.81968" lon="9.502505"><ele>205.2</ele><time>2026-05-02T14:04:48.99Z</time></trkpt><trkpt lat="44.8197283" lon="9.5026117"><ele>205.0</ele><time>2026-05-02T14:04:51.99Z</time></trkpt><trkpt lat="44.819775" lon="9.5027333"><ele>205.0</ele><time>2026-05-02T14:04:53.991Z</time></trkpt><trkpt lat="44.8198283" lon="9.50288"><ele>205.0</ele><time>2026-05-02T14:04:55.992Z</time></trkpt><trkpt lat="44.81987" lon="9.50302"><ele>205.0</ele><time>2026-05-02T14:04:57.992Z</time></trkpt><trkpt lat="44.8199033" lon="9.5031317"><ele>205.0</ele><time>2026-05-02T14:04:59.992Z</time></trkpt><trkpt lat="44.819935" lon="9.50323"><ele>205.0</ele><time>2026-05-02T14:05:01.989Z</time></trkpt><trkpt lat="44.819965" lon="9.5033317"><ele>204.8</ele><time>2026-05-02T14:05:04.99Z</time></trkpt><trkpt lat="44.81994" lon="9.5035083"><ele>204.6</ele><time>2026-05-02T14:34:31.99Z</time></trkpt><trkpt lat="44.82001" lon="9.50352"><ele>204.39999999999998</ele><time>2026-05-02T14:34:39.989Z</time></trkpt><trkpt lat="44.8200683" lon="9.5036167"><ele>204.2</ele><time>2026-05-02T14:34:41.989Z</time></trkpt><trkpt lat="44.8201183" lon="9.5037567"><ele>204.0</ele><time>2026-05-02T14:34:43.989Z</time></trkpt><trkpt lat="44.82017" lon="9.5039117"><ele>202.66666666666666</ele><time>2026-05-02T14:34:45.989Z</time></trkpt><trkpt lat="44.8202017" lon="9.5040017"><ele>201.33333333333331</ele><time>2026-05-02T14:34:46.989Z</time></trkpt><trkpt lat="44.82024" lon="9.5041017"><ele>200.0</ele><time>2026-05-02T14:34:47.99Z</time></trkpt><trkpt lat="44.8202783" lon="9.5042067"><ele>198.66666666666666</ele><time>2026-05-02T14:34:48.989Z</time></trkpt><trkpt lat="44.82032" lon="9.5043217"><ele>197.33333333333331</ele><time>2026-05-02T14:34:49.99Z</time></trkpt><trkpt lat="44.8203683" lon="9.5044483"><ele>196.0</ele><time>2026-05-02T14:34:50.99Z</time></trkpt><trkpt lat="44.820415" lon="9.5045783"><ele>198.0</ele><time>2026-05-02T14:34:51.989Z</time></trkpt><trkpt lat="44.8204667" lon="9.5047083"><ele>200.0</ele><time>2026-05-02T14:34:52.989Z</time></trkpt><trkpt lat="44.8205167" lon="9.5048433"><ele>202.0</ele><time>2026-05-02T14:34:53.99Z</time></trkpt><trkpt lat="44.8205667" lon="9.5049767"><ele>204.0</ele><time>2026-05-02T14:34:54.99Z</time></trkpt><trkpt lat="44.820625" lon="9.5050983"><ele>206.0</ele><time>2026-05-02T14:34:55.989Z</time></trkpt><trkpt lat="44.82069" lon="9.505195"><ele>206.0</ele><time>2026-05-02T14:34:56.989Z</time></trkpt><trkpt lat="44.8207683" lon="9.5052683"><ele>206.0</ele><time>2026-05-02T14:34:57.99Z</time></trkpt><trkpt lat="44.8208617" lon="9.5053167"><ele>206.0</ele><time>2026-05-02T14:34:58.989Z</time></trkpt><trkpt lat="44.8209667" lon="9.505345"><ele>206.0</ele><time>2026-05-02T14:34:59.989Z</time></trkpt><trkpt lat="44.8210767" lon="9.505355"><ele>206.0</ele><time>2026-05-02T14:35:00.99Z</time></trkpt><trkpt lat="44.821185" lon="9.50536"><ele>205.75</ele><time>2026-05-02T14:35:01.989Z</time></trkpt><trkpt lat="44.8212983" lon="9.5053483"><ele>205.5</ele><time>2026-05-02T14:35:02.991Z</time></trkpt><trkpt lat="44.821415" lon="9.50533"><ele>205.25</ele><time>2026-05-02T14:35:03.989Z</time></trkpt><trkpt lat="44.8215317" lon="9.50531"><ele>205.0</ele><time>2026-05-02T14:35:04.989Z</time></trkpt><trkpt lat="44.8216483" lon="9.5052883"><ele>205.0</ele><time>2026-05-02T14:35:05.99Z</time></trkpt><trkpt lat="44.8217617" lon="9.5052733"><ele>205.0</ele><time>2026-05-02T14:35:06.989Z</time></trkpt><trkpt lat="44.8218733" lon="9.5052667"><ele>205.0</ele><time>2026-05-02T14:35:07.989Z</time></trkpt><trkpt lat="44.8219867" lon="9.50527"><ele>205.0</ele><time>2026-05-02T14:35:08.989Z</time></trkpt><trkpt lat="44.8221" lon="9.505295"><ele>205.75</ele><time>2026-05-02T14:35:09.989Z</time></trkpt><trkpt lat="44.822205" lon="9.50534"><ele>206.5</ele><time>2026-05-02T14:35:10.989Z</time></trkpt><trkpt lat="44.8223017" lon="9.5054133"><ele>207.25</ele><time>2026-05-02T14:35:11.989Z</time></trkpt><trkpt lat="44.8223933" lon="9.505515"><ele>208.0</ele><time>2026-05-02T14:35:12.989Z</time></trkpt><trkpt lat="44.8224783" lon="9.5056383"><ele>208.0</ele><time>2026-05-02T14:35:13.989Z</time></trkpt><trkpt lat="44.8225567" lon="9.5057717"><ele>208.0</ele><time>2026-05-02T14:35:14.989Z</time></trkpt><trkpt lat="44.8226333" lon="9.5059117"><ele>208.0</ele><time>2026-05-02T14:35:15.989Z</time></trkpt><trkpt lat="44.822705" lon="9.506055"><ele>208.0</ele><time>2026-05-02T14:35:16.989Z</time></trkpt><trkpt lat="44.8227767" lon="9.5061967"><ele>206.0</ele><time>2026-05-02T14:35:17.989Z</time></trkpt><trkpt lat="44.82285" lon="9.5063367"><ele>204.0</ele><time>2026-05-02T14:35:18.989Z</time></trkpt><trkpt lat="44.8229233" lon="9.5064767"><ele>202.0</ele><time>2026-05-02T14:35:19.989Z</time></trkpt><trkpt lat="44.8229983" lon="9.506615"><ele>200.0</ele><time>2026-05-02T14:35:20.99Z</time></trkpt><trkpt lat="44.8230717" lon="9.506755"><ele>200.0</ele><time>2026-05-02T14:35:21.989Z</time></trkpt><trkpt lat="44.8231483" lon="9.5068967"><ele>200.0</ele><time>2026-05-02T14:35:22.989Z</time></trkpt><trkpt lat="44.8232233" lon="9.5070317"><ele>200.0</ele><time>2026-05-02T14:35:23.989Z</time></trkpt><trkpt lat="44.8232967" lon="9.5071667"><ele>200.0</ele><time>2026-05-02T14:35:24.989Z</time></trkpt><trkpt lat="44.8233667" lon="9.5073017"><ele>200.25</ele><time>2026-05-02T14:35:25.989Z</time></trkpt><trkpt lat="44.823435" lon="9.5074333"><ele>200.5</ele><time>2026-05-02T14:35:26.989Z</time></trkpt><trkpt lat="44.82351" lon="9.5075567"><ele>200.75</ele><time>2026-05-02T14:35:27.989Z</time></trkpt><trkpt lat="44.8235983" lon="9.50766"><ele>201.0</ele><time>2026-05-02T14:35:28.989Z</time></trkpt><trkpt lat="44.8236983" lon="9.5077367"><ele>201.0</ele><time>2026-05-02T14:35:29.989Z</time></trkpt><trkpt lat="44.8238083" lon="9.50779"><ele>201.0</ele><time>2026-05-02T14:35:30.988Z</time></trkpt><trkpt lat="44.8239233" lon="9.5078283"><ele>201.0</ele><time>2026-05-02T14:35:31.989Z</time></trkpt><trkpt lat="44.8240367" lon="9.507865"><ele>201.0</ele><time>2026-05-02T14:35:32.989Z</time></trkpt><trkpt lat="44.8241483" lon="9.5079067"><ele>201.8</ele><time>2026-05-02T14:35:33.989Z</time></trkpt><trkpt lat="44.824255" lon="9.5079517"><ele>202.60000000000002</ele><time>2026-05-02T14:35:34.991Z</time></trkpt><trkpt lat="44.824355" lon="9.5080117"><ele>203.4</ele><time>2026-05-02T14:35:35.989Z</time></trkpt><trkpt lat="44.8244483" lon="9.5080983"><ele>204.2</ele><time>2026-05-02T14:35:36.989Z</time></trkpt><trkpt lat="44.8245333" lon="9.50821"><ele>205.0</ele><time>2026-05-02T14:35:37.989Z</time></trkpt><trkpt lat="44.824615" lon="9.5083433"><ele>205.0</ele><time>2026-05-02T14:35:38.989Z</time></trkpt><trkpt lat="44.8246967" lon="9.5084833"><ele>205.0</ele><time>2026-05-02T14:35:39.989Z</time></trkpt><trkpt lat="44.82478" lon="9.5086183"><ele>205.0</ele><time>2026-05-02T14:35:40.989Z</time></trkpt><trkpt lat="44.8248667" lon="9.5087517"><ele>205.0</ele><time>2026-05-02T14:35:41.991Z</time></trkpt><trkpt lat="44.8249533" lon="9.5088867"><ele>206.0</ele><time>2026-05-02T14:35:42.99Z</time></trkpt><trkpt lat="44.8250417" lon="9.509025"><ele>207.0</ele><time>2026-05-02T14:35:43.989Z</time></trkpt><trkpt lat="44.8251283" lon="9.509165"><ele>208.0</ele><time>2026-05-02T14:35:44.989Z</time></trkpt><trkpt lat="44.82521" lon="9.5093083"><ele>209.0</ele><time>2026-05-02T14:35:45.99Z</time></trkpt><trkpt lat="44.8252783" lon="9.509445"><ele>207.2</ele><time>2026-05-02T14:35:46.989Z</time></trkpt><trkpt lat="44.8253217" lon="9.5095833"><ele>205.39999999999998</ele><time>2026-05-02T14:35:47.99Z</time></trkpt><trkpt lat="44.8253383" lon="9.5097183"><ele>203.6</ele><time>2026-05-02T14:35:48.99Z</time></trkpt><trkpt lat="44.8253283" lon="9.5098567"><ele>201.8</ele><time>2026-05-02T14:35:49.993Z</time></trkpt><trkpt lat="44.8252983" lon="9.5099983"><ele>200.0</ele><time>2026-05-02T14:35:50.989Z</time></trkpt><trkpt lat="44.8252633" lon="9.5101467"><ele>200.0</ele><time>2026-05-02T14:35:51.989Z</time></trkpt><trkpt lat="44.82524" lon="9.5102933"><ele>200.0</ele><time>2026-05-02T14:35:52.991Z</time></trkpt><trkpt lat="44.8252417" lon="9.5104183"><ele>200.0</ele><time>2026-05-02T14:35:53.99Z</time></trkpt><trkpt lat="44.825275" lon="9.51053"><ele>200.0</ele><time>2026-05-02T14:35:54.989Z</time></trkpt><trkpt lat="44.825325" lon="9.5106367"><ele>200.0</ele><time>2026-05-02T14:35:55.989Z</time></trkpt><trkpt lat="44.825405" lon="9.5107417"><ele>202.0</ele><time>2026-05-02T14:35:56.991Z</time></trkpt><trkpt lat="44.8255067" lon="9.510845"><ele>204.0</ele><time>2026-05-02T14:35:57.989Z</time></trkpt><trkpt lat="44.8256117" lon="9.5109467"><ele>206.0</ele><time>2026-05-02T14:35:58.99Z</time></trkpt><trkpt lat="44.8257217" lon="9.511045"><ele>208.0</ele><time>2026-05-02T14:35:59.989Z</time></trkpt><trkpt lat="44.825835" lon="9.5111333"><ele>208.0</ele><time>2026-05-02T14:36:00.989Z</time></trkpt><trkpt lat="44.82595" lon="9.511215"><ele>208.0</ele><time>2026-05-02T14:36:01.99Z</time></trkpt><trkpt lat="44.826065" lon="9.511295"><ele>208.0</ele><time>2026-05-02T14:36:02.989Z</time></trkpt><trkpt lat="44.8261783" lon="9.51137"><ele>208.0</ele><time>2026-05-02T14:36:03.989Z</time></trkpt><trkpt lat="44.8262867" lon="9.5114483"><ele>209.5</ele><time>2026-05-02T14:36:04.989Z</time></trkpt><trkpt lat="44.826395" lon="9.511525"><ele>211.0</ele><time>2026-05-02T14:36:05.989Z</time></trkpt><trkpt lat="44.8265033" lon="9.5116033"><ele>212.5</ele><time>2026-05-02T14:36:06.989Z</time></trkpt><trkpt lat="44.82661" lon="9.51168"><ele>214.0</ele><time>2026-05-02T14:36:07.989Z</time></trkpt><trkpt lat="44.8267167" lon="9.511755"><ele>214.2</ele><time>2026-05-02T14:36:08.99Z</time></trkpt><trkpt lat="44.826825" lon="9.5118283"><ele>214.39999999999998</ele><time>2026-05-02T14:36:09.99Z</time></trkpt><trkpt lat="44.826925" lon="9.5119"><ele>214.6</ele><time>2026-05-02T14:36:10.989Z</time></trkpt><trkpt lat="44.827015" lon="9.51197"><ele>214.8</ele><time>2026-05-02T14:36:11.989Z</time></trkpt><trkpt lat="44.8270967" lon="9.51203"><ele>215.0</ele><time>2026-05-02T14:36:12.989Z</time></trkpt><trkpt lat="44.827175" lon="9.5121"><ele>215.0</ele><time>2026-05-02T14:36:13.989Z</time></trkpt><trkpt lat="44.8272483" lon="9.51218"><ele>215.0</ele><time>2026-05-02T14:36:14.99Z</time></trkpt><trkpt lat="44.82732" lon="9.5122783"><ele>215.0</ele><time>2026-05-02T14:36:15.989Z</time></trkpt><trkpt lat="44.8273817" lon="9.5123933"><ele>215.0</ele><time>2026-05-02T14:36:16.989Z</time></trkpt><trkpt lat="44.827435" lon="9.5125183"><ele>215.0</ele><time>2026-05-02T14:36:17.989Z</time></trkpt><trkpt lat="44.8274817" lon="9.5126483"><ele>215.0</ele><time>2026-05-02T14:36:18.989Z</time></trkpt><trkpt lat="44.8275267" lon="9.5127783"><ele>215.0</ele><time>2026-05-02T14:36:19.99Z</time></trkpt><trkpt lat="44.827565" lon="9.5129117"><ele>215.0</ele><time>2026-05-02T14:36:20.989Z</time></trkpt><trkpt lat="44.82761" lon="9.5130483"><ele>215.0</ele><time>2026-05-02T14:36:21.989Z</time></trkpt><trkpt lat="44.8276583" lon="9.5132"><ele>215.0</ele><time>2026-05-02T14:36:22.99Z</time></trkpt><trkpt lat="44.8277217" lon="9.5133583"><ele>215.25</ele><time>2026-05-02T14:36:23.99Z</time></trkpt><trkpt lat="44.8278017" lon="9.5135133"><ele>215.5</ele><time>2026-05-02T14:36:24.99Z</time></trkpt><trkpt lat="44.8278917" lon="9.5136567"><ele>215.75</ele><time>2026-05-02T14:36:25.989Z</time></trkpt><trkpt lat="44.8279983" lon="9.5137967"><ele>216.0</ele><time>2026-05-02T14:36:26.99Z</time></trkpt><trkpt lat="44.8281117" lon="9.51393"><ele>216.0</ele><time>2026-05-02T14:36:27.989Z</time></trkpt><trkpt lat="44.8282267" lon="9.5140633"><ele>216.0</ele><time>2026-05-02T14:36:28.991Z</time></trkpt><trkpt lat="44.8283383" lon="9.5141967"><ele>216.0</ele><time>2026-05-02T14:36:29.989Z</time></trkpt><trkpt lat="44.8284483" lon="9.5143233"><ele>216.0</ele><time>2026-05-02T14:36:30.99Z</time></trkpt><trkpt lat="44.8285633" lon="9.5144483"><ele>214.5</ele><time>2026-05-02T14:36:31.989Z</time></trkpt><trkpt lat="44.82868" lon="9.514575"><ele>213.0</ele><time>2026-05-02T14:36:32.989Z</time></trkpt><trkpt lat="44.8287983" lon="9.5147067"><ele>211.5</ele><time>2026-05-02T14:36:33.989Z</time></trkpt><trkpt lat="44.8289117" lon="9.5148383"><ele>210.0</ele><time>2026-05-02T14:36:34.99Z</time></trkpt><trkpt lat="44.829025" lon="9.51497"><ele>210.0</ele><time>2026-05-02T14:36:35.99Z</time></trkpt><trkpt lat="44.8291467" lon="9.5150933"><ele>210.0</ele><time>2026-05-02T14:36:36.989Z</time></trkpt><trkpt lat="44.829265" lon="9.51521"><ele>210.0</ele><time>2026-05-02T14:36:37.991Z</time></trkpt><trkpt lat="44.829385" lon="9.5153233"><ele>210.0</ele><time>2026-05-02T14:36:38.989Z</time></trkpt><trkpt lat="44.829505" lon="9.51543"><ele>209.25</ele><time>2026-05-02T14:36:39.989Z</time></trkpt><trkpt lat="44.829625" lon="9.515525"><ele>208.5</ele><time>2026-05-02T14:36:40.989Z</time></trkpt><trkpt lat="44.829735" lon="9.5156133"><ele>207.75</ele><time>2026-05-02T14:36:41.989Z</time></trkpt><trkpt lat="44.8298367" lon="9.5157017"><ele>207.0</ele><time>2026-05-02T14:36:42.99Z</time></trkpt><trkpt lat="44.82993" lon="9.5157883"><ele>207.0</ele><time>2026-05-02T14:36:43.989Z</time></trkpt><trkpt lat="44.8300167" lon="9.515875"><ele>207.0</ele><time>2026-05-02T14:36:44.989Z</time></trkpt><trkpt lat="44.8300933" lon="9.5159633"><ele>207.0</ele><time>2026-05-02T14:36:45.989Z</time></trkpt><trkpt lat="44.83017" lon="9.5160417"><ele>207.0</ele><time>2026-05-02T14:36:46.989Z</time></trkpt><trkpt lat="44.830245" lon="9.516115"><ele>207.0</ele><time>2026-05-02T14:36:47.99Z</time></trkpt><trkpt lat="44.8303183" lon="9.5161767"><ele>206.66666666666666</ele><time>2026-05-02T14:36:48.99Z</time></trkpt><trkpt lat="44.8303983" lon="9.5162183"><ele>206.33333333333331</ele><time>2026-05-02T14:36:49.99Z</time></trkpt><trkpt lat="44.8304767" lon="9.51623"><ele>206.0</ele><time>2026-05-02T14:36:50.99Z</time></trkpt><trkpt lat="44.8305533" lon="9.516235"><ele>205.66666666666666</ele><time>2026-05-02T14:36:51.989Z</time></trkpt><trkpt lat="44.8306267" lon="9.5162617"><ele>205.33333333333331</ele><time>2026-05-02T14:36:52.991Z</time></trkpt><trkpt lat="44.8306917" lon="9.5163317"><ele>205.0</ele><time>2026-05-02T14:36:53.991Z</time></trkpt><trkpt lat="44.830745" lon="9.5164417"><ele>205.0</ele><time>2026-05-02T14:36:54.989Z</time></trkpt><trkpt lat="44.8307783" lon="9.5165833"><ele>205.0</ele><time>2026-05-02T14:36:55.989Z</time></trkpt><trkpt lat="44.8307983" lon="9.51674"><ele>205.0</ele><time>2026-05-02T14:36:56.99Z</time></trkpt><trkpt lat="44.8308167" lon="9.5169033"><ele>205.0</ele><time>2026-05-02T14:36:57.989Z</time></trkpt><trkpt lat="44.8308267" lon="9.5170667"><ele>205.25</ele><time>2026-05-02T14:36:58.991Z</time></trkpt><trkpt lat="44.8308167" lon="9.5172267"><ele>205.5</ele><time>2026-05-02T14:36:59.989Z</time></trkpt><trkpt lat="44.8307783" lon="9.51738"><ele>205.75</ele><time>2026-05-02T14:37:00.99Z</time></trkpt><trkpt lat="44.830725" lon="9.5175317"><ele>206.0</ele><time>2026-05-02T14:37:01.989Z</time></trkpt><trkpt lat="44.8306633" lon="9.5176867"><ele>206.0</ele><time>2026-05-02T14:37:02.99Z</time></trkpt><trkpt lat="44.8306067" lon="9.517845"><ele>206.0</ele><time>2026-05-02T14:37:03.989Z</time></trkpt><trkpt lat="44.8305517" lon="9.518005"><ele>206.0</ele><time>2026-05-02T14:37:04.99Z</time></trkpt><trkpt lat="44.8305133" lon="9.5181667"><ele>206.0</ele><time>2026-05-02T14:37:05.989Z</time></trkpt><trkpt lat="44.8304933" lon="9.5183267"><ele>205.0</ele><time>2026-05-02T14:37:06.99Z</time></trkpt><trkpt lat="44.830505" lon="9.5184783"><ele>204.0</ele><time>2026-05-02T14:37:07.99Z</time></trkpt><trkpt lat="44.830545" lon="9.5186217"><ele>203.0</ele><time>2026-05-02T14:37:08.989Z</time></trkpt><trkpt lat="44.8306067" lon="9.51876"><ele>202.0</ele><time>2026-05-02T14:37:09.989Z</time></trkpt><trkpt lat="44.8306833" lon="9.5188967"><ele>202.0</ele><time>2026-05-02T14:37:10.989Z</time></trkpt><trkpt lat="44.8307733" lon="9.519025"><ele>202.0</ele><time>2026-05-02T14:37:11.989Z</time></trkpt><trkpt lat="44.8308617" lon="9.5191533"><ele>202.0</ele><time>2026-05-02T14:37:12.99Z</time></trkpt><trkpt lat="44.83095" lon="9.51928"><ele>202.0</ele><time>2026-05-02T14:37:13.99Z</time></trkpt><trkpt lat="44.8310283" lon="9.5194"><ele>202.6</ele><time>2026-05-02T14:37:14.989Z</time></trkpt><trkpt lat="44.8311" lon="9.51951"><ele>203.2</ele><time>2026-05-02T14:37:15.989Z</time></trkpt><trkpt lat="44.8311717" lon="9.519615"><ele>203.8</ele><time>2026-05-02T14:37:16.989Z</time></trkpt><trkpt lat="44.83124" lon="9.5197117"><ele>204.4</ele><time>2026-05-02T14:37:17.989Z</time></trkpt><trkpt lat="44.8313033" lon="9.5198033"><ele>205.0</ele><time>2026-05-02T14:37:18.989Z</time></trkpt><trkpt lat="44.8313617" lon="9.5198883"><ele>204.99999999999997</ele><time>2026-05-02T14:37:19.989Z</time></trkpt><trkpt lat="44.8313983" lon="9.5199633"><ele>205.0</ele><time>2026-05-02T14:37:20.99Z</time></trkpt><trkpt lat="44.8313967" lon="9.520095"><ele>205.0</ele><time>2026-05-02T14:37:22.99Z</time></trkpt><trkpt lat="44.8313483" lon="9.5201667"><ele>205.0</ele><time>2026-05-02T14:37:23.99Z</time></trkpt><trkpt lat="44.83129" lon="9.5202567"><ele>204.99999999999997</ele><time>2026-05-02T14:37:24.989Z</time></trkpt><trkpt lat="44.8312217" lon="9.520355"><ele>205.0</ele><time>2026-05-02T14:37:25.989Z</time></trkpt><trkpt lat="44.83114" lon="9.5204533"><ele>205.75</ele><time>2026-05-02T14:37:26.989Z</time></trkpt><trkpt lat="44.8310483" lon="9.5205517"><ele>206.5</ele><time>2026-05-02T14:37:27.989Z</time></trkpt><trkpt lat="44.8309483" lon="9.5206467"><ele>207.25</ele><time>2026-05-02T14:37:28.989Z</time></trkpt><trkpt lat="44.8308467" lon="9.52074"><ele>208.0</ele><time>2026-05-02T14:37:29.989Z</time></trkpt><trkpt lat="44.8307467" lon="9.5208317"><ele>208.0</ele><time>2026-05-02T14:37:30.99Z</time></trkpt><trkpt lat="44.8306583" lon="9.5209217"><ele>208.0</ele><time>2026-05-02T14:37:31.99Z</time></trkpt><trkpt lat="44.8305783" lon="9.521015"><ele>208.0</ele><time>2026-05-02T14:37:32.99Z</time></trkpt><trkpt lat="44.8305117" lon="9.5211133"><ele>208.0</ele><time>2026-05-02T14:37:33.99Z</time></trkpt><trkpt lat="44.83047" lon="9.5212183"><ele>208.0</ele><time>2026-05-02T14:37:34.989Z</time></trkpt><trkpt lat="44.83045" lon="9.5213367"><ele>209.60000000000002</ele><time>2026-05-02T14:37:35.99Z</time></trkpt><trkpt lat="44.8304567" lon="9.5214633"><ele>211.20000000000002</ele><time>2026-05-02T14:37:36.989Z</time></trkpt><trkpt lat="44.8304733" lon="9.5216"><ele>212.8</ele><time>2026-05-02T14:37:37.989Z</time></trkpt><trkpt lat="44.8304933" lon="9.5217433"><ele>214.4</ele><time>2026-05-02T14:37:38.99Z</time></trkpt><trkpt lat="44.8305133" lon="9.52189"><ele>216.0</ele><time>2026-05-02T14:37:39.989Z</time></trkpt><trkpt lat="44.83051" lon="9.5220483"><ele>218.25</ele><time>2026-05-02T14:37:40.989Z</time></trkpt><trkpt lat="44.8304967" lon="9.5222067"><ele>220.5</ele><time>2026-05-02T14:37:41.989Z</time></trkpt><trkpt lat="44.8304683" lon="9.5223817"><ele>222.75</ele><time>2026-05-02T14:37:42.989Z</time></trkpt><trkpt lat="44.8304333" lon="9.5225533"><ele>225.0</ele><time>2026-05-02T14:37:43.99Z</time></trkpt><trkpt lat="44.8303917" lon="9.5227267"><ele>227.0</ele><time>2026-05-02T14:37:44.99Z</time></trkpt><trkpt lat="44.8303467" lon="9.5229067"><ele>229.0</ele><time>2026-05-02T14:37:45.989Z</time></trkpt><trkpt lat="44.8303017" lon="9.5230717"><ele>231.0</ele><time>2026-05-02T14:37:46.989Z</time></trkpt><trkpt lat="44.8302617" lon="9.5232183"><ele>233.0</ele><time>2026-05-02T14:37:47.99Z</time></trkpt><trkpt lat="44.8302233" lon="9.5233333"><ele>233.0</ele><time>2026-05-02T14:37:48.989Z</time></trkpt><trkpt lat="44.8301633" lon="9.52342"><ele>233.0</ele><time>2026-05-02T14:37:49.989Z</time></trkpt><trkpt lat="44.8300883" lon="9.5234767"><ele>233.0</ele><time>2026-05-02T14:37:50.99Z</time></trkpt><trkpt lat="44.8299883" lon="9.52351"><ele>233.0</ele><time>2026-05-02T14:37:51.989Z</time></trkpt><trkpt lat="44.8298683" lon="9.5235183"><ele>233.0</ele><time>2026-05-02T14:37:52.99Z</time></trkpt><trkpt lat="44.82975" lon="9.523515"><ele>232.8</ele><time>2026-05-02T14:37:53.989Z</time></trkpt><trkpt lat="44.8296317" lon="9.52352"><ele>232.60000000000002</ele><time>2026-05-02T14:37:54.989Z</time></trkpt><trkpt lat="44.8295233" lon="9.523545"><ele>232.39999999999998</ele><time>2026-05-02T14:37:55.989Z</time></trkpt><trkpt lat="44.8294333" lon="9.523595"><ele>232.2</ele><time>2026-05-02T14:37:56.989Z</time></trkpt><trkpt lat="44.8293617" lon="9.5236767"><ele>232.0</ele><time>2026-05-02T14:37:57.989Z</time></trkpt><trkpt lat="44.8293033" lon="9.523785"><ele>232.0</ele><time>2026-05-02T14:37:58.99Z</time></trkpt><trkpt lat="44.8292467" lon="9.5239133"><ele>232.0</ele><time>2026-05-02T14:37:59.989Z</time></trkpt><trkpt lat="44.829185" lon="9.52405"><ele>232.0</ele><time>2026-05-02T14:38:00.99Z</time></trkpt><trkpt lat="44.829125" lon="9.52418"><ele>232.0</ele><time>2026-05-02T14:38:01.989Z</time></trkpt><trkpt lat="44.829065" lon="9.524295"><ele>232.0</ele><time>2026-05-02T14:38:02.99Z</time></trkpt><trkpt lat="44.8290133" lon="9.5244217"><ele>233.5</ele><time>2026-05-02T14:38:03.99Z</time></trkpt><trkpt lat="44.8289783" lon="9.5245683"><ele>235.0</ele><time>2026-05-02T14:38:04.99Z</time></trkpt><trkpt lat="44.828965" lon="9.524735"><ele>236.5</ele><time>2026-05-02T14:38:05.989Z</time></trkpt><trkpt lat="44.8289683" lon="9.524905"><ele>238.0</ele><time>2026-05-02T14:38:06.989Z</time></trkpt><trkpt lat="44.828975" lon="9.5250783"><ele>238.0</ele><time>2026-05-02T14:38:07.99Z</time></trkpt><trkpt lat="44.8289783" lon="9.525255"><ele>238.0</ele><time>2026-05-02T14:38:08.991Z</time></trkpt><trkpt lat="44.8289883" lon="9.52544"><ele>238.0</ele><time>2026-05-02T14:38:09.989Z</time></trkpt><trkpt lat="44.8290083" lon="9.5256217"><ele>238.0</ele><time>2026-05-02T14:38:10.989Z</time></trkpt><trkpt lat="44.8290383" lon="9.525795"><ele>239.25</ele><time>2026-05-02T14:38:11.989Z</time></trkpt><trkpt lat="44.829085" lon="9.52595"><ele>240.5</ele><time>2026-05-02T14:38:12.99Z</time></trkpt><trkpt lat="44.8291483" lon="9.52609"><ele>241.75</ele><time>2026-05-02T14:38:13.989Z</time></trkpt><trkpt lat="44.8292267" lon="9.52622"><ele>243.0</ele><time>2026-05-02T14:38:14.99Z</time></trkpt><trkpt lat="44.829315" lon="9.5263283"><ele>246.8</ele><time>2026-05-02T14:38:15.99Z</time></trkpt><trkpt lat="44.82941" lon="9.5263983"><ele>250.60000000000002</ele><time>2026-05-02T14:38:16.989Z</time></trkpt><trkpt lat="44.8295067" lon="9.5264383"><ele>254.39999999999998</ele><time>2026-05-02T14:38:17.99Z</time></trkpt><trkpt lat="44.8296083" lon="9.5264633"><ele>258.2</ele><time>2026-05-02T14:38:18.99Z</time></trkpt><trkpt lat="44.829705" lon="9.526485"><ele>262.0</ele><time>2026-05-02T14:38:19.991Z</time></trkpt><trkpt lat="44.8297817" lon="9.526515"><ele>262.0</ele><time>2026-05-02T14:38:20.989Z</time></trkpt><trkpt lat="44.8298417" lon="9.5265567"><ele>262.0</ele><time>2026-05-02T14:38:21.99Z</time></trkpt><trkpt lat="44.8298917" lon="9.5266117"><ele>262.0</ele><time>2026-05-02T14:38:22.989Z</time></trkpt><trkpt lat="44.8299467" lon="9.5267367"><ele>262.0</ele><time>2026-05-02T14:38:24.99Z</time></trkpt><trkpt lat="44.8299717" lon="9.526825"><ele>262.0</ele><time>2026-05-02T14:38:26.989Z</time></trkpt><trkpt lat="44.830055" lon="9.526775"><ele>262.0</ele><time>2026-05-02T14:38:29.991Z</time></trkpt><trkpt lat="44.8301417" lon="9.52667"><ele>263.8333333333333</ele><time>2026-05-02T14:38:31.99Z</time></trkpt><trkpt lat="44.8302317" lon="9.5265483"><ele>265.66666666666663</ele><time>2026-05-02T14:38:33.99Z</time></trkpt><trkpt lat="44.8302833" lon="9.5264833"><ele>267.5</ele><time>2026-05-02T14:38:34.99Z</time></trkpt><trkpt lat="44.8303317" lon="9.5264217"><ele>269.3333333333333</ele><time>2026-05-02T14:38:35.99Z</time></trkpt><trkpt lat="44.8303833" lon="9.5263517"><ele>271.1666666666667</ele><time>2026-05-02T14:38:36.99Z</time></trkpt><trkpt lat="44.8304417" lon="9.5262917"><ele>273.0</ele><time>2026-05-02T14:38:37.99Z</time></trkpt><trkpt lat="44.8304933" lon="9.526235"><ele>271.2</ele><time>2026-05-02T14:38:38.991Z</time></trkpt><trkpt lat="44.8305433" lon="9.5261783"><ele>269.4</ele><time>2026-05-02T14:38:39.991Z</time></trkpt><trkpt lat="44.83062" lon="9.52609"><ele>267.59999999999997</ele><time>2026-05-02T14:38:41.989Z</time></trkpt><trkpt lat="44.8306983" lon="9.5259683"><ele>265.8</ele><time>2026-05-02T14:38:43.991Z</time></trkpt><trkpt lat="44.8307483" lon="9.5258733"><ele>264.0</ele><time>2026-05-02T14:38:44.991Z</time></trkpt><trkpt lat="44.830795" lon="9.52577"><ele>264.0</ele><time>2026-05-02T14:38:45.991Z</time></trkpt><trkpt lat="44.83084" lon="9.52567"><ele>264.0</ele><time>2026-05-02T14:38:46.991Z</time></trkpt><trkpt lat="44.8308783" lon="9.5255767"><ele>264.0</ele><time>2026-05-02T14:38:47.991Z</time></trkpt><trkpt lat="44.83092" lon="9.5254817"><ele>264.0</ele><time>2026-05-02T14:38:48.99Z</time></trkpt><trkpt lat="44.83096" lon="9.5253733"><ele>264.0</ele><time>2026-05-02T14:38:49.99Z</time></trkpt><trkpt lat="44.8310017" lon="9.5252667"><ele>264.0</ele><time>2026-05-02T14:38:50.99Z</time></trkpt><trkpt lat="44.8310433" lon="9.525165"><ele>265.0</ele><time>2026-05-02T14:38:51.989Z</time></trkpt><trkpt lat="44.8311133" lon="9.5250317"><ele>266.0</ele><time>2026-05-02T14:38:53.99Z</time></trkpt><trkpt lat="44.831185" lon="9.525005"><ele>267.0</ele><time>2026-05-02T14:38:55.989Z</time></trkpt><trkpt lat="44.8312817" lon="9.52508"><ele>268.0</ele><time>2026-05-02T14:38:57.99Z</time></trkpt><trkpt lat="44.83134" lon="9.5251333"><ele>269.0</ele><time>2026-05-02T14:38:58.99Z</time></trkpt><trkpt lat="44.8314117" lon="9.5251933"><ele>269.0</ele><time>2026-05-02T14:38:59.991Z</time></trkpt><trkpt lat="44.8314767" lon="9.52525"><ele>269.0</ele><time>2026-05-02T14:39:00.989Z</time></trkpt><trkpt lat="44.8315383" lon="9.5253133"><ele>269.0</ele><time>2026-05-02T14:39:01.991Z</time></trkpt><trkpt lat="44.8315867" lon="9.5253783"><ele>269.0</ele><time>2026-05-02T14:39:02.989Z</time></trkpt><trkpt lat="44.8316367" lon="9.5254533"><ele>269.0</ele><time>2026-05-02T14:39:03.99Z</time></trkpt><trkpt lat="44.8316833" lon="9.5255317"><ele>269.0</ele><time>2026-05-02T14:39:04.989Z</time></trkpt><trkpt lat="44.831715" lon="9.52561"><ele>269.0</ele><time>2026-05-02T14:39:05.99Z</time></trkpt><trkpt lat="44.83174" lon="9.5257733"><ele>271.8</ele><time>2026-05-02T14:39:07.99Z</time></trkpt><trkpt lat="44.8317567" lon="9.5259183"><ele>274.59999999999997</ele><time>2026-05-02T14:39:09.989Z</time></trkpt><trkpt lat="44.831765" lon="9.5261017"><ele>277.4</ele><time>2026-05-02T14:39:11.989Z</time></trkpt><trkpt lat="44.8317833" lon="9.5261867"><ele>280.2</ele><time>2026-05-02T14:39:12.99Z</time></trkpt><trkpt lat="44.8318233" lon="9.5262883"><ele>283.0</ele><time>2026-05-02T14:39:14.99Z</time></trkpt><trkpt lat="44.8318867" lon="9.5263733"><ele>287.8333333333333</ele><time>2026-05-02T14:39:17.991Z</time></trkpt><trkpt lat="44.83195" lon="9.5264083"><ele>292.66666666666663</ele><time>2026-05-02T14:39:19.994Z</time></trkpt><trkpt lat="44.8320183" lon="9.5264517"><ele>297.5</ele><time>2026-05-02T14:39:22.991Z</time></trkpt><trkpt lat="44.8320767" lon="9.5265033"><ele>302.3333333333333</ele><time>2026-05-02T14:39:31.99Z</time></trkpt><trkpt lat="44.8321617" lon="9.5265667"><ele>307.1666666666667</ele><time>2026-05-02T14:39:33.99Z</time></trkpt><trkpt lat="44.832255" lon="9.5266"><ele>312.0</ele><time>2026-05-02T14:39:35.99Z</time></trkpt><trkpt lat="44.8323417" lon="9.5266"><ele>312.0</ele><time>2026-05-02T14:39:37.99Z</time></trkpt><trkpt lat="44.8324117" lon="9.52661"><ele>312.0</ele><time>2026-05-02T14:39:39.991Z</time></trkpt><trkpt lat="44.83249" lon="9.5266283"><ele>312.0</ele><time>2026-05-02T14:39:42.99Z</time></trkpt><trkpt lat="44.832575" lon="9.5266167"><ele>312.0</ele><time>2026-05-02T14:39:45.992Z</time></trkpt><trkpt lat="44.83265" lon="9.5266733"><ele>312.0</ele><time>2026-05-02T14:39:48.99Z</time></trkpt><trkpt lat="44.8327117" lon="9.526795"><ele>312.0</ele><time>2026-05-02T14:39:50.99Z</time></trkpt><trkpt lat="44.832795" lon="9.526895"><ele>312.0</ele><time>2026-05-02T14:39:52.99Z</time></trkpt><trkpt lat="44.832855" lon="9.5269233"><ele>312.0</ele><time>2026-05-02T14:39:54.99Z</time></trkpt><trkpt lat="44.832795" lon="9.5268567"><ele>312.0</ele><time>2026-05-02T14:39:58.99Z</time></trkpt><trkpt lat="44.8327117" lon="9.5268283"><ele>312.0</ele><time>2026-05-02T14:40:00.99Z</time></trkpt><trkpt lat="44.8326433" lon="9.52686"><ele>312.0</ele><time>2026-05-02T14:40:02.99Z</time></trkpt><trkpt lat="44.8326383" lon="9.5269583"><ele>312.0</ele><time>2026-05-02T14:40:05.989Z</time></trkpt><trkpt lat="44.83271" lon="9.5270433"><ele>313.6666666666667</ele><time>2026-05-02T14:40:07.988Z</time></trkpt><trkpt lat="44.8327783" lon="9.52713"><ele>315.3333333333333</ele><time>2026-05-02T14:40:09.99Z</time></trkpt><trkpt lat="44.832845" lon="9.5272233"><ele>317.0</ele><time>2026-05-02T14:40:11.989Z</time></trkpt><trkpt lat="44.8329067" lon="9.5272967"><ele>318.66666666666663</ele><time>2026-05-02T14:40:13.989Z</time></trkpt><trkpt lat="44.8329583" lon="9.5273667"><ele>320.3333333333333</ele><time>2026-05-02T14:40:15.99Z</time></trkpt><trkpt lat="44.833015" lon="9.5274383"><ele>322.0</ele><time>2026-05-02T14:40:17.99Z</time></trkpt><trkpt lat="44.8330817" lon="9.5275183"><ele>322.0</ele><time>2026-05-02T14:40:19.99Z</time></trkpt><trkpt lat="44.83314" lon="9.5275733"><ele>322.0</ele><time>2026-05-02T14:40:21.989Z</time></trkpt><trkpt lat="44.8331967" lon="9.52762"><ele>322.0</ele><time>2026-05-02T14:40:24.989Z</time></trkpt><trkpt lat="44.8332483" lon="9.5276717"><ele>322.0</ele><time>2026-05-02T14:40:29.989Z</time></trkpt><trkpt lat="44.8333283" lon="9.52772"><ele>322.0</ele><time>2026-05-02T14:40:36.989Z</time></trkpt><trkpt lat="44.8334083" lon="9.52774"><ele>322.0</ele><time>2026-05-02T14:40:39.989Z</time></trkpt><trkpt lat="44.8334967" lon="9.5277717"><ele>324.40000000000003</ele><time>2026-05-02T14:40:41.989Z</time></trkpt><trkpt lat="44.8335817" lon="9.5277867"><ele>326.8</ele><time>2026-05-02T14:40:43.99Z</time></trkpt><trkpt lat="44.833685" lon="9.5278117"><ele>329.2</ele><time>2026-05-02T14:40:45.989Z</time></trkpt><trkpt lat="44.8337783" lon="9.5278267"><ele>331.6</ele><time>2026-05-02T14:40:47.989Z</time></trkpt><trkpt lat="44.833895" lon="9.5278217"><ele>334.0</ele><time>2026-05-02T14:40:49.989Z</time></trkpt><trkpt lat="44.8339667" lon="9.5278133"><ele>334.0</ele><time>2026-05-02T14:40:50.989Z</time></trkpt><trkpt lat="44.8340383" lon="9.5277967"><ele>334.0</ele><time>2026-05-02T14:40:51.989Z</time></trkpt><trkpt lat="44.834105" lon="9.5277683"><ele>334.0</ele><time>2026-05-02T14:40:52.99Z</time></trkpt><trkpt lat="44.8341683" lon="9.5277333"><ele>334.0</ele><time>2026-05-02T14:40:53.989Z</time></trkpt><trkpt lat="44.834265" lon="9.5276433"><ele>334.0</ele><time>2026-05-02T14:40:55.989Z</time></trkpt><trkpt lat="44.8343517" lon="9.527525"><ele>334.0</ele><time>2026-05-02T14:40:57.989Z</time></trkpt><trkpt lat="44.83445" lon="9.527435"><ele>336.5</ele><time>2026-05-02T14:40:59.989Z</time></trkpt><trkpt lat="44.8345483" lon="9.527345"><ele>339.0</ele><time>2026-05-02T14:41:01.989Z</time></trkpt><trkpt lat="44.83463" lon="9.5272683"><ele>341.5</ele><time>2026-05-02T14:41:03.989Z</time></trkpt><trkpt lat="44.8346917" lon="9.5272417"><ele>344.0</ele><time>2026-05-02T14:41:05.988Z</time></trkpt><trkpt lat="44.8347433" lon="9.5273067"><ele>346.5</ele><time>2026-05-02T14:41:07.99Z</time></trkpt><trkpt lat="44.8347967" lon="9.52742"><ele>349.0</ele><time>2026-05-02T14:41:09.989Z</time></trkpt><trkpt lat="44.834865" lon="9.5275233"><ele>349.0</ele><time>2026-05-02T14:41:11.989Z</time></trkpt><trkpt lat="44.8349267" lon="9.52762"><ele>349.0</ele><time>2026-05-02T14:41:13.989Z</time></trkpt><trkpt lat="44.8349933" lon="9.5277067"><ele>349.0</ele><time>2026-05-02T14:41:15.989Z</time></trkpt><trkpt lat="44.835045" lon="9.5277833"><ele>349.0</ele><time>2026-05-02T14:41:17.989Z</time></trkpt><trkpt lat="44.835125" lon="9.5278383"><ele>349.0</ele><time>2026-05-02T14:41:20.989Z</time></trkpt><trkpt lat="44.8352133" lon="9.5278133"><ele>349.0</ele><time>2026-05-02T14:41:22.99Z</time></trkpt><trkpt lat="44.8353117" lon="9.527815"><ele>349.8333333333333</ele><time>2026-05-02T14:41:24.989Z</time></trkpt><trkpt lat="44.8353917" lon="9.52789"><ele>350.66666666666663</ele><time>2026-05-02T14:41:26.989Z</time></trkpt><trkpt lat="44.8354367" lon="9.5279633"><ele>351.5</ele><time>2026-05-02T14:41:27.989Z</time></trkpt><trkpt lat="44.8354733" lon="9.52805"><ele>352.3333333333333</ele><time>2026-05-02T14:41:28.99Z</time></trkpt><trkpt lat="44.8355067" lon="9.52815"><ele>353.1666666666667</ele><time>2026-05-02T14:41:29.989Z</time></trkpt><trkpt lat="44.8355367" lon="9.5282717"><ele>354.0</ele><time>2026-05-02T14:41:30.989Z</time></trkpt><trkpt lat="44.8355733" lon="9.5284033"><ele>356.2</ele><time>2026-05-02T14:41:31.989Z</time></trkpt><trkpt lat="44.835605" lon="9.52853"><ele>358.4</ele><time>2026-05-02T14:41:32.991Z</time></trkpt><trkpt lat="44.8356383" lon="9.52865"><ele>360.6</ele><time>2026-05-02T14:41:33.989Z</time></trkpt><trkpt lat="44.8356667" lon="9.528775"><ele>362.8</ele><time>2026-05-02T14:41:34.989Z</time></trkpt><trkpt lat="44.8356917" lon="9.5289017"><ele>365.0</ele><time>2026-05-02T14:41:35.989Z</time></trkpt><trkpt lat="44.8357183" lon="9.5290333"><ele>366.5</ele><time>2026-05-02T14:41:36.989Z</time></trkpt><trkpt lat="44.8357383" lon="9.5291633"><ele>368.0</ele><time>2026-05-02T14:41:37.988Z</time></trkpt><trkpt lat="44.835755" lon="9.5292783"><ele>369.5</ele><time>2026-05-02T14:41:38.99Z</time></trkpt><trkpt lat="44.8357683" lon="9.5293867"><ele>371.0</ele><time>2026-05-02T14:41:39.989Z</time></trkpt><trkpt lat="44.8357733" lon="9.5294883"><ele>372.5</ele><time>2026-05-02T14:41:40.99Z</time></trkpt><trkpt lat="44.8357767" lon="9.5296017"><ele>374.0</ele><time>2026-05-02T14:41:41.989Z</time></trkpt><trkpt lat="44.835765" lon="9.5297233"><ele>375.6</ele><time>2026-05-02T14:41:42.99Z</time></trkpt><trkpt lat="44.83574" lon="9.529855"><ele>377.2</ele><time>2026-05-02T14:41:43.989Z</time></trkpt><trkpt lat="44.8357133" lon="9.5299883"><ele>378.8</ele><time>2026-05-02T14:41:44.99Z</time></trkpt><trkpt lat="44.8356833" lon="9.5301183"><ele>380.40000000000003</ele><time>2026-05-02T14:41:45.989Z</time></trkpt><trkpt lat="44.83565" lon="9.5302483"><ele>382.0</ele><time>2026-05-02T14:41:46.989Z</time></trkpt><trkpt lat="44.8356133" lon="9.530385"><ele>383.66666666666663</ele><time>2026-05-02T14:41:47.989Z</time></trkpt><trkpt lat="44.8355833" lon="9.5305133"><ele>385.3333333333333</ele><time>2026-05-02T14:41:48.989Z</time></trkpt><trkpt lat="44.8355667" lon="9.530635"><ele>387.0</ele><time>2026-05-02T14:41:49.99Z</time></trkpt><trkpt lat="44.8355467" lon="9.5307517"><ele>388.66666666666663</ele><time>2026-05-02T14:41:50.99Z</time></trkpt><trkpt lat="44.835525" lon="9.530875"><ele>390.3333333333333</ele><time>2026-05-02T14:41:51.989Z</time></trkpt><trkpt lat="44.8355017" lon="9.5309967"><ele>392.0</ele><time>2026-05-02T14:41:52.99Z</time></trkpt><trkpt lat="44.83548" lon="9.5311233"><ele>394.40000000000003</ele><time>2026-05-02T14:41:53.99Z</time></trkpt><trkpt lat="44.8354567" lon="9.531265"><ele>396.8</ele><time>2026-05-02T14:41:54.991Z</time></trkpt><trkpt lat="44.8354333" lon="9.5314117"><ele>399.2</ele><time>2026-05-02T14:41:55.99Z</time></trkpt><trkpt lat="44.8354083" lon="9.5315533"><ele>401.6</ele><time>2026-05-02T14:41:56.99Z</time></trkpt><trkpt lat="44.8353783" lon="9.5316667"><ele>404.0</ele><time>2026-05-02T14:41:57.989Z</time></trkpt><trkpt lat="44.8353517" lon="9.531785"><ele>403.99999999999994</ele><time>2026-05-02T14:41:58.989Z</time></trkpt><trkpt lat="44.8353267" lon="9.531895"><ele>404.0</ele><time>2026-05-02T14:41:59.989Z</time></trkpt><trkpt lat="44.8353117" lon="9.5320017"><ele>404.0</ele><time>2026-05-02T14:42:00.989Z</time></trkpt><trkpt lat="44.835305" lon="9.5321017"><ele>404.0</ele><time>2026-05-02T14:42:01.989Z</time></trkpt><trkpt lat="44.8352983" lon="9.532215"><ele>403.99999999999994</ele><time>2026-05-02T14:42:02.99Z</time></trkpt><trkpt lat="44.8352883" lon="9.5323267"><ele>404.0</ele><time>2026-05-02T14:42:03.991Z</time></trkpt><trkpt lat="44.8352683" lon="9.5324467"><ele>406.2</ele><time>2026-05-02T14:42:04.99Z</time></trkpt><trkpt lat="44.8352617" lon="9.53254"><ele>408.4</ele><time>2026-05-02T14:42:05.99Z</time></trkpt><trkpt lat="44.8352283" lon="9.5327183"><ele>410.6</ele><time>2026-05-02T14:42:07.992Z</time></trkpt><trkpt lat="44.8352067" lon="9.5328167"><ele>412.8</ele><time>2026-05-02T14:42:08.989Z</time></trkpt><trkpt lat="44.8351717" lon="9.53294"><ele>415.0</ele><time>2026-05-02T14:42:09.989Z</time></trkpt><trkpt lat="44.8351383" lon="9.5330767"><ele>415.6</ele><time>2026-05-02T14:42:10.989Z</time></trkpt><trkpt lat="44.8351067" lon="9.5332267"><ele>416.2</ele><time>2026-05-02T14:42:11.99Z</time></trkpt><trkpt lat="44.8350783" lon="9.533375"><ele>416.79999999999995</ele><time>2026-05-02T14:42:12.989Z</time></trkpt><trkpt lat="44.8350517" lon="9.5335233"><ele>417.4</ele><time>2026-05-02T14:42:13.989Z</time></trkpt><trkpt lat="44.83503" lon="9.53366"><ele>418.0</ele><time>2026-05-02T14:42:14.99Z</time></trkpt><trkpt lat="44.8350033" lon="9.53377"><ele>418.0</ele><time>2026-05-02T14:42:15.99Z</time></trkpt><trkpt lat="44.8349817" lon="9.53387"><ele>418.0</ele><time>2026-05-02T14:42:16.99Z</time></trkpt><trkpt lat="44.8349533" lon="9.5340033"><ele>418.0</ele><time>2026-05-02T14:42:18.989Z</time></trkpt><trkpt lat="44.8350967" lon="9.5339433"><ele>418.0</ele><time>2026-05-02T14:42:25.989Z</time></trkpt><trkpt lat="44.835195" lon="9.533915"><ele>418.0</ele><time>2026-05-02T14:42:26.989Z</time></trkpt><trkpt lat="44.8352983" lon="9.533885"><ele>418.59999999999997</ele><time>2026-05-02T14:42:27.989Z</time></trkpt><trkpt lat="44.835415" lon="9.5338567"><ele>419.2</ele><time>2026-05-02T14:42:28.989Z</time></trkpt><trkpt lat="44.8355283" lon="9.5338083"><ele>419.8</ele><time>2026-05-02T14:42:29.99Z</time></trkpt><trkpt lat="44.8356317" lon="9.53375"><ele>420.4</ele><time>2026-05-02T14:42:30.989Z</time></trkpt><trkpt lat="44.83572" lon="9.5336917"><ele>421.0</ele><time>2026-05-02T14:42:31.989Z</time></trkpt><trkpt lat="44.8357933" lon="9.5336517"><ele>421.0</ele><time>2026-05-02T14:42:32.989Z</time></trkpt><trkpt lat="44.8359" lon="9.533645"><ele>421.0</ele><time>2026-05-02T14:42:34.989Z</time></trkpt><trkpt lat="44.8359783" lon="9.53371"><ele>421.0</ele><time>2026-05-02T14:42:36.99Z</time></trkpt><trkpt lat="44.83606" lon="9.533825"><ele>421.0</ele><time>2026-05-02T14:42:38.989Z</time></trkpt><trkpt lat="44.8361183" lon="9.533985"><ele>421.0</ele><time>2026-05-02T14:42:40.993Z</time></trkpt><trkpt lat="44.836145" lon="9.534075"><ele>421.00000000000006</ele><time>2026-05-02T14:42:41.989Z</time></trkpt><trkpt lat="44.8361583" lon="9.5341717"><ele>421.0</ele><time>2026-05-02T14:42:42.989Z</time></trkpt><trkpt lat="44.8361583" lon="9.5342733"><ele>421.0</ele><time>2026-05-02T14:42:43.989Z</time></trkpt><trkpt lat="44.8361367" lon="9.534395"><ele>421.0</ele><time>2026-05-02T14:42:44.989Z</time></trkpt><trkpt lat="44.8361033" lon="9.5345183"><ele>421.00000000000006</ele><time>2026-05-02T14:42:45.991Z</time></trkpt><trkpt lat="44.83607" lon="9.5346483"><ele>421.0</ele><time>2026-05-02T14:42:46.989Z</time></trkpt><trkpt lat="44.8360467" lon="9.5347767"><ele>421.0</ele><time>2026-05-02T14:42:47.99Z</time></trkpt><trkpt lat="44.836045" lon="9.5349017"><ele>421.0</ele><time>2026-05-02T14:42:48.989Z</time></trkpt><trkpt lat="44.8360533" lon="9.5350267"><ele>421.0</ele><time>2026-05-02T14:42:49.99Z</time></trkpt><trkpt lat="44.8360817" lon="9.5351617"><ele>421.0</ele><time>2026-05-02T14:42:50.99Z</time></trkpt><trkpt lat="44.8361183" lon="9.5353183"><ele>421.0</ele><time>2026-05-02T14:42:51.989Z</time></trkpt><trkpt lat="44.83615" lon="9.5354817"><ele>423.1666666666667</ele><time>2026-05-02T14:42:52.989Z</time></trkpt><trkpt lat="44.8361783" lon="9.53562"><ele>425.33333333333337</ele><time>2026-05-02T14:42:53.991Z</time></trkpt><trkpt lat="44.8361967" lon="9.53573"><ele>427.5</ele><time>2026-05-02T14:42:54.99Z</time></trkpt><trkpt lat="44.8361967" lon="9.5358567"><ele>429.66666666666663</ele><time>2026-05-02T14:42:56.989Z</time></trkpt><trkpt lat="44.836135" lon="9.5358233"><ele>431.8333333333333</ele><time>2026-05-02T14:42:58.989Z</time></trkpt><trkpt lat="44.836105" lon="9.53573"><ele>434.0</ele><time>2026-05-02T14:42:59.989Z</time></trkpt><trkpt lat="44.83608" lon="9.535625"><ele>434.0</ele><time>2026-05-02T14:43:00.989Z</time></trkpt><trkpt lat="44.836045" lon="9.5354917"><ele>434.0</ele><time>2026-05-02T14:43:01.99Z</time></trkpt><trkpt lat="44.83599" lon="9.535365"><ele>434.0</ele><time>2026-05-02T14:43:02.989Z</time></trkpt><trkpt lat="44.8359333" lon="9.5352517"><ele>434.0</ele><time>2026-05-02T14:43:03.989Z</time></trkpt><trkpt lat="44.835875" lon="9.5351583"><ele>434.0</ele><time>2026-05-02T14:43:04.989Z</time></trkpt><trkpt lat="44.8358167" lon="9.5351117"><ele>435.49999999999994</ele><time>2026-05-02T14:43:05.989Z</time></trkpt><trkpt lat="44.8357383" lon="9.5351583"><ele>437.0</ele><time>2026-05-02T14:43:07.99Z</time></trkpt><trkpt lat="44.8356667" lon="9.535255"><ele>438.5</ele><time>2026-05-02T14:43:17.989Z</time></trkpt><trkpt lat="44.8356083" lon="9.5353167"><ele>440.0</ele><time>2026-05-02T14:43:22.989Z</time></trkpt><trkpt lat="44.83558" lon="9.5354417"><ele>441.49999999999994</ele><time>2026-05-02T14:43:24.99Z</time></trkpt><trkpt lat="44.835565" lon="9.535545"><ele>443.0</ele><time>2026-05-02T14:43:25.989Z</time></trkpt><trkpt lat="44.8355467" lon="9.5356417"><ele>445.3333333333333</ele><time>2026-05-02T14:43:26.989Z</time></trkpt><trkpt lat="44.83552" lon="9.5357417"><ele>447.66666666666663</ele><time>2026-05-02T14:43:27.99Z</time></trkpt><trkpt lat="44.835475" lon="9.5358433"><ele>450.0</ele><time>2026-05-02T14:43:28.989Z</time></trkpt><trkpt lat="44.8354283" lon="9.53594"><ele>452.33333333333337</ele><time>2026-05-02T14:43:29.989Z</time></trkpt><trkpt lat="44.8353733" lon="9.5360433"><ele>454.6666666666667</ele><time>2026-05-02T14:43:30.99Z</time></trkpt><trkpt lat="44.8353133" lon="9.53615"><ele>457.0</ele><time>2026-05-02T14:43:31.99Z</time></trkpt><trkpt lat="44.8352467" lon="9.53627"><ele>458.33333333333337</ele><time>2026-05-02T14:43:32.989Z</time></trkpt><trkpt lat="44.8351867" lon="9.5363817"><ele>459.6666666666667</ele><time>2026-05-02T14:43:33.989Z</time></trkpt><trkpt lat="44.835135" lon="9.5364917"><ele>461.0</ele><time>2026-05-02T14:43:34.99Z</time></trkpt><trkpt lat="44.835095" lon="9.5365933"><ele>462.33333333333337</ele><time>2026-05-02T14:43:35.989Z</time></trkpt><trkpt lat="44.8350633" lon="9.536705"><ele>463.6666666666667</ele><time>2026-05-02T14:43:36.989Z</time></trkpt><trkpt lat="44.8350533" lon="9.536815"><ele>465.0</ele><time>2026-05-02T14:43:37.989Z</time></trkpt><trkpt lat="44.8350583" lon="9.5369383"><ele>467.4</ele><time>2026-05-02T14:43:38.99Z</time></trkpt><trkpt lat="44.8350733" lon="9.537065"><ele>469.8</ele><time>2026-05-02T14:43:39.99Z</time></trkpt><trkpt lat="44.8350783" lon="9.53719"><ele>472.20000000000005</ele><time>2026-05-02T14:43:40.989Z</time></trkpt><trkpt lat="44.8350567" lon="9.53731"><ele>474.6</ele><time>2026-05-02T14:43:41.989Z</time></trkpt><trkpt lat="44.8350333" lon="9.537435"><ele>477.0</ele><time>2026-05-02T14:43:42.989Z</time></trkpt><trkpt lat="44.8350233" lon="9.5375667"><ele>477.0</ele><time>2026-05-02T14:43:43.99Z</time></trkpt><trkpt lat="44.8350233" lon="9.5376967"><ele>477.0</ele><time>2026-05-02T14:43:44.99Z</time></trkpt><trkpt lat="44.835025" lon="9.53782"><ele>477.0</ele><time>2026-05-02T14:43:45.989Z</time></trkpt><trkpt lat="44.8350217" lon="9.5379317"><ele>477.0</ele><time>2026-05-02T14:43:46.989Z</time></trkpt><trkpt lat="44.8350067" lon="9.5380233"><ele>477.0</ele><time>2026-05-02T14:43:47.989Z</time></trkpt><trkpt lat="44.8349833" lon="9.5381817"><ele>477.0</ele><time>2026-05-02T14:43:49.989Z</time></trkpt><trkpt lat="44.8350017" lon="9.538295"><ele>478.20000000000005</ele><time>2026-05-02T14:43:51.989Z</time></trkpt><trkpt lat="44.8350933" lon="9.5382983"><ele>479.40000000000003</ele><time>2026-05-02T14:43:54.99Z</time></trkpt><trkpt lat="44.835185" lon="9.53815"><ele>480.59999999999997</ele><time>2026-05-02T14:43:56.99Z</time></trkpt><trkpt lat="44.8352233" lon="9.538055"><ele>481.79999999999995</ele><time>2026-05-02T14:43:57.989Z</time></trkpt><trkpt lat="44.8352433" lon="9.5379383"><ele>483.0</ele><time>2026-05-02T14:43:58.989Z</time></trkpt><trkpt lat="44.83526" lon="9.5378217"><ele>483.0</ele><time>2026-05-02T14:43:59.99Z</time></trkpt><trkpt lat="44.835285" lon="9.5377183"><ele>482.99999999999994</ele><time>2026-05-02T14:44:00.989Z</time></trkpt><trkpt lat="44.8353483" lon="9.5376283"><ele>482.99999999999994</ele><time>2026-05-02T14:44:02.99Z</time></trkpt><trkpt lat="44.8354183" lon="9.5376567"><ele>483.0</ele><time>2026-05-02T14:44:04.989Z</time></trkpt><trkpt lat="44.83549" lon="9.53778"><ele>483.0</ele><time>2026-05-02T14:44:06.99Z</time></trkpt><trkpt lat="44.8355317" lon="9.537945"><ele>484.1666666666667</ele><time>2026-05-02T14:44:08.99Z</time></trkpt><trkpt lat="44.835555" lon="9.538055"><ele>485.33333333333337</ele><time>2026-05-02T14:44:09.989Z</time></trkpt><trkpt lat="44.8355517" lon="9.53816"><ele>486.5</ele><time>2026-05-02T14:44:10.99Z</time></trkpt><trkpt lat="44.8355283" lon="9.5382617"><ele>487.6666666666667</ele><time>2026-05-02T14:44:11.989Z</time></trkpt><trkpt lat="44.8354917" lon="9.5383567"><ele>488.83333333333337</ele><time>2026-05-02T14:44:12.99Z</time></trkpt><trkpt lat="44.835445" lon="9.5384433"><ele>490.0</ele><time>2026-05-02T14:44:13.99Z</time></trkpt><trkpt lat="44.8353883" lon="9.5385283"><ele>490.00000000000006</ele><time>2026-05-02T14:44:14.99Z</time></trkpt><trkpt lat="44.8353267" lon="9.5386233"><ele>490.0</ele><time>2026-05-02T14:44:15.99Z</time></trkpt><trkpt lat="44.8352633" lon="9.53872"><ele>490.0</ele><time>2026-05-02T14:44:16.99Z</time></trkpt><trkpt lat="44.8352083" lon="9.5388117"><ele>490.0</ele><time>2026-05-02T14:44:17.991Z</time></trkpt><trkpt lat="44.8351617" lon="9.5389"><ele>490.00000000000006</ele><time>2026-05-02T14:44:18.989Z</time></trkpt><trkpt lat="44.8351333" lon="9.5389933"><ele>490.0</ele><time>2026-05-02T14:44:19.989Z</time></trkpt><trkpt lat="44.83512" lon="9.5390967"><ele>491.0</ele><time>2026-05-02T14:44:20.99Z</time></trkpt><trkpt lat="44.835125" lon="9.5391983"><ele>492.0</ele><time>2026-05-02T14:44:21.989Z</time></trkpt><trkpt lat="44.8351383" lon="9.53931"><ele>493.0</ele><time>2026-05-02T14:44:22.99Z</time></trkpt><trkpt lat="44.8351517" lon="9.53942"><ele>494.0</ele><time>2026-05-02T14:44:23.989Z</time></trkpt><trkpt lat="44.83516" lon="9.53952"><ele>495.0</ele><time>2026-05-02T14:44:24.989Z</time></trkpt><trkpt lat="44.8351633" lon="9.5396167"><ele>496.0</ele><time>2026-05-02T14:44:25.99Z</time></trkpt><trkpt lat="44.835155" lon="9.5397083"><ele>497.0</ele><time>2026-05-02T14:44:26.99Z</time></trkpt><trkpt lat="44.83514" lon="9.5398183"><ele>499.3333333333333</ele><time>2026-05-02T14:44:27.99Z</time></trkpt><trkpt lat="44.8351233" lon="9.5399117"><ele>501.66666666666663</ele><time>2026-05-02T14:44:28.989Z</time></trkpt><trkpt lat="44.8351067" lon="9.5400067"><ele>504.0</ele><time>2026-05-02T14:44:29.99Z</time></trkpt><trkpt lat="44.8351033" lon="9.54017"><ele>506.33333333333337</ele><time>2026-05-02T14:44:31.989Z</time></trkpt><trkpt lat="44.8351417" lon="9.5402633"><ele>508.6666666666667</ele><time>2026-05-02T14:44:33.99Z</time></trkpt><trkpt lat="44.8352217" lon="9.5402483"><ele>511.0</ele><time>2026-05-02T14:44:35.99Z</time></trkpt><trkpt lat="44.8353467" lon="9.5402167"><ele>511.00000000000006</ele><time>2026-05-02T14:44:37.99Z</time></trkpt><trkpt lat="44.83541" lon="9.5402117"><ele>511.0</ele><time>2026-05-02T14:44:38.99Z</time></trkpt><trkpt lat="44.8354967" lon="9.54026"><ele>511.0</ele><time>2026-05-02T14:44:40.989Z</time></trkpt><trkpt lat="44.8354667" lon="9.5403633"><ele>511.0</ele><time>2026-05-02T14:44:43.99Z</time></trkpt><trkpt lat="44.835395" lon="9.5403967"><ele>511.00000000000006</ele><time>2026-05-02T14:44:45.989Z</time></trkpt><trkpt lat="44.8352933" lon="9.5404833"><ele>511.0</ele><time>2026-05-02T14:44:47.99Z</time></trkpt><trkpt lat="44.8352533" lon="9.5405617"><ele>513.8</ele><time>2026-05-02T14:44:48.99Z</time></trkpt><trkpt lat="44.835205" lon="9.540715"><ele>516.6</ele><time>2026-05-02T14:44:50.99Z</time></trkpt><trkpt lat="44.8351817" lon="9.5407983"><ele>519.4</ele><time>2026-05-02T14:44:51.99Z</time></trkpt><trkpt lat="44.835141" lon="9.5409511"><ele>522.2</ele><time>2026-05-02T14:44:53.991Z</time></trkpt><trkpt lat="44.8350951" lon="9.541114"><ele>525.0</ele><time>2026-05-02T14:44:55.99Z</time></trkpt><trkpt lat="44.8350412" lon="9.5412462"><ele>530.0</ele><time>2026-05-02T14:44:57.989Z</time></trkpt><trkpt lat="44.834978" lon="9.5413395"><ele>535.0</ele><time>2026-05-02T14:44:59.99Z</time></trkpt><trkpt lat="44.8349136" lon="9.5414501"><ele>540.0</ele><time>2026-05-02T14:45:01.99Z</time></trkpt><trkpt lat="44.8348271" lon="9.5415268"><ele>545.0</ele><time>2026-05-02T14:45:03.99Z</time></trkpt><trkpt lat="44.8347382" lon="9.5416106"><ele>550.0</ele><time>2026-05-02T14:45:05.99Z</time></trkpt><trkpt lat="44.8346725" lon="9.5417238"><ele>550.0</ele><time>2026-05-02T14:45:07.989Z</time></trkpt><trkpt lat="44.834644" lon="9.541836"><ele>550.0</ele><time>2026-05-02T14:45:09.989Z</time></trkpt><trkpt lat="44.8346741" lon="9.5419314"><ele>550.0</ele><time>2026-05-02T14:45:11.989Z</time></trkpt><trkpt lat="44.834751" lon="9.5420229"><ele>550.0</ele><time>2026-05-02T14:45:13.989Z</time></trkpt><trkpt lat="44.8348229" lon="9.5421556"><ele>550.0</ele><time>2026-05-02T14:45:15.989Z</time></trkpt><trkpt lat="44.8348622" lon="9.5422366"><ele>550.0</ele><time>2026-05-02T14:45:16.99Z</time></trkpt><trkpt lat="44.8349118" lon="9.5423206"><ele>552.2</ele><time>2026-05-02T14:45:17.989Z</time></trkpt><trkpt lat="44.8349727" lon="9.5424015"><ele>554.4</ele><time>2026-05-02T14:45:18.991Z</time></trkpt><trkpt lat="44.8350353" lon="9.5424678"><ele>556.6</ele><time>2026-05-02T14:45:19.992Z</time></trkpt><trkpt lat="44.835095" lon="9.5425221"><ele>558.8</ele><time>2026-05-02T14:45:20.989Z</time></trkpt><trkpt lat="44.8351852" lon="9.5426285"><ele>561.0</ele><time>2026-05-02T14:45:22.99Z</time></trkpt><trkpt lat="44.8352281" lon="9.5427564"><ele>561.4</ele><time>2026-05-02T14:45:24.989Z</time></trkpt><trkpt lat="44.8352329" lon="9.5429076"><ele>561.8</ele><time>2026-05-02T14:45:26.99Z</time></trkpt><trkpt lat="44.8352231" lon="9.5430233"><ele>562.1999999999999</ele><time>2026-05-02T14:45:28.991Z</time></trkpt><trkpt lat="44.8352137" lon="9.5431406"><ele>562.6</ele><time>2026-05-02T14:45:30.989Z</time></trkpt><trkpt lat="44.8351948" lon="9.5433063"><ele>563.0</ele><time>2026-05-02T14:45:32.989Z</time></trkpt><trkpt lat="44.8351739" lon="9.5434373"><ele>563.0</ele><time>2026-05-02T14:45:34.99Z</time></trkpt><trkpt lat="44.8352018" lon="9.5435471"><ele>563.0</ele><time>2026-05-02T14:45:40.989Z</time></trkpt><trkpt lat="44.8352188" lon="9.5436337"><ele>563.0</ele><time>2026-05-02T14:45:43.078Z</time></trkpt><trkpt lat="44.8352958" lon="9.5438005"><ele>563.0</ele><time>2026-05-02T14:45:45.054Z</time></trkpt><trkpt lat="44.8354323" lon="9.5442073"><ele>561.6666666666666</ele><time>2026-05-02T14:45:47.989Z</time></trkpt><trkpt lat="44.8354686" lon="9.5443158"><ele>560.3333333333333</ele><time>2026-05-02T14:45:48.989Z</time></trkpt><trkpt lat="44.8355038" lon="9.5444167"><ele>559.0</ele><time>2026-05-02T14:45:49.99Z</time></trkpt><trkpt lat="44.8355354" lon="9.5445131"><ele>557.6666666666666</ele><time>2026-05-02T14:45:50.99Z</time></trkpt><trkpt lat="44.8355627" lon="9.5446074"><ele>556.3333333333334</ele><time>2026-05-02T14:45:51.989Z</time></trkpt><trkpt lat="44.8355889" lon="9.5447012"><ele>555.0</ele><time>2026-05-02T14:45:52.99Z</time></trkpt><trkpt lat="44.8356233" lon="9.5448"><ele>554.3333333333334</ele><time>2026-05-02T14:45:53.99Z</time></trkpt><trkpt lat="44.83566" lon="9.5449067"><ele>553.6666666666666</ele><time>2026-05-02T14:45:54.99Z</time></trkpt><trkpt lat="44.8356933" lon="9.5450117"><ele>553.0</ele><time>2026-05-02T14:45:55.99Z</time></trkpt><trkpt lat="44.8357267" lon="9.545105"><ele>552.3333333333333</ele><time>2026-05-02T14:45:56.99Z</time></trkpt><trkpt lat="44.8357517" lon="9.5452067"><ele>551.6666666666666</ele><time>2026-05-02T14:45:57.991Z</time></trkpt><trkpt lat="44.83577" lon="9.5453083"><ele>551.0</ele><time>2026-05-02T14:45:58.99Z</time></trkpt><trkpt lat="44.8357867" lon="9.5454017"><ele>550.6</ele><time>2026-05-02T14:45:59.991Z</time></trkpt><trkpt lat="44.835785" lon="9.54557"><ele>550.2</ele><time>2026-05-02T14:46:01.99Z</time></trkpt><trkpt lat="44.83575" lon="9.5456483"><ele>549.8</ele><time>2026-05-02T14:46:02.99Z</time></trkpt><trkpt lat="44.8357033" lon="9.5457267"><ele>549.4</ele><time>2026-05-02T14:46:03.989Z</time></trkpt><trkpt lat="44.8356683" lon="9.5458683"><ele>549.0</ele><time>2026-05-02T14:46:05.99Z</time></trkpt><trkpt lat="44.8356517" lon="9.5459933"><ele>549.0</ele><time>2026-05-02T14:46:07.99Z</time></trkpt><trkpt lat="44.8356533" lon="9.5461283"><ele>549.0</ele><time>2026-05-02T14:46:09.989Z</time></trkpt><trkpt lat="44.835675" lon="9.546245"><ele>549.0</ele><time>2026-05-02T14:46:11.99Z</time></trkpt><trkpt lat="44.8356883" lon="9.5463433"><ele>549.0</ele><time>2026-05-02T14:46:13.99Z</time></trkpt><trkpt lat="44.8356617" lon="9.5464667"><ele>549.0</ele><time>2026-05-02T14:46:15.989Z</time></trkpt><trkpt lat="44.8356017" lon="9.5466167"><ele>547.2</ele><time>2026-05-02T14:46:17.989Z</time></trkpt><trkpt lat="44.83553" lon="9.5467467"><ele>545.4</ele><time>2026-05-02T14:46:19.989Z</time></trkpt><trkpt lat="44.8354567" lon="9.5468683"><ele>543.6</ele><time>2026-05-02T14:46:21.989Z</time></trkpt><trkpt lat="44.8353867" lon="9.5469583"><ele>541.8</ele><time>2026-05-02T14:46:23.99Z</time></trkpt><trkpt lat="44.8353367" lon="9.5470333"><ele>540.0</ele><time>2026-05-02T14:46:25.989Z</time></trkpt><trkpt lat="44.835285" lon="9.5471833"><ele>541.5</ele><time>2026-05-02T14:46:32.991Z</time></trkpt><trkpt lat="44.8352017" lon="9.547335"><ele>543.0</ele><time>2026-05-02T14:46:34.99Z</time></trkpt><trkpt lat="44.8351683" lon="9.547415"><ele>544.5</ele><time>2026-05-02T14:46:35.99Z</time></trkpt><trkpt lat="44.8351383" lon="9.5475"><ele>546.0</ele><time>2026-05-02T14:46:36.99Z</time></trkpt><trkpt lat="44.8351167" lon="9.5475867"><ele>547.5</ele><time>2026-05-02T14:46:37.99Z</time></trkpt><trkpt lat="44.8350917" lon="9.5476783"><ele>549.0</ele><time>2026-05-02T14:46:39.992Z</time></trkpt><trkpt lat="44.8350817" lon="9.5478067"><ele>546.1666666666666</ele><time>2026-05-02T14:47:01.989Z</time></trkpt><trkpt lat="44.835045" lon="9.547965"><ele>543.3333333333334</ele><time>2026-05-02T14:47:03.991Z</time></trkpt><trkpt lat="44.8350167" lon="9.548055"><ele>540.5</ele><time>2026-05-02T14:47:04.99Z</time></trkpt><trkpt lat="44.8349867" lon="9.5481333"><ele>537.6666666666667</ele><time>2026-05-02T14:47:05.99Z</time></trkpt><trkpt lat="44.83495" lon="9.54821"><ele>534.8333333333334</ele><time>2026-05-02T14:47:06.988Z</time></trkpt><trkpt lat="44.8348817" lon="9.5483417"><ele>532.0</ele><time>2026-05-02T14:47:08.989Z</time></trkpt><trkpt lat="44.8348" lon="9.5484333"><ele>532.0</ele><time>2026-05-02T14:47:10.988Z</time></trkpt><trkpt lat="44.83472" lon="9.5485183"><ele>532.0</ele><time>2026-05-02T14:47:12.988Z</time></trkpt><trkpt lat="44.8346333" lon="9.5485917"><ele>532.0</ele><time>2026-05-02T14:47:14.99Z</time></trkpt><trkpt lat="44.834525" lon="9.548655"><ele>532.0</ele><time>2026-05-02T14:47:16.988Z</time></trkpt><trkpt lat="44.8344567" lon="9.548705"><ele>532.0</ele><time>2026-05-02T14:47:17.989Z</time></trkpt><trkpt lat="44.83439" lon="9.5487417"><ele>532.6666666666667</ele><time>2026-05-02T14:47:18.989Z</time></trkpt><trkpt lat="44.83433" lon="9.5487783"><ele>533.3333333333334</ele><time>2026-05-02T14:47:19.99Z</time></trkpt><trkpt lat="44.83425" lon="9.548835"><ele>534.0</ele><time>2026-05-02T14:47:21.988Z</time></trkpt><trkpt lat="44.8342433" lon="9.5489333"><ele>534.6666666666666</ele><time>2026-05-02T14:47:26.989Z</time></trkpt><trkpt lat="44.8343033" lon="9.5490283"><ele>535.3333333333333</ele><time>2026-05-02T14:47:29.989Z</time></trkpt><trkpt lat="44.8343767" lon="9.5491483"><ele>536.0</ele><time>2026-05-02T14:47:31.988Z</time></trkpt><trkpt lat="44.8344017" lon="9.5492633"><ele>535.8333333333333</ele><time>2026-05-02T14:47:33.988Z</time></trkpt><trkpt lat="44.83435" lon="9.5493683"><ele>535.6666666666666</ele><time>2026-05-02T14:47:35.989Z</time></trkpt><trkpt lat="44.834305" lon="9.5494683"><ele>535.5</ele><time>2026-05-02T14:47:37.989Z</time></trkpt><trkpt lat="44.834275" lon="9.549575"><ele>535.3333333333334</ele><time>2026-05-02T14:47:39.989Z</time></trkpt><trkpt lat="44.8343017" lon="9.5496783"><ele>535.1666666666667</ele><time>2026-05-02T14:47:42.989Z</time></trkpt><trkpt lat="44.834335" lon="9.5497833"><ele>535.0</ele><time>2026-05-02T14:47:44.989Z</time></trkpt><trkpt lat="44.8343933" lon="9.5498983"><ele>529.2</ele><time>2026-05-02T14:47:46.989Z</time></trkpt><trkpt lat="44.8344717" lon="9.5499733"><ele>523.4</ele><time>2026-05-02T14:47:48.989Z</time></trkpt><trkpt lat="44.8345467" lon="9.5500667"><ele>517.6</ele><time>2026-05-02T14:47:50.989Z</time></trkpt><trkpt lat="44.8346" lon="9.5501733"><ele>511.8</ele><time>2026-05-02T14:47:52.989Z</time></trkpt><trkpt lat="44.8346333" lon="9.5503017"><ele>506.0</ele><time>2026-05-02T14:47:54.989Z</time></trkpt><trkpt lat="44.834645" lon="9.5504517"><ele>505.4</ele><time>2026-05-02T14:47:56.989Z</time></trkpt><trkpt lat="44.83465" lon="9.5505733"><ele>504.8</ele><time>2026-05-02T14:47:58.989Z</time></trkpt><trkpt lat="44.8346233" lon="9.5506867"><ele>504.19999999999993</ele><time>2026-05-02T14:48:00.99Z</time></trkpt><trkpt lat="44.83454" lon="9.550815"><ele>503.59999999999997</ele><time>2026-05-02T14:48:02.99Z</time></trkpt><trkpt lat="44.8344917" lon="9.5508967"><ele>503.0</ele><time>2026-05-02T14:48:03.989Z</time></trkpt><trkpt lat="44.8344317" lon="9.5510133"><ele>503.0</ele><time>2026-05-02T14:48:05.989Z</time></trkpt><trkpt lat="44.8343933" lon="9.5511283"><ele>502.99999999999994</ele><time>2026-05-02T14:48:07.99Z</time></trkpt><trkpt lat="44.8343683" lon="9.55126"><ele>502.99999999999994</ele><time>2026-05-02T14:48:09.99Z</time></trkpt><trkpt lat="44.8343483" lon="9.55144"><ele>503.0</ele><time>2026-05-02T14:48:11.989Z</time></trkpt><trkpt lat="44.8343417" lon="9.5515467"><ele>503.0</ele><time>2026-05-02T14:48:12.99Z</time></trkpt><trkpt lat="44.8343533" lon="9.5516833"><ele>500.2</ele><time>2026-05-02T14:48:14.99Z</time></trkpt><trkpt lat="44.8343633" lon="9.5517717"><ele>497.4</ele><time>2026-05-02T14:48:15.988Z</time></trkpt><trkpt lat="44.834385" lon="9.55192"><ele>494.59999999999997</ele><time>2026-05-02T14:48:17.989Z</time></trkpt><trkpt lat="44.834395" lon="9.552015"><ele>491.79999999999995</ele><time>2026-05-02T14:48:18.989Z</time></trkpt><trkpt lat="44.83441" lon="9.5521633"><ele>489.0</ele><time>2026-05-02T14:48:20.989Z</time></trkpt><trkpt lat="44.8344167" lon="9.5523233"><ele>491.0</ele><time>2026-05-02T14:48:22.989Z</time></trkpt><trkpt lat="44.8343983" lon="9.5525033"><ele>493.0</ele><time>2026-05-02T14:48:24.989Z</time></trkpt><trkpt lat="44.83437" lon="9.5526183"><ele>495.0</ele><time>2026-05-02T14:48:25.99Z</time></trkpt><trkpt lat="44.834325" lon="9.552715"><ele>497.0</ele><time>2026-05-02T14:48:26.989Z</time></trkpt><trkpt lat="44.8342733" lon="9.5528267"><ele>499.0</ele><time>2026-05-02T14:48:27.988Z</time></trkpt><trkpt lat="44.8342217" lon="9.5529317"><ele>499.00000000000006</ele><time>2026-05-02T14:48:28.989Z</time></trkpt><trkpt lat="44.8341633" lon="9.5530483"><ele>499.0</ele><time>2026-05-02T14:48:29.989Z</time></trkpt><trkpt lat="44.8341217" lon="9.5531417"><ele>499.0</ele><time>2026-05-02T14:48:30.989Z</time></trkpt><trkpt lat="44.834085" lon="9.5532617"><ele>499.0</ele><time>2026-05-02T14:48:31.989Z</time></trkpt><trkpt lat="44.83407" lon="9.55336"><ele>499.00000000000006</ele><time>2026-05-02T14:48:32.989Z</time></trkpt><trkpt lat="44.8340467" lon="9.5534733"><ele>499.0</ele><time>2026-05-02T14:48:33.989Z</time></trkpt><trkpt lat="44.834025" lon="9.5535767"><ele>499.00000000000006</ele><time>2026-05-02T14:48:34.99Z</time></trkpt><trkpt lat="44.83398" lon="9.5536683"><ele>499.0</ele><time>2026-05-02T14:48:35.989Z</time></trkpt><trkpt lat="44.8339217" lon="9.5537583"><ele>499.0</ele><time>2026-05-02T14:48:36.989Z</time></trkpt><trkpt lat="44.8338517" lon="9.55383"><ele>499.0</ele><time>2026-05-02T14:48:37.991Z</time></trkpt><trkpt lat="44.8337717" lon="9.5538933"><ele>499.00000000000006</ele><time>2026-05-02T14:48:38.99Z</time></trkpt><trkpt lat="44.8336983" lon="9.5539583"><ele>499.0</ele><time>2026-05-02T14:48:39.989Z</time></trkpt><trkpt lat="44.83364" lon="9.554015"><ele>498.0</ele><time>2026-05-02T14:48:40.99Z</time></trkpt><trkpt lat="44.83359" lon="9.55407"><ele>497.0</ele><time>2026-05-02T14:48:41.989Z</time></trkpt><trkpt lat="44.8335417" lon="9.5542"><ele>496.0</ele><time>2026-05-02T14:48:43.99Z</time></trkpt><trkpt lat="44.8335167" lon="9.554345"><ele>495.0</ele><time>2026-05-02T14:48:45.989Z</time></trkpt><trkpt lat="44.83349" lon="9.5544883"><ele>494.0</ele><time>2026-05-02T14:48:47.989Z</time></trkpt><trkpt lat="44.833455" lon="9.5546033"><ele>492.99999999999994</ele><time>2026-05-02T14:48:49.989Z</time></trkpt><trkpt lat="44.8334383" lon="9.554715"><ele>492.0</ele><time>2026-05-02T14:48:52.989Z</time></trkpt><trkpt lat="44.8334417" lon="9.5548433"><ele>491.0</ele><time>2026-05-02T14:48:55.989Z</time></trkpt><trkpt lat="44.8334683" lon="9.554935"><ele>490.0</ele><time>2026-05-02T14:48:57.99Z</time></trkpt><trkpt lat="44.8335317" lon="9.5550683"><ele>488.99999999999994</ele><time>2026-05-02T14:48:59.989Z</time></trkpt><trkpt lat="44.833575" lon="9.5551483"><ele>488.0</ele><time>2026-05-02T14:49:00.989Z</time></trkpt><trkpt lat="44.8336217" lon="9.5552283"><ele>487.99999999999994</ele><time>2026-05-02T14:49:01.99Z</time></trkpt><trkpt lat="44.8336683" lon="9.55529"><ele>488.0</ele><time>2026-05-02T14:49:02.989Z</time></trkpt><trkpt lat="44.8337417" lon="9.5554133"><ele>488.0</ele><time>2026-05-02T14:49:04.989Z</time></trkpt><trkpt lat="44.8337783" lon="9.55549"><ele>488.0</ele><time>2026-05-02T14:49:05.989Z</time></trkpt><trkpt lat="44.833815" lon="9.5555817"><ele>487.99999999999994</ele><time>2026-05-02T14:49:06.989Z</time></trkpt><trkpt lat="44.833835" lon="9.555675"><ele>488.0</ele><time>2026-05-02T14:49:07.989Z</time></trkpt><trkpt lat="44.8338433" lon="9.555765"><ele>488.49999999999994</ele><time>2026-05-02T14:49:08.989Z</time></trkpt><trkpt lat="44.833835" lon="9.5558533"><ele>489.0</ele><time>2026-05-02T14:49:09.99Z</time></trkpt><trkpt lat="44.833795" lon="9.5559917"><ele>489.5</ele><time>2026-05-02T14:49:11.989Z</time></trkpt><trkpt lat="44.8337883" lon="9.5560867"><ele>490.0</ele><time>2026-05-02T14:49:13.989Z</time></trkpt><trkpt lat="44.8338567" lon="9.556115"><ele>490.49999999999994</ele><time>2026-05-02T14:49:15.989Z</time></trkpt><trkpt lat="44.8339617" lon="9.5561967"><ele>491.0</ele><time>2026-05-02T14:49:17.989Z</time></trkpt><trkpt lat="44.8340417" lon="9.5563133"><ele>489.20000000000005</ele><time>2026-05-02T14:49:19.989Z</time></trkpt><trkpt lat="44.8341033" lon="9.5563933"><ele>487.40000000000003</ele><time>2026-05-02T14:49:21.989Z</time></trkpt><trkpt lat="44.8341817" lon="9.556415"><ele>485.6</ele><time>2026-05-02T14:49:23.989Z</time></trkpt><trkpt lat="44.8342933" lon="9.556425"><ele>483.8</ele><time>2026-05-02T14:49:25.988Z</time></trkpt><trkpt lat="44.8344017" lon="9.5564383"><ele>482.0</ele><time>2026-05-02T14:49:27.99Z</time></trkpt><trkpt lat="44.8345117" lon="9.5564883"><ele>481.99999999999994</ele><time>2026-05-02T14:49:29.99Z</time></trkpt><trkpt lat="44.83457" lon="9.556535"><ele>482.0</ele><time>2026-05-02T14:49:30.989Z</time></trkpt><trkpt lat="44.8346333" lon="9.5566033"><ele>482.0</ele><time>2026-05-02T14:49:31.989Z</time></trkpt><trkpt lat="44.8346933" lon="9.55669"><ele>482.0</ele><time>2026-05-02T14:49:32.989Z</time></trkpt><trkpt lat="44.8347483" lon="9.55678"><ele>481.99999999999994</ele><time>2026-05-02T14:49:33.988Z</time></trkpt><trkpt lat="44.83481" lon="9.556875"><ele>482.0</ele><time>2026-05-02T14:49:34.988Z</time></trkpt><trkpt lat="44.8348583" lon="9.5569683"><ele>483.20000000000005</ele><time>2026-05-02T14:49:35.989Z</time></trkpt><trkpt lat="44.8348933" lon="9.5570633"><ele>484.40000000000003</ele><time>2026-05-02T14:49:36.989Z</time></trkpt><trkpt lat="44.8349367" lon="9.5572233"><ele>485.59999999999997</ele><time>2026-05-02T14:49:38.99Z</time></trkpt><trkpt lat="44.8349283" lon="9.5573817"><ele>486.79999999999995</ele><time>2026-05-02T14:49:40.989Z</time></trkpt><trkpt lat="44.83491" lon="9.55753"><ele>488.0</ele><time>2026-05-02T14:49:42.99Z</time></trkpt><trkpt lat="44.8348733" lon="9.55765"><ele>488.0</ele><time>2026-05-02T14:49:44.991Z</time></trkpt><trkpt lat="44.834845" lon="9.55777"><ele>487.99999999999994</ele><time>2026-05-02T14:49:46.99Z</time></trkpt><trkpt lat="44.83486" lon="9.5578833"><ele>487.99999999999994</ele><time>2026-05-02T14:49:48.989Z</time></trkpt><trkpt lat="44.834945" lon="9.5579067"><ele>488.0</ele><time>2026-05-02T14:49:50.99Z</time></trkpt><trkpt lat="44.835045" lon="9.5579483"><ele>488.0</ele><time>2026-05-02T14:49:52.989Z</time></trkpt><trkpt lat="44.8351333" lon="9.5580617"><ele>487.79999999999995</ele><time>2026-05-02T14:49:54.99Z</time></trkpt><trkpt lat="44.83523" lon="9.5581183"><ele>487.59999999999997</ele><time>2026-05-02T14:49:56.989Z</time></trkpt><trkpt lat="44.8353333" lon="9.5581333"><ele>487.40000000000003</ele><time>2026-05-02T14:49:58.989Z</time></trkpt><trkpt lat="44.8354667" lon="9.5581333"><ele>487.20000000000005</ele><time>2026-05-02T14:50:00.989Z</time></trkpt><trkpt lat="44.835535" lon="9.558125"><ele>487.0</ele><time>2026-05-02T14:50:01.99Z</time></trkpt><trkpt lat="44.835605" lon="9.5581283"><ele>487.00000000000006</ele><time>2026-05-02T14:50:02.989Z</time></trkpt><trkpt lat="44.8356733" lon="9.5581383"><ele>487.0</ele><time>2026-05-02T14:50:03.989Z</time></trkpt><trkpt lat="44.8358033" lon="9.558155"><ele>487.0</ele><time>2026-05-02T14:50:05.989Z</time></trkpt><trkpt lat="44.8358617" lon="9.55819"><ele>487.0</ele><time>2026-05-02T14:50:06.989Z</time></trkpt><trkpt lat="44.8359317" lon="9.558255"><ele>487.00000000000006</ele><time>2026-05-02T14:50:07.99Z</time></trkpt><trkpt lat="44.8359833" lon="9.5583467"><ele>487.0</ele><time>2026-05-02T14:50:08.99Z</time></trkpt><trkpt lat="44.8360283" lon="9.55843"><ele>485.6666666666667</ele><time>2026-05-02T14:50:09.989Z</time></trkpt><trkpt lat="44.8360633" lon="9.55852"><ele>484.33333333333337</ele><time>2026-05-02T14:50:10.989Z</time></trkpt><trkpt lat="44.836095" lon="9.5586217"><ele>483.0</ele><time>2026-05-02T14:50:11.989Z</time></trkpt><trkpt lat="44.8361117" lon="9.5587317"><ele>481.66666666666663</ele><time>2026-05-02T14:50:12.989Z</time></trkpt><trkpt lat="44.836135" lon="9.55882"><ele>480.3333333333333</ele><time>2026-05-02T14:50:13.99Z</time></trkpt><trkpt lat="44.8361817" lon="9.55895"><ele>479.0</ele><time>2026-05-02T14:50:15.989Z</time></trkpt><trkpt lat="44.83626" lon="9.559005"><ele>478.99999999999994</ele><time>2026-05-02T14:50:17.989Z</time></trkpt><trkpt lat="44.8363833" lon="9.5590583"><ele>479.0</ele><time>2026-05-02T14:50:19.989Z</time></trkpt><trkpt lat="44.8364433" lon="9.5591067"><ele>479.0</ele><time>2026-05-02T14:50:20.989Z</time></trkpt><trkpt lat="44.8365067" lon="9.5591667"><ele>479.0</ele><time>2026-05-02T14:50:21.989Z</time></trkpt><trkpt lat="44.83657" lon="9.5592333"><ele>478.99999999999994</ele><time>2026-05-02T14:50:22.988Z</time></trkpt><trkpt lat="44.8366333" lon="9.55932"><ele>479.0</ele><time>2026-05-02T14:50:23.989Z</time></trkpt><trkpt lat="44.8366983" lon="9.5594267"><ele>479.49999999999994</ele><time>2026-05-02T14:50:24.988Z</time></trkpt><trkpt lat="44.836745" lon="9.55955"><ele>480.0</ele><time>2026-05-02T14:50:25.989Z</time></trkpt><trkpt lat="44.8367833" lon="9.5596817"><ele>480.5</ele><time>2026-05-02T14:50:26.99Z</time></trkpt><trkpt lat="44.83682" lon="9.5597983"><ele>481.0</ele><time>2026-05-02T14:50:27.991Z</time></trkpt><trkpt lat="44.83686" lon="9.5598933"><ele>481.49999999999994</ele><time>2026-05-02T14:50:28.989Z</time></trkpt><trkpt lat="44.8369117" lon="9.5599667"><ele>482.0</ele><time>2026-05-02T14:50:29.989Z</time></trkpt><trkpt lat="44.836975" lon="9.5600167"><ele>478.40000000000003</ele><time>2026-05-02T14:50:30.989Z</time></trkpt><trkpt lat="44.8370483" lon="9.56005"><ele>474.80000000000007</ele><time>2026-05-02T14:50:31.989Z</time></trkpt><trkpt lat="44.837145" lon="9.5600633"><ele>471.2</ele><time>2026-05-02T14:50:32.989Z</time></trkpt><trkpt lat="44.8372367" lon="9.5600967"><ele>467.6</ele><time>2026-05-02T14:50:33.991Z</time></trkpt><trkpt lat="44.8373217" lon="9.56015"><ele>464.0</ele><time>2026-05-02T14:50:34.989Z</time></trkpt><trkpt lat="44.8374083" lon="9.5602183"><ele>464.0</ele><time>2026-05-02T14:50:35.99Z</time></trkpt><trkpt lat="44.8374917" lon="9.5602967"><ele>464.0</ele><time>2026-05-02T14:50:36.989Z</time></trkpt><trkpt lat="44.837575" lon="9.56038"><ele>464.0</ele><time>2026-05-02T14:50:37.989Z</time></trkpt><trkpt lat="44.8376567" lon="9.56046"><ele>464.0</ele><time>2026-05-02T14:50:38.989Z</time></trkpt><trkpt lat="44.8377417" lon="9.5605317"><ele>464.0</ele><time>2026-05-02T14:50:39.989Z</time></trkpt><trkpt lat="44.8378267" lon="9.5605983"><ele>463.99999999999994</ele><time>2026-05-02T14:50:40.989Z</time></trkpt><trkpt lat="44.8379017" lon="9.5606717"><ele>464.0</ele><time>2026-05-02T14:50:41.989Z</time></trkpt><trkpt lat="44.83796" lon="9.560755"><ele>464.0</ele><time>2026-05-02T14:50:42.99Z</time></trkpt><trkpt lat="44.838005" lon="9.5608567"><ele>464.0</ele><time>2026-05-02T14:50:43.989Z</time></trkpt><trkpt lat="44.83804" lon="9.56097"><ele>463.99999999999994</ele><time>2026-05-02T14:50:44.989Z</time></trkpt><trkpt lat="44.83807" lon="9.56108"><ele>464.0</ele><time>2026-05-02T14:50:45.989Z</time></trkpt><trkpt lat="44.8381333" lon="9.5611333"><ele>464.0</ele><time>2026-05-02T14:50:46.989Z</time></trkpt><trkpt lat="44.8382133" lon="9.5611533"><ele>464.0</ele><time>2026-05-02T14:50:47.991Z</time></trkpt><trkpt lat="44.83831" lon="9.5611617"><ele>464.0</ele><time>2026-05-02T14:50:48.988Z</time></trkpt><trkpt lat="44.8384083" lon="9.5611767"><ele>464.0</ele><time>2026-05-02T14:50:49.989Z</time></trkpt><trkpt lat="44.8384983" lon="9.561205"><ele>464.0</ele><time>2026-05-02T14:50:50.989Z</time></trkpt><trkpt lat="44.8385833" lon="9.5612167"><ele>465.16666666666663</ele><time>2026-05-02T14:50:51.989Z</time></trkpt><trkpt lat="44.8386617" lon="9.5611983"><ele>466.3333333333333</ele><time>2026-05-02T14:50:52.99Z</time></trkpt><trkpt lat="44.838735" lon="9.5611383"><ele>467.5</ele><time>2026-05-02T14:50:53.99Z</time></trkpt><trkpt lat="44.8388033" lon="9.5610483"><ele>468.66666666666663</ele><time>2026-05-02T14:50:54.989Z</time></trkpt><trkpt lat="44.8388617" lon="9.5609367"><ele>469.8333333333333</ele><time>2026-05-02T14:50:55.99Z</time></trkpt><trkpt lat="44.8389117" lon="9.560835"><ele>471.0</ele><time>2026-05-02T14:50:56.989Z</time></trkpt><trkpt lat="44.83894" lon="9.5606967"><ele>471.0</ele><time>2026-05-02T14:50:57.989Z</time></trkpt><trkpt lat="44.8389683" lon="9.5605583"><ele>471.0</ele><time>2026-05-02T14:50:58.99Z</time></trkpt><trkpt lat="44.838995" lon="9.56043"><ele>471.0</ele><time>2026-05-02T14:50:59.99Z</time></trkpt><trkpt lat="44.83902" lon="9.5603033"><ele>471.0</ele><time>2026-05-02T14:51:00.989Z</time></trkpt><trkpt lat="44.8390617" lon="9.5601817"><ele>471.0</ele><time>2026-05-02T14:51:01.989Z</time></trkpt><trkpt lat="44.839115" lon="9.5600617"><ele>471.20000000000005</ele><time>2026-05-02T14:51:02.99Z</time></trkpt><trkpt lat="44.8391667" lon="9.559945"><ele>471.40000000000003</ele><time>2026-05-02T14:51:03.989Z</time></trkpt><trkpt lat="44.8392167" lon="9.5598383"><ele>471.6</ele><time>2026-05-02T14:51:04.989Z</time></trkpt><trkpt lat="44.839275" lon="9.5597367"><ele>471.8</ele><time>2026-05-02T14:51:05.991Z</time></trkpt><trkpt lat="44.8393433" lon="9.559635"><ele>472.0</ele><time>2026-05-02T14:51:06.989Z</time></trkpt><trkpt lat="44.8394133" lon="9.5595433"><ele>469.6</ele><time>2026-05-02T14:51:07.99Z</time></trkpt><trkpt lat="44.8394883" lon="9.55946"><ele>467.20000000000005</ele><time>2026-05-02T14:51:08.991Z</time></trkpt><trkpt lat="44.8395733" lon="9.5593783"><ele>464.8</ele><time>2026-05-02T14:51:09.989Z</time></trkpt><trkpt lat="44.83966" lon="9.5592983"><ele>462.4</ele><time>2026-05-02T14:51:10.989Z</time></trkpt><trkpt lat="44.839745" lon="9.5592267"><ele>460.0</ele><time>2026-05-02T14:51:11.99Z</time></trkpt><trkpt lat="44.839825" lon="9.559155"><ele>459.99999999999994</ele><time>2026-05-02T14:51:12.989Z</time></trkpt><trkpt lat="44.839895" lon="9.5590883"><ele>460.0</ele><time>2026-05-02T14:51:13.989Z</time></trkpt><trkpt lat="44.8399617" lon="9.5590267"><ele>459.99999999999994</ele><time>2026-05-02T14:51:14.991Z</time></trkpt><trkpt lat="44.8400233" lon="9.5589717"><ele>459.99999999999994</ele><time>2026-05-02T14:51:15.989Z</time></trkpt><trkpt lat="44.8400867" lon="9.5589367"><ele>460.0</ele><time>2026-05-02T14:51:16.989Z</time></trkpt><trkpt lat="44.8401533" lon="9.558925"><ele>459.99999999999994</ele><time>2026-05-02T14:51:17.989Z</time></trkpt><trkpt lat="44.8402267" lon="9.5589283"><ele>459.99999999999994</ele><time>2026-05-02T14:51:18.989Z</time></trkpt><trkpt lat="44.840305" lon="9.5589467"><ele>460.50000000000006</ele><time>2026-05-02T14:51:19.989Z</time></trkpt><trkpt lat="44.840385" lon="9.5589683"><ele>461.0</ele><time>2026-05-02T14:51:20.99Z</time></trkpt><trkpt lat="44.84046" lon="9.5589867"><ele>461.5</ele><time>2026-05-02T14:51:21.99Z</time></trkpt><trkpt lat="44.8405267" lon="9.559"><ele>462.0</ele><time>2026-05-02T14:51:22.989Z</time></trkpt><trkpt lat="44.840635" lon="9.5590017"><ele>462.50000000000006</ele><time>2026-05-02T14:51:24.99Z</time></trkpt><trkpt lat="44.84073" lon="9.5590017"><ele>463.0</ele><time>2026-05-02T14:51:26.99Z</time></trkpt><trkpt lat="44.8408367" lon="9.5590433"><ele>463.0</ele><time>2026-05-02T14:51:28.989Z</time></trkpt><trkpt lat="44.840915" lon="9.55916"><ele>462.99999999999994</ele><time>2026-05-02T14:51:30.989Z</time></trkpt><trkpt lat="44.8409733" lon="9.5593017"><ele>462.99999999999994</ele><time>2026-05-02T14:51:32.989Z</time></trkpt><trkpt lat="44.8410017" lon="9.55946"><ele>463.0</ele><time>2026-05-02T14:51:34.989Z</time></trkpt><trkpt lat="44.8410033" lon="9.5595967"><ele>463.0</ele><time>2026-05-02T14:51:36.989Z</time></trkpt><trkpt lat="44.8409817" lon="9.5596933"><ele>465.0</ele><time>2026-05-02T14:51:38.989Z</time></trkpt><trkpt lat="44.8408933" lon="9.5597667"><ele>466.99999999999994</ele><time>2026-05-02T14:51:40.989Z</time></trkpt><trkpt lat="44.84077" lon="9.5598467"><ele>468.99999999999994</ele><time>2026-05-02T14:51:42.989Z</time></trkpt><trkpt lat="44.8406917" lon="9.5599067"><ele>471.0</ele><time>2026-05-02T14:51:43.99Z</time></trkpt><trkpt lat="44.840605" lon="9.5599817"><ele>473.0</ele><time>2026-05-02T14:51:44.99Z</time></trkpt><trkpt lat="44.8405267" lon="9.56006"><ele>472.99999999999994</ele><time>2026-05-02T14:51:45.989Z</time></trkpt><trkpt lat="44.8404517" lon="9.5601317"><ele>473.0</ele><time>2026-05-02T14:51:46.989Z</time></trkpt><trkpt lat="44.84038" lon="9.5601933"><ele>473.0</ele><time>2026-05-02T14:51:47.991Z</time></trkpt><trkpt lat="44.8403133" lon="9.560255"><ele>473.0</ele><time>2026-05-02T14:51:48.989Z</time></trkpt><trkpt lat="44.840255" lon="9.5603283"><ele>472.99999999999994</ele><time>2026-05-02T14:51:49.989Z</time></trkpt><trkpt lat="44.84021" lon="9.560415"><ele>473.0</ele><time>2026-05-02T14:51:50.991Z</time></trkpt><trkpt lat="44.84019" lon="9.5605017"><ele>475.0</ele><time>2026-05-02T14:51:51.99Z</time></trkpt><trkpt lat="44.84028" lon="9.56063"><ele>476.99999999999994</ele><time>2026-05-02T14:51:53.99Z</time></trkpt><trkpt lat="44.840365" lon="9.5606783"><ele>478.99999999999994</ele><time>2026-05-02T14:51:54.99Z</time></trkpt><trkpt lat="44.84047" lon="9.5607167"><ele>481.0</ele><time>2026-05-02T14:51:55.989Z</time></trkpt><trkpt lat="44.8405767" lon="9.560765"><ele>483.0</ele><time>2026-05-02T14:51:56.99Z</time></trkpt><trkpt lat="44.8406733" lon="9.5608233"><ele>483.0</ele><time>2026-05-02T14:51:57.989Z</time></trkpt><trkpt lat="44.8407583" lon="9.5609"><ele>483.0</ele><time>2026-05-02T14:51:58.989Z</time></trkpt><trkpt lat="44.8408267" lon="9.56099"><ele>483.0</ele><time>2026-05-02T14:51:59.99Z</time></trkpt><trkpt lat="44.8408683" lon="9.5610933"><ele>483.0</ele><time>2026-05-02T14:52:00.99Z</time></trkpt><trkpt lat="44.8408817" lon="9.5612083"><ele>483.0</ele><time>2026-05-02T14:52:01.99Z</time></trkpt><trkpt lat="44.8408767" lon="9.5613233"><ele>483.0</ele><time>2026-05-02T14:52:02.989Z</time></trkpt><trkpt lat="44.8408417" lon="9.56144"><ele>483.59999999999997</ele><time>2026-05-02T14:52:03.989Z</time></trkpt><trkpt lat="44.84079" lon="9.5615467"><ele>484.19999999999993</ele><time>2026-05-02T14:52:04.989Z</time></trkpt><trkpt lat="44.8407267" lon="9.5616383"><ele>484.8</ele><time>2026-05-02T14:52:05.989Z</time></trkpt><trkpt lat="44.840655" lon="9.5617217"><ele>485.4</ele><time>2026-05-02T14:52:06.989Z</time></trkpt><trkpt lat="44.84058" lon="9.5617983"><ele>486.0</ele><time>2026-05-02T14:52:07.989Z</time></trkpt><trkpt lat="44.84051" lon="9.5618717"><ele>486.0</ele><time>2026-05-02T14:52:08.989Z</time></trkpt><trkpt lat="44.8404417" lon="9.561955"><ele>486.0</ele><time>2026-05-02T14:52:09.989Z</time></trkpt><trkpt lat="44.8403917" lon="9.5620533"><ele>486.0</ele><time>2026-05-02T14:52:10.989Z</time></trkpt><trkpt lat="44.8403567" lon="9.5621683"><ele>486.0</ele><time>2026-05-02T14:52:11.99Z</time></trkpt><trkpt lat="44.8403467" lon="9.5622883"><ele>486.0</ele><time>2026-05-02T14:52:12.991Z</time></trkpt><trkpt lat="44.8403483" lon="9.56242"><ele>486.0</ele><time>2026-05-02T14:52:13.989Z</time></trkpt><trkpt lat="44.840345" lon="9.5625583"><ele>485.6</ele><time>2026-05-02T14:52:14.99Z</time></trkpt><trkpt lat="44.8403333" lon="9.5627"><ele>485.20000000000005</ele><time>2026-05-02T14:52:15.989Z</time></trkpt><trkpt lat="44.8403167" lon="9.5628433"><ele>484.79999999999995</ele><time>2026-05-02T14:52:16.989Z</time></trkpt><trkpt lat="44.8402967" lon="9.5629933"><ele>484.4</ele><time>2026-05-02T14:52:17.99Z</time></trkpt><trkpt lat="44.840265" lon="9.563145"><ele>484.0</ele><time>2026-05-02T14:52:18.989Z</time></trkpt><trkpt lat="44.8402317" lon="9.5632917"><ele>484.0</ele><time>2026-05-02T14:52:19.989Z</time></trkpt><trkpt lat="44.8402" lon="9.56343"><ele>484.0</ele><time>2026-05-02T14:52:20.99Z</time></trkpt><trkpt lat="44.8401717" lon="9.5635633"><ele>484.0</ele><time>2026-05-02T14:52:21.989Z</time></trkpt><trkpt lat="44.8401417" lon="9.5637"><ele>484.0</ele><time>2026-05-02T14:52:22.989Z</time></trkpt><trkpt lat="44.8401133" lon="9.5638383"><ele>484.0</ele><time>2026-05-02T14:52:23.989Z</time></trkpt><trkpt lat="44.8400817" lon="9.56398"><ele>486.79999999999995</ele><time>2026-05-02T14:52:24.989Z</time></trkpt><trkpt lat="44.8400533" lon="9.5641217"><ele>489.59999999999997</ele><time>2026-05-02T14:52:25.989Z</time></trkpt><trkpt lat="44.8400217" lon="9.56426"><ele>492.4</ele><time>2026-05-02T14:52:26.989Z</time></trkpt><trkpt lat="44.8399917" lon="9.5643917"><ele>495.2</ele><time>2026-05-02T14:52:27.99Z</time></trkpt><trkpt lat="44.8399633" lon="9.5645017"><ele>498.0</ele><time>2026-05-02T14:52:28.989Z</time></trkpt><trkpt lat="44.8399317" lon="9.5645967"><ele>498.0</ele><time>2026-05-02T14:52:29.989Z</time></trkpt><trkpt lat="44.8398917" lon="9.5646817"><ele>498.0</ele><time>2026-05-02T14:52:30.989Z</time></trkpt><trkpt lat="44.83984" lon="9.5647617"><ele>498.0</ele><time>2026-05-02T14:52:31.989Z</time></trkpt><trkpt lat="44.8397767" lon="9.56484"><ele>498.0</ele><time>2026-05-02T14:52:32.992Z</time></trkpt><trkpt lat="44.839705" lon="9.564915"><ele>498.0</ele><time>2026-05-02T14:52:33.99Z</time></trkpt><trkpt lat="44.8396367" lon="9.564985"><ele>498.0</ele><time>2026-05-02T14:52:34.99Z</time></trkpt><trkpt lat="44.83959" lon="9.5650567"><ele>498.0</ele><time>2026-05-02T14:52:35.99Z</time></trkpt><trkpt lat="44.8395667" lon="9.5652117"><ele>497.99999999999994</ele><time>2026-05-02T14:52:37.989Z</time></trkpt><trkpt lat="44.8396033" lon="9.565355"><ele>497.99999999999994</ele><time>2026-05-02T14:52:38.99Z</time></trkpt><trkpt lat="44.8396183" lon="9.5655167"><ele>498.0</ele><time>2026-05-02T14:52:39.989Z</time></trkpt><trkpt lat="44.8396133" lon="9.56567"><ele>498.0</ele><time>2026-05-02T14:52:40.99Z</time></trkpt><trkpt lat="44.8395817" lon="9.5658067"><ele>497.75</ele><time>2026-05-02T14:52:41.989Z</time></trkpt><trkpt lat="44.8395133" lon="9.5659433"><ele>497.5</ele><time>2026-05-02T14:52:42.989Z</time></trkpt><trkpt lat="44.8394233" lon="9.5660517"><ele>497.25</ele><time>2026-05-02T14:52:43.99Z</time></trkpt><trkpt lat="44.8393217" lon="9.5661333"><ele>497.0</ele><time>2026-05-02T14:52:44.99Z</time></trkpt><trkpt lat="44.8392283" lon="9.5662083"><ele>496.99999999999994</ele><time>2026-05-02T14:52:45.989Z</time></trkpt><trkpt lat="44.8391583" lon="9.56629"><ele>497.0</ele><time>2026-05-02T14:52:46.989Z</time></trkpt><trkpt lat="44.8391267" lon="9.56639"><ele>497.0</ele><time>2026-05-02T14:52:47.99Z</time></trkpt><trkpt lat="44.8391083" lon="9.566505"><ele>497.0</ele><time>2026-05-02T14:52:48.989Z</time></trkpt><trkpt lat="44.8390733" lon="9.56661"><ele>496.99999999999994</ele><time>2026-05-02T14:52:49.99Z</time></trkpt><trkpt lat="44.8390217" lon="9.5667"><ele>497.0</ele><time>2026-05-02T14:52:50.991Z</time></trkpt><trkpt lat="44.838955" lon="9.5667717"><ele>497.0</ele><time>2026-05-02T14:52:51.989Z</time></trkpt><trkpt lat="44.83888" lon="9.566845"><ele>497.00000000000006</ele><time>2026-05-02T14:52:52.989Z</time></trkpt><trkpt lat="44.8388033" lon="9.5669283"><ele>497.00000000000006</ele><time>2026-05-02T14:52:53.989Z</time></trkpt><trkpt lat="44.8387317" lon="9.5670283"><ele>497.0</ele><time>2026-05-02T14:52:54.99Z</time></trkpt><trkpt lat="44.8386767" lon="9.5671367"><ele>497.0</ele><time>2026-05-02T14:52:55.989Z</time></trkpt><trkpt lat="44.8386417" lon="9.5672517"><ele>497.49999999999994</ele><time>2026-05-02T14:52:56.991Z</time></trkpt><trkpt lat="44.8386267" lon="9.567365"><ele>498.0</ele><time>2026-05-02T14:52:57.99Z</time></trkpt><trkpt lat="44.8386367" lon="9.5674867"><ele>498.5</ele><time>2026-05-02T14:52:58.99Z</time></trkpt><trkpt lat="44.8386583" lon="9.5676017"><ele>499.0</ele><time>2026-05-02T14:52:59.99Z</time></trkpt><trkpt lat="44.8386983" lon="9.56771"><ele>499.49999999999994</ele><time>2026-05-02T14:53:00.99Z</time></trkpt><trkpt lat="44.83876" lon="9.5677967"><ele>500.0</ele><time>2026-05-02T14:53:01.989Z</time></trkpt><trkpt lat="44.83882" lon="9.5678717"><ele>501.8333333333333</ele><time>2026-05-02T14:53:02.99Z</time></trkpt><trkpt lat="44.8388867" lon="9.5679333"><ele>503.66666666666663</ele><time>2026-05-02T14:53:03.989Z</time></trkpt><trkpt lat="44.8389717" lon="9.5679783"><ele>505.5</ele><time>2026-05-02T14:53:04.991Z</time></trkpt><trkpt lat="44.839055" lon="9.5680133"><ele>507.33333333333337</ele><time>2026-05-02T14:53:05.989Z</time></trkpt><trkpt lat="44.8391433" lon="9.568065"><ele>509.1666666666667</ele><time>2026-05-02T14:53:06.991Z</time></trkpt><trkpt lat="44.8392217" lon="9.5681367"><ele>511.0</ele><time>2026-05-02T14:53:07.989Z</time></trkpt><trkpt lat="44.839305" lon="9.56821"><ele>511.0</ele><time>2026-05-02T14:53:08.989Z</time></trkpt><trkpt lat="44.83938" lon="9.5683117"><ele>511.0</ele><time>2026-05-02T14:53:09.99Z</time></trkpt><trkpt lat="44.8394633" lon="9.568415"><ele>511.0</ele><time>2026-05-02T14:53:10.989Z</time></trkpt><trkpt lat="44.8395517" lon="9.5685233"><ele>511.0</ele><time>2026-05-02T14:53:11.988Z</time></trkpt><trkpt lat="44.839635" lon="9.5686267"><ele>511.0</ele><time>2026-05-02T14:53:12.989Z</time></trkpt><trkpt lat="44.839705" lon="9.5687217"><ele>513.8</ele><time>2026-05-02T14:53:13.989Z</time></trkpt><trkpt lat="44.8397683" lon="9.5688067"><ele>516.6</ele><time>2026-05-02T14:53:14.99Z</time></trkpt><trkpt lat="44.83983" lon="9.568875"><ele>519.4</ele><time>2026-05-02T14:53:15.989Z</time></trkpt><trkpt lat="44.8399117" lon="9.5689067"><ele>522.2</ele><time>2026-05-02T14:53:16.989Z</time></trkpt><trkpt lat="44.8400067" lon="9.5689167"><ele>525.0</ele><time>2026-05-02T14:53:17.992Z</time></trkpt><trkpt lat="44.840125" lon="9.568905"><ele>524.8</ele><time>2026-05-02T14:53:18.991Z</time></trkpt><trkpt lat="44.8402433" lon="9.5688817"><ele>524.6</ele><time>2026-05-02T14:53:19.992Z</time></trkpt><trkpt lat="44.8403567" lon="9.5688567"><ele>524.4</ele><time>2026-05-02T14:53:20.992Z</time></trkpt><trkpt lat="44.84046" lon="9.568845"><ele>524.2</ele><time>2026-05-02T14:53:21.992Z</time></trkpt><trkpt lat="44.8405517" lon="9.5688517"><ele>524.0</ele><time>2026-05-02T14:53:22.992Z</time></trkpt><trkpt lat="44.84064" lon="9.5688683"><ele>524.0</ele><time>2026-05-02T14:53:23.992Z</time></trkpt><trkpt lat="44.8407217" lon="9.5688917"><ele>524.0</ele><time>2026-05-02T14:53:24.989Z</time></trkpt><trkpt lat="44.840795" lon="9.56892"><ele>524.0</ele><time>2026-05-02T14:53:25.989Z</time></trkpt><trkpt lat="44.8408567" lon="9.5689467"><ele>524.0</ele><time>2026-05-02T14:53:26.99Z</time></trkpt><trkpt lat="44.8409133" lon="9.5689933"><ele>524.0</ele><time>2026-05-02T14:53:27.989Z</time></trkpt><trkpt lat="44.84096" lon="9.5690667"><ele>524.0</ele><time>2026-05-02T14:53:28.989Z</time></trkpt><trkpt lat="44.8409883" lon="9.569155"><ele>524.0</ele><time>2026-05-02T14:53:29.989Z</time></trkpt><trkpt lat="44.840995" lon="9.5692567"><ele>522.5</ele><time>2026-05-02T14:53:30.99Z</time></trkpt><trkpt lat="44.84099" lon="9.5693567"><ele>521.0</ele><time>2026-05-02T14:53:31.989Z</time></trkpt><trkpt lat="44.8409783" lon="9.5694483"><ele>519.5</ele><time>2026-05-02T14:53:32.99Z</time></trkpt><trkpt lat="44.841005" lon="9.5695817"><ele>518.0</ele><time>2026-05-02T14:53:34.989Z</time></trkpt><trkpt lat="44.84109" lon="9.5696267"><ele>516.5</ele><time>2026-05-02T14:53:36.99Z</time></trkpt><trkpt lat="44.8411567" lon="9.5696517"><ele>515.0</ele><time>2026-05-02T14:53:37.989Z</time></trkpt><trkpt lat="44.84124" lon="9.5696783"><ele>515.0</ele><time>2026-05-02T14:53:38.989Z</time></trkpt><trkpt lat="44.8413333" lon="9.5697"><ele>515.0</ele><time>2026-05-02T14:53:39.99Z</time></trkpt><trkpt lat="44.8414167" lon="9.5697183"><ele>515.0</ele><time>2026-05-02T14:53:40.989Z</time></trkpt><trkpt lat="44.8415083" lon="9.56974"><ele>515.0</ele><time>2026-05-02T14:53:41.99Z</time></trkpt><trkpt lat="44.8416167" lon="9.569755"><ele>515.0</ele><time>2026-05-02T14:53:42.99Z</time></trkpt><trkpt lat="44.8417267" lon="9.5697783"><ele>512.6</ele><time>2026-05-02T14:53:43.989Z</time></trkpt><trkpt lat="44.84182" lon="9.5698017"><ele>510.2</ele><time>2026-05-02T14:53:44.99Z</time></trkpt><trkpt lat="44.8419167" lon="9.569815"><ele>507.79999999999995</ele><time>2026-05-02T14:53:45.989Z</time></trkpt><trkpt lat="44.8420183" lon="9.5698133"><ele>505.4</ele><time>2026-05-02T14:53:46.989Z</time></trkpt><trkpt lat="44.8421117" lon="9.5697983"><ele>503.0</ele><time>2026-05-02T14:53:47.99Z</time></trkpt><trkpt lat="44.8422033" lon="9.569765"><ele>502.99999999999994</ele><time>2026-05-02T14:53:48.99Z</time></trkpt><trkpt lat="44.8422983" lon="9.5697317"><ele>503.0</ele><time>2026-05-02T14:53:49.99Z</time></trkpt><trkpt lat="44.8423683" lon="9.5696767"><ele>503.0</ele><time>2026-05-02T14:53:50.99Z</time></trkpt><trkpt lat="44.8424267" lon="9.5696133"><ele>503.0</ele><time>2026-05-02T14:53:51.989Z</time></trkpt><trkpt lat="44.842475" lon="9.569555"><ele>502.99999999999994</ele><time>2026-05-02T14:53:52.99Z</time></trkpt><trkpt lat="44.8425533" lon="9.5695517"><ele>503.0</ele><time>2026-05-02T14:53:54.989Z</time></trkpt><trkpt lat="44.8425917" lon="9.5696467"><ele>502.99999999999994</ele><time>2026-05-02T14:53:56.99Z</time></trkpt><trkpt lat="44.8426017" lon="9.5697383"><ele>503.0</ele><time>2026-05-02T14:53:58.99Z</time></trkpt><trkpt lat="44.8426833" lon="9.56972"><ele>503.0</ele><time>2026-05-02T14:54:01.99Z</time></trkpt><trkpt lat="44.84274" lon="9.5696783"><ele>503.0</ele><time>2026-05-02T14:54:02.991Z</time></trkpt><trkpt lat="44.8428133" lon="9.5696467"><ele>502.99999999999994</ele><time>2026-05-02T14:54:03.99Z</time></trkpt><trkpt lat="44.842895" lon="9.56964"><ele>503.0</ele><time>2026-05-02T14:54:04.989Z</time></trkpt><trkpt lat="44.8429783" lon="9.5696617"><ele>503.0</ele><time>2026-05-02T14:54:05.989Z</time></trkpt><trkpt lat="44.84306" lon="9.5697133"><ele>502.99999999999994</ele><time>2026-05-02T14:54:06.99Z</time></trkpt><trkpt lat="44.84313" lon="9.5698"><ele>502.99999999999994</ele><time>2026-05-02T14:54:07.99Z</time></trkpt><trkpt lat="44.8431783" lon="9.569895"><ele>503.0</ele><time>2026-05-02T14:54:08.991Z</time></trkpt><trkpt lat="44.8432067" lon="9.5700083"><ele>503.0</ele><time>2026-05-02T14:54:09.99Z</time></trkpt><trkpt lat="44.8432333" lon="9.570145"><ele>503.0</ele><time>2026-05-02T14:54:10.99Z</time></trkpt><trkpt lat="44.8432333" lon="9.5703117"><ele>503.0</ele><time>2026-05-02T14:54:11.989Z</time></trkpt><trkpt lat="44.8432283" lon="9.57048"><ele>503.0</ele><time>2026-05-02T14:54:12.989Z</time></trkpt><trkpt lat="44.8432233" lon="9.57066"><ele>503.0</ele><time>2026-05-02T14:54:13.989Z</time></trkpt><trkpt lat="44.8432167" lon="9.5708383"><ele>503.5</ele><time>2026-05-02T14:54:14.989Z</time></trkpt><trkpt lat="44.8432083" lon="9.5710083"><ele>504.0</ele><time>2026-05-02T14:54:15.989Z</time></trkpt><trkpt lat="44.8432083" lon="9.5711733"><ele>504.5</ele><time>2026-05-02T14:54:16.991Z</time></trkpt><trkpt lat="44.8432133" lon="9.57134"><ele>505.0</ele><time>2026-05-02T14:54:17.989Z</time></trkpt><trkpt lat="44.843225" lon="9.5715133"><ele>505.25</ele><time>2026-05-02T14:54:18.99Z</time></trkpt><trkpt lat="44.8432417" lon="9.5716867"><ele>505.5</ele><time>2026-05-02T14:54:19.989Z</time></trkpt><trkpt lat="44.84326" lon="9.571855"><ele>505.75</ele><time>2026-05-02T14:54:20.99Z</time></trkpt><trkpt lat="44.8432783" lon="9.5720217"><ele>506.0</ele><time>2026-05-02T14:54:21.989Z</time></trkpt><trkpt lat="44.8432817" lon="9.572185"><ele>506.0</ele><time>2026-05-02T14:54:22.989Z</time></trkpt><trkpt lat="44.8432733" lon="9.5723483"><ele>506.0</ele><time>2026-05-02T14:54:23.989Z</time></trkpt><trkpt lat="44.843255" lon="9.5725133"><ele>506.0</ele><time>2026-05-02T14:54:24.989Z</time></trkpt><trkpt lat="44.8432383" lon="9.57269"><ele>506.0</ele><time>2026-05-02T14:54:25.989Z</time></trkpt><trkpt lat="44.8432283" lon="9.5728767"><ele>506.75</ele><time>2026-05-02T14:54:26.99Z</time></trkpt><trkpt lat="44.8432183" lon="9.5730717"><ele>507.5</ele><time>2026-05-02T14:54:27.989Z</time></trkpt><trkpt lat="44.8432167" lon="9.5732817"><ele>508.25</ele><time>2026-05-02T14:54:28.989Z</time></trkpt><trkpt lat="44.843215" lon="9.5734917"><ele>509.0</ele><time>2026-05-02T14:54:29.99Z</time></trkpt><trkpt lat="44.843215" lon="9.573685"><ele>508.66666666666663</ele><time>2026-05-02T14:54:30.989Z</time></trkpt><trkpt lat="44.8432117" lon="9.5738633"><ele>508.33333333333337</ele><time>2026-05-02T14:54:31.989Z</time></trkpt><trkpt lat="44.843205" lon="9.5740267"><ele>508.0</ele><time>2026-05-02T14:54:32.989Z</time></trkpt><trkpt lat="44.8431833" lon="9.5743267"><ele>508.0</ele><time>2026-05-02T14:54:34.989Z</time></trkpt><trkpt lat="44.8431633" lon="9.5744833"><ele>508.0</ele><time>2026-05-02T14:54:35.989Z</time></trkpt><trkpt lat="44.8431417" lon="9.5746567"><ele>508.0</ele><time>2026-05-02T14:54:36.99Z</time></trkpt><trkpt lat="44.84313" lon="9.574845"><ele>508.0</ele><time>2026-05-02T14:54:37.989Z</time></trkpt><trkpt lat="44.8431333" lon="9.5750317"><ele>508.5</ele><time>2026-05-02T14:54:38.989Z</time></trkpt><trkpt lat="44.843155" lon="9.5751933"><ele>509.0</ele><time>2026-05-02T14:54:39.989Z</time></trkpt><trkpt lat="44.8432017" lon="9.5753367"><ele>509.5</ele><time>2026-05-02T14:54:40.989Z</time></trkpt><trkpt lat="44.8432633" lon="9.57547"><ele>510.0</ele><time>2026-05-02T14:54:41.989Z</time></trkpt><trkpt lat="44.8433333" lon="9.5756117"><ele>510.0</ele><time>2026-05-02T14:54:42.99Z</time></trkpt><trkpt lat="44.843405" lon="9.575755"><ele>510.0</ele><time>2026-05-02T14:54:43.989Z</time></trkpt><trkpt lat="44.8434767" lon="9.5758817"><ele>510.0</ele><time>2026-05-02T14:54:44.99Z</time></trkpt><trkpt lat="44.8435533" lon="9.575995"><ele>510.0</ele><time>2026-05-02T14:54:45.989Z</time></trkpt><trkpt lat="44.843635" lon="9.5760933"><ele>510.0</ele><time>2026-05-02T14:54:46.989Z</time></trkpt><trkpt lat="44.8437417" lon="9.57616"><ele>510.0</ele><time>2026-05-02T14:54:47.989Z</time></trkpt><trkpt lat="44.843865" lon="9.5761983"><ele>510.0</ele><time>2026-05-02T14:54:48.989Z</time></trkpt><trkpt lat="44.8439967" lon="9.5762117"><ele>510.0</ele><time>2026-05-02T14:54:49.989Z</time></trkpt><trkpt lat="44.8441217" lon="9.5762267"><ele>508.8333333333333</ele><time>2026-05-02T14:54:50.99Z</time></trkpt><trkpt lat="44.8442317" lon="9.5762533"><ele>507.66666666666663</ele><time>2026-05-02T14:54:51.989Z</time></trkpt><trkpt lat="44.8443133" lon="9.576315"><ele>506.5</ele><time>2026-05-02T14:54:52.989Z</time></trkpt><trkpt lat="44.844365" lon="9.5764017"><ele>505.3333333333333</ele><time>2026-05-02T14:54:53.989Z</time></trkpt><trkpt lat="44.8443917" lon="9.5765"><ele>504.16666666666663</ele><time>2026-05-02T14:54:54.989Z</time></trkpt><trkpt lat="44.84438" lon="9.576625"><ele>503.0</ele><time>2026-05-02T14:54:55.989Z</time></trkpt><trkpt lat="44.8443583" lon="9.57676"><ele>501.79999999999995</ele><time>2026-05-02T14:54:56.989Z</time></trkpt><trkpt lat="44.8443217" lon="9.576905"><ele>500.59999999999997</ele><time>2026-05-02T14:54:57.989Z</time></trkpt><trkpt lat="44.8442933" lon="9.57705"><ele>499.40000000000003</ele><time>2026-05-02T14:54:58.989Z</time></trkpt><trkpt lat="44.8442817" lon="9.57718"><ele>498.20000000000005</ele><time>2026-05-02T14:54:59.99Z</time></trkpt><trkpt lat="44.8442933" lon="9.577325"><ele>497.0</ele><time>2026-05-02T14:55:00.991Z</time></trkpt><trkpt lat="44.8443267" lon="9.57748"><ele>499.75</ele><time>2026-05-02T14:55:01.99Z</time></trkpt><trkpt lat="44.8443817" lon="9.57763"><ele>502.5</ele><time>2026-05-02T14:55:02.991Z</time></trkpt><trkpt lat="44.8444517" lon="9.5777767"><ele>505.25</ele><time>2026-05-02T14:55:03.989Z</time></trkpt><trkpt lat="44.84453" lon="9.5779"><ele>508.0</ele><time>2026-05-02T14:55:04.99Z</time></trkpt><trkpt lat="44.8446133" lon="9.578015"><ele>508.0</ele><time>2026-05-02T14:55:05.99Z</time></trkpt><trkpt lat="44.8446733" lon="9.5781383"><ele>507.99999999999994</ele><time>2026-05-02T14:55:06.989Z</time></trkpt><trkpt lat="44.8447017" lon="9.57827"><ele>507.99999999999994</ele><time>2026-05-02T14:55:07.989Z</time></trkpt><trkpt lat="44.8447" lon="9.5784083"><ele>508.0</ele><time>2026-05-02T14:55:08.991Z</time></trkpt><trkpt lat="44.8446717" lon="9.57855"><ele>508.0</ele><time>2026-05-02T14:55:09.989Z</time></trkpt><trkpt lat="44.8446333" lon="9.5787033"><ele>508.2</ele><time>2026-05-02T14:55:10.99Z</time></trkpt><trkpt lat="44.8446017" lon="9.578865"><ele>508.4</ele><time>2026-05-02T14:55:11.99Z</time></trkpt><trkpt lat="44.8445833" lon="9.5790317"><ele>508.59999999999997</ele><time>2026-05-02T14:55:12.99Z</time></trkpt><trkpt lat="44.8445883" lon="9.579185"><ele>508.79999999999995</ele><time>2026-05-02T14:55:13.99Z</time></trkpt><trkpt lat="44.844615" lon="9.5793233"><ele>509.0</ele><time>2026-05-02T14:55:14.994Z</time></trkpt><trkpt lat="44.8446567" lon="9.5794433"><ele>508.4</ele><time>2026-05-02T14:55:15.99Z</time></trkpt><trkpt lat="44.8447083" lon="9.579555"><ele>507.79999999999995</ele><time>2026-05-02T14:55:16.989Z</time></trkpt><trkpt lat="44.8447733" lon="9.5796717"><ele>507.20000000000005</ele><time>2026-05-02T14:55:17.989Z</time></trkpt><trkpt lat="44.8448383" lon="9.5797933"><ele>506.6</ele><time>2026-05-02T14:55:18.99Z</time></trkpt><trkpt lat="44.844905" lon="9.579915"><ele>506.0</ele><time>2026-05-02T14:55:19.99Z</time></trkpt><trkpt lat="44.84497" lon="9.58004"><ele>506.0</ele><time>2026-05-02T14:55:20.989Z</time></trkpt><trkpt lat="44.8450383" lon="9.58017"><ele>506.0</ele><time>2026-05-02T14:55:21.99Z</time></trkpt><trkpt lat="44.845105" lon="9.5803067"><ele>506.0</ele><time>2026-05-02T14:55:22.989Z</time></trkpt><trkpt lat="44.84517" lon="9.5804517"><ele>506.0</ele><time>2026-05-02T14:55:23.991Z</time></trkpt><trkpt lat="44.84524" lon="9.5805967"><ele>506.25</ele><time>2026-05-02T14:55:24.988Z</time></trkpt><trkpt lat="44.8453083" lon="9.5807483"><ele>506.5</ele><time>2026-05-02T14:55:25.99Z</time></trkpt><trkpt lat="44.8453783" lon="9.5809083"><ele>506.75</ele><time>2026-05-02T14:55:26.989Z</time></trkpt><trkpt lat="44.845445" lon="9.58107"><ele>507.0</ele><time>2026-05-02T14:55:27.988Z</time></trkpt><trkpt lat="44.8455133" lon="9.5812217"><ele>507.0</ele><time>2026-05-02T14:55:28.989Z</time></trkpt><trkpt lat="44.84558" lon="9.5813617"><ele>507.00000000000006</ele><time>2026-05-02T14:55:29.988Z</time></trkpt><trkpt lat="44.845645" lon="9.5814883"><ele>507.00000000000006</ele><time>2026-05-02T14:55:30.989Z</time></trkpt><trkpt lat="44.8457133" lon="9.5815983"><ele>507.0</ele><time>2026-05-02T14:55:31.989Z</time></trkpt><trkpt lat="44.8457883" lon="9.58169"><ele>507.0</ele><time>2026-05-02T14:55:32.989Z</time></trkpt><trkpt lat="44.84588" lon="9.5817533"><ele>509.6666666666667</ele><time>2026-05-02T14:55:33.989Z</time></trkpt><trkpt lat="44.8459667" lon="9.5818"><ele>512.3333333333334</ele><time>2026-05-02T14:55:34.988Z</time></trkpt><trkpt lat="44.84604" lon="9.5818617"><ele>515.0</ele><time>2026-05-02T14:55:35.988Z</time></trkpt><trkpt lat="44.84608" lon="9.5819433"><ele>517.6666666666667</ele><time>2026-05-02T14:55:36.988Z</time></trkpt><trkpt lat="44.846105" lon="9.5820417"><ele>520.3333333333334</ele><time>2026-05-02T14:55:37.989Z</time></trkpt><trkpt lat="44.8461067" lon="9.5821333"><ele>523.0</ele><time>2026-05-02T14:55:38.989Z</time></trkpt><trkpt lat="44.84609" lon="9.5822233"><ele>523.1666666666667</ele><time>2026-05-02T14:55:39.989Z</time></trkpt><trkpt lat="44.8460733" lon="9.5823167"><ele>523.3333333333334</ele><time>2026-05-02T14:55:40.99Z</time></trkpt><trkpt lat="44.84606" lon="9.5824083"><ele>523.5</ele><time>2026-05-02T14:55:41.988Z</time></trkpt><trkpt lat="44.8460633" lon="9.5825733"><ele>523.6666666666666</ele><time>2026-05-02T14:55:43.988Z</time></trkpt><trkpt lat="44.846085" lon="9.5826583"><ele>523.8333333333333</ele><time>2026-05-02T14:55:44.989Z</time></trkpt><trkpt lat="44.846135" lon="9.5828033"><ele>524.0</ele><time>2026-05-02T14:55:46.988Z</time></trkpt><trkpt lat="44.846185" lon="9.5829317"><ele>524.0</ele><time>2026-05-02T14:55:48.989Z</time></trkpt><trkpt lat="44.8462183" lon="9.583055"><ele>524.0</ele><time>2026-05-02T14:55:50.989Z</time></trkpt><trkpt lat="44.846245" lon="9.5831433"><ele>524.0</ele><time>2026-05-02T14:55:52.989Z</time></trkpt><trkpt lat="44.8463267" lon="9.5831033"><ele>524.0</ele><time>2026-05-02T14:55:55.989Z</time></trkpt><trkpt lat="44.8463933" lon="9.5829917"><ele>524.0</ele><time>2026-05-02T14:55:57.988Z</time></trkpt><trkpt lat="44.8464667" lon="9.5828567"><ele>524.2</ele><time>2026-05-02T14:55:59.989Z</time></trkpt><trkpt lat="44.84653" lon="9.582705"><ele>524.4</ele><time>2026-05-02T14:56:01.988Z</time></trkpt><trkpt lat="44.8465633" lon="9.5826133"><ele>524.6</ele><time>2026-05-02T14:56:02.989Z</time></trkpt><trkpt lat="44.8465967" lon="9.58251"><ele>524.8</ele><time>2026-05-02T14:56:03.989Z</time></trkpt><trkpt lat="44.84663" lon="9.5823983"><ele>525.0</ele><time>2026-05-02T14:56:04.988Z</time></trkpt><trkpt lat="44.846665" lon="9.5822883"><ele>525.0</ele><time>2026-05-02T14:56:05.989Z</time></trkpt><trkpt lat="44.8467" lon="9.5821833"><ele>525.0</ele><time>2026-05-02T14:56:06.99Z</time></trkpt><trkpt lat="44.846745" lon="9.5821"><ele>525.0</ele><time>2026-05-02T14:56:07.989Z</time></trkpt><trkpt lat="44.8467983" lon="9.582035"><ele>525.0</ele><time>2026-05-02T14:56:08.989Z</time></trkpt><trkpt lat="44.8468733" lon="9.581985"><ele>525.0</ele><time>2026-05-02T14:56:09.989Z</time></trkpt><trkpt lat="44.846965" lon="9.5819367"><ele>525.0</ele><time>2026-05-02T14:56:10.99Z</time></trkpt><trkpt lat="44.847065" lon="9.5818967"><ele>526.8</ele><time>2026-05-02T14:56:11.989Z</time></trkpt><trkpt lat="44.8471567" lon="9.581865"><ele>528.6</ele><time>2026-05-02T14:56:12.992Z</time></trkpt><trkpt lat="44.8472283" lon="9.581855"><ele>530.4</ele><time>2026-05-02T14:56:13.988Z</time></trkpt><trkpt lat="44.8473283" lon="9.581915"><ele>532.2</ele><time>2026-05-02T14:56:15.988Z</time></trkpt><trkpt lat="44.8473683" lon="9.5820767"><ele>534.0</ele><time>2026-05-02T14:56:17.989Z</time></trkpt><trkpt lat="44.847385" lon="9.58218"><ele>534.0</ele><time>2026-05-02T14:56:18.989Z</time></trkpt><trkpt lat="44.8474183" lon="9.5822867"><ele>534.0</ele><time>2026-05-02T14:56:19.989Z</time></trkpt><trkpt lat="44.847455" lon="9.582385"><ele>534.0</ele><time>2026-05-02T14:56:20.99Z</time></trkpt><trkpt lat="44.8475033" lon="9.5824517"><ele>534.0</ele><time>2026-05-02T14:56:21.989Z</time></trkpt><trkpt lat="44.8476317" lon="9.582505"><ele>534.0</ele><time>2026-05-02T14:56:23.988Z</time></trkpt><trkpt lat="44.84772" lon="9.5824883"><ele>538.75</ele><time>2026-05-02T14:56:24.988Z</time></trkpt><trkpt lat="44.8478267" lon="9.582465"><ele>543.5</ele><time>2026-05-02T14:56:25.988Z</time></trkpt><trkpt lat="44.847945" lon="9.5824433"><ele>548.25</ele><time>2026-05-02T14:56:26.989Z</time></trkpt><trkpt lat="44.848065" lon="9.582415"><ele>553.0</ele><time>2026-05-02T14:56:27.989Z</time></trkpt><trkpt lat="44.8481867" lon="9.5823933"><ele>553.0</ele><time>2026-05-02T14:56:28.989Z</time></trkpt><trkpt lat="44.8483083" lon="9.5823833"><ele>553.0</ele><time>2026-05-02T14:56:29.991Z</time></trkpt><trkpt lat="44.848425" lon="9.5823767"><ele>553.0</ele><time>2026-05-02T14:56:30.99Z</time></trkpt><trkpt lat="44.8485367" lon="9.5823767"><ele>553.0</ele><time>2026-05-02T14:56:31.989Z</time></trkpt><trkpt lat="44.8486433" lon="9.5823833"><ele>554.8333333333334</ele><time>2026-05-02T14:56:32.989Z</time></trkpt><trkpt lat="44.848745" lon="9.5823967"><ele>556.6666666666667</ele><time>2026-05-02T14:56:33.989Z</time></trkpt><trkpt lat="44.8488333" lon="9.5824017"><ele>558.5</ele><time>2026-05-02T14:56:34.988Z</time></trkpt><trkpt lat="44.848915" lon="9.5824133"><ele>560.3333333333334</ele><time>2026-05-02T14:56:35.989Z</time></trkpt><trkpt lat="44.8489983" lon="9.582425"><ele>562.1666666666666</ele><time>2026-05-02T14:56:36.989Z</time></trkpt><trkpt lat="44.8490817" lon="9.5824367"><ele>564.0</ele><time>2026-05-02T14:56:37.988Z</time></trkpt><trkpt lat="44.8491667" lon="9.5824533"><ele>564.0</ele><time>2026-05-02T14:56:38.989Z</time></trkpt><trkpt lat="44.84925" lon="9.5824783"><ele>564.0</ele><time>2026-05-02T14:56:39.988Z</time></trkpt><trkpt lat="44.8493333" lon="9.582515"><ele>564.0</ele><time>2026-05-02T14:56:40.989Z</time></trkpt><trkpt lat="44.8494167" lon="9.5825567"><ele>564.0</ele><time>2026-05-02T14:56:41.988Z</time></trkpt><trkpt lat="44.8495033" lon="9.582595"><ele>564.0</ele><time>2026-05-02T14:56:42.989Z</time></trkpt><trkpt lat="44.8495867" lon="9.58262"><ele>564.0</ele><time>2026-05-02T14:56:43.989Z</time></trkpt><trkpt lat="44.8496683" lon="9.58264"><ele>567.8333333333334</ele><time>2026-05-02T14:56:44.989Z</time></trkpt><trkpt lat="44.8497433" lon="9.5826583"><ele>571.6666666666666</ele><time>2026-05-02T14:56:45.989Z</time></trkpt><trkpt lat="44.84981" lon="9.582675"><ele>575.5</ele><time>2026-05-02T14:56:46.989Z</time></trkpt><trkpt lat="44.8498733" lon="9.5827017"><ele>579.3333333333333</ele><time>2026-05-02T14:56:47.989Z</time></trkpt><trkpt lat="44.84999" lon="9.5827517"><ele>583.1666666666666</ele><time>2026-05-02T14:56:49.988Z</time></trkpt><trkpt lat="44.85005" lon="9.5827867"><ele>587.0</ele><time>2026-05-02T14:56:50.99Z</time></trkpt><trkpt lat="44.8501117" lon="9.5828283"><ele>585.8000000000001</ele><time>2026-05-02T14:56:51.989Z</time></trkpt><trkpt lat="44.8501733" lon="9.5828817"><ele>584.6</ele><time>2026-05-02T14:56:52.989Z</time></trkpt><trkpt lat="44.8502367" lon="9.5829567"><ele>583.4000000000001</ele><time>2026-05-02T14:56:53.99Z</time></trkpt><trkpt lat="44.8503033" lon="9.583045"><ele>582.2</ele><time>2026-05-02T14:56:54.989Z</time></trkpt><trkpt lat="44.85038" lon="9.5831383"><ele>581.0</ele><time>2026-05-02T14:56:55.989Z</time></trkpt><trkpt lat="44.850455" lon="9.5832383"><ele>581.0</ele><time>2026-05-02T14:56:56.989Z</time></trkpt><trkpt lat="44.8505433" lon="9.58333"><ele>581.0</ele><time>2026-05-02T14:56:57.988Z</time></trkpt><trkpt lat="44.8506283" lon="9.5834083"><ele>581.0</ele><time>2026-05-02T14:56:58.988Z</time></trkpt><trkpt lat="44.8507083" lon="9.5834733"><ele>581.0</ele><time>2026-05-02T14:56:59.989Z</time></trkpt><trkpt lat="44.8507817" lon="9.5835267"><ele>581.0</ele><time>2026-05-02T14:57:00.989Z</time></trkpt><trkpt lat="44.850855" lon="9.5835567"><ele>581.0</ele><time>2026-05-02T14:57:01.99Z</time></trkpt><trkpt lat="44.85093" lon="9.583555"><ele>581.0</ele><time>2026-05-02T14:57:02.989Z</time></trkpt><trkpt lat="44.851005" lon="9.58355"><ele>581.0</ele><time>2026-05-02T14:57:03.989Z</time></trkpt><trkpt lat="44.8510817" lon="9.5835483"><ele>581.0</ele><time>2026-05-02T14:57:04.989Z</time></trkpt><trkpt lat="44.85116" lon="9.5835617"><ele>581.0</ele><time>2026-05-02T14:57:05.989Z</time></trkpt><trkpt lat="44.8512333" lon="9.5835833"><ele>581.0</ele><time>2026-05-02T14:57:06.989Z</time></trkpt><trkpt lat="44.85131" lon="9.5836017"><ele>581.0</ele><time>2026-05-02T14:57:07.989Z</time></trkpt><trkpt lat="44.85138" lon="9.5836133"><ele>581.0</ele><time>2026-05-02T14:57:08.989Z</time></trkpt><trkpt lat="44.85145" lon="9.5836117"><ele>581.0</ele><time>2026-05-02T14:57:09.991Z</time></trkpt><trkpt lat="44.8515183" lon="9.583615"><ele>581.0</ele><time>2026-05-02T14:57:10.989Z</time></trkpt><trkpt lat="44.851585" lon="9.583645"><ele>581.0</ele><time>2026-05-02T14:57:11.989Z</time></trkpt><trkpt lat="44.8516433" lon="9.5837017"><ele>581.0</ele><time>2026-05-02T14:57:12.989Z</time></trkpt><trkpt lat="44.851705" lon="9.58376"><ele>581.0</ele><time>2026-05-02T14:57:13.991Z</time></trkpt><trkpt lat="44.851765" lon="9.5838117"><ele>579.5</ele><time>2026-05-02T14:57:14.989Z</time></trkpt><trkpt lat="44.851825" lon="9.5838483"><ele>578.0</ele><time>2026-05-02T14:57:15.988Z</time></trkpt><trkpt lat="44.8518867" lon="9.58388"><ele>576.5</ele><time>2026-05-02T14:57:16.99Z</time></trkpt><trkpt lat="44.851965" lon="9.5839133"><ele>575.0</ele><time>2026-05-02T14:57:17.99Z</time></trkpt><trkpt lat="44.8520517" lon="9.5839533"><ele>573.5</ele><time>2026-05-02T14:57:18.989Z</time></trkpt><trkpt lat="44.8521367" lon="9.5840017"><ele>572.0</ele><time>2026-05-02T14:57:19.988Z</time></trkpt><trkpt lat="44.85222" lon="9.58405"><ele>572.0</ele><time>2026-05-02T14:57:20.989Z</time></trkpt><trkpt lat="44.8523033" lon="9.58411"><ele>572.0</ele><time>2026-05-02T14:57:21.988Z</time></trkpt><trkpt lat="44.8523767" lon="9.5841683"><ele>572.0</ele><time>2026-05-02T14:57:22.99Z</time></trkpt><trkpt lat="44.85244" lon="9.58421"><ele>572.0</ele><time>2026-05-02T14:57:23.989Z</time></trkpt><trkpt lat="44.8525033" lon="9.5842417"><ele>572.0</ele><time>2026-05-02T14:57:24.989Z</time></trkpt><trkpt lat="44.8525917" lon="9.5842617"><ele>572.0</ele><time>2026-05-02T14:57:25.989Z</time></trkpt><trkpt lat="44.852675" lon="9.5842933"><ele>572.5</ele><time>2026-05-02T14:57:26.989Z</time></trkpt><trkpt lat="44.8527617" lon="9.5843117"><ele>573.0</ele><time>2026-05-02T14:57:27.989Z</time></trkpt><trkpt lat="44.852845" lon="9.5843317"><ele>573.5</ele><time>2026-05-02T14:57:28.989Z</time></trkpt><trkpt lat="44.8529233" lon="9.5843433"><ele>574.0</ele><time>2026-05-02T14:57:29.989Z</time></trkpt><trkpt lat="44.8529933" lon="9.58435"><ele>574.5</ele><time>2026-05-02T14:57:30.989Z</time></trkpt><trkpt lat="44.85306" lon="9.5843567"><ele>575.0</ele><time>2026-05-02T14:57:31.989Z</time></trkpt><trkpt lat="44.85313" lon="9.5843767"><ele>575.0</ele><time>2026-05-02T14:57:32.989Z</time></trkpt><trkpt lat="44.8532017" lon="9.584395"><ele>575.0</ele><time>2026-05-02T14:57:33.989Z</time></trkpt><trkpt lat="44.8532667" lon="9.5844117"><ele>575.0</ele><time>2026-05-02T14:57:34.989Z</time></trkpt><trkpt lat="44.8533883" lon="9.5844633"><ele>575.0</ele><time>2026-05-02T14:57:36.991Z</time></trkpt><trkpt lat="44.8534983" lon="9.584515"><ele>575.0</ele><time>2026-05-02T14:57:38.989Z</time></trkpt><trkpt lat="44.8535983" lon="9.5846"><ele>576.6666666666666</ele><time>2026-05-02T14:57:40.99Z</time></trkpt><trkpt lat="44.8536583" lon="9.5847483"><ele>578.3333333333333</ele><time>2026-05-02T14:57:42.989Z</time></trkpt><trkpt lat="44.8536767" lon="9.58486"><ele>580.0</ele><time>2026-05-02T14:57:43.99Z</time></trkpt><trkpt lat="44.8536917" lon="9.584965"><ele>581.6666666666666</ele><time>2026-05-02T14:57:44.989Z</time></trkpt><trkpt lat="44.8537083" lon="9.5850633"><ele>583.3333333333334</ele><time>2026-05-02T14:57:45.989Z</time></trkpt><trkpt lat="44.8537367" lon="9.585155"><ele>585.0</ele><time>2026-05-02T14:57:46.989Z</time></trkpt><trkpt lat="44.85378" lon="9.5852483"><ele>585.0</ele><time>2026-05-02T14:57:47.989Z</time></trkpt><trkpt lat="44.8538483" lon="9.5853417"><ele>585.0</ele><time>2026-05-02T14:57:48.989Z</time></trkpt><trkpt lat="44.8539267" lon="9.5854033"><ele>585.0</ele><time>2026-05-02T14:57:49.989Z</time></trkpt><trkpt lat="44.854005" lon="9.5854633"><ele>585.0</ele><time>2026-05-02T14:57:50.989Z</time></trkpt><trkpt lat="44.854075" lon="9.5855133"><ele>585.0</ele><time>2026-05-02T14:57:51.99Z</time></trkpt><trkpt lat="44.8541383" lon="9.585545"><ele>585.0</ele><time>2026-05-02T14:57:52.989Z</time></trkpt><trkpt lat="44.854205" lon="9.5855817"><ele>583.0</ele><time>2026-05-02T14:57:53.989Z</time></trkpt><trkpt lat="44.8542633" lon="9.58563"><ele>581.0</ele><time>2026-05-02T14:57:54.988Z</time></trkpt><trkpt lat="44.8543183" lon="9.5856983"><ele>579.0</ele><time>2026-05-02T14:57:55.99Z</time></trkpt><trkpt lat="44.8543817" lon="9.585775"><ele>577.0</ele><time>2026-05-02T14:57:56.989Z</time></trkpt><trkpt lat="44.854455" lon="9.585835"><ele>575.0</ele><time>2026-05-02T14:57:57.989Z</time></trkpt><trkpt lat="44.8545333" lon="9.5859"><ele>573.0</ele><time>2026-05-02T14:57:58.988Z</time></trkpt><trkpt lat="44.8546017" lon="9.58597"><ele>575.5</ele><time>2026-05-02T14:57:59.99Z</time></trkpt><trkpt lat="44.8546467" lon="9.5860517"><ele>578.0</ele><time>2026-05-02T14:58:01.989Z</time></trkpt><trkpt lat="44.8546717" lon="9.5861417"><ele>580.5</ele><time>2026-05-02T14:58:11.989Z</time></trkpt><trkpt lat="44.8546983" lon="9.5862483"><ele>583.0</ele><time>2026-05-02T14:58:13.99Z</time></trkpt><trkpt lat="44.8547367" lon="9.5863733"><ele>585.5</ele><time>2026-05-02T14:58:15.99Z</time></trkpt><trkpt lat="44.8548083" lon="9.586485"><ele>588.0</ele><time>2026-05-02T14:58:17.99Z</time></trkpt><trkpt lat="44.8548833" lon="9.5865883"><ele>588.0</ele><time>2026-05-02T14:58:19.989Z</time></trkpt><trkpt lat="44.85497" lon="9.586685"><ele>588.0</ele><time>2026-05-02T14:58:21.989Z</time></trkpt><trkpt lat="44.8550233" lon="9.58674"><ele>588.0</ele><time>2026-05-02T14:58:22.99Z</time></trkpt><trkpt lat="44.8550833" lon="9.5868"><ele>588.0</ele><time>2026-05-02T14:58:23.989Z</time></trkpt><trkpt lat="44.8551817" lon="9.5869033"><ele>588.0</ele><time>2026-05-02T14:58:25.989Z</time></trkpt><trkpt lat="44.855295" lon="9.5869933"><ele>589.8333333333334</ele><time>2026-05-02T14:58:27.989Z</time></trkpt><trkpt lat="44.8553617" lon="9.5870533"><ele>591.6666666666666</ele><time>2026-05-02T14:58:28.989Z</time></trkpt><trkpt lat="44.8554233" lon="9.5870867"><ele>593.5</ele><time>2026-05-02T14:58:29.989Z</time></trkpt><trkpt lat="44.8555433" lon="9.587125"><ele>595.3333333333333</ele><time>2026-05-02T14:58:31.989Z</time></trkpt><trkpt lat="44.85561" lon="9.5871617"><ele>597.1666666666666</ele><time>2026-05-02T14:58:32.989Z</time></trkpt><trkpt lat="44.8556833" lon="9.5872117"><ele>599.0</ele><time>2026-05-02T14:58:33.989Z</time></trkpt><trkpt lat="44.855765" lon="9.587255"><ele>599.0</ele><time>2026-05-02T14:58:34.989Z</time></trkpt><trkpt lat="44.85584" lon="9.58729"><ele>599.0</ele><time>2026-05-02T14:58:35.99Z</time></trkpt><trkpt lat="44.855915" lon="9.5873217"><ele>599.0</ele><time>2026-05-02T14:58:36.989Z</time></trkpt><trkpt lat="44.85599" lon="9.58733"><ele>599.0</ele><time>2026-05-02T14:58:37.989Z</time></trkpt><trkpt lat="44.8560683" lon="9.5873483"><ele>599.0</ele><time>2026-05-02T14:58:38.989Z</time></trkpt><trkpt lat="44.8561367" lon="9.587345"><ele>599.0</ele><time>2026-05-02T14:58:39.989Z</time></trkpt><trkpt lat="44.8562517" lon="9.5873583"><ele>601.8333333333333</ele><time>2026-05-02T14:58:41.99Z</time></trkpt><trkpt lat="44.856335" lon="9.58745"><ele>604.6666666666666</ele><time>2026-05-02T14:58:43.989Z</time></trkpt><trkpt lat="44.8563967" lon="9.5875033"><ele>607.5</ele><time>2026-05-02T14:58:44.989Z</time></trkpt><trkpt lat="44.8564683" lon="9.5875667"><ele>610.3333333333334</ele><time>2026-05-02T14:58:45.988Z</time></trkpt><trkpt lat="44.8565433" lon="9.5876217"><ele>613.1666666666667</ele><time>2026-05-02T14:58:46.989Z</time></trkpt><trkpt lat="44.856615" lon="9.5876667"><ele>616.0</ele><time>2026-05-02T14:58:47.99Z</time></trkpt><trkpt lat="44.8566967" lon="9.5877167"><ele>618.0</ele><time>2026-05-02T14:58:48.989Z</time></trkpt><trkpt lat="44.8567933" lon="9.5877667"><ele>620.0</ele><time>2026-05-02T14:58:49.989Z</time></trkpt><trkpt lat="44.8568817" lon="9.5878017"><ele>622.0</ele><time>2026-05-02T14:58:50.989Z</time></trkpt><trkpt lat="44.85696" lon="9.587825"><ele>624.0</ele><time>2026-05-02T14:58:51.989Z</time></trkpt><trkpt lat="44.8570417" lon="9.5878567"><ele>626.0</ele><time>2026-05-02T14:58:52.989Z</time></trkpt><trkpt lat="44.8571267" lon="9.5878933"><ele>628.0</ele><time>2026-05-02T14:58:53.989Z</time></trkpt><trkpt lat="44.8572117" lon="9.5879233"><ele>623.6666666666667</ele><time>2026-05-02T14:58:54.989Z</time></trkpt><trkpt lat="44.8572967" lon="9.58795"><ele>619.3333333333334</ele><time>2026-05-02T14:58:55.989Z</time></trkpt><trkpt lat="44.8573817" lon="9.58798"><ele>615.0</ele><time>2026-05-02T14:58:56.989Z</time></trkpt><trkpt lat="44.8574583" lon="9.588"><ele>610.6666666666666</ele><time>2026-05-02T14:58:57.989Z</time></trkpt><trkpt lat="44.85753" lon="9.5880183"><ele>606.3333333333333</ele><time>2026-05-02T14:58:58.989Z</time></trkpt><trkpt lat="44.8575983" lon="9.5880283"><ele>602.0</ele><time>2026-05-02T14:58:59.989Z</time></trkpt><trkpt lat="44.857665" lon="9.5880317"><ele>602.0</ele><time>2026-05-02T14:59:00.99Z</time></trkpt><trkpt lat="44.857785" lon="9.5880333"><ele>602.0</ele><time>2026-05-02T14:59:02.989Z</time></trkpt><trkpt lat="44.8578533" lon="9.5880367"><ele>602.0</ele><time>2026-05-02T14:59:03.99Z</time></trkpt><trkpt lat="44.8579283" lon="9.5880317"><ele>602.0</ele><time>2026-05-02T14:59:04.989Z</time></trkpt><trkpt lat="44.8580017" lon="9.5880283"><ele>602.0</ele><time>2026-05-02T14:59:05.989Z</time></trkpt><trkpt lat="44.8580783" lon="9.58802"><ele>602.0</ele><time>2026-05-02T14:59:06.99Z</time></trkpt><trkpt lat="44.8581483" lon="9.5880067"><ele>602.0</ele><time>2026-05-02T14:59:07.989Z</time></trkpt><trkpt lat="44.858275" lon="9.5880267"><ele>602.0</ele><time>2026-05-02T14:59:09.989Z</time></trkpt><trkpt lat="44.8583967" lon="9.58808"><ele>602.0</ele><time>2026-05-02T14:59:11.989Z</time></trkpt><trkpt lat="44.8584767" lon="9.588125"><ele>602.0</ele><time>2026-05-02T14:59:12.989Z</time></trkpt><trkpt lat="44.8585567" lon="9.5881567"><ele>602.0</ele><time>2026-05-02T14:59:13.989Z</time></trkpt><trkpt lat="44.8586333" lon="9.58818"><ele>601.1428571428571</ele><time>2026-05-02T14:59:14.99Z</time></trkpt><trkpt lat="44.8587067" lon="9.5881817"><ele>600.2857142857142</ele><time>2026-05-02T14:59:15.989Z</time></trkpt><trkpt lat="44.8587817" lon="9.58817"><ele>599.4285714285714</ele><time>2026-05-02T14:59:16.99Z</time></trkpt><trkpt lat="44.8588517" lon="9.58815"><ele>598.5714285714286</ele><time>2026-05-02T14:59:17.991Z</time></trkpt><trkpt lat="44.8589267" lon="9.58813"><ele>597.7142857142857</ele><time>2026-05-02T14:59:18.99Z</time></trkpt><trkpt lat="44.858985" lon="9.5880867"><ele>596.8571428571429</ele><time>2026-05-02T14:59:19.989Z</time></trkpt><trkpt lat="44.8590267" lon="9.5880167"><ele>596.0</ele><time>2026-05-02T14:59:20.99Z</time></trkpt><trkpt lat="44.85905" lon="9.5879167"><ele>596.1666666666666</ele><time>2026-05-02T14:59:21.989Z</time></trkpt><trkpt lat="44.859065" lon="9.5878017"><ele>596.3333333333333</ele><time>2026-05-02T14:59:22.989Z</time></trkpt><trkpt lat="44.859085" lon="9.5876867"><ele>596.5</ele><time>2026-05-02T14:59:23.989Z</time></trkpt><trkpt lat="44.859115" lon="9.5875717"><ele>596.6666666666666</ele><time>2026-05-02T14:59:24.99Z</time></trkpt><trkpt lat="44.859155" lon="9.5874667"><ele>596.8333333333334</ele><time>2026-05-02T14:59:25.989Z</time></trkpt><trkpt lat="44.8592" lon="9.5873683"><ele>597.0</ele><time>2026-05-02T14:59:26.989Z</time></trkpt><trkpt lat="44.859245" lon="9.5873017"><ele>593.3333333333334</ele><time>2026-05-02T14:59:27.989Z</time></trkpt><trkpt lat="44.8593033" lon="9.5872667"><ele>589.6666666666666</ele><time>2026-05-02T14:59:28.99Z</time></trkpt><trkpt lat="44.8593833" lon="9.5872567"><ele>586.0</ele><time>2026-05-02T14:59:29.99Z</time></trkpt><trkpt lat="44.8594817" lon="9.5872567"><ele>582.3333333333333</ele><time>2026-05-02T14:59:30.989Z</time></trkpt><trkpt lat="44.85957" lon="9.587245"><ele>578.6666666666666</ele><time>2026-05-02T14:59:31.99Z</time></trkpt><trkpt lat="44.85966" lon="9.5872283"><ele>575.0</ele><time>2026-05-02T14:59:32.989Z</time></trkpt><trkpt lat="44.8597367" lon="9.58719"><ele>575.0</ele><time>2026-05-02T14:59:33.989Z</time></trkpt><trkpt lat="44.859805" lon="9.5871433"><ele>575.0</ele><time>2026-05-02T14:59:34.989Z</time></trkpt><trkpt lat="44.8598667" lon="9.58709"><ele>575.0</ele><time>2026-05-02T14:59:35.989Z</time></trkpt><trkpt lat="44.8599367" lon="9.58695"><ele>575.0</ele><time>2026-05-02T14:59:37.99Z</time></trkpt><trkpt lat="44.8599517" lon="9.5868567"><ele>575.0</ele><time>2026-05-02T14:59:38.99Z</time></trkpt><trkpt lat="44.8599783" lon="9.5867683"><ele>575.0</ele><time>2026-05-02T14:59:39.989Z</time></trkpt><trkpt lat="44.8600217" lon="9.5866833"><ele>574.3333333333333</ele><time>2026-05-02T14:59:40.989Z</time></trkpt><trkpt lat="44.8600683" lon="9.58659"><ele>573.6666666666666</ele><time>2026-05-02T14:59:41.989Z</time></trkpt><trkpt lat="44.860115" lon="9.5865"><ele>573.0</ele><time>2026-05-02T14:59:42.989Z</time></trkpt><trkpt lat="44.8601533" lon="9.5864033"><ele>572.3333333333334</ele><time>2026-05-02T14:59:43.989Z</time></trkpt><trkpt lat="44.8601783" lon="9.58631"><ele>571.6666666666667</ele><time>2026-05-02T14:59:44.989Z</time></trkpt><trkpt lat="44.8601883" lon="9.586215"><ele>571.0</ele><time>2026-05-02T14:59:45.989Z</time></trkpt><trkpt lat="44.86023" lon="9.5860617"><ele>571.0</ele><time>2026-05-02T14:59:47.99Z</time></trkpt><trkpt lat="44.8602683" lon="9.5859867"><ele>571.0</ele><time>2026-05-02T14:59:48.99Z</time></trkpt><trkpt lat="44.8603133" lon="9.585905"><ele>571.0</ele><time>2026-05-02T14:59:49.989Z</time></trkpt><trkpt lat="44.8603583" lon="9.5858383"><ele>571.0</ele><time>2026-05-02T14:59:50.99Z</time></trkpt><trkpt lat="44.8604633" lon="9.5857617"><ele>571.0</ele><time>2026-05-02T14:59:52.989Z</time></trkpt><trkpt lat="44.860535" lon="9.5857233"><ele>571.0</ele><time>2026-05-02T14:59:53.989Z</time></trkpt><trkpt lat="44.86061" lon="9.5856783"><ele>571.0</ele><time>2026-05-02T14:59:54.989Z</time></trkpt><trkpt lat="44.8606867" lon="9.5856367"><ele>571.0</ele><time>2026-05-02T14:59:55.989Z</time></trkpt><trkpt lat="44.8607517" lon="9.5856083"><ele>571.0</ele><time>2026-05-02T14:59:56.989Z</time></trkpt><trkpt lat="44.86085" lon="9.585635"><ele>571.0</ele><time>2026-05-02T14:59:58.989Z</time></trkpt><trkpt lat="44.860935" lon="9.585695"><ele>571.0</ele><time>2026-05-02T15:00:00.989Z</time></trkpt><trkpt lat="44.861025" lon="9.5857433"><ele>571.0</ele><time>2026-05-02T15:00:02.989Z</time></trkpt><trkpt lat="44.8611217" lon="9.585815"><ele>571.3333333333334</ele><time>2026-05-02T15:00:04.99Z</time></trkpt><trkpt lat="44.861205" lon="9.5859067"><ele>571.6666666666667</ele><time>2026-05-02T15:00:06.99Z</time></trkpt><trkpt lat="44.86127" lon="9.586005"><ele>572.0</ele><time>2026-05-02T15:00:08.989Z</time></trkpt><trkpt lat="44.8613383" lon="9.5860717"><ele>572.3333333333334</ele><time>2026-05-02T15:00:10.99Z</time></trkpt><trkpt lat="44.8614083" lon="9.586115"><ele>572.6666666666666</ele><time>2026-05-02T15:00:12.989Z</time></trkpt><trkpt lat="44.8614883" lon="9.5861667"><ele>573.0</ele><time>2026-05-02T15:00:14.99Z</time></trkpt><trkpt lat="44.8615683" lon="9.5862183"><ele>572.1999999999999</ele><time>2026-05-02T15:00:16.989Z</time></trkpt><trkpt lat="44.861655" lon="9.5862867"><ele>571.4</ele><time>2026-05-02T15:00:18.989Z</time></trkpt><trkpt lat="44.861745" lon="9.58638"><ele>570.5999999999999</ele><time>2026-05-02T15:00:20.99Z</time></trkpt><trkpt lat="44.8618367" lon="9.58644"><ele>569.8</ele><time>2026-05-02T15:00:22.989Z</time></trkpt><trkpt lat="44.86195" lon="9.5864883"><ele>569.0</ele><time>2026-05-02T15:00:24.989Z</time></trkpt><trkpt lat="44.86202" lon="9.586525"><ele>569.0</ele><time>2026-05-02T15:00:25.99Z</time></trkpt><trkpt lat="44.862095" lon="9.5865733"><ele>569.0</ele><time>2026-05-02T15:00:26.99Z</time></trkpt><trkpt lat="44.8621783" lon="9.5866317"><ele>569.0</ele><time>2026-05-02T15:00:27.99Z</time></trkpt><trkpt lat="44.8622683" lon="9.5866967"><ele>569.0</ele><time>2026-05-02T15:00:28.989Z</time></trkpt><trkpt lat="44.8623583" lon="9.5867683"><ele>569.0</ele><time>2026-05-02T15:00:29.99Z</time></trkpt><trkpt lat="44.86245" lon="9.5868417"><ele>569.0</ele><time>2026-05-02T15:00:30.989Z</time></trkpt><trkpt lat="44.862545" lon="9.5869117"><ele>569.0</ele><time>2026-05-02T15:00:31.989Z</time></trkpt><trkpt lat="44.862645" lon="9.5869733"><ele>569.0</ele><time>2026-05-02T15:00:32.991Z</time></trkpt><trkpt lat="44.8627483" lon="9.58703"><ele>569.0</ele><time>2026-05-02T15:00:33.989Z</time></trkpt><trkpt lat="44.862845" lon="9.5870867"><ele>569.0</ele><time>2026-05-02T15:00:34.989Z</time></trkpt><trkpt lat="44.8629333" lon="9.5871517"><ele>569.0</ele><time>2026-05-02T15:00:35.99Z</time></trkpt><trkpt lat="44.8630167" lon="9.58723"><ele>569.0</ele><time>2026-05-02T15:00:36.991Z</time></trkpt><trkpt lat="44.863095" lon="9.5873217"><ele>569.0</ele><time>2026-05-02T15:00:37.989Z</time></trkpt><trkpt lat="44.8631733" lon="9.5874317"><ele>569.0</ele><time>2026-05-02T15:00:38.99Z</time></trkpt><trkpt lat="44.8632483" lon="9.58755"><ele>569.0</ele><time>2026-05-02T15:00:39.989Z</time></trkpt><trkpt lat="44.863315" lon="9.5876667"><ele>569.0</ele><time>2026-05-02T15:00:40.991Z</time></trkpt><trkpt lat="44.8633733" lon="9.5877783"><ele>569.0</ele><time>2026-05-02T15:00:41.99Z</time></trkpt><trkpt lat="44.86343" lon="9.58789"><ele>569.0</ele><time>2026-05-02T15:00:42.989Z</time></trkpt><trkpt lat="44.8634867" lon="9.5879967"><ele>569.0</ele><time>2026-05-02T15:00:43.989Z</time></trkpt><trkpt lat="44.863545" lon="9.5881083"><ele>569.0</ele><time>2026-05-02T15:00:44.99Z</time></trkpt><trkpt lat="44.8636017" lon="9.588225"><ele>567.8</ele><time>2026-05-02T15:00:45.989Z</time></trkpt><trkpt lat="44.8636617" lon="9.5883483"><ele>566.5999999999999</ele><time>2026-05-02T15:00:46.989Z</time></trkpt><trkpt lat="44.8637183" lon="9.5884783"><ele>565.4</ele><time>2026-05-02T15:00:47.991Z</time></trkpt><trkpt lat="44.8637733" lon="9.5886067"><ele>564.1999999999999</ele><time>2026-05-02T15:00:48.989Z</time></trkpt><trkpt lat="44.863825" lon="9.588735"><ele>563.0</ele><time>2026-05-02T15:00:49.989Z</time></trkpt><trkpt lat="44.86388" lon="9.58887"><ele>563.0</ele><time>2026-05-02T15:00:50.989Z</time></trkpt><trkpt lat="44.8639383" lon="9.5890033"><ele>563.0</ele><time>2026-05-02T15:00:51.989Z</time></trkpt><trkpt lat="44.8640083" lon="9.5891267"><ele>563.0</ele><time>2026-05-02T15:00:52.99Z</time></trkpt><trkpt lat="44.86409" lon="9.5892417"><ele>563.0</ele><time>2026-05-02T15:00:53.99Z</time></trkpt><trkpt lat="44.8641783" lon="9.5893533"><ele>563.0</ele><time>2026-05-02T15:00:54.99Z</time></trkpt><trkpt lat="44.864265" lon="9.5894667"><ele>563.0</ele><time>2026-05-02T15:00:55.99Z</time></trkpt><trkpt lat="44.8643533" lon="9.5895933"><ele>563.0</ele><time>2026-05-02T15:00:56.99Z</time></trkpt><trkpt lat="44.8644367" lon="9.58973"><ele>563.0</ele><time>2026-05-02T15:00:57.99Z</time></trkpt><trkpt lat="44.864515" lon="9.58986"><ele>561.0</ele><time>2026-05-02T15:00:58.989Z</time></trkpt><trkpt lat="44.864585" lon="9.5899967"><ele>559.0</ele><time>2026-05-02T15:00:59.99Z</time></trkpt><trkpt lat="44.8646533" lon="9.59013"><ele>557.0</ele><time>2026-05-02T15:01:00.989Z</time></trkpt><trkpt lat="44.8647183" lon="9.59026"><ele>555.0</ele><time>2026-05-02T15:01:01.991Z</time></trkpt><trkpt lat="44.8647733" lon="9.590395"><ele>555.0</ele><time>2026-05-02T15:01:02.99Z</time></trkpt><trkpt lat="44.8648167" lon="9.5905333"><ele>555.0</ele><time>2026-05-02T15:01:03.989Z</time></trkpt><trkpt lat="44.864845" lon="9.5906833"><ele>555.0</ele><time>2026-05-02T15:01:04.99Z</time></trkpt><trkpt lat="44.86486" lon="9.5908483"><ele>555.0</ele><time>2026-05-02T15:01:05.989Z</time></trkpt><trkpt lat="44.8648633" lon="9.59102"><ele>554.25</ele><time>2026-05-02T15:01:06.989Z</time></trkpt><trkpt lat="44.8648617" lon="9.591185"><ele>553.5</ele><time>2026-05-02T15:01:07.99Z</time></trkpt><trkpt lat="44.8648533" lon="9.5913483"><ele>552.75</ele><time>2026-05-02T15:01:08.99Z</time></trkpt><trkpt lat="44.8648417" lon="9.5915183"><ele>552.0</ele><time>2026-05-02T15:01:09.99Z</time></trkpt><trkpt lat="44.8648283" lon="9.5916883"><ele>552.0</ele><time>2026-05-02T15:01:10.989Z</time></trkpt><trkpt lat="44.8648233" lon="9.5918733"><ele>552.0</ele><time>2026-05-02T15:01:11.989Z</time></trkpt><trkpt lat="44.8648267" lon="9.5920533"><ele>552.0</ele><time>2026-05-02T15:01:12.99Z</time></trkpt><trkpt lat="44.86483" lon="9.5922267"><ele>552.0</ele><time>2026-05-02T15:01:13.99Z</time></trkpt><trkpt lat="44.8648367" lon="9.5923933"><ele>551.0</ele><time>2026-05-02T15:01:14.99Z</time></trkpt><trkpt lat="44.8648517" lon="9.5925383"><ele>550.0</ele><time>2026-05-02T15:01:15.989Z</time></trkpt><trkpt lat="44.86488" lon="9.5926567"><ele>549.0</ele><time>2026-05-02T15:01:16.989Z</time></trkpt><trkpt lat="44.8649267" lon="9.5927467"><ele>548.0</ele><time>2026-05-02T15:01:17.99Z</time></trkpt><trkpt lat="44.86504" lon="9.5927367"><ele>547.0</ele><time>2026-05-02T15:01:19.99Z</time></trkpt><trkpt lat="44.8650983" lon="9.5926767"><ele>541.4</ele><time>2026-05-02T15:01:20.991Z</time></trkpt><trkpt lat="44.865155" lon="9.5925883"><ele>535.8000000000001</ele><time>2026-05-02T15:01:21.99Z</time></trkpt><trkpt lat="44.86521" lon="9.5924767"><ele>530.2</ele><time>2026-05-02T15:01:22.989Z</time></trkpt><trkpt lat="44.86526" lon="9.5923383"><ele>524.6</ele><time>2026-05-02T15:01:23.989Z</time></trkpt><trkpt lat="44.8652917" lon="9.5921767"><ele>519.0</ele><time>2026-05-02T15:01:24.99Z</time></trkpt><trkpt lat="44.8653183" lon="9.592015"><ele>519.8</ele><time>2026-05-02T15:01:25.99Z</time></trkpt><trkpt lat="44.8653383" lon="9.5918633"><ele>520.5999999999999</ele><time>2026-05-02T15:01:26.99Z</time></trkpt><trkpt lat="44.8653467" lon="9.591705"><ele>521.4</ele><time>2026-05-02T15:01:27.989Z</time></trkpt><trkpt lat="44.8653567" lon="9.59155"><ele>522.1999999999999</ele><time>2026-05-02T15:01:28.989Z</time></trkpt><trkpt lat="44.8653683" lon="9.5914067"><ele>523.0</ele><time>2026-05-02T15:01:29.99Z</time></trkpt><trkpt lat="44.8653917" lon="9.5912617"><ele>523.6</ele><time>2026-05-02T15:01:30.989Z</time></trkpt><trkpt lat="44.8654317" lon="9.5911467"><ele>524.1999999999999</ele><time>2026-05-02T15:01:31.989Z</time></trkpt><trkpt lat="44.8654883" lon="9.5910483"><ele>524.8</ele><time>2026-05-02T15:01:32.989Z</time></trkpt><trkpt lat="44.8655617" lon="9.5909633"><ele>525.4</ele><time>2026-05-02T15:01:33.989Z</time></trkpt><trkpt lat="44.8656433" lon="9.5908817"><ele>526.0</ele><time>2026-05-02T15:01:34.99Z</time></trkpt><trkpt lat="44.8657317" lon="9.59081"><ele>526.0</ele><time>2026-05-02T15:01:35.99Z</time></trkpt><trkpt lat="44.8658217" lon="9.5907517"><ele>526.0</ele><time>2026-05-02T15:01:36.989Z</time></trkpt><trkpt lat="44.865915" lon="9.59072"><ele>526.0</ele><time>2026-05-02T15:01:37.991Z</time></trkpt><trkpt lat="44.866005" lon="9.5907083"><ele>526.0</ele><time>2026-05-02T15:01:38.99Z</time></trkpt><trkpt lat="44.86609" lon="9.5907317"><ele>526.0</ele><time>2026-05-02T15:01:39.989Z</time></trkpt><trkpt lat="44.8661717" lon="9.590795"><ele>522.25</ele><time>2026-05-02T15:01:40.99Z</time></trkpt><trkpt lat="44.8662467" lon="9.5908933"><ele>518.5</ele><time>2026-05-02T15:01:41.991Z</time></trkpt><trkpt lat="44.8663233" lon="9.591015"><ele>514.75</ele><time>2026-05-02T15:01:42.99Z</time></trkpt><trkpt lat="44.8664033" lon="9.5911517"><ele>511.0</ele><time>2026-05-02T15:01:43.99Z</time></trkpt><trkpt lat="44.8664783" lon="9.591295"><ele>511.0</ele><time>2026-05-02T15:01:44.99Z</time></trkpt><trkpt lat="44.8665483" lon="9.591435"><ele>511.0</ele><time>2026-05-02T15:01:45.99Z</time></trkpt><trkpt lat="44.8666083" lon="9.59157"><ele>511.0</ele><time>2026-05-02T15:01:46.989Z</time></trkpt><trkpt lat="44.8666617" lon="9.5917"><ele>511.0</ele><time>2026-05-02T15:01:47.989Z</time></trkpt><trkpt lat="44.8667067" lon="9.5918167"><ele>511.0</ele><time>2026-05-02T15:01:48.989Z</time></trkpt><trkpt lat="44.8667517" lon="9.591915"><ele>510.83333333333337</ele><time>2026-05-02T15:01:49.99Z</time></trkpt><trkpt lat="44.8668017" lon="9.592"><ele>510.6666666666667</ele><time>2026-05-02T15:01:50.99Z</time></trkpt><trkpt lat="44.8668483" lon="9.59209"><ele>510.5</ele><time>2026-05-02T15:01:51.99Z</time></trkpt><trkpt lat="44.8668867" lon="9.5921933"><ele>510.33333333333337</ele><time>2026-05-02T15:01:52.989Z</time></trkpt><trkpt lat="44.8669083" lon="9.59231"><ele>510.1666666666667</ele><time>2026-05-02T15:01:53.99Z</time></trkpt><trkpt lat="44.8669317" lon="9.5924383"><ele>510.0</ele><time>2026-05-02T15:01:54.99Z</time></trkpt><trkpt lat="44.8669567" lon="9.5925683"><ele>510.0</ele><time>2026-05-02T15:01:55.989Z</time></trkpt><trkpt lat="44.866985" lon="9.5926967"><ele>510.0</ele><time>2026-05-02T15:01:56.989Z</time></trkpt><trkpt lat="44.86702" lon="9.5928267"><ele>510.0</ele><time>2026-05-02T15:01:57.989Z</time></trkpt><trkpt lat="44.867065" lon="9.5929567"><ele>510.0</ele><time>2026-05-02T15:01:58.989Z</time></trkpt><trkpt lat="44.86712" lon="9.5930817"><ele>510.0</ele><time>2026-05-02T15:01:59.989Z</time></trkpt><trkpt lat="44.8671883" lon="9.593195"><ele>510.6</ele><time>2026-05-02T15:02:00.989Z</time></trkpt><trkpt lat="44.86727" lon="9.59329"><ele>511.2</ele><time>2026-05-02T15:02:01.989Z</time></trkpt><trkpt lat="44.8673567" lon="9.5933683"><ele>511.79999999999995</ele><time>2026-05-02T15:02:02.991Z</time></trkpt><trkpt lat="44.8674467" lon="9.5934317"><ele>512.4</ele><time>2026-05-02T15:02:03.989Z</time></trkpt><trkpt lat="44.86754" lon="9.59348"><ele>513.0</ele><time>2026-05-02T15:02:04.989Z</time></trkpt><trkpt lat="44.8676367" lon="9.5935083"><ele>512.0</ele><time>2026-05-02T15:02:06.022Z</time></trkpt><trkpt lat="44.86773" lon="9.593525"><ele>511.0</ele><time>2026-05-02T15:02:06.991Z</time></trkpt><trkpt lat="44.8678183" lon="9.5935317"><ele>510.0</ele><time>2026-05-02T15:02:07.991Z</time></trkpt><trkpt lat="44.8679067" lon="9.593535"><ele>509.0</ele><time>2026-05-02T15:02:08.991Z</time></trkpt><trkpt lat="44.867995" lon="9.5935417"><ele>508.0</ele><time>2026-05-02T15:02:09.99Z</time></trkpt><trkpt lat="44.8680817" lon="9.5935433"><ele>507.0</ele><time>2026-05-02T15:02:10.99Z</time></trkpt><trkpt lat="44.8681683" lon="9.5935433"><ele>507.0</ele><time>2026-05-02T15:02:11.991Z</time></trkpt><trkpt lat="44.86825" lon="9.5935483"><ele>507.00000000000006</ele><time>2026-05-02T15:02:12.989Z</time></trkpt><trkpt lat="44.8683233" lon="9.59356"><ele>507.00000000000006</ele><time>2026-05-02T15:02:13.989Z</time></trkpt><trkpt lat="44.8683883" lon="9.5935783"><ele>507.0</ele><time>2026-05-02T15:02:14.989Z</time></trkpt><trkpt lat="44.8684917" lon="9.5936533"><ele>507.0</ele><time>2026-05-02T15:02:16.989Z</time></trkpt><trkpt lat="44.8685883" lon="9.5937667"><ele>506.8333333333333</ele><time>2026-05-02T15:02:18.989Z</time></trkpt><trkpt lat="44.8686383" lon="9.5938417"><ele>506.66666666666663</ele><time>2026-05-02T15:02:19.989Z</time></trkpt><trkpt lat="44.8686833" lon="9.59392"><ele>506.5</ele><time>2026-05-02T15:02:20.989Z</time></trkpt><trkpt lat="44.8687267" lon="9.5940033"><ele>506.3333333333333</ele><time>2026-05-02T15:02:21.989Z</time></trkpt><trkpt lat="44.8687733" lon="9.5940917"><ele>506.16666666666663</ele><time>2026-05-02T15:02:22.989Z</time></trkpt><trkpt lat="44.8688183" lon="9.59419"><ele>506.0</ele><time>2026-05-02T15:02:23.989Z</time></trkpt><trkpt lat="44.868865" lon="9.594285"><ele>505.99999999999994</ele><time>2026-05-02T15:02:24.99Z</time></trkpt><trkpt lat="44.86891" lon="9.594385"><ele>506.0</ele><time>2026-05-02T15:02:25.99Z</time></trkpt><trkpt lat="44.8689567" lon="9.5944867"><ele>506.0</ele><time>2026-05-02T15:02:26.993Z</time></trkpt><trkpt lat="44.869005" lon="9.594585"><ele>506.0</ele><time>2026-05-02T15:02:27.989Z</time></trkpt><trkpt lat="44.86906" lon="9.5946783"><ele>505.99999999999994</ele><time>2026-05-02T15:02:28.991Z</time></trkpt><trkpt lat="44.8691233" lon="9.59477"><ele>506.0</ele><time>2026-05-02T15:02:29.989Z</time></trkpt><trkpt lat="44.8691883" lon="9.5948617"><ele>506.0</ele><time>2026-05-02T15:02:30.992Z</time></trkpt><trkpt lat="44.8692533" lon="9.59495"><ele>506.0</ele><time>2026-05-02T15:02:31.99Z</time></trkpt><trkpt lat="44.86932" lon="9.5950417"><ele>506.0</ele><time>2026-05-02T15:02:32.989Z</time></trkpt><trkpt lat="44.8693967" lon="9.5951333"><ele>506.0</ele><time>2026-05-02T15:02:33.99Z</time></trkpt><trkpt lat="44.869485" lon="9.595225"><ele>506.0</ele><time>2026-05-02T15:02:34.989Z</time></trkpt><trkpt lat="44.8695783" lon="9.5953017"><ele>508.20000000000005</ele><time>2026-05-02T15:02:35.99Z</time></trkpt><trkpt lat="44.869675" lon="9.595375"><ele>510.40000000000003</ele><time>2026-05-02T15:02:36.989Z</time></trkpt><trkpt lat="44.8697733" lon="9.5954483"><ele>512.6</ele><time>2026-05-02T15:02:37.99Z</time></trkpt><trkpt lat="44.86987" lon="9.595505"><ele>514.8000000000001</ele><time>2026-05-02T15:02:38.991Z</time></trkpt><trkpt lat="44.869965" lon="9.595565"><ele>517.0</ele><time>2026-05-02T15:02:39.989Z</time></trkpt><trkpt lat="44.87006" lon="9.595615"><ele>515.6</ele><time>2026-05-02T15:02:40.989Z</time></trkpt><trkpt lat="44.87015" lon="9.595665"><ele>514.2</ele><time>2026-05-02T15:02:41.991Z</time></trkpt><trkpt lat="44.87024" lon="9.5957117"><ele>512.8</ele><time>2026-05-02T15:02:42.989Z</time></trkpt><trkpt lat="44.870335" lon="9.595755"><ele>511.4</ele><time>2026-05-02T15:02:43.99Z</time></trkpt><trkpt lat="44.8704367" lon="9.5957933"><ele>510.0</ele><time>2026-05-02T15:02:44.99Z</time></trkpt><trkpt lat="44.8705417" lon="9.595825"><ele>510.0</ele><time>2026-05-02T15:02:45.989Z</time></trkpt><trkpt lat="44.8706483" lon="9.59586"><ele>510.0</ele><time>2026-05-02T15:02:46.989Z</time></trkpt><trkpt lat="44.8707567" lon="9.5958983"><ele>510.0</ele><time>2026-05-02T15:02:47.989Z</time></trkpt><trkpt lat="44.8708617" lon="9.5959483"><ele>510.0</ele><time>2026-05-02T15:02:48.989Z</time></trkpt><trkpt lat="44.8709667" lon="9.5959983"><ele>510.0</ele><time>2026-05-02T15:02:49.99Z</time></trkpt><trkpt lat="44.871065" lon="9.5960467"><ele>510.2</ele><time>2026-05-02T15:02:50.99Z</time></trkpt><trkpt lat="44.8711617" lon="9.596095"><ele>510.4</ele><time>2026-05-02T15:02:51.989Z</time></trkpt><trkpt lat="44.871255" lon="9.5961467"><ele>510.6</ele><time>2026-05-02T15:02:52.989Z</time></trkpt><trkpt lat="44.8713483" lon="9.5962133"><ele>510.8</ele><time>2026-05-02T15:02:53.989Z</time></trkpt><trkpt lat="44.871445" lon="9.596295"><ele>511.0</ele><time>2026-05-02T15:02:54.989Z</time></trkpt><trkpt lat="44.8715367" lon="9.59638"><ele>511.0</ele><time>2026-05-02T15:02:55.989Z</time></trkpt><trkpt lat="44.871625" lon="9.5964767"><ele>511.0</ele><time>2026-05-02T15:02:56.99Z</time></trkpt><trkpt lat="44.8717117" lon="9.5965717"><ele>511.0</ele><time>2026-05-02T15:02:57.989Z</time></trkpt><trkpt lat="44.8717983" lon="9.5966617"><ele>511.0</ele><time>2026-05-02T15:02:58.991Z</time></trkpt><trkpt lat="44.8718867" lon="9.5967533"><ele>511.0</ele><time>2026-05-02T15:02:59.989Z</time></trkpt><trkpt lat="44.8719783" lon="9.5968533"><ele>509.0</ele><time>2026-05-02T15:03:00.99Z</time></trkpt><trkpt lat="44.8720667" lon="9.596955"><ele>507.0</ele><time>2026-05-02T15:03:01.99Z</time></trkpt><trkpt lat="44.8721483" lon="9.5970567"><ele>505.0</ele><time>2026-05-02T15:03:02.991Z</time></trkpt><trkpt lat="44.8722283" lon="9.5971617"><ele>503.0</ele><time>2026-05-02T15:03:03.989Z</time></trkpt><trkpt lat="44.87231" lon="9.59726"><ele>501.0</ele><time>2026-05-02T15:03:04.991Z</time></trkpt><trkpt lat="44.8723917" lon="9.5973617"><ele>501.0</ele><time>2026-05-02T15:03:05.99Z</time></trkpt><trkpt lat="44.8724817" lon="9.59746"><ele>501.0</ele><time>2026-05-02T15:03:06.991Z</time></trkpt><trkpt lat="44.8725717" lon="9.5975567"><ele>501.0</ele><time>2026-05-02T15:03:07.99Z</time></trkpt><trkpt lat="44.87266" lon="9.5976567"><ele>501.0</ele><time>2026-05-02T15:03:08.99Z</time></trkpt><trkpt lat="44.8727367" lon="9.5977467"><ele>501.0</ele><time>2026-05-02T15:03:09.989Z</time></trkpt><trkpt lat="44.8728083" lon="9.5978267"><ele>501.20000000000005</ele><time>2026-05-02T15:03:10.989Z</time></trkpt><trkpt lat="44.872875" lon="9.597905"><ele>501.40000000000003</ele><time>2026-05-02T15:03:11.989Z</time></trkpt><trkpt lat="44.87294" lon="9.597985"><ele>501.6</ele><time>2026-05-02T15:03:12.989Z</time></trkpt><trkpt lat="44.87301" lon="9.59807"><ele>501.8</ele><time>2026-05-02T15:03:13.99Z</time></trkpt><trkpt lat="44.8730817" lon="9.5981583"><ele>502.0</ele><time>2026-05-02T15:03:14.989Z</time></trkpt><trkpt lat="44.8731567" lon="9.59825"><ele>502.0</ele><time>2026-05-02T15:03:15.989Z</time></trkpt><trkpt lat="44.87323" lon="9.59834"><ele>502.00000000000006</ele><time>2026-05-02T15:03:16.99Z</time></trkpt><trkpt lat="44.8733017" lon="9.5984283"><ele>502.00000000000006</ele><time>2026-05-02T15:03:17.99Z</time></trkpt><trkpt lat="44.87337" lon="9.5985133"><ele>502.0</ele><time>2026-05-02T15:03:18.99Z</time></trkpt><trkpt lat="44.873435" lon="9.5985967"><ele>502.0</ele><time>2026-05-02T15:03:19.991Z</time></trkpt><trkpt lat="44.8735017" lon="9.5986717"><ele>501.83333333333337</ele><time>2026-05-02T15:03:20.99Z</time></trkpt><trkpt lat="44.873565" lon="9.5987417"><ele>501.6666666666667</ele><time>2026-05-02T15:03:21.991Z</time></trkpt><trkpt lat="44.8736317" lon="9.59881"><ele>501.5</ele><time>2026-05-02T15:03:22.989Z</time></trkpt><trkpt lat="44.8736983" lon="9.5988867"><ele>501.33333333333337</ele><time>2026-05-02T15:03:23.99Z</time></trkpt><trkpt lat="44.8737633" lon="9.598965"><ele>501.1666666666667</ele><time>2026-05-02T15:03:24.99Z</time></trkpt><trkpt lat="44.87383" lon="9.599035"><ele>501.0</ele><time>2026-05-02T15:03:25.99Z</time></trkpt><trkpt lat="44.8738933" lon="9.5991"><ele>501.0</ele><time>2026-05-02T15:03:26.99Z</time></trkpt><trkpt lat="44.87395" lon="9.5991583"><ele>501.0</ele><time>2026-05-02T15:03:27.989Z</time></trkpt><trkpt lat="44.8740017" lon="9.599215"><ele>501.0</ele><time>2026-05-02T15:03:28.99Z</time></trkpt><trkpt lat="44.874085" lon="9.599295"><ele>501.0</ele><time>2026-05-02T15:03:30.989Z</time></trkpt><trkpt lat="44.874175" lon="9.5993133"><ele>501.0</ele><time>2026-05-02T15:03:33.989Z</time></trkpt><trkpt lat="44.8742433" lon="9.5992967"><ele>501.0</ele><time>2026-05-02T15:03:35.99Z</time></trkpt><trkpt lat="44.87432" lon="9.5992817"><ele>500.5</ele><time>2026-05-02T15:03:37.989Z</time></trkpt><trkpt lat="44.8744" lon="9.5992833"><ele>500.0</ele><time>2026-05-02T15:03:39.989Z</time></trkpt><trkpt lat="44.8745117" lon="9.599315"><ele>499.5</ele><time>2026-05-02T15:03:41.991Z</time></trkpt><trkpt lat="44.8745767" lon="9.599325"><ele>499.0</ele><time>2026-05-02T15:03:42.99Z</time></trkpt><trkpt lat="44.8746617" lon="9.599325"><ele>498.5</ele><time>2026-05-02T15:03:43.991Z</time></trkpt><trkpt lat="44.8747533" lon="9.599305"><ele>498.0</ele><time>2026-05-02T15:03:44.992Z</time></trkpt><trkpt lat="44.8748333" lon="9.5993"><ele>498.0</ele><time>2026-05-02T15:03:45.99Z</time></trkpt><trkpt lat="44.8749067" lon="9.599305"><ele>498.0</ele><time>2026-05-02T15:03:46.99Z</time></trkpt><trkpt lat="44.8749817" lon="9.599305"><ele>498.0</ele><time>2026-05-02T15:03:47.989Z</time></trkpt><trkpt lat="44.875065" lon="9.599295"><ele>498.0</ele><time>2026-05-02T15:03:48.99Z</time></trkpt><trkpt lat="44.87517" lon="9.59929"><ele>498.0</ele><time>2026-05-02T15:03:49.991Z</time></trkpt><trkpt lat="44.8752567" lon="9.59927"><ele>498.0</ele><time>2026-05-02T15:03:50.991Z</time></trkpt><trkpt lat="44.875365" lon="9.5992533"><ele>498.0</ele><time>2026-05-02T15:03:51.99Z</time></trkpt><trkpt lat="44.8754583" lon="9.599235"><ele>498.0</ele><time>2026-05-02T15:03:52.989Z</time></trkpt><trkpt lat="44.8755467" lon="9.599225"><ele>498.0</ele><time>2026-05-02T15:03:53.99Z</time></trkpt><trkpt lat="44.8756367" lon="9.599225"><ele>498.0</ele><time>2026-05-02T15:03:54.99Z</time></trkpt><trkpt lat="44.8757083" lon="9.59922"><ele>498.0</ele><time>2026-05-02T15:03:55.989Z</time></trkpt><trkpt lat="44.8757767" lon="9.5992083"><ele>498.0</ele><time>2026-05-02T15:03:56.99Z</time></trkpt><trkpt lat="44.8758433" lon="9.5992033"><ele>498.0</ele><time>2026-05-02T15:03:57.989Z</time></trkpt><trkpt lat="44.875915" lon="9.5991817"><ele>498.0</ele><time>2026-05-02T15:03:58.99Z</time></trkpt><trkpt lat="44.8759933" lon="9.5991667"><ele>498.0</ele><time>2026-05-02T15:03:59.99Z</time></trkpt><trkpt lat="44.8760917" lon="9.5991717"><ele>498.0</ele><time>2026-05-02T15:04:01.081Z</time></trkpt><trkpt lat="44.8761683" lon="9.5991583"><ele>498.0</ele><time>2026-05-02T15:04:01.989Z</time></trkpt><trkpt lat="44.87624" lon="9.5991367"><ele>498.0</ele><time>2026-05-02T15:04:02.989Z</time></trkpt><trkpt lat="44.8763083" lon="9.59911"><ele>497.0</ele><time>2026-05-02T15:04:03.988Z</time></trkpt><trkpt lat="44.876375" lon="9.5990833"><ele>495.99999999999994</ele><time>2026-05-02T15:04:04.989Z</time></trkpt><trkpt lat="44.8764433" lon="9.5990733"><ele>494.99999999999994</ele><time>2026-05-02T15:04:05.991Z</time></trkpt><trkpt lat="44.8765417" lon="9.5990017"><ele>494.0</ele><time>2026-05-02T15:04:07.989Z</time></trkpt><trkpt lat="44.8766367" lon="9.5989033"><ele>493.0</ele><time>2026-05-02T15:04:09.988Z</time></trkpt><trkpt lat="44.8767217" lon="9.5987983"><ele>489.4</ele><time>2026-05-02T15:04:11.989Z</time></trkpt><trkpt lat="44.8768183" lon="9.5987317"><ele>485.79999999999995</ele><time>2026-05-02T15:04:13.989Z</time></trkpt><trkpt lat="44.876915" lon="9.5986733"><ele>482.2</ele><time>2026-05-02T15:04:15.988Z</time></trkpt><trkpt lat="44.8770117" lon="9.5986783"><ele>478.6</ele><time>2026-05-02T15:04:17.988Z</time></trkpt><trkpt lat="44.8770717" lon="9.59871"><ele>475.0</ele><time>2026-05-02T15:04:18.989Z</time></trkpt><trkpt lat="44.877155" lon="9.5987017"><ele>475.0</ele><time>2026-05-02T15:04:20.989Z</time></trkpt><trkpt lat="44.8772633" lon="9.59867"><ele>475.0</ele><time>2026-05-02T15:04:23.989Z</time></trkpt><trkpt lat="44.8773583" lon="9.5986267"><ele>475.0</ele><time>2026-05-02T15:04:25.989Z</time></trkpt><trkpt lat="44.8774367" lon="9.5985483"><ele>475.0</ele><time>2026-05-02T15:04:27.988Z</time></trkpt><trkpt lat="44.87751" lon="9.598495"><ele>475.0</ele><time>2026-05-02T15:04:29.989Z</time></trkpt><trkpt lat="44.8775933" lon="9.5985167"><ele>469.8</ele><time>2026-05-02T15:04:31.988Z</time></trkpt><trkpt lat="44.8776783" lon="9.5984833"><ele>464.6</ele><time>2026-05-02T15:04:33.99Z</time></trkpt><trkpt lat="44.8777867" lon="9.5984533"><ele>459.4</ele><time>2026-05-02T15:04:35.99Z</time></trkpt><trkpt lat="44.8778833" lon="9.5984367"><ele>454.2</ele><time>2026-05-02T15:04:37.988Z</time></trkpt><trkpt lat="44.87796" lon="9.5984067"><ele>449.0</ele><time>2026-05-02T15:04:39.99Z</time></trkpt><trkpt lat="44.8780233" lon="9.5983317"><ele>448.99999999999994</ele><time>2026-05-02T15:04:42.989Z</time></trkpt><trkpt lat="44.87809" lon="9.5983033"><ele>449.0</ele><time>2026-05-02T15:04:44.99Z</time></trkpt><trkpt lat="44.878175" lon="9.5983433"><ele>449.0</ele><time>2026-05-02T15:04:46.989Z</time></trkpt><trkpt lat="44.8782417" lon="9.5984117"><ele>449.0</ele><time>2026-05-02T15:04:48.989Z</time></trkpt><trkpt lat="44.8783217" lon="9.5983817"><ele>448.99999999999994</ele><time>2026-05-02T15:04:51.989Z</time></trkpt><trkpt lat="44.8784083" lon="9.598355"><ele>449.0</ele><time>2026-05-02T15:04:53.989Z</time></trkpt><trkpt lat="44.8785183" lon="9.59834"><ele>447.0</ele><time>2026-05-02T15:04:55.989Z</time></trkpt><trkpt lat="44.8785817" lon="9.5983183"><ele>444.99999999999994</ele><time>2026-05-02T15:04:56.99Z</time></trkpt><trkpt lat="44.8786467" lon="9.5983167"><ele>443.0</ele><time>2026-05-02T15:04:57.989Z</time></trkpt><trkpt lat="44.8787133" lon="9.5983233"><ele>441.0</ele><time>2026-05-02T15:04:58.989Z</time></trkpt><trkpt lat="44.878795" lon="9.5983283"><ele>439.0</ele><time>2026-05-02T15:04:59.989Z</time></trkpt><trkpt lat="44.8788767" lon="9.5983217"><ele>437.0</ele><time>2026-05-02T15:05:00.989Z</time></trkpt><trkpt lat="44.8789633" lon="9.598315"><ele>435.0</ele><time>2026-05-02T15:05:01.99Z</time></trkpt><trkpt lat="44.8790467" lon="9.59831"><ele>435.0</ele><time>2026-05-02T15:05:02.989Z</time></trkpt><trkpt lat="44.8791267" lon="9.5982983"><ele>435.0</ele><time>2026-05-02T15:05:03.989Z</time></trkpt><trkpt lat="44.8792117" lon="9.59829"><ele>435.0</ele><time>2026-05-02T15:05:04.989Z</time></trkpt><trkpt lat="44.8793017" lon="9.5982767"><ele>435.0</ele><time>2026-05-02T15:05:05.99Z</time></trkpt><trkpt lat="44.8793933" lon="9.5982517"><ele>435.0</ele><time>2026-05-02T15:05:06.99Z</time></trkpt><trkpt lat="44.879475" lon="9.5982217"><ele>435.0</ele><time>2026-05-02T15:05:07.988Z</time></trkpt><trkpt lat="44.8795533" lon="9.5981817"><ele>434.28571428571433</ele><time>2026-05-02T15:05:08.989Z</time></trkpt><trkpt lat="44.8796283" lon="9.5981367"><ele>433.57142857142856</ele><time>2026-05-02T15:05:09.989Z</time></trkpt><trkpt lat="44.8797017" lon="9.5980917"><ele>432.8571428571429</ele><time>2026-05-02T15:05:10.989Z</time></trkpt><trkpt lat="44.8797717" lon="9.598055"><ele>432.14285714285717</ele><time>2026-05-02T15:05:11.989Z</time></trkpt><trkpt lat="44.8798383" lon="9.5980233"><ele>431.42857142857144</ele><time>2026-05-02T15:05:12.989Z</time></trkpt><trkpt lat="44.8799033" lon="9.597995"><ele>430.7142857142857</ele><time>2026-05-02T15:05:13.989Z</time></trkpt><trkpt lat="44.8799667" lon="9.5979717"><ele>430.0</ele><time>2026-05-02T15:05:14.989Z</time></trkpt><trkpt lat="44.8800333" lon="9.5979483"><ele>427.33333333333337</ele><time>2026-05-02T15:05:15.988Z</time></trkpt><trkpt lat="44.8801083" lon="9.5979283"><ele>424.6666666666667</ele><time>2026-05-02T15:05:16.99Z</time></trkpt><trkpt lat="44.8801883" lon="9.5979067"><ele>422.0</ele><time>2026-05-02T15:05:17.988Z</time></trkpt><trkpt lat="44.8802633" lon="9.5978867"><ele>419.33333333333337</ele><time>2026-05-02T15:05:18.989Z</time></trkpt><trkpt lat="44.8803367" lon="9.5978667"><ele>416.6666666666667</ele><time>2026-05-02T15:05:19.988Z</time></trkpt><trkpt lat="44.8804167" lon="9.59784"><ele>414.0</ele><time>2026-05-02T15:05:20.99Z</time></trkpt><trkpt lat="44.8804933" lon="9.597805"><ele>413.0</ele><time>2026-05-02T15:05:21.989Z</time></trkpt><trkpt lat="44.8805683" lon="9.5977683"><ele>412.0</ele><time>2026-05-02T15:05:22.99Z</time></trkpt><trkpt lat="44.880645" lon="9.5977367"><ele>411.0</ele><time>2026-05-02T15:05:23.988Z</time></trkpt><trkpt lat="44.8807283" lon="9.597705"><ele>410.0</ele><time>2026-05-02T15:05:24.988Z</time></trkpt><trkpt lat="44.880815" lon="9.5976667"><ele>409.0</ele><time>2026-05-02T15:05:25.989Z</time></trkpt><trkpt lat="44.8809033" lon="9.5976317"><ele>408.0</ele><time>2026-05-02T15:05:26.989Z</time></trkpt><trkpt lat="44.880985" lon="9.5975983"><ele>405.8333333333333</ele><time>2026-05-02T15:05:27.99Z</time></trkpt><trkpt lat="44.8810617" lon="9.597565"><ele>403.66666666666663</ele><time>2026-05-02T15:05:28.989Z</time></trkpt><trkpt lat="44.8811367" lon="9.597535"><ele>401.5</ele><time>2026-05-02T15:05:29.99Z</time></trkpt><trkpt lat="44.8812083" lon="9.5974933"><ele>399.3333333333333</ele><time>2026-05-02T15:05:30.99Z</time></trkpt><trkpt lat="44.881265" lon="9.5974233"><ele>397.16666666666663</ele><time>2026-05-02T15:05:31.989Z</time></trkpt><trkpt lat="44.8813083" lon="9.5973383"><ele>395.0</ele><time>2026-05-02T15:05:32.989Z</time></trkpt><trkpt lat="44.8813567" lon="9.5972583"><ele>394.99999999999994</ele><time>2026-05-02T15:05:33.989Z</time></trkpt><trkpt lat="44.881415" lon="9.5971983"><ele>395.0</ele><time>2026-05-02T15:05:34.988Z</time></trkpt><trkpt lat="44.8814767" lon="9.59716"><ele>395.0</ele><time>2026-05-02T15:05:35.989Z</time></trkpt><trkpt lat="44.881595" lon="9.597135"><ele>395.0</ele><time>2026-05-02T15:05:37.989Z</time></trkpt><trkpt lat="44.88169" lon="9.597145"><ele>394.99999999999994</ele><time>2026-05-02T15:05:39.989Z</time></trkpt><trkpt lat="44.8817667" lon="9.59715"><ele>395.0</ele><time>2026-05-02T15:05:41.989Z</time></trkpt><trkpt lat="44.8818467" lon="9.5971533"><ele>393.6</ele><time>2026-05-02T15:05:44.989Z</time></trkpt><trkpt lat="44.88194" lon="9.5971317"><ele>392.2</ele><time>2026-05-02T15:05:48.989Z</time></trkpt><trkpt lat="44.8820083" lon="9.5971233"><ele>390.79999999999995</ele><time>2026-05-02T15:05:51.989Z</time></trkpt><trkpt lat="44.8821283" lon="9.5971217"><ele>389.4</ele><time>2026-05-02T15:07:00.989Z</time></trkpt><trkpt lat="44.8822317" lon="9.5970983"><ele>388.0</ele><time>2026-05-02T15:07:02.99Z</time></trkpt><trkpt lat="44.8823467" lon="9.5970933"><ele>388.00000000000006</ele><time>2026-05-02T15:07:04.989Z</time></trkpt><trkpt lat="44.8824483" lon="9.5971"><ele>388.0</ele><time>2026-05-02T15:07:06.989Z</time></trkpt><trkpt lat="44.882525" lon="9.59709"><ele>388.0</ele><time>2026-05-02T15:07:08.99Z</time></trkpt><trkpt lat="44.8825733" lon="9.5970133"><ele>388.0</ele><time>2026-05-02T15:07:10.99Z</time></trkpt><trkpt lat="44.8826" lon="9.596895"><ele>388.00000000000006</ele><time>2026-05-02T15:07:12.99Z</time></trkpt><trkpt lat="44.882645" lon="9.596805"><ele>388.0</ele><time>2026-05-02T15:07:14.99Z</time></trkpt><trkpt lat="44.8827067" lon="9.596725"><ele>388.0</ele><time>2026-05-02T15:07:16.989Z</time></trkpt><trkpt lat="44.8827783" lon="9.5966517"><ele>388.0</ele><time>2026-05-02T15:07:18.988Z</time></trkpt><trkpt lat="44.8828467" lon="9.59659"><ele>388.0</ele><time>2026-05-02T15:07:20.989Z</time></trkpt><trkpt lat="44.88292" lon="9.596515"><ele>388.0</ele><time>2026-05-02T15:07:22.989Z</time></trkpt><trkpt lat="44.8829983" lon="9.5964283"><ele>388.0</ele><time>2026-05-02T15:07:24.99Z</time></trkpt><trkpt lat="44.8830833" lon="9.59633"><ele>388.0</ele><time>2026-05-02T15:07:26.989Z</time></trkpt><trkpt lat="44.8831783" lon="9.5962433"><ele>388.0</ele><time>2026-05-02T15:07:28.989Z</time></trkpt><trkpt lat="44.88327" lon="9.5961633"><ele>388.0</ele><time>2026-05-02T15:07:30.989Z</time></trkpt><trkpt lat="44.8833717" lon="9.59608"><ele>388.0</ele><time>2026-05-02T15:07:32.989Z</time></trkpt><trkpt lat="44.8834283" lon="9.596035"><ele>388.0</ele><time>2026-05-02T15:07:33.989Z</time></trkpt><trkpt lat="44.8834917" lon="9.5959967"><ele>386.50000000000006</ele><time>2026-05-02T15:07:34.989Z</time></trkpt><trkpt lat="44.8835517" lon="9.5959667"><ele>385.0</ele><time>2026-05-02T15:07:35.989Z</time></trkpt><trkpt lat="44.88363" lon="9.59593"><ele>383.5</ele><time>2026-05-02T15:07:36.989Z</time></trkpt><trkpt lat="44.88371" lon="9.595895"><ele>382.0</ele><time>2026-05-02T15:07:37.989Z</time></trkpt><trkpt lat="44.88379" lon="9.5958617"><ele>380.5</ele><time>2026-05-02T15:07:38.99Z</time></trkpt><trkpt lat="44.88387" lon="9.5958283"><ele>379.0</ele><time>2026-05-02T15:07:39.99Z</time></trkpt><trkpt lat="44.8839483" lon="9.59579"><ele>379.0</ele><time>2026-05-02T15:07:40.989Z</time></trkpt><trkpt lat="44.8840283" lon="9.5957483"><ele>379.0</ele><time>2026-05-02T15:07:41.989Z</time></trkpt><trkpt lat="44.884105" lon="9.59569"><ele>379.0</ele><time>2026-05-02T15:07:42.989Z</time></trkpt><trkpt lat="44.8841783" lon="9.5956417"><ele>379.0</ele><time>2026-05-02T15:07:43.99Z</time></trkpt><trkpt lat="44.884245" lon="9.5955967"><ele>379.0</ele><time>2026-05-02T15:07:44.989Z</time></trkpt><trkpt lat="44.8843117" lon="9.5955483"><ele>379.0</ele><time>2026-05-02T15:07:45.989Z</time></trkpt><trkpt lat="44.8843817" lon="9.5955"><ele>377.3333333333333</ele><time>2026-05-02T15:07:46.99Z</time></trkpt><trkpt lat="44.8844483" lon="9.5954583"><ele>375.66666666666663</ele><time>2026-05-02T15:07:47.99Z</time></trkpt><trkpt lat="44.88452" lon="9.5954267"><ele>374.0</ele><time>2026-05-02T15:07:48.989Z</time></trkpt><trkpt lat="44.8846017" lon="9.595395"><ele>372.3333333333333</ele><time>2026-05-02T15:07:49.989Z</time></trkpt><trkpt lat="44.8846883" lon="9.595375"><ele>370.6666666666667</ele><time>2026-05-02T15:07:50.989Z</time></trkpt><trkpt lat="44.8847733" lon="9.59535"><ele>369.0</ele><time>2026-05-02T15:07:51.989Z</time></trkpt><trkpt lat="44.8848617" lon="9.5953233"><ele>368.1666666666667</ele><time>2026-05-02T15:07:52.991Z</time></trkpt><trkpt lat="44.8849483" lon="9.5952817"><ele>367.3333333333333</ele><time>2026-05-02T15:07:53.991Z</time></trkpt><trkpt lat="44.8850217" lon="9.5952317"><ele>366.5</ele><time>2026-05-02T15:07:54.991Z</time></trkpt><trkpt lat="44.885085" lon="9.595175"><ele>365.66666666666663</ele><time>2026-05-02T15:07:55.991Z</time></trkpt><trkpt lat="44.88515" lon="9.595105"><ele>364.8333333333333</ele><time>2026-05-02T15:07:56.991Z</time></trkpt><trkpt lat="44.8852133" lon="9.5950317"><ele>364.0</ele><time>2026-05-02T15:07:57.989Z</time></trkpt><trkpt lat="44.885275" lon="9.5949617"><ele>362.8333333333333</ele><time>2026-05-02T15:07:58.99Z</time></trkpt><trkpt lat="44.8853317" lon="9.5949"><ele>361.66666666666663</ele><time>2026-05-02T15:07:59.989Z</time></trkpt><trkpt lat="44.88539" lon="9.5948317"><ele>360.5</ele><time>2026-05-02T15:08:00.989Z</time></trkpt><trkpt lat="44.88548" lon="9.5947283"><ele>359.3333333333333</ele><time>2026-05-02T15:08:02.99Z</time></trkpt><trkpt lat="44.885565" lon="9.5946783"><ele>358.1666666666667</ele><time>2026-05-02T15:08:04.99Z</time></trkpt><trkpt lat="44.8856267" lon="9.594735"><ele>357.0</ele><time>2026-05-02T15:08:06.992Z</time></trkpt><trkpt lat="44.8856717" lon="9.5948133"><ele>357.0</ele><time>2026-05-02T15:08:07.989Z</time></trkpt><trkpt lat="44.8857233" lon="9.5948917"><ele>357.0</ele><time>2026-05-02T15:08:08.99Z</time></trkpt><trkpt lat="44.88578" lon="9.594965"><ele>357.0</ele><time>2026-05-02T15:08:09.99Z</time></trkpt><trkpt lat="44.8858483" lon="9.5950233"><ele>357.0</ele><time>2026-05-02T15:08:10.99Z</time></trkpt><trkpt lat="44.8859233" lon="9.5950617"><ele>357.0</ele><time>2026-05-02T15:08:11.99Z</time></trkpt><trkpt lat="44.8859967" lon="9.5950817"><ele>357.0</ele><time>2026-05-02T15:08:12.989Z</time></trkpt><trkpt lat="44.886085" lon="9.5951133"><ele>353.8</ele><time>2026-05-02T15:08:13.989Z</time></trkpt><trkpt lat="44.886175" lon="9.59514"><ele>350.6</ele><time>2026-05-02T15:08:14.989Z</time></trkpt><trkpt lat="44.8862783" lon="9.5951683"><ele>347.40000000000003</ele><time>2026-05-02T15:08:15.99Z</time></trkpt><trkpt lat="44.8863733" lon="9.59519"><ele>344.20000000000005</ele><time>2026-05-02T15:08:16.989Z</time></trkpt><trkpt lat="44.8864717" lon="9.5952267"><ele>341.0</ele><time>2026-05-02T15:08:17.989Z</time></trkpt><trkpt lat="44.886575" lon="9.5952633"><ele>341.0</ele><time>2026-05-02T15:08:18.989Z</time></trkpt><trkpt lat="44.8866717" lon="9.595295"><ele>341.0</ele><time>2026-05-02T15:08:19.989Z</time></trkpt><trkpt lat="44.8867717" lon="9.595325"><ele>341.0</ele><time>2026-05-02T15:08:20.99Z</time></trkpt><trkpt lat="44.88687" lon="9.5953517"><ele>341.0</ele><time>2026-05-02T15:08:21.99Z</time></trkpt><trkpt lat="44.8869667" lon="9.5953717"><ele>341.0</ele><time>2026-05-02T15:08:22.99Z</time></trkpt><trkpt lat="44.8870467" lon="9.59538"><ele>340.6</ele><time>2026-05-02T15:08:23.989Z</time></trkpt><trkpt lat="44.8871133" lon="9.5953883"><ele>340.20000000000005</ele><time>2026-05-02T15:08:24.989Z</time></trkpt><trkpt lat="44.88721" lon="9.5953567"><ele>339.79999999999995</ele><time>2026-05-02T15:08:26.99Z</time></trkpt><trkpt lat="44.8872683" lon="9.5952967"><ele>339.4</ele><time>2026-05-02T15:08:27.989Z</time></trkpt><trkpt lat="44.8873483" lon="9.595215"><ele>339.0</ele><time>2026-05-02T15:08:28.989Z</time></trkpt><trkpt lat="44.887445" lon="9.5951117"><ele>338.75</ele><time>2026-05-02T15:08:29.988Z</time></trkpt><trkpt lat="44.8875433" lon="9.5950183"><ele>338.5</ele><time>2026-05-02T15:08:30.989Z</time></trkpt><trkpt lat="44.8876417" lon="9.594925"><ele>338.25</ele><time>2026-05-02T15:08:31.989Z</time></trkpt><trkpt lat="44.88775" lon="9.5948217"><ele>338.0</ele><time>2026-05-02T15:08:32.99Z</time></trkpt><trkpt lat="44.8878617" lon="9.594715"><ele>338.0</ele><time>2026-05-02T15:08:33.989Z</time></trkpt><trkpt lat="44.8879767" lon="9.5946117"><ele>338.0</ele><time>2026-05-02T15:08:34.989Z</time></trkpt><trkpt lat="44.8880867" lon="9.5945167"><ele>338.0</ele><time>2026-05-02T15:08:35.99Z</time></trkpt><trkpt lat="44.8882067" lon="9.5944283"><ele>338.0</ele><time>2026-05-02T15:08:36.989Z</time></trkpt><trkpt lat="44.8883267" lon="9.5943517"><ele>341.25</ele><time>2026-05-02T15:08:37.989Z</time></trkpt><trkpt lat="44.88844" lon="9.5942867"><ele>344.5</ele><time>2026-05-02T15:08:38.989Z</time></trkpt><trkpt lat="44.8885483" lon="9.5942467"><ele>347.75</ele><time>2026-05-02T15:08:39.989Z</time></trkpt><trkpt lat="44.888655" lon="9.5942367"><ele>351.0</ele><time>2026-05-02T15:08:40.989Z</time></trkpt><trkpt lat="44.8887617" lon="9.59427"><ele>351.0</ele><time>2026-05-02T15:08:41.989Z</time></trkpt><trkpt lat="44.88887" lon="9.5943417"><ele>351.0</ele><time>2026-05-02T15:08:42.99Z</time></trkpt><trkpt lat="44.8889833" lon="9.5944417"><ele>351.0</ele><time>2026-05-02T15:08:43.99Z</time></trkpt><trkpt lat="44.8891033" lon="9.5945533"><ele>351.0</ele><time>2026-05-02T15:08:44.989Z</time></trkpt><trkpt lat="44.8892317" lon="9.5946683"><ele>351.75</ele><time>2026-05-02T15:08:45.989Z</time></trkpt><trkpt lat="44.88936" lon="9.5947817"><ele>352.5</ele><time>2026-05-02T15:08:46.989Z</time></trkpt><trkpt lat="44.8894867" lon="9.5948783"><ele>353.25</ele><time>2026-05-02T15:08:47.989Z</time></trkpt><trkpt lat="44.8896117" lon="9.594965"><ele>354.0</ele><time>2026-05-02T15:08:48.991Z</time></trkpt><trkpt lat="44.8897417" lon="9.5950517"><ele>354.0</ele><time>2026-05-02T15:08:49.989Z</time></trkpt><trkpt lat="44.889875" lon="9.5951517"><ele>354.0</ele><time>2026-05-02T15:08:50.991Z</time></trkpt><trkpt lat="44.8900117" lon="9.5952717"><ele>354.0</ele><time>2026-05-02T15:08:51.99Z</time></trkpt><trkpt lat="44.8901433" lon="9.59541"><ele>353.6666666666667</ele><time>2026-05-02T15:08:52.989Z</time></trkpt><trkpt lat="44.8902667" lon="9.5955633"><ele>353.33333333333337</ele><time>2026-05-02T15:08:53.989Z</time></trkpt><trkpt lat="44.8903933" lon="9.595725"><ele>353.0</ele><time>2026-05-02T15:08:54.99Z</time></trkpt><trkpt lat="44.8905133" lon="9.5958883"><ele>353.0</ele><time>2026-05-02T15:08:55.989Z</time></trkpt><trkpt lat="44.8906283" lon="9.5960467"><ele>353.0</ele><time>2026-05-02T15:08:56.99Z</time></trkpt><trkpt lat="44.89074" lon="9.5961967"><ele>353.0</ele><time>2026-05-02T15:08:57.989Z</time></trkpt><trkpt lat="44.8908483" lon="9.596345"><ele>352.75</ele><time>2026-05-02T15:08:58.989Z</time></trkpt><trkpt lat="44.890945" lon="9.5964933"><ele>352.5</ele><time>2026-05-02T15:08:59.991Z</time></trkpt><trkpt lat="44.8910317" lon="9.5966383"><ele>352.25</ele><time>2026-05-02T15:09:00.989Z</time></trkpt><trkpt lat="44.8911183" lon="9.5967883"><ele>352.0</ele><time>2026-05-02T15:09:01.99Z</time></trkpt><trkpt lat="44.8911967" lon="9.5969383"><ele>349.75</ele><time>2026-05-02T15:09:02.99Z</time></trkpt><trkpt lat="44.8912567" lon="9.5970983"><ele>347.5</ele><time>2026-05-02T15:09:03.989Z</time></trkpt><trkpt lat="44.8913017" lon="9.5972583"><ele>345.25</ele><time>2026-05-02T15:09:04.989Z</time></trkpt><trkpt lat="44.8913383" lon="9.5974317"><ele>343.0</ele><time>2026-05-02T15:09:05.989Z</time></trkpt><trkpt lat="44.89137" lon="9.5976217"><ele>343.0</ele><time>2026-05-02T15:09:06.99Z</time></trkpt><trkpt lat="44.8913983" lon="9.5978133"><ele>343.0</ele><time>2026-05-02T15:09:07.989Z</time></trkpt><trkpt lat="44.8914317" lon="9.5980083"><ele>343.0</ele><time>2026-05-02T15:09:08.989Z</time></trkpt><trkpt lat="44.8914667" lon="9.5981967"><ele>343.0</ele><time>2026-05-02T15:09:09.989Z</time></trkpt><trkpt lat="44.89151" lon="9.5983817"><ele>341.0</ele><time>2026-05-02T15:09:10.989Z</time></trkpt><trkpt lat="44.8915633" lon="9.5985567"><ele>339.0</ele><time>2026-05-02T15:09:11.989Z</time></trkpt><trkpt lat="44.8916317" lon="9.5987217"><ele>337.0</ele><time>2026-05-02T15:09:12.989Z</time></trkpt><trkpt lat="44.891705" lon="9.59888"><ele>335.0</ele><time>2026-05-02T15:09:13.991Z</time></trkpt><trkpt lat="44.891785" lon="9.5990317"><ele>333.25</ele><time>2026-05-02T15:09:14.99Z</time></trkpt><trkpt lat="44.8918683" lon="9.599175"><ele>331.5</ele><time>2026-05-02T15:09:15.99Z</time></trkpt><trkpt lat="44.891945" lon="9.59932"><ele>329.75</ele><time>2026-05-02T15:09:16.989Z</time></trkpt><trkpt lat="44.892025" lon="9.5994617"><ele>328.0</ele><time>2026-05-02T15:09:17.989Z</time></trkpt><trkpt lat="44.8921033" lon="9.5996033"><ele>326.0</ele><time>2026-05-02T15:09:18.99Z</time></trkpt><trkpt lat="44.8921783" lon="9.59974"><ele>324.0</ele><time>2026-05-02T15:09:19.989Z</time></trkpt><trkpt lat="44.8922633" lon="9.5998717"><ele>322.0</ele><time>2026-05-02T15:09:20.99Z</time></trkpt><trkpt lat="44.8923633" lon="9.5999833"><ele>320.0</ele><time>2026-05-02T15:09:21.989Z</time></trkpt><trkpt lat="44.89247" lon="9.6000867"><ele>317.33333333333337</ele><time>2026-05-02T15:09:22.989Z</time></trkpt><trkpt lat="44.8925917" lon="9.6001833"><ele>314.6666666666667</ele><time>2026-05-02T15:09:23.989Z</time></trkpt><trkpt lat="44.8927233" lon="9.600285"><ele>312.0</ele><time>2026-05-02T15:09:24.989Z</time></trkpt><trkpt lat="44.892865" lon="9.6003967"><ele>311.6666666666667</ele><time>2026-05-02T15:09:25.989Z</time></trkpt><trkpt lat="44.8930133" lon="9.60052"><ele>311.33333333333337</ele><time>2026-05-02T15:09:26.992Z</time></trkpt><trkpt lat="44.8931617" lon="9.6006583"><ele>311.0</ele><time>2026-05-02T15:09:27.989Z</time></trkpt><trkpt lat="44.8933" lon="9.6007983"><ele>309.6666666666667</ele><time>2026-05-02T15:09:28.991Z</time></trkpt><trkpt lat="44.8934317" lon="9.6009383"><ele>308.3333333333333</ele><time>2026-05-02T15:09:29.989Z</time></trkpt><trkpt lat="44.8935567" lon="9.60108"><ele>307.0</ele><time>2026-05-02T15:09:30.989Z</time></trkpt><trkpt lat="44.8936767" lon="9.601215"><ele>307.0</ele><time>2026-05-02T15:09:31.989Z</time></trkpt><trkpt lat="44.89379" lon="9.601345"><ele>307.0</ele><time>2026-05-02T15:09:32.99Z</time></trkpt><trkpt lat="44.893905" lon="9.60147"><ele>307.0</ele><time>2026-05-02T15:09:33.99Z</time></trkpt><trkpt lat="44.8940217" lon="9.6016"><ele>307.0</ele><time>2026-05-02T15:09:34.989Z</time></trkpt><trkpt lat="44.8941433" lon="9.6017317"><ele>306.66666666666663</ele><time>2026-05-02T15:09:35.99Z</time></trkpt><trkpt lat="44.8942683" lon="9.601865"><ele>306.3333333333333</ele><time>2026-05-02T15:09:36.989Z</time></trkpt><trkpt lat="44.8943917" lon="9.602"><ele>306.0</ele><time>2026-05-02T15:09:37.992Z</time></trkpt><trkpt lat="44.894525" lon="9.6021267"><ele>306.0</ele><time>2026-05-02T15:09:38.99Z</time></trkpt><trkpt lat="44.8946633" lon="9.6022367"><ele>306.0</ele><time>2026-05-02T15:09:39.99Z</time></trkpt><trkpt lat="44.894815" lon="9.6023267"><ele>306.0</ele><time>2026-05-02T15:09:40.989Z</time></trkpt><trkpt lat="44.8949733" lon="9.602385"><ele>303.6666666666667</ele><time>2026-05-02T15:09:41.99Z</time></trkpt><trkpt lat="44.89513" lon="9.6024133"><ele>301.33333333333337</ele><time>2026-05-02T15:09:42.99Z</time></trkpt><trkpt lat="44.8952833" lon="9.6024167"><ele>299.0</ele><time>2026-05-02T15:09:43.99Z</time></trkpt><trkpt lat="44.8954267" lon="9.6024"><ele>299.0</ele><time>2026-05-02T15:09:44.99Z</time></trkpt><trkpt lat="44.895565" lon="9.602375"><ele>299.0</ele><time>2026-05-02T15:09:45.991Z</time></trkpt><trkpt lat="44.8957" lon="9.602345"><ele>299.0</ele><time>2026-05-02T15:09:46.99Z</time></trkpt><trkpt lat="44.895835" lon="9.602315"><ele>299.0</ele><time>2026-05-02T15:09:47.991Z</time></trkpt><trkpt lat="44.8959717" lon="9.6022883"><ele>297.5</ele><time>2026-05-02T15:09:48.99Z</time></trkpt><trkpt lat="44.8961133" lon="9.6022583"><ele>296.0</ele><time>2026-05-02T15:09:49.989Z</time></trkpt><trkpt lat="44.89626" lon="9.60223"><ele>294.5</ele><time>2026-05-02T15:09:50.99Z</time></trkpt><trkpt lat="44.89641" lon="9.6022117"><ele>293.0</ele><time>2026-05-02T15:09:51.99Z</time></trkpt><trkpt lat="44.8965617" lon="9.6022133"><ele>293.0</ele><time>2026-05-02T15:09:52.991Z</time></trkpt><trkpt lat="44.8967183" lon="9.6022367"><ele>293.0</ele><time>2026-05-02T15:09:53.989Z</time></trkpt><trkpt lat="44.896875" lon="9.602285"><ele>293.0</ele><time>2026-05-02T15:09:54.991Z</time></trkpt><trkpt lat="44.8970317" lon="9.6023467"><ele>291.6666666666667</ele><time>2026-05-02T15:09:55.989Z</time></trkpt><trkpt lat="44.8971917" lon="9.6024133"><ele>290.3333333333333</ele><time>2026-05-02T15:09:56.992Z</time></trkpt><trkpt lat="44.8973517" lon="9.6024717"><ele>289.0</ele><time>2026-05-02T15:09:57.99Z</time></trkpt><trkpt lat="44.8975133" lon="9.60253"><ele>288.0</ele><time>2026-05-02T15:09:58.989Z</time></trkpt><trkpt lat="44.897675" lon="9.6025917"><ele>287.0</ele><time>2026-05-02T15:09:59.99Z</time></trkpt><trkpt lat="44.8978367" lon="9.602655"><ele>286.0</ele><time>2026-05-02T15:10:00.989Z</time></trkpt><trkpt lat="44.897995" lon="9.6027133"><ele>286.0</ele><time>2026-05-02T15:10:01.99Z</time></trkpt><trkpt lat="44.8981467" lon="9.6027683"><ele>286.0</ele><time>2026-05-02T15:10:02.989Z</time></trkpt><trkpt lat="44.898295" lon="9.6028233"><ele>286.0</ele><time>2026-05-02T15:10:03.99Z</time></trkpt><trkpt lat="44.8984383" lon="9.6028767"><ele>284.66666666666663</ele><time>2026-05-02T15:10:04.989Z</time></trkpt><trkpt lat="44.8985833" lon="9.6029267"><ele>283.3333333333333</ele><time>2026-05-02T15:10:05.989Z</time></trkpt><trkpt lat="44.8987333" lon="9.60298"><ele>282.0</ele><time>2026-05-02T15:10:06.989Z</time></trkpt><trkpt lat="44.898885" lon="9.6030333"><ele>282.0</ele><time>2026-05-02T15:10:07.99Z</time></trkpt><trkpt lat="44.8990367" lon="9.60307"><ele>282.0</ele><time>2026-05-02T15:10:08.99Z</time></trkpt><trkpt lat="44.89919" lon="9.6030933"><ele>282.0</ele><time>2026-05-02T15:10:09.99Z</time></trkpt><trkpt lat="44.89935" lon="9.6031067"><ele>280.0</ele><time>2026-05-02T15:10:10.989Z</time></trkpt><trkpt lat="44.8995133" lon="9.6031133"><ele>278.0</ele><time>2026-05-02T15:10:11.989Z</time></trkpt><trkpt lat="44.8996767" lon="9.6031167"><ele>276.0</ele><time>2026-05-02T15:10:12.99Z</time></trkpt><trkpt lat="44.8998417" lon="9.6031183"><ele>276.0</ele><time>2026-05-02T15:10:13.989Z</time></trkpt><trkpt lat="44.9000067" lon="9.6031233"><ele>276.0</ele><time>2026-05-02T15:10:14.99Z</time></trkpt><trkpt lat="44.9001667" lon="9.6031283"><ele>276.0</ele><time>2026-05-02T15:10:15.989Z</time></trkpt><trkpt lat="44.90032" lon="9.6031283"><ele>274.0</ele><time>2026-05-02T15:10:16.989Z</time></trkpt><trkpt lat="44.9004733" lon="9.60313"><ele>272.0</ele><time>2026-05-02T15:10:17.989Z</time></trkpt><trkpt lat="44.9006317" lon="9.603135"><ele>270.0</ele><time>2026-05-02T15:10:18.989Z</time></trkpt><trkpt lat="44.900795" lon="9.6031367"><ele>268.3333333333333</ele><time>2026-05-02T15:10:19.99Z</time></trkpt><trkpt lat="44.90096" lon="9.6031417"><ele>266.66666666666663</ele><time>2026-05-02T15:10:20.989Z</time></trkpt><trkpt lat="44.9011217" lon="9.6031483"><ele>265.0</ele><time>2026-05-02T15:10:21.99Z</time></trkpt><trkpt lat="44.9012767" lon="9.6031483"><ele>265.0</ele><time>2026-05-02T15:10:22.989Z</time></trkpt><trkpt lat="44.9014333" lon="9.6031517"><ele>265.0</ele><time>2026-05-02T15:10:23.989Z</time></trkpt><trkpt lat="44.9015883" lon="9.6031567"><ele>265.0</ele><time>2026-05-02T15:10:24.99Z</time></trkpt><trkpt lat="44.9017367" lon="9.6031633"><ele>263.75</ele><time>2026-05-02T15:10:25.989Z</time></trkpt><trkpt lat="44.901885" lon="9.6031867"><ele>262.5</ele><time>2026-05-02T15:10:26.989Z</time></trkpt><trkpt lat="44.90203" lon="9.603245"><ele>261.25</ele><time>2026-05-02T15:10:27.989Z</time></trkpt><trkpt lat="44.90216" lon="9.6033333"><ele>260.0</ele><time>2026-05-02T15:10:28.99Z</time></trkpt><trkpt lat="44.9022817" lon="9.6034433"><ele>260.0</ele><time>2026-05-02T15:10:29.99Z</time></trkpt><trkpt lat="44.9023967" lon="9.6035617"><ele>260.0</ele><time>2026-05-02T15:10:30.989Z</time></trkpt><trkpt lat="44.90251" lon="9.6036733"><ele>260.0</ele><time>2026-05-02T15:10:31.989Z</time></trkpt><trkpt lat="44.90263" lon="9.6037783"><ele>260.0</ele><time>2026-05-02T15:10:32.99Z</time></trkpt><trkpt lat="44.90276" lon="9.6038733"><ele>257.33333333333337</ele><time>2026-05-02T15:10:33.989Z</time></trkpt><trkpt lat="44.9028983" lon="9.6039533"><ele>254.66666666666669</ele><time>2026-05-02T15:10:34.99Z</time></trkpt><trkpt lat="44.9030433" lon="9.6040167"><ele>252.0</ele><time>2026-05-02T15:10:35.989Z</time></trkpt><trkpt lat="44.903195" lon="9.6040767"><ele>252.0</ele><time>2026-05-02T15:10:36.99Z</time></trkpt><trkpt lat="44.9033433" lon="9.6041383"><ele>252.0</ele><time>2026-05-02T15:10:37.99Z</time></trkpt><trkpt lat="44.9034883" lon="9.6041967"><ele>252.0</ele><time>2026-05-02T15:10:38.989Z</time></trkpt><trkpt lat="44.9036283" lon="9.6042517"><ele>250.75</ele><time>2026-05-02T15:10:39.99Z</time></trkpt><trkpt lat="44.903765" lon="9.6043"><ele>249.5</ele><time>2026-05-02T15:10:40.99Z</time></trkpt><trkpt lat="44.9038967" lon="9.6043233"><ele>248.25</ele><time>2026-05-02T15:10:41.989Z</time></trkpt><trkpt lat="44.9040217" lon="9.6043067"><ele>247.0</ele><time>2026-05-02T15:10:42.989Z</time></trkpt><trkpt lat="44.904135" lon="9.60424"><ele>247.0</ele><time>2026-05-02T15:10:43.99Z</time></trkpt><trkpt lat="44.9042383" lon="9.604155"><ele>247.0</ele><time>2026-05-02T15:10:44.989Z</time></trkpt><trkpt lat="44.90434" lon="9.60406"><ele>247.0</ele><time>2026-05-02T15:10:45.99Z</time></trkpt><trkpt lat="44.9044333" lon="9.603985"><ele>247.0</ele><time>2026-05-02T15:10:46.99Z</time></trkpt><trkpt lat="44.9045283" lon="9.60394"><ele>247.0</ele><time>2026-05-02T15:10:47.989Z</time></trkpt><trkpt lat="44.9046267" lon="9.6039433"><ele>245.0</ele><time>2026-05-02T15:10:48.99Z</time></trkpt><trkpt lat="44.9047167" lon="9.6039767"><ele>243.0</ele><time>2026-05-02T15:10:49.99Z</time></trkpt><trkpt lat="44.9048117" lon="9.6040383"><ele>241.0</ele><time>2026-05-02T15:10:50.99Z</time></trkpt><trkpt lat="44.904905" lon="9.6041033"><ele>239.0</ele><time>2026-05-02T15:10:51.991Z</time></trkpt><trkpt lat="44.904995" lon="9.6041633"><ele>237.0</ele><time>2026-05-02T15:10:52.989Z</time></trkpt><trkpt lat="44.905085" lon="9.6042233"><ele>235.2</ele><time>2026-05-02T15:10:53.99Z</time></trkpt><trkpt lat="44.9051717" lon="9.6042767"><ele>233.39999999999998</ele><time>2026-05-02T15:10:54.989Z</time></trkpt><trkpt lat="44.90526" lon="9.6043233"><ele>231.60000000000002</ele><time>2026-05-02T15:10:55.99Z</time></trkpt><trkpt lat="44.9053567" lon="9.6043533"><ele>229.8</ele><time>2026-05-02T15:10:56.99Z</time></trkpt><trkpt lat="44.905455" lon="9.6043583"><ele>228.0</ele><time>2026-05-02T15:10:57.989Z</time></trkpt><trkpt lat="44.9055667" lon="9.6043317"><ele>228.0</ele><time>2026-05-02T15:10:58.99Z</time></trkpt><trkpt lat="44.9056683" lon="9.60428"><ele>228.0</ele><time>2026-05-02T15:10:59.989Z</time></trkpt><trkpt lat="44.905755" lon="9.6042217"><ele>228.0</ele><time>2026-05-02T15:11:00.989Z</time></trkpt><trkpt lat="44.90584" lon="9.6041633"><ele>228.0</ele><time>2026-05-02T15:11:01.989Z</time></trkpt><trkpt lat="44.9059217" lon="9.6041067"><ele>228.0</ele><time>2026-05-02T15:11:02.99Z</time></trkpt><trkpt lat="44.906" lon="9.604055"><ele>226.4</ele><time>2026-05-02T15:11:03.99Z</time></trkpt><trkpt lat="44.9060783" lon="9.60401"><ele>224.8</ele><time>2026-05-02T15:11:04.99Z</time></trkpt><trkpt lat="44.9061533" lon="9.603985"><ele>223.2</ele><time>2026-05-02T15:11:05.989Z</time></trkpt><trkpt lat="44.9062217" lon="9.60397"><ele>221.6</ele><time>2026-05-02T15:11:06.99Z</time></trkpt><trkpt lat="44.9063367" lon="9.6039867"><ele>220.0</ele><time>2026-05-02T15:11:08.991Z</time></trkpt><trkpt lat="44.906435" lon="9.604055"><ele>219.99999999999997</ele><time>2026-05-02T15:11:10.989Z</time></trkpt><trkpt lat="44.90649" lon="9.6041117"><ele>220.0</ele><time>2026-05-02T15:11:11.989Z</time></trkpt><trkpt lat="44.9065433" lon="9.604185"><ele>220.0</ele><time>2026-05-02T15:11:12.991Z</time></trkpt><trkpt lat="44.9065983" lon="9.604285"><ele>220.0</ele><time>2026-05-02T15:11:13.989Z</time></trkpt><trkpt lat="44.9066583" lon="9.6043967"><ele>219.99999999999997</ele><time>2026-05-02T15:11:14.99Z</time></trkpt><trkpt lat="44.9067233" lon="9.6045233"><ele>220.0</ele><time>2026-05-02T15:11:15.989Z</time></trkpt><trkpt lat="44.9067967" lon="9.6046617"><ele>218.0</ele><time>2026-05-02T15:11:16.989Z</time></trkpt><trkpt lat="44.9068733" lon="9.60481"><ele>216.0</ele><time>2026-05-02T15:11:17.99Z</time></trkpt><trkpt lat="44.90695" lon="9.6049583"><ele>214.0</ele><time>2026-05-02T15:11:18.99Z</time></trkpt><trkpt lat="44.9070233" lon="9.6051067"><ele>212.0</ele><time>2026-05-02T15:11:19.99Z</time></trkpt><trkpt lat="44.9070967" lon="9.6052583"><ele>211.75</ele><time>2026-05-02T15:11:20.991Z</time></trkpt><trkpt lat="44.90716" lon="9.60542"><ele>211.5</ele><time>2026-05-02T15:11:21.99Z</time></trkpt><trkpt lat="44.9072167" lon="9.6055983"><ele>211.25</ele><time>2026-05-02T15:11:22.99Z</time></trkpt><trkpt lat="44.9072617" lon="9.6057933"><ele>211.0</ele><time>2026-05-02T15:11:23.992Z</time></trkpt><trkpt lat="44.907305" lon="9.6059917"><ele>211.25</ele><time>2026-05-02T15:11:24.99Z</time></trkpt><trkpt lat="44.9073517" lon="9.6061833"><ele>211.5</ele><time>2026-05-02T15:11:25.991Z</time></trkpt><trkpt lat="44.9074" lon="9.60636"><ele>211.75</ele><time>2026-05-02T15:11:26.99Z</time></trkpt><trkpt lat="44.90746" lon="9.6065333"><ele>212.0</ele><time>2026-05-02T15:11:27.989Z</time></trkpt><trkpt lat="44.9075317" lon="9.6067083"><ele>210.0</ele><time>2026-05-02T15:11:28.989Z</time></trkpt><trkpt lat="44.9076183" lon="9.6068867"><ele>208.0</ele><time>2026-05-02T15:11:29.989Z</time></trkpt><trkpt lat="44.9077233" lon="9.607055"><ele>206.0</ele><time>2026-05-02T15:11:30.99Z</time></trkpt><trkpt lat="44.9078433" lon="9.6072067"><ele>206.0</ele><time>2026-05-02T15:11:31.99Z</time></trkpt><trkpt lat="44.9079817" lon="9.6073417"><ele>206.0</ele><time>2026-05-02T15:11:32.99Z</time></trkpt><trkpt lat="44.9081267" lon="9.6074667"><ele>206.0</ele><time>2026-05-02T15:11:33.99Z</time></trkpt><trkpt lat="44.9082683" lon="9.60759"><ele>206.0</ele><time>2026-05-02T15:11:34.991Z</time></trkpt><trkpt lat="44.908405" lon="9.6077183"><ele>206.0</ele><time>2026-05-02T15:11:35.99Z</time></trkpt><trkpt lat="44.9085417" lon="9.6078433"><ele>206.0</ele><time>2026-05-02T15:11:36.989Z</time></trkpt><trkpt lat="44.9086867" lon="9.6079767"><ele>203.33333333333334</ele><time>2026-05-02T15:11:37.99Z</time></trkpt><trkpt lat="44.9088367" lon="9.6081083"><ele>200.66666666666669</ele><time>2026-05-02T15:11:38.99Z</time></trkpt><trkpt lat="44.9089817" lon="9.6082383"><ele>198.0</ele><time>2026-05-02T15:11:39.989Z</time></trkpt><trkpt lat="44.90913" lon="9.6083633"><ele>195.33333333333334</ele><time>2026-05-02T15:11:40.989Z</time></trkpt><trkpt lat="44.9092767" lon="9.608485"><ele>192.66666666666669</ele><time>2026-05-02T15:11:41.989Z</time></trkpt><trkpt lat="44.9094233" lon="9.6086033"><ele>190.0</ele><time>2026-05-02T15:11:42.989Z</time></trkpt><trkpt lat="44.9095683" lon="9.6087317"><ele>190.0</ele><time>2026-05-02T15:11:43.99Z</time></trkpt><trkpt lat="44.90971" lon="9.6088633"><ele>190.0</ele><time>2026-05-02T15:11:44.99Z</time></trkpt><trkpt lat="44.909855" lon="9.6089933"><ele>190.0</ele><time>2026-05-02T15:11:45.99Z</time></trkpt><trkpt lat="44.9099983" lon="9.609125"><ele>185.66666666666669</ele><time>2026-05-02T15:11:46.989Z</time></trkpt><trkpt lat="44.9101383" lon="9.6092517"><ele>181.33333333333334</ele><time>2026-05-02T15:11:47.991Z</time></trkpt><trkpt lat="44.9102733" lon="9.609375"><ele>177.0</ele><time>2026-05-02T15:11:48.99Z</time></trkpt><trkpt lat="44.9104083" lon="9.60949"><ele>177.75</ele><time>2026-05-02T15:11:49.989Z</time></trkpt><trkpt lat="44.910545" lon="9.6095817"><ele>178.5</ele><time>2026-05-02T15:11:50.99Z</time></trkpt><trkpt lat="44.9106833" lon="9.6096483"><ele>179.25</ele><time>2026-05-02T15:11:51.989Z</time></trkpt><trkpt lat="44.9108283" lon="9.6096717"><ele>180.0</ele><time>2026-05-02T15:11:52.991Z</time></trkpt><trkpt lat="44.91098" lon="9.6096667"><ele>177.0</ele><time>2026-05-02T15:11:53.989Z</time></trkpt><trkpt lat="44.9111267" lon="9.6096267"><ele>174.0</ele><time>2026-05-02T15:11:54.989Z</time></trkpt><trkpt lat="44.9112783" lon="9.6095567"><ele>171.0</ele><time>2026-05-02T15:11:55.989Z</time></trkpt><trkpt lat="44.9114217" lon="9.609445"><ele>171.0</ele><time>2026-05-02T15:11:56.99Z</time></trkpt><trkpt lat="44.9115517" lon="9.60932"><ele>171.0</ele><time>2026-05-02T15:11:57.989Z</time></trkpt><trkpt lat="44.9116817" lon="9.609195"><ele>171.0</ele><time>2026-05-02T15:11:58.989Z</time></trkpt><trkpt lat="44.9118133" lon="9.609065"><ele>169.0</ele><time>2026-05-02T15:11:59.989Z</time></trkpt><trkpt lat="44.91195" lon="9.6089283"><ele>167.0</ele><time>2026-05-02T15:12:00.989Z</time></trkpt><trkpt lat="44.91209" lon="9.6087883"><ele>165.0</ele><time>2026-05-02T15:12:01.989Z</time></trkpt><trkpt lat="44.912235" lon="9.6086417"><ele>165.0</ele><time>2026-05-02T15:12:02.99Z</time></trkpt><trkpt lat="44.91238" lon="9.6084983"><ele>165.0</ele><time>2026-05-02T15:12:03.99Z</time></trkpt><trkpt lat="44.91252" lon="9.6083617"><ele>165.0</ele><time>2026-05-02T15:12:04.991Z</time></trkpt><trkpt lat="44.9126583" lon="9.6082283"><ele>163.66666666666666</ele><time>2026-05-02T15:12:05.991Z</time></trkpt><trkpt lat="44.9127917" lon="9.6081017"><ele>162.33333333333331</ele><time>2026-05-02T15:12:06.991Z</time></trkpt><trkpt lat="44.9129217" lon="9.6079767"><ele>161.0</ele><time>2026-05-02T15:12:07.992Z</time></trkpt><trkpt lat="44.9130483" lon="9.6078567"><ele>160.33333333333331</ele><time>2026-05-02T15:12:08.991Z</time></trkpt><trkpt lat="44.9131783" lon="9.6077283"><ele>159.66666666666666</ele><time>2026-05-02T15:12:09.99Z</time></trkpt><trkpt lat="44.9133117" lon="9.6076"><ele>159.0</ele><time>2026-05-02T15:12:10.992Z</time></trkpt><trkpt lat="44.9134417" lon="9.6074717"><ele>157.33333333333334</ele><time>2026-05-02T15:12:11.99Z</time></trkpt><trkpt lat="44.9135717" lon="9.6073433"><ele>155.66666666666669</ele><time>2026-05-02T15:12:12.989Z</time></trkpt><trkpt lat="44.9137" lon="9.6072183"><ele>154.0</ele><time>2026-05-02T15:12:13.99Z</time></trkpt><trkpt lat="44.9138283" lon="9.60711"><ele>154.0</ele><time>2026-05-02T15:12:14.991Z</time></trkpt><trkpt lat="44.9139517" lon="9.60703"><ele>154.0</ele><time>2026-05-02T15:12:15.99Z</time></trkpt><trkpt lat="44.9140633" lon="9.6069767"><ele>154.0</ele><time>2026-05-02T15:12:16.99Z</time></trkpt><trkpt lat="44.9141733" lon="9.6069483"><ele>154.0</ele><time>2026-05-02T15:12:17.991Z</time></trkpt><trkpt lat="44.91428" lon="9.6069217"><ele>153.4</ele><time>2026-05-02T15:12:18.991Z</time></trkpt><trkpt lat="44.9143783" lon="9.6068933"><ele>152.8</ele><time>2026-05-02T15:12:19.989Z</time></trkpt><trkpt lat="44.91447" lon="9.6068617"><ele>152.2</ele><time>2026-05-02T15:12:20.989Z</time></trkpt><trkpt lat="44.91456" lon="9.6068317"><ele>151.6</ele><time>2026-05-02T15:12:21.989Z</time></trkpt><trkpt lat="44.9146483" lon="9.6068033"><ele>151.0</ele><time>2026-05-02T15:12:22.989Z</time></trkpt><trkpt lat="44.914735" lon="9.606775"><ele>151.0</ele><time>2026-05-02T15:12:23.989Z</time></trkpt><trkpt lat="44.914825" lon="9.6067467"><ele>151.0</ele><time>2026-05-02T15:12:24.989Z</time></trkpt><trkpt lat="44.91492" lon="9.606715"><ele>151.0</ele><time>2026-05-02T15:12:25.988Z</time></trkpt><trkpt lat="44.91502" lon="9.6066833"><ele>151.0</ele><time>2026-05-02T15:12:26.989Z</time></trkpt><trkpt lat="44.9151233" lon="9.6066483"><ele>151.0</ele><time>2026-05-02T15:12:27.988Z</time></trkpt><trkpt lat="44.91523" lon="9.6066117"><ele>150.0</ele><time>2026-05-02T15:12:28.989Z</time></trkpt><trkpt lat="44.91534" lon="9.606575"><ele>149.0</ele><time>2026-05-02T15:12:29.989Z</time></trkpt><trkpt lat="44.915455" lon="9.606535"><ele>148.0</ele><time>2026-05-02T15:12:30.988Z</time></trkpt><trkpt lat="44.9155767" lon="9.60649"><ele>147.0</ele><time>2026-05-02T15:12:31.989Z</time></trkpt><trkpt lat="44.9156967" lon="9.6064383"><ele>147.0</ele><time>2026-05-02T15:12:32.989Z</time></trkpt><trkpt lat="44.9158167" lon="9.6063983"><ele>147.0</ele><time>2026-05-02T15:12:33.988Z</time></trkpt><trkpt lat="44.915935" lon="9.6063633"><ele>147.0</ele><time>2026-05-02T15:12:34.989Z</time></trkpt><trkpt lat="44.91605" lon="9.6063283"><ele>147.0</ele><time>2026-05-02T15:12:35.989Z</time></trkpt><trkpt lat="44.9161667" lon="9.606295"><ele>146.4</ele><time>2026-05-02T15:12:36.989Z</time></trkpt><trkpt lat="44.916275" lon="9.606265"><ele>145.79999999999998</ele><time>2026-05-02T15:12:37.988Z</time></trkpt><trkpt lat="44.9163767" lon="9.6062367"><ele>145.2</ele><time>2026-05-02T15:12:38.988Z</time></trkpt><trkpt lat="44.9164717" lon="9.6062117"><ele>144.6</ele><time>2026-05-02T15:12:39.99Z</time></trkpt><trkpt lat="44.9165633" lon="9.6061833"><ele>144.0</ele><time>2026-05-02T15:12:40.988Z</time></trkpt><trkpt lat="44.9166533" lon="9.6061583"><ele>143.5</ele><time>2026-05-02T15:12:41.988Z</time></trkpt><trkpt lat="44.9167333" lon="9.6061333"><ele>143.0</ele><time>2026-05-02T15:12:42.989Z</time></trkpt><trkpt lat="44.9168067" lon="9.6061133"><ele>142.5</ele><time>2026-05-02T15:12:43.989Z</time></trkpt><trkpt lat="44.9168767" lon="9.6061117"><ele>142.0</ele><time>2026-05-02T15:12:44.989Z</time></trkpt><trkpt lat="44.9169417" lon="9.6061433"><ele>141.5</ele><time>2026-05-02T15:12:45.989Z</time></trkpt><trkpt lat="44.9170117" lon="9.6062083"><ele>141.0</ele><time>2026-05-02T15:12:46.988Z</time></trkpt><trkpt lat="44.9171067" lon="9.6063083"><ele>141.0</ele><time>2026-05-02T15:12:47.989Z</time></trkpt><trkpt lat="44.917235" lon="9.606445"><ele>141.0</ele><time>2026-05-02T15:12:48.99Z</time></trkpt><trkpt lat="44.9173833" lon="9.6065933"><ele>141.0</ele><time>2026-05-02T15:12:49.988Z</time></trkpt><trkpt lat="44.9175367" lon="9.6067333"><ele>140.33333333333334</ele><time>2026-05-02T15:12:50.989Z</time></trkpt><trkpt lat="44.9176867" lon="9.6068583"><ele>139.66666666666669</ele><time>2026-05-02T15:12:51.989Z</time></trkpt><trkpt lat="44.9178317" lon="9.6069683"><ele>139.0</ele><time>2026-05-02T15:12:52.988Z</time></trkpt><trkpt lat="44.917975" lon="9.60707"><ele>139.0</ele><time>2026-05-02T15:12:53.99Z</time></trkpt><trkpt lat="44.91812" lon="9.607165"><ele>139.0</ele><time>2026-05-02T15:12:54.989Z</time></trkpt><trkpt lat="44.9182683" lon="9.6072583"><ele>139.0</ele><time>2026-05-02T15:12:55.99Z</time></trkpt><trkpt lat="44.91841" lon="9.6073467"><ele>138.25</ele><time>2026-05-02T15:12:56.991Z</time></trkpt><trkpt lat="44.9185417" lon="9.60743"><ele>137.5</ele><time>2026-05-02T15:12:57.988Z</time></trkpt><trkpt lat="44.9186683" lon="9.6075167"><ele>136.75</ele><time>2026-05-02T15:12:58.988Z</time></trkpt><trkpt lat="44.91879" lon="9.6076033"><ele>136.0</ele><time>2026-05-02T15:12:59.988Z</time></trkpt><trkpt lat="44.9189117" lon="9.6076933"><ele>136.0</ele><time>2026-05-02T15:13:00.99Z</time></trkpt><trkpt lat="44.9190433" lon="9.6077883"><ele>136.0</ele><time>2026-05-02T15:13:01.988Z</time></trkpt><trkpt lat="44.9191867" lon="9.607885"><ele>136.0</ele><time>2026-05-02T15:13:02.989Z</time></trkpt><trkpt lat="44.9193383" lon="9.6079883"><ele>135.66666666666669</ele><time>2026-05-02T15:13:03.99Z</time></trkpt><trkpt lat="44.9194917" lon="9.6080917"><ele>135.33333333333334</ele><time>2026-05-02T15:13:04.988Z</time></trkpt><trkpt lat="44.91964" lon="9.6081967"><ele>135.0</ele><time>2026-05-02T15:13:05.989Z</time></trkpt><trkpt lat="44.9197783" lon="9.6082983"><ele>135.0</ele><time>2026-05-02T15:13:06.988Z</time></trkpt><trkpt lat="44.91991" lon="9.608405"><ele>135.0</ele><time>2026-05-02T15:13:07.989Z</time></trkpt><trkpt lat="44.9200333" lon="9.6085117"><ele>135.0</ele><time>2026-05-02T15:13:08.989Z</time></trkpt><trkpt lat="44.92015" lon="9.6086217"><ele>135.0</ele><time>2026-05-02T15:13:09.989Z</time></trkpt><trkpt lat="44.92026" lon="9.6087267"><ele>134.75</ele><time>2026-05-02T15:13:10.988Z</time></trkpt><trkpt lat="44.920365" lon="9.6088267"><ele>134.5</ele><time>2026-05-02T15:13:11.988Z</time></trkpt><trkpt lat="44.92046" lon="9.608925"><ele>134.25</ele><time>2026-05-02T15:13:12.988Z</time></trkpt><trkpt lat="44.92055" lon="9.6090217"><ele>134.0</ele><time>2026-05-02T15:13:13.989Z</time></trkpt><trkpt lat="44.920635" lon="9.60911"><ele>134.0</ele><time>2026-05-02T15:13:14.989Z</time></trkpt><trkpt lat="44.9207167" lon="9.6092017"><ele>134.0</ele><time>2026-05-02T15:13:15.988Z</time></trkpt><trkpt lat="44.9208017" lon="9.609295"><ele>134.0</ele><time>2026-05-02T15:13:16.988Z</time></trkpt><trkpt lat="44.9208933" lon="9.6093983"><ele>134.0</ele><time>2026-05-02T15:13:17.989Z</time></trkpt><trkpt lat="44.9209783" lon="9.609485"><ele>134.0</ele><time>2026-05-02T15:13:18.989Z</time></trkpt><trkpt lat="44.92106" lon="9.6095683"><ele>133.66666666666666</ele><time>2026-05-02T15:13:19.989Z</time></trkpt><trkpt lat="44.9211367" lon="9.6096467"><ele>133.33333333333331</ele><time>2026-05-02T15:13:20.989Z</time></trkpt><trkpt lat="44.921205" lon="9.609725"><ele>133.0</ele><time>2026-05-02T15:13:21.989Z</time></trkpt><trkpt lat="44.9212667" lon="9.6097967"><ele>132.66666666666666</ele><time>2026-05-02T15:13:22.99Z</time></trkpt><trkpt lat="44.921305" lon="9.609875"><ele>132.33333333333334</ele><time>2026-05-02T15:13:23.99Z</time></trkpt><trkpt lat="44.9213267" lon="9.609965"><ele>132.0</ele><time>2026-05-02T15:13:24.988Z</time></trkpt><trkpt lat="44.92132" lon="9.6100567"><ele>132.0</ele><time>2026-05-02T15:13:25.989Z</time></trkpt><trkpt lat="44.92129" lon="9.61015"><ele>132.0</ele><time>2026-05-02T15:13:26.989Z</time></trkpt><trkpt lat="44.9212633" lon="9.6102483"><ele>132.0</ele><time>2026-05-02T15:13:27.989Z</time></trkpt><trkpt lat="44.9212533" lon="9.6103517"><ele>132.0</ele><time>2026-05-02T15:13:28.99Z</time></trkpt><trkpt lat="44.9212633" lon="9.610445"><ele>132.0</ele><time>2026-05-02T15:13:29.989Z</time></trkpt><trkpt lat="44.9213033" lon="9.6105917"><ele>132.0</ele><time>2026-05-02T15:13:31.989Z</time></trkpt><trkpt lat="44.9212967" lon="9.6106833"><ele>131.79999999999998</ele><time>2026-05-02T15:15:39.989Z</time></trkpt><trkpt lat="44.9213483" lon="9.61077"><ele>131.6</ele><time>2026-05-02T15:15:41.989Z</time></trkpt><trkpt lat="44.9214483" lon="9.6108967"><ele>131.39999999999998</ele><time>2026-05-02T15:15:43.989Z</time></trkpt><trkpt lat="44.9215" lon="9.6109633"><ele>131.2</ele><time>2026-05-02T15:15:44.99Z</time></trkpt><trkpt lat="44.9216" lon="9.611055"><ele>131.0</ele><time>2026-05-02T15:15:46.99Z</time></trkpt><trkpt lat="44.92169" lon="9.6110633"><ele>131.0</ele><time>2026-05-02T15:15:48.989Z</time></trkpt><trkpt lat="44.921755" lon="9.610935"><ele>131.0</ele><time>2026-05-02T15:17:01.989Z</time></trkpt><trkpt lat="44.92172" lon="9.610835"><ele>131.0</ele><time>2026-05-02T15:17:03.989Z</time></trkpt><trkpt lat="44.9216533" lon="9.61073"><ele>131.0</ele><time>2026-05-02T15:17:05.989Z</time></trkpt><trkpt lat="44.92159" lon="9.6106583"><ele>131.0</ele><time>2026-05-02T15:17:07.989Z</time></trkpt><trkpt lat="44.92153" lon="9.6105983"><ele>131.0</ele><time>2026-05-02T15:17:10.99Z</time></trkpt><trkpt lat="44.9214683" lon="9.6105417"><ele>131.0</ele><time>2026-05-02T15:17:13.991Z</time></trkpt><trkpt lat="44.9213867" lon="9.61046"><ele>131.0</ele><time>2026-05-02T15:17:15.99Z</time></trkpt><trkpt lat="44.9213" lon="9.6103733"><ele>131.0</ele><time>2026-05-02T15:17:17.99Z</time></trkpt><trkpt lat="44.9212317" lon="9.6103233"><ele>131.0</ele><time>2026-05-02T15:17:19.989Z</time></trkpt><trkpt lat="44.9211367" lon="9.6103567"><ele>131.0</ele><time>2026-05-02T15:17:21.99Z</time></trkpt><trkpt lat="44.92108" lon="9.6104183"><ele>131.0</ele><time>2026-05-02T15:17:22.989Z</time></trkpt><trkpt lat="44.9210217" lon="9.610505"><ele>131.0</ele><time>2026-05-02T15:17:23.989Z</time></trkpt><trkpt lat="44.9209667" lon="9.6105917"><ele>131.0</ele><time>2026-05-02T15:17:24.989Z</time></trkpt><trkpt lat="44.9209133" lon="9.610675"><ele>131.0</ele><time>2026-05-02T15:17:25.989Z</time></trkpt><trkpt lat="44.9208583" lon="9.6107567"><ele>131.0</ele><time>2026-05-02T15:17:26.99Z</time></trkpt><trkpt lat="44.9208067" lon="9.6108367"><ele>131.0</ele><time>2026-05-02T15:17:27.99Z</time></trkpt><trkpt lat="44.9207567" lon="9.6109183"><ele>136.0</ele><time>2026-05-02T15:17:28.989Z</time></trkpt><trkpt lat="44.9207117" lon="9.610995"><ele>136.0</ele><time>2026-05-02T15:17:29.99Z</time></trkpt><trkpt lat="44.920665" lon="9.6110633"><ele>136.0</ele><time>2026-05-02T15:17:30.989Z</time></trkpt><trkpt lat="44.9206167" lon="9.611125"><ele>136.0</ele><time>2026-05-02T15:17:31.989Z</time></trkpt><trkpt lat="44.9205233" lon="9.61121"><ele>143.0</ele><time>2026-05-02T15:17:33.989Z</time></trkpt><trkpt lat="44.9204583" lon="9.6112483"><ele>143.0</ele><time>2026-05-02T15:17:35.989Z</time></trkpt></trkseg></trk></gpx>